<?xml version='1.0' encoding='UTF-8'?><gpx version="1.1" creator="JPX - https://github.com/jenetics/jpx" xmlns="http://www.topografix.com/GPX/1/1"><trk><trkseg><trkpt lat="42.86184274519367" lon="3.0376924356090895"><ele>3.9999999999999996</ele><time>2026-04-09T08:47:33.001Z</time></trkpt><trkpt lat="42.861855563146115" lon="3.037598640484607"><ele>4.0</ele><time>2026-04-09T08:47:40Z</time></trkpt><trkpt lat="42.861803211741815" lon="3.037512142420724"><ele>4.0</ele><time>2026-04-09T08:47:43Z</time></trkpt><trkpt lat="42.86181081382135" lon="3.03739472006691"><ele>4.0</ele><time>2026-04-09T08:47:46Z</time></trkpt><trkpt lat="42.8618692477577" lon="3.037344321526904"><ele>3.9999999999999996</ele><time>2026-04-09T08:47:49Z</time></trkpt><trkpt lat="42.86193572629935" lon="3.0373703903147105"><ele>4.0</ele><time>2026-04-09T08:47:53Z</time></trkpt><trkpt lat="42.86195414164096" lon="3.037487632076815"><ele>4.0</ele><time>2026-04-09T08:47:55Z</time></trkpt><trkpt lat="42.861976980675045" lon="3.0376103507814354"><ele>4.0</ele><time>2026-04-09T08:47:57Z</time></trkpt><trkpt lat="42.8620008258697" lon="3.0377665112597048"><ele>4.0</ele><time>2026-04-09T08:47:59Z</time></trkpt><trkpt lat="42.86202746398243" lon="3.037929308603404"><ele>4.0</ele><time>2026-04-09T08:48:01Z</time></trkpt><trkpt lat="42.86199537318315" lon="3.0380916265183027"><ele>4.0</ele><time>2026-04-09T08:48:03Z</time></trkpt><trkpt lat="42.86193036948647" lon="3.0382354442698403"><ele>4.0</ele><time>2026-04-09T08:48:05Z</time></trkpt><trkpt lat="42.86190029126793" lon="3.038311719905235"><ele>4.0</ele><time>2026-04-09T08:48:06Z</time></trkpt><trkpt lat="42.861838565134434" lon="3.038456038132905"><ele>4.0</ele><time>2026-04-09T08:48:08Z</time></trkpt><trkpt lat="42.8617819734241" lon="3.0385888326852593"><ele>4.0</ele><time>2026-04-09T08:48:10Z</time></trkpt><trkpt lat="42.861752855662736" lon="3.038697443997179"><ele>3.833333333333333</ele><time>2026-04-09T08:48:12Z</time></trkpt><trkpt lat="42.86170119917108" lon="3.0387797506232"><ele>3.6666666666666665</ele><time>2026-04-09T08:48:14Z</time></trkpt><trkpt lat="42.86165862628922" lon="3.0388802962313006"><ele>3.5</ele><time>2026-04-09T08:48:56Z</time></trkpt><trkpt lat="42.86162241780393" lon="3.0389663863206033"><ele>3.333333333333333</ele><time>2026-04-09T08:49:00Z</time></trkpt><trkpt lat="42.86159076695659" lon="3.039042747328637"><ele>3.1666666666666665</ele><time>2026-04-09T08:49:02Z</time></trkpt><trkpt lat="42.86156503841838" lon="3.039147985819618"><ele>3.0</ele><time>2026-04-09T08:49:04Z</time></trkpt><trkpt lat="42.86152140722316" lon="3.039242641987196"><ele>2.8</ele><time>2026-04-09T08:49:06Z</time></trkpt><trkpt lat="42.86147190265477" lon="3.039362450613805"><ele>2.5999999999999996</ele><time>2026-04-09T08:49:08Z</time></trkpt><trkpt lat="42.8614365710084" lon="3.0394540041117777"><ele>2.4000000000000004</ele><time>2026-04-09T08:49:10Z</time></trkpt><trkpt lat="42.86138071270828" lon="3.0395466027713867"><ele>2.2</ele><time>2026-04-09T08:49:12Z</time></trkpt><trkpt lat="42.86132556962566" lon="3.039678438550638"><ele>2.0</ele><time>2026-04-09T08:49:14Z</time></trkpt><trkpt lat="42.86126326540175" lon="3.0398273951348354"><ele>2.0</ele><time>2026-04-09T08:49:16Z</time></trkpt><trkpt lat="42.86123146239573" lon="3.0399034295832488"><ele>1.9999999999999998</ele><time>2026-04-09T08:49:17Z</time></trkpt><trkpt lat="42.86119801635416" lon="3.0399833922015023"><ele>2.0</ele><time>2026-04-09T08:49:18Z</time></trkpt><trkpt lat="42.86116518748854" lon="3.0400618794006293"><ele>2.0</ele><time>2026-04-09T08:49:19Z</time></trkpt><trkpt lat="42.86114564851499" lon="3.040155006383114"><ele>1.9999999999999998</ele><time>2026-04-09T08:49:20Z</time></trkpt><trkpt lat="42.86111239548587" lon="3.0402325119753817"><ele>2.0</ele><time>2026-04-09T08:49:21Z</time></trkpt><trkpt lat="42.861080331010776" lon="3.0403095683352848"><ele>2.0</ele><time>2026-04-09T08:49:22Z</time></trkpt><trkpt lat="42.86103569745907" lon="3.0403746537598235"><ele>2.0</ele><time>2026-04-09T08:49:23Z</time></trkpt><trkpt lat="42.86097462377593" lon="3.0405183250830334"><ele>2.0</ele><time>2026-04-09T08:49:25Z</time></trkpt><trkpt lat="42.860934998141325" lon="3.0406692891061193"><ele>2.0</ele><time>2026-04-09T08:49:27Z</time></trkpt><trkpt lat="42.86088167579574" lon="3.0408004979216487"><ele>2.0</ele><time>2026-04-09T08:49:29Z</time></trkpt><trkpt lat="42.86082438794401" lon="3.0409355770282254"><ele>2.0</ele><time>2026-04-09T08:49:31Z</time></trkpt><trkpt lat="42.86076903660306" lon="3.041057503750523"><ele>2.0</ele><time>2026-04-09T08:49:33Z</time></trkpt><trkpt lat="42.860700816408915" lon="3.041145456433657"><ele>2.0</ele><time>2026-04-09T08:49:35Z</time></trkpt><trkpt lat="42.86060158784552" lon="3.0411736962584084"><ele>2.0</ele><time>2026-04-09T08:49:37Z</time></trkpt><trkpt lat="42.86049211756233" lon="3.041148132109202"><ele>2.0</ele><time>2026-04-09T08:49:39Z</time></trkpt><trkpt lat="42.8603670681024" lon="3.041142195282115"><ele>1.9999999999999998</ele><time>2026-04-09T08:49:41Z</time></trkpt><trkpt lat="42.86029570296523" lon="3.0411405837945114"><ele>2.0</ele><time>2026-04-09T08:49:42Z</time></trkpt><trkpt lat="42.8602177104613" lon="3.041138269210812"><ele>2.0</ele><time>2026-04-09T08:49:43Z</time></trkpt><trkpt lat="42.860136702400766" lon="3.0411365735785676"><ele>2.0</ele><time>2026-04-09T08:49:44Z</time></trkpt><trkpt lat="42.86005525264313" lon="3.0411369705498337"><ele>1.9999999999999998</ele><time>2026-04-09T08:49:45Z</time></trkpt><trkpt lat="42.85996782167553" lon="3.041137935127973"><ele>2.0</ele><time>2026-04-09T08:49:46Z</time></trkpt><trkpt lat="42.859880201469835" lon="3.0411392699851105"><ele>2.1666666666666665</ele><time>2026-04-09T08:49:47Z</time></trkpt><trkpt lat="42.859793795835294" lon="3.0411395554873066"><ele>2.333333333333333</ele><time>2026-04-09T08:49:48Z</time></trkpt><trkpt lat="42.85970767560928" lon="3.0411359071375452"><ele>2.5</ele><time>2026-04-09T08:49:49Z</time></trkpt><trkpt lat="42.859621499058214" lon="3.0411356043704134"><ele>2.6666666666666665</ele><time>2026-04-09T08:49:50Z</time></trkpt><trkpt lat="42.85953156492367" lon="3.0411419565568854"><ele>2.8333333333333335</ele><time>2026-04-09T08:49:51Z</time></trkpt><trkpt lat="42.85944002917541" lon="3.0411361173366562"><ele>3.0</ele><time>2026-04-09T08:49:52Z</time></trkpt><trkpt lat="42.85935004644975" lon="3.0411346964826924"><ele>3.0</ele><time>2026-04-09T08:49:53Z</time></trkpt><trkpt lat="42.85925831093628" lon="3.0411283021665887"><ele>3.0</ele><time>2026-04-09T08:49:54Z</time></trkpt><trkpt lat="42.85917164644912" lon="3.0411307802722143"><ele>3.0</ele><time>2026-04-09T08:49:55Z</time></trkpt><trkpt lat="42.85908706714105" lon="3.0411302392238126"><ele>3.0</ele><time>2026-04-09T08:49:56Z</time></trkpt><trkpt lat="42.85900201268584" lon="3.041127889790108"><ele>3.0</ele><time>2026-04-09T08:49:57Z</time></trkpt><trkpt lat="42.85892218454577" lon="3.0411225309099277"><ele>3.0</ele><time>2026-04-09T08:49:58Z</time></trkpt><trkpt lat="42.85884781636772" lon="3.0410922723227483"><ele>3.0</ele><time>2026-04-09T08:49:59Z</time></trkpt><trkpt lat="42.85877564537462" lon="3.041041383232537"><ele>3.0</ele><time>2026-04-09T08:50:00Z</time></trkpt><trkpt lat="42.85871386888901" lon="3.0409626425285117"><ele>3.0</ele><time>2026-04-09T08:50:01Z</time></trkpt><trkpt lat="42.85865761166881" lon="3.040884493067437"><ele>3.0</ele><time>2026-04-09T08:50:02Z</time></trkpt><trkpt lat="42.85859452357563" lon="3.040802109915166"><ele>3.0</ele><time>2026-04-09T08:50:03Z</time></trkpt><trkpt lat="42.858533943724225" lon="3.04073106547536"><ele>3.0</ele><time>2026-04-09T08:50:04Z</time></trkpt><trkpt lat="42.85845973594163" lon="3.04068756391616"><ele>2.8333333333333335</ele><time>2026-04-09T08:50:05Z</time></trkpt><trkpt lat="42.85838153552884" lon="3.0406590538346583"><ele>2.6666666666666665</ele><time>2026-04-09T08:50:06Z</time></trkpt><trkpt lat="42.85829800316258" lon="3.0406360678522515"><ele>2.5</ele><time>2026-04-09T08:50:07Z</time></trkpt><trkpt lat="42.85821245185442" lon="3.0406257399662406"><ele>2.333333333333333</ele><time>2026-04-09T08:50:08Z</time></trkpt><trkpt lat="42.85812734350167" lon="3.0406266645983386"><ele>2.1666666666666665</ele><time>2026-04-09T08:50:09Z</time></trkpt><trkpt lat="42.858041342112" lon="3.0406292986132586"><ele>2.0</ele><time>2026-04-09T08:50:10Z</time></trkpt><trkpt lat="42.85795740868523" lon="3.040628622788489"><ele>1.9999999999999998</ele><time>2026-04-09T08:50:11Z</time></trkpt><trkpt lat="42.857869706067355" lon="3.040626840990424"><ele>2.0</ele><time>2026-04-09T08:50:12Z</time></trkpt><trkpt lat="42.85778394399982" lon="3.040631747884402"><ele>2.0</ele><time>2026-04-09T08:50:13Z</time></trkpt><trkpt lat="42.857696849934214" lon="3.040631507089239"><ele>2.0</ele><time>2026-04-09T08:50:14Z</time></trkpt><trkpt lat="42.857612746205476" lon="3.040629879271863"><ele>1.9999999999999998</ele><time>2026-04-09T08:50:15Z</time></trkpt><trkpt lat="42.85753626316984" lon="3.0406291900366083"><ele>2.0</ele><time>2026-04-09T08:50:16Z</time></trkpt><trkpt lat="42.85745916789491" lon="3.0406278906409994"><ele>2.333333333333333</ele><time>2026-04-09T08:50:17Z</time></trkpt><trkpt lat="42.85738922309066" lon="3.040608068122611"><ele>2.6666666666666665</ele><time>2026-04-09T08:50:18Z</time></trkpt><trkpt lat="42.8573200237619" lon="3.040575111601823"><ele>3.0</ele><time>2026-04-09T08:50:19Z</time></trkpt><trkpt lat="42.85725836716608" lon="3.040529398818251"><ele>3.333333333333333</ele><time>2026-04-09T08:50:20Z</time></trkpt><trkpt lat="42.85720534982958" lon="3.0404714692373074"><ele>3.6666666666666665</ele><time>2026-04-09T08:50:21Z</time></trkpt><trkpt lat="42.85713298292353" lon="3.0403549648556334"><ele>4.0</ele><time>2026-04-09T08:50:23Z</time></trkpt><trkpt lat="42.8570818901299" lon="3.040280649993812"><ele>3.9999999999999996</ele><time>2026-04-09T08:50:25Z</time></trkpt><trkpt lat="42.857020320392515" lon="3.0401913959357416"><ele>4.0</ele><time>2026-04-09T08:50:28Z</time></trkpt><trkpt lat="42.85697128943506" lon="3.040123127886081"><ele>4.0</ele><time>2026-04-09T08:50:30Z</time></trkpt><trkpt lat="42.85692506313637" lon="3.0400575047527916"><ele>4.0</ele><time>2026-04-09T08:50:32Z</time></trkpt><trkpt lat="42.85685325056922" lon="3.039960073602617"><ele>3.9999999999999996</ele><time>2026-04-09T08:50:34Z</time></trkpt><trkpt lat="42.856803793522644" lon="3.039890939954443"><ele>4.0</ele><time>2026-04-09T08:50:35Z</time></trkpt><trkpt lat="42.85674815331592" lon="3.039810372787878"><ele>3.4999999999999996</ele><time>2026-04-09T08:50:36Z</time></trkpt><trkpt lat="42.85669461190845" lon="3.039738529084951"><ele>3.0</ele><time>2026-04-09T08:50:37Z</time></trkpt><trkpt lat="42.85663845072133" lon="3.039661180435662"><ele>2.5</ele><time>2026-04-09T08:50:38Z</time></trkpt><trkpt lat="42.85658404671149" lon="3.03958624574333"><ele>2.0</ele><time>2026-04-09T08:50:39Z</time></trkpt><trkpt lat="42.85653316731984" lon="3.039515915516603"><ele>1.5</ele><time>2026-04-09T08:50:40Z</time></trkpt><trkpt lat="42.85648632632315" lon="3.039452211611134"><ele>1.0</ele><time>2026-04-09T08:50:41Z</time></trkpt><trkpt lat="42.85640983072909" lon="3.039347819683534"><ele>1.0</ele><time>2026-04-09T08:50:43Z</time></trkpt><trkpt lat="42.85633696148574" lon="3.039258844788268"><ele>1.0</ele><time>2026-04-09T08:50:45Z</time></trkpt><trkpt lat="42.85635978346075" lon="3.039151798905697"><ele>1.0</ele><time>2026-04-09T08:50:46Z</time></trkpt><trkpt lat="42.85631191149487" lon="3.0390246632618516"><ele>1.0</ele><time>2026-04-09T08:50:48Z</time></trkpt><trkpt lat="42.85619965464899" lon="3.038968473484388"><ele>1.0</ele><time>2026-04-09T08:50:50Z</time></trkpt><trkpt lat="42.85608642218481" lon="3.038906649839869"><ele>1.1666666666666665</ele><time>2026-04-09T08:50:52Z</time></trkpt><trkpt lat="42.85603871178036" lon="3.0388367482420477"><ele>1.3333333333333333</ele><time>2026-04-09T08:50:53Z</time></trkpt><trkpt lat="42.85598690057657" lon="3.038760786616098"><ele>1.5</ele><time>2026-04-09T08:50:54Z</time></trkpt><trkpt lat="42.8559277725227" lon="3.0386795435993093"><ele>1.6666666666666665</ele><time>2026-04-09T08:50:55Z</time></trkpt><trkpt lat="42.85586390753599" lon="3.038590745507748"><ele>1.8333333333333333</ele><time>2026-04-09T08:50:56Z</time></trkpt><trkpt lat="42.855797040083914" lon="3.038501499096321"><ele>2.0</ele><time>2026-04-09T08:50:57Z</time></trkpt><trkpt lat="42.85572681195741" lon="3.0384045813902176"><ele>2.0</ele><time>2026-04-09T08:50:58Z</time></trkpt><trkpt lat="42.85565780712241" lon="3.038310970178816"><ele>2.0</ele><time>2026-04-09T08:50:59Z</time></trkpt><trkpt lat="42.85559133519662" lon="3.038218694686569"><ele>2.0</ele><time>2026-04-09T08:51:00Z</time></trkpt><trkpt lat="42.85552413242234" lon="3.03812659244153"><ele>2.0</ele><time>2026-04-09T08:51:01Z</time></trkpt><trkpt lat="42.855457764475325" lon="3.038034829459001"><ele>2.0</ele><time>2026-04-09T08:51:02Z</time></trkpt><trkpt lat="42.85539161279113" lon="3.0379424533184753"><ele>2.0</ele><time>2026-04-09T08:51:03Z</time></trkpt><trkpt lat="42.855321443569764" lon="3.0378461804511283"><ele>2.0</ele><time>2026-04-09T08:51:04Z</time></trkpt><trkpt lat="42.85525107737558" lon="3.0377506972092165"><ele>2.0</ele><time>2026-04-09T08:51:05Z</time></trkpt><trkpt lat="42.855180073445766" lon="3.037655226669519"><ele>2.0</ele><time>2026-04-09T08:51:06Z</time></trkpt><trkpt lat="42.855110383999644" lon="3.0375590964042813"><ele>2.0</ele><time>2026-04-09T08:51:07Z</time></trkpt><trkpt lat="42.85504046222245" lon="3.037462577067515"><ele>2.0</ele><time>2026-04-09T08:51:08Z</time></trkpt><trkpt lat="42.85497126662437" lon="3.037367170760707"><ele>2.0</ele><time>2026-04-09T08:51:09Z</time></trkpt><trkpt lat="42.85490522897781" lon="3.037272586213139"><ele>2.0</ele><time>2026-04-09T08:51:10Z</time></trkpt><trkpt lat="42.85483484157805" lon="3.0371767643756953"><ele>2.0</ele><time>2026-04-09T08:51:11Z</time></trkpt><trkpt lat="42.8547629148389" lon="3.037082097287775"><ele>2.0</ele><time>2026-04-09T08:51:12Z</time></trkpt><trkpt lat="42.85468631562768" lon="3.0369907637553646"><ele>2.0</ele><time>2026-04-09T08:51:13Z</time></trkpt><trkpt lat="42.85461265922505" lon="3.0368950700758717"><ele>2.0</ele><time>2026-04-09T08:51:14Z</time></trkpt><trkpt lat="42.854540862374655" lon="3.0367896807159576"><ele>2.0</ele><time>2026-04-09T08:51:15Z</time></trkpt><trkpt lat="42.854468239809215" lon="3.0366854844240385"><ele>2.0</ele><time>2026-04-09T08:51:16Z</time></trkpt><trkpt lat="42.85439514892627" lon="3.036582048077757"><ele>2.0</ele><time>2026-04-09T08:51:17Z</time></trkpt><trkpt lat="42.85432066562349" lon="3.036476380551015"><ele>2.2</ele><time>2026-04-09T08:51:18Z</time></trkpt><trkpt lat="42.85424746342336" lon="3.0363707640312683"><ele>2.4000000000000004</ele><time>2026-04-09T08:51:19Z</time></trkpt><trkpt lat="42.854175267499095" lon="3.0362670290572766"><ele>2.5999999999999996</ele><time>2026-04-09T08:51:20Z</time></trkpt><trkpt lat="42.854101397950224" lon="3.036164379533749"><ele>2.8</ele><time>2026-04-09T08:51:21Z</time></trkpt><trkpt lat="42.854029717839424" lon="3.036062630930075"><ele>3.0</ele><time>2026-04-09T08:51:22Z</time></trkpt><trkpt lat="42.85395913672867" lon="3.035966532971496"><ele>3.0</ele><time>2026-04-09T08:51:23Z</time></trkpt><trkpt lat="42.85389503287018" lon="3.0358772728008305"><ele>3.0</ele><time>2026-04-09T08:51:24Z</time></trkpt><trkpt lat="42.85383572741997" lon="3.0357947131481637"><ele>3.0</ele><time>2026-04-09T08:51:25Z</time></trkpt><trkpt lat="42.85378373932609" lon="3.0357217626278197"><ele>3.0</ele><time>2026-04-09T08:51:26Z</time></trkpt><trkpt lat="42.853739308006986" lon="3.0356548100102465"><ele>3.0</ele><time>2026-04-09T08:51:27Z</time></trkpt><trkpt lat="42.85367897487802" lon="3.0355091845228515"><ele>3.0</ele><time>2026-04-09T08:51:29Z</time></trkpt><trkpt lat="42.85357663556573" lon="3.0354110580743896"><ele>3.1666666666666665</ele><time>2026-04-09T08:51:31Z</time></trkpt><trkpt lat="42.853516868870386" lon="3.035368210730283"><ele>3.333333333333333</ele><time>2026-04-09T08:51:32Z</time></trkpt><trkpt lat="42.85346089674371" lon="3.0353063106975164"><ele>3.5</ele><time>2026-04-09T08:51:33Z</time></trkpt><trkpt lat="42.85340474803794" lon="3.035231538012467"><ele>3.6666666666666665</ele><time>2026-04-09T08:51:34Z</time></trkpt><trkpt lat="42.85334532396333" lon="3.0351516480980756"><ele>3.833333333333333</ele><time>2026-04-09T08:51:35Z</time></trkpt><trkpt lat="42.85328267927816" lon="3.0350650192513653"><ele>4.0</ele><time>2026-04-09T08:51:36Z</time></trkpt><trkpt lat="42.85321446530298" lon="3.0349716761191323"><ele>4.2</ele><time>2026-04-09T08:51:37Z</time></trkpt><trkpt lat="42.853143052706045" lon="3.0348755160689347"><ele>4.4</ele><time>2026-04-09T08:51:38Z</time></trkpt><trkpt lat="42.85306745240217" lon="3.0347821506258548"><ele>4.6</ele><time>2026-04-09T08:51:39Z</time></trkpt><trkpt lat="42.85299385662244" lon="3.0346847681854805"><ele>4.8</ele><time>2026-04-09T08:51:40Z</time></trkpt><trkpt lat="42.85292088550608" lon="3.0345881921354634"><ele>5.0</ele><time>2026-04-09T08:51:41Z</time></trkpt><trkpt lat="42.852849308456186" lon="3.0344921542589023"><ele>5.0</ele><time>2026-04-09T08:51:42Z</time></trkpt><trkpt lat="42.852777668590065" lon="3.034395249689725"><ele>5.0</ele><time>2026-04-09T08:51:43Z</time></trkpt><trkpt lat="42.85270984262695" lon="3.0342939853667037"><ele>5.0</ele><time>2026-04-09T08:51:44Z</time></trkpt><trkpt lat="42.852640620853826" lon="3.0341991946154647"><ele>5.0</ele><time>2026-04-09T08:51:45Z</time></trkpt><trkpt lat="42.85257094894254" lon="3.034101167280993"><ele>5.0</ele><time>2026-04-09T08:51:46Z</time></trkpt><trkpt lat="42.85250314309306" lon="3.034007558334908"><ele>4.666666666666667</ele><time>2026-04-09T08:51:47Z</time></trkpt><trkpt lat="42.85243613275332" lon="3.0339129636102435"><ele>4.333333333333334</ele><time>2026-04-09T08:51:48Z</time></trkpt><trkpt lat="42.85237151033141" lon="3.0338221941930277"><ele>4.0</ele><time>2026-04-09T08:51:49Z</time></trkpt><trkpt lat="42.852309738857066" lon="3.0337348500909154"><ele>3.666666666666667</ele><time>2026-04-09T08:51:50Z</time></trkpt><trkpt lat="42.85225182598989" lon="3.0336514721427696"><ele>3.3333333333333335</ele><time>2026-04-09T08:51:51Z</time></trkpt><trkpt lat="42.85219598282617" lon="3.033572886677796"><ele>3.0</ele><time>2026-04-09T08:51:52Z</time></trkpt><trkpt lat="42.85214476952197" lon="3.0335022657771313"><ele>2.9999999999999996</ele><time>2026-04-09T08:51:53Z</time></trkpt><trkpt lat="42.85208310846977" lon="3.0334523771125084"><ele>3.0</ele><time>2026-04-09T08:51:54Z</time></trkpt><trkpt lat="42.85201866558775" lon="3.0334334284957363"><ele>3.0</ele><time>2026-04-09T08:51:55Z</time></trkpt><trkpt lat="42.85195413645074" lon="3.0334413547989247"><ele>3.0</ele><time>2026-04-09T08:51:56Z</time></trkpt><trkpt lat="42.85189240335833" lon="3.033474155588438"><ele>3.0</ele><time>2026-04-09T08:51:57Z</time></trkpt><trkpt lat="42.851835031025956" lon="3.0335305266397112"><ele>2.9999999999999996</ele><time>2026-04-09T08:51:58Z</time></trkpt><trkpt lat="42.85178187926609" lon="3.033602527662525"><ele>3.0</ele><time>2026-04-09T08:51:59Z</time></trkpt><trkpt lat="42.85172344266245" lon="3.0336815749470856"><ele>3.0</ele><time>2026-04-09T08:52:00Z</time></trkpt><trkpt lat="42.85166342002787" lon="3.0337628612328458"><ele>3.0</ele><time>2026-04-09T08:52:01Z</time></trkpt><trkpt lat="42.85160697165563" lon="3.0338419939572283"><ele>3.0</ele><time>2026-04-09T08:52:02Z</time></trkpt><trkpt lat="42.85155155736215" lon="3.033919037209181"><ele>3.0</ele><time>2026-04-09T08:52:03Z</time></trkpt><trkpt lat="42.85150010798338" lon="3.033994473337387"><ele>3.0</ele><time>2026-04-09T08:52:04Z</time></trkpt><trkpt lat="42.85144985357236" lon="3.034067463179999"><ele>3.0</ele><time>2026-04-09T08:52:05Z</time></trkpt><trkpt lat="42.85139612315087" lon="3.034140104978133"><ele>3.0</ele><time>2026-04-09T08:52:06Z</time></trkpt><trkpt lat="42.85133838346928" lon="3.0342167736016488"><ele>3.0</ele><time>2026-04-09T08:52:07Z</time></trkpt><trkpt lat="42.85127730770552" lon="3.0342928733615318"><ele>3.0</ele><time>2026-04-09T08:52:08Z</time></trkpt><trkpt lat="42.851214658875094" lon="3.0343687677606406"><ele>3.0</ele><time>2026-04-09T08:52:09Z</time></trkpt><trkpt lat="42.85115254996497" lon="3.034446350646933"><ele>3.0</ele><time>2026-04-09T08:52:10Z</time></trkpt><trkpt lat="42.851092441351184" lon="3.0345276836084234"><ele>3.0</ele><time>2026-04-09T08:52:11Z</time></trkpt><trkpt lat="42.85103013377793" lon="3.0346092159693967"><ele>2.9999999999999996</ele><time>2026-04-09T08:52:12Z</time></trkpt><trkpt lat="42.850970822289135" lon="3.0346908444383285"><ele>3.0</ele><time>2026-04-09T08:52:13Z</time></trkpt><trkpt lat="42.8509164310378" lon="3.0347692960930774"><ele>3.0</ele><time>2026-04-09T08:52:14Z</time></trkpt><trkpt lat="42.85086232564986" lon="3.034842093781522"><ele>3.0</ele><time>2026-04-09T08:52:15Z</time></trkpt><trkpt lat="42.85081098413644" lon="3.03491166182508"><ele>3.0</ele><time>2026-04-09T08:52:16Z</time></trkpt><trkpt lat="42.850761790554664" lon="3.0349755487247085"><ele>2.9999999999999996</ele><time>2026-04-09T08:52:17Z</time></trkpt><trkpt lat="42.85071577450738" lon="3.0350355657543955"><ele>3.0</ele><time>2026-04-09T08:52:18Z</time></trkpt><trkpt lat="42.850620542288866" lon="3.035116952397887"><ele>3.0</ele><time>2026-04-09T08:52:20Z</time></trkpt><trkpt lat="42.850653398909635" lon="3.0353520183694003"><ele>3.0</ele><time>2026-04-09T08:52:23Z</time></trkpt><trkpt lat="42.85069455163809" lon="3.035417294241994"><ele>3.0</ele><time>2026-04-09T08:52:24Z</time></trkpt><trkpt lat="42.850744234133586" lon="3.035481102848934"><ele>3.0</ele><time>2026-04-09T08:52:25Z</time></trkpt><trkpt lat="42.85079440573539" lon="3.035548596928581"><ele>3.0</ele><time>2026-04-09T08:52:26Z</time></trkpt><trkpt lat="42.8508319279226" lon="3.0356329171539214"><ele>2.9999999999999996</ele><time>2026-04-09T08:52:27Z</time></trkpt><trkpt lat="42.85085589790501" lon="3.0357261058948497"><ele>3.0</ele><time>2026-04-09T08:52:28Z</time></trkpt><trkpt lat="42.850858651458466" lon="3.035817386268737"><ele>3.0</ele><time>2026-04-09T08:52:29Z</time></trkpt><trkpt lat="42.85084527542952" lon="3.035903808847126"><ele>3.0</ele><time>2026-04-09T08:52:30Z</time></trkpt><trkpt lat="42.85081698303362" lon="3.035984345366164"><ele>3.0</ele><time>2026-04-09T08:52:31Z</time></trkpt><trkpt lat="42.8507717660149" lon="3.036053260274786"><ele>2.9999999999999996</ele><time>2026-04-09T08:52:32Z</time></trkpt><trkpt lat="42.850712604492486" lon="3.036113242998381"><ele>3.0</ele><time>2026-04-09T08:52:33Z</time></trkpt><trkpt lat="42.850643125341826" lon="3.0361681369365368"><ele>3.25</ele><time>2026-04-09T08:52:34Z</time></trkpt><trkpt lat="42.85058298368674" lon="3.0362638585602775"><ele>3.5</ele><time>2026-04-09T08:52:35Z</time></trkpt><trkpt lat="42.85046846924955" lon="3.036305229031696"><ele>3.75</ele><time>2026-04-09T08:52:36Z</time></trkpt><trkpt lat="42.85036604259271" lon="3.0363857504914207"><ele>4.0</ele><time>2026-04-09T08:52:37Z</time></trkpt><trkpt lat="42.850249972819" lon="3.0364739596938883"><ele>3.75</ele><time>2026-04-09T08:52:38Z</time></trkpt><trkpt lat="42.85012450571256" lon="3.036566697210876"><ele>3.5</ele><time>2026-04-09T08:52:39Z</time></trkpt><trkpt lat="42.84999610763981" lon="3.0366607658309"><ele>3.25</ele><time>2026-04-09T08:52:40Z</time></trkpt><trkpt lat="42.8498638383881" lon="3.03675779132414"><ele>3.0</ele><time>2026-04-09T08:52:41Z</time></trkpt><trkpt lat="42.849721039776654" lon="3.036859091223745"><ele>2.6666666666666665</ele><time>2026-04-09T08:52:42Z</time></trkpt><trkpt lat="42.84957315211698" lon="3.036964484857844"><ele>2.333333333333333</ele><time>2026-04-09T08:52:43Z</time></trkpt><trkpt lat="42.84941935559145" lon="3.0370718270921313"><ele>2.0</ele><time>2026-04-09T08:52:44Z</time></trkpt><trkpt lat="42.8492614149625" lon="3.037180602397643"><ele>2.0</ele><time>2026-04-09T08:52:45Z</time></trkpt><trkpt lat="42.84909903754314" lon="3.037295455179525"><ele>2.0</ele><time>2026-04-09T08:52:46Z</time></trkpt><trkpt lat="42.848934821334126" lon="3.037409170288719"><ele>2.0</ele><time>2026-04-09T08:52:47Z</time></trkpt><trkpt lat="42.848772620031156" lon="3.0375236744534457"><ele>2.0</ele><time>2026-04-09T08:52:48Z</time></trkpt><trkpt lat="42.84860892004756" lon="3.0376368123636337"><ele>2.0</ele><time>2026-04-09T08:52:49Z</time></trkpt><trkpt lat="42.84844204977702" lon="3.0377508138306517"><ele>2.0</ele><time>2026-04-09T08:52:50Z</time></trkpt><trkpt lat="42.84827440991005" lon="3.0378655104924865"><ele>2.0</ele><time>2026-04-09T08:52:51Z</time></trkpt><trkpt lat="42.848104530728456" lon="3.0379823857067474"><ele>2.0</ele><time>2026-04-09T08:52:52Z</time></trkpt><trkpt lat="42.84793408806798" lon="3.038098013681727"><ele>2.0</ele><time>2026-04-09T08:52:53Z</time></trkpt><trkpt lat="42.847761758036995" lon="3.038212607307928"><ele>3.333333333333333</ele><time>2026-04-09T08:52:54Z</time></trkpt><trkpt lat="42.84758637086471" lon="3.0383222142135446"><ele>4.666666666666667</ele><time>2026-04-09T08:52:55Z</time></trkpt><trkpt lat="42.84740994475824" lon="3.0384300642891318"><ele>6.0</ele><time>2026-04-09T08:52:56Z</time></trkpt><trkpt lat="42.847232873210984" lon="3.038533254958975"><ele>6.0</ele><time>2026-04-09T08:52:57Z</time></trkpt><trkpt lat="42.84705531516155" lon="3.0386353635860797"><ele>6.0</ele><time>2026-04-09T08:52:58Z</time></trkpt><trkpt lat="42.846876769996086" lon="3.038732868123372"><ele>6.0</ele><time>2026-04-09T08:52:59Z</time></trkpt><trkpt lat="42.84669444764562" lon="3.038826525451274"><ele>5.333333333333333</ele><time>2026-04-09T08:53:00Z</time></trkpt><trkpt lat="42.84651149679274" lon="3.0389141725525257"><ele>4.666666666666666</ele><time>2026-04-09T08:53:01Z</time></trkpt><trkpt lat="42.84632438994857" lon="3.0389962444549954"><ele>4.0</ele><time>2026-04-09T08:53:02Z</time></trkpt><trkpt lat="42.846139318878336" lon="3.0390815503285453"><ele>4.0</ele><time>2026-04-09T08:53:03Z</time></trkpt><trkpt lat="42.84595002230298" lon="3.0391587098833717"><ele>4.0</ele><time>2026-04-09T08:53:04Z</time></trkpt><trkpt lat="42.845760513417055" lon="3.0392339060244837"><ele>4.0</ele><time>2026-04-09T08:53:05Z</time></trkpt><trkpt lat="42.84556985183103" lon="3.039303257680339"><ele>4.0</ele><time>2026-04-09T08:53:06Z</time></trkpt><trkpt lat="42.84538190381364" lon="3.039367430137765"><ele>4.0</ele><time>2026-04-09T08:53:07Z</time></trkpt><trkpt lat="42.8451925751677" lon="3.0394312188424886"><ele>4.0</ele><time>2026-04-09T08:53:08Z</time></trkpt><trkpt lat="42.84500316175999" lon="3.0394900196861854"><ele>4.0</ele><time>2026-04-09T08:53:09Z</time></trkpt><trkpt lat="42.84481419094307" lon="3.039546975291708"><ele>4.0</ele><time>2026-04-09T08:53:10Z</time></trkpt><trkpt lat="42.844624539900714" lon="3.0395978125159244"><ele>4.0</ele><time>2026-04-09T08:53:11Z</time></trkpt><trkpt lat="42.84443542453633" lon="3.039647313484485"><ele>4.333333333333333</ele><time>2026-04-09T08:53:12Z</time></trkpt><trkpt lat="42.84424612550796" lon="3.0396927491070413"><ele>4.666666666666667</ele><time>2026-04-09T08:53:13Z</time></trkpt><trkpt lat="42.84405970005349" lon="3.039731327248362"><ele>5.0</ele><time>2026-04-09T08:53:14Z</time></trkpt><trkpt lat="42.84387530159345" lon="3.0397656468660346"><ele>5.0</ele><time>2026-04-09T08:53:15Z</time></trkpt><trkpt lat="42.843691457259865" lon="3.039797995800803"><ele>5.0</ele><time>2026-04-09T08:53:16Z</time></trkpt><trkpt lat="42.843503600648" lon="3.0398053493468313"><ele>5.0</ele><time>2026-04-09T08:53:17Z</time></trkpt><trkpt lat="42.84331939262732" lon="3.039852414889079"><ele>4.0</ele><time>2026-04-09T08:53:18Z</time></trkpt><trkpt lat="42.843132798446774" lon="3.039873880714151"><ele>3.0</ele><time>2026-04-09T08:53:19Z</time></trkpt><trkpt lat="42.84294686094852" lon="3.0398907342016974"><ele>2.0</ele><time>2026-04-09T08:53:20Z</time></trkpt><trkpt lat="42.84276117271413" lon="3.039904507971367"><ele>2.0</ele><time>2026-04-09T08:53:21Z</time></trkpt><trkpt lat="42.84257707234322" lon="3.039916615328613"><ele>2.0</ele><time>2026-04-09T08:53:22Z</time></trkpt><trkpt lat="42.84239332017716" lon="3.0399208239176243"><ele>2.0</ele><time>2026-04-09T08:53:23Z</time></trkpt><trkpt lat="42.842210625194475" lon="3.0399203637120045"><ele>2.0</ele><time>2026-04-09T08:53:24Z</time></trkpt><trkpt lat="42.842028128238034" lon="3.0399161353337525"><ele>2.0</ele><time>2026-04-09T08:53:25Z</time></trkpt><trkpt lat="42.84184552140686" lon="3.0399108238187877"><ele>2.0</ele><time>2026-04-09T08:53:26Z</time></trkpt><trkpt lat="42.84166601010728" lon="3.0399054137764083"><ele>1.6666666666666665</ele><time>2026-04-09T08:53:27Z</time></trkpt><trkpt lat="42.841484809757034" lon="3.0398933121649647"><ele>1.3333333333333333</ele><time>2026-04-09T08:53:28Z</time></trkpt><trkpt lat="42.841305739331865" lon="3.0398790870001573"><ele>1.0</ele><time>2026-04-09T08:53:29Z</time></trkpt><trkpt lat="42.841127066742324" lon="3.0398614304785836"><ele>1.6666666666666665</ele><time>2026-04-09T08:53:30Z</time></trkpt><trkpt lat="42.84094780566149" lon="3.0398409220266793"><ele>2.3333333333333335</ele><time>2026-04-09T08:53:31Z</time></trkpt><trkpt lat="42.840768433459566" lon="3.0398184764861944"><ele>3.0</ele><time>2026-04-09T08:53:32Z</time></trkpt><trkpt lat="42.840588109406774" lon="3.039794138236462"><ele>3.0</ele><time>2026-04-09T08:53:33Z</time></trkpt><trkpt lat="42.8404094862559" lon="3.039764866874232"><ele>3.0</ele><time>2026-04-09T08:53:34Z</time></trkpt><trkpt lat="42.84023504275072" lon="3.039731948525463"><ele>3.0</ele><time>2026-04-09T08:53:35Z</time></trkpt><trkpt lat="42.840064379674025" lon="3.039696038582711"><ele>3.0</ele><time>2026-04-09T08:53:36Z</time></trkpt><trkpt lat="42.839897597206964" lon="3.039657195049639"><ele>3.0</ele><time>2026-04-09T08:53:37Z</time></trkpt><trkpt lat="42.83973503533207" lon="3.0396203004823574"><ele>3.0</ele><time>2026-04-09T08:53:38Z</time></trkpt><trkpt lat="42.83957333095322" lon="3.0395788938810173"><ele>3.0</ele><time>2026-04-09T08:53:39Z</time></trkpt><trkpt lat="42.83941200265005" lon="3.039535824864027"><ele>3.0</ele><time>2026-04-09T08:53:40Z</time></trkpt><trkpt lat="42.83924660434984" lon="3.0394877697758456"><ele>3.0</ele><time>2026-04-09T08:53:41Z</time></trkpt><trkpt lat="42.83907948581382" lon="3.039434932539251"><ele>2.6666666666666665</ele><time>2026-04-09T08:53:42Z</time></trkpt><trkpt lat="42.838912003556366" lon="3.039380363871773"><ele>2.333333333333333</ele><time>2026-04-09T08:53:43Z</time></trkpt><trkpt lat="42.8387454026189" lon="3.0393235797973204"><ele>2.0</ele><time>2026-04-09T08:53:44Z</time></trkpt><trkpt lat="42.83857770603447" lon="3.0392622999266927"><ele>2.0</ele><time>2026-04-09T08:53:45Z</time></trkpt><trkpt lat="42.838408105307394" lon="3.039197391784919"><ele>2.0</ele><time>2026-04-09T08:53:46Z</time></trkpt><trkpt lat="42.83824016479881" lon="3.0391294879614583"><ele>2.0</ele><time>2026-04-09T08:53:47Z</time></trkpt><trkpt lat="42.83807151251859" lon="3.039061438811702"><ele>2.0</ele><time>2026-04-09T08:53:48Z</time></trkpt><trkpt lat="42.83790229007933" lon="3.0389893217503863"><ele>2.0</ele><time>2026-04-09T08:53:49Z</time></trkpt><trkpt lat="42.837732388680905" lon="3.038914191321451"><ele>2.0</ele><time>2026-04-09T08:53:50Z</time></trkpt><trkpt lat="42.837563688207254" lon="3.0388350427122766"><ele>2.0</ele><time>2026-04-09T08:53:51Z</time></trkpt><trkpt lat="42.83739483081877" lon="3.0387539907566534"><ele>2.0</ele><time>2026-04-09T08:53:52Z</time></trkpt><trkpt lat="42.837225950893405" lon="3.0386710713615"><ele>2.0</ele><time>2026-04-09T08:53:53Z</time></trkpt><trkpt lat="42.837056283195814" lon="3.038588179147204"><ele>2.0</ele><time>2026-04-09T08:53:54Z</time></trkpt><trkpt lat="42.83688604356337" lon="3.038506252584593"><ele>2.0</ele><time>2026-04-09T08:53:55Z</time></trkpt><trkpt lat="42.83671671790539" lon="3.038425413008775"><ele>2.0</ele><time>2026-04-09T08:53:56Z</time></trkpt><trkpt lat="42.83654537730335" lon="3.038342879365888"><ele>2.333333333333333</ele><time>2026-04-09T08:53:57Z</time></trkpt><trkpt lat="42.83637645222821" lon="3.038259843016969"><ele>2.6666666666666665</ele><time>2026-04-09T08:53:58Z</time></trkpt><trkpt lat="42.83620704627679" lon="3.0381787436519176"><ele>3.0</ele><time>2026-04-09T08:53:59Z</time></trkpt><trkpt lat="42.83603798030565" lon="3.0380976419359778"><ele>2.6666666666666665</ele><time>2026-04-09T08:54:00Z</time></trkpt><trkpt lat="42.835873046355566" lon="3.0380178735790584"><ele>2.333333333333333</ele><time>2026-04-09T08:54:01Z</time></trkpt><trkpt lat="42.83570891512459" lon="3.0379398696130875"><ele>2.0</ele><time>2026-04-09T08:54:02Z</time></trkpt><trkpt lat="42.835546412638735" lon="3.0378623631674686"><ele>2.0</ele><time>2026-04-09T08:54:03Z</time></trkpt><trkpt lat="42.83538615327119" lon="3.03778750026803"><ele>2.0</ele><time>2026-04-09T08:54:04Z</time></trkpt><trkpt lat="42.83522991712767" lon="3.037715158750459"><ele>2.0</ele><time>2026-04-09T08:54:05Z</time></trkpt><trkpt lat="42.83507744794479" lon="3.0376449294844425"><ele>2.0</ele><time>2026-04-09T08:54:06Z</time></trkpt><trkpt lat="42.83493090943286" lon="3.037574986507594"><ele>2.0</ele><time>2026-04-09T08:54:07Z</time></trkpt><trkpt lat="42.834789137170944" lon="3.0375073559606682"><ele>2.0</ele><time>2026-04-09T08:54:08Z</time></trkpt><trkpt lat="42.834648529055485" lon="3.037439373003698"><ele>2.25</ele><time>2026-04-09T08:54:09Z</time></trkpt><trkpt lat="42.83450831431202" lon="3.0373727494486724"><ele>2.5</ele><time>2026-04-09T08:54:10Z</time></trkpt><trkpt lat="42.83437121560998" lon="3.037305241335868"><ele>2.75</ele><time>2026-04-09T08:54:11Z</time></trkpt><trkpt lat="42.834234425111255" lon="3.0372387324636"><ele>3.0</ele><time>2026-04-09T08:54:12Z</time></trkpt><trkpt lat="42.83410050348906" lon="3.0371756279560085"><ele>3.25</ele><time>2026-04-09T08:54:13Z</time></trkpt><trkpt lat="42.83397056857781" lon="3.037114374965851"><ele>3.5</ele><time>2026-04-09T08:54:14Z</time></trkpt><trkpt lat="42.833843522576856" lon="3.0370552511593893"><ele>3.75</ele><time>2026-04-09T08:54:15Z</time></trkpt><trkpt lat="42.83372733154507" lon="3.0370001548929855"><ele>4.0</ele><time>2026-04-09T08:54:16Z</time></trkpt><trkpt lat="42.83361726994095" lon="3.0369470902740523"><ele>4.0</ele><time>2026-04-09T08:54:17Z</time></trkpt><trkpt lat="42.83350973292763" lon="3.036893718548469"><ele>4.0</ele><time>2026-04-09T08:54:18Z</time></trkpt><trkpt lat="42.83340624894" lon="3.036842401314459"><ele>4.0</ele><time>2026-04-09T08:54:19Z</time></trkpt><trkpt lat="42.83330421171744" lon="3.036790486654063"><ele>4.0</ele><time>2026-04-09T08:54:20Z</time></trkpt><trkpt lat="42.83320876507806" lon="3.036735965764479"><ele>4.0</ele><time>2026-04-09T08:54:21Z</time></trkpt><trkpt lat="42.83311436476405" lon="3.0366806778864195"><ele>3.8000000000000003</ele><time>2026-04-09T08:54:22Z</time></trkpt><trkpt lat="42.833019173968616" lon="3.0366244872247985"><ele>3.6000000000000005</ele><time>2026-04-09T08:54:23Z</time></trkpt><trkpt lat="42.83292279840842" lon="3.0365719462044374"><ele>3.4</ele><time>2026-04-09T08:54:24Z</time></trkpt><trkpt lat="42.832825048602245" lon="3.0365230679852777"><ele>3.2</ele><time>2026-04-09T08:54:25Z</time></trkpt><trkpt lat="42.832725526613174" lon="3.036473114935128"><ele>3.0</ele><time>2026-04-09T08:54:26Z</time></trkpt><trkpt lat="42.83262486605387" lon="3.0364243858145303"><ele>3.0</ele><time>2026-04-09T08:54:27Z</time></trkpt><trkpt lat="42.83252412108504" lon="3.0363735135666956"><ele>3.0</ele><time>2026-04-09T08:54:28Z</time></trkpt><trkpt lat="42.832422179708644" lon="3.036323973357911"><ele>3.0</ele><time>2026-04-09T08:54:29Z</time></trkpt><trkpt lat="42.83231902897242" lon="3.036276638037124"><ele>3.0</ele><time>2026-04-09T08:54:30Z</time></trkpt><trkpt lat="42.83221508439762" lon="3.0362313016103544"><ele>3.0</ele><time>2026-04-09T08:54:31Z</time></trkpt><trkpt lat="42.8321123820737" lon="3.036187253021224"><ele>3.0</ele><time>2026-04-09T08:54:32Z</time></trkpt><trkpt lat="42.83200943036764" lon="3.0361454855348877"><ele>3.0</ele><time>2026-04-09T08:54:33Z</time></trkpt><trkpt lat="42.831907975383416" lon="3.03610637159146"><ele>3.0</ele><time>2026-04-09T08:54:34Z</time></trkpt><trkpt lat="42.831810525971186" lon="3.036064534022977"><ele>3.0</ele><time>2026-04-09T08:54:35Z</time></trkpt><trkpt lat="42.83171692103649" lon="3.0360260419219576"><ele>3.0</ele><time>2026-04-09T08:54:36Z</time></trkpt><trkpt lat="42.831630162378424" lon="3.0359860430601966"><ele>2.6666666666666665</ele><time>2026-04-09T08:54:37Z</time></trkpt><trkpt lat="42.83155100272076" lon="3.0359485961213912"><ele>2.3333333333333335</ele><time>2026-04-09T08:54:38Z</time></trkpt><trkpt lat="42.83147756502609" lon="3.035910907846824"><ele>2.0</ele><time>2026-04-09T08:54:39Z</time></trkpt><trkpt lat="42.83140998714172" lon="3.035870047344721"><ele>1.6666666666666665</ele><time>2026-04-09T08:54:40Z</time></trkpt><trkpt lat="42.83134146482462" lon="3.0358165041016303"><ele>1.3333333333333333</ele><time>2026-04-09T08:54:41Z</time></trkpt><trkpt lat="42.83128728741153" lon="3.035736992841798"><ele>1.0</ele><time>2026-04-09T08:54:42Z</time></trkpt><trkpt lat="42.831239277530464" lon="3.0356459714534063"><ele>0.9999999999999999</ele><time>2026-04-09T08:54:43Z</time></trkpt><trkpt lat="42.83118357116634" lon="3.035577695798923"><ele>1.0</ele><time>2026-04-09T08:54:44Z</time></trkpt><trkpt lat="42.831108285441246" lon="3.035542897939207"><ele>1.0</ele><time>2026-04-09T08:54:45Z</time></trkpt><trkpt lat="42.83102859516239" lon="3.0355474005060867"><ele>1.0</ele><time>2026-04-09T08:54:46Z</time></trkpt><trkpt lat="42.83094865849811" lon="3.035575609698469"><ele>0.9999999999999999</ele><time>2026-04-09T08:54:47Z</time></trkpt><trkpt lat="42.830863362800926" lon="3.035601036400315"><ele>1.0</ele><time>2026-04-09T08:54:48Z</time></trkpt><trkpt lat="42.83077347334989" lon="3.035591947003727"><ele>1.2000000000000002</ele><time>2026-04-09T08:54:49Z</time></trkpt><trkpt lat="42.83068343136668" lon="3.03555225151731"><ele>1.4000000000000001</ele><time>2026-04-09T08:54:50Z</time></trkpt><trkpt lat="42.83059036790769" lon="3.035502352213896"><ele>1.6</ele><time>2026-04-09T08:54:51Z</time></trkpt><trkpt lat="42.83048927846792" lon="3.035446653378258"><ele>1.8</ele><time>2026-04-09T08:54:52Z</time></trkpt><trkpt lat="42.83037849445189" lon="3.03538951806516"><ele>2.0</ele><time>2026-04-09T08:54:53Z</time></trkpt><trkpt lat="42.83026407747908" lon="3.035331485553075"><ele>2.25</ele><time>2026-04-09T08:54:54Z</time></trkpt><trkpt lat="42.830141561903865" lon="3.0352736224981203"><ele>2.5</ele><time>2026-04-09T08:54:55Z</time></trkpt><trkpt lat="42.830014043770255" lon="3.0352117599343633"><ele>2.75</ele><time>2026-04-09T08:54:56Z</time></trkpt><trkpt lat="42.82987915234602" lon="3.035145507024621"><ele>3.0</ele><time>2026-04-09T08:54:57Z</time></trkpt><trkpt lat="42.82974556225428" lon="3.035079803869664"><ele>3.0</ele><time>2026-04-09T08:54:58Z</time></trkpt><trkpt lat="42.8296114095293" lon="3.0350170151949927"><ele>3.0</ele><time>2026-04-09T08:54:59Z</time></trkpt><trkpt lat="42.82947231884907" lon="3.0349491998219187"><ele>3.0</ele><time>2026-04-09T08:55:00Z</time></trkpt><trkpt lat="42.8293275790154" lon="3.0348811977910413"><ele>3.0</ele><time>2026-04-09T08:55:01Z</time></trkpt><trkpt lat="42.82917850119949" lon="3.034809901314857"><ele>2.3333333333333335</ele><time>2026-04-09T08:55:02Z</time></trkpt><trkpt lat="42.829023694057675" lon="3.0347360128920995"><ele>1.6666666666666665</ele><time>2026-04-09T08:55:03Z</time></trkpt><trkpt lat="42.8288643523505" lon="3.034657209953303"><ele>1.0</ele><time>2026-04-09T08:55:04Z</time></trkpt><trkpt lat="42.828702111417606" lon="3.0345780311294965"><ele>1.0</ele><time>2026-04-09T08:55:05Z</time></trkpt><trkpt lat="42.828536160000986" lon="3.034496281154533"><ele>1.0</ele><time>2026-04-09T08:55:06Z</time></trkpt><trkpt lat="42.82836610476872" lon="3.0344135773673533"><ele>1.0</ele><time>2026-04-09T08:55:07Z</time></trkpt><trkpt lat="42.828192092708285" lon="3.034329082437457"><ele>1.0</ele><time>2026-04-09T08:55:08Z</time></trkpt><trkpt lat="42.82801743761587" lon="3.0342449485924416"><ele>1.0</ele><time>2026-04-09T08:55:09Z</time></trkpt><trkpt lat="42.82783957839102" lon="3.0341575979461597"><ele>1.0</ele><time>2026-04-09T08:55:10Z</time></trkpt><trkpt lat="42.827658238987404" lon="3.034070042434667"><ele>1.0</ele><time>2026-04-09T08:55:11Z</time></trkpt><trkpt lat="42.82747368100376" lon="3.0339827379208146"><ele>1.0</ele><time>2026-04-09T08:55:12Z</time></trkpt><trkpt lat="42.82728608825799" lon="3.033892916531463"><ele>1.0</ele><time>2026-04-09T08:55:13Z</time></trkpt><trkpt lat="42.82709750300322" lon="3.033802622602652"><ele>1.0</ele><time>2026-04-09T08:55:14Z</time></trkpt><trkpt lat="42.82691291688789" lon="3.033715443936162"><ele>1.0</ele><time>2026-04-09T08:55:15Z</time></trkpt><trkpt lat="42.82672553801405" lon="3.033624960063741"><ele>1.0</ele><time>2026-04-09T08:55:16Z</time></trkpt><trkpt lat="42.82653568176684" lon="3.0335336251777014"><ele>1.0</ele><time>2026-04-09T08:55:17Z</time></trkpt><trkpt lat="42.82634343031876" lon="3.033444381914886"><ele>1.0</ele><time>2026-04-09T08:55:18Z</time></trkpt><trkpt lat="42.826148102009654" lon="3.0333517507504375"><ele>1.0</ele><time>2026-04-09T08:55:19Z</time></trkpt><trkpt lat="42.82594932418656" lon="3.033257479604546"><ele>1.0</ele><time>2026-04-09T08:55:20Z</time></trkpt><trkpt lat="42.82575137727571" lon="3.033161376033406"><ele>1.0</ele><time>2026-04-09T08:55:21Z</time></trkpt><trkpt lat="42.825550084227615" lon="3.0330641141547656"><ele>1.0</ele><time>2026-04-09T08:55:22Z</time></trkpt><trkpt lat="42.825348984808564" lon="3.032965987566926"><ele>1.0</ele><time>2026-04-09T08:55:23Z</time></trkpt><trkpt lat="42.825147977503306" lon="3.032867946316337"><ele>1.0</ele><time>2026-04-09T08:55:24Z</time></trkpt><trkpt lat="42.82494472549855" lon="3.032770937236162"><ele>1.0</ele><time>2026-04-09T08:55:25Z</time></trkpt><trkpt lat="42.824740994596254" lon="3.032672851564288"><ele>1.3333333333333333</ele><time>2026-04-09T08:55:26Z</time></trkpt><trkpt lat="42.82453846076321" lon="3.0325739427281713"><ele>1.6666666666666665</ele><time>2026-04-09T08:55:27Z</time></trkpt><trkpt lat="42.824334645370016" lon="3.0324760922668292"><ele>2.0</ele><time>2026-04-09T08:55:28Z</time></trkpt><trkpt lat="42.82413164987201" lon="3.0323780044635273"><ele>2.0</ele><time>2026-04-09T08:55:29Z</time></trkpt><trkpt lat="42.82392938581341" lon="3.032279659564046"><ele>2.0</ele><time>2026-04-09T08:55:30Z</time></trkpt><trkpt lat="42.82372580511497" lon="3.032182472711985"><ele>2.0</ele><time>2026-04-09T08:55:31Z</time></trkpt><trkpt lat="42.82352096367579" lon="3.0320872906091743"><ele>2.333333333333333</ele><time>2026-04-09T08:55:32Z</time></trkpt><trkpt lat="42.82331838318158" lon="3.0319921229128832"><ele>2.6666666666666665</ele><time>2026-04-09T08:55:33Z</time></trkpt><trkpt lat="42.82311451433885" lon="3.0318981838600854"><ele>3.0</ele><time>2026-04-09T08:55:34Z</time></trkpt><trkpt lat="42.8229110683311" lon="3.031802256128364"><ele>3.0</ele><time>2026-04-09T08:55:35Z</time></trkpt><trkpt lat="42.82270775486635" lon="3.031705168912821"><ele>3.0</ele><time>2026-04-09T08:55:36Z</time></trkpt><trkpt lat="42.82250365493905" lon="3.031606328846753"><ele>3.0</ele><time>2026-04-09T08:55:37Z</time></trkpt><trkpt lat="42.82230042882619" lon="3.031508257509263"><ele>2.6666666666666665</ele><time>2026-04-09T08:55:38Z</time></trkpt><trkpt lat="42.82209550873199" lon="3.0314110246440658"><ele>2.333333333333333</ele><time>2026-04-09T08:55:39Z</time></trkpt><trkpt lat="42.82189059679297" lon="3.031311894557027"><ele>2.0</ele><time>2026-04-09T08:55:40Z</time></trkpt><trkpt lat="42.82168443488491" lon="3.031216913956357"><ele>2.0</ele><time>2026-04-09T08:55:41Z</time></trkpt><trkpt lat="42.8214769455747" lon="3.031118741797519"><ele>2.0</ele><time>2026-04-09T08:55:42Z</time></trkpt><trkpt lat="42.821267727683534" lon="3.03102771851284"><ele>2.0</ele><time>2026-04-09T08:55:43Z</time></trkpt><trkpt lat="42.821056485387196" lon="3.0309453338005743"><ele>2.333333333333333</ele><time>2026-04-09T08:55:44Z</time></trkpt><trkpt lat="42.82084462731" lon="3.030865992793374"><ele>2.6666666666666665</ele><time>2026-04-09T08:55:45Z</time></trkpt><trkpt lat="42.8206302180003" lon="3.0307926036627437"><ele>3.0</ele><time>2026-04-09T08:55:46Z</time></trkpt><trkpt lat="42.82041430031869" lon="3.0307266572277403"><ele>3.0</ele><time>2026-04-09T08:55:47Z</time></trkpt><trkpt lat="42.82019680177198" lon="3.030668238734941"><ele>3.0</ele><time>2026-04-09T08:55:48Z</time></trkpt><trkpt lat="42.81997819781705" lon="3.0306151598287814"><ele>3.0</ele><time>2026-04-09T08:55:49Z</time></trkpt><trkpt lat="42.819758520826454" lon="3.0305662930250095"><ele>3.0</ele><time>2026-04-09T08:55:50Z</time></trkpt><trkpt lat="42.8195384367268" lon="3.0305274300009275"><ele>3.0</ele><time>2026-04-09T08:55:51Z</time></trkpt><trkpt lat="42.81931757275786" lon="3.03049294953218"><ele>3.0</ele><time>2026-04-09T08:55:52Z</time></trkpt><trkpt lat="42.81909711506052" lon="3.030462478092339"><ele>2.6666666666666665</ele><time>2026-04-09T08:55:53Z</time></trkpt><trkpt lat="42.81887519663308" lon="3.030436363728869"><ele>2.333333333333333</ele><time>2026-04-09T08:55:54Z</time></trkpt><trkpt lat="42.81865283472626" lon="3.030421122884871"><ele>2.0</ele><time>2026-04-09T08:55:55Z</time></trkpt><trkpt lat="42.81842946114479" lon="3.030412463699529"><ele>1.6666666666666665</ele><time>2026-04-09T08:55:56Z</time></trkpt><trkpt lat="42.81820575412545" lon="3.0304098397748644"><ele>1.3333333333333333</ele><time>2026-04-09T08:55:57Z</time></trkpt><trkpt lat="42.81798694435833" lon="3.0304043184119127"><ele>1.0</ele><time>2026-04-09T08:55:58Z</time></trkpt><trkpt lat="42.81776689578561" lon="3.0304121607437122"><ele>1.0</ele><time>2026-04-09T08:55:59Z</time></trkpt><trkpt lat="42.81754615045301" lon="3.0304246978485954"><ele>1.0</ele><time>2026-04-09T08:56:00Z</time></trkpt><trkpt lat="42.81732366427179" lon="3.0304402606377314"><ele>1.0</ele><time>2026-04-09T08:56:01Z</time></trkpt><trkpt lat="42.817103805665276" lon="3.030460060240248"><ele>1.0</ele><time>2026-04-09T08:56:02Z</time></trkpt><trkpt lat="42.81687950861808" lon="3.0304766562621523"><ele>1.0</ele><time>2026-04-09T08:56:03Z</time></trkpt><trkpt lat="42.816658016248134" lon="3.0304913230723"><ele>1.0</ele><time>2026-04-09T08:56:04Z</time></trkpt><trkpt lat="42.816432933166325" lon="3.0305045529253025"><ele>1.3333333333333333</ele><time>2026-04-09T08:56:05Z</time></trkpt><trkpt lat="42.81621004470406" lon="3.0305181329928783"><ele>1.6666666666666665</ele><time>2026-04-09T08:56:06Z</time></trkpt><trkpt lat="42.81598853494474" lon="3.0305329175652815"><ele>2.0</ele><time>2026-04-09T08:56:07Z</time></trkpt><trkpt lat="42.81576806874633" lon="3.0305514518711543"><ele>2.333333333333333</ele><time>2026-04-09T08:56:08Z</time></trkpt><trkpt lat="42.8155449302946" lon="3.0305636572897425"><ele>2.6666666666666665</ele><time>2026-04-09T08:56:09Z</time></trkpt><trkpt lat="42.81532455350499" lon="3.0305772242603126"><ele>3.0</ele><time>2026-04-09T08:56:10Z</time></trkpt><trkpt lat="42.81510304648132" lon="3.0305908301054165"><ele>3.0</ele><time>2026-04-09T08:56:11Z</time></trkpt><trkpt lat="42.814881878018426" lon="3.0306053428995225"><ele>3.0</ele><time>2026-04-09T08:56:12Z</time></trkpt><trkpt lat="42.81466169416614" lon="3.0306212251739892"><ele>3.0</ele><time>2026-04-09T08:56:13Z</time></trkpt><trkpt lat="42.81444147519234" lon="3.0306386784144683"><ele>3.0</ele><time>2026-04-09T08:56:14Z</time></trkpt><trkpt lat="42.8142194574374" lon="3.0306575322778335"><ele>3.0</ele><time>2026-04-09T08:56:15Z</time></trkpt><trkpt lat="42.813998169862295" lon="3.030673523936044"><ele>3.0</ele><time>2026-04-09T08:56:16Z</time></trkpt><trkpt lat="42.813776729494656" lon="3.0306896835394417"><ele>3.0</ele><time>2026-04-09T08:56:17Z</time></trkpt><trkpt lat="42.813554434740794" lon="3.0307089097928195"><ele>3.0</ele><time>2026-04-09T08:56:18Z</time></trkpt><trkpt lat="42.81333161627394" lon="3.0307246635498886"><ele>3.0</ele><time>2026-04-09T08:56:19Z</time></trkpt><trkpt lat="42.81310750018474" lon="3.030741077275698"><ele>3.0</ele><time>2026-04-09T08:56:20Z</time></trkpt><trkpt lat="42.812884836562894" lon="3.0307573009877347"><ele>3.0</ele><time>2026-04-09T08:56:21Z</time></trkpt><trkpt lat="42.81265985286769" lon="3.0307727227964487"><ele>3.0</ele><time>2026-04-09T08:56:22Z</time></trkpt><trkpt lat="42.81243750871133" lon="3.0307882374326276"><ele>3.0</ele><time>2026-04-09T08:56:23Z</time></trkpt><trkpt lat="42.812212921970946" lon="3.0308051258888677"><ele>3.0</ele><time>2026-04-09T08:56:24Z</time></trkpt><trkpt lat="42.81199026498635" lon="3.030818944708935"><ele>3.0</ele><time>2026-04-09T08:56:25Z</time></trkpt><trkpt lat="42.811763776218875" lon="3.0308311540028803"><ele>3.0</ele><time>2026-04-09T08:56:26Z</time></trkpt><trkpt lat="42.811538642079626" lon="3.0308459589407235"><ele>3.0</ele><time>2026-04-09T08:56:27Z</time></trkpt><trkpt lat="42.8113158940535" lon="3.0308630242800727"><ele>3.0</ele><time>2026-04-09T08:56:28Z</time></trkpt><trkpt lat="42.81109146590761" lon="3.0308809919288904"><ele>3.0</ele><time>2026-04-09T08:56:29Z</time></trkpt><trkpt lat="42.810866815636665" lon="3.0308997320802686"><ele>3.0</ele><time>2026-04-09T08:56:30Z</time></trkpt><trkpt lat="42.8106426398265" lon="3.0309190675158946"><ele>3.0</ele><time>2026-04-09T08:56:31Z</time></trkpt><trkpt lat="42.81041784336682" lon="3.0309331629738"><ele>3.0</ele><time>2026-04-09T08:56:32Z</time></trkpt><trkpt lat="42.81019244439019" lon="3.0309527809275805"><ele>3.333333333333333</ele><time>2026-04-09T08:56:33Z</time></trkpt><trkpt lat="42.809967936538314" lon="3.0309715664076595"><ele>3.6666666666666665</ele><time>2026-04-09T08:56:34Z</time></trkpt><trkpt lat="42.80974450096635" lon="3.0309871131531474"><ele>4.0</ele><time>2026-04-09T08:56:35Z</time></trkpt><trkpt lat="42.80952034580712" lon="3.0310069794994687"><ele>2.6666666666666665</ele><time>2026-04-09T08:56:36Z</time></trkpt><trkpt lat="42.80929682086554" lon="3.031028185287975"><ele>1.3333333333333333</ele><time>2026-04-09T08:56:37Z</time></trkpt><trkpt lat="42.809073518340405" lon="3.031051932962433"><ele>0.0</ele><time>2026-04-09T08:56:38Z</time></trkpt><trkpt lat="42.80884871265097" lon="3.0310728103830336"><ele>0.0</ele><time>2026-04-09T08:56:39Z</time></trkpt><trkpt lat="42.80862254532638" lon="3.03109310228275"><ele>0.0</ele><time>2026-04-09T08:56:40Z</time></trkpt><trkpt lat="42.808394724451595" lon="3.0311098841701534"><ele>1.0</ele><time>2026-04-09T08:56:41Z</time></trkpt><trkpt lat="42.808166451989095" lon="3.0311196416135604"><ele>2.0</ele><time>2026-04-09T08:56:42Z</time></trkpt><trkpt lat="42.80793736963414" lon="3.0311263120914287"><ele>2.0</ele><time>2026-04-09T08:56:43Z</time></trkpt><trkpt lat="42.80770915699081" lon="3.0311280853102565"><ele>2.0</ele><time>2026-04-09T08:56:44Z</time></trkpt><trkpt lat="42.8074806151287" lon="3.031129029956662"><ele>2.5</ele><time>2026-04-09T08:56:45Z</time></trkpt><trkpt lat="42.80725186050162" lon="3.0311236092928406"><ele>3.0</ele><time>2026-04-09T08:56:46Z</time></trkpt><trkpt lat="42.80702361519227" lon="3.0311108194102543"><ele>3.0</ele><time>2026-04-09T08:56:47Z</time></trkpt><trkpt lat="42.80679436521069" lon="3.0310909412995684"><ele>3.0</ele><time>2026-04-09T08:56:48Z</time></trkpt><trkpt lat="42.806564986587766" lon="3.031065859764869"><ele>3.0</ele><time>2026-04-09T08:56:49Z</time></trkpt><trkpt lat="42.80633472301643" lon="3.0310431297581926"><ele>3.0</ele><time>2026-04-09T08:56:50Z</time></trkpt><trkpt lat="42.80610599009273" lon="3.0310173027266214"><ele>2.0</ele><time>2026-04-09T08:56:51Z</time></trkpt><trkpt lat="42.805877463583116" lon="3.030994283705403"><ele>1.0</ele><time>2026-04-09T08:56:52Z</time></trkpt><trkpt lat="42.80564870426276" lon="3.030964549928467"><ele>1.0</ele><time>2026-04-09T08:56:53Z</time></trkpt><trkpt lat="42.80542015332826" lon="3.0309315461912694"><ele>1.0</ele><time>2026-04-09T08:56:54Z</time></trkpt><trkpt lat="42.805192839666596" lon="3.030897265284516"><ele>1.0</ele><time>2026-04-09T08:56:55Z</time></trkpt><trkpt lat="42.8049634943776" lon="3.0308598679993906"><ele>1.0</ele><time>2026-04-09T08:56:56Z</time></trkpt><trkpt lat="42.804735231150254" lon="3.030822352608266"><ele>1.5</ele><time>2026-04-09T08:56:57Z</time></trkpt><trkpt lat="42.80450735485008" lon="3.0307784113464784"><ele>2.0</ele><time>2026-04-09T08:56:58Z</time></trkpt><trkpt lat="42.80427896221668" lon="3.0307308063631906"><ele>2.0</ele><time>2026-04-09T08:56:59Z</time></trkpt><trkpt lat="42.80405088880702" lon="3.0306810131740245"><ele>2.0</ele><time>2026-04-09T08:57:00Z</time></trkpt><trkpt lat="42.803824041558876" lon="3.030623995800718"><ele>2.0</ele><time>2026-04-09T08:57:01Z</time></trkpt><trkpt lat="42.80359686196015" lon="3.0305622631979037"><ele>2.0</ele><time>2026-04-09T08:57:02Z</time></trkpt><trkpt lat="42.803367751877374" lon="3.0304963303754375"><ele>2.5</ele><time>2026-04-09T08:57:03Z</time></trkpt><trkpt lat="42.80314062142807" lon="3.030429926944074"><ele>3.0</ele><time>2026-04-09T08:57:04Z</time></trkpt><trkpt lat="42.802913162478475" lon="3.030363526754756"><ele>3.0</ele><time>2026-04-09T08:57:05Z</time></trkpt><trkpt lat="42.8026910908882" lon="3.030298060727893"><ele>3.0</ele><time>2026-04-09T08:57:06Z</time></trkpt><trkpt lat="42.80247445656718" lon="3.0302277839412484"><ele>2.6666666666666665</ele><time>2026-04-09T08:57:07Z</time></trkpt><trkpt lat="42.80226119876115" lon="3.0301569110974853"><ele>2.333333333333333</ele><time>2026-04-09T08:57:08Z</time></trkpt><trkpt lat="42.80204664020452" lon="3.030089694975823"><ele>2.0</ele><time>2026-04-09T08:57:09Z</time></trkpt><trkpt lat="42.80183534090803" lon="3.0300142497446774"><ele>1.3333333333333333</ele><time>2026-04-09T08:57:10Z</time></trkpt><trkpt lat="42.80162446487527" lon="3.0299321359240925"><ele>0.6666666666666666</ele><time>2026-04-09T08:57:11Z</time></trkpt><trkpt lat="42.80141318515377" lon="3.0298403492432167"><ele>0.0</ele><time>2026-04-09T08:57:12Z</time></trkpt><trkpt lat="42.80120221174211" lon="3.0297445168239063"><ele>0.3333333333333333</ele><time>2026-04-09T08:57:13Z</time></trkpt><trkpt lat="42.80099128746013" lon="3.0296468589102177"><ele>0.6666666666666666</ele><time>2026-04-09T08:57:14Z</time></trkpt><trkpt lat="42.80078019235427" lon="3.0295488200305893"><ele>1.0</ele><time>2026-04-09T08:57:15Z</time></trkpt><trkpt lat="42.80056820802616" lon="3.029449256588344"><ele>1.0</ele><time>2026-04-09T08:57:16Z</time></trkpt><trkpt lat="42.80035519958192" lon="3.0293475937362015"><ele>1.0</ele><time>2026-04-09T08:57:17Z</time></trkpt><trkpt lat="42.80014339311773" lon="3.0292441088378865"><ele>1.5</ele><time>2026-04-09T08:57:18Z</time></trkpt><trkpt lat="42.79993335336565" lon="3.029137154700483"><ele>2.0</ele><time>2026-04-09T08:57:19Z</time></trkpt><trkpt lat="42.79972304639168" lon="3.0290254199262976"><ele>2.0</ele><time>2026-04-09T08:57:20Z</time></trkpt><trkpt lat="42.799513373947505" lon="3.028907923349428"><ele>2.0</ele><time>2026-04-09T08:57:21Z</time></trkpt><trkpt lat="42.79930460361504" lon="3.028789708260099"><ele>1.5</ele><time>2026-04-09T08:57:22Z</time></trkpt><trkpt lat="42.79909773907856" lon="3.028667743023369"><ele>1.0</ele><time>2026-04-09T08:57:23Z</time></trkpt><trkpt lat="42.79889176677004" lon="3.0285446781803906"><ele>1.0</ele><time>2026-04-09T08:57:24Z</time></trkpt><trkpt lat="42.79868652767968" lon="3.028418071623576"><ele>1.0</ele><time>2026-04-09T08:57:25Z</time></trkpt><trkpt lat="42.79848132895716" lon="3.0282882922846044"><ele>-0.5</ele><time>2026-04-09T08:57:26Z</time></trkpt><trkpt lat="42.79827704478455" lon="3.0281558885101054"><ele>-2.0</ele><time>2026-04-09T08:57:27Z</time></trkpt><trkpt lat="42.7980741718576" lon="3.0280204167954423"><ele>-2.0</ele><time>2026-04-09T08:57:28Z</time></trkpt><trkpt lat="42.797872706657266" lon="3.0278837752228798"><ele>-2.0</ele><time>2026-04-09T08:57:29Z</time></trkpt><trkpt lat="42.7976711754848" lon="3.027744997562085"><ele>-1.0</ele><time>2026-04-09T08:57:30Z</time></trkpt><trkpt lat="42.79746884648373" lon="3.0276069584517913"><ele>0.0</ele><time>2026-04-09T08:57:31Z</time></trkpt><trkpt lat="42.79726669207045" lon="3.0274682312514685"><ele>0.0</ele><time>2026-04-09T08:57:32Z</time></trkpt><trkpt lat="42.797064288536006" lon="3.0273291325204768"><ele>0.0</ele><time>2026-04-09T08:57:33Z</time></trkpt><trkpt lat="42.796863241035254" lon="3.0271936517919515"><ele>0.0</ele><time>2026-04-09T08:57:34Z</time></trkpt><trkpt lat="42.79665940254824" lon="3.0270528607965943"><ele>0.0</ele><time>2026-04-09T08:57:35Z</time></trkpt><trkpt lat="42.79645615512081" lon="3.0269128925512043"><ele>0.0</ele><time>2026-04-09T08:57:36Z</time></trkpt><trkpt lat="42.79625213674787" lon="3.026773909350913"><ele>0.0</ele><time>2026-04-09T08:57:37Z</time></trkpt><trkpt lat="42.79604830001805" lon="3.026635440233769"><ele>1.5</ele><time>2026-04-09T08:57:38Z</time></trkpt><trkpt lat="42.795843404046146" lon="3.0264996220401237"><ele>3.0</ele><time>2026-04-09T08:57:39Z</time></trkpt><trkpt lat="42.79563520265458" lon="3.0263653752396333"><ele>3.0</ele><time>2026-04-09T08:57:40Z</time></trkpt><trkpt lat="42.79542713136302" lon="3.026234185074547"><ele>3.0</ele><time>2026-04-09T08:57:41Z</time></trkpt><trkpt lat="42.79521679337187" lon="3.0261075019741988"><ele>2.5</ele><time>2026-04-09T08:57:42Z</time></trkpt><trkpt lat="42.79500630565118" lon="3.025986161920159"><ele>2.0</ele><time>2026-04-09T08:57:43Z</time></trkpt><trkpt lat="42.79479304080267" lon="3.025870870138975"><ele>1.5</ele><time>2026-04-09T08:57:44Z</time></trkpt><trkpt lat="42.7945775841647" lon="3.0257550104004953"><ele>1.0</ele><time>2026-04-09T08:57:45Z</time></trkpt><trkpt lat="42.79436279245169" lon="3.025642177063475"><ele>1.0</ele><time>2026-04-09T08:57:46Z</time></trkpt><trkpt lat="42.79414623235039" lon="3.02553199284444"><ele>1.0</ele><time>2026-04-09T08:57:47Z</time></trkpt><trkpt lat="42.793926702352586" lon="3.025424724171768"><ele>1.0</ele><time>2026-04-09T08:57:48Z</time></trkpt><trkpt lat="42.79370973518246" lon="3.025318653369712"><ele>1.0</ele><time>2026-04-09T08:57:49Z</time></trkpt><trkpt lat="42.79348973683815" lon="3.0252162461962877"><ele>2.0</ele><time>2026-04-09T08:57:50Z</time></trkpt><trkpt lat="42.79326805529532" lon="3.025121815722267"><ele>3.0</ele><time>2026-04-09T08:57:51Z</time></trkpt><trkpt lat="42.793044604179926" lon="3.0250315680281905"><ele>3.0</ele><time>2026-04-09T08:57:52Z</time></trkpt><trkpt lat="42.79282144521368" lon="3.024941245649588"><ele>3.0</ele><time>2026-04-09T08:57:53Z</time></trkpt><trkpt lat="42.79259781836398" lon="3.0248526518367878"><ele>2.0</ele><time>2026-04-09T08:57:54Z</time></trkpt><trkpt lat="42.79237326377244" lon="3.0247634408308635"><ele>1.0</ele><time>2026-04-09T08:57:55Z</time></trkpt><trkpt lat="42.79215156583774" lon="3.024667417998987"><ele>1.0</ele><time>2026-04-09T08:57:56Z</time></trkpt><trkpt lat="42.79192776892925" lon="3.0245661288574337"><ele>1.0</ele><time>2026-04-09T08:57:57Z</time></trkpt><trkpt lat="42.791707274735636" lon="3.0244626874610274"><ele>1.5</ele><time>2026-04-09T08:57:58Z</time></trkpt><trkpt lat="42.79148790434346" lon="3.0243518736353545"><ele>2.0</ele><time>2026-04-09T08:57:59Z</time></trkpt><trkpt lat="42.79127180858684" lon="3.0242361071073853"><ele>2.0</ele><time>2026-04-09T08:58:00Z</time></trkpt><trkpt lat="42.79105733150973" lon="3.0241124107313855"><ele>2.0</ele><time>2026-04-09T08:58:01Z</time></trkpt><trkpt lat="42.790844844698974" lon="3.0239823684206617"><ele>1.0</ele><time>2026-04-09T08:58:02Z</time></trkpt><trkpt lat="42.79063538061225" lon="3.0238442230579934"><ele>0.0</ele><time>2026-04-09T08:58:03Z</time></trkpt><trkpt lat="42.79042888075637" lon="3.0237011012931174"><ele>0.0</ele><time>2026-04-09T08:58:04Z</time></trkpt><trkpt lat="42.79022639271835" lon="3.023545961516024"><ele>0.0</ele><time>2026-04-09T08:58:05Z</time></trkpt><trkpt lat="42.790029288688686" lon="3.0233823548705465"><ele>1.5</ele><time>2026-04-09T08:58:06Z</time></trkpt><trkpt lat="42.78983506981432" lon="3.023207857897166"><ele>3.0</ele><time>2026-04-09T08:58:07Z</time></trkpt><trkpt lat="42.78964602875705" lon="3.0230253051738494"><ele>3.0</ele><time>2026-04-09T08:58:08Z</time></trkpt><trkpt lat="42.78946078940419" lon="3.022833712919298"><ele>3.0</ele><time>2026-04-09T08:58:09Z</time></trkpt><trkpt lat="42.789280195588155" lon="3.022633411140101"><ele>2.0</ele><time>2026-04-09T08:58:10Z</time></trkpt><trkpt lat="42.78910532256331" lon="3.02242646087443"><ele>1.0</ele><time>2026-04-09T08:58:11Z</time></trkpt><trkpt lat="42.78893551767302" lon="3.022211568134591"><ele>1.0</ele><time>2026-04-09T08:58:12Z</time></trkpt><trkpt lat="42.78877190183326" lon="3.0219870785593863"><ele>1.0</ele><time>2026-04-09T08:58:13Z</time></trkpt><trkpt lat="42.78861387369631" lon="3.0217607790637193"><ele>1.0</ele><time>2026-04-09T08:58:14Z</time></trkpt><trkpt lat="42.788461258464864" lon="3.021530034981368"><ele>1.0</ele><time>2026-04-09T08:58:15Z</time></trkpt><trkpt lat="42.78831451367996" lon="3.0212954860334715"><ele>1.0</ele><time>2026-04-09T08:58:16Z</time></trkpt><trkpt lat="42.78817626304309" lon="3.0210554086914803"><ele>1.0</ele><time>2026-04-09T08:58:17Z</time></trkpt><trkpt lat="42.788043119424046" lon="3.020808180770954"><ele>1.0</ele><time>2026-04-09T08:58:18Z</time></trkpt><trkpt lat="42.78791642300477" lon="3.0205525871930714"><ele>1.0</ele><time>2026-04-09T08:58:19Z</time></trkpt><trkpt lat="42.78779886860513" lon="3.020294730392078"><ele>1.0</ele><time>2026-04-09T08:58:20Z</time></trkpt><trkpt lat="42.7876856638854" lon="3.0200323382516254"><ele>1.0</ele><time>2026-04-09T08:58:21Z</time></trkpt><trkpt lat="42.787577105585115" lon="3.019768702384675"><ele>1.3333333333333333</ele><time>2026-04-09T08:58:22Z</time></trkpt><trkpt lat="42.78747820301827" lon="3.019511671267484"><ele>1.6666666666666665</ele><time>2026-04-09T08:58:23Z</time></trkpt><trkpt lat="42.78738514492708" lon="3.0192557836070115"><ele>2.0</ele><time>2026-04-09T08:58:24Z</time></trkpt><trkpt lat="42.78730212178974" lon="3.019004235366573"><ele>2.0</ele><time>2026-04-09T08:58:25Z</time></trkpt><trkpt lat="42.78722553947811" lon="3.018751019545185"><ele>2.0</ele><time>2026-04-09T08:58:26Z</time></trkpt><trkpt lat="42.78715615657169" lon="3.0184994477904707"><ele>2.0</ele><time>2026-04-09T08:58:27Z</time></trkpt><trkpt lat="42.787094066277874" lon="3.0182484369320095"><ele>2.0</ele><time>2026-04-09T08:58:28Z</time></trkpt><trkpt lat="42.787036064532415" lon="3.017995782207445"><ele>2.0</ele><time>2026-04-09T08:58:29Z</time></trkpt><trkpt lat="42.78698145413767" lon="3.0177459324588587"><ele>2.0</ele><time>2026-04-09T08:58:30Z</time></trkpt><trkpt lat="42.78693606463671" lon="3.017497838626351"><ele>1.6666666666666665</ele><time>2026-04-09T08:58:31Z</time></trkpt><trkpt lat="42.78689570843528" lon="3.0172492105188295"><ele>1.3333333333333333</ele><time>2026-04-09T08:58:32Z</time></trkpt><trkpt lat="42.78686069098506" lon="3.0170000364706935"><ele>1.0</ele><time>2026-04-09T08:58:33Z</time></trkpt><trkpt lat="42.786831041240184" lon="3.016751784065268"><ele>1.0</ele><time>2026-04-09T08:58:34Z</time></trkpt><trkpt lat="42.786805777240225" lon="3.016503231941335"><ele>1.0</ele><time>2026-04-09T08:58:35Z</time></trkpt><trkpt lat="42.786783450556136" lon="3.016257084180364"><ele>1.0</ele><time>2026-04-09T08:58:36Z</time></trkpt><trkpt lat="42.786766033006664" lon="3.0160124859037705"><ele>2.0</ele><time>2026-04-09T08:58:37Z</time></trkpt><trkpt lat="42.78675348647987" lon="3.0157679470308194"><ele>3.0</ele><time>2026-04-09T08:58:38Z</time></trkpt><trkpt lat="42.78674472939516" lon="3.0155215660617722"><ele>4.0</ele><time>2026-04-09T08:58:39Z</time></trkpt><trkpt lat="42.7867417600482" lon="3.0152736800245017"><ele>4.0</ele><time>2026-04-09T08:58:40Z</time></trkpt><trkpt lat="42.78674140185967" lon="3.0150237949708356"><ele>4.0</ele><time>2026-04-09T08:58:41Z</time></trkpt><trkpt lat="42.786747415181466" lon="3.0147723274978313"><ele>4.0</ele><time>2026-04-09T08:58:42Z</time></trkpt><trkpt lat="42.78675546906662" lon="3.014520330947003"><ele>3.6666666666666665</ele><time>2026-04-09T08:58:43Z</time></trkpt><trkpt lat="42.786766963049416" lon="3.01426718609358"><ele>3.333333333333333</ele><time>2026-04-09T08:58:44Z</time></trkpt><trkpt lat="42.78678347483783" lon="3.014014464718558"><ele>3.0</ele><time>2026-04-09T08:58:45Z</time></trkpt><trkpt lat="42.78680359338911" lon="3.013762324418856"><ele>2.6666666666666665</ele><time>2026-04-09T08:58:46Z</time></trkpt><trkpt lat="42.786827970029314" lon="3.013508658145017"><ele>2.333333333333333</ele><time>2026-04-09T08:58:47Z</time></trkpt><trkpt lat="42.786853048109165" lon="3.013253907051932"><ele>2.0</ele><time>2026-04-09T08:58:48Z</time></trkpt><trkpt lat="42.78687698261746" lon="3.0129980586016027"><ele>2.0</ele><time>2026-04-09T08:58:49Z</time></trkpt><trkpt lat="42.7869022114564" lon="3.0127432393332914"><ele>2.0</ele><time>2026-04-09T08:58:50Z</time></trkpt><trkpt lat="42.786929728473886" lon="3.0124879094708272"><ele>2.0</ele><time>2026-04-09T08:58:51Z</time></trkpt><trkpt lat="42.78695710057475" lon="3.0122296118969416"><ele>2.333333333333333</ele><time>2026-04-09T08:58:52Z</time></trkpt><trkpt lat="42.78698653288597" lon="3.011970950419037"><ele>2.6666666666666665</ele><time>2026-04-09T08:58:53Z</time></trkpt><trkpt lat="42.787013206155024" lon="3.01170880191059"><ele>3.0</ele><time>2026-04-09T08:58:54Z</time></trkpt><trkpt lat="42.78703883825948" lon="3.011446454967229"><ele>3.0</ele><time>2026-04-09T08:58:55Z</time></trkpt><trkpt lat="42.78706386630584" lon="3.01118475675851"><ele>3.0</ele><time>2026-04-09T08:58:56Z</time></trkpt><trkpt lat="42.787086655873935" lon="3.0109224035316435"><ele>3.0</ele><time>2026-04-09T08:58:57Z</time></trkpt><trkpt lat="42.787111203597156" lon="3.0106628857795146"><ele>3.0</ele><time>2026-04-09T08:58:58Z</time></trkpt><trkpt lat="42.787135726384015" lon="3.0104032312959625"><ele>3.0</ele><time>2026-04-09T08:58:59Z</time></trkpt><trkpt lat="42.78716016939054" lon="3.010144410598868"><ele>3.0</ele><time>2026-04-09T08:59:00Z</time></trkpt><trkpt lat="42.78718713357457" lon="3.0098850456289044"><ele>3.0</ele><time>2026-04-09T08:59:01Z</time></trkpt><trkpt lat="42.78721407962291" lon="3.009626138917718"><ele>3.0</ele><time>2026-04-09T08:59:02Z</time></trkpt><trkpt lat="42.787242785339984" lon="3.0093675700681253"><ele>3.0</ele><time>2026-04-09T08:59:03Z</time></trkpt><trkpt lat="42.78727240165448" lon="3.0091099618887993"><ele>3.333333333333333</ele><time>2026-04-09T08:59:04Z</time></trkpt><trkpt lat="42.78730278382833" lon="3.0088521029857898"><ele>3.6666666666666665</ele><time>2026-04-09T08:59:05Z</time></trkpt><trkpt lat="42.787331998472396" lon="3.008595525907616"><ele>4.0</ele><time>2026-04-09T08:59:06Z</time></trkpt><trkpt lat="42.78735769346866" lon="3.0083400249294443"><ele>3.333333333333333</ele><time>2026-04-09T08:59:07Z</time></trkpt><trkpt lat="42.787379799580584" lon="3.008083905705711"><ele>2.6666666666666665</ele><time>2026-04-09T08:59:08Z</time></trkpt><trkpt lat="42.787398361551446" lon="3.007828926951859"><ele>2.0</ele><time>2026-04-09T08:59:09Z</time></trkpt><trkpt lat="42.7874109120548" lon="3.007574631824546"><ele>2.0</ele><time>2026-04-09T08:59:10Z</time></trkpt><trkpt lat="42.78742003575934" lon="3.007320573291158"><ele>2.0</ele><time>2026-04-09T08:59:11Z</time></trkpt><trkpt lat="42.78742515251798" lon="3.0070667944495693"><ele>2.0</ele><time>2026-04-09T08:59:12Z</time></trkpt><trkpt lat="42.787426277750406" lon="3.0068143770128093"><ele>2.0</ele><time>2026-04-09T08:59:13Z</time></trkpt><trkpt lat="42.78742491072724" lon="3.0065634862984894"><ele>2.0</ele><time>2026-04-09T08:59:14Z</time></trkpt><trkpt lat="42.78742258272426" lon="3.006314401419338"><ele>2.0</ele><time>2026-04-09T08:59:15Z</time></trkpt><trkpt lat="42.787415012176844" lon="3.00606691566441"><ele>1.6666666666666665</ele><time>2026-04-09T08:59:16Z</time></trkpt><trkpt lat="42.787402184909006" lon="3.0058194136440117"><ele>1.3333333333333333</ele><time>2026-04-09T08:59:17Z</time></trkpt><trkpt lat="42.7873853524189" lon="3.00557221501342"><ele>1.0</ele><time>2026-04-09T08:59:18Z</time></trkpt><trkpt lat="42.78736534149246" lon="3.0053269979494432"><ele>1.0</ele><time>2026-04-09T08:59:19Z</time></trkpt><trkpt lat="42.78734266642325" lon="3.0050823463289116"><ele>1.0</ele><time>2026-04-09T08:59:20Z</time></trkpt><trkpt lat="42.78731567770319" lon="3.0048385562736244"><ele>1.0</ele><time>2026-04-09T08:59:21Z</time></trkpt><trkpt lat="42.78728545538833" lon="3.004596255742715"><ele>1.0</ele><time>2026-04-09T08:59:22Z</time></trkpt><trkpt lat="42.787251243188955" lon="3.0043548475777744"><ele>1.0</ele><time>2026-04-09T08:59:23Z</time></trkpt><trkpt lat="42.78721396197788" lon="3.004114584513788"><ele>1.0</ele><time>2026-04-09T08:59:24Z</time></trkpt><trkpt lat="42.78717327265829" lon="3.00387503844781"><ele>1.0</ele><time>2026-04-09T08:59:25Z</time></trkpt><trkpt lat="42.78712704437348" lon="3.0036393251908566"><ele>1.0</ele><time>2026-04-09T08:59:26Z</time></trkpt><trkpt lat="42.78708070686012" lon="3.003404876027971"><ele>1.0</ele><time>2026-04-09T08:59:27Z</time></trkpt><trkpt lat="42.787028288741325" lon="3.0031707949608957"><ele>1.0</ele><time>2026-04-09T08:59:28Z</time></trkpt><trkpt lat="42.786973721980424" lon="3.0029369738685787"><ele>1.0</ele><time>2026-04-09T08:59:29Z</time></trkpt><trkpt lat="42.7869145427961" lon="3.002703008891468"><ele>1.0</ele><time>2026-04-09T08:59:30Z</time></trkpt><trkpt lat="42.78685258726116" lon="3.0024684199591087"><ele>1.3333333333333333</ele><time>2026-04-09T08:59:31Z</time></trkpt><trkpt lat="42.78678753660022" lon="3.002236797239361"><ele>1.6666666666666665</ele><time>2026-04-09T08:59:32Z</time></trkpt><trkpt lat="42.78672160121651" lon="3.002005464792833"><ele>2.0</ele><time>2026-04-09T08:59:33Z</time></trkpt><trkpt lat="42.786650635383786" lon="3.0017778348510427"><ele>2.0</ele><time>2026-04-09T08:59:34Z</time></trkpt><trkpt lat="42.78657449482874" lon="3.001552853915781"><ele>2.0</ele><time>2026-04-09T08:59:35Z</time></trkpt><trkpt lat="42.78649598069422" lon="3.0013302722525568"><ele>2.0</ele><time>2026-04-09T08:59:36Z</time></trkpt><trkpt lat="42.7864172689736" lon="3.001108304278485"><ele>2.0</ele><time>2026-04-09T08:59:37Z</time></trkpt><trkpt lat="42.7863378530212" lon="3.000883756693877"><ele>2.0</ele><time>2026-04-09T08:59:38Z</time></trkpt><trkpt lat="42.78625894507336" lon="3.0006607146751594"><ele>2.0</ele><time>2026-04-09T08:59:39Z</time></trkpt><trkpt lat="42.78617868972557" lon="3.000439787851221"><ele>2.333333333333333</ele><time>2026-04-09T08:59:40Z</time></trkpt><trkpt lat="42.78609864283048" lon="3.000216696243897"><ele>2.6666666666666665</ele><time>2026-04-09T08:59:41Z</time></trkpt><trkpt lat="42.78601943681789" lon="2.999994696293175"><ele>3.0</ele><time>2026-04-09T08:59:42Z</time></trkpt><trkpt lat="42.78593941804017" lon="2.99977325514401"><ele>2.6666666666666665</ele><time>2026-04-09T08:59:43Z</time></trkpt><trkpt lat="42.785861406951064" lon="2.999550928556675"><ele>2.333333333333333</ele><time>2026-04-09T08:59:44Z</time></trkpt><trkpt lat="42.785782114477264" lon="2.999329916558161"><ele>2.0</ele><time>2026-04-09T08:59:45Z</time></trkpt><trkpt lat="42.78570570973433" lon="2.999109858462742"><ele>2.0</ele><time>2026-04-09T08:59:46Z</time></trkpt><trkpt lat="42.78562648116266" lon="2.998887727688336"><ele>2.0</ele><time>2026-04-09T08:59:47Z</time></trkpt><trkpt lat="42.785547408917026" lon="2.9986649475903833"><ele>2.0</ele><time>2026-04-09T08:59:48Z</time></trkpt><trkpt lat="42.785468357989615" lon="2.998443100299405"><ele>1.6666666666666665</ele><time>2026-04-09T08:59:49Z</time></trkpt><trkpt lat="42.78539137776839" lon="2.9982184777411094"><ele>1.3333333333333333</ele><time>2026-04-09T08:59:50Z</time></trkpt><trkpt lat="42.785314578103545" lon="2.997998102389873"><ele>1.0</ele><time>2026-04-09T08:59:51Z</time></trkpt><trkpt lat="42.785236421055835" lon="2.997776700966231"><ele>1.0</ele><time>2026-04-09T08:59:52Z</time></trkpt><trkpt lat="42.785159461601566" lon="2.9975539054038944"><ele>1.0</ele><time>2026-04-09T08:59:53Z</time></trkpt><trkpt lat="42.78508765020271" lon="2.99732834983688"><ele>1.0</ele><time>2026-04-09T08:59:54Z</time></trkpt><trkpt lat="42.78501682412923" lon="2.9971034338220606"><ele>1.0</ele><time>2026-04-09T08:59:55Z</time></trkpt><trkpt lat="42.784947350399904" lon="2.9968793263975066"><ele>1.0</ele><time>2026-04-09T08:59:56Z</time></trkpt><trkpt lat="42.784875974764596" lon="2.996656617526423"><ele>1.0</ele><time>2026-04-09T08:59:57Z</time></trkpt><trkpt lat="42.78480287599817" lon="2.9964344407583496"><ele>1.3333333333333333</ele><time>2026-04-09T08:59:58Z</time></trkpt><trkpt lat="42.784726124090135" lon="2.9962084831623974"><ele>1.6666666666666665</ele><time>2026-04-09T08:59:59Z</time></trkpt><trkpt lat="42.78464817354979" lon="2.9959878050165467"><ele>2.0</ele><time>2026-04-09T09:00:00Z</time></trkpt><trkpt lat="42.78456884841854" lon="2.9957629471637675"><ele>2.0</ele><time>2026-04-09T09:00:01Z</time></trkpt><trkpt lat="42.784489438610045" lon="2.9955388657468025"><ele>2.0</ele><time>2026-04-09T09:00:02Z</time></trkpt><trkpt lat="42.78440800630327" lon="2.995310935378677"><ele>2.0</ele><time>2026-04-09T09:00:03Z</time></trkpt><trkpt lat="42.78432663874096" lon="2.995083972968422"><ele>2.0</ele><time>2026-04-09T09:00:04Z</time></trkpt><trkpt lat="42.78424628676621" lon="2.9948551945173842"><ele>2.0</ele><time>2026-04-09T09:00:05Z</time></trkpt><trkpt lat="42.78416599992124" lon="2.994626655681098"><ele>2.0</ele><time>2026-04-09T09:00:06Z</time></trkpt><trkpt lat="42.78408556554082" lon="2.994397751576034"><ele>1.6666666666666665</ele><time>2026-04-09T09:00:07Z</time></trkpt><trkpt lat="42.78400507568089" lon="2.9941659689115996"><ele>1.3333333333333333</ele><time>2026-04-09T09:00:08Z</time></trkpt><trkpt lat="42.78392615706571" lon="2.993934188750012"><ele>1.0</ele><time>2026-04-09T09:00:09Z</time></trkpt><trkpt lat="42.78384646334565" lon="2.99370469162901"><ele>1.0</ele><time>2026-04-09T09:00:10Z</time></trkpt><trkpt lat="42.78376531195851" lon="2.9934753975165984"><ele>1.0</ele><time>2026-04-09T09:00:11Z</time></trkpt><trkpt lat="42.783684331480615" lon="2.9932434025815238"><ele>1.0</ele><time>2026-04-09T09:00:12Z</time></trkpt><trkpt lat="42.78360332776256" lon="2.99301093039704"><ele>1.3333333333333333</ele><time>2026-04-09T09:00:13Z</time></trkpt><trkpt lat="42.78352261185814" lon="2.9927800873244093"><ele>1.6666666666666665</ele><time>2026-04-09T09:00:14Z</time></trkpt><trkpt lat="42.78343994782147" lon="2.992543942536837"><ele>2.0</ele><time>2026-04-09T09:00:15Z</time></trkpt><trkpt lat="42.78336098559126" lon="2.9923098599572637"><ele>2.0</ele><time>2026-04-09T09:00:16Z</time></trkpt><trkpt lat="42.78328380120521" lon="2.9920731442753934"><ele>2.0</ele><time>2026-04-09T09:00:17Z</time></trkpt><trkpt lat="42.78320807522839" lon="2.991835962244973"><ele>2.0</ele><time>2026-04-09T09:00:18Z</time></trkpt><trkpt lat="42.7831338026173" lon="2.9915984519998196"><ele>2.6666666666666665</ele><time>2026-04-09T09:00:19Z</time></trkpt><trkpt lat="42.78306064151632" lon="2.9913580212902504"><ele>3.333333333333333</ele><time>2026-04-09T09:00:20Z</time></trkpt><trkpt lat="42.78298941383663" lon="2.9911160325086574"><ele>4.0</ele><time>2026-04-09T09:00:21Z</time></trkpt><trkpt lat="42.78291938128461" lon="2.9908717319331926"><ele>4.0</ele><time>2026-04-09T09:00:22Z</time></trkpt><trkpt lat="42.78284977804863" lon="2.990626887502849"><ele>4.0</ele><time>2026-04-09T09:00:23Z</time></trkpt><trkpt lat="42.782784514244305" lon="2.9903800723228624"><ele>4.0</ele><time>2026-04-09T09:00:24Z</time></trkpt><trkpt lat="42.78272268415155" lon="2.990128911491508"><ele>3.6666666666666665</ele><time>2026-04-09T09:00:25Z</time></trkpt><trkpt lat="42.782664199097" lon="2.989874818754228"><ele>3.333333333333333</ele><time>2026-04-09T09:00:26Z</time></trkpt><trkpt lat="42.78260952684094" lon="2.9896207046885763"><ele>3.0</ele><time>2026-04-09T09:00:27Z</time></trkpt><trkpt lat="42.78255681913854" lon="2.9893639746231218"><ele>2.6666666666666665</ele><time>2026-04-09T09:00:28Z</time></trkpt><trkpt lat="42.78250598811794" lon="2.9891062009331"><ele>2.333333333333333</ele><time>2026-04-09T09:00:29Z</time></trkpt><trkpt lat="42.782454930054584" lon="2.9888463689570397"><ele>2.0</ele><time>2026-04-09T09:00:30Z</time></trkpt><trkpt lat="42.78240602291399" lon="2.988588867663776"><ele>2.333333333333333</ele><time>2026-04-09T09:00:31Z</time></trkpt><trkpt lat="42.7823566246226" lon="2.9883279048025764"><ele>2.6666666666666665</ele><time>2026-04-09T09:00:32Z</time></trkpt><trkpt lat="42.78231164900799" lon="2.9880667222297985"><ele>3.0</ele><time>2026-04-09T09:00:33Z</time></trkpt><trkpt lat="42.782266385122774" lon="2.987804725599382"><ele>3.0</ele><time>2026-04-09T09:00:34Z</time></trkpt><trkpt lat="42.78222323535543" lon="2.987539325250565"><ele>3.0</ele><time>2026-04-09T09:00:35Z</time></trkpt><trkpt lat="42.78218006573169" lon="2.9872731702036748"><ele>3.0</ele><time>2026-04-09T09:00:36Z</time></trkpt><trkpt lat="42.78213679459699" lon="2.9870043937050155"><ele>3.0</ele><time>2026-04-09T09:00:37Z</time></trkpt><trkpt lat="42.78209391488415" lon="2.986737064724456"><ele>3.0</ele><time>2026-04-09T09:00:38Z</time></trkpt><trkpt lat="42.78204820076825" lon="2.9864662930667496"><ele>3.0</ele><time>2026-04-09T09:00:39Z</time></trkpt><trkpt lat="42.78200243106875" lon="2.9861936711336"><ele>3.0</ele><time>2026-04-09T09:00:40Z</time></trkpt><trkpt lat="42.78195803194961" lon="2.985925580882201"><ele>3.0</ele><time>2026-04-09T09:00:41Z</time></trkpt><trkpt lat="42.781914331338214" lon="2.9856606442987124"><ele>3.0</ele><time>2026-04-09T09:00:42Z</time></trkpt><trkpt lat="42.781870093426775" lon="2.9853931554067112"><ele>3.333333333333333</ele><time>2026-04-09T09:00:43Z</time></trkpt><trkpt lat="42.781825643521614" lon="2.9851259077797603"><ele>3.6666666666666665</ele><time>2026-04-09T09:00:44Z</time></trkpt><trkpt lat="42.78178238986616" lon="2.9848589798803866"><ele>4.0</ele><time>2026-04-09T09:00:45Z</time></trkpt><trkpt lat="42.781740435002305" lon="2.9845938021104965"><ele>4.0</ele><time>2026-04-09T09:00:46Z</time></trkpt><trkpt lat="42.78169784662575" lon="2.984327086482152"><ele>4.0</ele><time>2026-04-09T09:00:47Z</time></trkpt><trkpt lat="42.78165438601549" lon="2.984063334826504"><ele>4.0</ele><time>2026-04-09T09:00:48Z</time></trkpt><trkpt lat="42.78160930345072" lon="2.9837976219789315"><ele>4.0</ele><time>2026-04-09T09:00:49Z</time></trkpt><trkpt lat="42.78156413077336" lon="2.9835313342609537"><ele>4.0</ele><time>2026-04-09T09:00:50Z</time></trkpt><trkpt lat="42.78152070136779" lon="2.983265569152078"><ele>4.0</ele><time>2026-04-09T09:00:51Z</time></trkpt><trkpt lat="42.78147579564054" lon="2.982999568043447"><ele>4.0</ele><time>2026-04-09T09:00:52Z</time></trkpt><trkpt lat="42.78143339081474" lon="2.9827355266320197"><ele>4.0</ele><time>2026-04-09T09:00:53Z</time></trkpt><trkpt lat="42.78139191660049" lon="2.9824720553799784"><ele>4.0</ele><time>2026-04-09T09:00:54Z</time></trkpt><trkpt lat="42.78134838110661" lon="2.982206989389801"><ele>4.0</ele><time>2026-04-09T09:00:55Z</time></trkpt><trkpt lat="42.78130481267246" lon="2.9819403145331194"><ele>4.0</ele><time>2026-04-09T09:00:56Z</time></trkpt><trkpt lat="42.781263419647765" lon="2.9816726309477146"><ele>4.0</ele><time>2026-04-09T09:00:57Z</time></trkpt><trkpt lat="42.781220883986464" lon="2.981405228754944"><ele>4.0</ele><time>2026-04-09T09:00:58Z</time></trkpt><trkpt lat="42.78118151047234" lon="2.9811372168040937"><ele>4.0</ele><time>2026-04-09T09:00:59Z</time></trkpt><trkpt lat="42.78114138905531" lon="2.980868366734694"><ele>4.0</ele><time>2026-04-09T09:01:00Z</time></trkpt><trkpt lat="42.781103319520525" lon="2.9806019878221894"><ele>4.0</ele><time>2026-04-09T09:01:01Z</time></trkpt><trkpt lat="42.781062257449854" lon="2.9803325735780537"><ele>4.0</ele><time>2026-04-09T09:01:02Z</time></trkpt><trkpt lat="42.78102147094336" lon="2.9800630556796337"><ele>4.0</ele><time>2026-04-09T09:01:03Z</time></trkpt><trkpt lat="42.78097965189637" lon="2.979796155769658"><ele>3.6666666666666665</ele><time>2026-04-09T09:01:04Z</time></trkpt><trkpt lat="42.7809357192606" lon="2.9795271973745745"><ele>3.333333333333333</ele><time>2026-04-09T09:01:05Z</time></trkpt><trkpt lat="42.780892206965156" lon="2.9792584203753942"><ele>3.0</ele><time>2026-04-09T09:01:06Z</time></trkpt><trkpt lat="42.78084705944929" lon="2.9789891494380654"><ele>3.0</ele><time>2026-04-09T09:01:07Z</time></trkpt><trkpt lat="42.780802094787035" lon="2.9787189693646785"><ele>3.0</ele><time>2026-04-09T09:01:08Z</time></trkpt><trkpt lat="42.780757280717324" lon="2.9784453865541214"><ele>3.0</ele><time>2026-04-09T09:01:09Z</time></trkpt><trkpt lat="42.780710336943656" lon="2.9781757417718198"><ele>3.0</ele><time>2026-04-09T09:01:10Z</time></trkpt><trkpt lat="42.78066223009391" lon="2.9779019861160076"><ele>3.0</ele><time>2026-04-09T09:01:11Z</time></trkpt><trkpt lat="42.7806204461771" lon="2.97762219090166"><ele>3.0</ele><time>2026-04-09T09:01:12Z</time></trkpt><trkpt lat="42.78057681872207" lon="2.9773409031545666"><ele>3.0</ele><time>2026-04-09T09:01:13Z</time></trkpt><trkpt lat="42.780531169573116" lon="2.9770616140965935"><ele>3.0</ele><time>2026-04-09T09:01:14Z</time></trkpt><trkpt lat="42.780485005627945" lon="2.976778308463245"><ele>3.0</ele><time>2026-04-09T09:01:15Z</time></trkpt><trkpt lat="42.7804377165144" lon="2.976494136810451"><ele>3.666666666666667</ele><time>2026-04-09T09:01:16Z</time></trkpt><trkpt lat="42.780390493761345" lon="2.976207467102894"><ele>4.333333333333334</ele><time>2026-04-09T09:01:17Z</time></trkpt><trkpt lat="42.7803431019004" lon="2.9759173660132476"><ele>5.0</ele><time>2026-04-09T09:01:18Z</time></trkpt><trkpt lat="42.78029532276089" lon="2.975627110737009"><ele>5.0</ele><time>2026-04-09T09:01:19Z</time></trkpt><trkpt lat="42.78024937233887" lon="2.975335163925681"><ele>5.0</ele><time>2026-04-09T09:01:20Z</time></trkpt><trkpt lat="42.78020282733283" lon="2.9750442743210668"><ele>5.0</ele><time>2026-04-09T09:01:21Z</time></trkpt><trkpt lat="42.78015517134153" lon="2.9747526675224405"><ele>4.333333333333334</ele><time>2026-04-09T09:01:22Z</time></trkpt><trkpt lat="42.78010558423314" lon="2.9744620917315716"><ele>3.666666666666667</ele><time>2026-04-09T09:01:23Z</time></trkpt><trkpt lat="42.78005540020484" lon="2.974171009480908"><ele>3.0</ele><time>2026-04-09T09:01:24Z</time></trkpt><trkpt lat="42.78000377293926" lon="2.973881260431326"><ele>3.0</ele><time>2026-04-09T09:01:25Z</time></trkpt><trkpt lat="42.779952605816064" lon="2.9735908355889715"><ele>3.0</ele><time>2026-04-09T09:01:26Z</time></trkpt><trkpt lat="42.77990471375303" lon="2.973297392827812"><ele>3.0</ele><time>2026-04-09T09:01:27Z</time></trkpt><trkpt lat="42.77985846248036" lon="2.973005323754821"><ele>3.333333333333333</ele><time>2026-04-09T09:01:28Z</time></trkpt><trkpt lat="42.77981200714998" lon="2.9727114599020004"><ele>3.6666666666666665</ele><time>2026-04-09T09:01:29Z</time></trkpt><trkpt lat="42.7797636658219" lon="2.9724177026968928"><ele>4.0</ele><time>2026-04-09T09:01:30Z</time></trkpt><trkpt lat="42.779712546228275" lon="2.9721271645179947"><ele>4.333333333333333</ele><time>2026-04-09T09:01:31Z</time></trkpt><trkpt lat="42.77966361000666" lon="2.971834937853246"><ele>4.666666666666667</ele><time>2026-04-09T09:01:32Z</time></trkpt><trkpt lat="42.77961551606907" lon="2.971542941663221"><ele>5.0</ele><time>2026-04-09T09:01:33Z</time></trkpt><trkpt lat="42.77956813699165" lon="2.971250384744073"><ele>5.0</ele><time>2026-04-09T09:01:34Z</time></trkpt><trkpt lat="42.779519754756116" lon="2.9709586157834"><ele>5.0</ele><time>2026-04-09T09:01:35Z</time></trkpt><trkpt lat="42.77947112296125" lon="2.970668972756723"><ele>5.0</ele><time>2026-04-09T09:01:36Z</time></trkpt><trkpt lat="42.779423340463396" lon="2.97037873500099"><ele>5.0</ele><time>2026-04-09T09:01:37Z</time></trkpt><trkpt lat="42.77937530385245" lon="2.9700915176892004"><ele>5.0</ele><time>2026-04-09T09:01:38Z</time></trkpt><trkpt lat="42.779326994686805" lon="2.9698059783909363"><ele>5.0</ele><time>2026-04-09T09:01:39Z</time></trkpt><trkpt lat="42.77927911616885" lon="2.969522388473301"><ele>5.0</ele><time>2026-04-09T09:01:40Z</time></trkpt><trkpt lat="42.779231363383" lon="2.969239094095736"><ele>5.0</ele><time>2026-04-09T09:01:41Z</time></trkpt><trkpt lat="42.77918366629638" lon="2.9689557465812606"><ele>5.0</ele><time>2026-04-09T09:01:42Z</time></trkpt><trkpt lat="42.77913713232316" lon="2.968673089840401"><ele>4.666666666666667</ele><time>2026-04-09T09:01:43Z</time></trkpt><trkpt lat="42.77909208392885" lon="2.9683927325926347"><ele>4.333333333333333</ele><time>2026-04-09T09:01:44Z</time></trkpt><trkpt lat="42.779045818580926" lon="2.968113597017331"><ele>4.0</ele><time>2026-04-09T09:01:45Z</time></trkpt><trkpt lat="42.77900074175097" lon="2.967833916220521"><ele>4.0</ele><time>2026-04-09T09:01:46Z</time></trkpt><trkpt lat="42.778954581287365" lon="2.967554509451525"><ele>4.0</ele><time>2026-04-09T09:01:47Z</time></trkpt><trkpt lat="42.778906979474634" lon="2.9672743720391104"><ele>4.0</ele><time>2026-04-09T09:01:48Z</time></trkpt><trkpt lat="42.778861223495845" lon="2.9669947331227426"><ele>4.0</ele><time>2026-04-09T09:01:49Z</time></trkpt><trkpt lat="42.778815168304774" lon="2.9667158416497768"><ele>4.0</ele><time>2026-04-09T09:01:50Z</time></trkpt><trkpt lat="42.77876971612024" lon="2.9664379178281473"><ele>4.0</ele><time>2026-04-09T09:01:51Z</time></trkpt><trkpt lat="42.77872495242671" lon="2.9661616043803423"><ele>4.0</ele><time>2026-04-09T09:01:52Z</time></trkpt><trkpt lat="42.77867862339406" lon="2.9658855792127605"><ele>4.0</ele><time>2026-04-09T09:01:53Z</time></trkpt><trkpt lat="42.77863200013574" lon="2.9656112994269948"><ele>4.0</ele><time>2026-04-09T09:01:54Z</time></trkpt><trkpt lat="42.7785861279183" lon="2.965337184643648"><ele>4.0</ele><time>2026-04-09T09:01:55Z</time></trkpt><trkpt lat="42.77854071434999" lon="2.9650626129826003"><ele>4.0</ele><time>2026-04-09T09:01:56Z</time></trkpt><trkpt lat="42.77849442342359" lon="2.9647873773709543"><ele>4.0</ele><time>2026-04-09T09:01:57Z</time></trkpt><trkpt lat="42.77844762118185" lon="2.9645116358006938"><ele>4.333333333333333</ele><time>2026-04-09T09:01:58Z</time></trkpt><trkpt lat="42.77840431913068" lon="2.964235460148884"><ele>4.666666666666667</ele><time>2026-04-09T09:01:59Z</time></trkpt><trkpt lat="42.77836032132686" lon="2.9639617183586977"><ele>5.0</ele><time>2026-04-09T09:02:00Z</time></trkpt><trkpt lat="42.77831598491705" lon="2.9636875128317364"><ele>5.0</ele><time>2026-04-09T09:02:01Z</time></trkpt><trkpt lat="42.77826959108673" lon="2.9634137430639607"><ele>5.0</ele><time>2026-04-09T09:02:02Z</time></trkpt><trkpt lat="42.778223451641466" lon="2.9631405114293203"><ele>5.0</ele><time>2026-04-09T09:02:03Z</time></trkpt><trkpt lat="42.778177589752744" lon="2.962864285042016"><ele>5.0</ele><time>2026-04-09T09:02:04Z</time></trkpt><trkpt lat="42.778129308773984" lon="2.962584712053009"><ele>5.0</ele><time>2026-04-09T09:02:05Z</time></trkpt><trkpt lat="42.778076781552365" lon="2.962303830415972"><ele>5.0</ele><time>2026-04-09T09:02:06Z</time></trkpt><trkpt lat="42.77802552994388" lon="2.9620187347664295"><ele>4.666666666666667</ele><time>2026-04-09T09:02:07Z</time></trkpt><trkpt lat="42.77797191328457" lon="2.961729175494565"><ele>4.333333333333333</ele><time>2026-04-09T09:02:08Z</time></trkpt><trkpt lat="42.77792013990166" lon="2.961436846381434"><ele>4.0</ele><time>2026-04-09T09:02:09Z</time></trkpt><trkpt lat="42.777868817568596" lon="2.961144107385012"><ele>4.0</ele><time>2026-04-09T09:02:10Z</time></trkpt><trkpt lat="42.77782172629067" lon="2.960849627725164"><ele>4.0</ele><time>2026-04-09T09:02:11Z</time></trkpt><trkpt lat="42.77777747766404" lon="2.960554052278961"><ele>4.0</ele><time>2026-04-09T09:02:12Z</time></trkpt><trkpt lat="42.777735826595794" lon="2.9602552139048783"><ele>4.0</ele><time>2026-04-09T09:02:13Z</time></trkpt><trkpt lat="42.777698737027826" lon="2.9599587242318943"><ele>4.0</ele><time>2026-04-09T09:02:14Z</time></trkpt><trkpt lat="42.777661583939334" lon="2.959658140928279"><ele>4.0</ele><time>2026-04-09T09:02:15Z</time></trkpt><trkpt lat="42.77762776780786" lon="2.9593589086526393"><ele>3.5</ele><time>2026-04-09T09:02:16Z</time></trkpt><trkpt lat="42.77759549449866" lon="2.959055970222414"><ele>3.0</ele><time>2026-04-09T09:02:17Z</time></trkpt><trkpt lat="42.77756673969367" lon="2.958750398186109"><ele>3.0</ele><time>2026-04-09T09:02:18Z</time></trkpt><trkpt lat="42.777539472330616" lon="2.958443676383138"><ele>3.0</ele><time>2026-04-09T09:02:19Z</time></trkpt><trkpt lat="42.77751394533754" lon="2.9581357156808834"><ele>4.0</ele><time>2026-04-09T09:02:20Z</time></trkpt><trkpt lat="42.777492980478556" lon="2.9578273017322863"><ele>5.0</ele><time>2026-04-09T09:02:21Z</time></trkpt><trkpt lat="42.777476885211655" lon="2.957516855305146"><ele>5.0</ele><time>2026-04-09T09:02:22Z</time></trkpt><trkpt lat="42.77746353848703" lon="2.9572074459796065"><ele>5.0</ele><time>2026-04-09T09:02:23Z</time></trkpt><trkpt lat="42.777452378903526" lon="2.9568973936913148"><ele>5.5</ele><time>2026-04-09T09:02:24Z</time></trkpt><trkpt lat="42.77743873452489" lon="2.9565870050469054"><ele>6.0</ele><time>2026-04-09T09:02:25Z</time></trkpt><trkpt lat="42.777426313836614" lon="2.956277243787076"><ele>6.0</ele><time>2026-04-09T09:02:26Z</time></trkpt><trkpt lat="42.777415599192025" lon="2.9559676376968853"><ele>6.0</ele><time>2026-04-09T09:02:27Z</time></trkpt><trkpt lat="42.77740983980816" lon="2.9556609539132483"><ele>6.0</ele><time>2026-04-09T09:02:28Z</time></trkpt><trkpt lat="42.77740773867493" lon="2.9553537244573445"><ele>6.0</ele><time>2026-04-09T09:02:29Z</time></trkpt><trkpt lat="42.777408225077714" lon="2.9550487996885475"><ele>6.0</ele><time>2026-04-09T09:02:30Z</time></trkpt><trkpt lat="42.77740966350769" lon="2.9547446265451778"><ele>5.666666666666667</ele><time>2026-04-09T09:02:31Z</time></trkpt><trkpt lat="42.7774110681419" lon="2.9544393340656456"><ele>5.333333333333334</ele><time>2026-04-09T09:02:32Z</time></trkpt><trkpt lat="42.777413080865095" lon="2.9541337986617253"><ele>5.0</ele><time>2026-04-09T09:02:33Z</time></trkpt><trkpt lat="42.777413700620016" lon="2.9538294611489557"><ele>5.0</ele><time>2026-04-09T09:02:34Z</time></trkpt><trkpt lat="42.77741357329098" lon="2.9535291278947455"><ele>5.0</ele><time>2026-04-09T09:02:35Z</time></trkpt><trkpt lat="42.77741564715763" lon="2.9532272790058385"><ele>5.0</ele><time>2026-04-09T09:02:36Z</time></trkpt><trkpt lat="42.77741642731143" lon="2.952926669991644"><ele>5.333333333333334</ele><time>2026-04-09T09:02:37Z</time></trkpt><trkpt lat="42.77741806482329" lon="2.9526279775371806"><ele>5.666666666666667</ele><time>2026-04-09T09:02:38Z</time></trkpt><trkpt lat="42.77741634718348" lon="2.95232985774022"><ele>6.0</ele><time>2026-04-09T09:02:39Z</time></trkpt><trkpt lat="42.77741607216099" lon="2.952031313886692"><ele>6.666666666666666</ele><time>2026-04-09T09:02:40Z</time></trkpt><trkpt lat="42.77741614267314" lon="2.9517338780417144"><ele>7.333333333333333</ele><time>2026-04-09T09:02:41Z</time></trkpt><trkpt lat="42.77741562948015" lon="2.951438026482864"><ele>8.0</ele><time>2026-04-09T09:02:42Z</time></trkpt><trkpt lat="42.777417668849395" lon="2.951141577972952"><ele>7.666666666666666</ele><time>2026-04-09T09:02:43Z</time></trkpt><trkpt lat="42.7774187638878" lon="2.950846077701971"><ele>7.333333333333334</ele><time>2026-04-09T09:02:44Z</time></trkpt><trkpt lat="42.777417295900705" lon="2.9505531472098943"><ele>7.0</ele><time>2026-04-09T09:02:45Z</time></trkpt><trkpt lat="42.7774193793038" lon="2.9502586622196447"><ele>7.0</ele><time>2026-04-09T09:02:46Z</time></trkpt><trkpt lat="42.77741775815059" lon="2.9499649565060886"><ele>7.0</ele><time>2026-04-09T09:02:47Z</time></trkpt><trkpt lat="42.777417873329895" lon="2.9496701816578086"><ele>7.0</ele><time>2026-04-09T09:02:48Z</time></trkpt><trkpt lat="42.77741918979857" lon="2.9493742988428893"><ele>7.0</ele><time>2026-04-09T09:02:49Z</time></trkpt><trkpt lat="42.77741938691619" lon="2.949075425063398"><ele>7.0</ele><time>2026-04-09T09:02:50Z</time></trkpt><trkpt lat="42.77742150895307" lon="2.9487767224259476"><ele>7.0</ele><time>2026-04-09T09:02:51Z</time></trkpt><trkpt lat="42.77742232156527" lon="2.9484761765723353"><ele>7.0</ele><time>2026-04-09T09:02:52Z</time></trkpt><trkpt lat="42.77742162517762" lon="2.9481753654319363"><ele>7.0</ele><time>2026-04-09T09:02:53Z</time></trkpt><trkpt lat="42.77742370236164" lon="2.9478751297546943"><ele>7.0</ele><time>2026-04-09T09:02:54Z</time></trkpt><trkpt lat="42.77742313968644" lon="2.9475731268203056"><ele>7.0</ele><time>2026-04-09T09:02:55Z</time></trkpt><trkpt lat="42.77742576968473" lon="2.9472698723977118"><ele>7.0</ele><time>2026-04-09T09:02:56Z</time></trkpt><trkpt lat="42.777424524049934" lon="2.9469683431433142"><ele>7.0</ele><time>2026-04-09T09:02:57Z</time></trkpt><trkpt lat="42.77742359184107" lon="2.9466693648425246"><ele>7.0</ele><time>2026-04-09T09:02:58Z</time></trkpt><trkpt lat="42.777422747984815" lon="2.9463673129432357"><ele>7.0</ele><time>2026-04-09T09:02:59Z</time></trkpt><trkpt lat="42.77742360357234" lon="2.946066340544226"><ele>7.0</ele><time>2026-04-09T09:03:00Z</time></trkpt><trkpt lat="42.777423680903965" lon="2.94576617730254"><ele>7.0</ele><time>2026-04-09T09:03:01Z</time></trkpt><trkpt lat="42.77742512207642" lon="2.945466604847677"><ele>7.0</ele><time>2026-04-09T09:03:02Z</time></trkpt><trkpt lat="42.77742668709728" lon="2.945164854144078"><ele>7.0</ele><time>2026-04-09T09:03:03Z</time></trkpt><trkpt lat="42.777427429922824" lon="2.944865830281581"><ele>7.0</ele><time>2026-04-09T09:03:04Z</time></trkpt><trkpt lat="42.77742932644324" lon="2.944569155542358"><ele>7.0</ele><time>2026-04-09T09:03:05Z</time></trkpt><trkpt lat="42.77743306070212" lon="2.9442716372612465"><ele>7.0</ele><time>2026-04-09T09:03:06Z</time></trkpt><trkpt lat="42.77744031817618" lon="2.9439746673338085"><ele>7.0</ele><time>2026-04-09T09:03:07Z</time></trkpt><trkpt lat="42.77744556501392" lon="2.9436765947332133"><ele>7.0</ele><time>2026-04-09T09:03:08Z</time></trkpt><trkpt lat="42.777450898649995" lon="2.943378959518247"><ele>7.0</ele><time>2026-04-09T09:03:09Z</time></trkpt><trkpt lat="42.77745328144685" lon="2.943081959405132"><ele>7.666666666666667</ele><time>2026-04-09T09:03:10Z</time></trkpt><trkpt lat="42.777453473082105" lon="2.942784005820461"><ele>8.333333333333334</ele><time>2026-04-09T09:03:11Z</time></trkpt><trkpt lat="42.777453571557" lon="2.9424873132106755"><ele>9.0</ele><time>2026-04-09T09:03:12Z</time></trkpt><trkpt lat="42.77745483188083" lon="2.942191115681528"><ele>9.333333333333334</ele><time>2026-04-09T09:03:13Z</time></trkpt><trkpt lat="42.77745560813889" lon="2.941893188545525"><ele>9.666666666666668</ele><time>2026-04-09T09:03:14Z</time></trkpt><trkpt lat="42.77745619869394" lon="2.9415971792765654"><ele>10.0</ele><time>2026-04-09T09:03:15Z</time></trkpt><trkpt lat="42.777456646043646" lon="2.941300169796073"><ele>10.0</ele><time>2026-04-09T09:03:16Z</time></trkpt><trkpt lat="42.777457082962336" lon="2.9410041634126523"><ele>10.0</ele><time>2026-04-09T09:03:17Z</time></trkpt><trkpt lat="42.77745782092596" lon="2.940708621838173"><ele>10.0</ele><time>2026-04-09T09:03:18Z</time></trkpt><trkpt lat="42.777459273777524" lon="2.940411843149935"><ele>9.666666666666668</ele><time>2026-04-09T09:03:19Z</time></trkpt><trkpt lat="42.77745994291918" lon="2.9401152636698935"><ele>9.333333333333334</ele><time>2026-04-09T09:03:20Z</time></trkpt><trkpt lat="42.7774613500244" lon="2.9398195426849014"><ele>9.0</ele><time>2026-04-09T09:03:21Z</time></trkpt><trkpt lat="42.77746301275258" lon="2.9395246262298325"><ele>9.0</ele><time>2026-04-09T09:03:22Z</time></trkpt><trkpt lat="42.77746293059579" lon="2.939228871266915"><ele>9.0</ele><time>2026-04-09T09:03:23Z</time></trkpt><trkpt lat="42.777464441519406" lon="2.938933839095502"><ele>9.0</ele><time>2026-04-09T09:03:24Z</time></trkpt><trkpt lat="42.77746612299841" lon="2.9386397045455293"><ele>9.666666666666666</ele><time>2026-04-09T09:03:25Z</time></trkpt><trkpt lat="42.777465943103266" lon="2.9383461935318844"><ele>10.333333333333332</ele><time>2026-04-09T09:03:26Z</time></trkpt><trkpt lat="42.77746660432809" lon="2.938052637558158"><ele>11.0</ele><time>2026-04-09T09:03:27Z</time></trkpt><trkpt lat="42.77746597887072" lon="2.937760711417801"><ele>11.0</ele><time>2026-04-09T09:03:28Z</time></trkpt><trkpt lat="42.77746739388985" lon="2.9374682453737497"><ele>11.0</ele><time>2026-04-09T09:03:29Z</time></trkpt><trkpt lat="42.777468615558796" lon="2.937175716042437"><ele>11.0</ele><time>2026-04-09T09:03:30Z</time></trkpt><trkpt lat="42.777470139443395" lon="2.9368840631698845"><ele>11.0</ele><time>2026-04-09T09:03:31Z</time></trkpt><trkpt lat="42.77747015192816" lon="2.936591593254526"><ele>11.0</ele><time>2026-04-09T09:03:32Z</time></trkpt><trkpt lat="42.777471099673605" lon="2.936300267107527"><ele>11.0</ele><time>2026-04-09T09:03:33Z</time></trkpt><trkpt lat="42.77747119966998" lon="2.9360049812370868"><ele>11.333333333333332</ele><time>2026-04-09T09:03:34Z</time></trkpt><trkpt lat="42.777472075392005" lon="2.935710923825481"><ele>11.666666666666666</ele><time>2026-04-09T09:03:35Z</time></trkpt><trkpt lat="42.77747248501298" lon="2.9354179624502597"><ele>12.0</ele><time>2026-04-09T09:03:36Z</time></trkpt><trkpt lat="42.777473279000645" lon="2.935124890131923"><ele>12.0</ele><time>2026-04-09T09:03:37Z</time></trkpt><trkpt lat="42.77747515808197" lon="2.9348300234039013"><ele>12.0</ele><time>2026-04-09T09:03:38Z</time></trkpt><trkpt lat="42.77747654439912" lon="2.9345340208658484"><ele>12.0</ele><time>2026-04-09T09:03:39Z</time></trkpt><trkpt lat="42.77747663330212" lon="2.93423870206442"><ele>12.0</ele><time>2026-04-09T09:03:40Z</time></trkpt><trkpt lat="42.777476216150085" lon="2.93394238558665"><ele>12.0</ele><time>2026-04-09T09:03:41Z</time></trkpt><trkpt lat="42.77747605980147" lon="2.933646264285359"><ele>12.0</ele><time>2026-04-09T09:03:42Z</time></trkpt><trkpt lat="42.77747709780102" lon="2.9333500764415383"><ele>12.333333333333332</ele><time>2026-04-09T09:03:43Z</time></trkpt><trkpt lat="42.77747829244664" lon="2.9330536369398783"><ele>12.666666666666666</ele><time>2026-04-09T09:03:44Z</time></trkpt><trkpt lat="42.777479104516" lon="2.9327566019236775"><ele>13.0</ele><time>2026-04-09T09:03:45Z</time></trkpt><trkpt lat="42.77747965851377" lon="2.932457622930007"><ele>13.333333333333332</ele><time>2026-04-09T09:03:46Z</time></trkpt><trkpt lat="42.77747981854187" lon="2.932159000511076"><ele>13.666666666666668</ele><time>2026-04-09T09:03:47Z</time></trkpt><trkpt lat="42.7774800701509" lon="2.9318584026812227"><ele>14.0</ele><time>2026-04-09T09:03:48Z</time></trkpt><trkpt lat="42.77748044934087" lon="2.931558236663367"><ele>14.0</ele><time>2026-04-09T09:03:49Z</time></trkpt><trkpt lat="42.777483220684154" lon="2.9312586538521077"><ele>14.0</ele><time>2026-04-09T09:03:50Z</time></trkpt><trkpt lat="42.77748537076992" lon="2.9309576547989993"><ele>14.0</ele><time>2026-04-09T09:03:51Z</time></trkpt><trkpt lat="42.77748726157429" lon="2.9306566586281733"><ele>14.0</ele><time>2026-04-09T09:03:52Z</time></trkpt><trkpt lat="42.77748735257536" lon="2.9303540264077585"><ele>14.0</ele><time>2026-04-09T09:03:53Z</time></trkpt><trkpt lat="42.777487493602514" lon="2.9300522672586435"><ele>14.0</ele><time>2026-04-09T09:03:54Z</time></trkpt><trkpt lat="42.77748783086582" lon="2.929751280112249"><ele>14.0</ele><time>2026-04-09T09:03:55Z</time></trkpt><trkpt lat="42.77748818345661" lon="2.9294492625062722"><ele>14.0</ele><time>2026-04-09T09:03:56Z</time></trkpt><trkpt lat="42.77748785594358" lon="2.929144377206897"><ele>14.0</ele><time>2026-04-09T09:03:57Z</time></trkpt><trkpt lat="42.777487833650845" lon="2.9288384655424236"><ele>14.0</ele><time>2026-04-09T09:03:58Z</time></trkpt><trkpt lat="42.777489796696344" lon="2.928531630327093"><ele>14.0</ele><time>2026-04-09T09:03:59Z</time></trkpt><trkpt lat="42.777482522338694" lon="2.928225780228227"><ele>14.0</ele><time>2026-04-09T09:04:00Z</time></trkpt><trkpt lat="42.77747528734091" lon="2.927919953336191"><ele>14.0</ele><time>2026-04-09T09:04:01Z</time></trkpt><trkpt lat="42.77746809456356" lon="2.927614974205768"><ele>14.0</ele><time>2026-04-09T09:04:02Z</time></trkpt><trkpt lat="42.7774656018947" lon="2.927307795857782"><ele>14.0</ele><time>2026-04-09T09:04:03Z</time></trkpt><trkpt lat="42.777464175571374" lon="2.926998699303404"><ele>14.0</ele><time>2026-04-09T09:04:04Z</time></trkpt><trkpt lat="42.777461923972034" lon="2.926689677299756"><ele>14.0</ele><time>2026-04-09T09:04:05Z</time></trkpt><trkpt lat="42.77746152871486" lon="2.9263797136228225"><ele>14.0</ele><time>2026-04-09T09:04:06Z</time></trkpt><trkpt lat="42.777462691436796" lon="2.9260673331927007"><ele>15.0</ele><time>2026-04-09T09:04:07Z</time></trkpt><trkpt lat="42.77746628167312" lon="2.9257550333269733"><ele>16.0</ele><time>2026-04-09T09:04:08Z</time></trkpt><trkpt lat="42.77747044451424" lon="2.92544224630645"><ele>16.0</ele><time>2026-04-09T09:04:09Z</time></trkpt><trkpt lat="42.777474240559485" lon="2.925129287674372"><ele>16.0</ele><time>2026-04-09T09:04:10Z</time></trkpt><trkpt lat="42.777483094659914" lon="2.924819151712326"><ele>16.0</ele><time>2026-04-09T09:04:11Z</time></trkpt><trkpt lat="42.777488987026395" lon="2.9245064783945875"><ele>16.0</ele><time>2026-04-09T09:04:12Z</time></trkpt><trkpt lat="42.777493983502254" lon="2.924193468015133"><ele>16.0</ele><time>2026-04-09T09:04:13Z</time></trkpt><trkpt lat="42.77749673773589" lon="2.923879993560836"><ele>16.0</ele><time>2026-04-09T09:04:14Z</time></trkpt><trkpt lat="42.77749837824979" lon="2.923567300835837"><ele>15.5</ele><time>2026-04-09T09:04:15Z</time></trkpt><trkpt lat="42.777497924793146" lon="2.9232546012413296"><ele>15.0</ele><time>2026-04-09T09:04:16Z</time></trkpt><trkpt lat="42.777497579517245" lon="2.9229427129485845"><ele>15.0</ele><time>2026-04-09T09:04:17Z</time></trkpt><trkpt lat="42.777499963602196" lon="2.9226300224470845"><ele>15.0</ele><time>2026-04-09T09:04:18Z</time></trkpt><trkpt lat="42.77750290265388" lon="2.9223166544745944"><ele>15.0</ele><time>2026-04-09T09:04:19Z</time></trkpt><trkpt lat="42.77750290928694" lon="2.922004617884741"><ele>15.0</ele><time>2026-04-09T09:04:20Z</time></trkpt><trkpt lat="42.777504040693316" lon="2.921692554947498"><ele>15.0</ele><time>2026-04-09T09:04:21Z</time></trkpt><trkpt lat="42.77750482224832" lon="2.921381539548427"><ele>15.0</ele><time>2026-04-09T09:04:22Z</time></trkpt><trkpt lat="42.77750480924115" lon="2.9210716384609365"><ele>15.5</ele><time>2026-04-09T09:04:23Z</time></trkpt><trkpt lat="42.777504970429426" lon="2.920761614583016"><ele>16.0</ele><time>2026-04-09T09:04:24Z</time></trkpt><trkpt lat="42.77750828013504" lon="2.920451120344079"><ele>16.0</ele><time>2026-04-09T09:04:25Z</time></trkpt><trkpt lat="42.77750933347206" lon="2.920141033198381"><ele>16.0</ele><time>2026-04-09T09:04:26Z</time></trkpt><trkpt lat="42.77750918120551" lon="2.9198317403237306"><ele>16.0</ele><time>2026-04-09T09:04:27Z</time></trkpt><trkpt lat="42.77750827846" lon="2.9195223357714113"><ele>16.0</ele><time>2026-04-09T09:04:28Z</time></trkpt><trkpt lat="42.77750873300515" lon="2.919212313649604"><ele>16.0</ele><time>2026-04-09T09:04:29Z</time></trkpt><trkpt lat="42.77750897096583" lon="2.9189024397092593"><ele>16.0</ele><time>2026-04-09T09:04:30Z</time></trkpt><trkpt lat="42.77750825161255" lon="2.9185957938406726"><ele>16.333333333333332</ele><time>2026-04-09T09:04:31Z</time></trkpt><trkpt lat="42.7775090663196" lon="2.9182890765106406"><ele>16.666666666666668</ele><time>2026-04-09T09:04:32Z</time></trkpt><trkpt lat="42.77750856912837" lon="2.917983790002144"><ele>17.0</ele><time>2026-04-09T09:04:33Z</time></trkpt><trkpt lat="42.777505175421965" lon="2.9176838002458347"><ele>17.333333333333336</ele><time>2026-04-09T09:04:34Z</time></trkpt><trkpt lat="42.777500330338235" lon="2.9173834926426556"><ele>17.666666666666668</ele><time>2026-04-09T09:04:35Z</time></trkpt><trkpt lat="42.77749432676966" lon="2.9170837354430215"><ele>18.0</ele><time>2026-04-09T09:04:36Z</time></trkpt><trkpt lat="42.777483823619114" lon="2.916786897722048"><ele>18.0</ele><time>2026-04-09T09:04:37Z</time></trkpt><trkpt lat="42.77747248190626" lon="2.9164902491052587"><ele>18.0</ele><time>2026-04-09T09:04:38Z</time></trkpt><trkpt lat="42.77746181906397" lon="2.9161976231186912"><ele>18.0</ele><time>2026-04-09T09:04:39Z</time></trkpt><trkpt lat="42.777454959584425" lon="2.915905986626598"><ele>18.0</ele><time>2026-04-09T09:04:40Z</time></trkpt><trkpt lat="42.77745254000739" lon="2.9156139985909277"><ele>18.0</ele><time>2026-04-09T09:04:41Z</time></trkpt><trkpt lat="42.77745531951183" lon="2.915325502113804"><ele>18.0</ele><time>2026-04-09T09:04:42Z</time></trkpt><trkpt lat="42.777453518975726" lon="2.9150309700528285"><ele>18.0</ele><time>2026-04-09T09:04:43Z</time></trkpt><trkpt lat="42.77746360060011" lon="2.9147397864443354"><ele>18.0</ele><time>2026-04-09T09:04:44Z</time></trkpt><trkpt lat="42.77747104971596" lon="2.9144498304436386"><ele>18.0</ele><time>2026-04-09T09:04:45Z</time></trkpt><trkpt lat="42.77747813097546" lon="2.9141604265213648"><ele>18.0</ele><time>2026-04-09T09:04:46Z</time></trkpt><trkpt lat="42.7774860639667" lon="2.91387133805759"><ele>18.0</ele><time>2026-04-09T09:04:47Z</time></trkpt><trkpt lat="42.77749234998656" lon="2.9135832450704813"><ele>18.0</ele><time>2026-04-09T09:04:48Z</time></trkpt><trkpt lat="42.77749787238358" lon="2.9132945766656815"><ele>18.0</ele><time>2026-04-09T09:04:49Z</time></trkpt><trkpt lat="42.77750588217233" lon="2.913005214736621"><ele>18.0</ele><time>2026-04-09T09:04:50Z</time></trkpt><trkpt lat="42.77751441339627" lon="2.912716556951681"><ele>18.0</ele><time>2026-04-09T09:04:51Z</time></trkpt><trkpt lat="42.77752286973594" lon="2.9124272490667478"><ele>18.0</ele><time>2026-04-09T09:04:52Z</time></trkpt><trkpt lat="42.77753303203183" lon="2.912137467606777"><ele>18.0</ele><time>2026-04-09T09:04:53Z</time></trkpt><trkpt lat="42.7775453152839" lon="2.9118491899439327"><ele>18.0</ele><time>2026-04-09T09:04:54Z</time></trkpt><trkpt lat="42.777563074917744" lon="2.911560960219038"><ele>18.0</ele><time>2026-04-09T09:04:55Z</time></trkpt><trkpt lat="42.77758016253749" lon="2.9112736241505135"><ele>18.0</ele><time>2026-04-09T09:04:56Z</time></trkpt><trkpt lat="42.77760292646895" lon="2.910985285014612"><ele>18.0</ele><time>2026-04-09T09:04:57Z</time></trkpt><trkpt lat="42.77763101520043" lon="2.9106976163461917"><ele>18.0</ele><time>2026-04-09T09:04:58Z</time></trkpt><trkpt lat="42.777660007833326" lon="2.9104100085323665"><ele>18.0</ele><time>2026-04-09T09:04:59Z</time></trkpt><trkpt lat="42.77769410568689" lon="2.910124322944661"><ele>18.0</ele><time>2026-04-09T09:05:00Z</time></trkpt><trkpt lat="42.777732760564184" lon="2.909844414532865"><ele>18.0</ele><time>2026-04-09T09:05:01Z</time></trkpt><trkpt lat="42.777775511282314" lon="2.9095721598291475"><ele>18.0</ele><time>2026-04-09T09:05:02Z</time></trkpt><trkpt lat="42.777821738099426" lon="2.909306848178977"><ele>18.0</ele><time>2026-04-09T09:05:03Z</time></trkpt><trkpt lat="42.77787240418073" lon="2.909050971190912"><ele>18.333333333333332</ele><time>2026-04-09T09:05:04Z</time></trkpt><trkpt lat="42.77792512803856" lon="2.908802143602811"><ele>18.666666666666664</ele><time>2026-04-09T09:05:05Z</time></trkpt><trkpt lat="42.77797927438648" lon="2.908555507548114"><ele>19.0</ele><time>2026-04-09T09:05:06Z</time></trkpt><trkpt lat="42.77803696293829" lon="2.9083061406028774"><ele>19.0</ele><time>2026-04-09T09:05:07Z</time></trkpt><trkpt lat="42.77809567799246" lon="2.9080546167285064"><ele>19.0</ele><time>2026-04-09T09:05:08Z</time></trkpt><trkpt lat="42.77815540607893" lon="2.90780410340929"><ele>19.0</ele><time>2026-04-09T09:05:09Z</time></trkpt><trkpt lat="42.77821097966741" lon="2.9075574069175616"><ele>18.333333333333332</ele><time>2026-04-09T09:05:10Z</time></trkpt><trkpt lat="42.778269169616394" lon="2.90731490503803"><ele>17.666666666666668</ele><time>2026-04-09T09:05:11Z</time></trkpt><trkpt lat="42.778329066823375" lon="2.907070914127835"><ele>17.0</ele><time>2026-04-09T09:05:12Z</time></trkpt><trkpt lat="42.778387599675334" lon="2.9068319753056393"><ele>17.333333333333336</ele><time>2026-04-09T09:05:13Z</time></trkpt><trkpt lat="42.778443720983965" lon="2.9065977284083093"><ele>17.666666666666668</ele><time>2026-04-09T09:05:14Z</time></trkpt><trkpt lat="42.77850038968639" lon="2.9063635906201344"><ele>18.0</ele><time>2026-04-09T09:05:15Z</time></trkpt><trkpt lat="42.778557989876845" lon="2.9061347092548235"><ele>19.0</ele><time>2026-04-09T09:05:16Z</time></trkpt><trkpt lat="42.77861198333664" lon="2.9059093950230093"><ele>20.0</ele><time>2026-04-09T09:05:17Z</time></trkpt><trkpt lat="42.77866650650052" lon="2.905685734231045"><ele>21.0</ele><time>2026-04-09T09:05:18Z</time></trkpt><trkpt lat="42.77872115720272" lon="2.9054608829689044"><ele>21.0</ele><time>2026-04-09T09:05:19Z</time></trkpt><trkpt lat="42.77877573263461" lon="2.905238212535749"><ele>21.0</ele><time>2026-04-09T09:05:20Z</time></trkpt><trkpt lat="42.77883034274959" lon="2.905015668890856"><ele>21.0</ele><time>2026-04-09T09:05:21Z</time></trkpt><trkpt lat="42.77888417518137" lon="2.9047965044537443"><ele>21.0</ele><time>2026-04-09T09:05:22Z</time></trkpt><trkpt lat="42.77893463434154" lon="2.904581790631866"><ele>21.0</ele><time>2026-04-09T09:05:23Z</time></trkpt><trkpt lat="42.77898346813467" lon="2.9043747138997347"><ele>21.0</ele><time>2026-04-09T09:05:24Z</time></trkpt><trkpt lat="42.779031677498125" lon="2.9041730068354763"><ele>21.333333333333332</ele><time>2026-04-09T09:05:25Z</time></trkpt><trkpt lat="42.77908001614859" lon="2.9039752696894445"><ele>21.666666666666664</ele><time>2026-04-09T09:05:26Z</time></trkpt><trkpt lat="42.77912877699727" lon="2.903777794721455"><ele>22.0</ele><time>2026-04-09T09:05:27Z</time></trkpt><trkpt lat="42.77917734918503" lon="2.9035817303031433"><ele>22.333333333333332</ele><time>2026-04-09T09:05:28Z</time></trkpt><trkpt lat="42.779225500061706" lon="2.9033887122191335"><ele>22.666666666666668</ele><time>2026-04-09T09:05:29Z</time></trkpt><trkpt lat="42.779275142942375" lon="2.903194821169479"><ele>23.0</ele><time>2026-04-09T09:05:30Z</time></trkpt><trkpt lat="42.7793272926739" lon="2.9030030457203413"><ele>23.0</ele><time>2026-04-09T09:05:31Z</time></trkpt><trkpt lat="42.77938105832933" lon="2.902812881099083"><ele>23.0</ele><time>2026-04-09T09:05:32Z</time></trkpt><trkpt lat="42.7794348820814" lon="2.902627615539171"><ele>23.0</ele><time>2026-04-09T09:05:33Z</time></trkpt><trkpt lat="42.779484912534976" lon="2.9024395563799796"><ele>23.0</ele><time>2026-04-09T09:05:34Z</time></trkpt><trkpt lat="42.77953157531962" lon="2.90225807832786"><ele>23.0</ele><time>2026-04-09T09:05:35Z</time></trkpt><trkpt lat="42.77957277193205" lon="2.902101079225547"><ele>23.0</ele><time>2026-04-09T09:05:36Z</time></trkpt><trkpt lat="42.77961031043446" lon="2.90195943110902"><ele>23.0</ele><time>2026-04-09T09:05:37Z</time></trkpt><trkpt lat="42.779646123739205" lon="2.9018229848272465"><ele>23.0</ele><time>2026-04-09T09:05:38Z</time></trkpt><trkpt lat="42.77968392081625" lon="2.9016838655559996"><ele>23.0</ele><time>2026-04-09T09:05:39Z</time></trkpt><trkpt lat="42.779721506070594" lon="2.9015395972272815"><ele>23.0</ele><time>2026-04-09T09:05:40Z</time></trkpt><trkpt lat="42.7797627458835" lon="2.901390396817255"><ele>23.0</ele><time>2026-04-09T09:05:41Z</time></trkpt><trkpt lat="42.77980793040821" lon="2.9012426070251403"><ele>23.0</ele><time>2026-04-09T09:05:42Z</time></trkpt><trkpt lat="42.7798595027185" lon="2.9010997914189627"><ele>23.0</ele><time>2026-04-09T09:05:43Z</time></trkpt><trkpt lat="42.77988599669565" lon="2.9009514894122477"><ele>22.4</ele><time>2026-04-09T09:05:44Z</time></trkpt><trkpt lat="42.77998812349335" lon="2.9008571697294427"><ele>21.799999999999997</ele><time>2026-04-09T09:05:45Z</time></trkpt><trkpt lat="42.78007401505762" lon="2.900768432291076"><ele>21.2</ele><time>2026-04-09T09:05:46Z</time></trkpt><trkpt lat="42.78017578491575" lon="2.9007103914545382"><ele>20.6</ele><time>2026-04-09T09:05:47Z</time></trkpt><trkpt lat="42.78027588724638" lon="2.900702386066705"><ele>20.0</ele><time>2026-04-09T09:05:48Z</time></trkpt><trkpt lat="42.780370951391006" lon="2.900736436265921"><ele>20.0</ele><time>2026-04-09T09:05:49Z</time></trkpt><trkpt lat="42.78045510189309" lon="2.9008155743393234"><ele>20.0</ele><time>2026-04-09T09:05:50Z</time></trkpt><trkpt lat="42.78051830835829" lon="2.9009171583225686"><ele>20.0</ele><time>2026-04-09T09:05:51Z</time></trkpt><trkpt lat="42.7805584964131" lon="2.901046099226873"><ele>20.0</ele><time>2026-04-09T09:05:52Z</time></trkpt><trkpt lat="42.780570697461" lon="2.9011839780706135"><ele>20.0</ele><time>2026-04-09T09:05:53Z</time></trkpt><trkpt lat="42.78055519300988" lon="2.9013267128995186"><ele>20.25</ele><time>2026-04-09T09:05:54Z</time></trkpt><trkpt lat="42.78050552041274" lon="2.9014596996817126"><ele>20.5</ele><time>2026-04-09T09:05:55Z</time></trkpt><trkpt lat="42.78044450578558" lon="2.9015906948418664"><ele>20.75</ele><time>2026-04-09T09:05:56Z</time></trkpt><trkpt lat="42.78037969418536" lon="2.901723878277691"><ele>21.0</ele><time>2026-04-09T09:05:57Z</time></trkpt><trkpt lat="42.780317789323455" lon="2.9018582626616736"><ele>21.0</ele><time>2026-04-09T09:05:58Z</time></trkpt><trkpt lat="42.78026333050253" lon="2.901986355043305"><ele>21.0</ele><time>2026-04-09T09:05:59Z</time></trkpt><trkpt lat="42.780226692732654" lon="2.902117264467301"><ele>21.0</ele><time>2026-04-09T09:06:00Z</time></trkpt><trkpt lat="42.78020802475337" lon="2.902245502538796"><ele>21.0</ele><time>2026-04-09T09:06:01Z</time></trkpt><trkpt lat="42.78019761520149" lon="2.9023724309726493"><ele>21.0</ele><time>2026-04-09T09:06:02Z</time></trkpt><trkpt lat="42.780197868377456" lon="2.9024948938468245"><ele>20.8</ele><time>2026-04-09T09:06:03Z</time></trkpt><trkpt lat="42.78021039408343" lon="2.902616010462471"><ele>20.6</ele><time>2026-04-09T09:06:04Z</time></trkpt><trkpt lat="42.78022108923258" lon="2.9027428167365694"><ele>20.4</ele><time>2026-04-09T09:06:05Z</time></trkpt><trkpt lat="42.780229965312465" lon="2.9028695391456356"><ele>20.2</ele><time>2026-04-09T09:06:06Z</time></trkpt><trkpt lat="42.780232359273185" lon="2.902993789567562"><ele>20.0</ele><time>2026-04-09T09:06:07Z</time></trkpt><trkpt lat="42.780209722834044" lon="2.9031154421948644"><ele>20.0</ele><time>2026-04-09T09:06:08Z</time></trkpt><trkpt lat="42.78016704236524" lon="2.903224683079339"><ele>20.0</ele><time>2026-04-09T09:06:09Z</time></trkpt><trkpt lat="42.780105505997824" lon="2.903313048955615"><ele>20.0</ele><time>2026-04-09T09:06:10Z</time></trkpt><trkpt lat="42.780026198722624" lon="2.903376757039231"><ele>20.0</ele><time>2026-04-09T09:06:11Z</time></trkpt><trkpt lat="42.77993540396281" lon="2.9034236218599068"><ele>20.0</ele><time>2026-04-09T09:06:12Z</time></trkpt><trkpt lat="42.779834329489155" lon="2.903450841951239"><ele>20.0</ele><time>2026-04-09T09:06:13Z</time></trkpt><trkpt lat="42.77972503075012" lon="2.9034454248794663"><ele>20.0</ele><time>2026-04-09T09:06:14Z</time></trkpt><trkpt lat="42.77961350654031" lon="2.9034205686233987"><ele>20.0</ele><time>2026-04-09T09:06:15Z</time></trkpt><trkpt lat="42.77949581699813" lon="2.9033888600901165"><ele>20.0</ele><time>2026-04-09T09:06:16Z</time></trkpt><trkpt lat="42.77937136234895" lon="2.903351621097225"><ele>20.75</ele><time>2026-04-09T09:06:17Z</time></trkpt><trkpt lat="42.77924112690327" lon="2.9033115678233994"><ele>21.5</ele><time>2026-04-09T09:06:18Z</time></trkpt><trkpt lat="42.779103277191766" lon="2.9032730762541488"><ele>22.25</ele><time>2026-04-09T09:06:19Z</time></trkpt><trkpt lat="42.77895979383223" lon="2.9032310805832715"><ele>23.0</ele><time>2026-04-09T09:06:20Z</time></trkpt><trkpt lat="42.778811876359214" lon="2.9031853635710254"><ele>23.0</ele><time>2026-04-09T09:06:21Z</time></trkpt><trkpt lat="42.778657681311984" lon="2.9031375061729428"><ele>23.0</ele><time>2026-04-09T09:06:22Z</time></trkpt><trkpt lat="42.778498339536085" lon="2.9030902757758543"><ele>23.0</ele><time>2026-04-09T09:06:23Z</time></trkpt><trkpt lat="42.77833481237939" lon="2.903041206989541"><ele>22.0</ele><time>2026-04-09T09:06:24Z</time></trkpt><trkpt lat="42.77816810069804" lon="2.902990978486146"><ele>21.0</ele><time>2026-04-09T09:06:25Z</time></trkpt><trkpt lat="42.777994986502826" lon="2.902941715606805"><ele>20.0</ele><time>2026-04-09T09:06:26Z</time></trkpt><trkpt lat="42.77781887820353" lon="2.9028915835407125"><ele>19.666666666666668</ele><time>2026-04-09T09:06:27Z</time></trkpt><trkpt lat="42.777636628690274" lon="2.902836343361722"><ele>19.333333333333332</ele><time>2026-04-09T09:06:28Z</time></trkpt><trkpt lat="42.77745022930877" lon="2.9027787834657426"><ele>19.0</ele><time>2026-04-09T09:06:29Z</time></trkpt><trkpt lat="42.777263821710946" lon="2.9027210430315034"><ele>19.0</ele><time>2026-04-09T09:06:30Z</time></trkpt><trkpt lat="42.777076619100875" lon="2.9026634981776227"><ele>19.0</ele><time>2026-04-09T09:06:31Z</time></trkpt><trkpt lat="42.77688427621291" lon="2.9026024487277398"><ele>19.0</ele><time>2026-04-09T09:06:32Z</time></trkpt><trkpt lat="42.77668945932987" lon="2.9025396126101475"><ele>18.333333333333332</ele><time>2026-04-09T09:06:33Z</time></trkpt><trkpt lat="42.77649280642062" lon="2.9024769925455587"><ele>17.666666666666668</ele><time>2026-04-09T09:06:34Z</time></trkpt><trkpt lat="42.776293013138584" lon="2.902411980854318"><ele>17.0</ele><time>2026-04-09T09:06:35Z</time></trkpt><trkpt lat="42.77609311189192" lon="2.9023483636901286"><ele>17.0</ele><time>2026-04-09T09:06:36Z</time></trkpt><trkpt lat="42.77589380138929" lon="2.9022850796072723"><ele>17.0</ele><time>2026-04-09T09:06:37Z</time></trkpt><trkpt lat="42.77569161753127" lon="2.9022207354693776"><ele>17.0</ele><time>2026-04-09T09:06:38Z</time></trkpt><trkpt lat="42.77549059451508" lon="2.902156845278943"><ele>17.0</ele><time>2026-04-09T09:06:39Z</time></trkpt><trkpt lat="42.77528678029462" lon="2.902092404888818"><ele>17.0</ele><time>2026-04-09T09:06:40Z</time></trkpt><trkpt lat="42.77508508603584" lon="2.9020310032118"><ele>17.0</ele><time>2026-04-09T09:06:41Z</time></trkpt><trkpt lat="42.77488678260548" lon="2.9019678160829594"><ele>17.0</ele><time>2026-04-09T09:06:42Z</time></trkpt><trkpt lat="42.77468964999547" lon="2.9019051644591025"><ele>17.0</ele><time>2026-04-09T09:06:43Z</time></trkpt><trkpt lat="42.77449567755822" lon="2.901845646334282"><ele>17.0</ele><time>2026-04-09T09:06:44Z</time></trkpt><trkpt lat="42.774303101766925" lon="2.9017872738782575"><ele>18.0</ele><time>2026-04-09T09:06:45Z</time></trkpt><trkpt lat="42.774110406400006" lon="2.9017260814734085"><ele>19.0</ele><time>2026-04-09T09:06:46Z</time></trkpt><trkpt lat="42.773919400892794" lon="2.901666751880862"><ele>20.0</ele><time>2026-04-09T09:06:47Z</time></trkpt><trkpt lat="42.77372950548622" lon="2.901607027123381"><ele>20.0</ele><time>2026-04-09T09:06:48Z</time></trkpt><trkpt lat="42.773538971871574" lon="2.901549786648429"><ele>20.0</ele><time>2026-04-09T09:06:49Z</time></trkpt><trkpt lat="42.77334981801726" lon="2.9014912941864566"><ele>20.0</ele><time>2026-04-09T09:06:50Z</time></trkpt><trkpt lat="42.77316274866282" lon="2.9014354148316777"><ele>19.666666666666668</ele><time>2026-04-09T09:06:51Z</time></trkpt><trkpt lat="42.77297594476546" lon="2.901377304497625"><ele>19.333333333333332</ele><time>2026-04-09T09:06:52Z</time></trkpt><trkpt lat="42.7727916233412" lon="2.901322353869303"><ele>19.0</ele><time>2026-04-09T09:06:53Z</time></trkpt><trkpt lat="42.7726070407922" lon="2.9012647888210066"><ele>17.666666666666664</ele><time>2026-04-09T09:06:54Z</time></trkpt><trkpt lat="42.77242230860468" lon="2.9012081407114194"><ele>16.333333333333332</ele><time>2026-04-09T09:06:55Z</time></trkpt><trkpt lat="42.772237375865075" lon="2.901151961494852"><ele>15.0</ele><time>2026-04-09T09:06:56Z</time></trkpt><trkpt lat="42.772053543786726" lon="2.9010939925216555"><ele>15.0</ele><time>2026-04-09T09:06:57Z</time></trkpt><trkpt lat="42.771874983614765" lon="2.901035019099027"><ele>15.0</ele><time>2026-04-09T09:06:58Z</time></trkpt><trkpt lat="42.771698840902964" lon="2.9009764331681334"><ele>15.0</ele><time>2026-04-09T09:06:59Z</time></trkpt><trkpt lat="42.77152287858721" lon="2.9009188903515186"><ele>16.333333333333332</ele><time>2026-04-09T09:07:00Z</time></trkpt><trkpt lat="42.77134509713745" lon="2.900865136323479"><ele>17.666666666666664</ele><time>2026-04-09T09:07:01Z</time></trkpt><trkpt lat="42.77116634530519" lon="2.9008088241608956"><ele>19.0</ele><time>2026-04-09T09:07:02Z</time></trkpt><trkpt lat="42.7709866310501" lon="2.9007554865816663"><ele>19.0</ele><time>2026-04-09T09:07:03Z</time></trkpt><trkpt lat="42.77080592472412" lon="2.900702445945166"><ele>19.0</ele><time>2026-04-09T09:07:04Z</time></trkpt><trkpt lat="42.77062301818195" lon="2.9006473404905524"><ele>19.0</ele><time>2026-04-09T09:07:05Z</time></trkpt><trkpt lat="42.77043994348797" lon="2.9005900739839707"><ele>19.0</ele><time>2026-04-09T09:07:06Z</time></trkpt><trkpt lat="42.770257642016496" lon="2.900533774401737"><ele>19.0</ele><time>2026-04-09T09:07:07Z</time></trkpt><trkpt lat="42.77007442690213" lon="2.9004777304955924"><ele>19.0</ele><time>2026-04-09T09:07:08Z</time></trkpt><trkpt lat="42.769893023375474" lon="2.900424504473424"><ele>18.666666666666664</ele><time>2026-04-09T09:07:09Z</time></trkpt><trkpt lat="42.769711124684164" lon="2.9003698315766626"><ele>18.333333333333332</ele><time>2026-04-09T09:07:10Z</time></trkpt><trkpt lat="42.769529440395964" lon="2.900316157473868"><ele>18.0</ele><time>2026-04-09T09:07:11Z</time></trkpt><trkpt lat="42.76934597381155" lon="2.900260088671805"><ele>18.0</ele><time>2026-04-09T09:07:12Z</time></trkpt><trkpt lat="42.76915827216967" lon="2.9002023016015954"><ele>18.0</ele><time>2026-04-09T09:07:13Z</time></trkpt><trkpt lat="42.768971682090516" lon="2.90014560008507"><ele>18.0</ele><time>2026-04-09T09:07:14Z</time></trkpt><trkpt lat="42.76878329887203" lon="2.900088429003659"><ele>18.0</ele><time>2026-04-09T09:07:15Z</time></trkpt><trkpt lat="42.76859427485345" lon="2.90003171565572"><ele>18.0</ele><time>2026-04-09T09:07:16Z</time></trkpt><trkpt lat="42.768403658033954" lon="2.8999731517856038"><ele>18.0</ele><time>2026-04-09T09:07:17Z</time></trkpt><trkpt lat="42.76821125920779" lon="2.8999145240298256"><ele>18.0</ele><time>2026-04-09T09:07:18Z</time></trkpt><trkpt lat="42.768018394683175" lon="2.8998556597166574"><ele>18.0</ele><time>2026-04-09T09:07:19Z</time></trkpt><trkpt lat="42.76782263753083" lon="2.899797616433142"><ele>18.0</ele><time>2026-04-09T09:07:20Z</time></trkpt><trkpt lat="42.76762533699085" lon="2.899737201422534"><ele>18.0</ele><time>2026-04-09T09:07:21Z</time></trkpt><trkpt lat="42.767426714596354" lon="2.899678882287378"><ele>18.0</ele><time>2026-04-09T09:07:22Z</time></trkpt><trkpt lat="42.76722617427097" lon="2.8996194336049617"><ele>18.0</ele><time>2026-04-09T09:07:23Z</time></trkpt><trkpt lat="42.767023496129774" lon="2.8995579575859245"><ele>18.333333333333332</ele><time>2026-04-09T09:07:24Z</time></trkpt><trkpt lat="42.7668199506918" lon="2.899499338581673"><ele>18.666666666666664</ele><time>2026-04-09T09:07:25Z</time></trkpt><trkpt lat="42.76661662525861" lon="2.899438240512039"><ele>19.0</ele><time>2026-04-09T09:07:26Z</time></trkpt><trkpt lat="42.766413016107464" lon="2.8993769347978406"><ele>19.0</ele><time>2026-04-09T09:07:27Z</time></trkpt><trkpt lat="42.76621041713838" lon="2.8993176109977625"><ele>19.0</ele><time>2026-04-09T09:07:28Z</time></trkpt><trkpt lat="42.76600747728161" lon="2.8992598298299663"><ele>19.0</ele><time>2026-04-09T09:07:29Z</time></trkpt><trkpt lat="42.76580292326374" lon="2.8991972370763768"><ele>18.666666666666664</ele><time>2026-04-09T09:07:30Z</time></trkpt><trkpt lat="42.76559998212656" lon="2.8991351841485553"><ele>18.333333333333332</ele><time>2026-04-09T09:07:31Z</time></trkpt><trkpt lat="42.76539927700957" lon="2.899075338805019"><ele>18.0</ele><time>2026-04-09T09:07:32Z</time></trkpt><trkpt lat="42.76519850749095" lon="2.8990161029396027"><ele>17.333333333333332</ele><time>2026-04-09T09:07:33Z</time></trkpt><trkpt lat="42.76499864641555" lon="2.898957785406721"><ele>16.666666666666664</ele><time>2026-04-09T09:07:34Z</time></trkpt><trkpt lat="42.76479917837343" lon="2.898900792654596"><ele>16.0</ele><time>2026-04-09T09:07:35Z</time></trkpt><trkpt lat="42.764600917616946" lon="2.8988450217943904"><ele>16.0</ele><time>2026-04-09T09:07:36Z</time></trkpt><trkpt lat="42.76440106988205" lon="2.8987849482269716"><ele>16.0</ele><time>2026-04-09T09:07:37Z</time></trkpt><trkpt lat="42.76420193423873" lon="2.898726299031347"><ele>16.0</ele><time>2026-04-09T09:07:38Z</time></trkpt><trkpt lat="42.76400525426481" lon="2.8986671177147145"><ele>16.0</ele><time>2026-04-09T09:07:39Z</time></trkpt><trkpt lat="42.763810391731475" lon="2.898607269792952"><ele>16.0</ele><time>2026-04-09T09:07:40Z</time></trkpt><trkpt lat="42.76361550528236" lon="2.898550750579752"><ele>16.0</ele><time>2026-04-09T09:07:41Z</time></trkpt><trkpt lat="42.76342162253717" lon="2.8984914727092796"><ele>16.0</ele><time>2026-04-09T09:07:42Z</time></trkpt><trkpt lat="42.76322648025231" lon="2.898430673286321"><ele>16.0</ele><time>2026-04-09T09:07:43Z</time></trkpt><trkpt lat="42.763033684452985" lon="2.898376606406341"><ele>16.0</ele><time>2026-04-09T09:07:44Z</time></trkpt><trkpt lat="42.76283382519384" lon="2.898321639774857"><ele>16.0</ele><time>2026-04-09T09:07:45Z</time></trkpt><trkpt lat="42.762636128305516" lon="2.8982625076125035"><ele>16.0</ele><time>2026-04-09T09:07:46Z</time></trkpt><trkpt lat="42.762438888506075" lon="2.8982012857365436"><ele>16.0</ele><time>2026-04-09T09:07:47Z</time></trkpt><trkpt lat="42.76224215280576" lon="2.8981427041629884"><ele>16.0</ele><time>2026-04-09T09:07:48Z</time></trkpt><trkpt lat="42.7620444705914" lon="2.8980833893556333"><ele>16.0</ele><time>2026-04-09T09:07:49Z</time></trkpt><trkpt lat="42.761844142751016" lon="2.8980238145416517"><ele>16.0</ele><time>2026-04-09T09:07:50Z</time></trkpt><trkpt lat="42.7616456884859" lon="2.8979660774106106"><ele>16.0</ele><time>2026-04-09T09:07:51Z</time></trkpt><trkpt lat="42.761446584196634" lon="2.897909760138557"><ele>16.0</ele><time>2026-04-09T09:07:52Z</time></trkpt><trkpt lat="42.76123950507624" lon="2.8978503894820764"><ele>16.0</ele><time>2026-04-09T09:07:53Z</time></trkpt><trkpt lat="42.76102288830277" lon="2.897796870584934"><ele>15.5</ele><time>2026-04-09T09:07:54Z</time></trkpt><trkpt lat="42.7608025839193" lon="2.8977463667472763"><ele>15.0</ele><time>2026-04-09T09:07:55Z</time></trkpt><trkpt lat="42.76057777432441" lon="2.897690387303358"><ele>15.0</ele><time>2026-04-09T09:07:56Z</time></trkpt><trkpt lat="42.760352350407835" lon="2.897621243579039"><ele>15.0</ele><time>2026-04-09T09:07:57Z</time></trkpt><trkpt lat="42.76011591448806" lon="2.8975529491395657"><ele>15.5</ele><time>2026-04-09T09:07:58Z</time></trkpt><trkpt lat="42.75987833021115" lon="2.8974809649281954"><ele>16.0</ele><time>2026-04-09T09:07:59Z</time></trkpt><trkpt lat="42.75963712229748" lon="2.8974086578626106"><ele>16.0</ele><time>2026-04-09T09:08:00Z</time></trkpt><trkpt lat="42.759393733150446" lon="2.8973372311766137"><ele>16.0</ele><time>2026-04-09T09:08:01Z</time></trkpt><trkpt lat="42.75914724710796" lon="2.8972620401696543"><ele>16.0</ele><time>2026-04-09T09:08:02Z</time></trkpt><trkpt lat="42.75889840482343" lon="2.897188635036867"><ele>16.0</ele><time>2026-04-09T09:08:03Z</time></trkpt><trkpt lat="42.758650066915344" lon="2.897114661054018"><ele>15.5</ele><time>2026-04-09T09:08:04Z</time></trkpt><trkpt lat="42.75839965830792" lon="2.8970404524475395"><ele>15.0</ele><time>2026-04-09T09:08:05Z</time></trkpt><trkpt lat="42.75814878829107" lon="2.8969660400984707"><ele>15.0</ele><time>2026-04-09T09:08:06Z</time></trkpt><trkpt lat="42.75789613888713" lon="2.896889136547873"><ele>15.0</ele><time>2026-04-09T09:08:07Z</time></trkpt><trkpt lat="42.75764558345813" lon="2.8968156799998663"><ele>15.5</ele><time>2026-04-09T09:08:08Z</time></trkpt><trkpt lat="42.75739337231859" lon="2.8967457366502023"><ele>16.0</ele><time>2026-04-09T09:08:09Z</time></trkpt><trkpt lat="42.757142623610044" lon="2.8966756246324445"><ele>16.0</ele><time>2026-04-09T09:08:10Z</time></trkpt><trkpt lat="42.756891427298285" lon="2.8966109770726494"><ele>16.0</ele><time>2026-04-09T09:08:11Z</time></trkpt><trkpt lat="42.75663798673873" lon="2.8965449785253896"><ele>16.0</ele><time>2026-04-09T09:08:12Z</time></trkpt><trkpt lat="42.75638406559426" lon="2.8964789252776217"><ele>16.0</ele><time>2026-04-09T09:08:13Z</time></trkpt><trkpt lat="42.75612726777342" lon="2.8964101175883186"><ele>16.5</ele><time>2026-04-09T09:08:14Z</time></trkpt><trkpt lat="42.75586986191186" lon="2.8963430419541765"><ele>17.0</ele><time>2026-04-09T09:08:15Z</time></trkpt><trkpt lat="42.755615099649006" lon="2.896277032777765"><ele>17.0</ele><time>2026-04-09T09:08:16Z</time></trkpt><trkpt lat="42.75536271934237" lon="2.8962134469643273"><ele>17.0</ele><time>2026-04-09T09:08:17Z</time></trkpt><trkpt lat="42.75511087942966" lon="2.8961498091430093"><ele>17.0</ele><time>2026-04-09T09:08:18Z</time></trkpt><trkpt lat="42.75486262258428" lon="2.8960850291008806"><ele>17.0</ele><time>2026-04-09T09:08:19Z</time></trkpt><trkpt lat="42.75461470738411" lon="2.89601692795017"><ele>17.0</ele><time>2026-04-09T09:08:20Z</time></trkpt><trkpt lat="42.75437053187538" lon="2.895951229588928"><ele>17.0</ele><time>2026-04-09T09:08:21Z</time></trkpt><trkpt lat="42.754126449303634" lon="2.8958845824099835"><ele>17.5</ele><time>2026-04-09T09:08:22Z</time></trkpt><trkpt lat="42.75388471632775" lon="2.8958180567891225"><ele>18.0</ele><time>2026-04-09T09:08:23Z</time></trkpt><trkpt lat="42.75364707768618" lon="2.8957530166798295"><ele>20.0</ele><time>2026-04-09T09:08:24Z</time></trkpt><trkpt lat="42.75341300978601" lon="2.8956855782626367"><ele>22.0</ele><time>2026-04-09T09:08:25Z</time></trkpt><trkpt lat="42.75318477072247" lon="2.895623087401071"><ele>22.0</ele><time>2026-04-09T09:08:26Z</time></trkpt><trkpt lat="42.75295738911536" lon="2.8955585245711184"><ele>22.0</ele><time>2026-04-09T09:08:27Z</time></trkpt><trkpt lat="42.752731221647025" lon="2.895492775183794"><ele>24.0</ele><time>2026-04-09T09:08:28Z</time></trkpt><trkpt lat="42.75250423365689" lon="2.8954289885724114"><ele>26.0</ele><time>2026-04-09T09:08:29Z</time></trkpt><trkpt lat="42.75227948808601" lon="2.895366227758939"><ele>26.0</ele><time>2026-04-09T09:08:30Z</time></trkpt><trkpt lat="42.75205799362046" lon="2.8953043661467475"><ele>26.0</ele><time>2026-04-09T09:08:31Z</time></trkpt><trkpt lat="42.751840650575915" lon="2.895244546102496"><ele>26.0</ele><time>2026-04-09T09:08:32Z</time></trkpt><trkpt lat="42.751631376890664" lon="2.8951868096052973"><ele>26.0</ele><time>2026-04-09T09:08:33Z</time></trkpt><trkpt lat="42.75142612233845" lon="2.8951272855871664"><ele>26.0</ele><time>2026-04-09T09:08:34Z</time></trkpt><trkpt lat="42.751224279107625" lon="2.8950688833690603"><ele>26.0</ele><time>2026-04-09T09:08:35Z</time></trkpt><trkpt lat="42.751028910635384" lon="2.8950116447559875"><ele>26.0</ele><time>2026-04-09T09:08:36Z</time></trkpt><trkpt lat="42.75065197602174" lon="2.894903934839747"><ele>26.0</ele><time>2026-04-09T09:08:38Z</time></trkpt><trkpt lat="42.750472114441706" lon="2.8948529298214747"><ele>26.0</ele><time>2026-04-09T09:08:39Z</time></trkpt><trkpt lat="42.75029266692786" lon="2.8948007589029663"><ele>26.0</ele><time>2026-04-09T09:08:40Z</time></trkpt><trkpt lat="42.75011137499265" lon="2.8947490930132624"><ele>26.0</ele><time>2026-04-09T09:08:41Z</time></trkpt><trkpt lat="42.74992903584695" lon="2.8946974964560144"><ele>26.0</ele><time>2026-04-09T09:08:42Z</time></trkpt><trkpt lat="42.7497458005904" lon="2.894644933408209"><ele>26.0</ele><time>2026-04-09T09:08:43Z</time></trkpt><trkpt lat="42.749559191531404" lon="2.8945901344146017"><ele>26.0</ele><time>2026-04-09T09:08:44Z</time></trkpt><trkpt lat="42.749367827080256" lon="2.894533507633176"><ele>26.0</ele><time>2026-04-09T09:08:45Z</time></trkpt><trkpt lat="42.74917363982959" lon="2.8944759112445038"><ele>26.0</ele><time>2026-04-09T09:08:46Z</time></trkpt><trkpt lat="42.748977574994434" lon="2.894416132306007"><ele>26.0</ele><time>2026-04-09T09:08:47Z</time></trkpt><trkpt lat="42.74877721188791" lon="2.8943568662512287"><ele>26.0</ele><time>2026-04-09T09:08:48Z</time></trkpt><trkpt lat="42.74857311506589" lon="2.8942957816933697"><ele>26.0</ele><time>2026-04-09T09:08:49Z</time></trkpt><trkpt lat="42.74836760983272" lon="2.8942362893358213"><ele>26.0</ele><time>2026-04-09T09:08:50Z</time></trkpt><trkpt lat="42.74816538295362" lon="2.894180216421423"><ele>25.0</ele><time>2026-04-09T09:08:51Z</time></trkpt><trkpt lat="42.7479638737436" lon="2.8941225326917763"><ele>24.0</ele><time>2026-04-09T09:08:52Z</time></trkpt><trkpt lat="42.747765317332394" lon="2.8940664417593966"><ele>23.0</ele><time>2026-04-09T09:08:53Z</time></trkpt><trkpt lat="42.74756721542418" lon="2.8940135812901855"><ele>22.333333333333336</ele><time>2026-04-09T09:08:54Z</time></trkpt><trkpt lat="42.747364896889884" lon="2.893955626413566"><ele>21.666666666666668</ele><time>2026-04-09T09:08:55Z</time></trkpt><trkpt lat="42.747161887725426" lon="2.893897602042374"><ele>21.0</ele><time>2026-04-09T09:08:56Z</time></trkpt><trkpt lat="42.7469553796896" lon="2.8938370690933466"><ele>21.666666666666668</ele><time>2026-04-09T09:08:57Z</time></trkpt><trkpt lat="42.74674535124914" lon="2.8937759722373007"><ele>22.333333333333336</ele><time>2026-04-09T09:08:58Z</time></trkpt><trkpt lat="42.74653470737444" lon="2.893708658155262"><ele>23.0</ele><time>2026-04-09T09:08:59Z</time></trkpt><trkpt lat="42.74632501027723" lon="2.893634403245177"><ele>23.0</ele><time>2026-04-09T09:09:00Z</time></trkpt><trkpt lat="42.74611496257244" lon="2.893549276362955"><ele>23.0</ele><time>2026-04-09T09:09:01Z</time></trkpt><trkpt lat="42.74590577005337" lon="2.893451846890126"><ele>23.0</ele><time>2026-04-09T09:09:02Z</time></trkpt><trkpt lat="42.74570048967441" lon="2.893337243626237"><ele>23.666666666666668</ele><time>2026-04-09T09:09:03Z</time></trkpt><trkpt lat="42.74550283883618" lon="2.893207017768788"><ele>24.333333333333336</ele><time>2026-04-09T09:09:04Z</time></trkpt><trkpt lat="42.74531081734743" lon="2.893065890589741"><ele>25.0</ele><time>2026-04-09T09:09:05Z</time></trkpt><trkpt lat="42.74512139162001" lon="2.8929140458490137"><ele>25.333333333333336</ele><time>2026-04-09T09:09:06Z</time></trkpt><trkpt lat="42.74493866866526" lon="2.89274844581137"><ele>25.666666666666664</ele><time>2026-04-09T09:09:07Z</time></trkpt><trkpt lat="42.744768174242665" lon="2.892571777354254"><ele>26.0</ele><time>2026-04-09T09:09:08Z</time></trkpt><trkpt lat="42.744598481608925" lon="2.892378360203736"><ele>26.0</ele><time>2026-04-09T09:09:09Z</time></trkpt><trkpt lat="42.7444337720316" lon="2.892176659878253"><ele>26.0</ele><time>2026-04-09T09:09:10Z</time></trkpt><trkpt lat="42.7442751170063" lon="2.8919635705022957"><ele>26.0</ele><time>2026-04-09T09:09:11Z</time></trkpt><trkpt lat="42.74412268575329" lon="2.8917366285389057"><ele>26.0</ele><time>2026-04-09T09:09:12Z</time></trkpt><trkpt lat="42.7439740812214" lon="2.8915013011387343"><ele>26.0</ele><time>2026-04-09T09:09:13Z</time></trkpt><trkpt lat="42.74382710986048" lon="2.891261074354"><ele>26.0</ele><time>2026-04-09T09:09:14Z</time></trkpt><trkpt lat="42.74367780244692" lon="2.891018168256061"><ele>26.0</ele><time>2026-04-09T09:09:15Z</time></trkpt><trkpt lat="42.74352438435502" lon="2.8907753243486622"><ele>26.0</ele><time>2026-04-09T09:09:16Z</time></trkpt><trkpt lat="42.743365283000486" lon="2.8905397421908963"><ele>26.0</ele><time>2026-04-09T09:09:17Z</time></trkpt><trkpt lat="42.74319909208735" lon="2.890316084484457"><ele>26.0</ele><time>2026-04-09T09:09:18Z</time></trkpt><trkpt lat="42.74302400179602" lon="2.8901067734453334"><ele>26.0</ele><time>2026-04-09T09:09:19Z</time></trkpt><trkpt lat="42.74284362367596" lon="2.889907767093578"><ele>27.0</ele><time>2026-04-09T09:09:20Z</time></trkpt><trkpt lat="42.74265548096968" lon="2.889721079957263"><ele>28.0</ele><time>2026-04-09T09:09:21Z</time></trkpt><trkpt lat="42.74245895610544" lon="2.8895487251546745"><ele>28.0</ele><time>2026-04-09T09:09:22Z</time></trkpt><trkpt lat="42.74225586219099" lon="2.889383299266222"><ele>28.0</ele><time>2026-04-09T09:09:23Z</time></trkpt><trkpt lat="42.74205192781164" lon="2.8892292515821274"><ele>28.0</ele><time>2026-04-09T09:09:24Z</time></trkpt><trkpt lat="42.741846432051645" lon="2.8890774570387667"><ele>28.0</ele><time>2026-04-09T09:09:25Z</time></trkpt><trkpt lat="42.74164096557099" lon="2.88892261557667"><ele>28.0</ele><time>2026-04-09T09:09:26Z</time></trkpt><trkpt lat="42.741436313587414" lon="2.8887690510466504"><ele>28.0</ele><time>2026-04-09T09:09:27Z</time></trkpt><trkpt lat="42.74123157363795" lon="2.888612882459888"><ele>28.0</ele><time>2026-04-09T09:09:28Z</time></trkpt><trkpt lat="42.74103036983941" lon="2.8884596920346715"><ele>28.0</ele><time>2026-04-09T09:09:29Z</time></trkpt><trkpt lat="42.74082700555638" lon="2.888307121927058"><ele>28.0</ele><time>2026-04-09T09:09:30Z</time></trkpt><trkpt lat="42.74062759600904" lon="2.88815488814592"><ele>28.0</ele><time>2026-04-09T09:09:31Z</time></trkpt><trkpt lat="42.74043301317912" lon="2.8880057625658395"><ele>28.0</ele><time>2026-04-09T09:09:32Z</time></trkpt><trkpt lat="42.74024092385962" lon="2.887857777156843"><ele>28.0</ele><time>2026-04-09T09:09:33Z</time></trkpt><trkpt lat="42.74004600055931" lon="2.8877122499452046"><ele>28.0</ele><time>2026-04-09T09:09:34Z</time></trkpt><trkpt lat="42.73985012296914" lon="2.8875626588971275"><ele>29.0</ele><time>2026-04-09T09:09:35Z</time></trkpt><trkpt lat="42.73965386929732" lon="2.8874160444065584"><ele>30.0</ele><time>2026-04-09T09:09:36Z</time></trkpt><trkpt lat="42.739454436489886" lon="2.8872676578323424"><ele>30.0</ele><time>2026-04-09T09:09:37Z</time></trkpt><trkpt lat="42.73925604403734" lon="2.887117054388113"><ele>30.0</ele><time>2026-04-09T09:09:38Z</time></trkpt><trkpt lat="42.73906033044323" lon="2.8869705735805264"><ele>30.0</ele><time>2026-04-09T09:09:39Z</time></trkpt><trkpt lat="42.738867262526504" lon="2.886824885742212"><ele>30.0</ele><time>2026-04-09T09:09:40Z</time></trkpt><trkpt lat="42.738675614936" lon="2.886682499517172"><ele>30.0</ele><time>2026-04-09T09:09:41Z</time></trkpt><trkpt lat="42.7384854480605" lon="2.8865414426251927"><ele>29.666666666666664</ele><time>2026-04-09T09:09:42Z</time></trkpt><trkpt lat="42.738296141364266" lon="2.886401243518498"><ele>29.333333333333332</ele><time>2026-04-09T09:09:43Z</time></trkpt><trkpt lat="42.7381039552664" lon="2.8862621625734546"><ele>29.0</ele><time>2026-04-09T09:09:44Z</time></trkpt><trkpt lat="42.737909617402366" lon="2.886122117819779"><ele>29.0</ele><time>2026-04-09T09:09:45Z</time></trkpt><trkpt lat="42.73771181814983" lon="2.8859838571155834"><ele>29.0</ele><time>2026-04-09T09:09:46Z</time></trkpt><trkpt lat="42.73750845562825" lon="2.8858419291233894"><ele>29.0</ele><time>2026-04-09T09:09:47Z</time></trkpt><trkpt lat="42.73730204062023" lon="2.885694126932063"><ele>29.0</ele><time>2026-04-09T09:09:48Z</time></trkpt><trkpt lat="42.737092532956055" lon="2.8855496363069215"><ele>28.5</ele><time>2026-04-09T09:09:49Z</time></trkpt><trkpt lat="42.736877515264396" lon="2.8854047367636317"><ele>28.0</ele><time>2026-04-09T09:09:50Z</time></trkpt><trkpt lat="42.73666278362284" lon="2.8852597160206197"><ele>28.0</ele><time>2026-04-09T09:09:51Z</time></trkpt><trkpt lat="42.73644424434834" lon="2.885115418181943"><ele>28.0</ele><time>2026-04-09T09:09:52Z</time></trkpt><trkpt lat="42.736223751487586" lon="2.884969609161109"><ele>28.5</ele><time>2026-04-09T09:09:53Z</time></trkpt><trkpt lat="42.73600196397806" lon="2.884828114412815"><ele>29.0</ele><time>2026-04-09T09:09:54Z</time></trkpt><trkpt lat="42.73577996900844" lon="2.8846853805511565"><ele>29.0</ele><time>2026-04-09T09:09:55Z</time></trkpt><trkpt lat="42.73555539984509" lon="2.8845449451440928"><ele>29.0</ele><time>2026-04-09T09:09:56Z</time></trkpt><trkpt lat="42.73533324066401" lon="2.884406502927783"><ele>29.5</ele><time>2026-04-09T09:09:57Z</time></trkpt><trkpt lat="42.73510753928275" lon="2.8842677374849917"><ele>30.0</ele><time>2026-04-09T09:09:58Z</time></trkpt><trkpt lat="42.7348821267274" lon="2.8841258030431693"><ele>30.5</ele><time>2026-04-09T09:09:59Z</time></trkpt><trkpt lat="42.734653487110194" lon="2.883986692525156"><ele>31.0</ele><time>2026-04-09T09:10:00Z</time></trkpt><trkpt lat="42.73442072365399" lon="2.8838472173165655"><ele>30.0</ele><time>2026-04-09T09:10:01Z</time></trkpt><trkpt lat="42.73418907106871" lon="2.8837092206719177"><ele>29.0</ele><time>2026-04-09T09:10:02Z</time></trkpt><trkpt lat="42.73395688420987" lon="2.8835705166011496"><ele>29.0</ele><time>2026-04-09T09:10:03Z</time></trkpt><trkpt lat="42.733726769558366" lon="2.8834333211102994"><ele>29.0</ele><time>2026-04-09T09:10:04Z</time></trkpt><trkpt lat="42.73349367033219" lon="2.883292360171063"><ele>29.5</ele><time>2026-04-09T09:10:05Z</time></trkpt><trkpt lat="42.7332638199365" lon="2.8831552492387176"><ele>30.0</ele><time>2026-04-09T09:10:06Z</time></trkpt><trkpt lat="42.73303518802504" lon="2.883015393761216"><ele>30.0</ele><time>2026-04-09T09:10:07Z</time></trkpt><trkpt lat="42.73280937605479" lon="2.88287407051268"><ele>30.0</ele><time>2026-04-09T09:10:08Z</time></trkpt><trkpt lat="42.73258596371299" lon="2.882731185888976"><ele>30.0</ele><time>2026-04-09T09:10:09Z</time></trkpt><trkpt lat="42.73236234077742" lon="2.8825885124238058"><ele>30.0</ele><time>2026-04-09T09:10:10Z</time></trkpt><trkpt lat="42.732138178017806" lon="2.8824505481221787"><ele>30.0</ele><time>2026-04-09T09:10:11Z</time></trkpt><trkpt lat="42.73191827212963" lon="2.882311372539281"><ele>30.0</ele><time>2026-04-09T09:10:12Z</time></trkpt><trkpt lat="42.7316940193106" lon="2.882173050211841"><ele>30.5</ele><time>2026-04-09T09:10:13Z</time></trkpt><trkpt lat="42.73147114135233" lon="2.8820363325790033"><ele>31.0</ele><time>2026-04-09T09:10:14Z</time></trkpt><trkpt lat="42.73124686671368" lon="2.8818975885587683"><ele>32.0</ele><time>2026-04-09T09:10:15Z</time></trkpt><trkpt lat="42.731020468441514" lon="2.881754599185871"><ele>33.0</ele><time>2026-04-09T09:10:16Z</time></trkpt><trkpt lat="42.730796953092565" lon="2.88161271144971"><ele>33.0</ele><time>2026-04-09T09:10:17Z</time></trkpt><trkpt lat="42.73057218015753" lon="2.8814684278946228"><ele>33.0</ele><time>2026-04-09T09:10:18Z</time></trkpt><trkpt lat="42.73034765152972" lon="2.8813203505682323"><ele>33.0</ele><time>2026-04-09T09:10:19Z</time></trkpt><trkpt lat="42.73012063980172" lon="2.881170501992309"><ele>33.0</ele><time>2026-04-09T09:10:20Z</time></trkpt><trkpt lat="42.72989256412946" lon="2.8810166194313798"><ele>32.5</ele><time>2026-04-09T09:10:21Z</time></trkpt><trkpt lat="42.729667407422184" lon="2.8808644548235662"><ele>32.0</ele><time>2026-04-09T09:10:22Z</time></trkpt><trkpt lat="42.72944132951733" lon="2.880707803790786"><ele>32.5</ele><time>2026-04-09T09:10:23Z</time></trkpt><trkpt lat="42.72921791242657" lon="2.880550046054664"><ele>33.0</ele><time>2026-04-09T09:10:24Z</time></trkpt><trkpt lat="42.72899830821688" lon="2.880393835318359"><ele>33.0</ele><time>2026-04-09T09:10:25Z</time></trkpt><trkpt lat="42.72877932596223" lon="2.8802362194492104"><ele>33.0</ele><time>2026-04-09T09:10:26Z</time></trkpt><trkpt lat="42.72855964109777" lon="2.880072696040305"><ele>35.0</ele><time>2026-04-09T09:10:27Z</time></trkpt><trkpt lat="42.728340525450925" lon="2.879908913325546"><ele>37.0</ele><time>2026-04-09T09:10:28Z</time></trkpt><trkpt lat="42.728124459236106" lon="2.879742416311157"><ele>37.0</ele><time>2026-04-09T09:10:29Z</time></trkpt><trkpt lat="42.7279110042303" lon="2.8795781209349687"><ele>37.0</ele><time>2026-04-09T09:10:30Z</time></trkpt><trkpt lat="42.72769641431278" lon="2.879412383539388"><ele>36.5</ele><time>2026-04-09T09:10:31Z</time></trkpt><trkpt lat="42.72748276691882" lon="2.8792439793486304"><ele>36.0</ele><time>2026-04-09T09:10:32Z</time></trkpt><trkpt lat="42.72727215156045" lon="2.8790767520079434"><ele>36.0</ele><time>2026-04-09T09:10:33Z</time></trkpt><trkpt lat="42.727061327538706" lon="2.8789085820849363"><ele>36.0</ele><time>2026-04-09T09:10:34Z</time></trkpt><trkpt lat="42.726850304754485" lon="2.8787390125515846"><ele>35.5</ele><time>2026-04-09T09:10:35Z</time></trkpt><trkpt lat="42.72663632308218" lon="2.8785643898579516"><ele>35.0</ele><time>2026-04-09T09:10:36Z</time></trkpt><trkpt lat="42.72642588058892" lon="2.878393405714834"><ele>35.0</ele><time>2026-04-09T09:10:37Z</time></trkpt><trkpt lat="42.72621813471876" lon="2.8782241847712857"><ele>35.0</ele><time>2026-04-09T09:10:38Z</time></trkpt><trkpt lat="42.72601007221222" lon="2.8780544634798546"><ele>34.5</ele><time>2026-04-09T09:10:39Z</time></trkpt><trkpt lat="42.72580360832066" lon="2.8778865191420024"><ele>34.0</ele><time>2026-04-09T09:10:40Z</time></trkpt><trkpt lat="42.725595554884606" lon="2.8777201280370037"><ele>33.5</ele><time>2026-04-09T09:10:41Z</time></trkpt><trkpt lat="42.72538733194754" lon="2.8775509646301085"><ele>33.0</ele><time>2026-04-09T09:10:42Z</time></trkpt><trkpt lat="42.72517928836365" lon="2.877380160327665"><ele>33.0</ele><time>2026-04-09T09:10:43Z</time></trkpt><trkpt lat="42.724968009808116" lon="2.8772146283141926"><ele>33.0</ele><time>2026-04-09T09:10:44Z</time></trkpt><trkpt lat="42.72475622863947" lon="2.877051543204703"><ele>33.0</ele><time>2026-04-09T09:10:45Z</time></trkpt><trkpt lat="42.72454554008195" lon="2.876897387719271"><ele>33.0</ele><time>2026-04-09T09:10:46Z</time></trkpt><trkpt lat="42.724335165568334" lon="2.8767486850829496"><ele>33.0</ele><time>2026-04-09T09:10:47Z</time></trkpt><trkpt lat="42.72412275507327" lon="2.876601805134707"><ele>33.0</ele><time>2026-04-09T09:10:48Z</time></trkpt><trkpt lat="42.72391069998374" lon="2.8764582963592837"><ele>33.0</ele><time>2026-04-09T09:10:49Z</time></trkpt><trkpt lat="42.723695924167615" lon="2.876321348097274"><ele>33.0</ele><time>2026-04-09T09:10:50Z</time></trkpt><trkpt lat="42.72348388859946" lon="2.8761860881085783"><ele>34.0</ele><time>2026-04-09T09:10:51Z</time></trkpt><trkpt lat="42.723273767779595" lon="2.8760522849370167"><ele>35.0</ele><time>2026-04-09T09:10:52Z</time></trkpt><trkpt lat="42.723062277272554" lon="2.8759135013083954"><ele>35.0</ele><time>2026-04-09T09:10:53Z</time></trkpt><trkpt lat="42.72285032973753" lon="2.875778501156828"><ele>35.0</ele><time>2026-04-09T09:10:54Z</time></trkpt><trkpt lat="42.722637268602185" lon="2.875644923611863"><ele>35.0</ele><time>2026-04-09T09:10:55Z</time></trkpt><trkpt lat="42.72242485970683" lon="2.875512351338326"><ele>35.0</ele><time>2026-04-09T09:10:56Z</time></trkpt><trkpt lat="42.72221232073606" lon="2.8753833128148307"><ele>35.0</ele><time>2026-04-09T09:10:57Z</time></trkpt><trkpt lat="42.72200190346095" lon="2.875257796835632"><ele>35.0</ele><time>2026-04-09T09:10:58Z</time></trkpt><trkpt lat="42.72178814278201" lon="2.8751287400770575"><ele>35.0</ele><time>2026-04-09T09:10:59Z</time></trkpt><trkpt lat="42.7215778113895" lon="2.8750058541044945"><ele>35.0</ele><time>2026-04-09T09:11:00Z</time></trkpt><trkpt lat="42.72136600141078" lon="2.8748856086709025"><ele>35.0</ele><time>2026-04-09T09:11:01Z</time></trkpt><trkpt lat="42.72115638714261" lon="2.8747720878036893"><ele>35.0</ele><time>2026-04-09T09:11:02Z</time></trkpt><trkpt lat="42.72094372060523" lon="2.874657166291716"><ele>35.0</ele><time>2026-04-09T09:11:03Z</time></trkpt><trkpt lat="42.7207316704711" lon="2.874550892653319"><ele>35.0</ele><time>2026-04-09T09:11:04Z</time></trkpt><trkpt lat="42.7205191346589" lon="2.874447055122071"><ele>35.0</ele><time>2026-04-09T09:11:05Z</time></trkpt><trkpt lat="42.720304567372" lon="2.8743522439721407"><ele>35.0</ele><time>2026-04-09T09:11:06Z</time></trkpt><trkpt lat="42.72008817180826" lon="2.8742579671509603"><ele>36.0</ele><time>2026-04-09T09:11:07Z</time></trkpt><trkpt lat="42.71986867413699" lon="2.874170638888082"><ele>37.0</ele><time>2026-04-09T09:11:08Z</time></trkpt><trkpt lat="42.719646869977154" lon="2.874089097328697"><ele>37.0</ele><time>2026-04-09T09:11:09Z</time></trkpt><trkpt lat="42.71942691248303" lon="2.8740096450400485"><ele>37.0</ele><time>2026-04-09T09:11:10Z</time></trkpt><trkpt lat="42.71920359964401" lon="2.8739257751243956"><ele>37.0</ele><time>2026-04-09T09:11:11Z</time></trkpt><trkpt lat="42.718979174407345" lon="2.8738407947743925"><ele>37.0</ele><time>2026-04-09T09:11:12Z</time></trkpt><trkpt lat="42.71875694532614" lon="2.8737613985540267"><ele>36.5</ele><time>2026-04-09T09:11:13Z</time></trkpt><trkpt lat="42.71853236774932" lon="2.873685633713051"><ele>36.0</ele><time>2026-04-09T09:11:14Z</time></trkpt><trkpt lat="42.71830679362118" lon="2.873610368257387"><ele>36.0</ele><time>2026-04-09T09:11:15Z</time></trkpt><trkpt lat="42.71808087076312" lon="2.8735353387967635"><ele>36.0</ele><time>2026-04-09T09:11:16Z</time></trkpt><trkpt lat="42.71785257491449" lon="2.873463155304892"><ele>36.0</ele><time>2026-04-09T09:11:17Z</time></trkpt><trkpt lat="42.71762396219055" lon="2.8733896325209254"><ele>36.0</ele><time>2026-04-09T09:11:18Z</time></trkpt><trkpt lat="42.717392861665644" lon="2.873316895470561"><ele>36.0</ele><time>2026-04-09T09:11:19Z</time></trkpt><trkpt lat="42.71716225625335" lon="2.8732479664470847"><ele>36.0</ele><time>2026-04-09T09:11:20Z</time></trkpt><trkpt lat="42.71693277817336" lon="2.8731782068019336"><ele>36.0</ele><time>2026-04-09T09:11:21Z</time></trkpt><trkpt lat="42.71670554897021" lon="2.873109770508404"><ele>36.0</ele><time>2026-04-09T09:11:22Z</time></trkpt><trkpt lat="42.71647732355865" lon="2.8730392495198966"><ele>36.0</ele><time>2026-04-09T09:11:23Z</time></trkpt><trkpt lat="42.716248047342496" lon="2.8729685036634964"><ele>36.0</ele><time>2026-04-09T09:11:24Z</time></trkpt><trkpt lat="42.716019846018284" lon="2.872900302655213"><ele>34.5</ele><time>2026-04-09T09:11:25Z</time></trkpt><trkpt lat="42.71579320285229" lon="2.8728360463630263"><ele>33.0</ele><time>2026-04-09T09:11:26Z</time></trkpt><trkpt lat="42.71556722684332" lon="2.87277389584922"><ele>33.0</ele><time>2026-04-09T09:11:27Z</time></trkpt><trkpt lat="42.715343667882145" lon="2.8727183507839364"><ele>33.0</ele><time>2026-04-09T09:11:28Z</time></trkpt><trkpt lat="42.71511953327339" lon="2.8726678319465107"><ele>33.666666666666664</ele><time>2026-04-09T09:11:29Z</time></trkpt><trkpt lat="42.71489841371368" lon="2.8726228484161718"><ele>34.33333333333333</ele><time>2026-04-09T09:11:30Z</time></trkpt><trkpt lat="42.71467743507996" lon="2.872581898530835"><ele>35.0</ele><time>2026-04-09T09:11:31Z</time></trkpt><trkpt lat="42.7144587570828" lon="2.8725330486663125"><ele>35.0</ele><time>2026-04-09T09:11:32Z</time></trkpt><trkpt lat="42.714238516369164" lon="2.8724772635628835"><ele>35.0</ele><time>2026-04-09T09:11:33Z</time></trkpt><trkpt lat="42.7140185382708" lon="2.872417874748399"><ele>35.0</ele><time>2026-04-09T09:11:34Z</time></trkpt><trkpt lat="42.71379788735323" lon="2.872350785965991"><ele>35.0</ele><time>2026-04-09T09:11:35Z</time></trkpt><trkpt lat="42.713585401303675" lon="2.872272214479844"><ele>35.0</ele><time>2026-04-09T09:11:36Z</time></trkpt><trkpt lat="42.7133780723637" lon="2.8721904493726687"><ele>35.0</ele><time>2026-04-09T09:11:37Z</time></trkpt><trkpt lat="42.713175314676114" lon="2.87210113471473"><ele>34.666666666666664</ele><time>2026-04-09T09:11:38Z</time></trkpt><trkpt lat="42.71297237671335" lon="2.8720022301830346"><ele>34.333333333333336</ele><time>2026-04-09T09:11:39Z</time></trkpt><trkpt lat="42.71277053189611" lon="2.871899718953291"><ele>34.0</ele><time>2026-04-09T09:11:40Z</time></trkpt><trkpt lat="42.71256818652944" lon="2.8717895245627183"><ele>33.0</ele><time>2026-04-09T09:11:41Z</time></trkpt><trkpt lat="42.71236144202696" lon="2.871668122214552"><ele>32.0</ele><time>2026-04-09T09:11:42Z</time></trkpt><trkpt lat="42.712156943983565" lon="2.87153899806597"><ele>32.0</ele><time>2026-04-09T09:11:43Z</time></trkpt><trkpt lat="42.711951399852495" lon="2.871400717649445"><ele>32.0</ele><time>2026-04-09T09:11:44Z</time></trkpt><trkpt lat="42.71174325402312" lon="2.8712544717098374"><ele>31.5</ele><time>2026-04-09T09:11:45Z</time></trkpt><trkpt lat="42.71153803618164" lon="2.8710986823119944"><ele>31.0</ele><time>2026-04-09T09:11:46Z</time></trkpt><trkpt lat="42.7113328887342" lon="2.8709401904711305"><ele>31.5</ele><time>2026-04-09T09:11:47Z</time></trkpt><trkpt lat="42.71113024817142" lon="2.870785895501051"><ele>32.0</ele><time>2026-04-09T09:11:48Z</time></trkpt><trkpt lat="42.71093040567986" lon="2.870635326504207"><ele>32.0</ele><time>2026-04-09T09:11:49Z</time></trkpt><trkpt lat="42.71073622417846" lon="2.8704894463390693"><ele>32.0</ele><time>2026-04-09T09:11:50Z</time></trkpt><trkpt lat="42.71054387207971" lon="2.870343155172239"><ele>32.0</ele><time>2026-04-09T09:11:51Z</time></trkpt><trkpt lat="42.71035272235989" lon="2.870197466327295"><ele>31.666666666666664</ele><time>2026-04-09T09:11:52Z</time></trkpt><trkpt lat="42.71015937958964" lon="2.8700496406125677"><ele>31.333333333333336</ele><time>2026-04-09T09:11:53Z</time></trkpt><trkpt lat="42.709965716820825" lon="2.869899582742848"><ele>31.0</ele><time>2026-04-09T09:11:54Z</time></trkpt><trkpt lat="42.709769080521184" lon="2.869748396238604"><ele>31.0</ele><time>2026-04-09T09:11:55Z</time></trkpt><trkpt lat="42.709573549367185" lon="2.869596683421208"><ele>31.0</ele><time>2026-04-09T09:11:56Z</time></trkpt><trkpt lat="42.70937783062961" lon="2.8694437285997094"><ele>31.5</ele><time>2026-04-09T09:11:57Z</time></trkpt><trkpt lat="42.70918510421473" lon="2.8692827691095335"><ele>32.0</ele><time>2026-04-09T09:11:58Z</time></trkpt><trkpt lat="42.70899363660663" lon="2.869110090283012"><ele>32.5</ele><time>2026-04-09T09:11:59Z</time></trkpt><trkpt lat="42.708802880305434" lon="2.868928709292292"><ele>33.0</ele><time>2026-04-09T09:12:00Z</time></trkpt><trkpt lat="42.7086167135155" lon="2.868743672310282"><ele>32.5</ele><time>2026-04-09T09:12:01Z</time></trkpt><trkpt lat="42.70842967094245" lon="2.8685554403363036"><ele>32.0</ele><time>2026-04-09T09:12:02Z</time></trkpt><trkpt lat="42.70823898940741" lon="2.868368264661802"><ele>32.0</ele><time>2026-04-09T09:12:03Z</time></trkpt><trkpt lat="42.70804439293242" lon="2.8681892973597236"><ele>32.0</ele><time>2026-04-09T09:12:04Z</time></trkpt><trkpt lat="42.707844524612185" lon="2.868020559893799"><ele>32.5</ele><time>2026-04-09T09:12:05Z</time></trkpt><trkpt lat="42.70763972750247" lon="2.8678589883801955"><ele>33.0</ele><time>2026-04-09T09:12:06Z</time></trkpt><trkpt lat="42.70743418040524" lon="2.8677071982028592"><ele>33.0</ele><time>2026-04-09T09:12:07Z</time></trkpt><trkpt lat="42.70722403451756" lon="2.8675634019174248"><ele>33.0</ele><time>2026-04-09T09:12:08Z</time></trkpt><trkpt lat="42.70701086420894" lon="2.8674225572234384"><ele>33.0</ele><time>2026-04-09T09:12:09Z</time></trkpt><trkpt lat="42.70679834225408" lon="2.8672973935059654"><ele>33.0</ele><time>2026-04-09T09:12:10Z</time></trkpt><trkpt lat="42.706581056000815" lon="2.867177519888704"><ele>33.0</ele><time>2026-04-09T09:12:11Z</time></trkpt><trkpt lat="42.70636456317884" lon="2.867060801371509"><ele>33.0</ele><time>2026-04-09T09:12:12Z</time></trkpt><trkpt lat="42.7061439572441" lon="2.8669393274317"><ele>33.5</ele><time>2026-04-09T09:12:13Z</time></trkpt><trkpt lat="42.70592414819848" lon="2.8668233480835843"><ele>34.0</ele><time>2026-04-09T09:12:14Z</time></trkpt><trkpt lat="42.70570421215092" lon="2.8667090647960407"><ele>34.0</ele><time>2026-04-09T09:12:15Z</time></trkpt><trkpt lat="42.70548192500345" lon="2.866593842620094"><ele>34.0</ele><time>2026-04-09T09:12:16Z</time></trkpt><trkpt lat="42.70525919342432" lon="2.866480177000286"><ele>33.0</ele><time>2026-04-09T09:12:17Z</time></trkpt><trkpt lat="42.70503955386692" lon="2.866367689561174"><ele>32.0</ele><time>2026-04-09T09:12:18Z</time></trkpt><trkpt lat="42.704821465182775" lon="2.8662565707158647"><ele>32.0</ele><time>2026-04-09T09:12:19Z</time></trkpt><trkpt lat="42.70460420864311" lon="2.8661459606117243"><ele>32.0</ele><time>2026-04-09T09:12:20Z</time></trkpt><trkpt lat="42.70439136355952" lon="2.866037138051348"><ele>32.33333333333333</ele><time>2026-04-09T09:12:21Z</time></trkpt><trkpt lat="42.70419340383739" lon="2.8659367048800983"><ele>32.666666666666664</ele><time>2026-04-09T09:12:22Z</time></trkpt><trkpt lat="42.7039878084936" lon="2.865835760843602"><ele>33.0</ele><time>2026-04-09T09:12:23Z</time></trkpt><trkpt lat="42.70378226659484" lon="2.8657377294335107"><ele>33.0</ele><time>2026-04-09T09:12:24Z</time></trkpt><trkpt lat="42.70358127262685" lon="2.8656429994768398"><ele>33.0</ele><time>2026-04-09T09:12:25Z</time></trkpt><trkpt lat="42.70338948031108" lon="2.8655626609588234"><ele>33.0</ele><time>2026-04-09T09:12:26Z</time></trkpt><trkpt lat="42.70319528480849" lon="2.8654880946289585"><ele>33.0</ele><time>2026-04-09T09:12:27Z</time></trkpt><trkpt lat="42.703004521533806" lon="2.865417349890512"><ele>33.0</ele><time>2026-04-09T09:12:28Z</time></trkpt><trkpt lat="42.70281117310154" lon="2.8653556666354385"><ele>33.0</ele><time>2026-04-09T09:12:29Z</time></trkpt><trkpt lat="42.70261690833919" lon="2.86529826985022"><ele>33.333333333333336</ele><time>2026-04-09T09:12:30Z</time></trkpt><trkpt lat="42.70242092059143" lon="2.8652510772077524"><ele>33.66666666666667</ele><time>2026-04-09T09:12:31Z</time></trkpt><trkpt lat="42.702230213905054" lon="2.8652126961302624"><ele>34.0</ele><time>2026-04-09T09:12:32Z</time></trkpt><trkpt lat="42.70203904510899" lon="2.865177080021197"><ele>33.66666666666667</ele><time>2026-04-09T09:12:33Z</time></trkpt><trkpt lat="42.70184943271488" lon="2.865148775329821"><ele>33.333333333333336</ele><time>2026-04-09T09:12:34Z</time></trkpt><trkpt lat="42.70165854913628" lon="2.865124563762853"><ele>33.0</ele><time>2026-04-09T09:12:35Z</time></trkpt><trkpt lat="42.70146866835059" lon="2.8651023289945856"><ele>33.0</ele><time>2026-04-09T09:12:36Z</time></trkpt><trkpt lat="42.70127726171303" lon="2.865075231204682"><ele>33.0</ele><time>2026-04-09T09:12:37Z</time></trkpt><trkpt lat="42.7010907769624" lon="2.8650456444736445"><ele>33.0</ele><time>2026-04-09T09:12:38Z</time></trkpt><trkpt lat="42.700905970821786" lon="2.8650101877279055"><ele>33.333333333333336</ele><time>2026-04-09T09:12:39Z</time></trkpt><trkpt lat="42.7007228429314" lon="2.8649650940995883"><ele>33.66666666666667</ele><time>2026-04-09T09:12:40Z</time></trkpt><trkpt lat="42.70053924093622" lon="2.8649133749856412"><ele>34.0</ele><time>2026-04-09T09:12:41Z</time></trkpt><trkpt lat="42.70035400045716" lon="2.8648554601062486"><ele>34.0</ele><time>2026-04-09T09:12:42Z</time></trkpt><trkpt lat="42.70016731534581" lon="2.8647928439555645"><ele>34.0</ele><time>2026-04-09T09:12:43Z</time></trkpt><trkpt lat="42.69998034083896" lon="2.864722961161433"><ele>34.0</ele><time>2026-04-09T09:12:44Z</time></trkpt><trkpt lat="42.69979318149237" lon="2.8646524898666224"><ele>34.0</ele><time>2026-04-09T09:12:45Z</time></trkpt><trkpt lat="42.69960504611876" lon="2.8645809106607416"><ele>34.0</ele><time>2026-04-09T09:12:46Z</time></trkpt><trkpt lat="42.69941551610678" lon="2.864508425852399"><ele>34.0</ele><time>2026-04-09T09:12:47Z</time></trkpt><trkpt lat="42.699227533016526" lon="2.8644337658184966"><ele>33.0</ele><time>2026-04-09T09:12:48Z</time></trkpt><trkpt lat="42.699036803259105" lon="2.8643599028635403"><ele>32.0</ele><time>2026-04-09T09:12:49Z</time></trkpt><trkpt lat="42.69884487922945" lon="2.8642858263209843"><ele>31.0</ele><time>2026-04-09T09:12:50Z</time></trkpt><trkpt lat="42.69865451077231" lon="2.8642124418699386"><ele>31.0</ele><time>2026-04-09T09:12:51Z</time></trkpt><trkpt lat="42.698464160580215" lon="2.864140701005875"><ele>31.0</ele><time>2026-04-09T09:12:52Z</time></trkpt><trkpt lat="42.6982735299522" lon="2.8640697246939393"><ele>31.0</ele><time>2026-04-09T09:12:53Z</time></trkpt><trkpt lat="42.69808206261617" lon="2.8639974093726215"><ele>31.0</ele><time>2026-04-09T09:12:54Z</time></trkpt><trkpt lat="42.69789152630057" lon="2.8639256543500085"><ele>31.0</ele><time>2026-04-09T09:12:55Z</time></trkpt><trkpt lat="42.69769863043872" lon="2.8638525927509684"><ele>31.0</ele><time>2026-04-09T09:12:56Z</time></trkpt><trkpt lat="42.69750719569086" lon="2.863779101034368"><ele>34.0</ele><time>2026-04-09T09:12:57Z</time></trkpt><trkpt lat="42.697315899050544" lon="2.8637055010650503"><ele>37.0</ele><time>2026-04-09T09:12:58Z</time></trkpt><trkpt lat="42.69712661405687" lon="2.863634119658036"><ele>40.0</ele><time>2026-04-09T09:12:59Z</time></trkpt><trkpt lat="42.69693488121442" lon="2.863561295908673"><ele>39.0</ele><time>2026-04-09T09:13:00Z</time></trkpt><trkpt lat="42.69674199999606" lon="2.8634872862098146"><ele>38.0</ele><time>2026-04-09T09:13:01Z</time></trkpt><trkpt lat="42.696551301600806" lon="2.8634126861396485"><ele>37.0</ele><time>2026-04-09T09:13:02Z</time></trkpt><trkpt lat="42.69635840029258" lon="2.863336926553889"><ele>36.333333333333336</ele><time>2026-04-09T09:13:03Z</time></trkpt><trkpt lat="42.69616699277246" lon="2.863262024141572"><ele>35.666666666666664</ele><time>2026-04-09T09:13:04Z</time></trkpt><trkpt lat="42.69597468389647" lon="2.8631902355039207"><ele>35.0</ele><time>2026-04-09T09:13:05Z</time></trkpt><trkpt lat="42.6957821187869" lon="2.8631169247532373"><ele>37.0</ele><time>2026-04-09T09:13:06Z</time></trkpt><trkpt lat="42.69558925895494" lon="2.8630449104918343"><ele>39.0</ele><time>2026-04-09T09:13:07Z</time></trkpt><trkpt lat="42.695194728824006" lon="2.862902372113697"><ele>39.666666666666664</ele><time>2026-04-09T09:13:09Z</time></trkpt><trkpt lat="42.69498996580027" lon="2.8628321441139053"><ele>40.33333333333333</ele><time>2026-04-09T09:13:10Z</time></trkpt><trkpt lat="42.69478230084727" lon="2.8627693181698928"><ele>41.0</ele><time>2026-04-09T09:13:11Z</time></trkpt><trkpt lat="42.69457082123724" lon="2.862717830420966"><ele>41.0</ele><time>2026-04-09T09:13:12Z</time></trkpt><trkpt lat="42.69435460440453" lon="2.8626699837009877"><ele>41.0</ele><time>2026-04-09T09:13:13Z</time></trkpt><trkpt lat="42.69413680989905" lon="2.862627682975795"><ele>41.0</ele><time>2026-04-09T09:13:14Z</time></trkpt><trkpt lat="42.69391518212428" lon="2.8625874704513405"><ele>41.0</ele><time>2026-04-09T09:13:15Z</time></trkpt><trkpt lat="42.693692859851254" lon="2.862547856564413"><ele>41.0</ele><time>2026-04-09T09:13:16Z</time></trkpt><trkpt lat="42.6934686608861" lon="2.862511188756727"><ele>42.0</ele><time>2026-04-09T09:13:17Z</time></trkpt><trkpt lat="42.69324314311272" lon="2.8624764351811636"><ele>43.0</ele><time>2026-04-09T09:13:18Z</time></trkpt><trkpt lat="42.69301773440893" lon="2.8624439249190567"><ele>43.0</ele><time>2026-04-09T09:13:19Z</time></trkpt><trkpt lat="42.692790707769376" lon="2.86241365754529"><ele>43.0</ele><time>2026-04-09T09:13:20Z</time></trkpt><trkpt lat="42.69256267038427" lon="2.8623863819701962"><ele>43.0</ele><time>2026-04-09T09:13:21Z</time></trkpt><trkpt lat="42.69232960410832" lon="2.862359598963253"><ele>43.0</ele><time>2026-04-09T09:13:22Z</time></trkpt><trkpt lat="42.69209633795841" lon="2.8623371867134413"><ele>42.5</ele><time>2026-04-09T09:13:23Z</time></trkpt><trkpt lat="42.69186274958337" lon="2.8623145382101325"><ele>42.0</ele><time>2026-04-09T09:13:24Z</time></trkpt><trkpt lat="42.69162805914955" lon="2.862294072733532"><ele>42.0</ele><time>2026-04-09T09:13:25Z</time></trkpt><trkpt lat="42.6913924778074" lon="2.862274650939198"><ele>42.0</ele><time>2026-04-09T09:13:26Z</time></trkpt><trkpt lat="42.691159404964395" lon="2.862258486544376"><ele>41.5</ele><time>2026-04-09T09:13:27Z</time></trkpt><trkpt lat="42.690927586668685" lon="2.862242714631993"><ele>41.0</ele><time>2026-04-09T09:13:28Z</time></trkpt><trkpt lat="42.690697255283155" lon="2.862228914344203"><ele>41.0</ele><time>2026-04-09T09:13:29Z</time></trkpt><trkpt lat="42.69047005388916" lon="2.8622184287144807"><ele>41.0</ele><time>2026-04-09T09:13:30Z</time></trkpt><trkpt lat="42.69024537142352" lon="2.8622106811826997"><ele>41.5</ele><time>2026-04-09T09:13:31Z</time></trkpt><trkpt lat="42.69001954197831" lon="2.8622022927310966"><ele>42.0</ele><time>2026-04-09T09:13:32Z</time></trkpt><trkpt lat="42.68979460837391" lon="2.8621954191117944"><ele>42.0</ele><time>2026-04-09T09:13:33Z</time></trkpt><trkpt lat="42.68957074545598" lon="2.8621914886076283"><ele>42.0</ele><time>2026-04-09T09:13:34Z</time></trkpt><trkpt lat="42.68934653244496" lon="2.8621891484362108"><ele>42.0</ele><time>2026-04-09T09:13:35Z</time></trkpt><trkpt lat="42.68912230090633" lon="2.862186861844464"><ele>41.333333333333336</ele><time>2026-04-09T09:13:36Z</time></trkpt><trkpt lat="42.68890076258019" lon="2.8621867914955317"><ele>40.66666666666667</ele><time>2026-04-09T09:13:37Z</time></trkpt><trkpt lat="42.6886830935883" lon="2.8621890367518157"><ele>40.0</ele><time>2026-04-09T09:13:38Z</time></trkpt><trkpt lat="42.688469074182564" lon="2.8621905447747924"><ele>39.66666666666667</ele><time>2026-04-09T09:13:39Z</time></trkpt><trkpt lat="42.688261016491005" lon="2.862192738001009"><ele>39.333333333333336</ele><time>2026-04-09T09:13:40Z</time></trkpt><trkpt lat="42.68805611675206" lon="2.8621987687077954"><ele>39.0</ele><time>2026-04-09T09:13:41Z</time></trkpt><trkpt lat="42.68785654351343" lon="2.8622037434182297"><ele>39.333333333333336</ele><time>2026-04-09T09:13:42Z</time></trkpt><trkpt lat="42.687661426744" lon="2.862213757293236"><ele>39.66666666666667</ele><time>2026-04-09T09:13:43Z</time></trkpt><trkpt lat="42.68746876943348" lon="2.8622230551709102"><ele>40.0</ele><time>2026-04-09T09:13:44Z</time></trkpt><trkpt lat="42.68727799453433" lon="2.8622322104090436"><ele>40.0</ele><time>2026-04-09T09:13:45Z</time></trkpt><trkpt lat="42.68708569288123" lon="2.8622433589480982"><ele>40.0</ele><time>2026-04-09T09:13:46Z</time></trkpt><trkpt lat="42.6868887113276" lon="2.8622511783605593"><ele>40.0</ele><time>2026-04-09T09:13:47Z</time></trkpt><trkpt lat="42.68668829705639" lon="2.8622583850833916"><ele>40.333333333333336</ele><time>2026-04-09T09:13:48Z</time></trkpt><trkpt lat="42.686491620615534" lon="2.862266228033124"><ele>40.666666666666664</ele><time>2026-04-09T09:13:49Z</time></trkpt><trkpt lat="42.68629757435217" lon="2.8622759732749676"><ele>41.0</ele><time>2026-04-09T09:13:50Z</time></trkpt><trkpt lat="42.68610770429407" lon="2.8622859568871855"><ele>41.33333333333333</ele><time>2026-04-09T09:13:51Z</time></trkpt><trkpt lat="42.68592195082858" lon="2.86229818817715"><ele>41.666666666666664</ele><time>2026-04-09T09:13:52Z</time></trkpt><trkpt lat="42.685735636312394" lon="2.862308051570927"><ele>42.0</ele><time>2026-04-09T09:13:53Z</time></trkpt><trkpt lat="42.68555192441575" lon="2.8623170931844117"><ele>42.0</ele><time>2026-04-09T09:13:54Z</time></trkpt><trkpt lat="42.685373473537915" lon="2.8623292568765124"><ele>42.0</ele><time>2026-04-09T09:13:55Z</time></trkpt><trkpt lat="42.685204346634805" lon="2.86234693362726"><ele>42.0</ele><time>2026-04-09T09:13:56Z</time></trkpt><trkpt lat="42.685044439894014" lon="2.8623692194492514"><ele>42.5</ele><time>2026-04-09T09:13:57Z</time></trkpt><trkpt lat="42.68489101520588" lon="2.8623978399897525"><ele>43.0</ele><time>2026-04-09T09:13:58Z</time></trkpt><trkpt lat="42.68474356456785" lon="2.8624344064875373"><ele>43.5</ele><time>2026-04-09T09:13:59Z</time></trkpt><trkpt lat="42.684603199979186" lon="2.862470170102836"><ele>44.0</ele><time>2026-04-09T09:14:00Z</time></trkpt><trkpt lat="42.68447230628285" lon="2.8625076829157803"><ele>44.25</ele><time>2026-04-09T09:14:01Z</time></trkpt><trkpt lat="42.684344736579206" lon="2.8625469689626373"><ele>44.5</ele><time>2026-04-09T09:14:02Z</time></trkpt><trkpt lat="42.68422157642169" lon="2.8625821131552405"><ele>44.75</ele><time>2026-04-09T09:14:03Z</time></trkpt><trkpt lat="42.684103732317546" lon="2.8626059440948737"><ele>45.0</ele><time>2026-04-09T09:14:04Z</time></trkpt><trkpt lat="42.683994033671546" lon="2.862631584006084"><ele>45.0</ele><time>2026-04-09T09:14:05Z</time></trkpt><trkpt lat="42.68389258410216" lon="2.8626535461736973"><ele>45.0</ele><time>2026-04-09T09:14:06Z</time></trkpt><trkpt lat="42.68379999000395" lon="2.8626696471651782"><ele>45.0</ele><time>2026-04-09T09:14:07Z</time></trkpt><trkpt lat="42.6837070436395" lon="2.86267680035898"><ele>45.0</ele><time>2026-04-09T09:14:08Z</time></trkpt><trkpt lat="42.68361912023839" lon="2.862659140098705"><ele>45.0</ele><time>2026-04-09T09:14:09Z</time></trkpt><trkpt lat="42.68354013145793" lon="2.8626079559029334"><ele>45.0</ele><time>2026-04-09T09:14:10Z</time></trkpt><trkpt lat="42.68346004890135" lon="2.8625616451310436"><ele>45.0</ele><time>2026-04-09T09:14:11Z</time></trkpt><trkpt lat="42.683373913269776" lon="2.8625396792753266"><ele>45.0</ele><time>2026-04-09T09:14:12Z</time></trkpt><trkpt lat="42.68328550360365" lon="2.8625435500319916"><ele>45.0</ele><time>2026-04-09T09:14:13Z</time></trkpt><trkpt lat="42.68319810677003" lon="2.8625669104623035"><ele>45.0</ele><time>2026-04-09T09:14:14Z</time></trkpt><trkpt lat="42.68311718208554" lon="2.8626122171198864"><ele>45.0</ele><time>2026-04-09T09:14:15Z</time></trkpt><trkpt lat="42.68304940436247" lon="2.8626863150703654"><ele>44.8</ele><time>2026-04-09T09:14:16Z</time></trkpt><trkpt lat="42.68299495628523" lon="2.86277743220765"><ele>44.6</ele><time>2026-04-09T09:14:17Z</time></trkpt><trkpt lat="42.68293701101542" lon="2.862862884383891"><ele>44.400000000000006</ele><time>2026-04-09T09:14:18Z</time></trkpt><trkpt lat="42.682857372848815" lon="2.8629284197472384"><ele>44.2</ele><time>2026-04-09T09:14:19Z</time></trkpt><trkpt lat="42.68276313389174" lon="2.8629603782035487"><ele>44.0</ele><time>2026-04-09T09:14:20Z</time></trkpt><trkpt lat="42.68265796419121" lon="2.862959501165846"><ele>44.0</ele><time>2026-04-09T09:14:21Z</time></trkpt><trkpt lat="42.68254757152603" lon="2.8629456626698238"><ele>44.0</ele><time>2026-04-09T09:14:22Z</time></trkpt><trkpt lat="42.68242566351945" lon="2.8629346142436907"><ele>44.0</ele><time>2026-04-09T09:14:23Z</time></trkpt><trkpt lat="42.68229579214572" lon="2.8629321444986338"><ele>44.0</ele><time>2026-04-09T09:14:24Z</time></trkpt><trkpt lat="42.68215846325609" lon="2.862934387798251"><ele>44.0</ele><time>2026-04-09T09:14:25Z</time></trkpt><trkpt lat="42.682013299939854" lon="2.8629414995916718"><ele>44.0</ele><time>2026-04-09T09:14:26Z</time></trkpt><trkpt lat="42.6818559322024" lon="2.862959878471239"><ele>44.0</ele><time>2026-04-09T09:14:27Z</time></trkpt><trkpt lat="42.68169844914803" lon="2.862972207410236"><ele>44.666666666666664</ele><time>2026-04-09T09:14:28Z</time></trkpt><trkpt lat="42.68153925915919" lon="2.8629789564902315"><ele>45.333333333333336</ele><time>2026-04-09T09:14:29Z</time></trkpt><trkpt lat="42.68137437949813" lon="2.862982598267207"><ele>46.0</ele><time>2026-04-09T09:14:30Z</time></trkpt><trkpt lat="42.68120082173312" lon="2.8629746234890177"><ele>46.333333333333336</ele><time>2026-04-09T09:14:31Z</time></trkpt><trkpt lat="42.681021605884794" lon="2.8629582288993807"><ele>46.666666666666664</ele><time>2026-04-09T09:14:32Z</time></trkpt><trkpt lat="42.68083562151149" lon="2.8629309438456017"><ele>47.0</ele><time>2026-04-09T09:14:33Z</time></trkpt><trkpt lat="42.680643108126155" lon="2.862897387133568"><ele>47.0</ele><time>2026-04-09T09:14:34Z</time></trkpt><trkpt lat="42.68044352669773" lon="2.8628670523635003"><ele>47.0</ele><time>2026-04-09T09:14:35Z</time></trkpt><trkpt lat="42.680247946719646" lon="2.862834183518026"><ele>47.0</ele><time>2026-04-09T09:14:36Z</time></trkpt><trkpt lat="42.68005294237329" lon="2.862812666079347"><ele>46.666666666666664</ele><time>2026-04-09T09:14:37Z</time></trkpt><trkpt lat="42.679853351799565" lon="2.8627951899483888"><ele>46.333333333333336</ele><time>2026-04-09T09:14:38Z</time></trkpt><trkpt lat="42.67965174201913" lon="2.8627825015236055"><ele>46.0</ele><time>2026-04-09T09:14:39Z</time></trkpt><trkpt lat="42.679448558770495" lon="2.8627778631962117"><ele>46.333333333333336</ele><time>2026-04-09T09:14:40Z</time></trkpt><trkpt lat="42.679246832081624" lon="2.862781400693559"><ele>46.666666666666664</ele><time>2026-04-09T09:14:41Z</time></trkpt><trkpt lat="42.67904061517001" lon="2.862787416992626"><ele>47.0</ele><time>2026-04-09T09:14:42Z</time></trkpt><trkpt lat="42.67883384099379" lon="2.862789213106238"><ele>47.0</ele><time>2026-04-09T09:14:43Z</time></trkpt><trkpt lat="42.67862629884996" lon="2.8627930264864516"><ele>47.0</ele><time>2026-04-09T09:14:44Z</time></trkpt><trkpt lat="42.67841540607866" lon="2.862797614905542"><ele>47.0</ele><time>2026-04-09T09:14:45Z</time></trkpt><trkpt lat="42.67820163440585" lon="2.862803146508059"><ele>46.33333333333333</ele><time>2026-04-09T09:14:46Z</time></trkpt><trkpt lat="42.67798720429467" lon="2.8628083066152668"><ele>45.666666666666664</ele><time>2026-04-09T09:14:47Z</time></trkpt><trkpt lat="42.67776931850315" lon="2.8628140331790015"><ele>45.0</ele><time>2026-04-09T09:14:48Z</time></trkpt><trkpt lat="42.67755422635731" lon="2.862818188487897"><ele>45.0</ele><time>2026-04-09T09:14:49Z</time></trkpt><trkpt lat="42.677342232858784" lon="2.8628261932512014"><ele>45.0</ele><time>2026-04-09T09:14:50Z</time></trkpt><trkpt lat="42.67713513673967" lon="2.862832266197489"><ele>45.0</ele><time>2026-04-09T09:14:51Z</time></trkpt><trkpt lat="42.67693024519961" lon="2.86283406382546"><ele>45.333333333333336</ele><time>2026-04-09T09:14:52Z</time></trkpt><trkpt lat="42.676726096374395" lon="2.8628435066908358"><ele>45.66666666666667</ele><time>2026-04-09T09:14:53Z</time></trkpt><trkpt lat="42.67652392768686" lon="2.86286222638286"><ele>46.0</ele><time>2026-04-09T09:14:54Z</time></trkpt><trkpt lat="42.676326188742415" lon="2.862897040472547"><ele>46.0</ele><time>2026-04-09T09:14:55Z</time></trkpt><trkpt lat="42.67613433726312" lon="2.862947725441639"><ele>46.0</ele><time>2026-04-09T09:14:56Z</time></trkpt><trkpt lat="42.67595008644699" lon="2.8630041200139495"><ele>46.0</ele><time>2026-04-09T09:14:57Z</time></trkpt><trkpt lat="42.67576811935834" lon="2.863052256357124"><ele>45.66666666666667</ele><time>2026-04-09T09:14:58Z</time></trkpt><trkpt lat="42.67560020635724" lon="2.8630904872567715"><ele>45.333333333333336</ele><time>2026-04-09T09:14:59Z</time></trkpt><trkpt lat="42.67544250881843" lon="2.8631218776348564"><ele>45.0</ele><time>2026-04-09T09:15:00Z</time></trkpt><trkpt lat="42.67529661696488" lon="2.8631609147953134"><ele>45.5</ele><time>2026-04-09T09:15:01Z</time></trkpt><trkpt lat="42.67516478627744" lon="2.863207623317629"><ele>46.0</ele><time>2026-04-09T09:15:02Z</time></trkpt><trkpt lat="42.675052623580854" lon="2.8632558861829174"><ele>46.5</ele><time>2026-04-09T09:15:03Z</time></trkpt><trkpt lat="42.67495097897824" lon="2.863302836551227"><ele>47.0</ele><time>2026-04-09T09:15:04Z</time></trkpt><trkpt lat="42.67486429026497" lon="2.863348456403983"><ele>47.0</ele><time>2026-04-09T09:15:05Z</time></trkpt><trkpt lat="42.674791888391574" lon="2.8633885615055394"><ele>47.0</ele><time>2026-04-09T09:15:06Z</time></trkpt><trkpt lat="42.674732397832045" lon="2.8634213453169353"><ele>47.0</ele><time>2026-04-09T09:15:07Z</time></trkpt><trkpt lat="42.674617695010745" lon="2.8634555692059114"><ele>47.0</ele><time>2026-04-09T09:15:09Z</time></trkpt><trkpt lat="42.67454932972201" lon="2.8634519825847637"><ele>47.0</ele><time>2026-04-09T09:15:10Z</time></trkpt><trkpt lat="42.67447609840235" lon="2.863434753858713"><ele>47.0</ele><time>2026-04-09T09:15:11Z</time></trkpt><trkpt lat="42.674397605047005" lon="2.8634323608702825"><ele>46.83333333333333</ele><time>2026-04-09T09:15:12Z</time></trkpt><trkpt lat="42.674323502714735" lon="2.8634491505019066"><ele>46.666666666666664</ele><time>2026-04-09T09:15:13Z</time></trkpt><trkpt lat="42.67425876661207" lon="2.8634916235207153"><ele>46.5</ele><time>2026-04-09T09:15:14Z</time></trkpt><trkpt lat="42.674203046663706" lon="2.8635568823441133"><ele>46.333333333333336</ele><time>2026-04-09T09:15:15Z</time></trkpt><trkpt lat="42.67415756024391" lon="2.8636372353869115"><ele>46.16666666666667</ele><time>2026-04-09T09:15:16Z</time></trkpt><trkpt lat="42.67412359055263" lon="2.8637325775377587"><ele>46.0</ele><time>2026-04-09T09:15:17Z</time></trkpt><trkpt lat="42.67410894650074" lon="2.8638393696997477"><ele>46.0</ele><time>2026-04-09T09:15:18Z</time></trkpt><trkpt lat="42.67411431075956" lon="2.8639514689297427"><ele>46.0</ele><time>2026-04-09T09:15:19Z</time></trkpt><trkpt lat="42.67414163584055" lon="2.8640595170154106"><ele>46.0</ele><time>2026-04-09T09:15:20Z</time></trkpt><trkpt lat="42.67418909241027" lon="2.864155731715228"><ele>46.0</ele><time>2026-04-09T09:15:21Z</time></trkpt><trkpt lat="42.674329947217345" lon="2.8642868925012714"><ele>46.0</ele><time>2026-04-09T09:15:23Z</time></trkpt><trkpt lat="42.6744149679319" lon="2.8643082814254797"><ele>45.8</ele><time>2026-04-09T09:15:24Z</time></trkpt><trkpt lat="42.674500325300315" lon="2.8643230733796283"><ele>45.599999999999994</ele><time>2026-04-09T09:15:25Z</time></trkpt><trkpt lat="42.67458567401679" lon="2.864362177098601"><ele>45.4</ele><time>2026-04-09T09:15:26Z</time></trkpt><trkpt lat="42.67466116258261" lon="2.864445421631413"><ele>45.2</ele><time>2026-04-09T09:15:27Z</time></trkpt><trkpt lat="42.674727092823844" lon="2.864559893578236"><ele>45.0</ele><time>2026-04-09T09:15:28Z</time></trkpt><trkpt lat="42.674795034980114" lon="2.8646905896578203"><ele>45.0</ele><time>2026-04-09T09:15:29Z</time></trkpt><trkpt lat="42.67487053677956" lon="2.864830977399656"><ele>45.0</ele><time>2026-04-09T09:15:30Z</time></trkpt><trkpt lat="42.67495515524995" lon="2.8649909738955124"><ele>45.0</ele><time>2026-04-09T09:15:31Z</time></trkpt><trkpt lat="42.67504735627079" lon="2.8651626910049712"><ele>45.0</ele><time>2026-04-09T09:15:32Z</time></trkpt><trkpt lat="42.67513642698473" lon="2.865332937789375"><ele>45.333333333333336</ele><time>2026-04-09T09:15:33Z</time></trkpt><trkpt lat="42.67523218055251" lon="2.8655142397096696"><ele>45.66666666666667</ele><time>2026-04-09T09:15:34Z</time></trkpt><trkpt lat="42.67532769280231" lon="2.86570841970499"><ele>46.0</ele><time>2026-04-09T09:15:35Z</time></trkpt><trkpt lat="42.6754263062349" lon="2.865914195524873"><ele>46.0</ele><time>2026-04-09T09:15:36Z</time></trkpt><trkpt lat="42.67552603299449" lon="2.8661355949202925"><ele>46.0</ele><time>2026-04-09T09:15:37Z</time></trkpt><trkpt lat="42.67563011742642" lon="2.866359569021416"><ele>46.0</ele><time>2026-04-09T09:15:38Z</time></trkpt><trkpt lat="42.67573519703475" lon="2.866581388064087"><ele>46.333333333333336</ele><time>2026-04-09T09:15:39Z</time></trkpt><trkpt lat="42.675846940827164" lon="2.866802035570587"><ele>46.666666666666664</ele><time>2026-04-09T09:15:40Z</time></trkpt><trkpt lat="42.67596213326687" lon="2.867024242801969"><ele>47.0</ele><time>2026-04-09T09:15:41Z</time></trkpt><trkpt lat="42.676081713430705" lon="2.8672496245262877"><ele>46.666666666666664</ele><time>2026-04-09T09:15:42Z</time></trkpt><trkpt lat="42.67620029083625" lon="2.8674773375581704"><ele>46.333333333333336</ele><time>2026-04-09T09:15:43Z</time></trkpt><trkpt lat="42.67631881659656" lon="2.867703137225871"><ele>46.0</ele><time>2026-04-09T09:15:44Z</time></trkpt><trkpt lat="42.67643738943857" lon="2.8679338271854107"><ele>46.0</ele><time>2026-04-09T09:15:45Z</time></trkpt><trkpt lat="42.676556526746694" lon="2.8681661171057247"><ele>46.0</ele><time>2026-04-09T09:15:46Z</time></trkpt><trkpt lat="42.67667692756927" lon="2.868397543880888"><ele>46.0</ele><time>2026-04-09T09:15:47Z</time></trkpt><trkpt lat="42.676797958282414" lon="2.8686308327929866"><ele>46.0</ele><time>2026-04-09T09:15:48Z</time></trkpt><trkpt lat="42.67691960233519" lon="2.8688641804085213"><ele>46.0</ele><time>2026-04-09T09:15:49Z</time></trkpt><trkpt lat="42.67704297883498" lon="2.869101563651992"><ele>46.0</ele><time>2026-04-09T09:15:50Z</time></trkpt><trkpt lat="42.67716352774595" lon="2.8693370226238892"><ele>45.0</ele><time>2026-04-09T09:15:51Z</time></trkpt><trkpt lat="42.67728668361894" lon="2.8695701809534873"><ele>44.0</ele><time>2026-04-09T09:15:52Z</time></trkpt><trkpt lat="42.67740832110723" lon="2.8698075338569162"><ele>43.0</ele><time>2026-04-09T09:15:53Z</time></trkpt><trkpt lat="42.677530875518556" lon="2.8700407030036263"><ele>43.66666666666667</ele><time>2026-04-09T09:15:54Z</time></trkpt><trkpt lat="42.677652952691886" lon="2.8702740268507334"><ele>44.333333333333336</ele><time>2026-04-09T09:15:55Z</time></trkpt><trkpt lat="42.6777744064321" lon="2.8705078988369626"><ele>45.0</ele><time>2026-04-09T09:15:56Z</time></trkpt><trkpt lat="42.677895803714655" lon="2.8707414601397088"><ele>44.0</ele><time>2026-04-09T09:15:57Z</time></trkpt><trkpt lat="42.67801813448216" lon="2.870975770662858"><ele>43.0</ele><time>2026-04-09T09:15:58Z</time></trkpt><trkpt lat="42.67814219451769" lon="2.871212510308309"><ele>42.0</ele><time>2026-04-09T09:15:59Z</time></trkpt><trkpt lat="42.67826079589334" lon="2.8714451548233915"><ele>42.0</ele><time>2026-04-09T09:16:00Z</time></trkpt><trkpt lat="42.67838017875408" lon="2.8716770311905715"><ele>42.0</ele><time>2026-04-09T09:16:01Z</time></trkpt><trkpt lat="42.67850081013632" lon="2.8719051002096037"><ele>42.0</ele><time>2026-04-09T09:16:02Z</time></trkpt><trkpt lat="42.67862261243236" lon="2.872126968589462"><ele>42.0</ele><time>2026-04-09T09:16:03Z</time></trkpt><trkpt lat="42.67874793592133" lon="2.872344949974197"><ele>42.0</ele><time>2026-04-09T09:16:04Z</time></trkpt><trkpt lat="42.67887921459442" lon="2.8725590889657617"><ele>42.0</ele><time>2026-04-09T09:16:05Z</time></trkpt><trkpt lat="42.67901317934113" lon="2.8727668611493833"><ele>41.666666666666664</ele><time>2026-04-09T09:16:06Z</time></trkpt><trkpt lat="42.67914996398126" lon="2.8729690072585843"><ele>41.33333333333333</ele><time>2026-04-09T09:16:07Z</time></trkpt><trkpt lat="42.67929131504346" lon="2.873170667797955"><ele>41.0</ele><time>2026-04-09T09:16:08Z</time></trkpt><trkpt lat="42.67943464526133" lon="2.8733681518173886"><ele>40.666666666666664</ele><time>2026-04-09T09:16:09Z</time></trkpt><trkpt lat="42.67958342709657" lon="2.873560347853782"><ele>40.333333333333336</ele><time>2026-04-09T09:16:10Z</time></trkpt><trkpt lat="42.679733660895465" lon="2.8737487823105488"><ele>40.0</ele><time>2026-04-09T09:16:11Z</time></trkpt><trkpt lat="42.67988172328199" lon="2.8739308781495505"><ele>40.0</ele><time>2026-04-09T09:16:12Z</time></trkpt><trkpt lat="42.68003040349085" lon="2.874113921019435"><ele>40.0</ele><time>2026-04-09T09:16:13Z</time></trkpt><trkpt lat="42.68017882102564" lon="2.8742920683413216"><ele>40.0</ele><time>2026-04-09T09:16:14Z</time></trkpt><trkpt lat="42.68032071012255" lon="2.874467171225282"><ele>40.333333333333336</ele><time>2026-04-09T09:16:15Z</time></trkpt><trkpt lat="42.68046084484474" lon="2.8746358714982048"><ele>40.666666666666664</ele><time>2026-04-09T09:16:16Z</time></trkpt><trkpt lat="42.68059926966026" lon="2.8748005673232147"><ele>41.0</ele><time>2026-04-09T09:16:17Z</time></trkpt><trkpt lat="42.68073455598064" lon="2.874963672484632"><ele>40.666666666666664</ele><time>2026-04-09T09:16:18Z</time></trkpt><trkpt lat="42.68086655155078" lon="2.8751211200900966"><ele>40.333333333333336</ele><time>2026-04-09T09:16:19Z</time></trkpt><trkpt lat="42.680995890429244" lon="2.8752770155025895"><ele>40.0</ele><time>2026-04-09T09:16:20Z</time></trkpt><trkpt lat="42.68111429204706" lon="2.8754259187936326"><ele>40.0</ele><time>2026-04-09T09:16:21Z</time></trkpt><trkpt lat="42.681220863601006" lon="2.875561611851744"><ele>40.0</ele><time>2026-04-09T09:16:22Z</time></trkpt><trkpt lat="42.6813184532517" lon="2.875697363793859"><ele>40.0</ele><time>2026-04-09T09:16:23Z</time></trkpt><trkpt lat="42.68141012469347" lon="2.8758376586472356"><ele>40.0</ele><time>2026-04-09T09:16:24Z</time></trkpt><trkpt lat="42.68149697037883" lon="2.875979634957713"><ele>40.25</ele><time>2026-04-09T09:16:25Z</time></trkpt><trkpt lat="42.68157754196973" lon="2.8761236341744425"><ele>40.5</ele><time>2026-04-09T09:16:26Z</time></trkpt><trkpt lat="42.681649425414115" lon="2.87627749503956"><ele>40.75</ele><time>2026-04-09T09:16:27Z</time></trkpt><trkpt lat="42.68170605467836" lon="2.876446196524225"><ele>41.0</ele><time>2026-04-09T09:16:28Z</time></trkpt><trkpt lat="42.68174587160164" lon="2.8766281616074236"><ele>41.25</ele><time>2026-04-09T09:16:29Z</time></trkpt><trkpt lat="42.68176666166943" lon="2.8768237744053407"><ele>41.5</ele><time>2026-04-09T09:16:30Z</time></trkpt><trkpt lat="42.68177239627602" lon="2.8770257919529656"><ele>41.75</ele><time>2026-04-09T09:16:31Z</time></trkpt><trkpt lat="42.68175229471369" lon="2.877226865158592"><ele>42.0</ele><time>2026-04-09T09:16:32Z</time></trkpt><trkpt lat="42.681714625345194" lon="2.877433746403197"><ele>41.333333333333336</ele><time>2026-04-09T09:16:33Z</time></trkpt><trkpt lat="42.68165500173207" lon="2.8776320210852218"><ele>40.66666666666667</ele><time>2026-04-09T09:16:34Z</time></trkpt><trkpt lat="42.68157445651849" lon="2.877818614584565"><ele>40.0</ele><time>2026-04-09T09:16:35Z</time></trkpt><trkpt lat="42.68146977145592" lon="2.877992342953132"><ele>40.0</ele><time>2026-04-09T09:16:36Z</time></trkpt><trkpt lat="42.681348644966256" lon="2.878152797133165"><ele>40.0</ele><time>2026-04-09T09:16:37Z</time></trkpt><trkpt lat="42.68121136504982" lon="2.878297682073183"><ele>40.0</ele><time>2026-04-09T09:16:38Z</time></trkpt><trkpt lat="42.68107295672638" lon="2.8784401146523866"><ele>39.0</ele><time>2026-04-09T09:16:39Z</time></trkpt><trkpt lat="42.68093531156567" lon="2.8785759314343635"><ele>38.0</ele><time>2026-04-09T09:16:40Z</time></trkpt><trkpt lat="42.68079749338909" lon="2.878704397853527"><ele>37.0</ele><time>2026-04-09T09:16:41Z</time></trkpt><trkpt lat="42.68065811488473" lon="2.8788252598195982"><ele>37.0</ele><time>2026-04-09T09:16:42Z</time></trkpt><trkpt lat="42.6805239052246" lon="2.878939361336113"><ele>37.0</ele><time>2026-04-09T09:16:43Z</time></trkpt><trkpt lat="42.680398265642275" lon="2.8790414512114673"><ele>37.0</ele><time>2026-04-09T09:16:44Z</time></trkpt><trkpt lat="42.68028511060251" lon="2.8791302342584704"><ele>37.0</ele><time>2026-04-09T09:16:45Z</time></trkpt><trkpt lat="42.68017734769687" lon="2.879209344709084"><ele>37.8</ele><time>2026-04-09T09:16:46Z</time></trkpt><trkpt lat="42.68007768759803" lon="2.87928066484389"><ele>38.6</ele><time>2026-04-09T09:16:47Z</time></trkpt><trkpt lat="42.67998467889668" lon="2.8793463433249586"><ele>39.4</ele><time>2026-04-09T09:16:48Z</time></trkpt><trkpt lat="42.67989773983174" lon="2.8794057774489876"><ele>40.199999999999996</ele><time>2026-04-09T09:16:49Z</time></trkpt><trkpt lat="42.67981781986072" lon="2.8794597453310447"><ele>41.0</ele><time>2026-04-09T09:16:50Z</time></trkpt><trkpt lat="42.67974574853982" lon="2.879510411154513"><ele>41.0</ele><time>2026-04-09T09:16:51Z</time></trkpt><trkpt lat="42.679677908488244" lon="2.8795571452124484"><ele>41.0</ele><time>2026-04-09T09:16:52Z</time></trkpt><trkpt lat="42.67961678232541" lon="2.87959961984318"><ele>41.0</ele><time>2026-04-09T09:16:53Z</time></trkpt><trkpt lat="42.67950882034724" lon="2.879675912564394"><ele>41.0</ele><time>2026-04-09T09:16:55Z</time></trkpt><trkpt lat="42.679409918288634" lon="2.8797468551298353"><ele>41.0</ele><time>2026-04-09T09:16:57Z</time></trkpt><trkpt lat="42.679320797148826" lon="2.879814921834973"><ele>40.8</ele><time>2026-04-09T09:16:59Z</time></trkpt><trkpt lat="42.67923369254436" lon="2.8798851956473888"><ele>40.599999999999994</ele><time>2026-04-09T09:17:01Z</time></trkpt><trkpt lat="42.67914510202158" lon="2.879955453437319"><ele>40.4</ele><time>2026-04-09T09:17:03Z</time></trkpt><trkpt lat="42.67904621494216" lon="2.88003043544708"><ele>40.2</ele><time>2026-04-09T09:17:05Z</time></trkpt><trkpt lat="42.678949394625874" lon="2.880110884832347"><ele>40.0</ele><time>2026-04-09T09:17:07Z</time></trkpt><trkpt lat="42.67889615174476" lon="2.880157072301732"><ele>40.0</ele><time>2026-04-09T09:17:08Z</time></trkpt><trkpt lat="42.67884309715124" lon="2.880204799609132"><ele>40.0</ele><time>2026-04-09T09:17:09Z</time></trkpt><trkpt lat="42.678790359611874" lon="2.880258040983154"><ele>40.0</ele><time>2026-04-09T09:17:10Z</time></trkpt><trkpt lat="42.678690716929964" lon="2.8803566910412886"><ele>40.0</ele><time>2026-04-09T09:17:12Z</time></trkpt><trkpt lat="42.67860153017054" lon="2.880444943215953"><ele>40.0</ele><time>2026-04-09T09:17:14Z</time></trkpt><trkpt lat="42.67852513107719" lon="2.8805017708711738"><ele>40.42857142857143</ele><time>2026-04-09T09:17:16Z</time></trkpt><trkpt lat="42.678461782004966" lon="2.8805327776086376"><ele>40.85714285714286</ele><time>2026-04-09T09:17:19Z</time></trkpt><trkpt lat="42.67839145095292" lon="2.880521558197637"><ele>41.28571428571429</ele><time>2026-04-09T09:17:28Z</time></trkpt><trkpt lat="42.678316095427284" lon="2.8805066888887736"><ele>41.714285714285715</ele><time>2026-04-09T09:17:32Z</time></trkpt><trkpt lat="42.67824082739455" lon="2.880498163306781"><ele>42.142857142857146</ele><time>2026-04-09T09:17:36Z</time></trkpt><trkpt lat="42.67816353358844" lon="2.8805273008332075"><ele>42.57142857142858</ele><time>2026-04-09T09:17:39Z</time></trkpt><trkpt lat="42.67810893785214" lon="2.8805764337235256"><ele>43.0</ele><time>2026-04-09T09:17:41Z</time></trkpt><trkpt lat="42.67804632974174" lon="2.8806632510130297"><ele>43.00000000000001</ele><time>2026-04-09T09:17:44Z</time></trkpt><trkpt lat="42.678014531763296" lon="2.880751847812485"><ele>43.0</ele><time>2026-04-09T09:17:47Z</time></trkpt><trkpt lat="42.677999788739044" lon="2.8808493170148344"><ele>43.0</ele><time>2026-04-09T09:17:50Z</time></trkpt><trkpt lat="42.67800970882835" lon="2.8809349196784746"><ele>43.0</ele><time>2026-04-09T09:17:54Z</time></trkpt><trkpt lat="42.678003389714824" lon="2.881030641248036"><ele>43.0</ele><time>2026-04-09T09:18:00Z</time></trkpt><trkpt lat="42.67797638646787" lon="2.8811300124669197"><ele>43.00000000000001</ele><time>2026-04-09T09:18:02Z</time></trkpt><trkpt lat="42.677932102426844" lon="2.881227528299642"><ele>43.0</ele><time>2026-04-09T09:18:04Z</time></trkpt><trkpt lat="42.67788687374448" lon="2.8812930688663516"><ele>43.0</ele><time>2026-04-09T09:18:06Z</time></trkpt><trkpt lat="42.67782537945712" lon="2.8813563402054045"><ele>43.0</ele><time>2026-04-09T09:18:09Z</time></trkpt><trkpt lat="42.67776730674628" lon="2.8814131673237977"><ele>43.0</ele><time>2026-04-09T09:18:13Z</time></trkpt><trkpt lat="42.677712413494454" lon="2.881469476535857"><ele>43.0</ele><time>2026-04-09T09:18:16Z</time></trkpt><trkpt lat="42.67765656632961" lon="2.881530440221814"><ele>43.0</ele><time>2026-04-09T09:18:20Z</time></trkpt><trkpt lat="42.67759159301144" lon="2.8815974938909683"><ele>43.0</ele><time>2026-04-09T09:18:25Z</time></trkpt><trkpt lat="42.67752281340945" lon="2.8816620526746752"><ele>43.0</ele><time>2026-04-09T09:18:28Z</time></trkpt><trkpt lat="42.677469843774205" lon="2.8817233304618752"><ele>43.0</ele><time>2026-04-09T09:18:30Z</time></trkpt><trkpt lat="42.67740547256473" lon="2.881804489107532"><ele>43.0</ele><time>2026-04-09T09:18:33Z</time></trkpt><trkpt lat="42.677340129039116" lon="2.881878426810467"><ele>43.0</ele><time>2026-04-09T09:18:36Z</time></trkpt><trkpt lat="42.67728507754329" lon="2.881935264179911"><ele>43.0</ele><time>2026-04-09T09:18:47Z</time></trkpt><trkpt lat="42.677210055924895" lon="2.8820170169390877"><ele>43.0</ele><time>2026-04-09T09:18:50Z</time></trkpt><trkpt lat="42.67715468218725" lon="2.882080070223777"><ele>43.66666666666667</ele><time>2026-04-09T09:18:52Z</time></trkpt><trkpt lat="42.67708556846794" lon="2.8821561080513627"><ele>44.333333333333336</ele><time>2026-04-09T09:18:54Z</time></trkpt><trkpt lat="42.67700284745013" lon="2.8822445997630393"><ele>45.0</ele><time>2026-04-09T09:18:56Z</time></trkpt><trkpt lat="42.676934271828316" lon="2.8823219880104296"><ele>45.666666666666664</ele><time>2026-04-09T09:18:58Z</time></trkpt><trkpt lat="42.67687952066379" lon="2.8823809098936928"><ele>46.33333333333333</ele><time>2026-04-09T09:19:00Z</time></trkpt><trkpt lat="42.67681055194298" lon="2.8824487086758888"><ele>47.0</ele><time>2026-04-09T09:19:03Z</time></trkpt><trkpt lat="42.67674608903724" lon="2.8825114216038186"><ele>47.5</ele><time>2026-04-09T09:19:06Z</time></trkpt><trkpt lat="42.67669174229273" lon="2.8825690039961893"><ele>48.0</ele><time>2026-04-09T09:19:09Z</time></trkpt><trkpt lat="42.676628326118326" lon="2.8826311826658504"><ele>48.5</ele><time>2026-04-09T09:19:13Z</time></trkpt><trkpt lat="42.67656646119947" lon="2.8826880237263897"><ele>49.0</ele><time>2026-04-09T09:19:17Z</time></trkpt><trkpt lat="42.67650764977598" lon="2.882737707850464"><ele>49.50000000000001</ele><time>2026-04-09T09:19:33Z</time></trkpt><trkpt lat="42.67644889938535" lon="2.8827948736690705"><ele>50.0</ele><time>2026-04-09T09:19:36Z</time></trkpt><trkpt lat="42.676375694643575" lon="2.882870261827292"><ele>50.00000000000001</ele><time>2026-04-09T09:19:39Z</time></trkpt><trkpt lat="42.67630943633985" lon="2.88293992081944"><ele>50.0</ele><time>2026-04-09T09:19:41Z</time></trkpt><trkpt lat="42.67624257984484" lon="2.8830163343300073"><ele>50.0</ele><time>2026-04-09T09:19:43Z</time></trkpt><trkpt lat="42.67617830152013" lon="2.883085862255741"><ele>50.0</ele><time>2026-04-09T09:19:45Z</time></trkpt><trkpt lat="42.676116123098744" lon="2.883157632689282"><ele>50.00000000000001</ele><time>2026-04-09T09:19:47Z</time></trkpt><trkpt lat="42.67606252351181" lon="2.883222433373806"><ele>50.0</ele><time>2026-04-09T09:19:49Z</time></trkpt><trkpt lat="42.67600653194783" lon="2.8832842680200583"><ele>50.28571428571429</ele><time>2026-04-09T09:19:51Z</time></trkpt><trkpt lat="42.67595820890507" lon="2.8833423305587735"><ele>50.57142857142857</ele><time>2026-04-09T09:19:53Z</time></trkpt><trkpt lat="42.6759071294448" lon="2.883405845398023"><ele>50.85714285714286</ele><time>2026-04-09T09:20:02Z</time></trkpt><trkpt lat="42.67585502693901" lon="2.8834765819797195"><ele>51.142857142857146</ele><time>2026-04-09T09:20:05Z</time></trkpt><trkpt lat="42.675809459655895" lon="2.883538952560348"><ele>51.42857142857143</ele><time>2026-04-09T09:20:07Z</time></trkpt><trkpt lat="42.67575703928134" lon="2.883614564714263"><ele>51.714285714285715</ele><time>2026-04-09T09:20:10Z</time></trkpt><trkpt lat="42.675698262137004" lon="2.883698030803003"><ele>52.0</ele><time>2026-04-09T09:20:13Z</time></trkpt><trkpt lat="42.67565442618872" lon="2.883763644931352"><ele>51.166666666666664</ele><time>2026-04-09T09:20:15Z</time></trkpt><trkpt lat="42.67560312691017" lon="2.8838484125196886"><ele>50.33333333333333</ele><time>2026-04-09T09:20:18Z</time></trkpt><trkpt lat="42.67556373443549" lon="2.883921095923676"><ele>49.5</ele><time>2026-04-09T09:20:22Z</time></trkpt><trkpt lat="42.675520784717015" lon="2.8839982295501505"><ele>48.666666666666664</ele><time>2026-04-09T09:20:26Z</time></trkpt><trkpt lat="42.675474015716865" lon="2.8840850355077383"><ele>47.83333333333333</ele><time>2026-04-09T09:20:30Z</time></trkpt><trkpt lat="42.675432468282374" lon="2.8841620628078593"><ele>47.0</ele><time>2026-04-09T09:20:34Z</time></trkpt><trkpt lat="42.675382937558396" lon="2.8842546898229857"><ele>47.0</ele><time>2026-04-09T09:20:41Z</time></trkpt><trkpt lat="42.67534013453206" lon="2.8843356259369597"><ele>47.0</ele><time>2026-04-09T09:20:45Z</time></trkpt><trkpt lat="42.67530404638011" lon="2.8844139317032376"><ele>47.0</ele><time>2026-04-09T09:20:49Z</time></trkpt><trkpt lat="42.6752639667419" lon="2.8844888192456897"><ele>47.0</ele><time>2026-04-09T09:20:54Z</time></trkpt><trkpt lat="42.67521917172364" lon="2.88458072323313"><ele>47.0</ele><time>2026-04-09T09:21:00Z</time></trkpt><trkpt lat="42.67518435408602" lon="2.884663299101657"><ele>47.0</ele><time>2026-04-09T09:21:04Z</time></trkpt><trkpt lat="42.6751544689926" lon="2.8847711636090185"><ele>47.0</ele><time>2026-04-09T09:21:21Z</time></trkpt><trkpt lat="42.67511412454602" lon="2.8848706055375257"><ele>46.8</ele><time>2026-04-09T09:21:24Z</time></trkpt><trkpt lat="42.67507900811505" lon="2.8849528396729704"><ele>46.6</ele><time>2026-04-09T09:21:26Z</time></trkpt><trkpt lat="42.67503286279472" lon="2.8850692657112553"><ele>46.4</ele><time>2026-04-09T09:21:28Z</time></trkpt><trkpt lat="42.67497436656095" lon="2.885208790961532"><ele>46.199999999999996</ele><time>2026-04-09T09:21:30Z</time></trkpt><trkpt lat="42.674919595415155" lon="2.885344664332878"><ele>46.0</ele><time>2026-04-09T09:21:32Z</time></trkpt><trkpt lat="42.674866409179415" lon="2.885481632386852"><ele>46.0</ele><time>2026-04-09T09:21:34Z</time></trkpt><trkpt lat="42.674836532703" lon="2.885557922443366"><ele>46.0</ele><time>2026-04-09T09:21:35Z</time></trkpt><trkpt lat="42.674807553606975" lon="2.8856396259408226"><ele>46.0</ele><time>2026-04-09T09:21:36Z</time></trkpt><trkpt lat="42.67477722645217" lon="2.885723063456464"><ele>46.0</ele><time>2026-04-09T09:21:37Z</time></trkpt><trkpt lat="42.674747427341714" lon="2.8858032551260244"><ele>46.0</ele><time>2026-04-09T09:21:38Z</time></trkpt><trkpt lat="42.67471789754449" lon="2.8858827665548725"><ele>46.0</ele><time>2026-04-09T09:21:39Z</time></trkpt><trkpt lat="42.67468742583933" lon="2.8859637195426164"><ele>46.0</ele><time>2026-04-09T09:21:40Z</time></trkpt><trkpt lat="42.67465605864454" lon="2.8860451794057593"><ele>46.285714285714285</ele><time>2026-04-09T09:21:41Z</time></trkpt><trkpt lat="42.674621508823286" lon="2.8861303280912973"><ele>46.57142857142857</ele><time>2026-04-09T09:21:42Z</time></trkpt><trkpt lat="42.67458713162863" lon="2.88621582450689"><ele>46.857142857142854</ele><time>2026-04-09T09:21:43Z</time></trkpt><trkpt lat="42.67455131816049" lon="2.8863008204734637"><ele>47.14285714285714</ele><time>2026-04-09T09:21:44Z</time></trkpt><trkpt lat="42.674514707276835" lon="2.8863864767203773"><ele>47.42857142857143</ele><time>2026-04-09T09:21:45Z</time></trkpt><trkpt lat="42.674484987763115" lon="2.886469365228888"><ele>47.71428571428571</ele><time>2026-04-09T09:21:46Z</time></trkpt><trkpt lat="42.67445105992243" lon="2.886544699573114"><ele>48.0</ele><time>2026-04-09T09:21:47Z</time></trkpt><trkpt lat="42.67439012135162" lon="2.8866751979335388"><ele>48.14285714285714</ele><time>2026-04-09T09:21:49Z</time></trkpt><trkpt lat="42.674346497468356" lon="2.886771849033354"><ele>48.285714285714285</ele><time>2026-04-09T09:21:51Z</time></trkpt><trkpt lat="42.674307556401125" lon="2.8868514483534593"><ele>48.42857142857143</ele><time>2026-04-09T09:21:59Z</time></trkpt><trkpt lat="42.67427185611678" lon="2.886933513932108"><ele>48.57142857142857</ele><time>2026-04-09T09:22:02Z</time></trkpt><trkpt lat="42.67423537382436" lon="2.887018214817885"><ele>48.714285714285715</ele><time>2026-04-09T09:22:17Z</time></trkpt><trkpt lat="42.67419648640717" lon="2.887085884148722"><ele>48.857142857142854</ele><time>2026-04-09T09:22:25Z</time></trkpt><trkpt lat="42.67415212979709" lon="2.8871570752001903"><ele>49.0</ele><time>2026-04-09T09:22:33Z</time></trkpt><trkpt lat="42.67410939335559" lon="2.887240979140948"><ele>48.99999999999999</ele><time>2026-04-09T09:22:36Z</time></trkpt><trkpt lat="42.67405285170102" lon="2.887345034269"><ele>49.0</ele><time>2026-04-09T09:22:39Z</time></trkpt><trkpt lat="42.674014410388395" lon="2.8874164144706986"><ele>49.0</ele><time>2026-04-09T09:22:42Z</time></trkpt><trkpt lat="42.67395372531397" lon="2.8874512013404035"><ele>49.0</ele><time>2026-04-09T09:22:44Z</time></trkpt><trkpt lat="42.67386883678539" lon="2.8874621902872013"><ele>48.99999999999999</ele><time>2026-04-09T09:22:46Z</time></trkpt><trkpt lat="42.673741973926056" lon="2.8875264147814743"><ele>49.0</ele><time>2026-04-09T09:22:48Z</time></trkpt><trkpt lat="42.67366618244049" lon="2.8875357437421587"><ele>49.33333333333333</ele><time>2026-04-09T09:22:49Z</time></trkpt><trkpt lat="42.673595245358875" lon="2.8875174147764615"><ele>49.666666666666664</ele><time>2026-04-09T09:22:50Z</time></trkpt><trkpt lat="42.67352351565624" lon="2.887466601096919"><ele>50.0</ele><time>2026-04-09T09:22:51Z</time></trkpt><trkpt lat="42.673443928380685" lon="2.8874078917617636"><ele>50.33333333333333</ele><time>2026-04-09T09:22:52Z</time></trkpt><trkpt lat="42.67335865541826" lon="2.887337927095915"><ele>50.666666666666664</ele><time>2026-04-09T09:22:53Z</time></trkpt><trkpt lat="42.67327374866346" lon="2.887266731494663"><ele>51.0</ele><time>2026-04-09T09:22:54Z</time></trkpt><trkpt lat="42.67318775556253" lon="2.887198592929048"><ele>51.0</ele><time>2026-04-09T09:22:55Z</time></trkpt><trkpt lat="42.673098268305175" lon="2.8871298638627034"><ele>51.0</ele><time>2026-04-09T09:22:56Z</time></trkpt><trkpt lat="42.67299871826409" lon="2.887055774512005"><ele>51.0</ele><time>2026-04-09T09:22:57Z</time></trkpt><trkpt lat="42.672894757542295" lon="2.8869765880904414"><ele>51.0</ele><time>2026-04-09T09:22:58Z</time></trkpt><trkpt lat="42.672784145105304" lon="2.886890406681478"><ele>51.5</ele><time>2026-04-09T09:22:59Z</time></trkpt><trkpt lat="42.67266605520934" lon="2.886799046319971"><ele>52.0</ele><time>2026-04-09T09:23:00Z</time></trkpt><trkpt lat="42.672542610880114" lon="2.886704313164766"><ele>52.5</ele><time>2026-04-09T09:23:01Z</time></trkpt><trkpt lat="42.672409804866156" lon="2.8866045134247065"><ele>53.0</ele><time>2026-04-09T09:23:02Z</time></trkpt><trkpt lat="42.67228121312459" lon="2.886507727873259"><ele>54.0</ele><time>2026-04-09T09:23:03Z</time></trkpt><trkpt lat="42.672152855814886" lon="2.8864103454619925"><ele>55.0</ele><time>2026-04-09T09:23:04Z</time></trkpt><trkpt lat="42.67201854784775" lon="2.886309052564418"><ele>56.0</ele><time>2026-04-09T09:23:05Z</time></trkpt><trkpt lat="42.67188314144224" lon="2.886204127335423"><ele>57.0</ele><time>2026-04-09T09:23:06Z</time></trkpt><trkpt lat="42.671749505216376" lon="2.8861026106297913"><ele>58.0</ele><time>2026-04-09T09:23:07Z</time></trkpt><trkpt lat="42.671617113574726" lon="2.8860004385671783"><ele>59.0</ele><time>2026-04-09T09:23:08Z</time></trkpt><trkpt lat="42.67148546729958" lon="2.8858992907282333"><ele>59.66666666666667</ele><time>2026-04-09T09:23:09Z</time></trkpt><trkpt lat="42.67135387095689" lon="2.8857942099173863"><ele>60.33333333333333</ele><time>2026-04-09T09:23:10Z</time></trkpt><trkpt lat="42.67122343127694" lon="2.8856907378321046"><ele>61.0</ele><time>2026-04-09T09:23:11Z</time></trkpt><trkpt lat="42.671088450420825" lon="2.8855807398473208"><ele>62.666666666666664</ele><time>2026-04-09T09:23:12Z</time></trkpt><trkpt lat="42.67095007140803" lon="2.885470030227046"><ele>64.33333333333333</ele><time>2026-04-09T09:23:13Z</time></trkpt><trkpt lat="42.67080983268331" lon="2.8853635934148"><ele>66.0</ele><time>2026-04-09T09:23:14Z</time></trkpt><trkpt lat="42.670668615315996" lon="2.8852639351729272"><ele>66.0</ele><time>2026-04-09T09:23:15Z</time></trkpt><trkpt lat="42.670522408815664" lon="2.88516572839094"><ele>66.0</ele><time>2026-04-09T09:23:16Z</time></trkpt><trkpt lat="42.67037141475281" lon="2.88507453777922"><ele>66.0</ele><time>2026-04-09T09:23:17Z</time></trkpt><trkpt lat="42.670213089670895" lon="2.8849865358971942"><ele>65.66666666666667</ele><time>2026-04-09T09:23:18Z</time></trkpt><trkpt lat="42.67004810108684" lon="2.8849012340204343"><ele>65.33333333333334</ele><time>2026-04-09T09:23:19Z</time></trkpt><trkpt lat="42.66988123462999" lon="2.8848266483083465"><ele>65.0</ele><time>2026-04-09T09:23:20Z</time></trkpt><trkpt lat="42.66970739496464" lon="2.884756719965167"><ele>65.0</ele><time>2026-04-09T09:23:21Z</time></trkpt><trkpt lat="42.669532717074325" lon="2.8846853704484383"><ele>65.0</ele><time>2026-04-09T09:23:22Z</time></trkpt><trkpt lat="42.669355941562515" lon="2.884614473954207"><ele>65.0</ele><time>2026-04-09T09:23:23Z</time></trkpt><trkpt lat="42.66917798324967" lon="2.8845467767803608"><ele>64.0</ele><time>2026-04-09T09:23:24Z</time></trkpt><trkpt lat="42.668995363018254" lon="2.8844855288083266"><ele>63.0</ele><time>2026-04-09T09:23:25Z</time></trkpt><trkpt lat="42.66881100507502" lon="2.8844320665854166"><ele>62.0</ele><time>2026-04-09T09:23:26Z</time></trkpt><trkpt lat="42.66862453803309" lon="2.8843845299392394"><ele>61.333333333333336</ele><time>2026-04-09T09:23:27Z</time></trkpt><trkpt lat="42.66843711679197" lon="2.8843430209238434"><ele>60.66666666666667</ele><time>2026-04-09T09:23:28Z</time></trkpt><trkpt lat="42.66824815077122" lon="2.8843048581728956"><ele>60.0</ele><time>2026-04-09T09:23:29Z</time></trkpt><trkpt lat="42.668057803628564" lon="2.884269223197648"><ele>60.33333333333333</ele><time>2026-04-09T09:23:30Z</time></trkpt><trkpt lat="42.66786606116601" lon="2.884234680975504"><ele>60.666666666666664</ele><time>2026-04-09T09:23:31Z</time></trkpt><trkpt lat="42.66767491461888" lon="2.8841999809484697"><ele>61.0</ele><time>2026-04-09T09:23:32Z</time></trkpt><trkpt lat="42.66748361355547" lon="2.88416118922932"><ele>60.0</ele><time>2026-04-09T09:23:33Z</time></trkpt><trkpt lat="42.66729350448718" lon="2.884128782515322"><ele>59.0</ele><time>2026-04-09T09:23:34Z</time></trkpt><trkpt lat="42.66710045317469" lon="2.884095445571403"><ele>58.0</ele><time>2026-04-09T09:23:35Z</time></trkpt><trkpt lat="42.6669051636508" lon="2.8840645148543884"><ele>57.33333333333333</ele><time>2026-04-09T09:23:36Z</time></trkpt><trkpt lat="42.66671075891736" lon="2.8840339617072974"><ele>56.66666666666667</ele><time>2026-04-09T09:23:37Z</time></trkpt><trkpt lat="42.66652089126846" lon="2.8840058251472285"><ele>56.0</ele><time>2026-04-09T09:23:38Z</time></trkpt><trkpt lat="42.666332815782475" lon="2.8839724224543133"><ele>56.0</ele><time>2026-04-09T09:23:39Z</time></trkpt><trkpt lat="42.66614560198136" lon="2.8839451793691993"><ele>56.0</ele><time>2026-04-09T09:23:40Z</time></trkpt><trkpt lat="42.66595545731364" lon="2.883925617883092"><ele>56.0</ele><time>2026-04-09T09:23:41Z</time></trkpt><trkpt lat="42.665770238813195" lon="2.88390781165233"><ele>56.0</ele><time>2026-04-09T09:23:42Z</time></trkpt><trkpt lat="42.665587820669685" lon="2.883888325789173"><ele>56.0</ele><time>2026-04-09T09:23:43Z</time></trkpt><trkpt lat="42.665404121815925" lon="2.8838672718063685"><ele>56.0</ele><time>2026-04-09T09:23:44Z</time></trkpt><trkpt lat="42.66522220268035" lon="2.883847861002656"><ele>55.66666666666667</ele><time>2026-04-09T09:23:45Z</time></trkpt><trkpt lat="42.66504146694648" lon="2.8838308365594005"><ele>55.33333333333333</ele><time>2026-04-09T09:23:46Z</time></trkpt><trkpt lat="42.66486053838159" lon="2.8838116309705986"><ele>55.0</ele><time>2026-04-09T09:23:47Z</time></trkpt><trkpt lat="42.66467968435103" lon="2.8837924853994683"><ele>55.0</ele><time>2026-04-09T09:23:48Z</time></trkpt><trkpt lat="42.66449870292351" lon="2.8837729966001997"><ele>55.0</ele><time>2026-04-09T09:23:49Z</time></trkpt><trkpt lat="42.66431629439001" lon="2.8837497032283443"><ele>55.0</ele><time>2026-04-09T09:23:50Z</time></trkpt><trkpt lat="42.664134239785504" lon="2.8837250309070463"><ele>54.33333333333333</ele><time>2026-04-09T09:23:51Z</time></trkpt><trkpt lat="42.66395234566666" lon="2.883699130305989"><ele>53.66666666666667</ele><time>2026-04-09T09:23:52Z</time></trkpt><trkpt lat="42.663769569322206" lon="2.883670917681234"><ele>53.0</ele><time>2026-04-09T09:23:53Z</time></trkpt><trkpt lat="42.66358669047725" lon="2.883639091734622"><ele>51.66666666666667</ele><time>2026-04-09T09:23:54Z</time></trkpt><trkpt lat="42.66340308028826" lon="2.8836079915137915"><ele>50.33333333333333</ele><time>2026-04-09T09:23:55Z</time></trkpt><trkpt lat="42.66321960257163" lon="2.8835766347274143"><ele>49.0</ele><time>2026-04-09T09:23:56Z</time></trkpt><trkpt lat="42.66303871392027" lon="2.88354797770347"><ele>49.0</ele><time>2026-04-09T09:23:57Z</time></trkpt><trkpt lat="42.66285847729136" lon="2.883516134274537"><ele>49.0</ele><time>2026-04-09T09:23:58Z</time></trkpt><trkpt lat="42.66267960350319" lon="2.88348706053636"><ele>49.0</ele><time>2026-04-09T09:23:59Z</time></trkpt><trkpt lat="42.66250006103148" lon="2.8834566705985094"><ele>49.0</ele><time>2026-04-09T09:24:00Z</time></trkpt><trkpt lat="42.66232463081834" lon="2.883428306499117"><ele>49.0</ele><time>2026-04-09T09:24:01Z</time></trkpt><trkpt lat="42.66214714028258" lon="2.8833999533264074"><ele>49.0</ele><time>2026-04-09T09:24:02Z</time></trkpt><trkpt lat="42.661972914089766" lon="2.8833709551317606"><ele>49.0</ele><time>2026-04-09T09:24:03Z</time></trkpt><trkpt lat="42.66179865073714" lon="2.8833414817061773"><ele>49.0</ele><time>2026-04-09T09:24:04Z</time></trkpt><trkpt lat="42.66162606642502" lon="2.8833126041808677"><ele>49.0</ele><time>2026-04-09T09:24:05Z</time></trkpt><trkpt lat="42.66144970829319" lon="2.8832822041047512"><ele>49.0</ele><time>2026-04-09T09:24:06Z</time></trkpt><trkpt lat="42.661273450836255" lon="2.8832529470671755"><ele>49.0</ele><time>2026-04-09T09:24:07Z</time></trkpt><trkpt lat="42.66109775706032" lon="2.8832237766146083"><ele>49.0</ele><time>2026-04-09T09:24:08Z</time></trkpt><trkpt lat="42.66091890352543" lon="2.8831945220985506"><ele>48.666666666666664</ele><time>2026-04-09T09:24:09Z</time></trkpt><trkpt lat="42.660739480471044" lon="2.883165611005464"><ele>48.33333333333333</ele><time>2026-04-09T09:24:10Z</time></trkpt><trkpt lat="42.66055913398649" lon="2.8831384709161547"><ele>48.0</ele><time>2026-04-09T09:24:11Z</time></trkpt><trkpt lat="42.66038012861729" lon="2.8831129192055664"><ele>47.666666666666664</ele><time>2026-04-09T09:24:12Z</time></trkpt><trkpt lat="42.660201025982495" lon="2.883082493881249"><ele>47.33333333333333</ele><time>2026-04-09T09:24:13Z</time></trkpt><trkpt lat="42.6600186485118" lon="2.883050377273404"><ele>47.0</ele><time>2026-04-09T09:24:14Z</time></trkpt><trkpt lat="42.65983746185595" lon="2.8830202153475617"><ele>47.0</ele><time>2026-04-09T09:24:15Z</time></trkpt><trkpt lat="42.65965775156766" lon="2.882991940098016"><ele>47.0</ele><time>2026-04-09T09:24:16Z</time></trkpt><trkpt lat="42.65947703678271" lon="2.8829632931411355"><ele>47.0</ele><time>2026-04-09T09:24:17Z</time></trkpt><trkpt lat="42.6592957173335" lon="2.8829323943853233"><ele>46.666666666666664</ele><time>2026-04-09T09:24:18Z</time></trkpt><trkpt lat="42.659115401033915" lon="2.8829032669752337"><ele>46.333333333333336</ele><time>2026-04-09T09:24:19Z</time></trkpt><trkpt lat="42.65893514709697" lon="2.88287238523252"><ele>46.0</ele><time>2026-04-09T09:24:20Z</time></trkpt><trkpt lat="42.658752340558806" lon="2.882840481839725"><ele>46.66666666666667</ele><time>2026-04-09T09:24:21Z</time></trkpt><trkpt lat="42.65857077460187" lon="2.8828113032680833"><ele>47.333333333333336</ele><time>2026-04-09T09:24:22Z</time></trkpt><trkpt lat="42.65839181886507" lon="2.8827828482256064"><ele>48.0</ele><time>2026-04-09T09:24:23Z</time></trkpt><trkpt lat="42.65821738879352" lon="2.8827550568092497"><ele>48.0</ele><time>2026-04-09T09:24:24Z</time></trkpt><trkpt lat="42.65804375644483" lon="2.8827256297668997"><ele>48.0</ele><time>2026-04-09T09:24:25Z</time></trkpt><trkpt lat="42.6578728694468" lon="2.882697268386349"><ele>48.0</ele><time>2026-04-09T09:24:26Z</time></trkpt><trkpt lat="42.6577084358454" lon="2.8826693533529664"><ele>48.0</ele><time>2026-04-09T09:24:27Z</time></trkpt><trkpt lat="42.657546359523366" lon="2.8826429761928343"><ele>48.0</ele><time>2026-04-09T09:24:28Z</time></trkpt><trkpt lat="42.65738480601918" lon="2.882617134568392"><ele>48.0</ele><time>2026-04-09T09:24:29Z</time></trkpt><trkpt lat="42.65722435197281" lon="2.882589309721703"><ele>48.33333333333333</ele><time>2026-04-09T09:24:30Z</time></trkpt><trkpt lat="42.65706730187833" lon="2.882565053497953"><ele>48.666666666666664</ele><time>2026-04-09T09:24:31Z</time></trkpt><trkpt lat="42.65690833280331" lon="2.8825392716945157"><ele>49.0</ele><time>2026-04-09T09:24:32Z</time></trkpt><trkpt lat="42.65675027298267" lon="2.8825132513146468"><ele>49.0</ele><time>2026-04-09T09:24:33Z</time></trkpt><trkpt lat="42.656590047828345" lon="2.8824882294220533"><ele>49.0</ele><time>2026-04-09T09:24:34Z</time></trkpt><trkpt lat="42.656430255093824" lon="2.8824631068074575"><ele>49.0</ele><time>2026-04-09T09:24:35Z</time></trkpt><trkpt lat="42.65626717469442" lon="2.882435881241344"><ele>49.0</ele><time>2026-04-09T09:24:36Z</time></trkpt><trkpt lat="42.65610272507104" lon="2.8824081688258874"><ele>49.0</ele><time>2026-04-09T09:24:37Z</time></trkpt><trkpt lat="42.655935223424635" lon="2.882381611225432"><ele>49.0</ele><time>2026-04-09T09:24:38Z</time></trkpt><trkpt lat="42.65576550322118" lon="2.882353751239582"><ele>49.0</ele><time>2026-04-09T09:24:39Z</time></trkpt><trkpt lat="42.6555932456926" lon="2.882324110927573"><ele>49.0</ele><time>2026-04-09T09:24:40Z</time></trkpt><trkpt lat="42.655418903311876" lon="2.882295419993627"><ele>49.0</ele><time>2026-04-09T09:24:41Z</time></trkpt><trkpt lat="42.65524349703351" lon="2.8822646047870766"><ele>49.666666666666664</ele><time>2026-04-09T09:24:42Z</time></trkpt><trkpt lat="42.655066777191486" lon="2.882234118265559"><ele>50.33333333333333</ele><time>2026-04-09T09:24:43Z</time></trkpt><trkpt lat="42.6548914276516" lon="2.8821978237621146"><ele>51.0</ele><time>2026-04-09T09:24:44Z</time></trkpt><trkpt lat="42.654719212905775" lon="2.8821504118627996"><ele>51.0</ele><time>2026-04-09T09:24:45Z</time></trkpt><trkpt lat="42.65454770769584" lon="2.882089472700024"><ele>51.0</ele><time>2026-04-09T09:24:46Z</time></trkpt><trkpt lat="42.654378285824215" lon="2.882017633095287"><ele>51.0</ele><time>2026-04-09T09:24:47Z</time></trkpt><trkpt lat="42.654210000559544" lon="2.8819320315753583"><ele>52.33333333333333</ele><time>2026-04-09T09:24:48Z</time></trkpt><trkpt lat="42.65404277513737" lon="2.8818392600192495"><ele>53.666666666666664</ele><time>2026-04-09T09:24:49Z</time></trkpt><trkpt lat="42.65387753225542" lon="2.881740888655912"><ele>55.0</ele><time>2026-04-09T09:24:50Z</time></trkpt><trkpt lat="42.65371306763206" lon="2.881640118788929"><ele>54.33333333333333</ele><time>2026-04-09T09:24:51Z</time></trkpt><trkpt lat="42.65354675174542" lon="2.881542006354724"><ele>53.66666666666667</ele><time>2026-04-09T09:24:52Z</time></trkpt><trkpt lat="42.65338012721099" lon="2.881443058901948"><ele>53.0</ele><time>2026-04-09T09:24:53Z</time></trkpt><trkpt lat="42.653213257292954" lon="2.8813437316205386"><ele>53.0</ele><time>2026-04-09T09:24:54Z</time></trkpt><trkpt lat="42.65304626698333" lon="2.8812437791751684"><ele>53.0</ele><time>2026-04-09T09:24:55Z</time></trkpt><trkpt lat="42.65287933820248" lon="2.881144666645807"><ele>53.0</ele><time>2026-04-09T09:24:56Z</time></trkpt><trkpt lat="42.65271302056262" lon="2.88104485609176"><ele>53.0</ele><time>2026-04-09T09:24:57Z</time></trkpt><trkpt lat="42.652546480620074" lon="2.8809491109536776"><ele>53.0</ele><time>2026-04-09T09:24:58Z</time></trkpt><trkpt lat="42.65237859339584" lon="2.8808567647923367"><ele>53.0</ele><time>2026-04-09T09:24:59Z</time></trkpt><trkpt lat="42.652207424513016" lon="2.8807688779468674"><ele>53.0</ele><time>2026-04-09T09:25:00Z</time></trkpt><trkpt lat="42.652036936893076" lon="2.8806880394406633"><ele>53.0</ele><time>2026-04-09T09:25:01Z</time></trkpt><trkpt lat="42.651863094754766" lon="2.8806083282203074"><ele>53.0</ele><time>2026-04-09T09:25:02Z</time></trkpt><trkpt lat="42.65168728404317" lon="2.8805287094085177"><ele>53.0</ele><time>2026-04-09T09:25:03Z</time></trkpt><trkpt lat="42.65151157112415" lon="2.8804447802780326"><ele>53.0</ele><time>2026-04-09T09:25:04Z</time></trkpt><trkpt lat="42.65133605151588" lon="2.8803632855639862"><ele>53.0</ele><time>2026-04-09T09:25:05Z</time></trkpt><trkpt lat="42.65116096110141" lon="2.8802825775826775"><ele>53.333333333333336</ele><time>2026-04-09T09:25:06Z</time></trkpt><trkpt lat="42.65098608336359" lon="2.8802031812118445"><ele>53.66666666666667</ele><time>2026-04-09T09:25:07Z</time></trkpt><trkpt lat="42.650813998654925" lon="2.880122538868055"><ele>54.0</ele><time>2026-04-09T09:25:08Z</time></trkpt><trkpt lat="42.65063983457222" lon="2.8800423844914707"><ele>53.33333333333333</ele><time>2026-04-09T09:25:09Z</time></trkpt><trkpt lat="42.65046677522026" lon="2.8799637558087308"><ele>52.666666666666664</ele><time>2026-04-09T09:25:10Z</time></trkpt><trkpt lat="42.650295318627784" lon="2.879885105407955"><ele>52.0</ele><time>2026-04-09T09:25:11Z</time></trkpt><trkpt lat="42.650123503822364" lon="2.8798063056412597"><ele>51.666666666666664</ele><time>2026-04-09T09:25:12Z</time></trkpt><trkpt lat="42.64994944625934" lon="2.8797269501489944"><ele>51.33333333333333</ele><time>2026-04-09T09:25:13Z</time></trkpt><trkpt lat="42.64977701385277" lon="2.879649924260504"><ele>51.0</ele><time>2026-04-09T09:25:14Z</time></trkpt><trkpt lat="42.64960330955546" lon="2.8795700891495146"><ele>50.66666666666667</ele><time>2026-04-09T09:25:15Z</time></trkpt><trkpt lat="42.64943100583411" lon="2.8794914737294732"><ele>50.333333333333336</ele><time>2026-04-09T09:25:16Z</time></trkpt><trkpt lat="42.649257970839564" lon="2.8794126501316764"><ele>50.0</ele><time>2026-04-09T09:25:17Z</time></trkpt><trkpt lat="42.649083704682546" lon="2.879331498618967"><ele>50.0</ele><time>2026-04-09T09:25:18Z</time></trkpt><trkpt lat="42.64890802022123" lon="2.8792508019477405"><ele>50.0</ele><time>2026-04-09T09:25:19Z</time></trkpt><trkpt lat="42.648731347257474" lon="2.8791714110991644"><ele>50.0</ele><time>2026-04-09T09:25:20Z</time></trkpt><trkpt lat="42.648555361459806" lon="2.879093000945355"><ele>49.66666666666667</ele><time>2026-04-09T09:25:21Z</time></trkpt><trkpt lat="42.6483780988571" lon="2.8790131618065713"><ele>49.33333333333333</ele><time>2026-04-09T09:25:22Z</time></trkpt><trkpt lat="42.64820173589863" lon="2.878930528673134"><ele>49.0</ele><time>2026-04-09T09:25:23Z</time></trkpt><trkpt lat="42.64802384424326" lon="2.8788496071323726"><ele>49.0</ele><time>2026-04-09T09:25:24Z</time></trkpt><trkpt lat="42.64784619201153" lon="2.8787676986159174"><ele>49.0</ele><time>2026-04-09T09:25:25Z</time></trkpt><trkpt lat="42.64766917796329" lon="2.878686411500727"><ele>49.0</ele><time>2026-04-09T09:25:26Z</time></trkpt><trkpt lat="42.64749315125061" lon="2.8786039448379914"><ele>48.33333333333333</ele><time>2026-04-09T09:25:27Z</time></trkpt><trkpt lat="42.64731730091233" lon="2.8785218845980363"><ele>47.666666666666664</ele><time>2026-04-09T09:25:28Z</time></trkpt><trkpt lat="42.647139085993196" lon="2.8784399984157916"><ele>47.0</ele><time>2026-04-09T09:25:29Z</time></trkpt><trkpt lat="42.6469625299985" lon="2.8783594480787023"><ele>46.666666666666664</ele><time>2026-04-09T09:25:30Z</time></trkpt><trkpt lat="42.6467848707536" lon="2.878278430637627"><ele>46.333333333333336</ele><time>2026-04-09T09:25:31Z</time></trkpt><trkpt lat="42.646604909098336" lon="2.87819416657809"><ele>46.0</ele><time>2026-04-09T09:25:32Z</time></trkpt><trkpt lat="42.64642544491375" lon="2.8781105566450096"><ele>46.0</ele><time>2026-04-09T09:25:33Z</time></trkpt><trkpt lat="42.64624424844953" lon="2.8780261373212346"><ele>46.0</ele><time>2026-04-09T09:25:34Z</time></trkpt><trkpt lat="42.64606407287123" lon="2.877940673708097"><ele>46.0</ele><time>2026-04-09T09:25:35Z</time></trkpt><trkpt lat="42.64588516267592" lon="2.877852304559554"><ele>45.66666666666667</ele><time>2026-04-09T09:25:36Z</time></trkpt><trkpt lat="42.64570900365508" lon="2.8777616198729215"><ele>45.333333333333336</ele><time>2026-04-09T09:25:37Z</time></trkpt><trkpt lat="42.645532569151236" lon="2.877671291266238"><ele>45.0</ele><time>2026-04-09T09:25:38Z</time></trkpt><trkpt lat="42.645353741164364" lon="2.8775864885315032"><ele>46.0</ele><time>2026-04-09T09:25:39Z</time></trkpt><trkpt lat="42.64517331774498" lon="2.8775014770194733"><ele>47.0</ele><time>2026-04-09T09:25:40Z</time></trkpt><trkpt lat="42.644993977084425" lon="2.877417614668511"><ele>48.0</ele><time>2026-04-09T09:25:41Z</time></trkpt><trkpt lat="42.644813753479845" lon="2.877335856512751"><ele>48.0</ele><time>2026-04-09T09:25:42Z</time></trkpt><trkpt lat="42.64463506786869" lon="2.8772544027510287"><ele>48.0</ele><time>2026-04-09T09:25:43Z</time></trkpt><trkpt lat="42.644455694206634" lon="2.8771736921474274"><ele>48.0</ele><time>2026-04-09T09:25:44Z</time></trkpt><trkpt lat="42.64427738186045" lon="2.8770933476123024"><ele>48.0</ele><time>2026-04-09T09:25:45Z</time></trkpt><trkpt lat="42.644098740304806" lon="2.877011480292131"><ele>48.0</ele><time>2026-04-09T09:25:46Z</time></trkpt><trkpt lat="42.64392379181142" lon="2.876931185453169"><ele>48.0</ele><time>2026-04-09T09:25:47Z</time></trkpt><trkpt lat="42.643754106094704" lon="2.8768539545515193"><ele>47.666666666666664</ele><time>2026-04-09T09:25:48Z</time></trkpt><trkpt lat="42.64358894526149" lon="2.8767779349415563"><ele>47.33333333333333</ele><time>2026-04-09T09:25:49Z</time></trkpt><trkpt lat="42.64342973871326" lon="2.8767076465347055"><ele>47.0</ele><time>2026-04-09T09:25:50Z</time></trkpt><trkpt lat="42.64327287341086" lon="2.876636506398615"><ele>47.0</ele><time>2026-04-09T09:25:51Z</time></trkpt><trkpt lat="42.64311995879556" lon="2.876567041762988"><ele>47.0</ele><time>2026-04-09T09:25:52Z</time></trkpt><trkpt lat="42.642970111284356" lon="2.8764982329117075"><ele>47.0</ele><time>2026-04-09T09:25:53Z</time></trkpt><trkpt lat="42.64282655044952" lon="2.8764335031566297"><ele>45.75</ele><time>2026-04-09T09:25:54Z</time></trkpt><trkpt lat="42.64269007406696" lon="2.8763697537420487"><ele>44.5</ele><time>2026-04-09T09:25:55Z</time></trkpt><trkpt lat="42.64255813686891" lon="2.876303575291372"><ele>43.25</ele><time>2026-04-09T09:25:56Z</time></trkpt><trkpt lat="42.642431209531686" lon="2.876240136273947"><ele>42.0</ele><time>2026-04-09T09:25:57Z</time></trkpt><trkpt lat="42.64231286408629" lon="2.8761783872895426"><ele>42.0</ele><time>2026-04-09T09:25:58Z</time></trkpt><trkpt lat="42.64220361669565" lon="2.876120271381086"><ele>42.0</ele><time>2026-04-09T09:25:59Z</time></trkpt><trkpt lat="42.64210302051452" lon="2.8760668805646032"><ele>42.0</ele><time>2026-04-09T09:26:00Z</time></trkpt><trkpt lat="42.64201525503346" lon="2.8760211722596223"><ele>42.0</ele><time>2026-04-09T09:26:01Z</time></trkpt><trkpt lat="42.64194703140517" lon="2.8759860441898457"><ele>42.0</ele><time>2026-04-09T09:26:02Z</time></trkpt><trkpt lat="42.64186948852305" lon="2.875939281491364"><ele>42.0</ele><time>2026-04-09T09:26:04Z</time></trkpt><trkpt lat="42.641795872664446" lon="2.8758801722677947"><ele>42.0</ele><time>2026-04-09T09:26:07Z</time></trkpt><trkpt lat="42.64174238725067" lon="2.875772640200435"><ele>42.0</ele><time>2026-04-09T09:26:09Z</time></trkpt><trkpt lat="42.64166651436794" lon="2.8756464287966566"><ele>42.0</ele><time>2026-04-09T09:26:11Z</time></trkpt><trkpt lat="42.64159738911048" lon="2.875602007182669"><ele>42.0</ele><time>2026-04-09T09:26:12Z</time></trkpt><trkpt lat="42.6415225150073" lon="2.8755748088222877"><ele>42.0</ele><time>2026-04-09T09:26:13Z</time></trkpt><trkpt lat="42.641448885390915" lon="2.8755783154005976"><ele>42.0</ele><time>2026-04-09T09:26:14Z</time></trkpt><trkpt lat="42.64137331333355" lon="2.875611309467963"><ele>42.0</ele><time>2026-04-09T09:26:15Z</time></trkpt><trkpt lat="42.641299312142294" lon="2.875657360901381"><ele>42.0</ele><time>2026-04-09T09:26:16Z</time></trkpt><trkpt lat="42.64121612865379" lon="2.875685654811795"><ele>42.0</ele><time>2026-04-09T09:26:17Z</time></trkpt><trkpt lat="42.641127166025186" lon="2.87568780816211"><ele>42.0</ele><time>2026-04-09T09:26:18Z</time></trkpt><trkpt lat="42.64103418893743" lon="2.8756622922189594"><ele>42.0</ele><time>2026-04-09T09:26:19Z</time></trkpt><trkpt lat="42.640936807343174" lon="2.8756154196687276"><ele>42.0</ele><time>2026-04-09T09:26:20Z</time></trkpt><trkpt lat="42.64082966659543" lon="2.8755633970261454"><ele>42.0</ele><time>2026-04-09T09:26:21Z</time></trkpt><trkpt lat="42.640713784333066" lon="2.8755115149368735"><ele>42.0</ele><time>2026-04-09T09:26:22Z</time></trkpt><trkpt lat="42.64058925756374" lon="2.8754566290014187"><ele>42.0</ele><time>2026-04-09T09:26:23Z</time></trkpt><trkpt lat="42.64045982662051" lon="2.8753995583066825"><ele>42.0</ele><time>2026-04-09T09:26:24Z</time></trkpt><trkpt lat="42.64032009862243" lon="2.875334121505313"><ele>42.0</ele><time>2026-04-09T09:26:25Z</time></trkpt><trkpt lat="42.640174226542335" lon="2.875266196143586"><ele>42.0</ele><time>2026-04-09T09:26:26Z</time></trkpt><trkpt lat="42.640030307551484" lon="2.8752006215084096"><ele>41.0</ele><time>2026-04-09T09:26:27Z</time></trkpt><trkpt lat="42.63988226187793" lon="2.8751342635710646"><ele>40.0</ele><time>2026-04-09T09:26:28Z</time></trkpt><trkpt lat="42.63973327924385" lon="2.875067004535878"><ele>39.0</ele><time>2026-04-09T09:26:29Z</time></trkpt><trkpt lat="42.63958177127973" lon="2.8749969575020087"><ele>40.333333333333336</ele><time>2026-04-09T09:26:30Z</time></trkpt><trkpt lat="42.63943039699742" lon="2.874928997793273"><ele>41.66666666666667</ele><time>2026-04-09T09:26:31Z</time></trkpt><trkpt lat="42.63927647444517" lon="2.874856188348772"><ele>43.0</ele><time>2026-04-09T09:26:32Z</time></trkpt><trkpt lat="42.639122398820255" lon="2.874782941430006"><ele>43.0</ele><time>2026-04-09T09:26:33Z</time></trkpt><trkpt lat="42.6389693771243" lon="2.8747117193257994"><ele>43.0</ele><time>2026-04-09T09:26:34Z</time></trkpt><trkpt lat="42.638813771914464" lon="2.874639878188944"><ele>43.0</ele><time>2026-04-09T09:26:35Z</time></trkpt><trkpt lat="42.638660447473036" lon="2.8745695688031376"><ele>42.66666666666667</ele><time>2026-04-09T09:26:36Z</time></trkpt><trkpt lat="42.638507384666944" lon="2.8745001842370197"><ele>42.333333333333336</ele><time>2026-04-09T09:26:37Z</time></trkpt><trkpt lat="42.63835611789622" lon="2.8744323280806747"><ele>42.0</ele><time>2026-04-09T09:26:38Z</time></trkpt><trkpt lat="42.63820585733019" lon="2.8743654810802477"><ele>42.0</ele><time>2026-04-09T09:26:39Z</time></trkpt><trkpt lat="42.638057873451466" lon="2.8742990908383654"><ele>42.0</ele><time>2026-04-09T09:26:40Z</time></trkpt><trkpt lat="42.637912563581985" lon="2.8742333150580133"><ele>42.0</ele><time>2026-04-09T09:26:41Z</time></trkpt><trkpt lat="42.63776716231271" lon="2.8741668151231567"><ele>42.333333333333336</ele><time>2026-04-09T09:26:42Z</time></trkpt><trkpt lat="42.63761894678401" lon="2.8741018601414305"><ele>42.66666666666667</ele><time>2026-04-09T09:26:43Z</time></trkpt><trkpt lat="42.63747012125886" lon="2.8740345566769396"><ele>43.0</ele><time>2026-04-09T09:26:44Z</time></trkpt><trkpt lat="42.63732040693935" lon="2.873965631454453"><ele>43.0</ele><time>2026-04-09T09:26:45Z</time></trkpt><trkpt lat="42.637164598370376" lon="2.8738952620221196"><ele>43.0</ele><time>2026-04-09T09:26:46Z</time></trkpt><trkpt lat="42.63700596106805" lon="2.873824329809009"><ele>43.0</ele><time>2026-04-09T09:26:47Z</time></trkpt><trkpt lat="42.636842033894126" lon="2.8737501584728578"><ele>43.333333333333336</ele><time>2026-04-09T09:26:48Z</time></trkpt><trkpt lat="42.63667446420338" lon="2.8736757131037494"><ele>43.666666666666664</ele><time>2026-04-09T09:26:49Z</time></trkpt><trkpt lat="42.63650291873486" lon="2.8735991058625485"><ele>44.0</ele><time>2026-04-09T09:26:50Z</time></trkpt><trkpt lat="42.63632956011993" lon="2.8735170445307268"><ele>45.0</ele><time>2026-04-09T09:26:51Z</time></trkpt><trkpt lat="42.63615304593258" lon="2.8734359738346686"><ele>46.0</ele><time>2026-04-09T09:26:52Z</time></trkpt><trkpt lat="42.63597405169119" lon="2.873352692298217"><ele>47.0</ele><time>2026-04-09T09:26:53Z</time></trkpt><trkpt lat="42.635792915921485" lon="2.8732669593429097"><ele>47.0</ele><time>2026-04-09T09:26:54Z</time></trkpt><trkpt lat="42.635615862709244" lon="2.873185236651637"><ele>47.0</ele><time>2026-04-09T09:26:55Z</time></trkpt><trkpt lat="42.63543828059399" lon="2.873105258065871"><ele>47.0</ele><time>2026-04-09T09:26:56Z</time></trkpt><trkpt lat="42.63526889061958" lon="2.8730319974146337"><ele>47.0</ele><time>2026-04-09T09:26:57Z</time></trkpt><trkpt lat="42.63510068397087" lon="2.872953312944261"><ele>47.0</ele><time>2026-04-09T09:26:58Z</time></trkpt><trkpt lat="42.63493439475676" lon="2.872874551081663"><ele>47.0</ele><time>2026-04-09T09:26:59Z</time></trkpt><trkpt lat="42.634769415667805" lon="2.8727947195958534"><ele>47.0</ele><time>2026-04-09T09:27:00Z</time></trkpt><trkpt lat="42.63460266174125" lon="2.8727169349815793"><ele>47.0</ele><time>2026-04-09T09:27:01Z</time></trkpt><trkpt lat="42.634435202416796" lon="2.8726384148801554"><ele>47.0</ele><time>2026-04-09T09:27:02Z</time></trkpt><trkpt lat="42.63426918529264" lon="2.872563466540462"><ele>48.33333333333333</ele><time>2026-04-09T09:27:03Z</time></trkpt><trkpt lat="42.634101814420035" lon="2.8724867935304896"><ele>49.666666666666664</ele><time>2026-04-09T09:27:04Z</time></trkpt><trkpt lat="42.6339305221378" lon="2.8724070964036246"><ele>51.0</ele><time>2026-04-09T09:27:05Z</time></trkpt><trkpt lat="42.63375766881579" lon="2.8723270117222808"><ele>49.666666666666664</ele><time>2026-04-09T09:27:06Z</time></trkpt><trkpt lat="42.63358437935603" lon="2.872245524154274"><ele>48.33333333333333</ele><time>2026-04-09T09:27:07Z</time></trkpt><trkpt lat="42.633414386583354" lon="2.872169267930048"><ele>47.0</ele><time>2026-04-09T09:27:08Z</time></trkpt><trkpt lat="42.63324515479323" lon="2.8720932038191025"><ele>47.0</ele><time>2026-04-09T09:27:09Z</time></trkpt><trkpt lat="42.63307635866484" lon="2.8720159820926328"><ele>47.0</ele><time>2026-04-09T09:27:10Z</time></trkpt><trkpt lat="42.63291117206221" lon="2.8719400766564744"><ele>47.0</ele><time>2026-04-09T09:27:11Z</time></trkpt><trkpt lat="42.63275255847697" lon="2.871867314183287"><ele>46.666666666666664</ele><time>2026-04-09T09:27:12Z</time></trkpt><trkpt lat="42.632592579390554" lon="2.8717933815952703"><ele>46.333333333333336</ele><time>2026-04-09T09:27:13Z</time></trkpt><trkpt lat="42.632433219292935" lon="2.8717189296446253"><ele>46.0</ele><time>2026-04-09T09:27:14Z</time></trkpt><trkpt lat="42.632277060728285" lon="2.87164799865406"><ele>45.66666666666667</ele><time>2026-04-09T09:27:15Z</time></trkpt><trkpt lat="42.632128029661146" lon="2.871575779780002"><ele>45.333333333333336</ele><time>2026-04-09T09:27:16Z</time></trkpt><trkpt lat="42.631983210318545" lon="2.8715068333118663"><ele>45.0</ele><time>2026-04-09T09:27:17Z</time></trkpt><trkpt lat="42.631844061337816" lon="2.871434466047889"><ele>45.0</ele><time>2026-04-09T09:27:18Z</time></trkpt><trkpt lat="42.63171126954184" lon="2.87136102662649"><ele>45.0</ele><time>2026-04-09T09:27:19Z</time></trkpt><trkpt lat="42.63158298892389" lon="2.871291153819143"><ele>45.0</ele><time>2026-04-09T09:27:20Z</time></trkpt><trkpt lat="42.63145346552966" lon="2.871222565068313"><ele>45.0</ele><time>2026-04-09T09:27:21Z</time></trkpt><trkpt lat="42.63132746902362" lon="2.8711617551262827"><ele>45.0</ele><time>2026-04-09T09:27:22Z</time></trkpt><trkpt lat="42.631208473821474" lon="2.8711073378527017"><ele>45.0</ele><time>2026-04-09T09:27:23Z</time></trkpt><trkpt lat="42.63110356914741" lon="2.871059194187457"><ele>45.0</ele><time>2026-04-09T09:27:24Z</time></trkpt><trkpt lat="42.63101111020471" lon="2.8710127020881524"><ele>45.0</ele><time>2026-04-09T09:27:25Z</time></trkpt><trkpt lat="42.63092631082566" lon="2.8709697713666023"><ele>45.0</ele><time>2026-04-09T09:27:26Z</time></trkpt><trkpt lat="42.630854744433336" lon="2.870921758003254"><ele>46.0</ele><time>2026-04-09T09:27:27Z</time></trkpt><trkpt lat="42.630795870099824" lon="2.870855021713199"><ele>47.0</ele><time>2026-04-09T09:27:28Z</time></trkpt><trkpt lat="42.63074562418144" lon="2.8707735702970467"><ele>48.0</ele><time>2026-04-09T09:27:29Z</time></trkpt><trkpt lat="42.63068135750914" lon="2.870698828676469"><ele>49.0</ele><time>2026-04-09T09:27:30Z</time></trkpt><trkpt lat="42.630606906723656" lon="2.870655425487025"><ele>50.0</ele><time>2026-04-09T09:27:31Z</time></trkpt><trkpt lat="42.630515017069385" lon="2.8706642856039855"><ele>51.0</ele><time>2026-04-09T09:27:32Z</time></trkpt><trkpt lat="42.63043478688455" lon="2.8706996034340078"><ele>51.0</ele><time>2026-04-09T09:27:33Z</time></trkpt><trkpt lat="42.63034741253176" lon="2.870716549447922"><ele>51.0</ele><time>2026-04-09T09:27:34Z</time></trkpt><trkpt lat="42.63025583338755" lon="2.870695401339183"><ele>51.0</ele><time>2026-04-09T09:27:35Z</time></trkpt><trkpt lat="42.630159545004936" lon="2.8706545421767635"><ele>51.0</ele><time>2026-04-09T09:27:36Z</time></trkpt><trkpt lat="42.63005876817254" lon="2.870607163437822"><ele>51.0</ele><time>2026-04-09T09:27:37Z</time></trkpt><trkpt lat="42.62994535262235" lon="2.870560647007079"><ele>50.5</ele><time>2026-04-09T09:27:38Z</time></trkpt><trkpt lat="42.629828634481" lon="2.8705106053386564"><ele>50.0</ele><time>2026-04-09T09:27:39Z</time></trkpt><trkpt lat="42.62970165980818" lon="2.8704586854867356"><ele>49.5</ele><time>2026-04-09T09:27:40Z</time></trkpt><trkpt lat="42.62956749186617" lon="2.8704046794651448"><ele>49.0</ele><time>2026-04-09T09:27:41Z</time></trkpt><trkpt lat="42.62942348207081" lon="2.8703470174734207"><ele>48.33333333333333</ele><time>2026-04-09T09:27:42Z</time></trkpt><trkpt lat="42.629278893032506" lon="2.870287844775894"><ele>47.666666666666664</ele><time>2026-04-09T09:27:43Z</time></trkpt><trkpt lat="42.62913427746116" lon="2.870227391306551"><ele>47.0</ele><time>2026-04-09T09:27:44Z</time></trkpt><trkpt lat="42.62898282935496" lon="2.870163221119274"><ele>47.666666666666664</ele><time>2026-04-09T09:27:45Z</time></trkpt><trkpt lat="42.628825940263376" lon="2.870094528435041"><ele>48.33333333333333</ele><time>2026-04-09T09:27:46Z</time></trkpt><trkpt lat="42.62866918614472" lon="2.8700210476480663"><ele>49.0</ele><time>2026-04-09T09:27:47Z</time></trkpt><trkpt lat="42.62851010231735" lon="2.8699475742356695"><ele>49.0</ele><time>2026-04-09T09:27:48Z</time></trkpt><trkpt lat="42.628344017815216" lon="2.8698737622868196"><ele>49.0</ele><time>2026-04-09T09:27:49Z</time></trkpt><trkpt lat="42.628175021091984" lon="2.8697958382917523"><ele>49.0</ele><time>2026-04-09T09:27:50Z</time></trkpt><trkpt lat="42.62800449933285" lon="2.8697169728740906"><ele>49.0</ele><time>2026-04-09T09:27:51Z</time></trkpt><trkpt lat="42.627830770247336" lon="2.8696351813908665"><ele>49.0</ele><time>2026-04-09T09:27:52Z</time></trkpt><trkpt lat="42.62765763648095" lon="2.869554091894634"><ele>49.0</ele><time>2026-04-09T09:27:53Z</time></trkpt><trkpt lat="42.627484779568654" lon="2.869475937321693"><ele>48.666666666666664</ele><time>2026-04-09T09:27:54Z</time></trkpt><trkpt lat="42.62731590590493" lon="2.8693979624974726"><ele>48.33333333333333</ele><time>2026-04-09T09:27:55Z</time></trkpt><trkpt lat="42.62714769340901" lon="2.8693197968446804"><ele>48.0</ele><time>2026-04-09T09:27:56Z</time></trkpt><trkpt lat="42.62698049290887" lon="2.8692433456372033"><ele>49.0</ele><time>2026-04-09T09:27:57Z</time></trkpt><trkpt lat="42.626814775152106" lon="2.869166374173336"><ele>50.0</ele><time>2026-04-09T09:27:58Z</time></trkpt><trkpt lat="42.626650166716814" lon="2.8690913562140126"><ele>51.0</ele><time>2026-04-09T09:27:59Z</time></trkpt><trkpt lat="42.626483805948446" lon="2.8690147377498896"><ele>51.0</ele><time>2026-04-09T09:28:00Z</time></trkpt><trkpt lat="42.62631505082449" lon="2.868938818010305"><ele>51.0</ele><time>2026-04-09T09:28:01Z</time></trkpt><trkpt lat="42.626142043875966" lon="2.8688626968000226"><ele>51.0</ele><time>2026-04-09T09:28:02Z</time></trkpt><trkpt lat="42.62596611400316" lon="2.8687804077091665"><ele>51.33333333333333</ele><time>2026-04-09T09:28:03Z</time></trkpt><trkpt lat="42.62578895150429" lon="2.868696585251228"><ele>51.666666666666664</ele><time>2026-04-09T09:28:04Z</time></trkpt><trkpt lat="42.62560936547053" lon="2.868615445201477"><ele>52.0</ele><time>2026-04-09T09:28:05Z</time></trkpt><trkpt lat="42.62543591253533" lon="2.8685346589929788"><ele>52.0</ele><time>2026-04-09T09:28:06Z</time></trkpt><trkpt lat="42.6252616172004" lon="2.868453994690536"><ele>52.0</ele><time>2026-04-09T09:28:07Z</time></trkpt><trkpt lat="42.62508869189729" lon="2.8683730992546166"><ele>52.0</ele><time>2026-04-09T09:28:08Z</time></trkpt><trkpt lat="42.624913409198456" lon="2.8682920179665676"><ele>52.0</ele><time>2026-04-09T09:28:09Z</time></trkpt><trkpt lat="42.624738377972704" lon="2.8682120979983368"><ele>52.0</ele><time>2026-04-09T09:28:10Z</time></trkpt><trkpt lat="42.62456382517755" lon="2.8681327347550774"><ele>52.0</ele><time>2026-04-09T09:28:11Z</time></trkpt><trkpt lat="42.62439263386534" lon="2.868051997057005"><ele>51.33333333333333</ele><time>2026-04-09T09:28:12Z</time></trkpt><trkpt lat="42.62422067448787" lon="2.867969439958142"><ele>50.66666666666667</ele><time>2026-04-09T09:28:13Z</time></trkpt><trkpt lat="42.62404862484305" lon="2.8678924980317504"><ele>50.0</ele><time>2026-04-09T09:28:14Z</time></trkpt><trkpt lat="42.62387895385784" lon="2.8678140971346533"><ele>50.0</ele><time>2026-04-09T09:28:15Z</time></trkpt><trkpt lat="42.62370559127812" lon="2.8677371678127863"><ele>50.0</ele><time>2026-04-09T09:28:16Z</time></trkpt><trkpt lat="42.62353101520122" lon="2.867658716154787"><ele>50.0</ele><time>2026-04-09T09:28:17Z</time></trkpt><trkpt lat="42.6233581681773" lon="2.867578370613862"><ele>50.66666666666667</ele><time>2026-04-09T09:28:18Z</time></trkpt><trkpt lat="42.62318360253869" lon="2.8675002096840703"><ele>51.33333333333333</ele><time>2026-04-09T09:28:19Z</time></trkpt><trkpt lat="42.623008696613454" lon="2.867421394176591"><ele>52.0</ele><time>2026-04-09T09:28:20Z</time></trkpt><trkpt lat="42.62283159141129" lon="2.8673414740140246"><ele>52.0</ele><time>2026-04-09T09:28:21Z</time></trkpt><trkpt lat="42.62265508619795" lon="2.8672591986071088"><ele>52.0</ele><time>2026-04-09T09:28:22Z</time></trkpt><trkpt lat="42.622478634682416" lon="2.8671811734205215"><ele>52.0</ele><time>2026-04-09T09:28:23Z</time></trkpt><trkpt lat="42.622302334886356" lon="2.8671007994456716"><ele>52.0</ele><time>2026-04-09T09:28:24Z</time></trkpt><trkpt lat="42.62212340216936" lon="2.8670193336563425"><ele>52.0</ele><time>2026-04-09T09:28:25Z</time></trkpt><trkpt lat="42.62194465379325" lon="2.866937089854894"><ele>52.0</ele><time>2026-04-09T09:28:26Z</time></trkpt><trkpt lat="42.621762726619984" lon="2.866857742804761"><ele>52.0</ele><time>2026-04-09T09:28:27Z</time></trkpt><trkpt lat="42.62158000963516" lon="2.8667768349514757"><ele>52.0</ele><time>2026-04-09T09:28:28Z</time></trkpt><trkpt lat="42.62139527114327" lon="2.866693842119882"><ele>52.0</ele><time>2026-04-09T09:28:29Z</time></trkpt><trkpt lat="42.62121366974436" lon="2.866609942937718"><ele>51.33333333333333</ele><time>2026-04-09T09:28:30Z</time></trkpt><trkpt lat="42.62103017744157" lon="2.866524846485088"><ele>50.66666666666667</ele><time>2026-04-09T09:28:31Z</time></trkpt><trkpt lat="42.62084758467187" lon="2.8664421415928727"><ele>50.0</ele><time>2026-04-09T09:28:32Z</time></trkpt><trkpt lat="42.6206644537003" lon="2.8663578408146897"><ele>50.0</ele><time>2026-04-09T09:28:33Z</time></trkpt><trkpt lat="42.620480518045795" lon="2.866273420034606"><ele>50.0</ele><time>2026-04-09T09:28:34Z</time></trkpt><trkpt lat="42.62029775453553" lon="2.8661895540124123"><ele>50.0</ele><time>2026-04-09T09:28:35Z</time></trkpt><trkpt lat="42.62011527479509" lon="2.866105417219308"><ele>50.0</ele><time>2026-04-09T09:28:36Z</time></trkpt><trkpt lat="42.61993215892419" lon="2.866022767950742"><ele>50.0</ele><time>2026-04-09T09:28:37Z</time></trkpt><trkpt lat="42.619750132708496" lon="2.86593928210671"><ele>50.0</ele><time>2026-04-09T09:28:38Z</time></trkpt><trkpt lat="42.61956830213292" lon="2.865856665289528"><ele>50.333333333333336</ele><time>2026-04-09T09:28:39Z</time></trkpt><trkpt lat="42.619385997356034" lon="2.865773851208306"><ele>50.66666666666667</ele><time>2026-04-09T09:28:40Z</time></trkpt><trkpt lat="42.619203042897794" lon="2.8656926544599024"><ele>51.0</ele><time>2026-04-09T09:28:41Z</time></trkpt><trkpt lat="42.61901709178481" lon="2.8656095108282056"><ele>51.0</ele><time>2026-04-09T09:28:42Z</time></trkpt><trkpt lat="42.61883263200655" lon="2.8655265590717667"><ele>51.0</ele><time>2026-04-09T09:28:43Z</time></trkpt><trkpt lat="42.618650932547325" lon="2.86544504891279"><ele>51.0</ele><time>2026-04-09T09:28:44Z</time></trkpt><trkpt lat="42.61847042326839" lon="2.8653653809591755"><ele>50.66666666666667</ele><time>2026-04-09T09:28:45Z</time></trkpt><trkpt lat="42.61829353614411" lon="2.8652843799318273"><ele>50.333333333333336</ele><time>2026-04-09T09:28:46Z</time></trkpt><trkpt lat="42.61811766416042" lon="2.8652040990791927"><ele>50.0</ele><time>2026-04-09T09:28:47Z</time></trkpt><trkpt lat="42.61794276199792" lon="2.8651262484836226"><ele>51.333333333333336</ele><time>2026-04-09T09:28:48Z</time></trkpt><trkpt lat="42.61776551651521" lon="2.8650482393798984"><ele>52.66666666666667</ele><time>2026-04-09T09:28:49Z</time></trkpt><trkpt lat="42.61759159459759" lon="2.8649657403095765"><ele>54.0</ele><time>2026-04-09T09:28:50Z</time></trkpt><trkpt lat="42.617412419260084" lon="2.8648849743205043"><ele>54.0</ele><time>2026-04-09T09:28:51Z</time></trkpt><trkpt lat="42.61723383686213" lon="2.864805183970986"><ele>54.0</ele><time>2026-04-09T09:28:52Z</time></trkpt><trkpt lat="42.617056020621526" lon="2.8647246105695863"><ele>54.0</ele><time>2026-04-09T09:28:53Z</time></trkpt><trkpt lat="42.616876499730544" lon="2.8646441367126783"><ele>54.0</ele><time>2026-04-09T09:28:54Z</time></trkpt><trkpt lat="42.61669652081215" lon="2.86456095639013"><ele>54.0</ele><time>2026-04-09T09:28:55Z</time></trkpt><trkpt lat="42.61651438231657" lon="2.864476575934041"><ele>54.0</ele><time>2026-04-09T09:28:56Z</time></trkpt><trkpt lat="42.61633019350811" lon="2.8643949865066993"><ele>55.0</ele><time>2026-04-09T09:28:57Z</time></trkpt><trkpt lat="42.61614984760594" lon="2.8643134422636636"><ele>56.0</ele><time>2026-04-09T09:28:58Z</time></trkpt><trkpt lat="42.615970276412966" lon="2.8642332807576762"><ele>57.0</ele><time>2026-04-09T09:28:59Z</time></trkpt><trkpt lat="42.615794597819416" lon="2.8641555388159703"><ele>57.0</ele><time>2026-04-09T09:29:00Z</time></trkpt><trkpt lat="42.61561800705007" lon="2.864074377015841"><ele>57.0</ele><time>2026-04-09T09:29:01Z</time></trkpt><trkpt lat="42.61544069227766" lon="2.8639929992831226"><ele>57.0</ele><time>2026-04-09T09:29:02Z</time></trkpt><trkpt lat="42.615265162062826" lon="2.8639149427764847"><ele>57.33333333333333</ele><time>2026-04-09T09:29:03Z</time></trkpt><trkpt lat="42.61509236402746" lon="2.863835804090285"><ele>57.666666666666664</ele><time>2026-04-09T09:29:04Z</time></trkpt><trkpt lat="42.614924158233876" lon="2.863759233393479"><ele>58.0</ele><time>2026-04-09T09:29:05Z</time></trkpt><trkpt lat="42.61475340129587" lon="2.863683412342411"><ele>58.0</ele><time>2026-04-09T09:29:06Z</time></trkpt><trkpt lat="42.6145852077159" lon="2.8636064084032395"><ele>58.0</ele><time>2026-04-09T09:29:07Z</time></trkpt><trkpt lat="42.61441673367367" lon="2.8635273740788794"><ele>58.0</ele><time>2026-04-09T09:29:08Z</time></trkpt><trkpt lat="42.61424970756355" lon="2.863452802670379"><ele>59.0</ele><time>2026-04-09T09:29:09Z</time></trkpt><trkpt lat="42.614081027332006" lon="2.8633760589145774"><ele>60.0</ele><time>2026-04-09T09:29:10Z</time></trkpt><trkpt lat="42.61391639693818" lon="2.8633004150104475"><ele>61.0</ele><time>2026-04-09T09:29:11Z</time></trkpt><trkpt lat="42.61375333050064" lon="2.8632226242263785"><ele>60.666666666666664</ele><time>2026-04-09T09:29:12Z</time></trkpt><trkpt lat="42.613592420263956" lon="2.8631475860995033"><ele>60.33333333333333</ele><time>2026-04-09T09:29:13Z</time></trkpt><trkpt lat="42.613433974150844" lon="2.8630742237580913"><ele>60.0</ele><time>2026-04-09T09:29:14Z</time></trkpt><trkpt lat="42.613278408360394" lon="2.8630025116732845"><ele>60.0</ele><time>2026-04-09T09:29:15Z</time></trkpt><trkpt lat="42.61312015437493" lon="2.8629299890291082"><ele>60.0</ele><time>2026-04-09T09:29:16Z</time></trkpt><trkpt lat="42.612960879054945" lon="2.862858782733656"><ele>60.0</ele><time>2026-04-09T09:29:17Z</time></trkpt><trkpt lat="42.612799579981186" lon="2.862786073709127"><ele>59.66666666666667</ele><time>2026-04-09T09:29:18Z</time></trkpt><trkpt lat="42.61263986176276" lon="2.8627108750126955"><ele>59.333333333333336</ele><time>2026-04-09T09:29:19Z</time></trkpt><trkpt lat="42.61247657300586" lon="2.8626368819986623"><ele>59.0</ele><time>2026-04-09T09:29:20Z</time></trkpt><trkpt lat="42.61231347451829" lon="2.8625605948474675"><ele>59.0</ele><time>2026-04-09T09:29:21Z</time></trkpt><trkpt lat="42.61214476135123" lon="2.862484959884604"><ele>59.0</ele><time>2026-04-09T09:29:22Z</time></trkpt><trkpt lat="42.61197707927556" lon="2.862408729266246"><ele>59.0</ele><time>2026-04-09T09:29:23Z</time></trkpt><trkpt lat="42.61180665566557" lon="2.8623291513751807"><ele>59.0</ele><time>2026-04-09T09:29:24Z</time></trkpt><trkpt lat="42.61163502939567" lon="2.8622489401838234"><ele>59.0</ele><time>2026-04-09T09:29:25Z</time></trkpt><trkpt lat="42.61146285343111" lon="2.8621681593677533"><ele>59.0</ele><time>2026-04-09T09:29:26Z</time></trkpt><trkpt lat="42.61129013869024" lon="2.8620887260762635"><ele>59.333333333333336</ele><time>2026-04-09T09:29:27Z</time></trkpt><trkpt lat="42.61111699031574" lon="2.8620103432834125"><ele>59.66666666666667</ele><time>2026-04-09T09:29:28Z</time></trkpt><trkpt lat="42.61094181511276" lon="2.8619305864915385"><ele>60.0</ele><time>2026-04-09T09:29:29Z</time></trkpt><trkpt lat="42.61076818026393" lon="2.8618539829182033"><ele>59.66666666666667</ele><time>2026-04-09T09:29:30Z</time></trkpt><trkpt lat="42.610595671187404" lon="2.8617782968959835"><ele>59.333333333333336</ele><time>2026-04-09T09:29:31Z</time></trkpt><trkpt lat="42.61042511385022" lon="2.861702298617797"><ele>59.0</ele><time>2026-04-09T09:29:32Z</time></trkpt><trkpt lat="42.610253388634845" lon="2.861627233783138"><ele>59.66666666666667</ele><time>2026-04-09T09:29:33Z</time></trkpt><trkpt lat="42.610083173727375" lon="2.861550232303103"><ele>60.33333333333333</ele><time>2026-04-09T09:29:34Z</time></trkpt><trkpt lat="42.60991915610022" lon="2.8614756217016257"><ele>61.0</ele><time>2026-04-09T09:29:35Z</time></trkpt><trkpt lat="42.60975839360615" lon="2.8614048256132216"><ele>61.0</ele><time>2026-04-09T09:29:36Z</time></trkpt><trkpt lat="42.60960493518058" lon="2.861333566508431"><ele>61.0</ele><time>2026-04-09T09:29:37Z</time></trkpt><trkpt lat="42.60945560712022" lon="2.861265652804027"><ele>61.0</ele><time>2026-04-09T09:29:38Z</time></trkpt><trkpt lat="42.60931084553675" lon="2.8612016264290716"><ele>61.5</ele><time>2026-04-09T09:29:39Z</time></trkpt><trkpt lat="42.60916926830213" lon="2.8611378160351495"><ele>62.0</ele><time>2026-04-09T09:29:40Z</time></trkpt><trkpt lat="42.60902901457405" lon="2.861074763211772"><ele>62.5</ele><time>2026-04-09T09:29:41Z</time></trkpt><trkpt lat="42.608892315744214" lon="2.8610127293074807"><ele>63.0</ele><time>2026-04-09T09:29:42Z</time></trkpt><trkpt lat="42.60876107641518" lon="2.860952994151135"><ele>63.25</ele><time>2026-04-09T09:29:43Z</time></trkpt><trkpt lat="42.60863485443631" lon="2.8608938151151255"><ele>63.5</ele><time>2026-04-09T09:29:44Z</time></trkpt><trkpt lat="42.60850872089407" lon="2.8608358194393917"><ele>63.75</ele><time>2026-04-09T09:29:45Z</time></trkpt><trkpt lat="42.608380801475725" lon="2.8607773038600497"><ele>64.0</ele><time>2026-04-09T09:29:46Z</time></trkpt><trkpt lat="42.608253294068845" lon="2.8607191358668462"><ele>64.0</ele><time>2026-04-09T09:29:47Z</time></trkpt><trkpt lat="42.60812562098804" lon="2.860661770576021"><ele>64.0</ele><time>2026-04-09T09:29:48Z</time></trkpt><trkpt lat="42.60799734255737" lon="2.8606040453774786"><ele>64.0</ele><time>2026-04-09T09:29:49Z</time></trkpt><trkpt lat="42.607867974007505" lon="2.8605457603611515"><ele>64.0</ele><time>2026-04-09T09:29:50Z</time></trkpt><trkpt lat="42.607742974241354" lon="2.860486563922946"><ele>64.5</ele><time>2026-04-09T09:29:51Z</time></trkpt><trkpt lat="42.6076183682786" lon="2.8604235409216803"><ele>65.0</ele><time>2026-04-09T09:29:52Z</time></trkpt><trkpt lat="42.60749530284892" lon="2.860358127641948"><ele>65.5</ele><time>2026-04-09T09:29:53Z</time></trkpt><trkpt lat="42.607373305746066" lon="2.8602886789958846"><ele>66.0</ele><time>2026-04-09T09:29:54Z</time></trkpt><trkpt lat="42.60725723038927" lon="2.860218621660733"><ele>66.0</ele><time>2026-04-09T09:29:55Z</time></trkpt><trkpt lat="42.60713921708715" lon="2.860146119425767"><ele>66.0</ele><time>2026-04-09T09:29:56Z</time></trkpt><trkpt lat="42.60702387140655" lon="2.8600749952532127"><ele>66.0</ele><time>2026-04-09T09:29:57Z</time></trkpt><trkpt lat="42.60690769235061" lon="2.8600039983035344"><ele>66.0</ele><time>2026-04-09T09:29:58Z</time></trkpt><trkpt lat="42.6067889088813" lon="2.859931574773177"><ele>65.5</ele><time>2026-04-09T09:29:59Z</time></trkpt><trkpt lat="42.60666621515342" lon="2.8598569931831572"><ele>65.0</ele><time>2026-04-09T09:30:00Z</time></trkpt><trkpt lat="42.606536187523886" lon="2.859778433550559"><ele>64.5</ele><time>2026-04-09T09:30:01Z</time></trkpt><trkpt lat="42.606405100260005" lon="2.8596995159141962"><ele>64.0</ele><time>2026-04-09T09:30:02Z</time></trkpt><trkpt lat="42.60626727000057" lon="2.8596153833414855"><ele>64.66666666666666</ele><time>2026-04-09T09:30:03Z</time></trkpt><trkpt lat="42.6061211717842" lon="2.8595298697414244"><ele>65.33333333333333</ele><time>2026-04-09T09:30:04Z</time></trkpt><trkpt lat="42.60597403751619" lon="2.859441605400146"><ele>66.0</ele><time>2026-04-09T09:30:05Z</time></trkpt><trkpt lat="42.60582359543252" lon="2.859349820066005"><ele>64.33333333333333</ele><time>2026-04-09T09:30:06Z</time></trkpt><trkpt lat="42.605665820012064" lon="2.8592573275986037"><ele>62.666666666666664</ele><time>2026-04-09T09:30:07Z</time></trkpt><trkpt lat="42.60550389813159" lon="2.859162185850436"><ele>61.0</ele><time>2026-04-09T09:30:08Z</time></trkpt><trkpt lat="42.60534344045353" lon="2.859066285076615"><ele>62.33333333333333</ele><time>2026-04-09T09:30:09Z</time></trkpt><trkpt lat="42.605185671646026" lon="2.8589711705951695"><ele>63.66666666666667</ele><time>2026-04-09T09:30:10Z</time></trkpt><trkpt lat="42.605027220712856" lon="2.8588750014570614"><ele>65.0</ele><time>2026-04-09T09:30:11Z</time></trkpt><trkpt lat="42.6048647988591" lon="2.8587765125836073"><ele>65.0</ele><time>2026-04-09T09:30:12Z</time></trkpt><trkpt lat="42.60470476201726" lon="2.8586740272286195"><ele>65.0</ele><time>2026-04-09T09:30:13Z</time></trkpt><trkpt lat="42.60454104412992" lon="2.858570348175759"><ele>65.0</ele><time>2026-04-09T09:30:14Z</time></trkpt><trkpt lat="42.604380286462046" lon="2.8584691439645615"><ele>64.33333333333334</ele><time>2026-04-09T09:30:15Z</time></trkpt><trkpt lat="42.604220728209405" lon="2.858369549269784"><ele>63.66666666666667</ele><time>2026-04-09T09:30:16Z</time></trkpt><trkpt lat="42.60405950407247" lon="2.8582709893884166"><ele>63.0</ele><time>2026-04-09T09:30:17Z</time></trkpt><trkpt lat="42.603895044356285" lon="2.858181373326286"><ele>63.0</ele><time>2026-04-09T09:30:18Z</time></trkpt><trkpt lat="42.603731056604914" lon="2.8581007994645113"><ele>63.0</ele><time>2026-04-09T09:30:19Z</time></trkpt><trkpt lat="42.60355980775416" lon="2.8580334473618683"><ele>63.0</ele><time>2026-04-09T09:30:20Z</time></trkpt><trkpt lat="42.60338619297048" lon="2.857978750230202"><ele>65.33333333333333</ele><time>2026-04-09T09:30:21Z</time></trkpt><trkpt lat="42.6032091110916" lon="2.857932090995427"><ele>67.66666666666666</ele><time>2026-04-09T09:30:22Z</time></trkpt><trkpt lat="42.60302910170247" lon="2.8578873735231585"><ele>70.0</ele><time>2026-04-09T09:30:23Z</time></trkpt><trkpt lat="42.60284545469473" lon="2.8578430408961517"><ele>68.0</ele><time>2026-04-09T09:30:24Z</time></trkpt><trkpt lat="42.60266505317486" lon="2.857797233092284"><ele>66.0</ele><time>2026-04-09T09:30:25Z</time></trkpt><trkpt lat="42.60248622411657" lon="2.857753619412159"><ele>64.0</ele><time>2026-04-09T09:30:26Z</time></trkpt><trkpt lat="42.60230450063347" lon="2.857709171891407"><ele>64.0</ele><time>2026-04-09T09:30:27Z</time></trkpt><trkpt lat="42.602125071084735" lon="2.8576626083374648"><ele>64.0</ele><time>2026-04-09T09:30:28Z</time></trkpt><trkpt lat="42.60194550343205" lon="2.857615118451956"><ele>64.0</ele><time>2026-04-09T09:30:29Z</time></trkpt><trkpt lat="42.60176724091584" lon="2.857562291290718"><ele>63.666666666666664</ele><time>2026-04-09T09:30:30Z</time></trkpt><trkpt lat="42.60159066176319" lon="2.8575041365098057"><ele>63.33333333333333</ele><time>2026-04-09T09:30:31Z</time></trkpt><trkpt lat="42.60141300883779" lon="2.8574397094618904"><ele>63.0</ele><time>2026-04-09T09:30:32Z</time></trkpt><trkpt lat="42.60123592973417" lon="2.8573709633637017"><ele>63.0</ele><time>2026-04-09T09:30:33Z</time></trkpt><trkpt lat="42.601058180413425" lon="2.8572987613835332"><ele>63.0</ele><time>2026-04-09T09:30:34Z</time></trkpt><trkpt lat="42.60088078895515" lon="2.8572245633960893"><ele>63.0</ele><time>2026-04-09T09:30:35Z</time></trkpt><trkpt lat="42.60070502804296" lon="2.85714813333665"><ele>63.0</ele><time>2026-04-09T09:30:36Z</time></trkpt><trkpt lat="42.60052812943162" lon="2.8570668174778024"><ele>63.0</ele><time>2026-04-09T09:30:37Z</time></trkpt><trkpt lat="42.60035138773854" lon="2.8569861691090526"><ele>63.0</ele><time>2026-04-09T09:30:38Z</time></trkpt><trkpt lat="42.60017650780401" lon="2.8569056891156475"><ele>63.33333333333333</ele><time>2026-04-09T09:30:39Z</time></trkpt><trkpt lat="42.600002082873374" lon="2.8568237127668326"><ele>63.666666666666664</ele><time>2026-04-09T09:30:40Z</time></trkpt><trkpt lat="42.59982823416299" lon="2.8567413310144265"><ele>64.0</ele><time>2026-04-09T09:30:41Z</time></trkpt><trkpt lat="42.59965242662981" lon="2.8566597420881137"><ele>63.666666666666664</ele><time>2026-04-09T09:30:42Z</time></trkpt><trkpt lat="42.599476921531945" lon="2.856578273462531"><ele>63.33333333333333</ele><time>2026-04-09T09:30:43Z</time></trkpt><trkpt lat="42.59930057609398" lon="2.8564963672227033"><ele>63.0</ele><time>2026-04-09T09:30:44Z</time></trkpt><trkpt lat="42.59912541432549" lon="2.8564168089606166"><ele>63.0</ele><time>2026-04-09T09:30:45Z</time></trkpt><trkpt lat="42.59894878806142" lon="2.856336926176125"><ele>63.0</ele><time>2026-04-09T09:30:46Z</time></trkpt><trkpt lat="42.598774170794215" lon="2.8562589196431034"><ele>63.0</ele><time>2026-04-09T09:30:47Z</time></trkpt><trkpt lat="42.59860185619683" lon="2.8561816452248965"><ele>63.0</ele><time>2026-04-09T09:30:48Z</time></trkpt><trkpt lat="42.598429739729454" lon="2.8561014892724734"><ele>63.0</ele><time>2026-04-09T09:30:49Z</time></trkpt><trkpt lat="42.5982600088372" lon="2.856023188622403"><ele>63.0</ele><time>2026-04-09T09:30:50Z</time></trkpt><trkpt lat="42.598090862059635" lon="2.855944782881211"><ele>63.0</ele><time>2026-04-09T09:30:51Z</time></trkpt><trkpt lat="42.59792062893606" lon="2.855865326620198"><ele>63.0</ele><time>2026-04-09T09:30:52Z</time></trkpt><trkpt lat="42.59774937263669" lon="2.855785066768207"><ele>63.0</ele><time>2026-04-09T09:30:53Z</time></trkpt><trkpt lat="42.59757692119277" lon="2.85570206096427"><ele>64.0</ele><time>2026-04-09T09:30:54Z</time></trkpt><trkpt lat="42.59740463773763" lon="2.8556198569376052"><ele>65.0</ele><time>2026-04-09T09:30:55Z</time></trkpt><trkpt lat="42.597232337067595" lon="2.8555360176599196"><ele>66.0</ele><time>2026-04-09T09:30:56Z</time></trkpt><trkpt lat="42.59706067940849" lon="2.8554502798141863"><ele>66.66666666666667</ele><time>2026-04-09T09:30:57Z</time></trkpt><trkpt lat="42.596888927337005" lon="2.8553670751279654"><ele>67.33333333333334</ele><time>2026-04-09T09:30:58Z</time></trkpt><trkpt lat="42.59671976534094" lon="2.8552832880881223"><ele>68.0</ele><time>2026-04-09T09:30:59Z</time></trkpt><trkpt lat="42.596548933682755" lon="2.8551976971734554"><ele>67.66666666666667</ele><time>2026-04-09T09:31:00Z</time></trkpt><trkpt lat="42.59638074759968" lon="2.8551129199578704"><ele>67.33333333333333</ele><time>2026-04-09T09:31:01Z</time></trkpt><trkpt lat="42.59621197880575" lon="2.8550271493888744"><ele>67.0</ele><time>2026-04-09T09:31:02Z</time></trkpt><trkpt lat="42.59604311178731" lon="2.854940445920401"><ele>67.0</ele><time>2026-04-09T09:31:03Z</time></trkpt><trkpt lat="42.59587144182795" lon="2.8548529783985765"><ele>67.0</ele><time>2026-04-09T09:31:04Z</time></trkpt><trkpt lat="42.59570111258411" lon="2.8547686783969413"><ele>67.0</ele><time>2026-04-09T09:31:05Z</time></trkpt><trkpt lat="42.595528516588494" lon="2.854687160610871"><ele>67.0</ele><time>2026-04-09T09:31:06Z</time></trkpt><trkpt lat="42.595354844962614" lon="2.8546074180849534"><ele>67.0</ele><time>2026-04-09T09:31:07Z</time></trkpt><trkpt lat="42.595180498826615" lon="2.8545246257484136"><ele>67.0</ele><time>2026-04-09T09:31:08Z</time></trkpt><trkpt lat="42.59500444690408" lon="2.854444832673447"><ele>67.0</ele><time>2026-04-09T09:31:09Z</time></trkpt><trkpt lat="42.5948281511146" lon="2.854366014995094"><ele>67.0</ele><time>2026-04-09T09:31:10Z</time></trkpt><trkpt lat="42.59465022046735" lon="2.8542827131776587"><ele>67.0</ele><time>2026-04-09T09:31:11Z</time></trkpt><trkpt lat="42.59447396764905" lon="2.8541952687683403"><ele>67.33333333333333</ele><time>2026-04-09T09:31:12Z</time></trkpt><trkpt lat="42.594294261445" lon="2.854111547292874"><ele>67.66666666666667</ele><time>2026-04-09T09:31:13Z</time></trkpt><trkpt lat="42.59411418746523" lon="2.8540326159038836"><ele>68.0</ele><time>2026-04-09T09:31:14Z</time></trkpt><trkpt lat="42.59393502214057" lon="2.8539493710848305"><ele>68.0</ele><time>2026-04-09T09:31:15Z</time></trkpt><trkpt lat="42.593753908643976" lon="2.853866523007674"><ele>68.0</ele><time>2026-04-09T09:31:16Z</time></trkpt><trkpt lat="42.59357291377604" lon="2.8537842204356476"><ele>68.0</ele><time>2026-04-09T09:31:17Z</time></trkpt><trkpt lat="42.59339219874703" lon="2.853706759808164"><ele>69.0</ele><time>2026-04-09T09:31:18Z</time></trkpt><trkpt lat="42.59321098313739" lon="2.853627090762158"><ele>70.0</ele><time>2026-04-09T09:31:19Z</time></trkpt><trkpt lat="42.593032438018255" lon="2.8535504770376905"><ele>71.0</ele><time>2026-04-09T09:31:20Z</time></trkpt><trkpt lat="42.592852591911104" lon="2.853472019452055"><ele>71.66666666666667</ele><time>2026-04-09T09:31:21Z</time></trkpt><trkpt lat="42.59267519480136" lon="2.853392394940137"><ele>72.33333333333333</ele><time>2026-04-09T09:31:22Z</time></trkpt><trkpt lat="42.59249765243285" lon="2.8533149683511616"><ele>73.0</ele><time>2026-04-09T09:31:23Z</time></trkpt><trkpt lat="42.59232042728613" lon="2.85323666736388"><ele>73.0</ele><time>2026-04-09T09:31:24Z</time></trkpt><trkpt lat="42.592141893974606" lon="2.8531563479939304"><ele>73.0</ele><time>2026-04-09T09:31:25Z</time></trkpt><trkpt lat="42.591961973995595" lon="2.853075302754925"><ele>73.0</ele><time>2026-04-09T09:31:26Z</time></trkpt><trkpt lat="42.591783399321464" lon="2.8529979876027"><ele>73.66666666666666</ele><time>2026-04-09T09:31:27Z</time></trkpt><trkpt lat="42.59160814095883" lon="2.852920046655122"><ele>74.33333333333333</ele><time>2026-04-09T09:31:28Z</time></trkpt><trkpt lat="42.591438483026" lon="2.8528432962049535"><ele>75.0</ele><time>2026-04-09T09:31:29Z</time></trkpt><trkpt lat="42.59126929479442" lon="2.8527657967032596"><ele>76.33333333333333</ele><time>2026-04-09T09:31:30Z</time></trkpt><trkpt lat="42.591103009469535" lon="2.8526919921121814"><ele>77.66666666666666</ele><time>2026-04-09T09:31:31Z</time></trkpt><trkpt lat="42.59094358688971" lon="2.8526191481974257"><ele>79.0</ele><time>2026-04-09T09:31:32Z</time></trkpt><trkpt lat="42.590786000872434" lon="2.8525514676594024"><ele>79.0</ele><time>2026-04-09T09:31:33Z</time></trkpt><trkpt lat="42.590638517484535" lon="2.852488160333459"><ele>79.0</ele><time>2026-04-09T09:31:34Z</time></trkpt><trkpt lat="42.59050398299996" lon="2.8524313060335102"><ele>79.0</ele><time>2026-04-09T09:31:35Z</time></trkpt><trkpt lat="42.59038081793413" lon="2.8523779597667493"><ele>79.0</ele><time>2026-04-09T09:31:36Z</time></trkpt><trkpt lat="42.59026460122918" lon="2.8523272586801625"><ele>79.6</ele><time>2026-04-09T09:31:37Z</time></trkpt><trkpt lat="42.59015772155738" lon="2.8522784271361448"><ele>80.2</ele><time>2026-04-09T09:31:38Z</time></trkpt><trkpt lat="42.59005930023614" lon="2.8522324539497115"><ele>80.8</ele><time>2026-04-09T09:31:39Z</time></trkpt><trkpt lat="42.589970528984736" lon="2.852188035484837"><ele>81.39999999999999</ele><time>2026-04-09T09:31:40Z</time></trkpt><trkpt lat="42.5898905020235" lon="2.852147498762479"><ele>82.0</ele><time>2026-04-09T09:31:41Z</time></trkpt><trkpt lat="42.58982668827697" lon="2.852108939368366"><ele>82.0</ele><time>2026-04-09T09:31:42Z</time></trkpt><trkpt lat="42.589720659860475" lon="2.8520180661975147"><ele>82.0</ele><time>2026-04-09T09:31:44Z</time></trkpt><trkpt lat="42.589675394199304" lon="2.8519410453819454"><ele>82.0</ele><time>2026-04-09T09:31:45Z</time></trkpt><trkpt lat="42.58962980721714" lon="2.8518515419471733"><ele>82.0</ele><time>2026-04-09T09:31:46Z</time></trkpt><trkpt lat="42.58957427184134" lon="2.851787102039361"><ele>82.0</ele><time>2026-04-09T09:31:47Z</time></trkpt><trkpt lat="42.58950472465285" lon="2.8517537848368795"><ele>82.0</ele><time>2026-04-09T09:31:48Z</time></trkpt><trkpt lat="42.58943519679068" lon="2.851763417086999"><ele>81.8</ele><time>2026-04-09T09:31:49Z</time></trkpt><trkpt lat="42.58936060634488" lon="2.851801438287356"><ele>81.6</ele><time>2026-04-09T09:31:50Z</time></trkpt><trkpt lat="42.58928083523268" lon="2.8518345981490696"><ele>81.39999999999999</ele><time>2026-04-09T09:31:51Z</time></trkpt><trkpt lat="42.58918920198206" lon="2.8518256239192286"><ele>81.19999999999999</ele><time>2026-04-09T09:31:52Z</time></trkpt><trkpt lat="42.589087411290166" lon="2.851793320551253"><ele>81.0</ele><time>2026-04-09T09:31:53Z</time></trkpt><trkpt lat="42.58898102254698" lon="2.851746885745636"><ele>81.0</ele><time>2026-04-09T09:31:54Z</time></trkpt><trkpt lat="42.588864867741734" lon="2.851697121941734"><ele>81.0</ele><time>2026-04-09T09:31:55Z</time></trkpt><trkpt lat="42.5887377552264" lon="2.8516424985687587"><ele>81.0</ele><time>2026-04-09T09:31:56Z</time></trkpt><trkpt lat="42.58859869472959" lon="2.85157980626006"><ele>81.0</ele><time>2026-04-09T09:31:57Z</time></trkpt><trkpt lat="42.58844826152327" lon="2.8515134939601845"><ele>81.33333333333333</ele><time>2026-04-09T09:31:58Z</time></trkpt><trkpt lat="42.58829882028571" lon="2.8514465938548654"><ele>81.66666666666666</ele><time>2026-04-09T09:31:59Z</time></trkpt><trkpt lat="42.58814913444637" lon="2.851377771279103"><ele>82.0</ele><time>2026-04-09T09:32:00Z</time></trkpt><trkpt lat="42.58798917640347" lon="2.8513041288709586"><ele>82.0</ele><time>2026-04-09T09:32:01Z</time></trkpt><trkpt lat="42.587823707778476" lon="2.851230978725649"><ele>82.0</ele><time>2026-04-09T09:32:02Z</time></trkpt><trkpt lat="42.587654171779405" lon="2.8511556368964492"><ele>82.0</ele><time>2026-04-09T09:32:03Z</time></trkpt><trkpt lat="42.587473912022745" lon="2.8510763694326826"><ele>82.0</ele><time>2026-04-09T09:32:04Z</time></trkpt><trkpt lat="42.58729171966229" lon="2.8509918342553293"><ele>82.0</ele><time>2026-04-09T09:32:05Z</time></trkpt><trkpt lat="42.587106732058736" lon="2.8509072150145864"><ele>82.0</ele><time>2026-04-09T09:32:06Z</time></trkpt><trkpt lat="42.58692963351375" lon="2.8508277757241736"><ele>83.33333333333333</ele><time>2026-04-09T09:32:07Z</time></trkpt><trkpt lat="42.586748231580195" lon="2.850751102776604"><ele>84.66666666666667</ele><time>2026-04-09T09:32:08Z</time></trkpt><trkpt lat="42.586564978993906" lon="2.8506749127373525"><ele>86.0</ele><time>2026-04-09T09:32:09Z</time></trkpt><trkpt lat="42.58638061903561" lon="2.850597821904244"><ele>86.0</ele><time>2026-04-09T09:32:10Z</time></trkpt><trkpt lat="42.586195340202906" lon="2.8505236333411372"><ele>86.0</ele><time>2026-04-09T09:32:11Z</time></trkpt><trkpt lat="42.58600585136439" lon="2.850452602923877"><ele>86.0</ele><time>2026-04-09T09:32:12Z</time></trkpt><trkpt lat="42.585813723288624" lon="2.850387716097213"><ele>87.33333333333334</ele><time>2026-04-09T09:32:13Z</time></trkpt><trkpt lat="42.58561741136562" lon="2.8503342577412294"><ele>88.66666666666667</ele><time>2026-04-09T09:32:14Z</time></trkpt><trkpt lat="42.58541619758404" lon="2.8502923574946615"><ele>90.0</ele><time>2026-04-09T09:32:15Z</time></trkpt><trkpt lat="42.5852152051726" lon="2.850263854493536"><ele>91.66666666666667</ele><time>2026-04-09T09:32:16Z</time></trkpt><trkpt lat="42.58501062564841" lon="2.8502451669628415"><ele>93.33333333333334</ele><time>2026-04-09T09:32:17Z</time></trkpt><trkpt lat="42.584801671635795" lon="2.8502355206915584"><ele>95.0</ele><time>2026-04-09T09:32:18Z</time></trkpt><trkpt lat="42.58458921587437" lon="2.850233410960265"><ele>94.33333333333334</ele><time>2026-04-09T09:32:19Z</time></trkpt><trkpt lat="42.5843747693002" lon="2.8502363889058566"><ele>93.66666666666667</ele><time>2026-04-09T09:32:20Z</time></trkpt><trkpt lat="42.58415835621307" lon="2.850240810234465"><ele>93.0</ele><time>2026-04-09T09:32:21Z</time></trkpt><trkpt lat="42.5839396951917" lon="2.8502451943928078"><ele>93.0</ele><time>2026-04-09T09:32:22Z</time></trkpt><trkpt lat="42.58372013627451" lon="2.8502514138404815"><ele>93.0</ele><time>2026-04-09T09:32:23Z</time></trkpt><trkpt lat="42.583497382088474" lon="2.850255713119744"><ele>93.0</ele><time>2026-04-09T09:32:24Z</time></trkpt><trkpt lat="42.58327470823913" lon="2.850259476603928"><ele>92.0</ele><time>2026-04-09T09:32:25Z</time></trkpt><trkpt lat="42.583052913557445" lon="2.85026391372776"><ele>91.0</ele><time>2026-04-09T09:32:26Z</time></trkpt><trkpt lat="42.582833136318264" lon="2.850267294230034"><ele>90.0</ele><time>2026-04-09T09:32:27Z</time></trkpt><trkpt lat="42.58261286388214" lon="2.8502723220136192"><ele>89.66666666666667</ele><time>2026-04-09T09:32:28Z</time></trkpt><trkpt lat="42.58239155429832" lon="2.850276318597702"><ele>89.33333333333334</ele><time>2026-04-09T09:32:29Z</time></trkpt><trkpt lat="42.58216955545402" lon="2.8502789206504833"><ele>89.0</ele><time>2026-04-09T09:32:30Z</time></trkpt><trkpt lat="42.58194460592644" lon="2.8502817609960296"><ele>88.5</ele><time>2026-04-09T09:32:31Z</time></trkpt><trkpt lat="42.581719318685145" lon="2.850286718574892"><ele>88.0</ele><time>2026-04-09T09:32:32Z</time></trkpt><trkpt lat="42.581494422412774" lon="2.8502939978732966"><ele>88.0</ele><time>2026-04-09T09:32:33Z</time></trkpt><trkpt lat="42.58126813491647" lon="2.8503004310682067"><ele>88.0</ele><time>2026-04-09T09:32:34Z</time></trkpt><trkpt lat="42.581042329896306" lon="2.8503070282255956"><ele>88.0</ele><time>2026-04-09T09:32:35Z</time></trkpt><trkpt lat="42.5808161327778" lon="2.8503122587017664"><ele>88.0</ele><time>2026-04-09T09:32:36Z</time></trkpt><trkpt lat="42.58059143830881" lon="2.8503181258546686"><ele>88.0</ele><time>2026-04-09T09:32:37Z</time></trkpt><trkpt lat="42.580367548514864" lon="2.8503269546635073"><ele>88.0</ele><time>2026-04-09T09:32:38Z</time></trkpt><trkpt lat="42.580145163687106" lon="2.850335778436696"><ele>88.0</ele><time>2026-04-09T09:32:39Z</time></trkpt><trkpt lat="42.57992414155634" lon="2.85034507357458"><ele>88.0</ele><time>2026-04-09T09:32:40Z</time></trkpt><trkpt lat="42.57970551331106" lon="2.8503535682250396"><ele>88.0</ele><time>2026-04-09T09:32:41Z</time></trkpt><trkpt lat="42.57948773356188" lon="2.850361242028097"><ele>88.0</ele><time>2026-04-09T09:32:42Z</time></trkpt><trkpt lat="42.57927382583236" lon="2.850366983376436"><ele>88.66666666666666</ele><time>2026-04-09T09:32:43Z</time></trkpt><trkpt lat="42.579062959527064" lon="2.850372353963167"><ele>89.33333333333333</ele><time>2026-04-09T09:32:44Z</time></trkpt><trkpt lat="42.578856748059245" lon="2.8503762075241417"><ele>90.0</ele><time>2026-04-09T09:32:45Z</time></trkpt><trkpt lat="42.57865297225915" lon="2.85038320585859"><ele>91.33333333333333</ele><time>2026-04-09T09:32:46Z</time></trkpt><trkpt lat="42.57845015449415" lon="2.850389953409777"><ele>92.66666666666666</ele><time>2026-04-09T09:32:47Z</time></trkpt><trkpt lat="42.5782488117075" lon="2.850395444649669"><ele>94.0</ele><time>2026-04-09T09:32:48Z</time></trkpt><trkpt lat="42.578047751204785" lon="2.8503996458531486"><ele>95.0</ele><time>2026-04-09T09:32:49Z</time></trkpt><trkpt lat="42.57784807048412" lon="2.8504064930320334"><ele>96.0</ele><time>2026-04-09T09:32:50Z</time></trkpt><trkpt lat="42.57764801598914" lon="2.8504113719452877"><ele>97.0</ele><time>2026-04-09T09:32:51Z</time></trkpt><trkpt lat="42.5774469782783" lon="2.8504173225865848"><ele>97.0</ele><time>2026-04-09T09:32:52Z</time></trkpt><trkpt lat="42.57724683829207" lon="2.850425079493854"><ele>97.0</ele><time>2026-04-09T09:32:53Z</time></trkpt><trkpt lat="42.577045824579805" lon="2.850433479600077"><ele>97.0</ele><time>2026-04-09T09:32:54Z</time></trkpt><trkpt lat="42.57684447220519" lon="2.85044441978913"><ele>98.0</ele><time>2026-04-09T09:32:55Z</time></trkpt><trkpt lat="42.576641489530424" lon="2.8504573374849898"><ele>99.0</ele><time>2026-04-09T09:32:56Z</time></trkpt><trkpt lat="42.57643937723031" lon="2.85047271103508"><ele>100.0</ele><time>2026-04-09T09:32:57Z</time></trkpt><trkpt lat="42.5762355942716" lon="2.8504902499922724"><ele>100.0</ele><time>2026-04-09T09:32:58Z</time></trkpt><trkpt lat="42.5760300512194" lon="2.850507864209242"><ele>100.0</ele><time>2026-04-09T09:32:59Z</time></trkpt><trkpt lat="42.57582727152585" lon="2.850527504255502"><ele>100.0</ele><time>2026-04-09T09:33:00Z</time></trkpt><trkpt lat="42.57562735984084" lon="2.8505473370463603"><ele>100.0</ele><time>2026-04-09T09:33:01Z</time></trkpt><trkpt lat="42.57542680997317" lon="2.8505675094345237"><ele>100.0</ele><time>2026-04-09T09:33:02Z</time></trkpt><trkpt lat="42.57522644647984" lon="2.8505876220115356"><ele>100.0</ele><time>2026-04-09T09:33:03Z</time></trkpt><trkpt lat="42.575030368302386" lon="2.8506048299720956"><ele>99.66666666666667</ele><time>2026-04-09T09:33:04Z</time></trkpt><trkpt lat="42.57484185500159" lon="2.8506219889159654"><ele>99.33333333333334</ele><time>2026-04-09T09:33:05Z</time></trkpt><trkpt lat="42.574654204730756" lon="2.8506403604943524"><ele>99.0</ele><time>2026-04-09T09:33:06Z</time></trkpt><trkpt lat="42.57447587194469" lon="2.8506599090568656"><ele>100.0</ele><time>2026-04-09T09:33:07Z</time></trkpt><trkpt lat="42.57430610302203" lon="2.850675168478338"><ele>101.0</ele><time>2026-04-09T09:33:08Z</time></trkpt><trkpt lat="42.574140769585114" lon="2.8506908495358902"><ele>102.0</ele><time>2026-04-09T09:33:09Z</time></trkpt><trkpt lat="42.573986956513515" lon="2.850704138951152"><ele>102.0</ele><time>2026-04-09T09:33:10Z</time></trkpt><trkpt lat="42.57384915150194" lon="2.850716428334743"><ele>102.0</ele><time>2026-04-09T09:33:11Z</time></trkpt><trkpt lat="42.57372703474909" lon="2.8507279461369954"><ele>102.0</ele><time>2026-04-09T09:33:12Z</time></trkpt><trkpt lat="42.57361343641561" lon="2.850736822027302"><ele>102.0</ele><time>2026-04-09T09:33:13Z</time></trkpt><trkpt lat="42.57351147124307" lon="2.8507439156703"><ele>101.83333333333333</ele><time>2026-04-09T09:33:14Z</time></trkpt><trkpt lat="42.573422962570206" lon="2.8507461825114166"><ele>101.66666666666666</ele><time>2026-04-09T09:33:15Z</time></trkpt><trkpt lat="42.57334676501741" lon="2.850742642574331"><ele>101.5</ele><time>2026-04-09T09:33:16Z</time></trkpt><trkpt lat="42.57327371847845" lon="2.8507260954560705"><ele>101.33333333333333</ele><time>2026-04-09T09:33:17Z</time></trkpt><trkpt lat="42.5732039522201" lon="2.85067893112759"><ele>101.16666666666666</ele><time>2026-04-09T09:33:18Z</time></trkpt><trkpt lat="42.57314006279038" lon="2.8506136941841502"><ele>101.0</ele><time>2026-04-09T09:33:19Z</time></trkpt><trkpt lat="42.57307041760843" lon="2.8505698379412263"><ele>100.99999999999999</ele><time>2026-04-09T09:33:20Z</time></trkpt><trkpt lat="42.572996356994544" lon="2.850564558090135"><ele>101.0</ele><time>2026-04-09T09:33:21Z</time></trkpt><trkpt lat="42.57292813805653" lon="2.8506101845395246"><ele>101.0</ele><time>2026-04-09T09:33:22Z</time></trkpt><trkpt lat="42.5728666243923" lon="2.850687096725065"><ele>101.0</ele><time>2026-04-09T09:33:23Z</time></trkpt><trkpt lat="42.57279922661538" lon="2.8507552753645538"><ele>100.99999999999999</ele><time>2026-04-09T09:33:24Z</time></trkpt><trkpt lat="42.57271401410253" lon="2.850798226784193"><ele>101.0</ele><time>2026-04-09T09:33:25Z</time></trkpt><trkpt lat="42.57261142189668" lon="2.850820885094942"><ele>100.5</ele><time>2026-04-09T09:33:26Z</time></trkpt><trkpt lat="42.572496996134" lon="2.850836190488714"><ele>100.0</ele><time>2026-04-09T09:33:27Z</time></trkpt><trkpt lat="42.57236919356244" lon="2.8508472278316463"><ele>99.5</ele><time>2026-04-09T09:33:28Z</time></trkpt><trkpt lat="42.57222876313245" lon="2.850857585633174"><ele>99.0</ele><time>2026-04-09T09:33:29Z</time></trkpt><trkpt lat="42.572081017042" lon="2.850871833337321"><ele>99.0</ele><time>2026-04-09T09:33:30Z</time></trkpt><trkpt lat="42.57192281756334" lon="2.8508872490005466"><ele>99.0</ele><time>2026-04-09T09:33:31Z</time></trkpt><trkpt lat="42.57176638775128" lon="2.8509030941652096"><ele>99.0</ele><time>2026-04-09T09:33:32Z</time></trkpt><trkpt lat="42.57160493230772" lon="2.8509201220077043"><ele>99.0</ele><time>2026-04-09T09:33:33Z</time></trkpt><trkpt lat="42.57143442717489" lon="2.8509376160209525"><ele>99.0</ele><time>2026-04-09T09:33:34Z</time></trkpt><trkpt lat="42.571256615129016" lon="2.8509560043045754"><ele>99.0</ele><time>2026-04-09T09:33:35Z</time></trkpt><trkpt lat="42.57107103753712" lon="2.850972854293817"><ele>98.33333333333334</ele><time>2026-04-09T09:33:36Z</time></trkpt><trkpt lat="42.57087985712375" lon="2.850991022534726"><ele>97.66666666666667</ele><time>2026-04-09T09:33:37Z</time></trkpt><trkpt lat="42.57068344841677" lon="2.851009552449487"><ele>97.0</ele><time>2026-04-09T09:33:38Z</time></trkpt><trkpt lat="42.570483775796895" lon="2.851029250716519"><ele>97.33333333333334</ele><time>2026-04-09T09:33:39Z</time></trkpt><trkpt lat="42.57028670866473" lon="2.851048400524388"><ele>97.66666666666666</ele><time>2026-04-09T09:33:40Z</time></trkpt><trkpt lat="42.57008505572949" lon="2.851068338395825"><ele>98.0</ele><time>2026-04-09T09:33:41Z</time></trkpt><trkpt lat="42.5698768629182" lon="2.8510900563919597"><ele>98.0</ele><time>2026-04-09T09:33:42Z</time></trkpt><trkpt lat="42.569666130544604" lon="2.8511113713065255"><ele>98.0</ele><time>2026-04-09T09:33:43Z</time></trkpt><trkpt lat="42.56945589174014" lon="2.8511319872658536"><ele>98.0</ele><time>2026-04-09T09:33:44Z</time></trkpt><trkpt lat="42.56924342684181" lon="2.851150609873334"><ele>97.0</ele><time>2026-04-09T09:33:45Z</time></trkpt><trkpt lat="42.56903224238174" lon="2.8511713197357347"><ele>96.0</ele><time>2026-04-09T09:33:46Z</time></trkpt><trkpt lat="42.56882127161219" lon="2.8511920271728783"><ele>95.0</ele><time>2026-04-09T09:33:47Z</time></trkpt><trkpt lat="42.56861287864904" lon="2.851215771224713"><ele>95.0</ele><time>2026-04-09T09:33:48Z</time></trkpt><trkpt lat="42.568406775200515" lon="2.8512370253044095"><ele>95.0</ele><time>2026-04-09T09:33:49Z</time></trkpt><trkpt lat="42.56819869951714" lon="2.851256046880857"><ele>95.0</ele><time>2026-04-09T09:33:50Z</time></trkpt><trkpt lat="42.56799074545291" lon="2.851275425645983"><ele>95.33333333333334</ele><time>2026-04-09T09:33:51Z</time></trkpt><trkpt lat="42.567782866191315" lon="2.851295408645226"><ele>95.66666666666667</ele><time>2026-04-09T09:33:52Z</time></trkpt><trkpt lat="42.56757441231646" lon="2.8513182768320284"><ele>96.0</ele><time>2026-04-09T09:33:53Z</time></trkpt><trkpt lat="42.56736474346288" lon="2.8513412549216075"><ele>96.0</ele><time>2026-04-09T09:33:54Z</time></trkpt><trkpt lat="42.5671559464301" lon="2.8513631630073064"><ele>96.0</ele><time>2026-04-09T09:33:55Z</time></trkpt><trkpt lat="42.56694979844722" lon="2.851385444204499"><ele>96.0</ele><time>2026-04-09T09:33:56Z</time></trkpt><trkpt lat="42.56674274406135" lon="2.851407182213905"><ele>95.33333333333333</ele><time>2026-04-09T09:33:57Z</time></trkpt><trkpt lat="42.56653342296533" lon="2.8514299225420703"><ele>94.66666666666666</ele><time>2026-04-09T09:33:58Z</time></trkpt><trkpt lat="42.56632035532148" lon="2.85144898250173"><ele>94.0</ele><time>2026-04-09T09:33:59Z</time></trkpt><trkpt lat="42.56610718739608" lon="2.851470619481461"><ele>93.66666666666666</ele><time>2026-04-09T09:34:00Z</time></trkpt><trkpt lat="42.565893659654236" lon="2.851492476825896"><ele>93.33333333333333</ele><time>2026-04-09T09:34:01Z</time></trkpt><trkpt lat="42.56568174524328" lon="2.851513482438866"><ele>93.0</ele><time>2026-04-09T09:34:02Z</time></trkpt><trkpt lat="42.565470140396414" lon="2.851533325735152"><ele>93.0</ele><time>2026-04-09T09:34:03Z</time></trkpt><trkpt lat="42.56525741007408" lon="2.851554853759249"><ele>93.0</ele><time>2026-04-09T09:34:04Z</time></trkpt><trkpt lat="42.56504374553578" lon="2.8515774841551362"><ele>93.0</ele><time>2026-04-09T09:34:05Z</time></trkpt><trkpt lat="42.56482619195006" lon="2.8515990598373584"><ele>93.0</ele><time>2026-04-09T09:34:06Z</time></trkpt><trkpt lat="42.56461293882252" lon="2.8516208430248455"><ele>93.0</ele><time>2026-04-09T09:34:07Z</time></trkpt><trkpt lat="42.56439803011513" lon="2.851643198343655"><ele>93.0</ele><time>2026-04-09T09:34:08Z</time></trkpt><trkpt lat="42.56418334415979" lon="2.851665940086424"><ele>92.33333333333333</ele><time>2026-04-09T09:34:09Z</time></trkpt><trkpt lat="42.56396656164945" lon="2.85169093572301"><ele>91.66666666666666</ele><time>2026-04-09T09:34:10Z</time></trkpt><trkpt lat="42.56375118355544" lon="2.8517135396313353"><ele>91.0</ele><time>2026-04-09T09:34:11Z</time></trkpt><trkpt lat="42.56353459792487" lon="2.851736980683022"><ele>90.66666666666666</ele><time>2026-04-09T09:34:12Z</time></trkpt><trkpt lat="42.56331694937218" lon="2.851762244827687"><ele>90.33333333333333</ele><time>2026-04-09T09:34:13Z</time></trkpt><trkpt lat="42.5630999038196" lon="2.8517846561113727"><ele>90.0</ele><time>2026-04-09T09:34:14Z</time></trkpt><trkpt lat="42.5628869853119" lon="2.851804955933763"><ele>86.66666666666667</ele><time>2026-04-09T09:34:15Z</time></trkpt><trkpt lat="42.562675221112784" lon="2.8518255385602935"><ele>83.33333333333334</ele><time>2026-04-09T09:34:16Z</time></trkpt><trkpt lat="42.56247109315526" lon="2.851845998618947"><ele>80.0</ele><time>2026-04-09T09:34:17Z</time></trkpt><trkpt lat="42.56226913149115" lon="2.8518656200931036"><ele>80.0</ele><time>2026-04-09T09:34:18Z</time></trkpt><trkpt lat="42.5620681796537" lon="2.85188779570261"><ele>80.0</ele><time>2026-04-09T09:34:19Z</time></trkpt><trkpt lat="42.56186913196076" lon="2.851912872519934"><ele>80.0</ele><time>2026-04-09T09:34:20Z</time></trkpt><trkpt lat="42.56167431317457" lon="2.851948537900216"><ele>80.66666666666667</ele><time>2026-04-09T09:34:21Z</time></trkpt><trkpt lat="42.56148153165468" lon="2.8519964801982187"><ele>81.33333333333333</ele><time>2026-04-09T09:34:22Z</time></trkpt><trkpt lat="42.5612929892351" lon="2.8520598600819373"><ele>82.0</ele><time>2026-04-09T09:34:23Z</time></trkpt><trkpt lat="42.56110626025361" lon="2.852135900123312"><ele>83.66666666666666</ele><time>2026-04-09T09:34:24Z</time></trkpt><trkpt lat="42.56092659091145" lon="2.8522308877981417"><ele>85.33333333333333</ele><time>2026-04-09T09:34:25Z</time></trkpt><trkpt lat="42.56075154526223" lon="2.8523402583671653"><ele>87.0</ele><time>2026-04-09T09:34:26Z</time></trkpt><trkpt lat="42.56058345531521" lon="2.8524645444501084"><ele>87.0</ele><time>2026-04-09T09:34:27Z</time></trkpt><trkpt lat="42.560421816670676" lon="2.8525997434816888"><ele>87.0</ele><time>2026-04-09T09:34:28Z</time></trkpt><trkpt lat="42.56026627838409" lon="2.8527484191313515"><ele>87.0</ele><time>2026-04-09T09:34:29Z</time></trkpt><trkpt lat="42.56011841381365" lon="2.8529097402104937"><ele>86.66666666666667</ele><time>2026-04-09T09:34:30Z</time></trkpt><trkpt lat="42.55997706995693" lon="2.8530838935471676"><ele>86.33333333333334</ele><time>2026-04-09T09:34:31Z</time></trkpt><trkpt lat="42.55984077243369" lon="2.853268149669177"><ele>86.0</ele><time>2026-04-09T09:34:32Z</time></trkpt><trkpt lat="42.55970657174168" lon="2.8534575997949143"><ele>84.66666666666667</ele><time>2026-04-09T09:34:33Z</time></trkpt><trkpt lat="42.55957699697056" lon="2.853653016386404"><ele>83.33333333333333</ele><time>2026-04-09T09:34:34Z</time></trkpt><trkpt lat="42.559450427119174" lon="2.853854983155196"><ele>82.0</ele><time>2026-04-09T09:34:35Z</time></trkpt><trkpt lat="42.55932200608622" lon="2.8540551262602167"><ele>83.33333333333333</ele><time>2026-04-09T09:34:36Z</time></trkpt><trkpt lat="42.55919030112702" lon="2.854256528574674"><ele>84.66666666666667</ele><time>2026-04-09T09:34:37Z</time></trkpt><trkpt lat="42.55905350946221" lon="2.854452660832394"><ele>86.0</ele><time>2026-04-09T09:34:38Z</time></trkpt><trkpt lat="42.55890937072753" lon="2.8546427303211424"><ele>86.0</ele><time>2026-04-09T09:34:39Z</time></trkpt><trkpt lat="42.558757680429736" lon="2.8548230625454014"><ele>86.0</ele><time>2026-04-09T09:34:40Z</time></trkpt><trkpt lat="42.55859766531225" lon="2.854996412251877"><ele>86.0</ele><time>2026-04-09T09:34:41Z</time></trkpt><trkpt lat="42.55843181316586" lon="2.8551607603256435"><ele>86.66666666666667</ele><time>2026-04-09T09:34:42Z</time></trkpt><trkpt lat="42.55826745997912" lon="2.855321254884151"><ele>87.33333333333333</ele><time>2026-04-09T09:34:43Z</time></trkpt><trkpt lat="42.55809894748871" lon="2.855483113358229"><ele>88.0</ele><time>2026-04-09T09:34:44Z</time></trkpt><trkpt lat="42.557936128769185" lon="2.8556416192758696"><ele>88.33333333333333</ele><time>2026-04-09T09:34:45Z</time></trkpt><trkpt lat="42.55777383894704" lon="2.8557991424645714"><ele>88.66666666666667</ele><time>2026-04-09T09:34:46Z</time></trkpt><trkpt lat="42.55761527088316" lon="2.8559543538684227"><ele>89.0</ele><time>2026-04-09T09:34:47Z</time></trkpt><trkpt lat="42.557451925501184" lon="2.8561085447675563"><ele>88.33333333333334</ele><time>2026-04-09T09:34:48Z</time></trkpt><trkpt lat="42.55729166156318" lon="2.8562609160510384"><ele>87.66666666666667</ele><time>2026-04-09T09:34:49Z</time></trkpt><trkpt lat="42.55713055370519" lon="2.856411947548292"><ele>87.0</ele><time>2026-04-09T09:34:50Z</time></trkpt><trkpt lat="42.55696970063083" lon="2.8565656966961934"><ele>85.66666666666667</ele><time>2026-04-09T09:34:51Z</time></trkpt><trkpt lat="42.55681152245854" lon="2.856718180114672"><ele>84.33333333333334</ele><time>2026-04-09T09:34:52Z</time></trkpt><trkpt lat="42.55665184428446" lon="2.856868453342575"><ele>83.0</ele><time>2026-04-09T09:34:53Z</time></trkpt><trkpt lat="42.55649232079613" lon="2.857016919985114"><ele>83.0</ele><time>2026-04-09T09:34:54Z</time></trkpt><trkpt lat="42.55633380254378" lon="2.857167479513409"><ele>83.0</ele><time>2026-04-09T09:34:55Z</time></trkpt><trkpt lat="42.556175595931514" lon="2.857316795785815"><ele>83.0</ele><time>2026-04-09T09:34:56Z</time></trkpt><trkpt lat="42.55601458526401" lon="2.8574666963674726"><ele>81.0</ele><time>2026-04-09T09:34:57Z</time></trkpt><trkpt lat="42.55585248073073" lon="2.8576154926273825"><ele>79.0</ele><time>2026-04-09T09:34:58Z</time></trkpt><trkpt lat="42.55569338092048" lon="2.857762474608134"><ele>77.0</ele><time>2026-04-09T09:34:59Z</time></trkpt><trkpt lat="42.555533503341884" lon="2.8579058840706124"><ele>76.33333333333334</ele><time>2026-04-09T09:35:00Z</time></trkpt><trkpt lat="42.555371199434404" lon="2.8580475054169665"><ele>75.66666666666667</ele><time>2026-04-09T09:35:01Z</time></trkpt><trkpt lat="42.555204971199935" lon="2.85819161352044"><ele>75.0</ele><time>2026-04-09T09:35:02Z</time></trkpt><trkpt lat="42.55503867554899" lon="2.8583307111061287"><ele>75.33333333333333</ele><time>2026-04-09T09:35:03Z</time></trkpt><trkpt lat="42.55486752541421" lon="2.858470087596765"><ele>75.66666666666666</ele><time>2026-04-09T09:35:04Z</time></trkpt><trkpt lat="42.554697574184026" lon="2.8586063309435135"><ele>76.0</ele><time>2026-04-09T09:35:05Z</time></trkpt><trkpt lat="42.55452673294473" lon="2.858735898649071"><ele>77.33333333333333</ele><time>2026-04-09T09:35:06Z</time></trkpt><trkpt lat="42.55435346015348" lon="2.8588489554221046"><ele>78.66666666666667</ele><time>2026-04-09T09:35:07Z</time></trkpt><trkpt lat="42.55417261331339" lon="2.8589452643096793"><ele>80.0</ele><time>2026-04-09T09:35:08Z</time></trkpt><trkpt lat="42.55398649198586" lon="2.859021411882683"><ele>80.0</ele><time>2026-04-09T09:35:09Z</time></trkpt><trkpt lat="42.553789244281" lon="2.859076287224468"><ele>80.0</ele><time>2026-04-09T09:35:10Z</time></trkpt><trkpt lat="42.55359489457709" lon="2.8591062490419534"><ele>80.0</ele><time>2026-04-09T09:35:11Z</time></trkpt><trkpt lat="42.55339812538679" lon="2.859120173929425"><ele>80.33333333333334</ele><time>2026-04-09T09:35:12Z</time></trkpt><trkpt lat="42.55320072386731" lon="2.859111411875277"><ele>80.66666666666667</ele><time>2026-04-09T09:35:13Z</time></trkpt><trkpt lat="42.553006387195104" lon="2.859077691231645"><ele>81.0</ele><time>2026-04-09T09:35:14Z</time></trkpt><trkpt lat="42.55281537106598" lon="2.859018177947375"><ele>80.33333333333333</ele><time>2026-04-09T09:35:15Z</time></trkpt><trkpt lat="42.55262851078337" lon="2.8589311881333557"><ele>79.66666666666666</ele><time>2026-04-09T09:35:16Z</time></trkpt><trkpt lat="42.55244577569272" lon="2.858826039961191"><ele>79.0</ele><time>2026-04-09T09:35:17Z</time></trkpt><trkpt lat="42.55227091225843" lon="2.858700769848294"><ele>79.0</ele><time>2026-04-09T09:35:18Z</time></trkpt><trkpt lat="42.552101171063384" lon="2.85855829891492"><ele>79.0</ele><time>2026-04-09T09:35:19Z</time></trkpt><trkpt lat="42.55193227251257" lon="2.858405306226762"><ele>79.0</ele><time>2026-04-09T09:35:20Z</time></trkpt><trkpt lat="42.55176444563766" lon="2.8582518569837383"><ele>79.33333333333333</ele><time>2026-04-09T09:35:21Z</time></trkpt><trkpt lat="42.55159191896224" lon="2.8580993534906174"><ele>79.66666666666667</ele><time>2026-04-09T09:35:22Z</time></trkpt><trkpt lat="42.55142068896569" lon="2.8579459282568447"><ele>80.0</ele><time>2026-04-09T09:35:23Z</time></trkpt><trkpt lat="42.55124997544768" lon="2.8577882678532562"><ele>79.0</ele><time>2026-04-09T09:35:24Z</time></trkpt><trkpt lat="42.55108062076399" lon="2.85763023268158"><ele>78.0</ele><time>2026-04-09T09:35:25Z</time></trkpt><trkpt lat="42.55091219461385" lon="2.857472631469878"><ele>77.0</ele><time>2026-04-09T09:35:26Z</time></trkpt><trkpt lat="42.55074103649788" lon="2.8573116437681163"><ele>77.0</ele><time>2026-04-09T09:35:27Z</time></trkpt><trkpt lat="42.550572955910425" lon="2.857150642549156"><ele>77.0</ele><time>2026-04-09T09:35:28Z</time></trkpt><trkpt lat="42.55040127013502" lon="2.8569870470276895"><ele>77.0</ele><time>2026-04-09T09:35:29Z</time></trkpt><trkpt lat="42.55023092768934" lon="2.8568279294802243"><ele>77.0</ele><time>2026-04-09T09:35:30Z</time></trkpt><trkpt lat="42.55006230662267" lon="2.8566691664934485"><ele>77.0</ele><time>2026-04-09T09:35:31Z</time></trkpt><trkpt lat="42.54989131108324" lon="2.856508532856489"><ele>77.0</ele><time>2026-04-09T09:35:32Z</time></trkpt><trkpt lat="42.54971804558456" lon="2.8563458312633405"><ele>77.0</ele><time>2026-04-09T09:35:33Z</time></trkpt><trkpt lat="42.549549363995794" lon="2.856187167371875"><ele>77.0</ele><time>2026-04-09T09:35:34Z</time></trkpt><trkpt lat="42.54937467647994" lon="2.8560248347993857"><ele>77.0</ele><time>2026-04-09T09:35:35Z</time></trkpt><trkpt lat="42.54920083229272" lon="2.8558649960607374"><ele>77.0</ele><time>2026-04-09T09:35:36Z</time></trkpt><trkpt lat="42.54902757349039" lon="2.8557002849462063"><ele>77.0</ele><time>2026-04-09T09:35:37Z</time></trkpt><trkpt lat="42.548855507858406" lon="2.8555359193402134"><ele>77.0</ele><time>2026-04-09T09:35:38Z</time></trkpt><trkpt lat="42.54868702471127" lon="2.8553754264612223"><ele>77.33333333333334</ele><time>2026-04-09T09:35:39Z</time></trkpt><trkpt lat="42.5485204192033" lon="2.8552137421466113"><ele>77.66666666666667</ele><time>2026-04-09T09:35:40Z</time></trkpt><trkpt lat="42.54835001971661" lon="2.8550471906499566"><ele>78.0</ele><time>2026-04-09T09:35:41Z</time></trkpt><trkpt lat="42.548178094637386" lon="2.8548901574594323"><ele>78.0</ele><time>2026-04-09T09:35:42Z</time></trkpt><trkpt lat="42.54800889158918" lon="2.854734614336228"><ele>78.0</ele><time>2026-04-09T09:35:43Z</time></trkpt><trkpt lat="42.54783992815336" lon="2.854574431799433"><ele>78.0</ele><time>2026-04-09T09:35:44Z</time></trkpt><trkpt lat="42.547672572581874" lon="2.854413492426902"><ele>78.33333333333333</ele><time>2026-04-09T09:35:45Z</time></trkpt><trkpt lat="42.54750187664331" lon="2.8542463385263277"><ele>78.66666666666666</ele><time>2026-04-09T09:35:46Z</time></trkpt><trkpt lat="42.54733727784663" lon="2.854078620676493"><ele>79.0</ele><time>2026-04-09T09:35:47Z</time></trkpt><trkpt lat="42.547171155222486" lon="2.853903287660729"><ele>78.66666666666666</ele><time>2026-04-09T09:35:48Z</time></trkpt><trkpt lat="42.54701140005998" lon="2.8537201323885415"><ele>78.33333333333333</ele><time>2026-04-09T09:35:49Z</time></trkpt><trkpt lat="42.54685553147719" lon="2.8535335116545797"><ele>78.0</ele><time>2026-04-09T09:35:50Z</time></trkpt><trkpt lat="42.54670994768678" lon="2.8533527607705014"><ele>78.0</ele><time>2026-04-09T09:35:51Z</time></trkpt><trkpt lat="42.546565415300236" lon="2.853168894383086"><ele>78.0</ele><time>2026-04-09T09:35:52Z</time></trkpt><trkpt lat="42.5464223515132" lon="2.852988439635127"><ele>78.0</ele><time>2026-04-09T09:35:53Z</time></trkpt><trkpt lat="42.54628009791874" lon="2.8528153352142436"><ele>78.0</ele><time>2026-04-09T09:35:54Z</time></trkpt><trkpt lat="42.54614491410159" lon="2.8526444451325927"><ele>78.0</ele><time>2026-04-09T09:35:55Z</time></trkpt><trkpt lat="42.546011122675075" lon="2.8524746240834102"><ele>78.0</ele><time>2026-04-09T09:35:56Z</time></trkpt><trkpt lat="42.54588495500659" lon="2.8523103508098884"><ele>78.33333333333333</ele><time>2026-04-09T09:35:57Z</time></trkpt><trkpt lat="42.54576694708076" lon="2.85215903457028"><ele>78.66666666666666</ele><time>2026-04-09T09:35:58Z</time></trkpt><trkpt lat="42.54564887211189" lon="2.8520120512080416"><ele>79.0</ele><time>2026-04-09T09:35:59Z</time></trkpt><trkpt lat="42.54554058476142" lon="2.851874778016532"><ele>79.25</ele><time>2026-04-09T09:36:00Z</time></trkpt><trkpt lat="42.545439464689174" lon="2.8517459063896995"><ele>79.5</ele><time>2026-04-09T09:36:01Z</time></trkpt><trkpt lat="42.545344050334094" lon="2.851623180010664"><ele>79.75</ele><time>2026-04-09T09:36:02Z</time></trkpt><trkpt lat="42.54525764578206" lon="2.8515123848530313"><ele>80.0</ele><time>2026-04-09T09:36:03Z</time></trkpt><trkpt lat="42.54517545752368" lon="2.8514043553279813"><ele>80.0</ele><time>2026-04-09T09:36:04Z</time></trkpt><trkpt lat="42.54509997437047" lon="2.8513020667267517"><ele>80.0</ele><time>2026-04-09T09:36:05Z</time></trkpt><trkpt lat="42.5450352397187" lon="2.8512040262849703"><ele>80.0</ele><time>2026-04-09T09:36:06Z</time></trkpt><trkpt lat="42.5449790669775" lon="2.851110052681447"><ele>80.0</ele><time>2026-04-09T09:36:07Z</time></trkpt><trkpt lat="42.54493462983095" lon="2.851022713883949"><ele>80.0</ele><time>2026-04-09T09:36:08Z</time></trkpt><trkpt lat="42.54490076799787" lon="2.850938365564878"><ele>80.0</ele><time>2026-04-09T09:36:09Z</time></trkpt><trkpt lat="42.54487955247736" lon="2.8508484785084267"><ele>80.28571428571428</ele><time>2026-04-09T09:36:10Z</time></trkpt><trkpt lat="42.54487514047555" lon="2.850743420483756"><ele>80.57142857142857</ele><time>2026-04-09T09:36:11Z</time></trkpt><trkpt lat="42.54487795687398" lon="2.8506409795230923"><ele>80.85714285714286</ele><time>2026-04-09T09:36:12Z</time></trkpt><trkpt lat="42.54485856605468" lon="2.85054414459081"><ele>81.14285714285714</ele><time>2026-04-09T09:36:13Z</time></trkpt><trkpt lat="42.54482105951319" lon="2.8504611212019344"><ele>81.42857142857143</ele><time>2026-04-09T09:36:14Z</time></trkpt><trkpt lat="42.544765575754106" lon="2.8503926219699336"><ele>81.71428571428571</ele><time>2026-04-09T09:36:15Z</time></trkpt><trkpt lat="42.544702119915186" lon="2.850346496614853"><ele>82.0</ele><time>2026-04-09T09:36:16Z</time></trkpt><trkpt lat="42.544633848191516" lon="2.8503222552459375"><ele>81.99999999999999</ele><time>2026-04-09T09:36:17Z</time></trkpt><trkpt lat="42.544562308577824" lon="2.850324092516037"><ele>82.0</ele><time>2026-04-09T09:36:18Z</time></trkpt><trkpt lat="42.544496282611014" lon="2.8503520802061986"><ele>82.0</ele><time>2026-04-09T09:36:19Z</time></trkpt><trkpt lat="42.54443116804829" lon="2.850398823267035"><ele>82.0</ele><time>2026-04-09T09:36:20Z</time></trkpt><trkpt lat="42.54438315750681" lon="2.850463399091128"><ele>82.0</ele><time>2026-04-09T09:36:21Z</time></trkpt><trkpt lat="42.54434526046039" lon="2.850542193766491"><ele>81.99999999999999</ele><time>2026-04-09T09:36:22Z</time></trkpt><trkpt lat="42.54431084988909" lon="2.850616296703738"><ele>82.0</ele><time>2026-04-09T09:36:23Z</time></trkpt><trkpt lat="42.54426229035396" lon="2.8506764935618487"><ele>81.83333333333333</ele><time>2026-04-09T09:36:24Z</time></trkpt><trkpt lat="42.544197798667376" lon="2.8507176713669984"><ele>81.66666666666666</ele><time>2026-04-09T09:36:25Z</time></trkpt><trkpt lat="42.54412250331762" lon="2.8507394671426325"><ele>81.5</ele><time>2026-04-09T09:36:26Z</time></trkpt><trkpt lat="42.54403690956829" lon="2.8507474252425835"><ele>81.33333333333333</ele><time>2026-04-09T09:36:27Z</time></trkpt><trkpt lat="42.543946064878874" lon="2.850741073275225"><ele>81.16666666666667</ele><time>2026-04-09T09:36:28Z</time></trkpt><trkpt lat="42.54385324484373" lon="2.85071228396673"><ele>81.0</ele><time>2026-04-09T09:36:29Z</time></trkpt><trkpt lat="42.543756945764315" lon="2.8506640330888264"><ele>80.25</ele><time>2026-04-09T09:36:30Z</time></trkpt><trkpt lat="42.5436633068887" lon="2.850589208928207"><ele>79.5</ele><time>2026-04-09T09:36:31Z</time></trkpt><trkpt lat="42.54356385562679" lon="2.850501061579884"><ele>78.75</ele><time>2026-04-09T09:36:32Z</time></trkpt><trkpt lat="42.543459984743386" lon="2.8504043052795986"><ele>78.0</ele><time>2026-04-09T09:36:33Z</time></trkpt><trkpt lat="42.543357725446356" lon="2.850304723009502"><ele>78.0</ele><time>2026-04-09T09:36:34Z</time></trkpt><trkpt lat="42.54325978366002" lon="2.850194552234358"><ele>78.0</ele><time>2026-04-09T09:36:35Z</time></trkpt><trkpt lat="42.54316957748578" lon="2.850075867952093"><ele>78.0</ele><time>2026-04-09T09:36:36Z</time></trkpt><trkpt lat="42.543080452519206" lon="2.8499556368509804"><ele>78.0</ele><time>2026-04-09T09:36:37Z</time></trkpt><trkpt lat="42.54298995705907" lon="2.84983619735508"><ele>78.5</ele><time>2026-04-09T09:36:38Z</time></trkpt><trkpt lat="42.54289959690052" lon="2.8497164171421234"><ele>79.0</ele><time>2026-04-09T09:36:39Z</time></trkpt><trkpt lat="42.54280645385299" lon="2.8496020999333362"><ele>79.5</ele><time>2026-04-09T09:36:40Z</time></trkpt><trkpt lat="42.54270872430298" lon="2.8494928099136603"><ele>80.0</ele><time>2026-04-09T09:36:41Z</time></trkpt><trkpt lat="42.54260929726315" lon="2.849385541437653"><ele>80.5</ele><time>2026-04-09T09:36:42Z</time></trkpt><trkpt lat="42.54250386809005" lon="2.8492828987283905"><ele>81.0</ele><time>2026-04-09T09:36:43Z</time></trkpt><trkpt lat="42.542395864929176" lon="2.849189259257109"><ele>81.5</ele><time>2026-04-09T09:36:44Z</time></trkpt><trkpt lat="42.542283392645345" lon="2.849099781442525"><ele>82.0</ele><time>2026-04-09T09:36:45Z</time></trkpt><trkpt lat="42.54217286511467" lon="2.849023868919097"><ele>82.0</ele><time>2026-04-09T09:36:46Z</time></trkpt><trkpt lat="42.54206218551267" lon="2.8489535927636367"><ele>82.0</ele><time>2026-04-09T09:36:47Z</time></trkpt><trkpt lat="42.5419568761294" lon="2.848893385906729"><ele>82.0</ele><time>2026-04-09T09:36:48Z</time></trkpt><trkpt lat="42.54185156835474" lon="2.848829006592096"><ele>82.0</ele><time>2026-04-09T09:36:49Z</time></trkpt><trkpt lat="42.54174220152919" lon="2.8487611781808235"><ele>81.75</ele><time>2026-04-09T09:36:50Z</time></trkpt><trkpt lat="42.54162617965574" lon="2.8486788947543444"><ele>81.5</ele><time>2026-04-09T09:36:51Z</time></trkpt><trkpt lat="42.54150812032478" lon="2.8485843508097783"><ele>81.25</ele><time>2026-04-09T09:36:52Z</time></trkpt><trkpt lat="42.54139048676639" lon="2.8484810808095338"><ele>81.0</ele><time>2026-04-09T09:36:53Z</time></trkpt><trkpt lat="42.54127054330627" lon="2.8483718252064625"><ele>81.33333333333333</ele><time>2026-04-09T09:36:54Z</time></trkpt><trkpt lat="42.54114688846066" lon="2.848257722231202"><ele>81.66666666666666</ele><time>2026-04-09T09:36:55Z</time></trkpt><trkpt lat="42.54101933642068" lon="2.848134081594592"><ele>82.0</ele><time>2026-04-09T09:36:56Z</time></trkpt><trkpt lat="42.54088793729472" lon="2.8480102154375437"><ele>82.0</ele><time>2026-04-09T09:36:57Z</time></trkpt><trkpt lat="42.54075261427212" lon="2.847883145285089"><ele>82.0</ele><time>2026-04-09T09:36:58Z</time></trkpt><trkpt lat="42.54061726711585" lon="2.8477501156535845"><ele>82.0</ele><time>2026-04-09T09:36:59Z</time></trkpt><trkpt lat="42.54047948539686" lon="2.8476202545395495"><ele>82.66666666666666</ele><time>2026-04-09T09:37:00Z</time></trkpt><trkpt lat="42.540339088962384" lon="2.8474875694449517"><ele>83.33333333333333</ele><time>2026-04-09T09:37:01Z</time></trkpt><trkpt lat="42.54019826716184" lon="2.847356235786104"><ele>84.0</ele><time>2026-04-09T09:37:02Z</time></trkpt><trkpt lat="42.54005197313341" lon="2.847217612447259"><ele>84.0</ele><time>2026-04-09T09:37:03Z</time></trkpt><trkpt lat="42.53990358760672" lon="2.8470753120931245"><ele>84.0</ele><time>2026-04-09T09:37:04Z</time></trkpt><trkpt lat="42.53975723563609" lon="2.846936001916039"><ele>84.0</ele><time>2026-04-09T09:37:05Z</time></trkpt><trkpt lat="42.53960770440656" lon="2.8467935302389393"><ele>83.66666666666667</ele><time>2026-04-09T09:37:06Z</time></trkpt><trkpt lat="42.539458029181276" lon="2.846648741516189"><ele>83.33333333333334</ele><time>2026-04-09T09:37:07Z</time></trkpt><trkpt lat="42.539303591298484" lon="2.8465011316848696"><ele>83.0</ele><time>2026-04-09T09:37:08Z</time></trkpt><trkpt lat="42.53915396575763" lon="2.8463563851814535"><ele>83.0</ele><time>2026-04-09T09:37:09Z</time></trkpt><trkpt lat="42.53900190381314" lon="2.8462106099397375"><ele>83.0</ele><time>2026-04-09T09:37:10Z</time></trkpt><trkpt lat="42.53884746959156" lon="2.846064923885173"><ele>83.0</ele><time>2026-04-09T09:37:11Z</time></trkpt><trkpt lat="42.538689220740785" lon="2.845915268101725"><ele>82.66666666666667</ele><time>2026-04-09T09:37:12Z</time></trkpt><trkpt lat="42.538530303030335" lon="2.845764288402723"><ele>82.33333333333333</ele><time>2026-04-09T09:37:13Z</time></trkpt><trkpt lat="42.538369687851" lon="2.8456143184190705"><ele>82.0</ele><time>2026-04-09T09:37:14Z</time></trkpt><trkpt lat="42.53821077010959" lon="2.8454622137627226"><ele>82.0</ele><time>2026-04-09T09:37:15Z</time></trkpt><trkpt lat="42.538048407410436" lon="2.8453100910122284"><ele>82.0</ele><time>2026-04-09T09:37:16Z</time></trkpt><trkpt lat="42.53789015249263" lon="2.8451617828522626"><ele>82.0</ele><time>2026-04-09T09:37:17Z</time></trkpt><trkpt lat="42.5377352561624" lon="2.8450188597387447"><ele>82.0</ele><time>2026-04-09T09:37:18Z</time></trkpt><trkpt lat="42.537586853291394" lon="2.8448813629943364"><ele>82.0</ele><time>2026-04-09T09:37:19Z</time></trkpt><trkpt lat="42.53744537156684" lon="2.844748986848494"><ele>82.0</ele><time>2026-04-09T09:37:20Z</time></trkpt><trkpt lat="42.537306889810374" lon="2.844618660341853"><ele>82.0</ele><time>2026-04-09T09:37:21Z</time></trkpt><trkpt lat="42.537170168401836" lon="2.844483586277376"><ele>82.0</ele><time>2026-04-09T09:37:22Z</time></trkpt><trkpt lat="42.537032023420664" lon="2.8443554678999075"><ele>82.0</ele><time>2026-04-09T09:37:23Z</time></trkpt><trkpt lat="42.53689457047427" lon="2.844227472871865"><ele>83.33333333333333</ele><time>2026-04-09T09:37:24Z</time></trkpt><trkpt lat="42.53675782964833" lon="2.8440975452320925"><ele>84.66666666666667</ele><time>2026-04-09T09:37:25Z</time></trkpt><trkpt lat="42.53662029532605" lon="2.8439718029625687"><ele>86.0</ele><time>2026-04-09T09:37:26Z</time></trkpt><trkpt lat="42.53648274498259" lon="2.8438419450339647"><ele>86.0</ele><time>2026-04-09T09:37:27Z</time></trkpt><trkpt lat="42.536344307864745" lon="2.8437106758009185"><ele>86.0</ele><time>2026-04-09T09:37:28Z</time></trkpt><trkpt lat="42.536205856318496" lon="2.8435767054721555"><ele>86.0</ele><time>2026-04-09T09:37:29Z</time></trkpt><trkpt lat="42.536066470017666" lon="2.8434469002458944"><ele>86.0</ele><time>2026-04-09T09:37:30Z</time></trkpt><trkpt lat="42.53592945032979" lon="2.843313917386782"><ele>86.0</ele><time>2026-04-09T09:37:31Z</time></trkpt><trkpt lat="42.53578886035713" lon="2.8431859797679495"><ele>86.0</ele><time>2026-04-09T09:37:32Z</time></trkpt><trkpt lat="42.535654154875786" lon="2.8430614284789484"><ele>86.0</ele><time>2026-04-09T09:37:33Z</time></trkpt><trkpt lat="42.535518866408516" lon="2.842932046618495"><ele>86.0</ele><time>2026-04-09T09:37:34Z</time></trkpt><trkpt lat="42.53538253003198" lon="2.8428038741631068"><ele>86.0</ele><time>2026-04-09T09:37:35Z</time></trkpt><trkpt lat="42.535249014571" lon="2.8426765159975083"><ele>85.66666666666667</ele><time>2026-04-09T09:37:36Z</time></trkpt><trkpt lat="42.53511437431581" lon="2.8425503214673005"><ele>85.33333333333333</ele><time>2026-04-09T09:37:37Z</time></trkpt><trkpt lat="42.53498090441288" lon="2.842420034589137"><ele>85.0</ele><time>2026-04-09T09:37:38Z</time></trkpt><trkpt lat="42.5348504319261" lon="2.8422988920585546"><ele>85.0</ele><time>2026-04-09T09:37:39Z</time></trkpt><trkpt lat="42.53472018294407" lon="2.8421721053462727"><ele>85.0</ele><time>2026-04-09T09:37:40Z</time></trkpt><trkpt lat="42.53459240746579" lon="2.842049350203401"><ele>85.0</ele><time>2026-04-09T09:37:41Z</time></trkpt><trkpt lat="42.53446668255381" lon="2.841926760502257"><ele>85.0</ele><time>2026-04-09T09:37:42Z</time></trkpt><trkpt lat="42.5343439883482" lon="2.841810987176378"><ele>85.0</ele><time>2026-04-09T09:37:43Z</time></trkpt><trkpt lat="42.53422603734959" lon="2.8416981388947717"><ele>85.0</ele><time>2026-04-09T09:37:44Z</time></trkpt><trkpt lat="42.534109607069304" lon="2.8415909996734072"><ele>85.0</ele><time>2026-04-09T09:37:45Z</time></trkpt><trkpt lat="42.53399648579613" lon="2.8414840252467326"><ele>85.0</ele><time>2026-04-09T09:37:46Z</time></trkpt><trkpt lat="42.53388739992776" lon="2.8413880049495184"><ele>85.0</ele><time>2026-04-09T09:37:47Z</time></trkpt><trkpt lat="42.53378155964549" lon="2.841281452857034"><ele>85.0</ele><time>2026-04-09T09:37:48Z</time></trkpt><trkpt lat="42.53368852574303" lon="2.8411751897189057"><ele>85.0</ele><time>2026-04-09T09:37:49Z</time></trkpt><trkpt lat="42.53359921619349" lon="2.841067072839667"><ele>84.6</ele><time>2026-04-09T09:37:50Z</time></trkpt><trkpt lat="42.533515394988136" lon="2.8409638520245557"><ele>84.2</ele><time>2026-04-09T09:37:51Z</time></trkpt><trkpt lat="42.53342746429066" lon="2.8408654159225266"><ele>83.80000000000001</ele><time>2026-04-09T09:37:52Z</time></trkpt><trkpt lat="42.53334336631229" lon="2.8407792299518295"><ele>83.4</ele><time>2026-04-09T09:37:53Z</time></trkpt><trkpt lat="42.53325965456281" lon="2.840699532413265"><ele>83.0</ele><time>2026-04-09T09:37:54Z</time></trkpt><trkpt lat="42.53318148475395" lon="2.8406233470952866"><ele>83.0</ele><time>2026-04-09T09:37:55Z</time></trkpt><trkpt lat="42.53310992429532" lon="2.8405582917864245"><ele>83.0</ele><time>2026-04-09T09:37:56Z</time></trkpt><trkpt lat="42.53304160624842" lon="2.8404994560016554"><ele>83.0</ele><time>2026-04-09T09:37:57Z</time></trkpt><trkpt lat="42.53297977216955" lon="2.8404494216396103"><ele>83.0</ele><time>2026-04-09T09:37:58Z</time></trkpt><trkpt lat="42.53292143972364" lon="2.840399494264989"><ele>83.0</ele><time>2026-04-09T09:37:59Z</time></trkpt><trkpt lat="42.53287157581846" lon="2.8403429045503445"><ele>83.0</ele><time>2026-04-09T09:38:00Z</time></trkpt><trkpt lat="42.532830859532204" lon="2.840274207585985"><ele>83.0</ele><time>2026-04-09T09:38:01Z</time></trkpt><trkpt lat="42.53279500962141" lon="2.840190608889459"><ele>83.16666666666667</ele><time>2026-04-09T09:38:02Z</time></trkpt><trkpt lat="42.53275374530297" lon="2.8401122540296835"><ele>83.33333333333334</ele><time>2026-04-09T09:38:03Z</time></trkpt><trkpt lat="42.53269814194013" lon="2.8400548771633676"><ele>83.5</ele><time>2026-04-09T09:38:04Z</time></trkpt><trkpt lat="42.53263053102978" lon="2.84001838203505"><ele>83.66666666666667</ele><time>2026-04-09T09:38:05Z</time></trkpt><trkpt lat="42.53255867294744" lon="2.8400031224098954"><ele>83.83333333333333</ele><time>2026-04-09T09:38:06Z</time></trkpt><trkpt lat="42.5324813492793" lon="2.839965347257828"><ele>84.0</ele><time>2026-04-09T09:38:07Z</time></trkpt><trkpt lat="42.53240563077798" lon="2.839900937566925"><ele>84.0</ele><time>2026-04-09T09:38:08Z</time></trkpt><trkpt lat="42.53232819157984" lon="2.8398227285848794"><ele>84.0</ele><time>2026-04-09T09:38:09Z</time></trkpt><trkpt lat="42.53224725502836" lon="2.8397498298443358"><ele>84.0</ele><time>2026-04-09T09:38:10Z</time></trkpt><trkpt lat="42.53216972944158" lon="2.839679538716733"><ele>84.0</ele><time>2026-04-09T09:38:11Z</time></trkpt><trkpt lat="42.532097827030015" lon="2.839614294191931"><ele>84.0</ele><time>2026-04-09T09:38:12Z</time></trkpt><trkpt lat="42.53202708628725" lon="2.839552320524484"><ele>83.83333333333333</ele><time>2026-04-09T09:38:13Z</time></trkpt><trkpt lat="42.53196026739641" lon="2.839494116200007"><ele>83.66666666666667</ele><time>2026-04-09T09:38:14Z</time></trkpt><trkpt lat="42.53189317232345" lon="2.8394357576532947"><ele>83.5</ele><time>2026-04-09T09:38:15Z</time></trkpt><trkpt lat="42.53183207447502" lon="2.8393874932851486"><ele>83.33333333333334</ele><time>2026-04-09T09:38:16Z</time></trkpt><trkpt lat="42.53174200618166" lon="2.839320610109001"><ele>83.16666666666667</ele><time>2026-04-09T09:38:18Z</time></trkpt><trkpt lat="42.531685114032854" lon="2.839280205700424"><ele>83.0</ele><time>2026-04-09T09:38:21Z</time></trkpt><trkpt lat="42.53161416017364" lon="2.839227279705826"><ele>83.0</ele><time>2026-04-09T09:38:33Z</time></trkpt><trkpt lat="42.53154891550192" lon="2.8391760903313994"><ele>83.0</ele><time>2026-04-09T09:38:37Z</time></trkpt><trkpt lat="42.53148717087271" lon="2.83912347545293"><ele>83.0</ele><time>2026-04-09T09:38:41Z</time></trkpt><trkpt lat="42.531417518477085" lon="2.8390626576596842"><ele>83.0</ele><time>2026-04-09T09:38:45Z</time></trkpt><trkpt lat="42.531357562171365" lon="2.8390091978070604"><ele>83.0</ele><time>2026-04-09T09:38:48Z</time></trkpt><trkpt lat="42.53130410824477" lon="2.8389618393247784"><ele>83.0</ele><time>2026-04-09T09:38:51Z</time></trkpt><trkpt lat="42.53124172443551" lon="2.8389023276021206"><ele>83.0</ele><time>2026-04-09T09:38:55Z</time></trkpt><trkpt lat="42.53118874058805" lon="2.838853079723278"><ele>83.0</ele><time>2026-04-09T09:38:58Z</time></trkpt><trkpt lat="42.53111681521244" lon="2.8387803815569437"><ele>83.0</ele><time>2026-04-09T09:39:01Z</time></trkpt><trkpt lat="42.53103909514239" lon="2.838704051806738"><ele>83.0</ele><time>2026-04-09T09:39:04Z</time></trkpt><trkpt lat="42.530967659688876" lon="2.8386407394557205"><ele>83.0</ele><time>2026-04-09T09:39:06Z</time></trkpt><trkpt lat="42.530890301335106" lon="2.838566999682306"><ele>83.0</ele><time>2026-04-09T09:39:08Z</time></trkpt><trkpt lat="42.5308221039292" lon="2.838503062990929"><ele>83.0</ele><time>2026-04-09T09:39:10Z</time></trkpt><trkpt lat="42.53076838056744" lon="2.838457864590513"><ele>83.0</ele><time>2026-04-09T09:39:12Z</time></trkpt><trkpt lat="42.53069119009876" lon="2.838384878623451"><ele>83.0</ele><time>2026-04-09T09:39:15Z</time></trkpt><trkpt lat="42.53061454727275" lon="2.838306096258022"><ele>83.0</ele><time>2026-04-09T09:39:18Z</time></trkpt><trkpt lat="42.530559549354514" lon="2.8382522021707803"><ele>83.0</ele><time>2026-04-09T09:39:20Z</time></trkpt><trkpt lat="42.530506935204755" lon="2.8382024005569226"><ele>83.0</ele><time>2026-04-09T09:39:22Z</time></trkpt><trkpt lat="42.530435467712884" lon="2.8381421810952703"><ele>83.0</ele><time>2026-04-09T09:39:25Z</time></trkpt><trkpt lat="42.53038002336869" lon="2.8380971947931553"><ele>83.0</ele><time>2026-04-09T09:39:28Z</time></trkpt><trkpt lat="42.53032662089368" lon="2.8380455334431813"><ele>83.0</ele><time>2026-04-09T09:39:32Z</time></trkpt><trkpt lat="42.53026962364959" lon="2.8379924142404755"><ele>83.0</ele><time>2026-04-09T09:39:35Z</time></trkpt><trkpt lat="42.53020633081859" lon="2.837924964799642"><ele>83.0</ele><time>2026-04-09T09:39:38Z</time></trkpt><trkpt lat="42.53012649281457" lon="2.8378474439258254"><ele>83.0</ele><time>2026-04-09T09:39:41Z</time></trkpt><trkpt lat="42.53006521998186" lon="2.837786044660835"><ele>83.0</ele><time>2026-04-09T09:39:43Z</time></trkpt><trkpt lat="42.5299936185306" lon="2.8377142269145934"><ele>83.0</ele><time>2026-04-09T09:39:45Z</time></trkpt><trkpt lat="42.52992692173829" lon="2.837652406951485"><ele>83.0</ele><time>2026-04-09T09:39:47Z</time></trkpt><trkpt lat="42.52987254961668" lon="2.8376029177324464"><ele>83.0</ele><time>2026-04-09T09:39:56Z</time></trkpt><trkpt lat="42.5298015669081" lon="2.837556411986452"><ele>83.0</ele><time>2026-04-09T09:40:24Z</time></trkpt><trkpt lat="42.52974891865051" lon="2.83749029067879"><ele>83.0</ele><time>2026-04-09T09:40:27Z</time></trkpt><trkpt lat="42.52969731008523" lon="2.837440384160867"><ele>83.0</ele><time>2026-04-09T09:40:29Z</time></trkpt><trkpt lat="42.5296359137317" lon="2.8373838696951035"><ele>83.0</ele><time>2026-04-09T09:40:31Z</time></trkpt><trkpt lat="42.52957680409933" lon="2.8373326395694716"><ele>81.66666666666667</ele><time>2026-04-09T09:40:33Z</time></trkpt><trkpt lat="42.52952450706992" lon="2.8372811558020796"><ele>80.33333333333334</ele><time>2026-04-09T09:40:37Z</time></trkpt><trkpt lat="42.529460132732154" lon="2.837225444039973"><ele>79.0</ele><time>2026-04-09T09:41:00Z</time></trkpt><trkpt lat="42.529401760296146" lon="2.83716760058852"><ele>77.66666666666667</ele><time>2026-04-09T09:41:03Z</time></trkpt><trkpt lat="42.529323090647885" lon="2.837087564765253"><ele>76.33333333333333</ele><time>2026-04-09T09:41:06Z</time></trkpt><trkpt lat="42.52925460454254" lon="2.837024390788407"><ele>75.0</ele><time>2026-04-09T09:41:08Z</time></trkpt><trkpt lat="42.52919386533406" lon="2.8369678537568706"><ele>74.99999999999999</ele><time>2026-04-09T09:41:10Z</time></trkpt><trkpt lat="42.529130411301175" lon="2.8369070342784766"><ele>75.0</ele><time>2026-04-09T09:41:13Z</time></trkpt><trkpt lat="42.529078234796536" lon="2.836855979973111"><ele>75.0</ele><time>2026-04-09T09:41:16Z</time></trkpt><trkpt lat="42.529020843935136" lon="2.836801016211233"><ele>75.0</ele><time>2026-04-09T09:41:19Z</time></trkpt><trkpt lat="42.528964192117336" lon="2.836746358934398"><ele>75.0</ele><time>2026-04-09T09:41:22Z</time></trkpt><trkpt lat="42.52890591289231" lon="2.83669256055749"><ele>74.99999999999999</ele><time>2026-04-09T09:41:25Z</time></trkpt><trkpt lat="42.52885352519807" lon="2.8366434938528737"><ele>75.0</ele><time>2026-04-09T09:41:28Z</time></trkpt><trkpt lat="42.528809675675554" lon="2.8365613764741564"><ele>74.71428571428571</ele><time>2026-04-09T09:43:36Z</time></trkpt><trkpt lat="42.52873791437109" lon="2.8365149561967606"><ele>74.42857142857143</ele><time>2026-04-09T09:43:40Z</time></trkpt><trkpt lat="42.52867963286648" lon="2.8364630837449236"><ele>74.14285714285714</ele><time>2026-04-09T09:43:45Z</time></trkpt><trkpt lat="42.52861590970076" lon="2.8364159872902817"><ele>73.85714285714286</ele><time>2026-04-09T09:43:51Z</time></trkpt><trkpt lat="42.52855596020546" lon="2.836359942904737"><ele>73.57142857142857</ele><time>2026-04-09T09:43:57Z</time></trkpt><trkpt lat="42.528503248129375" lon="2.836312713751965"><ele>73.28571428571428</ele><time>2026-04-09T09:44:01Z</time></trkpt><trkpt lat="42.528443464446696" lon="2.8362538057206494"><ele>73.0</ele><time>2026-04-09T09:44:06Z</time></trkpt><trkpt lat="42.52839008364795" lon="2.836201458191741"><ele>73.0</ele><time>2026-04-09T09:44:10Z</time></trkpt><trkpt lat="42.528331896719" lon="2.8361404821577607"><ele>73.0</ele><time>2026-04-09T09:44:14Z</time></trkpt><trkpt lat="42.52828072907295" lon="2.8360847726591754"><ele>73.0</ele><time>2026-04-09T09:44:17Z</time></trkpt><trkpt lat="42.528216238082614" lon="2.8360205129249096"><ele>73.0</ele><time>2026-04-09T09:44:21Z</time></trkpt><trkpt lat="42.52816324522999" lon="2.835966799989833"><ele>73.0</ele><time>2026-04-09T09:44:24Z</time></trkpt><trkpt lat="42.52809510100075" lon="2.8359134942846853"><ele>73.0</ele><time>2026-04-09T09:44:29Z</time></trkpt><trkpt lat="42.52803756302316" lon="2.8358761916493025"><ele>73.0</ele><time>2026-04-09T09:44:34Z</time></trkpt><trkpt lat="42.52797643415959" lon="2.8358151870162707"><ele>73.8</ele><time>2026-04-09T09:44:48Z</time></trkpt><trkpt lat="42.52791445380661" lon="2.835753688364467"><ele>74.6</ele><time>2026-04-09T09:44:51Z</time></trkpt><trkpt lat="42.5278297066619" lon="2.835670255043433"><ele>75.4</ele><time>2026-04-09T09:44:54Z</time></trkpt><trkpt lat="42.527755901656" lon="2.8355991041995314"><ele>76.2</ele><time>2026-04-09T09:44:56Z</time></trkpt><trkpt lat="42.52766964513351" lon="2.83551815456881"><ele>77.0</ele><time>2026-04-09T09:44:58Z</time></trkpt><trkpt lat="42.527591649647114" lon="2.835453316844791"><ele>77.83333333333334</ele><time>2026-04-09T09:45:00Z</time></trkpt><trkpt lat="42.52753521020582" lon="2.8353969612331347"><ele>78.66666666666667</ele><time>2026-04-09T09:45:02Z</time></trkpt><trkpt lat="42.52745558173737" lon="2.83532184957503"><ele>79.5</ele><time>2026-04-09T09:45:05Z</time></trkpt><trkpt lat="42.527384995831376" lon="2.8352570087808586"><ele>80.33333333333333</ele><time>2026-04-09T09:45:08Z</time></trkpt><trkpt lat="42.52733067181729" lon="2.835212881239264"><ele>81.16666666666666</ele><time>2026-04-09T09:45:14Z</time></trkpt><trkpt lat="42.52727758665809" lon="2.83516224490035"><ele>82.0</ele><time>2026-04-09T09:45:21Z</time></trkpt><trkpt lat="42.52721241236529" lon="2.8350988101514702"><ele>82.28571428571428</ele><time>2026-04-09T09:45:25Z</time></trkpt><trkpt lat="42.527158963760044" lon="2.835039074668962"><ele>82.57142857142857</ele><time>2026-04-09T09:45:28Z</time></trkpt><trkpt lat="42.52710458199036" lon="2.834982367210293"><ele>82.85714285714286</ele><time>2026-04-09T09:45:31Z</time></trkpt><trkpt lat="42.52704278186829" lon="2.834916423002095"><ele>83.14285714285714</ele><time>2026-04-09T09:45:35Z</time></trkpt><trkpt lat="42.52699362834798" lon="2.8348609407806817"><ele>83.42857142857143</ele><time>2026-04-09T09:45:38Z</time></trkpt><trkpt lat="42.52693064976935" lon="2.834798690401786"><ele>83.71428571428571</ele><time>2026-04-09T09:45:42Z</time></trkpt><trkpt lat="42.52686666009792" lon="2.8347270812566223"><ele>84.0</ele><time>2026-04-09T09:45:46Z</time></trkpt><trkpt lat="42.52680477280714" lon="2.8346683041606617"><ele>84.16666666666667</ele><time>2026-04-09T09:45:50Z</time></trkpt><trkpt lat="42.52674743871068" lon="2.8346145813326147"><ele>84.33333333333333</ele><time>2026-04-09T09:45:54Z</time></trkpt><trkpt lat="42.52668135841144" lon="2.834555659390693"><ele>84.5</ele><time>2026-04-09T09:45:58Z</time></trkpt><trkpt lat="42.52663330968489" lon="2.834499639393139"><ele>84.66666666666666</ele><time>2026-04-09T09:46:04Z</time></trkpt><trkpt lat="42.52655671126304" lon="2.834425397312106"><ele>84.83333333333333</ele><time>2026-04-09T09:46:08Z</time></trkpt><trkpt lat="42.52647154856756" lon="2.834357710821722"><ele>85.0</ele><time>2026-04-09T09:46:10Z</time></trkpt><trkpt lat="42.526413835152404" lon="2.8343137808260486"><ele>85.0</ele><time>2026-04-09T09:46:11Z</time></trkpt><trkpt lat="42.52634758777362" lon="2.834264727702199"><ele>85.0</ele><time>2026-04-09T09:46:12Z</time></trkpt><trkpt lat="42.52628426979754" lon="2.834212533840352"><ele>85.0</ele><time>2026-04-09T09:46:13Z</time></trkpt><trkpt lat="42.52622015133867" lon="2.8341613609645333"><ele>85.0</ele><time>2026-04-09T09:46:14Z</time></trkpt><trkpt lat="42.52615954892896" lon="2.8341105463503373"><ele>85.0</ele><time>2026-04-09T09:46:15Z</time></trkpt><trkpt lat="42.52610611111604" lon="2.8340603607108186"><ele>85.0</ele><time>2026-04-09T09:46:16Z</time></trkpt><trkpt lat="42.52605416302033" lon="2.8340110439376853"><ele>85.0</ele><time>2026-04-09T09:46:17Z</time></trkpt><trkpt lat="42.52600144122932" lon="2.8339597156213783"><ele>85.5</ele><time>2026-04-09T09:46:18Z</time></trkpt><trkpt lat="42.52594880819737" lon="2.8339099076566336"><ele>86.0</ele><time>2026-04-09T09:46:19Z</time></trkpt><trkpt lat="42.52584374525884" lon="2.8338100711241934"><ele>86.5</ele><time>2026-04-09T09:46:21Z</time></trkpt><trkpt lat="42.525785580496766" lon="2.8337600419998847"><ele>87.0</ele><time>2026-04-09T09:46:22Z</time></trkpt><trkpt lat="42.52573079319984" lon="2.8337141575295957"><ele>87.5</ele><time>2026-04-09T09:46:23Z</time></trkpt><trkpt lat="42.52563137101085" lon="2.833631023324214"><ele>88.0</ele><time>2026-04-09T09:46:25Z</time></trkpt><trkpt lat="42.525556074222635" lon="2.833563950267444"><ele>88.0</ele><time>2026-04-09T09:46:27Z</time></trkpt><trkpt lat="42.525488798222035" lon="2.833487471590822"><ele>88.0</ele><time>2026-04-09T09:46:29Z</time></trkpt><trkpt lat="42.52544259077369" lon="2.8334182584278316"><ele>88.0</ele><time>2026-04-09T09:46:31Z</time></trkpt><trkpt lat="42.52539540018527" lon="2.833314569666683"><ele>88.0</ele><time>2026-04-09T09:46:37Z</time></trkpt><trkpt lat="42.52535547803962" lon="2.833227461375453"><ele>88.0</ele><time>2026-04-09T09:46:40Z</time></trkpt><trkpt lat="42.52532890856806" lon="2.833144844995018"><ele>88.0</ele><time>2026-04-09T09:46:44Z</time></trkpt><trkpt lat="42.5253021378204" lon="2.8330568136593297"><ele>88.16666666666666</ele><time>2026-04-09T09:46:47Z</time></trkpt><trkpt lat="42.525290416793865" lon="2.832958676243419"><ele>88.33333333333333</ele><time>2026-04-09T09:46:53Z</time></trkpt><trkpt lat="42.52526168768825" lon="2.832848217012186"><ele>88.5</ele><time>2026-04-09T09:46:56Z</time></trkpt><trkpt lat="42.525239620529746" lon="2.832757958976398"><ele>88.66666666666667</ele><time>2026-04-09T09:46:58Z</time></trkpt><trkpt lat="42.52521180761598" lon="2.8326316220180225"><ele>88.83333333333334</ele><time>2026-04-09T09:47:00Z</time></trkpt><trkpt lat="42.52518276778182" lon="2.8324954628001273"><ele>89.0</ele><time>2026-04-09T09:47:02Z</time></trkpt><trkpt lat="42.52515633227182" lon="2.832343244561266"><ele>89.16666666666667</ele><time>2026-04-09T09:47:04Z</time></trkpt><trkpt lat="42.525134032258286" lon="2.832180403167886"><ele>89.33333333333334</ele><time>2026-04-09T09:47:06Z</time></trkpt><trkpt lat="42.525120983054116" lon="2.8320920216679126"><ele>89.5</ele><time>2026-04-09T09:47:07Z</time></trkpt><trkpt lat="42.525105810284735" lon="2.8320059495563266"><ele>89.66666666666667</ele><time>2026-04-09T09:47:08Z</time></trkpt><trkpt lat="42.52509010855295" lon="2.8319194140638673"><ele>89.83333333333333</ele><time>2026-04-09T09:47:09Z</time></trkpt><trkpt lat="42.52505873489314" lon="2.8317504748363573"><ele>90.0</ele><time>2026-04-09T09:47:11Z</time></trkpt><trkpt lat="42.52503214876207" lon="2.8316066061452796"><ele>89.66666666666667</ele><time>2026-04-09T09:47:13Z</time></trkpt><trkpt lat="42.5250109438184" lon="2.8314872549595633"><ele>89.33333333333333</ele><time>2026-04-09T09:47:15Z</time></trkpt><trkpt lat="42.524991057717756" lon="2.831380341986245"><ele>89.0</ele><time>2026-04-09T09:47:17Z</time></trkpt><trkpt lat="42.52492141295686" lon="2.8313299584181886"><ele>88.66666666666666</ele><time>2026-04-09T09:47:19Z</time></trkpt><trkpt lat="42.52481147521046" lon="2.831386363790135"><ele>88.33333333333333</ele><time>2026-04-09T09:47:21Z</time></trkpt><trkpt lat="42.524748820485115" lon="2.8314091091305498"><ele>88.0</ele><time>2026-04-09T09:47:22Z</time></trkpt><trkpt lat="42.524687424766725" lon="2.831433521310858"><ele>88.0</ele><time>2026-04-09T09:47:23Z</time></trkpt><trkpt lat="42.52456902526273" lon="2.831460099027673"><ele>88.0</ele><time>2026-04-09T09:47:25Z</time></trkpt><trkpt lat="42.52447718247843" lon="2.831492536547614"><ele>88.0</ele><time>2026-04-09T09:47:27Z</time></trkpt><trkpt lat="42.52440172862976" lon="2.8315285066875595"><ele>88.0</ele><time>2026-04-09T09:47:29Z</time></trkpt><trkpt lat="42.52430618523379" lon="2.8315656564230274"><ele>88.0</ele><time>2026-04-09T09:47:31Z</time></trkpt><trkpt lat="42.524188300196805" lon="2.831603560914937"><ele>87.60000000000001</ele><time>2026-04-09T09:47:33Z</time></trkpt><trkpt lat="42.524066922426556" lon="2.8316478121652224"><ele>87.2</ele><time>2026-04-09T09:47:35Z</time></trkpt><trkpt lat="42.523953419435834" lon="2.8316876582975974"><ele>86.8</ele><time>2026-04-09T09:47:37Z</time></trkpt><trkpt lat="42.52385342116003" lon="2.831724293226631"><ele>86.4</ele><time>2026-04-09T09:47:39Z</time></trkpt><trkpt lat="42.52379203374949" lon="2.8317472018159364"><ele>86.0</ele><time>2026-04-09T09:47:41Z</time></trkpt><trkpt lat="42.523721297729566" lon="2.8317727640185053"><ele>86.0</ele><time>2026-04-09T09:47:51Z</time></trkpt><trkpt lat="42.52365222997286" lon="2.8317973044280396"><ele>86.0</ele><time>2026-04-09T09:47:54Z</time></trkpt><trkpt lat="42.523574038434774" lon="2.8318251301666977"><ele>86.0</ele><time>2026-04-09T09:47:56Z</time></trkpt><trkpt lat="42.52350330249541" lon="2.8318518665452332"><ele>86.0</ele><time>2026-04-09T09:48:05Z</time></trkpt><trkpt lat="42.52343074545219" lon="2.8318821173729627"><ele>86.0</ele><time>2026-04-09T09:48:08Z</time></trkpt><trkpt lat="42.52334499578479" lon="2.8319074499106613"><ele>86.0</ele><time>2026-04-09T09:48:10Z</time></trkpt><trkpt lat="42.52323851024072" lon="2.8319410361556607"><ele>85.85714285714286</ele><time>2026-04-09T09:48:12Z</time></trkpt><trkpt lat="42.523169407484865" lon="2.8319687667776026"><ele>85.71428571428572</ele><time>2026-04-09T09:48:13Z</time></trkpt><trkpt lat="42.523100898608156" lon="2.8319925641702675"><ele>85.57142857142858</ele><time>2026-04-09T09:48:14Z</time></trkpt><trkpt lat="42.523029577568636" lon="2.832016293669957"><ele>85.42857142857143</ele><time>2026-04-09T09:48:15Z</time></trkpt><trkpt lat="42.522957611588225" lon="2.8320433361466266"><ele>85.28571428571428</ele><time>2026-04-09T09:48:16Z</time></trkpt><trkpt lat="42.522885749861594" lon="2.832067636309664"><ele>85.14285714285715</ele><time>2026-04-09T09:48:17Z</time></trkpt><trkpt lat="42.52280925724046" lon="2.8320947786150126"><ele>85.0</ele><time>2026-04-09T09:48:18Z</time></trkpt><trkpt lat="42.52273377168629" lon="2.8321233731017172"><ele>84.83333333333333</ele><time>2026-04-09T09:48:19Z</time></trkpt><trkpt lat="42.522656198870095" lon="2.83214932851233"><ele>84.66666666666666</ele><time>2026-04-09T09:48:20Z</time></trkpt><trkpt lat="42.52257733960745" lon="2.8321766692324295"><ele>84.5</ele><time>2026-04-09T09:48:21Z</time></trkpt><trkpt lat="42.5224972943079" lon="2.8322056397576505"><ele>84.33333333333333</ele><time>2026-04-09T09:48:22Z</time></trkpt><trkpt lat="42.5224174794523" lon="2.832232692039279"><ele>84.16666666666667</ele><time>2026-04-09T09:48:23Z</time></trkpt><trkpt lat="42.522343493203664" lon="2.832255887050678"><ele>84.0</ele><time>2026-04-09T09:48:24Z</time></trkpt><trkpt lat="42.52226937146864" lon="2.832273343543814"><ele>84.0</ele><time>2026-04-09T09:48:25Z</time></trkpt><trkpt lat="42.522194697352404" lon="2.8322784288422826"><ele>84.0</ele><time>2026-04-09T09:48:26Z</time></trkpt><trkpt lat="42.52211789632385" lon="2.8322711584000855"><ele>84.0</ele><time>2026-04-09T09:48:27Z</time></trkpt><trkpt lat="42.52203440153729" lon="2.8322511893245523"><ele>84.0</ele><time>2026-04-09T09:48:28Z</time></trkpt><trkpt lat="42.52195201358377" lon="2.832222465085267"><ele>84.0</ele><time>2026-04-09T09:48:29Z</time></trkpt><trkpt lat="42.52187043618853" lon="2.832186005705547"><ele>84.0</ele><time>2026-04-09T09:48:30Z</time></trkpt><trkpt lat="42.521781616121615" lon="2.8321510841973154"><ele>83.5</ele><time>2026-04-09T09:48:31Z</time></trkpt><trkpt lat="42.521697769364245" lon="2.8321165930404404"><ele>83.0</ele><time>2026-04-09T09:48:32Z</time></trkpt><trkpt lat="42.521612690819126" lon="2.832084111673498"><ele>82.5</ele><time>2026-04-09T09:48:33Z</time></trkpt><trkpt lat="42.521527204528375" lon="2.832050429800272"><ele>82.0</ele><time>2026-04-09T09:48:34Z</time></trkpt><trkpt lat="42.52144709346666" lon="2.8320157317552717"><ele>81.5</ele><time>2026-04-09T09:48:35Z</time></trkpt><trkpt lat="42.521361320224976" lon="2.831982209299714"><ele>81.0</ele><time>2026-04-09T09:48:36Z</time></trkpt><trkpt lat="42.5212761164322" lon="2.8319469622393214"><ele>80.83333333333333</ele><time>2026-04-09T09:48:37Z</time></trkpt><trkpt lat="42.521190652198214" lon="2.8319099657182374"><ele>80.66666666666667</ele><time>2026-04-09T09:48:38Z</time></trkpt><trkpt lat="42.521106451846585" lon="2.8318757700389185"><ele>80.5</ele><time>2026-04-09T09:48:39Z</time></trkpt><trkpt lat="42.52102124011395" lon="2.8318387280774893"><ele>80.33333333333334</ele><time>2026-04-09T09:48:40Z</time></trkpt><trkpt lat="42.52093947747622" lon="2.831804558906191"><ele>80.16666666666667</ele><time>2026-04-09T09:48:41Z</time></trkpt><trkpt lat="42.52085801165518" lon="2.8317689959321974"><ele>80.0</ele><time>2026-04-09T09:48:42Z</time></trkpt><trkpt lat="42.52077909163966" lon="2.831737338789991"><ele>80.0</ele><time>2026-04-09T09:48:43Z</time></trkpt><trkpt lat="42.52070873823794" lon="2.831709052653248"><ele>80.0</ele><time>2026-04-09T09:48:44Z</time></trkpt><trkpt lat="42.52064680802297" lon="2.8316834474361583"><ele>80.0</ele><time>2026-04-09T09:48:45Z</time></trkpt><trkpt lat="42.52053928913177" lon="2.8316464646539212"><ele>80.0</ele><time>2026-04-09T09:48:47Z</time></trkpt><trkpt lat="42.52047265846071" lon="2.8316238534738707"><ele>80.0</ele><time>2026-04-09T09:48:50Z</time></trkpt><trkpt lat="42.52039796518311" lon="2.831598746870798"><ele>80.0</ele><time>2026-04-09T09:48:54Z</time></trkpt><trkpt lat="42.52032257506341" lon="2.831562109413988"><ele>79.5</ele><time>2026-04-09T09:48:56Z</time></trkpt><trkpt lat="42.520221885846446" lon="2.831517044248055"><ele>79.0</ele><time>2026-04-09T09:48:58Z</time></trkpt><trkpt lat="42.520160097013786" lon="2.8314892466311044"><ele>78.5</ele><time>2026-04-09T09:48:59Z</time></trkpt><trkpt lat="42.5200907782451" lon="2.8314626482135687"><ele>78.0</ele><time>2026-04-09T09:49:00Z</time></trkpt><trkpt lat="42.52001853776962" lon="2.8314492662173527"><ele>77.5</ele><time>2026-04-09T09:49:01Z</time></trkpt><trkpt lat="42.51993619504935" lon="2.8314402322840326"><ele>77.0</ele><time>2026-04-09T09:49:02Z</time></trkpt><trkpt lat="42.51986222039541" lon="2.831447490374064"><ele>77.0</ele><time>2026-04-09T09:49:03Z</time></trkpt><trkpt lat="42.51977992155728" lon="2.831473808168936"><ele>77.0</ele><time>2026-04-09T09:49:04Z</time></trkpt><trkpt lat="42.519694656033316" lon="2.8315025879343856"><ele>77.0</ele><time>2026-04-09T09:49:05Z</time></trkpt><trkpt lat="42.51960776629648" lon="2.831528125106223"><ele>77.0</ele><time>2026-04-09T09:49:06Z</time></trkpt><trkpt lat="42.51951746641215" lon="2.831554529252779"><ele>77.0</ele><time>2026-04-09T09:49:07Z</time></trkpt><trkpt lat="42.51942435952298" lon="2.831580502109975"><ele>77.0</ele><time>2026-04-09T09:49:08Z</time></trkpt><trkpt lat="42.519328330066095" lon="2.8316088217695667"><ele>76.0</ele><time>2026-04-09T09:49:09Z</time></trkpt><trkpt lat="42.51922586852873" lon="2.831636814823739"><ele>75.0</ele><time>2026-04-09T09:49:10Z</time></trkpt><trkpt lat="42.51912438223166" lon="2.8316702867669408"><ele>74.0</ele><time>2026-04-09T09:49:11Z</time></trkpt><trkpt lat="42.519021081036605" lon="2.831702055851348"><ele>73.0</ele><time>2026-04-09T09:49:12Z</time></trkpt><trkpt lat="42.518916650508665" lon="2.831730810778668"><ele>72.0</ele><time>2026-04-09T09:49:13Z</time></trkpt><trkpt lat="42.518816240106275" lon="2.831763941053055"><ele>72.0</ele><time>2026-04-09T09:49:14Z</time></trkpt><trkpt lat="42.51872124394803" lon="2.831794511586464"><ele>72.0</ele><time>2026-04-09T09:49:15Z</time></trkpt><trkpt lat="42.51862718872053" lon="2.8318232572925868"><ele>72.0</ele><time>2026-04-09T09:49:16Z</time></trkpt><trkpt lat="42.51853104613449" lon="2.8318497358351102"><ele>72.0</ele><time>2026-04-09T09:49:17Z</time></trkpt><trkpt lat="42.51843430473198" lon="2.831880863699923"><ele>72.0</ele><time>2026-04-09T09:49:18Z</time></trkpt><trkpt lat="42.518336633859676" lon="2.831912981589684"><ele>72.0</ele><time>2026-04-09T09:49:19Z</time></trkpt><trkpt lat="42.518239993866246" lon="2.8319422090402755"><ele>72.0</ele><time>2026-04-09T09:49:20Z</time></trkpt><trkpt lat="42.51813934894459" lon="2.831972689240937"><ele>72.0</ele><time>2026-04-09T09:49:21Z</time></trkpt><trkpt lat="42.51805064533799" lon="2.8319955081651247"><ele>72.0</ele><time>2026-04-09T09:49:22Z</time></trkpt><trkpt lat="42.51798503812846" lon="2.8320121612745925"><ele>72.0</ele><time>2026-04-09T09:49:23Z</time></trkpt><trkpt lat="42.517854018666846" lon="2.8320241982724643"><ele>72.33333333333333</ele><time>2026-04-09T09:49:25Z</time></trkpt><trkpt lat="42.51778556297137" lon="2.8320306111129256"><ele>72.66666666666667</ele><time>2026-04-09T09:49:26Z</time></trkpt><trkpt lat="42.517719375085065" lon="2.832033393600203"><ele>73.0</ele><time>2026-04-09T09:49:27Z</time></trkpt><trkpt lat="42.51763580893351" lon="2.832030653854564"><ele>73.33333333333334</ele><time>2026-04-09T09:49:28Z</time></trkpt><trkpt lat="42.517547034848455" lon="2.832022896541108"><ele>73.66666666666667</ele><time>2026-04-09T09:49:29Z</time></trkpt><trkpt lat="42.517448428546466" lon="2.8320096893078164"><ele>74.0</ele><time>2026-04-09T09:49:30Z</time></trkpt><trkpt lat="42.51734601378461" lon="2.8319801056369234"><ele>74.0</ele><time>2026-04-09T09:49:31Z</time></trkpt><trkpt lat="42.5172359328791" lon="2.8319405181610917"><ele>74.0</ele><time>2026-04-09T09:49:32Z</time></trkpt><trkpt lat="42.51711819689616" lon="2.831885349624899"><ele>74.0</ele><time>2026-04-09T09:49:33Z</time></trkpt><trkpt lat="42.51699842396861" lon="2.8318242971982173"><ele>74.0</ele><time>2026-04-09T09:49:34Z</time></trkpt><trkpt lat="42.51688083008428" lon="2.8317587120736287"><ele>75.5</ele><time>2026-04-09T09:49:35Z</time></trkpt><trkpt lat="42.5167641266437" lon="2.831693447264911"><ele>77.0</ele><time>2026-04-09T09:49:36Z</time></trkpt><trkpt lat="42.516649346068405" lon="2.8316259336512353"><ele>78.5</ele><time>2026-04-09T09:49:37Z</time></trkpt><trkpt lat="42.516536433269984" lon="2.831560411848963"><ele>80.0</ele><time>2026-04-09T09:49:38Z</time></trkpt><trkpt lat="42.51642859008054" lon="2.831494972898413"><ele>80.0</ele><time>2026-04-09T09:49:39Z</time></trkpt><trkpt lat="42.51632256564012" lon="2.831426768825157"><ele>80.0</ele><time>2026-04-09T09:49:40Z</time></trkpt><trkpt lat="42.51622021829778" lon="2.831358149543932"><ele>80.0</ele><time>2026-04-09T09:49:41Z</time></trkpt><trkpt lat="42.516120733685455" lon="2.8312928690338066"><ele>80.0</ele><time>2026-04-09T09:49:42Z</time></trkpt><trkpt lat="42.51602463346808" lon="2.831229449620555"><ele>80.0</ele><time>2026-04-09T09:49:43Z</time></trkpt><trkpt lat="42.515948243964125" lon="2.8311794293197843"><ele>81.0</ele><time>2026-04-09T09:49:44Z</time></trkpt><trkpt lat="42.51588458260083" lon="2.831139123090091"><ele>82.0</ele><time>2026-04-09T09:49:45Z</time></trkpt><trkpt lat="42.51582666553437" lon="2.8311013528639664"><ele>83.0</ele><time>2026-04-09T09:49:46Z</time></trkpt><trkpt lat="42.515762127117576" lon="2.83105852438431"><ele>84.0</ele><time>2026-04-09T09:49:47Z</time></trkpt><trkpt lat="42.51569056620716" lon="2.831015234636376"><ele>85.0</ele><time>2026-04-09T09:49:48Z</time></trkpt><trkpt lat="42.51561214734139" lon="2.830965434564536"><ele>86.0</ele><time>2026-04-09T09:49:49Z</time></trkpt><trkpt lat="42.515523579025164" lon="2.8309145365081796"><ele>86.0</ele><time>2026-04-09T09:49:50Z</time></trkpt><trkpt lat="42.51543213025651" lon="2.8308659570447263"><ele>86.0</ele><time>2026-04-09T09:49:51Z</time></trkpt><trkpt lat="42.51533665272168" lon="2.8308146593120744"><ele>86.0</ele><time>2026-04-09T09:49:52Z</time></trkpt><trkpt lat="42.51523710887414" lon="2.830759746324145"><ele>86.0</ele><time>2026-04-09T09:49:53Z</time></trkpt><trkpt lat="42.515140323954924" lon="2.8307060873401797"><ele>86.0</ele><time>2026-04-09T09:49:54Z</time></trkpt><trkpt lat="42.51503904552449" lon="2.8306491188953053"><ele>86.4</ele><time>2026-04-09T09:49:55Z</time></trkpt><trkpt lat="42.514934359576394" lon="2.830593359663932"><ele>86.8</ele><time>2026-04-09T09:49:56Z</time></trkpt><trkpt lat="42.514831662642926" lon="2.830540548490209"><ele>87.2</ele><time>2026-04-09T09:49:57Z</time></trkpt><trkpt lat="42.51473062482433" lon="2.830489234069175"><ele>87.60000000000001</ele><time>2026-04-09T09:49:58Z</time></trkpt><trkpt lat="42.514639525819625" lon="2.8304401963222254"><ele>88.0</ele><time>2026-04-09T09:49:59Z</time></trkpt><trkpt lat="42.51455861479912" lon="2.8303943985031363"><ele>88.0</ele><time>2026-04-09T09:50:00Z</time></trkpt><trkpt lat="42.51448091181513" lon="2.8303518412369706"><ele>88.0</ele><time>2026-04-09T09:50:01Z</time></trkpt><trkpt lat="42.51440670444195" lon="2.830307349417745"><ele>88.0</ele><time>2026-04-09T09:50:02Z</time></trkpt><trkpt lat="42.51433467297421" lon="2.8302646474053477"><ele>88.0</ele><time>2026-04-09T09:50:03Z</time></trkpt><trkpt lat="42.51427609585209" lon="2.8302258381757825"><ele>88.0</ele><time>2026-04-09T09:50:04Z</time></trkpt><trkpt lat="42.51418870135861" lon="2.830149782528253"><ele>88.0</ele><time>2026-04-09T09:50:06Z</time></trkpt><trkpt lat="42.51410509129173" lon="2.8300304660157694"><ele>88.0</ele><time>2026-04-09T09:50:08Z</time></trkpt><trkpt lat="42.51404818305005" lon="2.829968332049213"><ele>88.0</ele><time>2026-04-09T09:50:09Z</time></trkpt><trkpt lat="42.513971305472275" lon="2.8299425971780527"><ele>88.0</ele><time>2026-04-09T09:50:10Z</time></trkpt><trkpt lat="42.513891443971424" lon="2.8299524567914176"><ele>88.0</ele><time>2026-04-09T09:50:11Z</time></trkpt><trkpt lat="42.51380937194573" lon="2.829943994764852"><ele>88.0</ele><time>2026-04-09T09:50:12Z</time></trkpt><trkpt lat="42.5137167154893" lon="2.8299147568373977"><ele>88.0</ele><time>2026-04-09T09:50:13Z</time></trkpt><trkpt lat="42.51361224810831" lon="2.8298829878884533"><ele>88.60000000000001</ele><time>2026-04-09T09:50:14Z</time></trkpt><trkpt lat="42.51350703898274" lon="2.829846073621204"><ele>89.2</ele><time>2026-04-09T09:50:15Z</time></trkpt><trkpt lat="42.513400822831585" lon="2.8298050119293383"><ele>89.8</ele><time>2026-04-09T09:50:16Z</time></trkpt><trkpt lat="42.513298300429895" lon="2.829757391821199"><ele>90.4</ele><time>2026-04-09T09:50:17Z</time></trkpt><trkpt lat="42.513194258182324" lon="2.8297058020334416"><ele>91.0</ele><time>2026-04-09T09:50:18Z</time></trkpt><trkpt lat="42.51309086825231" lon="2.82965191090328"><ele>91.0</ele><time>2026-04-09T09:50:19Z</time></trkpt><trkpt lat="42.51298276404386" lon="2.8295939235359566"><ele>91.0</ele><time>2026-04-09T09:50:20Z</time></trkpt><trkpt lat="42.51286836716185" lon="2.829536427237863"><ele>91.0</ele><time>2026-04-09T09:50:21Z</time></trkpt><trkpt lat="42.51274890560694" lon="2.829469831784985"><ele>91.0</ele><time>2026-04-09T09:50:22Z</time></trkpt><trkpt lat="42.51262927550032" lon="2.8294097172670454"><ele>91.75</ele><time>2026-04-09T09:50:23Z</time></trkpt><trkpt lat="42.512508785673994" lon="2.829349656850197"><ele>92.5</ele><time>2026-04-09T09:50:24Z</time></trkpt><trkpt lat="42.5123848067472" lon="2.829288524516639"><ele>93.25</ele><time>2026-04-09T09:50:25Z</time></trkpt><trkpt lat="42.51225894616211" lon="2.8292265179238303"><ele>94.0</ele><time>2026-04-09T09:50:26Z</time></trkpt><trkpt lat="42.5121316337858" lon="2.8291668778394983"><ele>94.25</ele><time>2026-04-09T09:50:27Z</time></trkpt><trkpt lat="42.51200447050949" lon="2.8290996355409828"><ele>94.5</ele><time>2026-04-09T09:50:28Z</time></trkpt><trkpt lat="42.51187437285442" lon="2.829032844007279"><ele>94.75</ele><time>2026-04-09T09:50:29Z</time></trkpt><trkpt lat="42.51174544845884" lon="2.828964055922426"><ele>95.0</ele><time>2026-04-09T09:50:30Z</time></trkpt><trkpt lat="42.51162445458839" lon="2.8288891814166086"><ele>95.0</ele><time>2026-04-09T09:50:31Z</time></trkpt><trkpt lat="42.51150759902159" lon="2.828797556019042"><ele>95.0</ele><time>2026-04-09T09:50:32Z</time></trkpt><trkpt lat="42.511396024962785" lon="2.8286974217647254"><ele>95.0</ele><time>2026-04-09T09:50:33Z</time></trkpt><trkpt lat="42.511293602859055" lon="2.82859018442958"><ele>95.0</ele><time>2026-04-09T09:50:34Z</time></trkpt><trkpt lat="42.51118545409038" lon="2.828492399582193"><ele>94.25</ele><time>2026-04-09T09:50:35Z</time></trkpt><trkpt lat="42.51107570699358" lon="2.8283977479282876"><ele>93.5</ele><time>2026-04-09T09:50:36Z</time></trkpt><trkpt lat="42.510957674845095" lon="2.828292146625777"><ele>92.75</ele><time>2026-04-09T09:50:37Z</time></trkpt><trkpt lat="42.51084882196974" lon="2.828183686325252"><ele>92.0</ele><time>2026-04-09T09:50:38Z</time></trkpt><trkpt lat="42.5107408817651" lon="2.8280801292195132"><ele>92.0</ele><time>2026-04-09T09:50:39Z</time></trkpt><trkpt lat="42.5106379940697" lon="2.8279765698201986"><ele>92.0</ele><time>2026-04-09T09:50:40Z</time></trkpt><trkpt lat="42.51052637734236" lon="2.827875470561671"><ele>92.0</ele><time>2026-04-09T09:50:41Z</time></trkpt><trkpt lat="42.51041481133814" lon="2.8277813182290874"><ele>92.0</ele><time>2026-04-09T09:50:42Z</time></trkpt><trkpt lat="42.51029920396086" lon="2.827676230690031"><ele>91.75</ele><time>2026-04-09T09:50:43Z</time></trkpt><trkpt lat="42.51018685029093" lon="2.8275702424850815"><ele>91.5</ele><time>2026-04-09T09:50:44Z</time></trkpt><trkpt lat="42.51007061515379" lon="2.827460390422391"><ele>91.25</ele><time>2026-04-09T09:50:45Z</time></trkpt><trkpt lat="42.50996229850582" lon="2.8273616072094723"><ele>91.0</ele><time>2026-04-09T09:50:46Z</time></trkpt><trkpt lat="42.50986171824188" lon="2.827272419020736"><ele>91.0</ele><time>2026-04-09T09:50:47Z</time></trkpt><trkpt lat="42.509772213188505" lon="2.827181949922405"><ele>91.0</ele><time>2026-04-09T09:50:48Z</time></trkpt><trkpt lat="42.50967675305745" lon="2.8270823865126937"><ele>91.0</ele><time>2026-04-09T09:50:49Z</time></trkpt><trkpt lat="42.50957717825316" lon="2.826999350508661"><ele>91.0</ele><time>2026-04-09T09:50:50Z</time></trkpt><trkpt lat="42.50948403215519" lon="2.826907293330062"><ele>91.4</ele><time>2026-04-09T09:50:51Z</time></trkpt><trkpt lat="42.50939682681517" lon="2.8268109320848502"><ele>91.8</ele><time>2026-04-09T09:50:52Z</time></trkpt><trkpt lat="42.509321553232134" lon="2.8267105272158775"><ele>92.2</ele><time>2026-04-09T09:50:53Z</time></trkpt><trkpt lat="42.509249835055634" lon="2.8265997633625095"><ele>92.60000000000001</ele><time>2026-04-09T09:50:54Z</time></trkpt><trkpt lat="42.509177881792205" lon="2.826486977324685"><ele>93.0</ele><time>2026-04-09T09:50:55Z</time></trkpt><trkpt lat="42.509104610754626" lon="2.8263674962512724"><ele>93.0</ele><time>2026-04-09T09:50:56Z</time></trkpt><trkpt lat="42.50903097897973" lon="2.826250994324337"><ele>93.0</ele><time>2026-04-09T09:50:57Z</time></trkpt><trkpt lat="42.50895992826169" lon="2.826127482343441"><ele>93.0</ele><time>2026-04-09T09:50:58Z</time></trkpt><trkpt lat="42.508885007415294" lon="2.825997950101602"><ele>93.0</ele><time>2026-04-09T09:50:59Z</time></trkpt><trkpt lat="42.50880477275553" lon="2.825864144765042"><ele>95.5</ele><time>2026-04-09T09:51:00Z</time></trkpt><trkpt lat="42.50872435293521" lon="2.825725999642409"><ele>98.0</ele><time>2026-04-09T09:51:01Z</time></trkpt><trkpt lat="42.508639805169146" lon="2.8255906818959775"><ele>100.5</ele><time>2026-04-09T09:51:02Z</time></trkpt><trkpt lat="42.508546169594354" lon="2.8254576010295356"><ele>103.0</ele><time>2026-04-09T09:51:03Z</time></trkpt><trkpt lat="42.50843395339948" lon="2.8253424114187715"><ele>103.0</ele><time>2026-04-09T09:51:04Z</time></trkpt><trkpt lat="42.50830936975191" lon="2.8252506002574003"><ele>103.0</ele><time>2026-04-09T09:51:05Z</time></trkpt><trkpt lat="42.50817306739675" lon="2.825186031249306"><ele>103.0</ele><time>2026-04-09T09:51:06Z</time></trkpt><trkpt lat="42.50803390237362" lon="2.825134295061306"><ele>103.0</ele><time>2026-04-09T09:51:07Z</time></trkpt><trkpt lat="42.50789326138741" lon="2.8250657146358034"><ele>102.0</ele><time>2026-04-09T09:51:08Z</time></trkpt><trkpt lat="42.507756757330306" lon="2.8249695230676957"><ele>101.0</ele><time>2026-04-09T09:51:09Z</time></trkpt><trkpt lat="42.50763318827129" lon="2.82484468302616"><ele>100.0</ele><time>2026-04-09T09:51:10Z</time></trkpt><trkpt lat="42.50752970396231" lon="2.8247021600214075"><ele>100.0</ele><time>2026-04-09T09:51:11Z</time></trkpt><trkpt lat="42.507439985310455" lon="2.8245421919599103"><ele>100.0</ele><time>2026-04-09T09:51:12Z</time></trkpt><trkpt lat="42.50735365105581" lon="2.8243712824817604"><ele>100.0</ele><time>2026-04-09T09:51:13Z</time></trkpt><trkpt lat="42.50725649729173" lon="2.8242136007556"><ele>99.25</ele><time>2026-04-09T09:51:14Z</time></trkpt><trkpt lat="42.50715473811004" lon="2.824073023772878"><ele>98.5</ele><time>2026-04-09T09:51:15Z</time></trkpt><trkpt lat="42.50703275216518" lon="2.823949824851656"><ele>97.75</ele><time>2026-04-09T09:51:16Z</time></trkpt><trkpt lat="42.50690347845598" lon="2.8238435018003214"><ele>97.0</ele><time>2026-04-09T09:51:17Z</time></trkpt><trkpt lat="42.506760726779724" lon="2.8237560451590147"><ele>97.0</ele><time>2026-04-09T09:51:18Z</time></trkpt><trkpt lat="42.50661104747697" lon="2.823687449781893"><ele>97.0</ele><time>2026-04-09T09:51:19Z</time></trkpt><trkpt lat="42.50645849259721" lon="2.8236316022708685"><ele>97.0</ele><time>2026-04-09T09:51:20Z</time></trkpt><trkpt lat="42.506306312492676" lon="2.8235799809201745"><ele>97.66666666666667</ele><time>2026-04-09T09:51:21Z</time></trkpt><trkpt lat="42.506155251619404" lon="2.8235281123903744"><ele>98.33333333333334</ele><time>2026-04-09T09:51:22Z</time></trkpt><trkpt lat="42.506003147640065" lon="2.823480170596906"><ele>99.0</ele><time>2026-04-09T09:51:23Z</time></trkpt><trkpt lat="42.50584818932424" lon="2.8234449293382533"><ele>100.66666666666666</ele><time>2026-04-09T09:51:24Z</time></trkpt><trkpt lat="42.50569339050344" lon="2.823437481361706"><ele>102.33333333333333</ele><time>2026-04-09T09:51:25Z</time></trkpt><trkpt lat="42.50553625315221" lon="2.8234525795481615"><ele>104.0</ele><time>2026-04-09T09:51:26Z</time></trkpt><trkpt lat="42.50538448246062" lon="2.823485230779771"><ele>104.0</ele><time>2026-04-09T09:51:27Z</time></trkpt><trkpt lat="42.50522932009247" lon="2.82353821027995"><ele>104.0</ele><time>2026-04-09T09:51:28Z</time></trkpt><trkpt lat="42.505078277526394" lon="2.8236125864002077"><ele>104.0</ele><time>2026-04-09T09:51:29Z</time></trkpt><trkpt lat="42.50493529256455" lon="2.823718046364429"><ele>104.0</ele><time>2026-04-09T09:51:30Z</time></trkpt><trkpt lat="42.504799907932906" lon="2.823833106771912"><ele>104.0</ele><time>2026-04-09T09:51:31Z</time></trkpt><trkpt lat="42.50466647131205" lon="2.8239471436052614"><ele>104.0</ele><time>2026-04-09T09:51:32Z</time></trkpt><trkpt lat="42.50453274469274" lon="2.824054654163293"><ele>102.0</ele><time>2026-04-09T09:51:33Z</time></trkpt><trkpt lat="42.5043937497074" lon="2.8241399812122343"><ele>100.0</ele><time>2026-04-09T09:51:34Z</time></trkpt><trkpt lat="42.50424989935465" lon="2.8241900858751405"><ele>98.0</ele><time>2026-04-09T09:51:35Z</time></trkpt><trkpt lat="42.50409683527056" lon="2.8242063196127587"><ele>98.0</ele><time>2026-04-09T09:51:36Z</time></trkpt><trkpt lat="42.5039455044928" lon="2.8241876752022477"><ele>98.0</ele><time>2026-04-09T09:51:37Z</time></trkpt><trkpt lat="42.503799520424096" lon="2.82415363557003"><ele>98.0</ele><time>2026-04-09T09:51:38Z</time></trkpt><trkpt lat="42.50365857848974" lon="2.824121552240896"><ele>98.0</ele><time>2026-04-09T09:51:39Z</time></trkpt><trkpt lat="42.50351510446063" lon="2.8240893691171203"><ele>99.25</ele><time>2026-04-09T09:51:40Z</time></trkpt><trkpt lat="42.503381249830774" lon="2.8240349512065097"><ele>100.5</ele><time>2026-04-09T09:51:41Z</time></trkpt><trkpt lat="42.503254664242505" lon="2.823960830197884"><ele>101.75</ele><time>2026-04-09T09:51:42Z</time></trkpt><trkpt lat="42.50313398215033" lon="2.823874113134566"><ele>103.0</ele><time>2026-04-09T09:51:43Z</time></trkpt><trkpt lat="42.50301836435007" lon="2.823786574215494"><ele>104.75</ele><time>2026-04-09T09:51:44Z</time></trkpt><trkpt lat="42.502902871152465" lon="2.8236942024867444"><ele>106.5</ele><time>2026-04-09T09:51:45Z</time></trkpt><trkpt lat="42.5027842877178" lon="2.823604943049892"><ele>108.25</ele><time>2026-04-09T09:51:46Z</time></trkpt><trkpt lat="42.50266441180473" lon="2.8235149969711615"><ele>110.0</ele><time>2026-04-09T09:51:47Z</time></trkpt><trkpt lat="42.5025500491602" lon="2.823417411847616"><ele>105.5</ele><time>2026-04-09T09:51:48Z</time></trkpt><trkpt lat="42.50243470753131" lon="2.823307286326622"><ele>101.0</ele><time>2026-04-09T09:51:49Z</time></trkpt><trkpt lat="42.502322989968654" lon="2.8231928365830696"><ele>96.5</ele><time>2026-04-09T09:51:50Z</time></trkpt><trkpt lat="42.5022156151508" lon="2.8230687940491177"><ele>92.0</ele><time>2026-04-09T09:51:51Z</time></trkpt><trkpt lat="42.5021093050887" lon="2.8229367212767453"><ele>94.25</ele><time>2026-04-09T09:51:52Z</time></trkpt><trkpt lat="42.502010053683364" lon="2.8227957238932877"><ele>96.5</ele><time>2026-04-09T09:51:53Z</time></trkpt><trkpt lat="42.50191944923982" lon="2.822644800413816"><ele>98.75</ele><time>2026-04-09T09:51:54Z</time></trkpt><trkpt lat="42.5018327236696" lon="2.8224881214696094"><ele>101.0</ele><time>2026-04-09T09:51:55Z</time></trkpt><trkpt lat="42.50175148003145" lon="2.8223291329167832"><ele>101.0</ele><time>2026-04-09T09:51:56Z</time></trkpt><trkpt lat="42.50167442677703" lon="2.8221792467560247"><ele>101.0</ele><time>2026-04-09T09:51:57Z</time></trkpt><trkpt lat="42.50159601480314" lon="2.8220322900370034"><ele>101.0</ele><time>2026-04-09T09:51:58Z</time></trkpt><trkpt lat="42.501522283192244" lon="2.821894323807731"><ele>101.0</ele><time>2026-04-09T09:51:59Z</time></trkpt><trkpt lat="42.50145050559743" lon="2.8217708475222025"><ele>99.6</ele><time>2026-04-09T09:52:00Z</time></trkpt><trkpt lat="42.50137784312809" lon="2.8216629590845743"><ele>98.19999999999999</ele><time>2026-04-09T09:52:01Z</time></trkpt><trkpt lat="42.50130543300379" lon="2.821556619805571"><ele>96.80000000000001</ele><time>2026-04-09T09:52:02Z</time></trkpt><trkpt lat="42.50123864274448" lon="2.821461981988544"><ele>95.4</ele><time>2026-04-09T09:52:03Z</time></trkpt><trkpt lat="42.501177892550096" lon="2.821372016776782"><ele>94.0</ele><time>2026-04-09T09:52:04Z</time></trkpt><trkpt lat="42.501128960445904" lon="2.821290542999765"><ele>95.33333333333333</ele><time>2026-04-09T09:52:05Z</time></trkpt><trkpt lat="42.50109713514254" lon="2.82120724438554"><ele>96.66666666666666</ele><time>2026-04-09T09:52:06Z</time></trkpt><trkpt lat="42.50107442951459" lon="2.8211174345933823"><ele>98.0</ele><time>2026-04-09T09:52:07Z</time></trkpt><trkpt lat="42.5010431156694" lon="2.8210270949215985"><ele>99.33333333333333</ele><time>2026-04-09T09:52:08Z</time></trkpt><trkpt lat="42.50099322486421" lon="2.8209473777923484"><ele>100.66666666666667</ele><time>2026-04-09T09:52:09Z</time></trkpt><trkpt lat="42.50093017437141" lon="2.8208858601685938"><ele>102.0</ele><time>2026-04-09T09:52:10Z</time></trkpt><trkpt lat="42.500851461699256" lon="2.8208474386023665"><ele>102.0</ele><time>2026-04-09T09:52:11Z</time></trkpt><trkpt lat="42.50076816047991" lon="2.820844936275702"><ele>102.0</ele><time>2026-04-09T09:52:12Z</time></trkpt><trkpt lat="42.50068258030725" lon="2.82083973469601"><ele>102.0</ele><time>2026-04-09T09:52:13Z</time></trkpt><trkpt lat="42.500595453664175" lon="2.8208092953939645"><ele>102.0</ele><time>2026-04-09T09:52:14Z</time></trkpt><trkpt lat="42.50050280170633" lon="2.8207688748710065"><ele>102.0</ele><time>2026-04-09T09:52:15Z</time></trkpt><trkpt lat="42.50040431864814" lon="2.8207256829375047"><ele>104.75</ele><time>2026-04-09T09:52:16Z</time></trkpt><trkpt lat="42.50029678408313" lon="2.8206833871663815"><ele>107.5</ele><time>2026-04-09T09:52:17Z</time></trkpt><trkpt lat="42.50018171701006" lon="2.8206487848422865"><ele>110.25</ele><time>2026-04-09T09:52:18Z</time></trkpt><trkpt lat="42.50005861360383" lon="2.8206164793221724"><ele>113.0</ele><time>2026-04-09T09:52:19Z</time></trkpt><trkpt lat="42.49993422619546" lon="2.8205880464074045"><ele>113.0</ele><time>2026-04-09T09:52:20Z</time></trkpt><trkpt lat="42.49981284750538" lon="2.8205677659686534"><ele>113.0</ele><time>2026-04-09T09:52:21Z</time></trkpt><trkpt lat="42.49968589165166" lon="2.8205495085261236"><ele>113.0</ele><time>2026-04-09T09:52:22Z</time></trkpt><trkpt lat="42.49956070516952" lon="2.820535228162071"><ele>113.0</ele><time>2026-04-09T09:52:23Z</time></trkpt><trkpt lat="42.49943523545208" lon="2.8205264568630617"><ele>113.75</ele><time>2026-04-09T09:52:24Z</time></trkpt><trkpt lat="42.49931027317035" lon="2.8205311379577074"><ele>114.5</ele><time>2026-04-09T09:52:25Z</time></trkpt><trkpt lat="42.49918601251709" lon="2.820538997023727"><ele>115.25</ele><time>2026-04-09T09:52:26Z</time></trkpt><trkpt lat="42.49906303962516" lon="2.820555156805836"><ele>116.0</ele><time>2026-04-09T09:52:27Z</time></trkpt><trkpt lat="42.498941936179385" lon="2.820581550330421"><ele>116.0</ele><time>2026-04-09T09:52:28Z</time></trkpt><trkpt lat="42.49881781711663" lon="2.8206180576253197"><ele>116.0</ele><time>2026-04-09T09:52:29Z</time></trkpt><trkpt lat="42.498678422049316" lon="2.820654925586641"><ele>116.0</ele><time>2026-04-09T09:52:30Z</time></trkpt><trkpt lat="42.498545895722586" lon="2.8207061765556105"><ele>116.0</ele><time>2026-04-09T09:52:31Z</time></trkpt><trkpt lat="42.49841312852098" lon="2.820764175608438"><ele>116.75</ele><time>2026-04-09T09:52:32Z</time></trkpt><trkpt lat="42.49828045731351" lon="2.8208345725876063"><ele>117.5</ele><time>2026-04-09T09:52:33Z</time></trkpt><trkpt lat="42.498144138890844" lon="2.8209136733401508"><ele>118.25</ele><time>2026-04-09T09:52:34Z</time></trkpt><trkpt lat="42.49800757584532" lon="2.821000560237383"><ele>119.0</ele><time>2026-04-09T09:52:35Z</time></trkpt><trkpt lat="42.497868000608406" lon="2.821097554635337"><ele>116.33333333333333</ele><time>2026-04-09T09:52:36Z</time></trkpt><trkpt lat="42.497726502761985" lon="2.8211964138717223"><ele>113.66666666666666</ele><time>2026-04-09T09:52:37Z</time></trkpt><trkpt lat="42.49758564229081" lon="2.8213007711011153"><ele>111.0</ele><time>2026-04-09T09:52:38Z</time></trkpt><trkpt lat="42.49744591172506" lon="2.821406488563272"><ele>111.0</ele><time>2026-04-09T09:52:39Z</time></trkpt><trkpt lat="42.49730760139065" lon="2.82152251573398"><ele>111.0</ele><time>2026-04-09T09:52:40Z</time></trkpt><trkpt lat="42.497175740057195" lon="2.8216529467498166"><ele>111.0</ele><time>2026-04-09T09:52:41Z</time></trkpt><trkpt lat="42.49704640670627" lon="2.821790671010741"><ele>111.66666666666666</ele><time>2026-04-09T09:52:42Z</time></trkpt><trkpt lat="42.49692210906912" lon="2.8219356825529753"><ele>112.33333333333333</ele><time>2026-04-09T09:52:43Z</time></trkpt><trkpt lat="42.49679912064274" lon="2.8220885388873906"><ele>113.0</ele><time>2026-04-09T09:52:44Z</time></trkpt><trkpt lat="42.496676421553964" lon="2.822244619026161"><ele>113.0</ele><time>2026-04-09T09:52:45Z</time></trkpt><trkpt lat="42.4965593271532" lon="2.8224010085385713"><ele>113.0</ele><time>2026-04-09T09:52:46Z</time></trkpt><trkpt lat="42.49645200566762" lon="2.822568039630728"><ele>113.0</ele><time>2026-04-09T09:52:47Z</time></trkpt><trkpt lat="42.49634493210131" lon="2.822742664185333"><ele>112.66666666666666</ele><time>2026-04-09T09:52:48Z</time></trkpt><trkpt lat="42.49623855144825" lon="2.8229233214269063"><ele>112.33333333333334</ele><time>2026-04-09T09:52:49Z</time></trkpt><trkpt lat="42.49613571764498" lon="2.823104256178049"><ele>112.0</ele><time>2026-04-09T09:52:50Z</time></trkpt><trkpt lat="42.496032193388395" lon="2.823279394143494"><ele>112.0</ele><time>2026-04-09T09:52:51Z</time></trkpt><trkpt lat="42.49593387237707" lon="2.8234508915164507"><ele>112.0</ele><time>2026-04-09T09:52:52Z</time></trkpt><trkpt lat="42.49583368914847" lon="2.823624731568846"><ele>112.0</ele><time>2026-04-09T09:52:53Z</time></trkpt><trkpt lat="42.49574025220167" lon="2.823806954382721"><ele>114.66666666666667</ele><time>2026-04-09T09:52:54Z</time></trkpt><trkpt lat="42.4956686025506" lon="2.8240095540626906"><ele>117.33333333333334</ele><time>2026-04-09T09:52:55Z</time></trkpt><trkpt lat="42.49561211915443" lon="2.824222951625945"><ele>120.0</ele><time>2026-04-09T09:52:56Z</time></trkpt><trkpt lat="42.49556153099838" lon="2.824442448461638"><ele>121.66666666666666</ele><time>2026-04-09T09:52:57Z</time></trkpt><trkpt lat="42.4955075641705" lon="2.8246649671818327"><ele>123.33333333333333</ele><time>2026-04-09T09:52:58Z</time></trkpt><trkpt lat="42.49544704728325" lon="2.8248937169585533"><ele>125.0</ele><time>2026-04-09T09:52:59Z</time></trkpt><trkpt lat="42.49538724767993" lon="2.825118845293036"><ele>122.0</ele><time>2026-04-09T09:53:00Z</time></trkpt><trkpt lat="42.4953285872273" lon="2.8253422756229103"><ele>119.0</ele><time>2026-04-09T09:53:01Z</time></trkpt><trkpt lat="42.49526880266511" lon="2.825562926212744"><ele>116.0</ele><time>2026-04-09T09:53:02Z</time></trkpt><trkpt lat="42.49520846730418" lon="2.8257799854343015"><ele>118.0</ele><time>2026-04-09T09:53:03Z</time></trkpt><trkpt lat="42.49514774380154" lon="2.8259918573310108"><ele>120.0</ele><time>2026-04-09T09:53:04Z</time></trkpt><trkpt lat="42.4950838004812" lon="2.8262048476130177"><ele>122.0</ele><time>2026-04-09T09:53:05Z</time></trkpt><trkpt lat="42.49501632106174" lon="2.8264173494673206"><ele>122.0</ele><time>2026-04-09T09:53:06Z</time></trkpt><trkpt lat="42.49493357767071" lon="2.8266235359719514"><ele>122.0</ele><time>2026-04-09T09:53:07Z</time></trkpt><trkpt lat="42.49483670633333" lon="2.8268224445397827"><ele>122.0</ele><time>2026-04-09T09:53:08Z</time></trkpt><trkpt lat="42.49473514404127" lon="2.827016260612569"><ele>122.0</ele><time>2026-04-09T09:53:09Z</time></trkpt><trkpt lat="42.49462212011697" lon="2.8271965293795245"><ele>122.0</ele><time>2026-04-09T09:53:10Z</time></trkpt><trkpt lat="42.49449816784385" lon="2.827374150646971"><ele>122.0</ele><time>2026-04-09T09:53:11Z</time></trkpt><trkpt lat="42.49436598651342" lon="2.827537817171923"><ele>124.0</ele><time>2026-04-09T09:53:12Z</time></trkpt><trkpt lat="42.49423203440725" lon="2.8277001938333166"><ele>126.0</ele><time>2026-04-09T09:53:13Z</time></trkpt><trkpt lat="42.49410246390837" lon="2.827859579357934"><ele>128.0</ele><time>2026-04-09T09:53:14Z</time></trkpt><trkpt lat="42.49397197310272" lon="2.828019432760722"><ele>128.0</ele><time>2026-04-09T09:53:15Z</time></trkpt><trkpt lat="42.49384116725984" lon="2.828180221087265"><ele>128.0</ele><time>2026-04-09T09:53:16Z</time></trkpt><trkpt lat="42.49371282627059" lon="2.828342073380853"><ele>128.0</ele><time>2026-04-09T09:53:17Z</time></trkpt><trkpt lat="42.49358450139757" lon="2.8285038923614167"><ele>129.0</ele><time>2026-04-09T09:53:18Z</time></trkpt><trkpt lat="42.493458176908355" lon="2.828660626890915"><ele>130.0</ele><time>2026-04-09T09:53:19Z</time></trkpt><trkpt lat="42.493331190452224" lon="2.828817868035373"><ele>131.0</ele><time>2026-04-09T09:53:20Z</time></trkpt><trkpt lat="42.493204432146506" lon="2.828976856775773"><ele>131.0</ele><time>2026-04-09T09:53:21Z</time></trkpt><trkpt lat="42.49308150829736" lon="2.829131751696741"><ele>131.0</ele><time>2026-04-09T09:53:22Z</time></trkpt><trkpt lat="42.49295608629569" lon="2.8292870075469536"><ele>131.0</ele><time>2026-04-09T09:53:23Z</time></trkpt><trkpt lat="42.49283550105556" lon="2.8294475165737967"><ele>131.66666666666666</ele><time>2026-04-09T09:53:24Z</time></trkpt><trkpt lat="42.49271747766576" lon="2.8296146778699574"><ele>132.33333333333334</ele><time>2026-04-09T09:53:25Z</time></trkpt><trkpt lat="42.49260390238246" lon="2.829791922646994"><ele>133.0</ele><time>2026-04-09T09:53:26Z</time></trkpt><trkpt lat="42.49248932587637" lon="2.8299704382802977"><ele>135.66666666666669</ele><time>2026-04-09T09:53:27Z</time></trkpt><trkpt lat="42.492376692710494" lon="2.8301514375028414"><ele>138.33333333333334</ele><time>2026-04-09T09:53:28Z</time></trkpt><trkpt lat="42.49226988889791" lon="2.830338386708844"><ele>141.0</ele><time>2026-04-09T09:53:29Z</time></trkpt><trkpt lat="42.492162983081144" lon="2.8305208710617125"><ele>139.0</ele><time>2026-04-09T09:53:30Z</time></trkpt><trkpt lat="42.49205804005643" lon="2.830700219164983"><ele>137.0</ele><time>2026-04-09T09:53:31Z</time></trkpt><trkpt lat="42.491954203977976" lon="2.8308805438465487"><ele>135.0</ele><time>2026-04-09T09:53:32Z</time></trkpt><trkpt lat="42.491848263374244" lon="2.831058874281819"><ele>135.0</ele><time>2026-04-09T09:53:33Z</time></trkpt><trkpt lat="42.49173998613228" lon="2.8312352337729942"><ele>135.0</ele><time>2026-04-09T09:53:34Z</time></trkpt><trkpt lat="42.4916314466775" lon="2.8314147804418432"><ele>135.0</ele><time>2026-04-09T09:53:35Z</time></trkpt><trkpt lat="42.49152178178718" lon="2.83159397607824"><ele>135.0</ele><time>2026-04-09T09:53:36Z</time></trkpt><trkpt lat="42.49140977886584" lon="2.8317750191944655"><ele>135.0</ele><time>2026-04-09T09:53:37Z</time></trkpt><trkpt lat="42.491299911565" lon="2.8319599621611395"><ele>135.0</ele><time>2026-04-09T09:53:38Z</time></trkpt><trkpt lat="42.491192563723246" lon="2.832144381572135"><ele>135.33333333333334</ele><time>2026-04-09T09:53:39Z</time></trkpt><trkpt lat="42.491081225861464" lon="2.8323313063774602"><ele>135.66666666666669</ele><time>2026-04-09T09:53:40Z</time></trkpt><trkpt lat="42.49097239649219" lon="2.832520788815242"><ele>136.0</ele><time>2026-04-09T09:53:41Z</time></trkpt><trkpt lat="42.490859472247536" lon="2.8327093108458943"><ele>139.5</ele><time>2026-04-09T09:53:42Z</time></trkpt><trkpt lat="42.49063184040797" lon="2.8331011289948846"><ele>143.0</ele><time>2026-04-09T09:53:44Z</time></trkpt><trkpt lat="42.490521119325024" lon="2.8332983178366002"><ele>141.0</ele><time>2026-04-09T09:53:45Z</time></trkpt><trkpt lat="42.49040914236716" lon="2.833499079920697"><ele>139.0</ele><time>2026-04-09T09:53:46Z</time></trkpt><trkpt lat="42.49030044850404" lon="2.8337002636980273"><ele>137.0</ele><time>2026-04-09T09:53:47Z</time></trkpt><trkpt lat="42.49019115116001" lon="2.8338983763308905"><ele>137.0</ele><time>2026-04-09T09:53:48Z</time></trkpt><trkpt lat="42.4900820210628" lon="2.8340953009056404"><ele>137.0</ele><time>2026-04-09T09:53:49Z</time></trkpt><trkpt lat="42.48997221693563" lon="2.834292047836899"><ele>137.0</ele><time>2026-04-09T09:53:50Z</time></trkpt><trkpt lat="42.4898631143627" lon="2.834485234294602"><ele>139.0</ele><time>2026-04-09T09:53:51Z</time></trkpt><trkpt lat="42.489755557437384" lon="2.8346807510694942"><ele>141.0</ele><time>2026-04-09T09:53:52Z</time></trkpt><trkpt lat="42.48964927203054" lon="2.834878419514645"><ele>143.0</ele><time>2026-04-09T09:53:53Z</time></trkpt><trkpt lat="42.489535741190885" lon="2.835078307252062"><ele>139.0</ele><time>2026-04-09T09:53:54Z</time></trkpt><trkpt lat="42.48942131602392" lon="2.8352808769747813"><ele>135.0</ele><time>2026-04-09T09:53:55Z</time></trkpt><trkpt lat="42.489307846076365" lon="2.835488881636023"><ele>131.0</ele><time>2026-04-09T09:53:56Z</time></trkpt><trkpt lat="42.48919174005134" lon="2.835696736953357"><ele>131.0</ele><time>2026-04-09T09:53:57Z</time></trkpt><trkpt lat="42.48907166953119" lon="2.835903805638017"><ele>131.0</ele><time>2026-04-09T09:53:58Z</time></trkpt><trkpt lat="42.488953802328915" lon="2.836107001340736"><ele>131.0</ele><time>2026-04-09T09:53:59Z</time></trkpt><trkpt lat="42.488827395796456" lon="2.836301697129909"><ele>133.0</ele><time>2026-04-09T09:54:00Z</time></trkpt><trkpt lat="42.48869215255067" lon="2.8364788574885553"><ele>135.0</ele><time>2026-04-09T09:54:01Z</time></trkpt><trkpt lat="42.48854832809855" lon="2.836640397495343"><ele>137.0</ele><time>2026-04-09T09:54:02Z</time></trkpt><trkpt lat="42.48839798392099" lon="2.836782423109136"><ele>141.0</ele><time>2026-04-09T09:54:03Z</time></trkpt><trkpt lat="42.488242224152714" lon="2.836904307373239"><ele>145.0</ele><time>2026-04-09T09:54:04Z</time></trkpt><trkpt lat="42.48807892131483" lon="2.837013478304496"><ele>149.0</ele><time>2026-04-09T09:54:05Z</time></trkpt><trkpt lat="42.487914450494756" lon="2.8370920313800654"><ele>149.0</ele><time>2026-04-09T09:54:06Z</time></trkpt><trkpt lat="42.487749237876045" lon="2.837149164290422"><ele>149.0</ele><time>2026-04-09T09:54:07Z</time></trkpt><trkpt lat="42.487585539906824" lon="2.8371834127406776"><ele>149.0</ele><time>2026-04-09T09:54:08Z</time></trkpt><trkpt lat="42.487422406881386" lon="2.8372028230485076"><ele>149.0</ele><time>2026-04-09T09:54:09Z</time></trkpt><trkpt lat="42.48726219618332" lon="2.837213923377149"><ele>149.0</ele><time>2026-04-09T09:54:10Z</time></trkpt><trkpt lat="42.487103437801494" lon="2.837209806626668"><ele>149.0</ele><time>2026-04-09T09:54:11Z</time></trkpt><trkpt lat="42.486947363062185" lon="2.8371912459049597"><ele>145.66666666666666</ele><time>2026-04-09T09:54:12Z</time></trkpt><trkpt lat="42.486793346458306" lon="2.8371564999238794"><ele>142.33333333333334</ele><time>2026-04-09T09:54:13Z</time></trkpt><trkpt lat="42.48664333619469" lon="2.837116483475318"><ele>139.0</ele><time>2026-04-09T09:54:14Z</time></trkpt><trkpt lat="42.48649550213295" lon="2.8370732154900784"><ele>139.0</ele><time>2026-04-09T09:54:15Z</time></trkpt><trkpt lat="42.48635021573551" lon="2.83700698491766"><ele>139.0</ele><time>2026-04-09T09:54:16Z</time></trkpt><trkpt lat="42.4862058395743" lon="2.8369272531923015"><ele>139.0</ele><time>2026-04-09T09:54:17Z</time></trkpt><trkpt lat="42.48606287494937" lon="2.8368279187296883"><ele>138.0</ele><time>2026-04-09T09:54:18Z</time></trkpt><trkpt lat="42.485918656101134" lon="2.836725881976589"><ele>137.0</ele><time>2026-04-09T09:54:19Z</time></trkpt><trkpt lat="42.4857759017731" lon="2.836626435908651"><ele>136.0</ele><time>2026-04-09T09:54:20Z</time></trkpt><trkpt lat="42.485632417978735" lon="2.836524888453532"><ele>136.0</ele><time>2026-04-09T09:54:21Z</time></trkpt><trkpt lat="42.485488409242095" lon="2.836424457678733"><ele>136.0</ele><time>2026-04-09T09:54:22Z</time></trkpt><trkpt lat="42.485344489315935" lon="2.836329738685752"><ele>136.0</ele><time>2026-04-09T09:54:23Z</time></trkpt><trkpt lat="42.48520377457103" lon="2.8362465679895275"><ele>139.5</ele><time>2026-04-09T09:54:24Z</time></trkpt><trkpt lat="42.485065112855345" lon="2.8361787886904586"><ele>143.0</ele><time>2026-04-09T09:54:25Z</time></trkpt><trkpt lat="42.48492226224542" lon="2.836142507616095"><ele>146.5</ele><time>2026-04-09T09:54:26Z</time></trkpt><trkpt lat="42.48477976427004" lon="2.8361376870207264"><ele>150.0</ele><time>2026-04-09T09:54:27Z</time></trkpt><trkpt lat="42.48464179483072" lon="2.8361745640572873"><ele>147.75</ele><time>2026-04-09T09:54:28Z</time></trkpt><trkpt lat="42.484511750139575" lon="2.836250475857578"><ele>145.5</ele><time>2026-04-09T09:54:29Z</time></trkpt><trkpt lat="42.48440087487712" lon="2.836370870532383"><ele>143.25</ele><time>2026-04-09T09:54:30Z</time></trkpt><trkpt lat="42.48430821820652" lon="2.836500336138071"><ele>141.0</ele><time>2026-04-09T09:54:31Z</time></trkpt><trkpt lat="42.48423572430916" lon="2.8366467349909286"><ele>142.0</ele><time>2026-04-09T09:54:32Z</time></trkpt><trkpt lat="42.484185256076664" lon="2.836814313045246"><ele>143.0</ele><time>2026-04-09T09:54:33Z</time></trkpt><trkpt lat="42.484145575532274" lon="2.836984283096287"><ele>144.0</ele><time>2026-04-09T09:54:34Z</time></trkpt><trkpt lat="42.48410658307642" lon="2.8371614296995205"><ele>145.0</ele><time>2026-04-09T09:54:35Z</time></trkpt><trkpt lat="42.48406933862109" lon="2.837339717757332"><ele>145.0</ele><time>2026-04-09T09:54:36Z</time></trkpt><trkpt lat="42.48403377953478" lon="2.8375174512147017"><ele>145.0</ele><time>2026-04-09T09:54:37Z</time></trkpt><trkpt lat="42.48400810985983" lon="2.837702624763248"><ele>145.0</ele><time>2026-04-09T09:54:38Z</time></trkpt><trkpt lat="42.483989161973255" lon="2.8378879520684004"><ele>145.0</ele><time>2026-04-09T09:54:39Z</time></trkpt><trkpt lat="42.483973936885754" lon="2.838076928916537"><ele>146.75</ele><time>2026-04-09T09:54:40Z</time></trkpt><trkpt lat="42.48396239546141" lon="2.8382707624612724"><ele>148.5</ele><time>2026-04-09T09:54:41Z</time></trkpt><trkpt lat="42.48395558534714" lon="2.8384617321167376"><ele>150.25</ele><time>2026-04-09T09:54:42Z</time></trkpt><trkpt lat="42.48395156503646" lon="2.8386605219456813"><ele>152.0</ele><time>2026-04-09T09:54:43Z</time></trkpt><trkpt lat="42.48395151772776" lon="2.838853414621973"><ele>154.5</ele><time>2026-04-09T09:54:44Z</time></trkpt><trkpt lat="42.483955363228155" lon="2.8390446078652793"><ele>157.0</ele><time>2026-04-09T09:54:45Z</time></trkpt><trkpt lat="42.483957104359455" lon="2.8392300915808946"><ele>159.5</ele><time>2026-04-09T09:54:46Z</time></trkpt><trkpt lat="42.48395451490923" lon="2.839411657402196"><ele>162.0</ele><time>2026-04-09T09:54:47Z</time></trkpt><trkpt lat="42.48393546060171" lon="2.8395827159969906"><ele>160.25</ele><time>2026-04-09T09:54:48Z</time></trkpt><trkpt lat="42.48388180788034" lon="2.839739027961006"><ele>158.5</ele><time>2026-04-09T09:54:49Z</time></trkpt><trkpt lat="42.483794063750224" lon="2.8398706830391482"><ele>156.75</ele><time>2026-04-09T09:54:50Z</time></trkpt><trkpt lat="42.48368747707152" lon="2.839986050859011"><ele>155.0</ele><time>2026-04-09T09:54:51Z</time></trkpt><trkpt lat="42.48357790881914" lon="2.8400911178898447"><ele>160.25</ele><time>2026-04-09T09:54:52Z</time></trkpt><trkpt lat="42.48346450130753" lon="2.840193587522951"><ele>165.5</ele><time>2026-04-09T09:54:53Z</time></trkpt><trkpt lat="42.48334897283295" lon="2.8403007020564246"><ele>170.75</ele><time>2026-04-09T09:54:54Z</time></trkpt><trkpt lat="42.48323574767475" lon="2.840410369758581"><ele>176.0</ele><time>2026-04-09T09:54:55Z</time></trkpt><trkpt lat="42.48311966054691" lon="2.840519384022932"><ele>176.0</ele><time>2026-04-09T09:54:56Z</time></trkpt><trkpt lat="42.4830049485037" lon="2.8406336244716965"><ele>176.0</ele><time>2026-04-09T09:54:57Z</time></trkpt><trkpt lat="42.48288841175649" lon="2.840742293484339"><ele>176.0</ele><time>2026-04-09T09:54:58Z</time></trkpt><trkpt lat="42.48277065874378" lon="2.8408533505779308"><ele>176.0</ele><time>2026-04-09T09:54:59Z</time></trkpt><trkpt lat="42.48264877750519" lon="2.84096427293116"><ele>179.0</ele><time>2026-04-09T09:55:00Z</time></trkpt><trkpt lat="42.48252671997936" lon="2.841079318672763"><ele>182.0</ele><time>2026-04-09T09:55:01Z</time></trkpt><trkpt lat="42.48240014806468" lon="2.841186776693813"><ele>185.0</ele><time>2026-04-09T09:55:02Z</time></trkpt><trkpt lat="42.48227437995026" lon="2.8412979884508016"><ele>188.0</ele><time>2026-04-09T09:55:03Z</time></trkpt><trkpt lat="42.48214743598888" lon="2.8414077546949668"><ele>181.33333333333331</ele><time>2026-04-09T09:55:04Z</time></trkpt><trkpt lat="42.48202105665293" lon="2.8415189935144975"><ele>174.66666666666666</ele><time>2026-04-09T09:55:05Z</time></trkpt><trkpt lat="42.48189261167826" lon="2.841635723835065"><ele>168.0</ele><time>2026-04-09T09:55:06Z</time></trkpt><trkpt lat="42.481767119909215" lon="2.841757025203059"><ele>175.33333333333334</ele><time>2026-04-09T09:55:07Z</time></trkpt><trkpt lat="42.48164690864849" lon="2.8418867689465768"><ele>182.66666666666669</ele><time>2026-04-09T09:55:08Z</time></trkpt><trkpt lat="42.4815285562157" lon="2.842020056649434"><ele>190.0</ele><time>2026-04-09T09:55:09Z</time></trkpt><trkpt lat="42.48141321885678" lon="2.8421595643518303"><ele>190.0</ele><time>2026-04-09T09:55:10Z</time></trkpt><trkpt lat="42.48129950690461" lon="2.8422994477147863"><ele>190.0</ele><time>2026-04-09T09:55:11Z</time></trkpt><trkpt lat="42.48118220458806" lon="2.8424366612374965"><ele>190.0</ele><time>2026-04-09T09:55:12Z</time></trkpt><trkpt lat="42.481059254982846" lon="2.8425644422995"><ele>192.0</ele><time>2026-04-09T09:55:13Z</time></trkpt><trkpt lat="42.48092904180333" lon="2.8426689065917876"><ele>194.0</ele><time>2026-04-09T09:55:14Z</time></trkpt><trkpt lat="42.480791548560084" lon="2.8427364704470186"><ele>196.0</ele><time>2026-04-09T09:55:15Z</time></trkpt><trkpt lat="42.480647269287864" lon="2.84275239172536"><ele>198.0</ele><time>2026-04-09T09:55:16Z</time></trkpt><trkpt lat="42.480501392279194" lon="2.8427281079015483"><ele>197.0</ele><time>2026-04-09T09:55:17Z</time></trkpt><trkpt lat="42.48036136589132" lon="2.8426759884712993"><ele>196.0</ele><time>2026-04-09T09:55:18Z</time></trkpt><trkpt lat="42.480220815421546" lon="2.842621730554311"><ele>195.0</ele><time>2026-04-09T09:55:19Z</time></trkpt><trkpt lat="42.48008435144137" lon="2.842587266753993"><ele>194.0</ele><time>2026-04-09T09:55:20Z</time></trkpt><trkpt lat="42.479948268385755" lon="2.8425957224517675"><ele>194.0</ele><time>2026-04-09T09:55:21Z</time></trkpt><trkpt lat="42.479815941931015" lon="2.842644108915552"><ele>194.0</ele><time>2026-04-09T09:55:22Z</time></trkpt><trkpt lat="42.479692675197334" lon="2.8427256407911385"><ele>194.0</ele><time>2026-04-09T09:55:23Z</time></trkpt><trkpt lat="42.479588681714574" lon="2.8428428212014016"><ele>194.0</ele><time>2026-04-09T09:55:24Z</time></trkpt><trkpt lat="42.479502004965745" lon="2.84298796683805"><ele>192.25</ele><time>2026-04-09T09:55:25Z</time></trkpt><trkpt lat="42.479423708758226" lon="2.843138539125548"><ele>190.5</ele><time>2026-04-09T09:55:26Z</time></trkpt><trkpt lat="42.47934002757476" lon="2.8432945322568712"><ele>188.75</ele><time>2026-04-09T09:55:27Z</time></trkpt><trkpt lat="42.4792530548134" lon="2.843453737630594"><ele>187.0</ele><time>2026-04-09T09:55:28Z</time></trkpt><trkpt lat="42.4791657368041" lon="2.843615305669917"><ele>187.0</ele><time>2026-04-09T09:55:29Z</time></trkpt><trkpt lat="42.479077210077854" lon="2.843779931131289"><ele>187.0</ele><time>2026-04-09T09:55:30Z</time></trkpt><trkpt lat="42.47899015634556" lon="2.843941611447942"><ele>187.0</ele><time>2026-04-09T09:55:31Z</time></trkpt><trkpt lat="42.478914509813634" lon="2.844108750817102"><ele>187.0</ele><time>2026-04-09T09:55:32Z</time></trkpt><trkpt lat="42.47885454855262" lon="2.84428938566933"><ele>190.75</ele><time>2026-04-09T09:55:33Z</time></trkpt><trkpt lat="42.47881235014636" lon="2.8444804077815586"><ele>194.5</ele><time>2026-04-09T09:55:34Z</time></trkpt><trkpt lat="42.47878426414096" lon="2.84467785658581"><ele>198.25</ele><time>2026-04-09T09:55:35Z</time></trkpt><trkpt lat="42.478776080263614" lon="2.844885657053503"><ele>202.0</ele><time>2026-04-09T09:55:36Z</time></trkpt><trkpt lat="42.478772629051456" lon="2.8450950297869837"><ele>203.5</ele><time>2026-04-09T09:55:37Z</time></trkpt><trkpt lat="42.47876853482851" lon="2.8453042537713653"><ele>205.0</ele><time>2026-04-09T09:55:38Z</time></trkpt><trkpt lat="42.4787604661991" lon="2.8455057964438937"><ele>206.5</ele><time>2026-04-09T09:55:39Z</time></trkpt><trkpt lat="42.47874652861277" lon="2.8456987637977553"><ele>208.0</ele><time>2026-04-09T09:55:40Z</time></trkpt><trkpt lat="42.47871474231809" lon="2.8458783106653063"><ele>206.5</ele><time>2026-04-09T09:55:41Z</time></trkpt><trkpt lat="42.478662538828324" lon="2.8460425614268767"><ele>205.0</ele><time>2026-04-09T09:55:42Z</time></trkpt><trkpt lat="42.478583807732925" lon="2.846191448913321"><ele>203.5</ele><time>2026-04-09T09:55:43Z</time></trkpt><trkpt lat="42.47848390682077" lon="2.846314315582902"><ele>202.0</ele><time>2026-04-09T09:55:44Z</time></trkpt><trkpt lat="42.47837035164527" lon="2.846410002188992"><ele>202.0</ele><time>2026-04-09T09:55:45Z</time></trkpt><trkpt lat="42.478248308277884" lon="2.8464682313175906"><ele>202.0</ele><time>2026-04-09T09:55:46Z</time></trkpt><trkpt lat="42.47811711408998" lon="2.8464830662973974"><ele>202.0</ele><time>2026-04-09T09:55:47Z</time></trkpt><trkpt lat="42.47798653522779" lon="2.8464667038394893"><ele>202.0</ele><time>2026-04-09T09:55:48Z</time></trkpt><trkpt lat="42.47785723229444" lon="2.8464179508268637"><ele>202.0</ele><time>2026-04-09T09:55:49Z</time></trkpt><trkpt lat="42.47773818620288" lon="2.8463305289504963"><ele>202.0</ele><time>2026-04-09T09:55:50Z</time></trkpt><trkpt lat="42.477627533942645" lon="2.8462208679528773"><ele>202.0</ele><time>2026-04-09T09:55:51Z</time></trkpt><trkpt lat="42.47751623236767" lon="2.8461190410829174"><ele>202.0</ele><time>2026-04-09T09:55:52Z</time></trkpt><trkpt lat="42.47739582261386" lon="2.846049618144683"><ele>202.0</ele><time>2026-04-09T09:55:53Z</time></trkpt><trkpt lat="42.47726485386373" lon="2.846008859679465"><ele>202.0</ele><time>2026-04-09T09:55:54Z</time></trkpt><trkpt lat="42.477129151606874" lon="2.8460057024565732"><ele>202.0</ele><time>2026-04-09T09:55:55Z</time></trkpt><trkpt lat="42.47699781145033" lon="2.846041871288954"><ele>202.0</ele><time>2026-04-09T09:55:56Z</time></trkpt><trkpt lat="42.476866492888625" lon="2.846091256741962"><ele>201.5</ele><time>2026-04-09T09:55:57Z</time></trkpt><trkpt lat="42.47673958432118" lon="2.8461663914904687"><ele>201.0</ele><time>2026-04-09T09:55:58Z</time></trkpt><trkpt lat="42.47662178653951" lon="2.846268154963852"><ele>200.5</ele><time>2026-04-09T09:55:59Z</time></trkpt><trkpt lat="42.476515026816536" lon="2.8463904956822983"><ele>200.0</ele><time>2026-04-09T09:56:00Z</time></trkpt><trkpt lat="42.476410195715665" lon="2.8465189588826076"><ele>200.0</ele><time>2026-04-09T09:56:01Z</time></trkpt><trkpt lat="42.47629591175851" lon="2.846634776212308"><ele>200.0</ele><time>2026-04-09T09:56:02Z</time></trkpt><trkpt lat="42.47617124999883" lon="2.846734110987917"><ele>200.0</ele><time>2026-04-09T09:56:03Z</time></trkpt><trkpt lat="42.476034581725244" lon="2.8468077469816677"><ele>200.0</ele><time>2026-04-09T09:56:04Z</time></trkpt><trkpt lat="42.475893477543444" lon="2.846868216709432"><ele>203.66666666666669</ele><time>2026-04-09T09:56:05Z</time></trkpt><trkpt lat="42.47575073999587" lon="2.8469319077036497"><ele>207.33333333333331</ele><time>2026-04-09T09:56:06Z</time></trkpt><trkpt lat="42.475606421888926" lon="2.846998891435346"><ele>211.0</ele><time>2026-04-09T09:56:07Z</time></trkpt><trkpt lat="42.47546126181961" lon="2.847068117069246"><ele>206.66666666666666</ele><time>2026-04-09T09:56:08Z</time></trkpt><trkpt lat="42.47531725260496" lon="2.8471405026814076"><ele>202.33333333333331</ele><time>2026-04-09T09:56:09Z</time></trkpt><trkpt lat="42.475176343950224" lon="2.8472097840091313"><ele>198.0</ele><time>2026-04-09T09:56:10Z</time></trkpt><trkpt lat="42.475039062178645" lon="2.8472787739514294"><ele>198.0</ele><time>2026-04-09T09:56:11Z</time></trkpt><trkpt lat="42.4749038764431" lon="2.8473456804335773"><ele>198.0</ele><time>2026-04-09T09:56:12Z</time></trkpt><trkpt lat="42.474770748794796" lon="2.847411339355376"><ele>198.0</ele><time>2026-04-09T09:56:13Z</time></trkpt><trkpt lat="42.47464070171663" lon="2.847484477324301"><ele>198.0</ele><time>2026-04-09T09:56:14Z</time></trkpt><trkpt lat="42.47451757873419" lon="2.8475702958954034"><ele>198.75</ele><time>2026-04-09T09:56:15Z</time></trkpt><trkpt lat="42.47440547276156" lon="2.847674808480454"><ele>199.5</ele><time>2026-04-09T09:56:16Z</time></trkpt><trkpt lat="42.47431406289759" lon="2.8478109074218"><ele>200.25</ele><time>2026-04-09T09:56:17Z</time></trkpt><trkpt lat="42.47424183791724" lon="2.8479643305839164"><ele>201.0</ele><time>2026-04-09T09:56:18Z</time></trkpt><trkpt lat="42.4741958163497" lon="2.8481320509227026"><ele>201.0</ele><time>2026-04-09T09:56:19Z</time></trkpt><trkpt lat="42.474181503030344" lon="2.848308955307513"><ele>201.0</ele><time>2026-04-09T09:56:20Z</time></trkpt><trkpt lat="42.47419055008818" lon="2.848490220212875"><ele>201.0</ele><time>2026-04-09T09:56:21Z</time></trkpt><trkpt lat="42.47421214821032" lon="2.8486691518177953"><ele>201.0</ele><time>2026-04-09T09:56:22Z</time></trkpt><trkpt lat="42.474246847637666" lon="2.8488475445429473"><ele>201.0</ele><time>2026-04-09T09:56:23Z</time></trkpt><trkpt lat="42.47427301450822" lon="2.8490317859464143"><ele>201.0</ele><time>2026-04-09T09:56:24Z</time></trkpt><trkpt lat="42.47427510168442" lon="2.8492187691105966"><ele>201.0</ele><time>2026-04-09T09:56:25Z</time></trkpt><trkpt lat="42.474249012703616" lon="2.849402828660512"><ele>201.0</ele><time>2026-04-09T09:56:26Z</time></trkpt><trkpt lat="42.474202829414956" lon="2.8495798720450067"><ele>201.0</ele><time>2026-04-09T09:56:27Z</time></trkpt><trkpt lat="42.47415826468057" lon="2.8497630118659316"><ele>201.0</ele><time>2026-04-09T09:56:28Z</time></trkpt><trkpt lat="42.47412316176708" lon="2.849951424996165"><ele>201.0</ele><time>2026-04-09T09:56:29Z</time></trkpt><trkpt lat="42.47409601850107" lon="2.8501466627165053"><ele>201.0</ele><time>2026-04-09T09:56:30Z</time></trkpt><trkpt lat="42.47407242041312" lon="2.850344088512055"><ele>203.0</ele><time>2026-04-09T09:56:31Z</time></trkpt><trkpt lat="42.47406074876998" lon="2.850545321713189"><ele>205.0</ele><time>2026-04-09T09:56:32Z</time></trkpt><trkpt lat="42.47404822866192" lon="2.8507496956645606"><ele>207.0</ele><time>2026-04-09T09:56:33Z</time></trkpt><trkpt lat="42.47403529349817" lon="2.85095629803928"><ele>210.0</ele><time>2026-04-09T09:56:34Z</time></trkpt><trkpt lat="42.474022027111694" lon="2.8511628182129907"><ele>213.0</ele><time>2026-04-09T09:56:35Z</time></trkpt><trkpt lat="42.47400662026565" lon="2.8513738018493453"><ele>216.0</ele><time>2026-04-09T09:56:36Z</time></trkpt><trkpt lat="42.47399285774974" lon="2.8515795113808036"><ele>216.0</ele><time>2026-04-09T09:56:37Z</time></trkpt><trkpt lat="42.473975690298694" lon="2.8517795858299544"><ele>216.0</ele><time>2026-04-09T09:56:38Z</time></trkpt><trkpt lat="42.47395651628958" lon="2.851968991216926"><ele>216.0</ele><time>2026-04-09T09:56:39Z</time></trkpt><trkpt lat="42.4739244874555" lon="2.852147111713489"><ele>216.0</ele><time>2026-04-09T09:56:40Z</time></trkpt><trkpt lat="42.47387551872605" lon="2.8523174043028683"><ele>214.75</ele><time>2026-04-09T09:56:41Z</time></trkpt><trkpt lat="42.473797823299094" lon="2.8524694889643722"><ele>213.5</ele><time>2026-04-09T09:56:42Z</time></trkpt><trkpt lat="42.47369695100023" lon="2.852593509140411"><ele>212.25</ele><time>2026-04-09T09:56:43Z</time></trkpt><trkpt lat="42.47358329903731" lon="2.852687629315397"><ele>211.0</ele><time>2026-04-09T09:56:44Z</time></trkpt><trkpt lat="42.47346200106772" lon="2.852750269514608"><ele>218.5</ele><time>2026-04-09T09:56:45Z</time></trkpt><trkpt lat="42.47334203164857" lon="2.8527902388338164"><ele>226.0</ele><time>2026-04-09T09:56:46Z</time></trkpt><trkpt lat="42.47321707157271" lon="2.8528032473966745"><ele>233.5</ele><time>2026-04-09T09:56:47Z</time></trkpt><trkpt lat="42.473086388167125" lon="2.852786492320535"><ele>241.0</ele><time>2026-04-09T09:56:48Z</time></trkpt><trkpt lat="42.47296253300445" lon="2.852732904939946"><ele>240.25</ele><time>2026-04-09T09:56:49Z</time></trkpt><trkpt lat="42.47284342947257" lon="2.852659585660464"><ele>239.5</ele><time>2026-04-09T09:56:50Z</time></trkpt><trkpt lat="42.472724039365914" lon="2.8525894054792778"><ele>238.75</ele><time>2026-04-09T09:56:51Z</time></trkpt><trkpt lat="42.47260163078981" lon="2.852529166575726"><ele>238.0</ele><time>2026-04-09T09:56:52Z</time></trkpt><trkpt lat="42.47247128447067" lon="2.852502228374943"><ele>233.25</ele><time>2026-04-09T09:56:53Z</time></trkpt><trkpt lat="42.47234334626551" lon="2.852499372647301"><ele>228.5</ele><time>2026-04-09T09:56:54Z</time></trkpt><trkpt lat="42.47221748749721" lon="2.852542613669739"><ele>223.75</ele><time>2026-04-09T09:56:55Z</time></trkpt><trkpt lat="42.47209999857704" lon="2.852616196307533"><ele>219.0</ele><time>2026-04-09T09:56:56Z</time></trkpt><trkpt lat="42.47199328169182" lon="2.8527128688027124"><ele>219.0</ele><time>2026-04-09T09:56:57Z</time></trkpt><trkpt lat="42.47190269278984" lon="2.8528314344922454"><ele>219.0</ele><time>2026-04-09T09:56:58Z</time></trkpt><trkpt lat="42.47183446300272" lon="2.8529725580498724"><ele>219.0</ele><time>2026-04-09T09:56:59Z</time></trkpt><trkpt lat="42.47178595992576" lon="2.8531248974073034"><ele>219.0</ele><time>2026-04-09T09:57:00Z</time></trkpt><trkpt lat="42.47176613637804" lon="2.8532863547802907"><ele>219.0</ele><time>2026-04-09T09:57:01Z</time></trkpt><trkpt lat="42.47176932549937" lon="2.8534472526921784"><ele>219.0</ele><time>2026-04-09T09:57:02Z</time></trkpt><trkpt lat="42.47179476673897" lon="2.853602706638748"><ele>219.0</ele><time>2026-04-09T09:57:03Z</time></trkpt><trkpt lat="42.47184007444326" lon="2.853753352989307"><ele>219.0</ele><time>2026-04-09T09:57:04Z</time></trkpt><trkpt lat="42.47190626359241" lon="2.853893261253914"><ele>218.0</ele><time>2026-04-09T09:57:05Z</time></trkpt><trkpt lat="42.471988951286036" lon="2.85401445292599"><ele>217.0</ele><time>2026-04-09T09:57:06Z</time></trkpt><trkpt lat="42.472090217431095" lon="2.854115100500951"><ele>216.0</ele><time>2026-04-09T09:57:07Z</time></trkpt><trkpt lat="42.47220367117241" lon="2.854189916422872"><ele>215.0</ele><time>2026-04-09T09:57:08Z</time></trkpt><trkpt lat="42.472324522683955" lon="2.854228081112142"><ele>215.0</ele><time>2026-04-09T09:57:09Z</time></trkpt><trkpt lat="42.472449008026516" lon="2.854252828070853"><ele>215.0</ele><time>2026-04-09T09:57:10Z</time></trkpt><trkpt lat="42.472577728969796" lon="2.854280897011888"><ele>215.0</ele><time>2026-04-09T09:57:11Z</time></trkpt><trkpt lat="42.4727040890765" lon="2.854314846528188"><ele>215.0</ele><time>2026-04-09T09:57:12Z</time></trkpt><trkpt lat="42.4728285543271" lon="2.8543608188952088"><ele>220.0</ele><time>2026-04-09T09:57:13Z</time></trkpt><trkpt lat="42.472940064021046" lon="2.8544480194300315"><ele>225.0</ele><time>2026-04-09T09:57:14Z</time></trkpt><trkpt lat="42.47304201658228" lon="2.8545541155510334"><ele>230.0</ele><time>2026-04-09T09:57:15Z</time></trkpt><trkpt lat="42.473130956498615" lon="2.854679459962999"><ele>235.0</ele><time>2026-04-09T09:57:16Z</time></trkpt><trkpt lat="42.47321137767449" lon="2.8548157014412507"><ele>235.0</ele><time>2026-04-09T09:57:17Z</time></trkpt><trkpt lat="42.47327841656332" lon="2.854963998482464"><ele>235.0</ele><time>2026-04-09T09:57:18Z</time></trkpt><trkpt lat="42.473327414530374" lon="2.855124770971406"><ele>235.0</ele><time>2026-04-09T09:57:19Z</time></trkpt><trkpt lat="42.47335613744521" lon="2.8552948470531057"><ele>235.0</ele><time>2026-04-09T09:57:20Z</time></trkpt><trkpt lat="42.47336994557594" lon="2.855471030964932"><ele>234.25</ele><time>2026-04-09T09:57:21Z</time></trkpt><trkpt lat="42.473369676704756" lon="2.855650561308199"><ele>233.5</ele><time>2026-04-09T09:57:22Z</time></trkpt><trkpt lat="42.4733671020983" lon="2.855832870054866"><ele>232.75</ele><time>2026-04-09T09:57:23Z</time></trkpt><trkpt lat="42.473363370850386" lon="2.8560128926680415"><ele>232.0</ele><time>2026-04-09T09:57:24Z</time></trkpt><trkpt lat="42.47335382782394" lon="2.856189626369943"><ele>233.75</ele><time>2026-04-09T09:57:25Z</time></trkpt><trkpt lat="42.47333093273892" lon="2.8563602164084205"><ele>235.5</ele><time>2026-04-09T09:57:26Z</time></trkpt><trkpt lat="42.47329116624979" lon="2.856524472334088"><ele>237.25</ele><time>2026-04-09T09:57:27Z</time></trkpt><trkpt lat="42.473228532458826" lon="2.856675700013162"><ele>239.0</ele><time>2026-04-09T09:57:28Z</time></trkpt><trkpt lat="42.473147031525386" lon="2.8568177964336288"><ele>241.75</ele><time>2026-04-09T09:57:29Z</time></trkpt><trkpt lat="42.473054197850324" lon="2.856938954443468"><ele>244.5</ele><time>2026-04-09T09:57:30Z</time></trkpt><trkpt lat="42.47295259264752" lon="2.8570483504850777"><ele>247.25</ele><time>2026-04-09T09:57:31Z</time></trkpt><trkpt lat="42.4728465360931" lon="2.8571538116743866"><ele>250.0</ele><time>2026-04-09T09:57:32Z</time></trkpt><trkpt lat="42.472740596888414" lon="2.857258086720915"><ele>250.0</ele><time>2026-04-09T09:57:33Z</time></trkpt><trkpt lat="42.47263322883564" lon="2.8573630694436956"><ele>250.0</ele><time>2026-04-09T09:57:34Z</time></trkpt><trkpt lat="42.47252428712204" lon="2.857466583511531"><ele>250.0</ele><time>2026-04-09T09:57:35Z</time></trkpt><trkpt lat="42.47241411826546" lon="2.857569214676525"><ele>250.0</ele><time>2026-04-09T09:57:36Z</time></trkpt><trkpt lat="42.47230236466636" lon="2.8576677746977803"><ele>249.25</ele><time>2026-04-09T09:57:37Z</time></trkpt><trkpt lat="42.47218659446528" lon="2.857759630574083"><ele>248.5</ele><time>2026-04-09T09:57:38Z</time></trkpt><trkpt lat="42.47206489948308" lon="2.8578368088084947"><ele>247.75</ele><time>2026-04-09T09:57:39Z</time></trkpt><trkpt lat="42.47193303168298" lon="2.8578854513807666"><ele>247.0</ele><time>2026-04-09T09:57:40Z</time></trkpt><trkpt lat="42.471798423699" lon="2.857897904070241"><ele>247.0</ele><time>2026-04-09T09:57:41Z</time></trkpt><trkpt lat="42.471664620729975" lon="2.8578763949186246"><ele>247.0</ele><time>2026-04-09T09:57:42Z</time></trkpt><trkpt lat="42.47153805288154" lon="2.8578064187936607"><ele>247.0</ele><time>2026-04-09T09:57:43Z</time></trkpt><trkpt lat="42.471418271610204" lon="2.8577167819387723"><ele>247.0</ele><time>2026-04-09T09:57:44Z</time></trkpt><trkpt lat="42.47129286895134" lon="2.857638673485166"><ele>244.25</ele><time>2026-04-09T09:57:45Z</time></trkpt><trkpt lat="42.471153675563876" lon="2.8576017648607217"><ele>241.5</ele><time>2026-04-09T09:57:46Z</time></trkpt><trkpt lat="42.47100939042305" lon="2.857606288950129"><ele>238.75</ele><time>2026-04-09T09:57:47Z</time></trkpt><trkpt lat="42.470863046828875" lon="2.857619686528935"><ele>236.0</ele><time>2026-04-09T09:57:48Z</time></trkpt><trkpt lat="42.470711961564234" lon="2.8576248721071265"><ele>235.0</ele><time>2026-04-09T09:57:49Z</time></trkpt><trkpt lat="42.470559600144696" lon="2.857629891592685"><ele>234.0</ele><time>2026-04-09T09:57:50Z</time></trkpt><trkpt lat="42.47040725057164" lon="2.8576322521134525"><ele>233.0</ele><time>2026-04-09T09:57:51Z</time></trkpt><trkpt lat="42.47025668132551" lon="2.8576370821574066"><ele>232.75</ele><time>2026-04-09T09:57:52Z</time></trkpt><trkpt lat="42.47010656298697" lon="2.857642342752004"><ele>232.5</ele><time>2026-04-09T09:57:53Z</time></trkpt><trkpt lat="42.4699585926105" lon="2.8576563132801094"><ele>232.25</ele><time>2026-04-09T09:57:54Z</time></trkpt><trkpt lat="42.469811159506115" lon="2.8576810681184006"><ele>232.0</ele><time>2026-04-09T09:57:55Z</time></trkpt><trkpt lat="42.469665583690286" lon="2.8577232656431746"><ele>236.5</ele><time>2026-04-09T09:57:56Z</time></trkpt><trkpt lat="42.469523975688446" lon="2.8577856516995723"><ele>241.0</ele><time>2026-04-09T09:57:57Z</time></trkpt><trkpt lat="42.46938722477756" lon="2.857866747519808"><ele>245.5</ele><time>2026-04-09T09:57:58Z</time></trkpt><trkpt lat="42.4692576808368" lon="2.8579650508112215"><ele>250.0</ele><time>2026-04-09T09:57:59Z</time></trkpt><trkpt lat="42.469137099535146" lon="2.858079130991178"><ele>250.0</ele><time>2026-04-09T09:58:00Z</time></trkpt><trkpt lat="42.46902650076726" lon="2.8582098676778633"><ele>250.0</ele><time>2026-04-09T09:58:01Z</time></trkpt><trkpt lat="42.468926364070455" lon="2.8583507905765835"><ele>250.0</ele><time>2026-04-09T09:58:02Z</time></trkpt><trkpt lat="42.468838807286794" lon="2.8585040474708117"><ele>250.0</ele><time>2026-04-09T09:58:03Z</time></trkpt><trkpt lat="42.468762263490575" lon="2.8586659458265244"><ele>256.0</ele><time>2026-04-09T09:58:04Z</time></trkpt><trkpt lat="42.46869620930031" lon="2.8588347670020657"><ele>262.0</ele><time>2026-04-09T09:58:05Z</time></trkpt><trkpt lat="42.46863919389224" lon="2.859006474106367"><ele>268.0</ele><time>2026-04-09T09:58:06Z</time></trkpt><trkpt lat="42.46860111549597" lon="2.859185925098966"><ele>274.0</ele><time>2026-04-09T09:58:07Z</time></trkpt><trkpt lat="42.46858295636632" lon="2.859369929998972"><ele>274.0</ele><time>2026-04-09T09:58:08Z</time></trkpt><trkpt lat="42.46857590587957" lon="2.8595514428749658"><ele>274.0</ele><time>2026-04-09T09:58:09Z</time></trkpt><trkpt lat="42.468571009733324" lon="2.85973360990808"><ele>274.0</ele><time>2026-04-09T09:58:10Z</time></trkpt><trkpt lat="42.46856488597361" lon="2.859915540650672"><ele>274.0</ele><time>2026-04-09T09:58:11Z</time></trkpt><trkpt lat="42.46855452288281" lon="2.860095581521532"><ele>272.0</ele><time>2026-04-09T09:58:12Z</time></trkpt><trkpt lat="42.46853222909068" lon="2.8602697262208583"><ele>270.0</ele><time>2026-04-09T09:58:13Z</time></trkpt><trkpt lat="42.46849845538357" lon="2.86043504622006"><ele>268.0</ele><time>2026-04-09T09:58:14Z</time></trkpt><trkpt lat="42.468458331045724" lon="2.860597106035554"><ele>266.0</ele><time>2026-04-09T09:58:15Z</time></trkpt><trkpt lat="42.468406155862034" lon="2.8607520974412504"><ele>266.0</ele><time>2026-04-09T09:58:16Z</time></trkpt><trkpt lat="42.46834247606868" lon="2.8608957379202766"><ele>266.0</ele><time>2026-04-09T09:58:17Z</time></trkpt><trkpt lat="42.46826715216803" lon="2.861028125314641"><ele>266.0</ele><time>2026-04-09T09:58:18Z</time></trkpt><trkpt lat="42.46818169667661" lon="2.8611472761541723"><ele>266.0</ele><time>2026-04-09T09:58:19Z</time></trkpt><trkpt lat="42.468085869252945" lon="2.861250551441329"><ele>269.5</ele><time>2026-04-09T09:58:20Z</time></trkpt><trkpt lat="42.46798460362953" lon="2.8613456507825723"><ele>273.0</ele><time>2026-04-09T09:58:21Z</time></trkpt><trkpt lat="42.46787905956065" lon="2.8614339178221635"><ele>276.5</ele><time>2026-04-09T09:58:22Z</time></trkpt><trkpt lat="42.46777767683764" lon="2.8615274294967104"><ele>280.0</ele><time>2026-04-09T09:58:23Z</time></trkpt><trkpt lat="42.46768307521267" lon="2.8616272490320287"><ele>280.0</ele><time>2026-04-09T09:58:24Z</time></trkpt><trkpt lat="42.46759756224084" lon="2.861737635727392"><ele>280.0</ele><time>2026-04-09T09:58:25Z</time></trkpt><trkpt lat="42.46752254751584" lon="2.8618533438341074"><ele>280.0</ele><time>2026-04-09T09:58:26Z</time></trkpt><trkpt lat="42.46745012094157" lon="2.861966372245768"><ele>280.0</ele><time>2026-04-09T09:58:27Z</time></trkpt><trkpt lat="42.46737731841653" lon="2.862069809921053"><ele>280.0</ele><time>2026-04-09T09:58:28Z</time></trkpt><trkpt lat="42.46729989082994" lon="2.86216130565334"><ele>280.2</ele><time>2026-04-09T09:58:29Z</time></trkpt><trkpt lat="42.467215173126476" lon="2.8622432153784447"><ele>280.4</ele><time>2026-04-09T09:58:30Z</time></trkpt><trkpt lat="42.46713024460297" lon="2.8623102949896233"><ele>280.6</ele><time>2026-04-09T09:58:31Z</time></trkpt><trkpt lat="42.467038518883406" lon="2.8623598987746943"><ele>280.8</ele><time>2026-04-09T09:58:32Z</time></trkpt><trkpt lat="42.46694582302864" lon="2.8624029459692"><ele>281.0</ele><time>2026-04-09T09:58:33Z</time></trkpt><trkpt lat="42.46684933370908" lon="2.8624360433775595"><ele>281.0</ele><time>2026-04-09T09:58:34Z</time></trkpt><trkpt lat="42.466756895758415" lon="2.8624753626623463"><ele>281.0</ele><time>2026-04-09T09:58:35Z</time></trkpt><trkpt lat="42.46666597563803" lon="2.8625126317682152"><ele>281.0</ele><time>2026-04-09T09:58:36Z</time></trkpt><trkpt lat="42.466574854416464" lon="2.862554958603978"><ele>281.0</ele><time>2026-04-09T09:58:37Z</time></trkpt><trkpt lat="42.46649012238666" lon="2.8626018939650657"><ele>281.0</ele><time>2026-04-09T09:58:38Z</time></trkpt><trkpt lat="42.46641396149329" lon="2.862654501670017"><ele>280.6666666666667</ele><time>2026-04-09T09:58:39Z</time></trkpt><trkpt lat="42.466342234056185" lon="2.862711717663307"><ele>280.33333333333337</ele><time>2026-04-09T09:58:40Z</time></trkpt><trkpt lat="42.46627289175342" lon="2.8627784852166918"><ele>280.0</ele><time>2026-04-09T09:58:41Z</time></trkpt><trkpt lat="42.46620622822966" lon="2.862843663584422"><ele>279.6666666666667</ele><time>2026-04-09T09:58:42Z</time></trkpt><trkpt lat="42.46614103549476" lon="2.862907726347387"><ele>279.3333333333333</ele><time>2026-04-09T09:58:43Z</time></trkpt><trkpt lat="42.46607616279218" lon="2.8629646972515204"><ele>279.0</ele><time>2026-04-09T09:58:44Z</time></trkpt><trkpt lat="42.46600822560445" lon="2.8630158142254043"><ele>280.1666666666667</ele><time>2026-04-09T09:58:45Z</time></trkpt><trkpt lat="42.46594058192707" lon="2.8630667241974703"><ele>281.3333333333333</ele><time>2026-04-09T09:58:46Z</time></trkpt><trkpt lat="42.465872853488676" lon="2.8631101785126103"><ele>282.5</ele><time>2026-04-09T09:58:47Z</time></trkpt><trkpt lat="42.46580842866851" lon="2.863145102213701"><ele>283.66666666666663</ele><time>2026-04-09T09:58:48Z</time></trkpt><trkpt lat="42.4657474822739" lon="2.863179920744609"><ele>284.8333333333333</ele><time>2026-04-09T09:58:49Z</time></trkpt><trkpt lat="42.465654122098314" lon="2.8632113681481135"><ele>286.0</ele><time>2026-04-09T09:58:51Z</time></trkpt><trkpt lat="42.465581183647174" lon="2.863207340147665"><ele>286.0</ele><time>2026-04-09T09:58:55Z</time></trkpt><trkpt lat="42.465508559479595" lon="2.8632088594322704"><ele>286.0</ele><time>2026-04-09T09:58:59Z</time></trkpt><trkpt lat="42.46543046686044" lon="2.863200683842364"><ele>286.0</ele><time>2026-04-09T09:59:10Z</time></trkpt><trkpt lat="42.46536573128118" lon="2.863197216138041"><ele>286.0</ele><time>2026-04-09T09:59:13Z</time></trkpt><trkpt lat="42.465299417714256" lon="2.863189800100834"><ele>286.0</ele><time>2026-04-09T09:59:18Z</time></trkpt><trkpt lat="42.46521599927689" lon="2.863185474517915"><ele>286.0</ele><time>2026-04-09T09:59:22Z</time></trkpt><trkpt lat="42.46512367414466" lon="2.863183806511332"><ele>286.0</ele><time>2026-04-09T09:59:25Z</time></trkpt><trkpt lat="42.465052306190245" lon="2.8631811311161166"><ele>286.0</ele><time>2026-04-09T09:59:27Z</time></trkpt><trkpt lat="42.46496150448405" lon="2.863173621869073"><ele>286.0</ele><time>2026-04-09T09:59:30Z</time></trkpt><trkpt lat="42.46489131895829" lon="2.863161712414852"><ele>286.0</ele><time>2026-04-09T09:59:32Z</time></trkpt><trkpt lat="42.464815342276054" lon="2.863146197753646"><ele>286.0</ele><time>2026-04-09T09:59:34Z</time></trkpt><trkpt lat="42.46474332189325" lon="2.8631370315943103"><ele>286.0</ele><time>2026-04-09T09:59:37Z</time></trkpt><trkpt lat="42.46467331652503" lon="2.863146334477868"><ele>285.3333333333333</ele><time>2026-04-09T09:59:43Z</time></trkpt><trkpt lat="42.464603648072526" lon="2.863131276240794"><ele>284.66666666666663</ele><time>2026-04-09T09:59:47Z</time></trkpt><trkpt lat="42.46452088510431" lon="2.863117260092964"><ele>284.0</ele><time>2026-04-09T09:59:50Z</time></trkpt><trkpt lat="42.464438144099724" lon="2.8630989547152557"><ele>283.3333333333333</ele><time>2026-04-09T09:59:53Z</time></trkpt><trkpt lat="42.464364158522734" lon="2.86311490039214"><ele>282.6666666666667</ele><time>2026-04-09T09:59:56Z</time></trkpt><trkpt lat="42.46428531443754" lon="2.863110016354005"><ele>282.0</ele><time>2026-04-09T09:59:59Z</time></trkpt><trkpt lat="42.4641999503393" lon="2.8631258037012466"><ele>282.0</ele><time>2026-04-09T10:00:02Z</time></trkpt><trkpt lat="42.46412488976646" lon="2.8631461166076773"><ele>282.0</ele><time>2026-04-09T10:00:05Z</time></trkpt><trkpt lat="42.464062020548276" lon="2.8631620474268686"><ele>282.0</ele><time>2026-04-09T10:00:08Z</time></trkpt><trkpt lat="42.463980152817335" lon="2.863184090879503"><ele>282.0</ele><time>2026-04-09T10:00:11Z</time></trkpt><trkpt lat="42.463902728716086" lon="2.863201136511897"><ele>282.0</ele><time>2026-04-09T10:00:13Z</time></trkpt><trkpt lat="42.46382408845669" lon="2.8632328135513623"><ele>282.0</ele><time>2026-04-09T10:00:15Z</time></trkpt><trkpt lat="42.463729059288134" lon="2.863267649298203"><ele>281.3333333333333</ele><time>2026-04-09T10:00:17Z</time></trkpt><trkpt lat="42.46364105887171" lon="2.8632874449297305"><ele>280.6666666666667</ele><time>2026-04-09T10:00:19Z</time></trkpt><trkpt lat="42.463578105718895" lon="2.8633062803005456"><ele>280.0</ele><time>2026-04-09T10:00:21Z</time></trkpt><trkpt lat="42.46350979268732" lon="2.8633276059154884"><ele>279.33333333333337</ele><time>2026-04-09T10:00:23Z</time></trkpt><trkpt lat="42.46342553306632" lon="2.8633550160347423"><ele>278.6666666666667</ele><time>2026-04-09T10:00:26Z</time></trkpt><trkpt lat="42.46336313376136" lon="2.863378113257717"><ele>278.0</ele><time>2026-04-09T10:00:28Z</time></trkpt><trkpt lat="42.46328768016952" lon="2.863400206255166"><ele>278.0</ele><time>2026-04-09T10:00:30Z</time></trkpt><trkpt lat="42.463202166879654" lon="2.8634195326004046"><ele>278.0</ele><time>2026-04-09T10:00:32Z</time></trkpt><trkpt lat="42.46310894142883" lon="2.863442693084874"><ele>278.0</ele><time>2026-04-09T10:00:34Z</time></trkpt><trkpt lat="42.4630234562335" lon="2.8634696053526967"><ele>278.0</ele><time>2026-04-09T10:00:36Z</time></trkpt><trkpt lat="42.46293236778424" lon="2.863495531451235"><ele>278.0</ele><time>2026-04-09T10:00:38Z</time></trkpt><trkpt lat="42.46283919902895" lon="2.863526316299829"><ele>277.1666666666667</ele><time>2026-04-09T10:00:40Z</time></trkpt><trkpt lat="42.46275879137037" lon="2.8635544768264762"><ele>276.33333333333337</ele><time>2026-04-09T10:00:43Z</time></trkpt><trkpt lat="42.46267027048662" lon="2.8635719110007054"><ele>275.5</ele><time>2026-04-09T10:00:46Z</time></trkpt><trkpt lat="42.46257610303509" lon="2.8636085855163445"><ele>274.6666666666667</ele><time>2026-04-09T10:00:49Z</time></trkpt><trkpt lat="42.46250730468797" lon="2.8636292613523797"><ele>273.8333333333333</ele><time>2026-04-09T10:00:51Z</time></trkpt><trkpt lat="42.46244045591063" lon="2.863652638189489"><ele>273.0</ele><time>2026-04-09T10:00:54Z</time></trkpt><trkpt lat="42.4623642014298" lon="2.863692617343723"><ele>273.0</ele><time>2026-04-09T10:00:57Z</time></trkpt><trkpt lat="42.46229219411786" lon="2.8637164259418815"><ele>273.0</ele><time>2026-04-09T10:00:59Z</time></trkpt><trkpt lat="42.462191358322706" lon="2.863736024228009"><ele>273.0</ele><time>2026-04-09T10:01:01Z</time></trkpt><trkpt lat="42.462072712775544" lon="2.8637547292021495"><ele>273.0</ele><time>2026-04-09T10:01:03Z</time></trkpt><trkpt lat="42.46200672386068" lon="2.86377420215605"><ele>273.0</ele><time>2026-04-09T10:01:04Z</time></trkpt><trkpt lat="42.461941321931356" lon="2.863793166137948"><ele>273.0</ele><time>2026-04-09T10:01:05Z</time></trkpt><trkpt lat="42.461869861904255" lon="2.863813882578269"><ele>272.1666666666667</ele><time>2026-04-09T10:01:06Z</time></trkpt><trkpt lat="42.461805303855414" lon="2.8638336793971577"><ele>271.3333333333333</ele><time>2026-04-09T10:01:07Z</time></trkpt><trkpt lat="42.46169526633969" lon="2.863868036441087"><ele>270.5</ele><time>2026-04-09T10:01:09Z</time></trkpt><trkpt lat="42.46163005104473" lon="2.863882013944546"><ele>269.66666666666663</ele><time>2026-04-09T10:01:11Z</time></trkpt><trkpt lat="42.46155216137445" lon="2.8638993088038345"><ele>268.8333333333333</ele><time>2026-04-09T10:01:14Z</time></trkpt><trkpt lat="42.4614803142468" lon="2.8639158545371295"><ele>268.0</ele><time>2026-04-09T10:01:22Z</time></trkpt><trkpt lat="42.461388559853035" lon="2.8639426412959232"><ele>268.0</ele><time>2026-04-09T10:01:25Z</time></trkpt><trkpt lat="42.4613086493997" lon="2.8639625271938174"><ele>268.0</ele><time>2026-04-09T10:01:27Z</time></trkpt><trkpt lat="42.46121252300422" lon="2.863985829187333"><ele>268.0</ele><time>2026-04-09T10:01:29Z</time></trkpt><trkpt lat="42.461100524252814" lon="2.8640168646543773"><ele>268.0</ele><time>2026-04-09T10:01:31Z</time></trkpt><trkpt lat="42.46103535009417" lon="2.8640294848171854"><ele>268.0</ele><time>2026-04-09T10:01:32Z</time></trkpt><trkpt lat="42.46096591227871" lon="2.864042090238225"><ele>268.0</ele><time>2026-04-09T10:01:33Z</time></trkpt><trkpt lat="42.4608890779582" lon="2.864052630767346"><ele>266.8333333333333</ele><time>2026-04-09T10:01:34Z</time></trkpt><trkpt lat="42.46080563707741" lon="2.8640615443847235"><ele>265.66666666666663</ele><time>2026-04-09T10:01:35Z</time></trkpt><trkpt lat="42.46071679100874" lon="2.864063026244579"><ele>264.5</ele><time>2026-04-09T10:01:36Z</time></trkpt><trkpt lat="42.46063351202602" lon="2.864061077869933"><ele>263.3333333333333</ele><time>2026-04-09T10:01:37Z</time></trkpt><trkpt lat="42.460551973595685" lon="2.864055293226262"><ele>262.1666666666667</ele><time>2026-04-09T10:01:38Z</time></trkpt><trkpt lat="42.460462352687486" lon="2.8640431758043614"><ele>261.0</ele><time>2026-04-09T10:01:39Z</time></trkpt><trkpt lat="42.46036889712231" lon="2.8640244002676134"><ele>259.5</ele><time>2026-04-09T10:01:40Z</time></trkpt><trkpt lat="42.460279413572245" lon="2.864010255287209"><ele>258.0</ele><time>2026-04-09T10:01:41Z</time></trkpt><trkpt lat="42.46019375684508" lon="2.864000528503425"><ele>256.5</ele><time>2026-04-09T10:01:42Z</time></trkpt><trkpt lat="42.460110652913286" lon="2.8639939107597954"><ele>255.0</ele><time>2026-04-09T10:01:43Z</time></trkpt><trkpt lat="42.46002372315626" lon="2.863989598613063"><ele>253.5</ele><time>2026-04-09T10:01:44Z</time></trkpt><trkpt lat="42.45993403689756" lon="2.863989155277637"><ele>252.0</ele><time>2026-04-09T10:01:45Z</time></trkpt><trkpt lat="42.45984251884062" lon="2.8639917508498676"><ele>252.0</ele><time>2026-04-09T10:01:46Z</time></trkpt><trkpt lat="42.45974883916727" lon="2.8639989769674212"><ele>252.0</ele><time>2026-04-09T10:01:47Z</time></trkpt><trkpt lat="42.459651295420386" lon="2.8640062004177427"><ele>252.0</ele><time>2026-04-09T10:01:48Z</time></trkpt><trkpt lat="42.45955670532554" lon="2.864015096466256"><ele>252.0</ele><time>2026-04-09T10:01:49Z</time></trkpt><trkpt lat="42.45946657083418" lon="2.8640234751054003"><ele>252.0</ele><time>2026-04-09T10:01:50Z</time></trkpt><trkpt lat="42.45938106192224" lon="2.8640274778115735"><ele>251.66666666666666</ele><time>2026-04-09T10:01:51Z</time></trkpt><trkpt lat="42.45930133982919" lon="2.8640284063510686"><ele>251.33333333333331</ele><time>2026-04-09T10:01:52Z</time></trkpt><trkpt lat="42.459214022506046" lon="2.864030424826346"><ele>251.0</ele><time>2026-04-09T10:01:53Z</time></trkpt><trkpt lat="42.459127997242554" lon="2.864044601827705"><ele>250.66666666666666</ele><time>2026-04-09T10:01:54Z</time></trkpt><trkpt lat="42.45904143154681" lon="2.8640635257378917"><ele>250.33333333333331</ele><time>2026-04-09T10:01:55Z</time></trkpt><trkpt lat="42.458950754465114" lon="2.8640914620346996"><ele>250.0</ele><time>2026-04-09T10:01:56Z</time></trkpt><trkpt lat="42.45885785783847" lon="2.864121997022905"><ele>249.25</ele><time>2026-04-09T10:01:57Z</time></trkpt><trkpt lat="42.458763731847114" lon="2.864183314336827"><ele>248.5</ele><time>2026-04-09T10:01:58Z</time></trkpt><trkpt lat="42.458662725871534" lon="2.8642340016520933"><ele>247.75</ele><time>2026-04-09T10:01:59Z</time></trkpt><trkpt lat="42.45855544813041" lon="2.8642946887857947"><ele>247.0</ele><time>2026-04-09T10:02:00Z</time></trkpt><trkpt lat="42.45844530165868" lon="2.8643632458930024"><ele>250.25</ele><time>2026-04-09T10:02:01Z</time></trkpt><trkpt lat="42.458332757927856" lon="2.864432439908828"><ele>253.5</ele><time>2026-04-09T10:02:02Z</time></trkpt><trkpt lat="42.45821631831614" lon="2.864501007510016"><ele>256.75</ele><time>2026-04-09T10:02:03Z</time></trkpt><trkpt lat="42.45809178830349" lon="2.8645583531651617"><ele>260.0</ele><time>2026-04-09T10:02:04Z</time></trkpt><trkpt lat="42.45795549463618" lon="2.8646037407516394"><ele>255.66666666666669</ele><time>2026-04-09T10:02:05Z</time></trkpt><trkpt lat="42.45781149524161" lon="2.8646385467761855"><ele>251.33333333333331</ele><time>2026-04-09T10:02:06Z</time></trkpt><trkpt lat="42.4576577142603" lon="2.864676038524718"><ele>247.0</ele><time>2026-04-09T10:02:07Z</time></trkpt><trkpt lat="42.45749888381311" lon="2.8647122215744285"><ele>247.0</ele><time>2026-04-09T10:02:08Z</time></trkpt><trkpt lat="42.457340470598794" lon="2.864753877423932"><ele>247.0</ele><time>2026-04-09T10:02:09Z</time></trkpt><trkpt lat="42.457176895449834" lon="2.8647953111789266"><ele>247.0</ele><time>2026-04-09T10:02:10Z</time></trkpt><trkpt lat="42.457010639724494" lon="2.864838064407276"><ele>243.33333333333331</ele><time>2026-04-09T10:02:11Z</time></trkpt><trkpt lat="42.45684175641506" lon="2.8648819653710316"><ele>239.66666666666669</ele><time>2026-04-09T10:02:12Z</time></trkpt><trkpt lat="42.456670316403255" lon="2.8649212135291293"><ele>236.0</ele><time>2026-04-09T10:02:13Z</time></trkpt><trkpt lat="42.45649986990091" lon="2.8649542452892818"><ele>236.0</ele><time>2026-04-09T10:02:14Z</time></trkpt><trkpt lat="42.4563256874104" lon="2.864969880119914"><ele>236.0</ele><time>2026-04-09T10:02:15Z</time></trkpt><trkpt lat="42.45614427637763" lon="2.8649747367639176"><ele>236.0</ele><time>2026-04-09T10:02:16Z</time></trkpt><trkpt lat="42.45596053497703" lon="2.864977343293129"><ele>234.0</ele><time>2026-04-09T10:02:17Z</time></trkpt><trkpt lat="42.45577647798316" lon="2.8649811524414615"><ele>232.0</ele><time>2026-04-09T10:02:18Z</time></trkpt><trkpt lat="42.455594273889425" lon="2.864985439590942"><ele>230.0</ele><time>2026-04-09T10:02:19Z</time></trkpt><trkpt lat="42.455411754052086" lon="2.864989151139584"><ele>229.66666666666669</ele><time>2026-04-09T10:02:20Z</time></trkpt><trkpt lat="42.45522477311647" lon="2.8649914919040467"><ele>229.33333333333331</ele><time>2026-04-09T10:02:21Z</time></trkpt><trkpt lat="42.455041422949364" lon="2.864994534025931"><ele>229.0</ele><time>2026-04-09T10:02:22Z</time></trkpt><trkpt lat="42.454860104768194" lon="2.8649972488863833"><ele>229.0</ele><time>2026-04-09T10:02:23Z</time></trkpt><trkpt lat="42.454683941039775" lon="2.8650002540657726"><ele>229.0</ele><time>2026-04-09T10:02:24Z</time></trkpt><trkpt lat="42.45450485837852" lon="2.86500243603403"><ele>229.0</ele><time>2026-04-09T10:02:25Z</time></trkpt><trkpt lat="42.4543243746111" lon="2.8650050168275616"><ele>229.0</ele><time>2026-04-09T10:02:26Z</time></trkpt><trkpt lat="42.45413998062563" lon="2.8650082092420863"><ele>229.0</ele><time>2026-04-09T10:02:27Z</time></trkpt><trkpt lat="42.453957692880216" lon="2.865010034565496"><ele>229.0</ele><time>2026-04-09T10:02:28Z</time></trkpt><trkpt lat="42.45377790192415" lon="2.86501087679206"><ele>229.0</ele><time>2026-04-09T10:02:29Z</time></trkpt><trkpt lat="42.45360171024679" lon="2.865017865159489"><ele>229.0</ele><time>2026-04-09T10:02:30Z</time></trkpt><trkpt lat="42.45342744784607" lon="2.865046477756966"><ele>229.0</ele><time>2026-04-09T10:02:31Z</time></trkpt><trkpt lat="42.45325927009186" lon="2.865097800271287"><ele>224.33333333333331</ele><time>2026-04-09T10:02:32Z</time></trkpt><trkpt lat="42.453097607977675" lon="2.865170488626243"><ele>219.66666666666669</ele><time>2026-04-09T10:02:33Z</time></trkpt><trkpt lat="42.45294285913055" lon="2.8652586907099202"><ele>215.0</ele><time>2026-04-09T10:02:34Z</time></trkpt><trkpt lat="42.452793840749464" lon="2.8653641275744315"><ele>215.0</ele><time>2026-04-09T10:02:35Z</time></trkpt><trkpt lat="42.45265469982802" lon="2.8654872555394264"><ele>215.0</ele><time>2026-04-09T10:02:36Z</time></trkpt><trkpt lat="42.45252565550319" lon="2.8656283311502504"><ele>215.0</ele><time>2026-04-09T10:02:37Z</time></trkpt><trkpt lat="42.45240894579504" lon="2.8657864529944677"><ele>212.0</ele><time>2026-04-09T10:02:38Z</time></trkpt><trkpt lat="42.45228996739152" lon="2.865947828427652"><ele>209.0</ele><time>2026-04-09T10:02:39Z</time></trkpt><trkpt lat="42.4521621246643" lon="2.8660926209382667"><ele>206.0</ele><time>2026-04-09T10:02:40Z</time></trkpt><trkpt lat="42.45202079219784" lon="2.866215551350148"><ele>206.0</ele><time>2026-04-09T10:02:41Z</time></trkpt><trkpt lat="42.45187213588122" lon="2.8663161037266476"><ele>206.0</ele><time>2026-04-09T10:02:42Z</time></trkpt><trkpt lat="42.45171544402879" lon="2.866395383794957"><ele>206.0</ele><time>2026-04-09T10:02:43Z</time></trkpt><trkpt lat="42.451553087603045" lon="2.8664541133172268"><ele>206.0</ele><time>2026-04-09T10:02:44Z</time></trkpt><trkpt lat="42.45138790712109" lon="2.866488175590164"><ele>206.0</ele><time>2026-04-09T10:02:45Z</time></trkpt><trkpt lat="42.45122103214048" lon="2.8665079459205858"><ele>206.0</ele><time>2026-04-09T10:02:46Z</time></trkpt><trkpt lat="42.45105045681927" lon="2.866510961807029"><ele>205.33333333333334</ele><time>2026-04-09T10:02:47Z</time></trkpt><trkpt lat="42.45087476142009" lon="2.8664958322123173"><ele>204.66666666666669</ele><time>2026-04-09T10:02:48Z</time></trkpt><trkpt lat="42.45070007945762" lon="2.866457885134424"><ele>204.0</ele><time>2026-04-09T10:02:49Z</time></trkpt><trkpt lat="42.45052613672631" lon="2.866390824219234"><ele>202.0</ele><time>2026-04-09T10:02:50Z</time></trkpt><trkpt lat="42.45035534304413" lon="2.866303355208195"><ele>200.0</ele><time>2026-04-09T10:02:51Z</time></trkpt><trkpt lat="42.450185787864385" lon="2.8662095816105433"><ele>198.0</ele><time>2026-04-09T10:02:52Z</time></trkpt><trkpt lat="42.45001575816971" lon="2.8661221041049503"><ele>198.0</ele><time>2026-04-09T10:02:53Z</time></trkpt><trkpt lat="42.449841516298" lon="2.866048790705789"><ele>198.0</ele><time>2026-04-09T10:02:54Z</time></trkpt><trkpt lat="42.449664535502606" lon="2.865986594613557"><ele>198.0</ele><time>2026-04-09T10:02:55Z</time></trkpt><trkpt lat="42.44948026974755" lon="2.865934130465025"><ele>197.33333333333331</ele><time>2026-04-09T10:02:56Z</time></trkpt><trkpt lat="42.4492941724214" lon="2.8658889412186856"><ele>196.66666666666666</ele><time>2026-04-09T10:02:57Z</time></trkpt><trkpt lat="42.449107860825386" lon="2.86585271743356"><ele>196.0</ele><time>2026-04-09T10:02:58Z</time></trkpt><trkpt lat="42.44892065785163" lon="2.865822302549121"><ele>195.66666666666666</ele><time>2026-04-09T10:02:59Z</time></trkpt><trkpt lat="42.448731991272496" lon="2.8658057054430284"><ele>195.33333333333331</ele><time>2026-04-09T10:03:00Z</time></trkpt><trkpt lat="42.44854454731169" lon="2.86579899395614"><ele>195.0</ele><time>2026-04-09T10:03:01Z</time></trkpt><trkpt lat="42.44835432631119" lon="2.865803115451838"><ele>195.0</ele><time>2026-04-09T10:03:02Z</time></trkpt><trkpt lat="42.44816483313658" lon="2.8658187287936183"><ele>195.0</ele><time>2026-04-09T10:03:03Z</time></trkpt><trkpt lat="42.4479752312205" lon="2.8658451197130703"><ele>195.0</ele><time>2026-04-09T10:03:04Z</time></trkpt><trkpt lat="42.44778484190485" lon="2.865882563416694"><ele>193.66666666666666</ele><time>2026-04-09T10:03:05Z</time></trkpt><trkpt lat="42.447594166819655" lon="2.8659307021370415"><ele>192.33333333333331</ele><time>2026-04-09T10:03:06Z</time></trkpt><trkpt lat="42.44740273278001" lon="2.865988718577256"><ele>191.0</ele><time>2026-04-09T10:03:07Z</time></trkpt><trkpt lat="42.44721094412322" lon="2.866062126753934"><ele>192.33333333333331</ele><time>2026-04-09T10:03:08Z</time></trkpt><trkpt lat="42.447023532749014" lon="2.866151532486956"><ele>193.66666666666666</ele><time>2026-04-09T10:03:09Z</time></trkpt><trkpt lat="42.44683800814609" lon="2.8662493926508312"><ele>195.0</ele><time>2026-04-09T10:03:10Z</time></trkpt><trkpt lat="42.44664914766952" lon="2.8663480325605506"><ele>195.0</ele><time>2026-04-09T10:03:11Z</time></trkpt><trkpt lat="42.44646309723097" lon="2.866442115572857"><ele>195.0</ele><time>2026-04-09T10:03:12Z</time></trkpt><trkpt lat="42.44627913241897" lon="2.866535248173538"><ele>195.0</ele><time>2026-04-09T10:03:13Z</time></trkpt><trkpt lat="42.44609734767547" lon="2.8666272115486686"><ele>194.66666666666669</ele><time>2026-04-09T10:03:14Z</time></trkpt><trkpt lat="42.44591426308468" lon="2.8667171187601177"><ele>194.33333333333334</ele><time>2026-04-09T10:03:15Z</time></trkpt><trkpt lat="42.445727428720495" lon="2.8667975202596825"><ele>194.0</ele><time>2026-04-09T10:03:16Z</time></trkpt><trkpt lat="42.445536116082465" lon="2.8668604361126024"><ele>192.0</ele><time>2026-04-09T10:03:17Z</time></trkpt><trkpt lat="42.4453437360178" lon="2.8669019069222568"><ele>190.0</ele><time>2026-04-09T10:03:18Z</time></trkpt><trkpt lat="42.44514629836794" lon="2.866922879766618"><ele>188.0</ele><time>2026-04-09T10:03:19Z</time></trkpt><trkpt lat="42.44494896345319" lon="2.8669240563705145"><ele>188.0</ele><time>2026-04-09T10:03:20Z</time></trkpt><trkpt lat="42.44474980847011" lon="2.8669059669424533"><ele>188.0</ele><time>2026-04-09T10:03:21Z</time></trkpt><trkpt lat="42.4445518862107" lon="2.866871759228045"><ele>188.0</ele><time>2026-04-09T10:03:22Z</time></trkpt><trkpt lat="42.444354526541616" lon="2.8668250564494886"><ele>187.33333333333331</ele><time>2026-04-09T10:03:23Z</time></trkpt><trkpt lat="42.444157396369945" lon="2.86677467469343"><ele>186.66666666666666</ele><time>2026-04-09T10:03:24Z</time></trkpt><trkpt lat="42.443963945513886" lon="2.8667233740438323"><ele>186.0</ele><time>2026-04-09T10:03:25Z</time></trkpt><trkpt lat="42.44377214676535" lon="2.866669760593538"><ele>184.66666666666666</ele><time>2026-04-09T10:03:26Z</time></trkpt><trkpt lat="42.4435821478763" lon="2.8666156138074324"><ele>183.33333333333331</ele><time>2026-04-09T10:03:27Z</time></trkpt><trkpt lat="42.44339492821136" lon="2.8665661775893776"><ele>182.0</ele><time>2026-04-09T10:03:28Z</time></trkpt><trkpt lat="42.443209157786086" lon="2.8665207681618052"><ele>182.0</ele><time>2026-04-09T10:03:29Z</time></trkpt><trkpt lat="42.44302506019191" lon="2.8664767324419214"><ele>182.0</ele><time>2026-04-09T10:03:30Z</time></trkpt><trkpt lat="42.442842902764255" lon="2.866435010215554"><ele>182.0</ele><time>2026-04-09T10:03:31Z</time></trkpt><trkpt lat="42.44266154137929" lon="2.866392932818708"><ele>180.66666666666666</ele><time>2026-04-09T10:03:32Z</time></trkpt><trkpt lat="42.44248073287763" lon="2.8663510360086204"><ele>179.33333333333334</ele><time>2026-04-09T10:03:33Z</time></trkpt><trkpt lat="42.4422976816066" lon="2.866306822340219"><ele>178.0</ele><time>2026-04-09T10:03:34Z</time></trkpt><trkpt lat="42.442113112979854" lon="2.866261136461837"><ele>177.0</ele><time>2026-04-09T10:03:35Z</time></trkpt><trkpt lat="42.441926619499085" lon="2.866215649913413"><ele>176.0</ele><time>2026-04-09T10:03:36Z</time></trkpt><trkpt lat="42.441740869131785" lon="2.8661722310840707"><ele>175.0</ele><time>2026-04-09T10:03:37Z</time></trkpt><trkpt lat="42.441556553024796" lon="2.866129195701046"><ele>175.0</ele><time>2026-04-09T10:03:38Z</time></trkpt><trkpt lat="42.4413728961529" lon="2.866087662725387"><ele>175.0</ele><time>2026-04-09T10:03:39Z</time></trkpt><trkpt lat="42.4411866181601" lon="2.866049089293431"><ele>175.0</ele><time>2026-04-09T10:03:40Z</time></trkpt><trkpt lat="42.44099898336597" lon="2.8660129161181245"><ele>175.0</ele><time>2026-04-09T10:03:41Z</time></trkpt><trkpt lat="42.440809427715195" lon="2.865975743745301"><ele>175.0</ele><time>2026-04-09T10:03:42Z</time></trkpt><trkpt lat="42.440619326407706" lon="2.8659360975387687"><ele>175.0</ele><time>2026-04-09T10:03:43Z</time></trkpt><trkpt lat="42.44042982434151" lon="2.8658928051240906"><ele>171.33333333333334</ele><time>2026-04-09T10:03:44Z</time></trkpt><trkpt lat="42.44023968049005" lon="2.8658493667554508"><ele>167.66666666666666</ele><time>2026-04-09T10:03:45Z</time></trkpt><trkpt lat="42.440048991954164" lon="2.8658036537417693"><ele>164.0</ele><time>2026-04-09T10:03:46Z</time></trkpt><trkpt lat="42.43985763422079" lon="2.8657574408852287"><ele>164.0</ele><time>2026-04-09T10:03:47Z</time></trkpt><trkpt lat="42.43966524998854" lon="2.865711370197477"><ele>164.0</ele><time>2026-04-09T10:03:48Z</time></trkpt><trkpt lat="42.4394747053151" lon="2.8656647276672844"><ele>164.0</ele><time>2026-04-09T10:03:49Z</time></trkpt><trkpt lat="42.43928308422162" lon="2.865619367263633"><ele>164.66666666666666</ele><time>2026-04-09T10:03:50Z</time></trkpt><trkpt lat="42.43909199836487" lon="2.8655751546210015"><ele>165.33333333333334</ele><time>2026-04-09T10:03:51Z</time></trkpt><trkpt lat="42.43890126138337" lon="2.8655306296713023"><ele>166.0</ele><time>2026-04-09T10:03:52Z</time></trkpt><trkpt lat="42.43870897985817" lon="2.865484901344594"><ele>167.33333333333334</ele><time>2026-04-09T10:03:53Z</time></trkpt><trkpt lat="42.438515292983965" lon="2.865438455158792"><ele>168.66666666666666</ele><time>2026-04-09T10:03:54Z</time></trkpt><trkpt lat="42.43831976488641" lon="2.8653912801733714"><ele>170.0</ele><time>2026-04-09T10:03:55Z</time></trkpt><trkpt lat="42.43812331647687" lon="2.865344644380925"><ele>170.0</ele><time>2026-04-09T10:03:56Z</time></trkpt><trkpt lat="42.43792677492238" lon="2.8652964140631805"><ele>170.0</ele><time>2026-04-09T10:03:57Z</time></trkpt><trkpt lat="42.437732253200394" lon="2.865248222623884"><ele>170.0</ele><time>2026-04-09T10:03:58Z</time></trkpt><trkpt lat="42.437538526511005" lon="2.8652028141270827"><ele>170.0</ele><time>2026-04-09T10:03:59Z</time></trkpt><trkpt lat="42.43734895133168" lon="2.8651613095314143"><ele>170.0</ele><time>2026-04-09T10:04:00Z</time></trkpt><trkpt lat="42.43715813752104" lon="2.8651254593179902"><ele>170.0</ele><time>2026-04-09T10:04:01Z</time></trkpt><trkpt lat="42.43696685335008" lon="2.8650987394958563"><ele>167.66666666666666</ele><time>2026-04-09T10:04:02Z</time></trkpt><trkpt lat="42.43677718654433" lon="2.865090060421841"><ele>165.33333333333334</ele><time>2026-04-09T10:04:03Z</time></trkpt><trkpt lat="42.43658914368924" lon="2.8650935952619694"><ele>163.0</ele><time>2026-04-09T10:04:04Z</time></trkpt><trkpt lat="42.43640341629265" lon="2.865104384545419"><ele>165.0</ele><time>2026-04-09T10:04:05Z</time></trkpt><trkpt lat="42.43621968718627" lon="2.865115138250735"><ele>167.0</ele><time>2026-04-09T10:04:06Z</time></trkpt><trkpt lat="42.43604059676716" lon="2.865124727914701"><ele>169.0</ele><time>2026-04-09T10:04:07Z</time></trkpt><trkpt lat="42.43586362447147" lon="2.8651339280316064"><ele>169.0</ele><time>2026-04-09T10:04:08Z</time></trkpt><trkpt lat="42.43568852928473" lon="2.8651431327044157"><ele>169.0</ele><time>2026-04-09T10:04:09Z</time></trkpt><trkpt lat="42.435512424887506" lon="2.86515233295982"><ele>169.0</ele><time>2026-04-09T10:04:10Z</time></trkpt><trkpt lat="42.435337638326445" lon="2.865162087620805"><ele>167.33333333333334</ele><time>2026-04-09T10:04:11Z</time></trkpt><trkpt lat="42.43516708682464" lon="2.8651744125174026"><ele>165.66666666666666</ele><time>2026-04-09T10:04:12Z</time></trkpt><trkpt lat="42.434999902853704" lon="2.8651934149722593"><ele>164.0</ele><time>2026-04-09T10:04:13Z</time></trkpt><trkpt lat="42.43483430520522" lon="2.865222558125985"><ele>164.0</ele><time>2026-04-09T10:04:14Z</time></trkpt><trkpt lat="42.43467460604039" lon="2.8652626649287782"><ele>164.0</ele><time>2026-04-09T10:04:15Z</time></trkpt><trkpt lat="42.43452594065903" lon="2.8653131131840945"><ele>164.0</ele><time>2026-04-09T10:04:16Z</time></trkpt><trkpt lat="42.434389341218626" lon="2.86536937162606"><ele>162.0</ele><time>2026-04-09T10:04:17Z</time></trkpt><trkpt lat="42.4342664436864" lon="2.8654273668223404"><ele>160.0</ele><time>2026-04-09T10:04:18Z</time></trkpt><trkpt lat="42.434154494557454" lon="2.8654927952480427"><ele>158.0</ele><time>2026-04-09T10:04:19Z</time></trkpt><trkpt lat="42.43405981184071" lon="2.8655611182541736"><ele>156.0</ele><time>2026-04-09T10:04:20Z</time></trkpt><trkpt lat="42.43397870103364" lon="2.8656236969364666"><ele>156.0</ele><time>2026-04-09T10:04:21Z</time></trkpt><trkpt lat="42.43391084039826" lon="2.8656713547325086"><ele>156.0</ele><time>2026-04-09T10:04:22Z</time></trkpt><trkpt lat="42.433848221221425" lon="2.865705428608415"><ele>156.0</ele><time>2026-04-09T10:04:23Z</time></trkpt><trkpt lat="42.43378452066247" lon="2.865721717269822"><ele>156.0</ele><time>2026-04-09T10:04:24Z</time></trkpt><trkpt lat="42.43367903830252" lon="2.8657082733833796"><ele>156.0</ele><time>2026-04-09T10:04:26Z</time></trkpt><trkpt lat="42.433568616993384" lon="2.8656747245796215"><ele>156.0</ele><time>2026-04-09T10:04:28Z</time></trkpt><trkpt lat="42.43344223381453" lon="2.865682266484703"><ele>155.66666666666666</ele><time>2026-04-09T10:04:30Z</time></trkpt><trkpt lat="42.43337914646044" lon="2.8657153905425226"><ele>155.33333333333334</ele><time>2026-04-09T10:04:31Z</time></trkpt><trkpt lat="42.433317889303765" lon="2.865771838120901"><ele>155.0</ele><time>2026-04-09T10:04:32Z</time></trkpt><trkpt lat="42.43326054773316" lon="2.8658498954785685"><ele>154.66666666666669</ele><time>2026-04-09T10:04:33Z</time></trkpt><trkpt lat="42.43319709501032" lon="2.8659318806674867"><ele>154.33333333333334</ele><time>2026-04-09T10:04:34Z</time></trkpt><trkpt lat="42.433122748354926" lon="2.866001733149557"><ele>154.0</ele><time>2026-04-09T10:04:35Z</time></trkpt><trkpt lat="42.43303730224373" lon="2.8660422122835865"><ele>152.4</ele><time>2026-04-09T10:04:36Z</time></trkpt><trkpt lat="42.43294443576837" lon="2.8660651548697587"><ele>150.8</ele><time>2026-04-09T10:04:37Z</time></trkpt><trkpt lat="42.432842322477846" lon="2.866081603845653"><ele>149.2</ele><time>2026-04-09T10:04:38Z</time></trkpt><trkpt lat="42.43273809147343" lon="2.8661029485063003"><ele>147.6</ele><time>2026-04-09T10:04:39Z</time></trkpt><trkpt lat="42.432634228035894" lon="2.8661234896761587"><ele>146.0</ele><time>2026-04-09T10:04:40Z</time></trkpt><trkpt lat="42.43252698112292" lon="2.8661517743957345"><ele>146.0</ele><time>2026-04-09T10:04:41Z</time></trkpt><trkpt lat="42.432416626051676" lon="2.8661912447122044"><ele>146.0</ele><time>2026-04-09T10:04:42Z</time></trkpt><trkpt lat="42.43230124331184" lon="2.866238004261019"><ele>146.0</ele><time>2026-04-09T10:04:43Z</time></trkpt><trkpt lat="42.43218595886416" lon="2.8662901086930366"><ele>146.0</ele><time>2026-04-09T10:04:44Z</time></trkpt><trkpt lat="42.43207061231232" lon="2.866342277301434"><ele>144.75</ele><time>2026-04-09T10:04:45Z</time></trkpt><trkpt lat="42.43195596862214" lon="2.8663950980414357"><ele>143.5</ele><time>2026-04-09T10:04:46Z</time></trkpt><trkpt lat="42.431839275482524" lon="2.8664457988858243"><ele>142.25</ele><time>2026-04-09T10:04:47Z</time></trkpt><trkpt lat="42.43172179947062" lon="2.866499281237555"><ele>141.0</ele><time>2026-04-09T10:04:48Z</time></trkpt><trkpt lat="42.43160442146719" lon="2.8665525274697727"><ele>141.0</ele><time>2026-04-09T10:04:49Z</time></trkpt><trkpt lat="42.43148575061809" lon="2.866606529972094"><ele>141.0</ele><time>2026-04-09T10:04:50Z</time></trkpt><trkpt lat="42.431367399253396" lon="2.866660047098364"><ele>141.0</ele><time>2026-04-09T10:04:51Z</time></trkpt><trkpt lat="42.43125000998559" lon="2.86671425510312"><ele>141.0</ele><time>2026-04-09T10:04:52Z</time></trkpt><trkpt lat="42.43113500395472" lon="2.8667652320003874"><ele>140.2</ele><time>2026-04-09T10:04:53Z</time></trkpt><trkpt lat="42.4310270484362" lon="2.8668136719712094"><ele>139.39999999999998</ele><time>2026-04-09T10:04:54Z</time></trkpt><trkpt lat="42.43092445490049" lon="2.866858935761649"><ele>138.6</ele><time>2026-04-09T10:04:55Z</time></trkpt><trkpt lat="42.43082381564906" lon="2.8668889662253134"><ele>137.79999999999998</ele><time>2026-04-09T10:04:56Z</time></trkpt><trkpt lat="42.43072831721799" lon="2.8669006297177204"><ele>137.0</ele><time>2026-04-09T10:04:57Z</time></trkpt><trkpt lat="42.43063425359394" lon="2.866895254788624"><ele>136.6</ele><time>2026-04-09T10:04:58Z</time></trkpt><trkpt lat="42.43045481024704" lon="2.8668771906231547"><ele>136.2</ele><time>2026-04-09T10:05:00Z</time></trkpt><trkpt lat="42.43037100424871" lon="2.8668703139490197"><ele>135.8</ele><time>2026-04-09T10:05:01Z</time></trkpt><trkpt lat="42.4302889513423" lon="2.866874784882952"><ele>135.4</ele><time>2026-04-09T10:05:02Z</time></trkpt><trkpt lat="42.43021160620145" lon="2.86689161367816"><ele>135.0</ele><time>2026-04-09T10:05:03Z</time></trkpt><trkpt lat="42.43014181567331" lon="2.8669201970593696"><ele>135.0</ele><time>2026-04-09T10:05:04Z</time></trkpt><trkpt lat="42.43007397526563" lon="2.8669502712188892"><ele>135.0</ele><time>2026-04-09T10:05:05Z</time></trkpt><trkpt lat="42.43001235579343" lon="2.866978672435907"><ele>135.0</ele><time>2026-04-09T10:05:06Z</time></trkpt><trkpt lat="42.42990235961585" lon="2.8670289766090926"><ele>135.0</ele><time>2026-04-09T10:05:08Z</time></trkpt><trkpt lat="42.429809156511446" lon="2.867070997018713"><ele>135.0</ele><time>2026-04-09T10:05:10Z</time></trkpt><trkpt lat="42.42974951796237" lon="2.8671007195991653"><ele>135.0</ele><time>2026-04-09T10:05:12Z</time></trkpt><trkpt lat="42.42967924082851" lon="2.867133191300862"><ele>134.57142857142856</ele><time>2026-04-09T10:05:15Z</time></trkpt><trkpt lat="42.42961864367038" lon="2.8671585337556627"><ele>134.14285714285714</ele><time>2026-04-09T10:05:18Z</time></trkpt><trkpt lat="42.42955763569667" lon="2.8671865207890592"><ele>133.71428571428572</ele><time>2026-04-09T10:05:21Z</time></trkpt><trkpt lat="42.42948751007542" lon="2.8672192307055373"><ele>133.28571428571428</ele><time>2026-04-09T10:05:25Z</time></trkpt><trkpt lat="42.429417452040084" lon="2.8672572078040326"><ele>132.85714285714286</ele><time>2026-04-09T10:05:28Z</time></trkpt><trkpt lat="42.42935858796652" lon="2.867302023041678"><ele>132.42857142857142</ele><time>2026-04-09T10:05:30Z</time></trkpt><trkpt lat="42.42930395756765" lon="2.867355832794337"><ele>132.0</ele><time>2026-04-09T10:05:32Z</time></trkpt><trkpt lat="42.429243430832805" lon="2.8674329161418"><ele>132.0</ele><time>2026-04-09T10:05:34Z</time></trkpt><trkpt lat="42.42917408535072" lon="2.867520770442995"><ele>132.0</ele><time>2026-04-09T10:05:36Z</time></trkpt><trkpt lat="42.429110866301365" lon="2.867600739581602"><ele>132.0</ele><time>2026-04-09T10:05:38Z</time></trkpt><trkpt lat="42.42905210534415" lon="2.8676702593211525"><ele>132.0</ele><time>2026-04-09T10:05:40Z</time></trkpt><trkpt lat="42.42898504351616" lon="2.8677329550298394"><ele>132.0</ele><time>2026-04-09T10:05:42Z</time></trkpt><trkpt lat="42.42891840590604" lon="2.867780598542409"><ele>132.0</ele><time>2026-04-09T10:05:44Z</time></trkpt><trkpt lat="42.42885166361962" lon="2.8678183571968945"><ele>131.79999999999998</ele><time>2026-04-09T10:05:46Z</time></trkpt><trkpt lat="42.428774296279286" lon="2.867852855010627"><ele>131.6</ele><time>2026-04-09T10:05:48Z</time></trkpt><trkpt lat="42.428698504465245" lon="2.867888431156753"><ele>131.39999999999998</ele><time>2026-04-09T10:05:50Z</time></trkpt><trkpt lat="42.42862473233403" lon="2.8679205402444423"><ele>131.2</ele><time>2026-04-09T10:05:52Z</time></trkpt><trkpt lat="42.428530410738105" lon="2.8679615203868627"><ele>131.0</ele><time>2026-04-09T10:05:54Z</time></trkpt><trkpt lat="42.428420063135924" lon="2.868010517493284"><ele>131.0</ele><time>2026-04-09T10:05:56Z</time></trkpt><trkpt lat="42.428360298216155" lon="2.868037822371517"><ele>131.0</ele><time>2026-04-09T10:05:57Z</time></trkpt><trkpt lat="42.428296038887474" lon="2.868067044019038"><ele>131.0</ele><time>2026-04-09T10:05:58Z</time></trkpt><trkpt lat="42.4282315759607" lon="2.8680978691716534"><ele>131.0</ele><time>2026-04-09T10:05:59Z</time></trkpt><trkpt lat="42.4281650827254" lon="2.86812883238591"><ele>131.0</ele><time>2026-04-09T10:06:00Z</time></trkpt><trkpt lat="42.42809667195726" lon="2.868159622536731"><ele>131.0</ele><time>2026-04-09T10:06:01Z</time></trkpt><trkpt lat="42.42802707453203" lon="2.8681921375225414"><ele>131.0</ele><time>2026-04-09T10:06:02Z</time></trkpt><trkpt lat="42.42795404003295" lon="2.868224466117655"><ele>131.0</ele><time>2026-04-09T10:06:03Z</time></trkpt><trkpt lat="42.427876998044326" lon="2.86825900916664"><ele>131.0</ele><time>2026-04-09T10:06:04Z</time></trkpt><trkpt lat="42.427796089769615" lon="2.8682874329508703"><ele>131.0</ele><time>2026-04-09T10:06:05Z</time></trkpt><trkpt lat="42.427707627409525" lon="2.868315230539585"><ele>131.0</ele><time>2026-04-09T10:06:06Z</time></trkpt><trkpt lat="42.427612373124965" lon="2.86833948745254"><ele>131.0</ele><time>2026-04-09T10:06:07Z</time></trkpt><trkpt lat="42.42750758145892" lon="2.868362577569669"><ele>131.0</ele><time>2026-04-09T10:06:08Z</time></trkpt><trkpt lat="42.42740505210924" lon="2.8683830339148426"><ele>131.0</ele><time>2026-04-09T10:06:09Z</time></trkpt><trkpt lat="42.42730158474109" lon="2.868396997832266"><ele>131.0</ele><time>2026-04-09T10:06:10Z</time></trkpt><trkpt lat="42.42719954850924" lon="2.868403018976406"><ele>131.0</ele><time>2026-04-09T10:06:11Z</time></trkpt><trkpt lat="42.42709638052421" lon="2.8684009705011575"><ele>131.0</ele><time>2026-04-09T10:06:12Z</time></trkpt><trkpt lat="42.42699593511346" lon="2.8683926321307567"><ele>129.66666666666666</ele><time>2026-04-09T10:06:13Z</time></trkpt><trkpt lat="42.42689728097349" lon="2.8683860141873914"><ele>128.33333333333331</ele><time>2026-04-09T10:06:14Z</time></trkpt><trkpt lat="42.42680055080117" lon="2.868380748909277"><ele>127.0</ele><time>2026-04-09T10:06:15Z</time></trkpt><trkpt lat="42.42670922721996" lon="2.868375971009219"><ele>125.66666666666666</ele><time>2026-04-09T10:06:16Z</time></trkpt><trkpt lat="42.42663246980706" lon="2.8683709612425465"><ele>124.33333333333333</ele><time>2026-04-09T10:06:17Z</time></trkpt><trkpt lat="42.42656578351895" lon="2.8683682467596117"><ele>123.0</ele><time>2026-04-09T10:06:18Z</time></trkpt><trkpt lat="42.426454796920446" lon="2.8683639187978236"><ele>123.0</ele><time>2026-04-09T10:06:20Z</time></trkpt><trkpt lat="42.42637182771193" lon="2.868359920459048"><ele>123.0</ele><time>2026-04-09T10:06:22Z</time></trkpt><trkpt lat="42.42630194945255" lon="2.8683562945597005"><ele>123.0</ele><time>2026-04-09T10:06:24Z</time></trkpt><trkpt lat="42.42623065886068" lon="2.8683493700254266"><ele>123.0</ele><time>2026-04-09T10:06:26Z</time></trkpt><trkpt lat="42.42614428479107" lon="2.8683229872303935"><ele>123.0</ele><time>2026-04-09T10:06:28Z</time></trkpt><trkpt lat="42.426069264999626" lon="2.8682671300945426"><ele>123.0</ele><time>2026-04-09T10:06:30Z</time></trkpt><trkpt lat="42.42600860933871" lon="2.868204166941021"><ele>122.80000000000001</ele><time>2026-04-09T10:06:32Z</time></trkpt><trkpt lat="42.42593785564337" lon="2.868148984188725"><ele>122.60000000000001</ele><time>2026-04-09T10:06:35Z</time></trkpt><trkpt lat="42.425863962139836" lon="2.868138785034248"><ele>122.39999999999999</ele><time>2026-04-09T10:06:38Z</time></trkpt><trkpt lat="42.42578139859167" lon="2.8681646749241367"><ele>122.19999999999999</ele><time>2026-04-09T10:06:40Z</time></trkpt><trkpt lat="42.425697134730136" lon="2.8682368656959607"><ele>122.0</ele><time>2026-04-09T10:06:42Z</time></trkpt><trkpt lat="42.42560342249258" lon="2.868357272578475"><ele>121.99999999999999</ele><time>2026-04-09T10:06:44Z</time></trkpt><trkpt lat="42.42554761403333" lon="2.8684098684736687"><ele>122.0</ele><time>2026-04-09T10:06:45Z</time></trkpt><trkpt lat="42.42548862058993" lon="2.8684554592093163"><ele>121.99999999999999</ele><time>2026-04-09T10:06:46Z</time></trkpt><trkpt lat="42.425422120404214" lon="2.868490753848972"><ele>121.99999999999999</ele><time>2026-04-09T10:06:47Z</time></trkpt><trkpt lat="42.42534886839183" lon="2.8685232193221197"><ele>122.0</ele><time>2026-04-09T10:06:48Z</time></trkpt><trkpt lat="42.42527321594096" lon="2.868558867096294"><ele>121.99999999999999</ele><time>2026-04-09T10:06:49Z</time></trkpt><trkpt lat="42.425199244387265" lon="2.8686011137363354"><ele>121.99999999999999</ele><time>2026-04-09T10:06:50Z</time></trkpt><trkpt lat="42.425128268748445" lon="2.86864419969618"><ele>121.83333333333333</ele><time>2026-04-09T10:06:51Z</time></trkpt><trkpt lat="42.42506442818943" lon="2.8686849233084835"><ele>121.66666666666666</ele><time>2026-04-09T10:06:52Z</time></trkpt><trkpt lat="42.42500340990387" lon="2.868721376466311"><ele>121.5</ele><time>2026-04-09T10:06:53Z</time></trkpt><trkpt lat="42.42494531833875" lon="2.868757336921053"><ele>121.33333333333334</ele><time>2026-04-09T10:06:54Z</time></trkpt><trkpt lat="42.42488764005517" lon="2.868792235093832"><ele>121.16666666666667</ele><time>2026-04-09T10:06:55Z</time></trkpt><trkpt lat="42.42477474066186" lon="2.868862278501612"><ele>121.0</ele><time>2026-04-09T10:06:57Z</time></trkpt><trkpt lat="42.424666597123725" lon="2.868927587923682"><ele>120.71428571428571</ele><time>2026-04-09T10:06:59Z</time></trkpt><trkpt lat="42.42455943169759" lon="2.8689938359807177"><ele>120.42857142857142</ele><time>2026-04-09T10:07:01Z</time></trkpt><trkpt lat="42.424501998203894" lon="2.869030020349164"><ele>120.14285714285714</ele><time>2026-04-09T10:07:02Z</time></trkpt><trkpt lat="42.42444075527655" lon="2.8690672990414057"><ele>119.85714285714286</ele><time>2026-04-09T10:07:03Z</time></trkpt><trkpt lat="42.424380082909096" lon="2.8691048261223107"><ele>119.57142857142857</ele><time>2026-04-09T10:07:04Z</time></trkpt><trkpt lat="42.42431994765016" lon="2.869142646924536"><ele>119.28571428571428</ele><time>2026-04-09T10:07:05Z</time></trkpt><trkpt lat="42.424259260261316" lon="2.8691802378303843"><ele>119.0</ele><time>2026-04-09T10:07:06Z</time></trkpt><trkpt lat="42.42419953349519" lon="2.8692171838016347"><ele>118.80000000000001</ele><time>2026-04-09T10:07:07Z</time></trkpt><trkpt lat="42.42408670013446" lon="2.8692863506499338"><ele>118.60000000000001</ele><time>2026-04-09T10:07:09Z</time></trkpt><trkpt lat="42.423989420457346" lon="2.8693462423879548"><ele>118.4</ele><time>2026-04-09T10:07:11Z</time></trkpt><trkpt lat="42.42389968878849" lon="2.8694031480626037"><ele>118.2</ele><time>2026-04-09T10:07:13Z</time></trkpt><trkpt lat="42.42380172498435" lon="2.8694633606537736"><ele>118.0</ele><time>2026-04-09T10:07:15Z</time></trkpt><trkpt lat="42.42374395057205" lon="2.869498836369984"><ele>117.85714285714286</ele><time>2026-04-09T10:07:16Z</time></trkpt><trkpt lat="42.42368059221762" lon="2.8695363688505666"><ele>117.71428571428572</ele><time>2026-04-09T10:07:17Z</time></trkpt><trkpt lat="42.423615151374406" lon="2.869575806978948"><ele>117.57142857142858</ele><time>2026-04-09T10:07:18Z</time></trkpt><trkpt lat="42.42354821342302" lon="2.869618434866081"><ele>117.42857142857143</ele><time>2026-04-09T10:07:19Z</time></trkpt><trkpt lat="42.42348458638493" lon="2.8696574115526423"><ele>117.2857142857143</ele><time>2026-04-09T10:07:20Z</time></trkpt><trkpt lat="42.42341986869705" lon="2.8696954855695456"><ele>117.14285714285715</ele><time>2026-04-09T10:07:21Z</time></trkpt><trkpt lat="42.423353418257825" lon="2.869735746291019"><ele>117.0</ele><time>2026-04-09T10:07:22Z</time></trkpt><trkpt lat="42.42328548072835" lon="2.8697769818305905"><ele>117.0</ele><time>2026-04-09T10:07:23Z</time></trkpt><trkpt lat="42.42321858199063" lon="2.8698180453812543"><ele>117.0</ele><time>2026-04-09T10:07:24Z</time></trkpt><trkpt lat="42.42314713345604" lon="2.869861557867491"><ele>117.0</ele><time>2026-04-09T10:07:25Z</time></trkpt><trkpt lat="42.423073931666416" lon="2.86990578689735"><ele>117.0</ele><time>2026-04-09T10:07:26Z</time></trkpt><trkpt lat="42.42300072027394" lon="2.8699517315676166"><ele>117.0</ele><time>2026-04-09T10:07:27Z</time></trkpt><trkpt lat="42.42291801957855" lon="2.8700006384997025"><ele>117.0</ele><time>2026-04-09T10:07:28Z</time></trkpt><trkpt lat="42.4228267814415" lon="2.8700543324883703"><ele>117.0</ele><time>2026-04-09T10:07:29Z</time></trkpt><trkpt lat="42.42272353310211" lon="2.8701136945537153"><ele>117.0</ele><time>2026-04-09T10:07:30Z</time></trkpt><trkpt lat="42.422620789861895" lon="2.870170144818328"><ele>117.0</ele><time>2026-04-09T10:07:31Z</time></trkpt><trkpt lat="42.422514668752946" lon="2.8702230404706564"><ele>117.0</ele><time>2026-04-09T10:07:32Z</time></trkpt><trkpt lat="42.422403678209136" lon="2.8702734091133166"><ele>117.0</ele><time>2026-04-09T10:07:33Z</time></trkpt><trkpt lat="42.422289030392555" lon="2.870321698479006"><ele>117.0</ele><time>2026-04-09T10:07:34Z</time></trkpt><trkpt lat="42.4221736221817" lon="2.870365628535513"><ele>117.0</ele><time>2026-04-09T10:07:35Z</time></trkpt><trkpt lat="42.42205809865279" lon="2.87040655708968"><ele>117.0</ele><time>2026-04-09T10:07:36Z</time></trkpt><trkpt lat="42.42194275829088" lon="2.870442018442852"><ele>116.75</ele><time>2026-04-09T10:07:37Z</time></trkpt><trkpt lat="42.42182479118802" lon="2.8704716682140314"><ele>116.5</ele><time>2026-04-09T10:07:38Z</time></trkpt><trkpt lat="42.42170618576881" lon="2.8704977161378853"><ele>116.25</ele><time>2026-04-09T10:07:39Z</time></trkpt><trkpt lat="42.42158564799695" lon="2.870523818955919"><ele>116.0</ele><time>2026-04-09T10:07:40Z</time></trkpt><trkpt lat="42.42146553039808" lon="2.870548111650714"><ele>116.0</ele><time>2026-04-09T10:07:41Z</time></trkpt><trkpt lat="42.42134273867372" lon="2.870572659800271"><ele>116.0</ele><time>2026-04-09T10:07:42Z</time></trkpt><trkpt lat="42.42121766837963" lon="2.8705996355184693"><ele>116.0</ele><time>2026-04-09T10:07:43Z</time></trkpt><trkpt lat="42.42109070435288" lon="2.8706256364270537"><ele>116.0</ele><time>2026-04-09T10:07:44Z</time></trkpt><trkpt lat="42.42095821045243" lon="2.870652772005187"><ele>115.75</ele><time>2026-04-09T10:07:45Z</time></trkpt><trkpt lat="42.42082572563833" lon="2.8706796450078738"><ele>115.5</ele><time>2026-04-09T10:07:46Z</time></trkpt><trkpt lat="42.4206885050242" lon="2.870701322687882"><ele>115.25</ele><time>2026-04-09T10:07:47Z</time></trkpt><trkpt lat="42.420551088099515" lon="2.870719306546473"><ele>115.0</ele><time>2026-04-09T10:07:48Z</time></trkpt><trkpt lat="42.42041239708463" lon="2.8707464372969724"><ele>115.0</ele><time>2026-04-09T10:07:49Z</time></trkpt><trkpt lat="42.420272135641184" lon="2.8707799950040496"><ele>115.0</ele><time>2026-04-09T10:07:50Z</time></trkpt><trkpt lat="42.42013029984691" lon="2.8708136803393445"><ele>115.0</ele><time>2026-04-09T10:07:51Z</time></trkpt><trkpt lat="42.419987622079326" lon="2.8708478807496425"><ele>115.0</ele><time>2026-04-09T10:07:52Z</time></trkpt><trkpt lat="42.41984297115019" lon="2.8708800052915233"><ele>115.0</ele><time>2026-04-09T10:07:53Z</time></trkpt><trkpt lat="42.41969602671195" lon="2.8709133104987767"><ele>115.0</ele><time>2026-04-09T10:07:54Z</time></trkpt><trkpt lat="42.41954899714014" lon="2.8709487219411485"><ele>115.0</ele><time>2026-04-09T10:07:55Z</time></trkpt><trkpt lat="42.419401743956385" lon="2.8709834584745586"><ele>115.0</ele><time>2026-04-09T10:07:56Z</time></trkpt><trkpt lat="42.419253527237466" lon="2.8710192314745706"><ele>114.33333333333334</ele><time>2026-04-09T10:07:57Z</time></trkpt><trkpt lat="42.4191031456321" lon="2.871056672693685"><ele>113.66666666666666</ele><time>2026-04-09T10:07:58Z</time></trkpt><trkpt lat="42.41895478515877" lon="2.871096168078057"><ele>113.0</ele><time>2026-04-09T10:07:59Z</time></trkpt><trkpt lat="42.418805751445234" lon="2.8711368711568204"><ele>112.66666666666666</ele><time>2026-04-09T10:08:00Z</time></trkpt><trkpt lat="42.4186543283753" lon="2.871177784142692"><ele>112.33333333333334</ele><time>2026-04-09T10:08:01Z</time></trkpt><trkpt lat="42.418502187775225" lon="2.8712195117575066"><ele>112.0</ele><time>2026-04-09T10:08:02Z</time></trkpt><trkpt lat="42.41834979184026" lon="2.8712599633055027"><ele>112.0</ele><time>2026-04-09T10:08:03Z</time></trkpt><trkpt lat="42.41819369395817" lon="2.8713017539594876"><ele>112.0</ele><time>2026-04-09T10:08:04Z</time></trkpt><trkpt lat="42.41803654226548" lon="2.8713422236401605"><ele>112.0</ele><time>2026-04-09T10:08:05Z</time></trkpt><trkpt lat="42.417877106640645" lon="2.8713835917653956"><ele>112.0</ele><time>2026-04-09T10:08:06Z</time></trkpt><trkpt lat="42.41772037337555" lon="2.8714232281184247"><ele>112.0</ele><time>2026-04-09T10:08:07Z</time></trkpt><trkpt lat="42.41756414440963" lon="2.8714641380961936"><ele>112.0</ele><time>2026-04-09T10:08:08Z</time></trkpt><trkpt lat="42.41741031337495" lon="2.871503808335851"><ele>112.0</ele><time>2026-04-09T10:08:09Z</time></trkpt><trkpt lat="42.41725746855298" lon="2.8715425439213687"><ele>112.0</ele><time>2026-04-09T10:08:10Z</time></trkpt><trkpt lat="42.417105832354096" lon="2.8715786332369113"><ele>112.0</ele><time>2026-04-09T10:08:11Z</time></trkpt><trkpt lat="42.41695821608247" lon="2.8716143920614203"><ele>112.5</ele><time>2026-04-09T10:08:12Z</time></trkpt><trkpt lat="42.41681829495662" lon="2.871646936139701"><ele>113.0</ele><time>2026-04-09T10:08:13Z</time></trkpt><trkpt lat="42.41668596860205" lon="2.87167742926725"><ele>113.5</ele><time>2026-04-09T10:08:14Z</time></trkpt><trkpt lat="42.41655828936206" lon="2.8717055160953127"><ele>114.0</ele><time>2026-04-09T10:08:15Z</time></trkpt><trkpt lat="42.416432910807664" lon="2.871732610432375"><ele>114.25</ele><time>2026-04-09T10:08:16Z</time></trkpt><trkpt lat="42.41631074309961" lon="2.8717585685885245"><ele>114.5</ele><time>2026-04-09T10:08:17Z</time></trkpt><trkpt lat="42.4161853652315" lon="2.871783092974404"><ele>114.75</ele><time>2026-04-09T10:08:18Z</time></trkpt><trkpt lat="42.4160595379754" lon="2.8718103364082923"><ele>115.0</ele><time>2026-04-09T10:08:19Z</time></trkpt><trkpt lat="42.41593442971628" lon="2.8718396383971343"><ele>113.0</ele><time>2026-04-09T10:08:20Z</time></trkpt><trkpt lat="42.415809117749774" lon="2.8718633110567464"><ele>111.0</ele><time>2026-04-09T10:08:21Z</time></trkpt><trkpt lat="42.41568625266929" lon="2.8718892255229203"><ele>109.0</ele><time>2026-04-09T10:08:22Z</time></trkpt><trkpt lat="42.415563547926624" lon="2.8719134248986196"><ele>107.0</ele><time>2026-04-09T10:08:23Z</time></trkpt><trkpt lat="42.415437016715856" lon="2.871939888004144"><ele>106.75</ele><time>2026-04-09T10:08:24Z</time></trkpt><trkpt lat="42.41530963393606" lon="2.871969147705093"><ele>106.5</ele><time>2026-04-09T10:08:25Z</time></trkpt><trkpt lat="42.41518519299335" lon="2.872007317289366"><ele>106.25</ele><time>2026-04-09T10:08:26Z</time></trkpt><trkpt lat="42.41506340245673" lon="2.872052738404553"><ele>106.0</ele><time>2026-04-09T10:08:27Z</time></trkpt><trkpt lat="42.414946526943844" lon="2.87210613882556"><ele>106.0</ele><time>2026-04-09T10:08:28Z</time></trkpt><trkpt lat="42.41483446178819" lon="2.872166896226673"><ele>106.0</ele><time>2026-04-09T10:08:29Z</time></trkpt><trkpt lat="42.41472427426192" lon="2.8722335090428737"><ele>106.0</ele><time>2026-04-09T10:08:30Z</time></trkpt><trkpt lat="42.4146200067042" lon="2.872315591855986"><ele>106.0</ele><time>2026-04-09T10:08:31Z</time></trkpt><trkpt lat="42.414525193420495" lon="2.872415310246947"><ele>106.0</ele><time>2026-04-09T10:08:32Z</time></trkpt><trkpt lat="42.4144361581976" lon="2.872525080591661"><ele>106.0</ele><time>2026-04-09T10:08:33Z</time></trkpt><trkpt lat="42.41435304793677" lon="2.872633017137045"><ele>106.0</ele><time>2026-04-09T10:08:34Z</time></trkpt><trkpt lat="42.414271865952664" lon="2.8727407112725856"><ele>106.0</ele><time>2026-04-09T10:08:35Z</time></trkpt><trkpt lat="42.41419276713691" lon="2.8728451390730556"><ele>105.4</ele><time>2026-04-09T10:08:36Z</time></trkpt><trkpt lat="42.41411856644225" lon="2.8729404700029755"><ele>104.8</ele><time>2026-04-09T10:08:37Z</time></trkpt><trkpt lat="42.41404678451137" lon="2.873032123983353"><ele>104.2</ele><time>2026-04-09T10:08:38Z</time></trkpt><trkpt lat="42.41397895204872" lon="2.8731223945729902"><ele>103.60000000000001</ele><time>2026-04-09T10:08:39Z</time></trkpt><trkpt lat="42.41391715105731" lon="2.8732051788824045"><ele>103.0</ele><time>2026-04-09T10:08:40Z</time></trkpt><trkpt lat="42.413857122773855" lon="2.8732864360044523"><ele>103.2</ele><time>2026-04-09T10:08:41Z</time></trkpt><trkpt lat="42.41379916178342" lon="2.873363141057822"><ele>103.4</ele><time>2026-04-09T10:08:42Z</time></trkpt><trkpt lat="42.41374592098044" lon="2.8734318690408025"><ele>103.60000000000001</ele><time>2026-04-09T10:08:43Z</time></trkpt><trkpt lat="42.4136978464859" lon="2.8734953426382113"><ele>103.80000000000001</ele><time>2026-04-09T10:08:44Z</time></trkpt><trkpt lat="42.41361242589807" lon="2.8736003589979"><ele>104.0</ele><time>2026-04-09T10:08:46Z</time></trkpt><trkpt lat="42.41350672380579" lon="2.8736575836926534"><ele>104.16666666666666</ele><time>2026-04-09T10:08:48Z</time></trkpt><trkpt lat="42.413379380211005" lon="2.8736664022571525"><ele>104.33333333333333</ele><time>2026-04-09T10:08:50Z</time></trkpt><trkpt lat="42.41331240011529" lon="2.8737000025342514"><ele>104.5</ele><time>2026-04-09T10:08:51Z</time></trkpt><trkpt lat="42.41325524607507" lon="2.873761581821258"><ele>104.66666666666666</ele><time>2026-04-09T10:08:52Z</time></trkpt><trkpt lat="42.41321301781866" lon="2.8738551032289035"><ele>104.83333333333333</ele><time>2026-04-09T10:08:53Z</time></trkpt><trkpt lat="42.41318979029286" lon="2.8739628105701027"><ele>105.0</ele><time>2026-04-09T10:08:54Z</time></trkpt><trkpt lat="42.413176663576024" lon="2.874068653545749"><ele>105.0</ele><time>2026-04-09T10:08:55Z</time></trkpt><trkpt lat="42.41314910553399" lon="2.874161979082099"><ele>105.0</ele><time>2026-04-09T10:08:56Z</time></trkpt><trkpt lat="42.4131080384984" lon="2.874248070767608"><ele>105.0</ele><time>2026-04-09T10:08:57Z</time></trkpt><trkpt lat="42.41305520942968" lon="2.87432074934909"><ele>105.0</ele><time>2026-04-09T10:08:58Z</time></trkpt><trkpt lat="42.41299603207599" lon="2.8743936695542094"><ele>105.0</ele><time>2026-04-09T10:08:59Z</time></trkpt><trkpt lat="42.41293646798515" lon="2.8744707577587563"><ele>105.0</ele><time>2026-04-09T10:09:00Z</time></trkpt><trkpt lat="42.41287666516113" lon="2.87454927202062"><ele>105.0</ele><time>2026-04-09T10:09:01Z</time></trkpt><trkpt lat="42.41281531243517" lon="2.87462974966523"><ele>105.0</ele><time>2026-04-09T10:09:02Z</time></trkpt><trkpt lat="42.41274847327636" lon="2.874715145051859"><ele>105.0</ele><time>2026-04-09T10:09:03Z</time></trkpt><trkpt lat="42.41268094551354" lon="2.8748017816654374"><ele>105.0</ele><time>2026-04-09T10:09:04Z</time></trkpt><trkpt lat="42.41261555424426" lon="2.8748860319024336"><ele>105.0</ele><time>2026-04-09T10:09:05Z</time></trkpt><trkpt lat="42.412553715062344" lon="2.8749662681859736"><ele>105.0</ele><time>2026-04-09T10:09:06Z</time></trkpt><trkpt lat="42.41249316589967" lon="2.875043654494699"><ele>105.14285714285714</ele><time>2026-04-09T10:09:07Z</time></trkpt><trkpt lat="42.41243563851885" lon="2.875118831312902"><ele>105.28571428571428</ele><time>2026-04-09T10:09:08Z</time></trkpt><trkpt lat="42.41238145872955" lon="2.8751894985004625"><ele>105.42857142857143</ele><time>2026-04-09T10:09:09Z</time></trkpt><trkpt lat="42.41233227800001" lon="2.8752538031617543"><ele>105.57142857142857</ele><time>2026-04-09T10:09:10Z</time></trkpt><trkpt lat="42.41228251560314" lon="2.8753182860085413"><ele>105.71428571428571</ele><time>2026-04-09T10:09:11Z</time></trkpt><trkpt lat="42.41223276463691" lon="2.8753836337281125"><ele>105.85714285714286</ele><time>2026-04-09T10:09:12Z</time></trkpt><trkpt lat="42.412177797327125" lon="2.8754541311863293"><ele>106.0</ele><time>2026-04-09T10:09:13Z</time></trkpt><trkpt lat="42.41212354098874" lon="2.8755250678104796"><ele>106.00000000000001</ele><time>2026-04-09T10:09:14Z</time></trkpt><trkpt lat="42.41207253812582" lon="2.8755928773034096"><ele>106.0</ele><time>2026-04-09T10:09:15Z</time></trkpt><trkpt lat="42.41202366686843" lon="2.875658806358613"><ele>106.0</ele><time>2026-04-09T10:09:16Z</time></trkpt><trkpt lat="42.41197394496776" lon="2.8757189323943946"><ele>106.0</ele><time>2026-04-09T10:09:17Z</time></trkpt><trkpt lat="42.41188346375733" lon="2.8758154341009363"><ele>106.00000000000001</ele><time>2026-04-09T10:09:19Z</time></trkpt><trkpt lat="42.41182317971577" lon="2.8758736418553608"><ele>106.0</ele><time>2026-04-09T10:09:21Z</time></trkpt><trkpt lat="42.41176084278948" lon="2.8759301306018576"><ele>106.8</ele><time>2026-04-09T10:09:23Z</time></trkpt><trkpt lat="42.41169531251052" lon="2.875984459808531"><ele>107.6</ele><time>2026-04-09T10:09:25Z</time></trkpt><trkpt lat="42.41162113792699" lon="2.876032088149619"><ele>108.4</ele><time>2026-04-09T10:09:28Z</time></trkpt><trkpt lat="42.41154503073516" lon="2.8760634702261716"><ele>109.2</ele><time>2026-04-09T10:09:31Z</time></trkpt><trkpt lat="42.41145085810012" lon="2.8760728952539467"><ele>110.0</ele><time>2026-04-09T10:09:33Z</time></trkpt><trkpt lat="42.41133403174703" lon="2.876055255296905"><ele>109.71428571428571</ele><time>2026-04-09T10:09:35Z</time></trkpt><trkpt lat="42.41126823937969" lon="2.876057718455719"><ele>109.42857142857143</ele><time>2026-04-09T10:09:36Z</time></trkpt><trkpt lat="42.411205244693996" lon="2.876086930810404"><ele>109.14285714285714</ele><time>2026-04-09T10:09:37Z</time></trkpt><trkpt lat="42.41114485514589" lon="2.8761398513116316"><ele>108.85714285714286</ele><time>2026-04-09T10:09:38Z</time></trkpt><trkpt lat="42.41109771698415" lon="2.8762165461285663"><ele>108.57142857142857</ele><time>2026-04-09T10:09:39Z</time></trkpt><trkpt lat="42.4110560244991" lon="2.8763068180745286"><ele>108.28571428571428</ele><time>2026-04-09T10:09:40Z</time></trkpt><trkpt lat="42.41100049428829" lon="2.8763908134386527"><ele>108.0</ele><time>2026-04-09T10:09:41Z</time></trkpt><trkpt lat="42.410923314150956" lon="2.8764629866569016"><ele>108.0</ele><time>2026-04-09T10:09:42Z</time></trkpt><trkpt lat="42.41083201522107" lon="2.876519641701362"><ele>108.0</ele><time>2026-04-09T10:09:43Z</time></trkpt><trkpt lat="42.410723332450736" lon="2.8765576813643934"><ele>108.0</ele><time>2026-04-09T10:09:44Z</time></trkpt><trkpt lat="42.41060224527924" lon="2.8766044081607043"><ele>108.0</ele><time>2026-04-09T10:09:45Z</time></trkpt><trkpt lat="42.41047171305754" lon="2.8766621776722694"><ele>107.5</ele><time>2026-04-09T10:09:46Z</time></trkpt><trkpt lat="42.410343201736985" lon="2.8767187934486733"><ele>107.0</ele><time>2026-04-09T10:09:47Z</time></trkpt><trkpt lat="42.41020387283238" lon="2.876777098826203"><ele>106.5</ele><time>2026-04-09T10:09:48Z</time></trkpt><trkpt lat="42.410059044093586" lon="2.8768327485024363"><ele>106.0</ele><time>2026-04-09T10:09:49Z</time></trkpt><trkpt lat="42.40991214478142" lon="2.876884632206953"><ele>106.0</ele><time>2026-04-09T10:09:50Z</time></trkpt><trkpt lat="42.40976376302936" lon="2.876936837167559"><ele>106.0</ele><time>2026-04-09T10:09:51Z</time></trkpt><trkpt lat="42.409617867311105" lon="2.8769879310344124"><ele>106.0</ele><time>2026-04-09T10:09:52Z</time></trkpt><trkpt lat="42.4094727000811" lon="2.8770420996132815"><ele>105.5</ele><time>2026-04-09T10:09:53Z</time></trkpt><trkpt lat="42.40932962194051" lon="2.8770932384148478"><ele>105.0</ele><time>2026-04-09T10:09:54Z</time></trkpt><trkpt lat="42.40918632599073" lon="2.8771437313098507"><ele>104.5</ele><time>2026-04-09T10:09:55Z</time></trkpt><trkpt lat="42.409041345131136" lon="2.877192701401604"><ele>104.0</ele><time>2026-04-09T10:09:56Z</time></trkpt><trkpt lat="42.40889463454302" lon="2.8772410142026925"><ele>103.66666666666666</ele><time>2026-04-09T10:09:57Z</time></trkpt><trkpt lat="42.40874764607617" lon="2.8772919454685812"><ele>103.33333333333334</ele><time>2026-04-09T10:09:58Z</time></trkpt><trkpt lat="42.408597658573115" lon="2.877342756550621"><ele>103.0</ele><time>2026-04-09T10:09:59Z</time></trkpt><trkpt lat="42.40844714396844" lon="2.877393465131831"><ele>103.0</ele><time>2026-04-09T10:10:00Z</time></trkpt><trkpt lat="42.408296428049766" lon="2.8774432857610557"><ele>103.0</ele><time>2026-04-09T10:10:01Z</time></trkpt><trkpt lat="42.40814633477336" lon="2.8774961904808447"><ele>103.0</ele><time>2026-04-09T10:10:02Z</time></trkpt><trkpt lat="42.40799703844794" lon="2.8775459127342007"><ele>102.66666666666667</ele><time>2026-04-09T10:10:03Z</time></trkpt><trkpt lat="42.407843016721614" lon="2.8775968617077186"><ele>102.33333333333334</ele><time>2026-04-09T10:10:04Z</time></trkpt><trkpt lat="42.4076917008013" lon="2.8776485961442986"><ele>102.0</ele><time>2026-04-09T10:10:05Z</time></trkpt><trkpt lat="42.4075421495891" lon="2.8776984932881615"><ele>102.0</ele><time>2026-04-09T10:10:06Z</time></trkpt><trkpt lat="42.40739525324062" lon="2.877748326864275"><ele>102.0</ele><time>2026-04-09T10:10:07Z</time></trkpt><trkpt lat="42.407250248984845" lon="2.877797624900103"><ele>102.0</ele><time>2026-04-09T10:10:08Z</time></trkpt><trkpt lat="42.407105745369854" lon="2.877845352645004"><ele>102.0</ele><time>2026-04-09T10:10:09Z</time></trkpt><trkpt lat="42.406963958236304" lon="2.87789372121947"><ele>102.0</ele><time>2026-04-09T10:10:10Z</time></trkpt><trkpt lat="42.40682552489826" lon="2.8779440300398877"><ele>102.0</ele><time>2026-04-09T10:10:11Z</time></trkpt><trkpt lat="42.406693699551596" lon="2.877988931619994"><ele>102.0</ele><time>2026-04-09T10:10:12Z</time></trkpt><trkpt lat="42.406558554553165" lon="2.8780349486949155"><ele>102.0</ele><time>2026-04-09T10:10:13Z</time></trkpt><trkpt lat="42.40643221844392" lon="2.878076450167552"><ele>102.0</ele><time>2026-04-09T10:10:14Z</time></trkpt><trkpt lat="42.40631202885189" lon="2.8781183889042157"><ele>102.0</ele><time>2026-04-09T10:10:15Z</time></trkpt><trkpt lat="42.4061906384144" lon="2.8781599064527983"><ele>102.0</ele><time>2026-04-09T10:10:16Z</time></trkpt><trkpt lat="42.40606926616633" lon="2.87820066724542"><ele>101.5</ele><time>2026-04-09T10:10:17Z</time></trkpt><trkpt lat="42.40594393230526" lon="2.87824295583417"><ele>101.0</ele><time>2026-04-09T10:10:18Z</time></trkpt><trkpt lat="42.405816403234645" lon="2.8782857688535928"><ele>100.5</ele><time>2026-04-09T10:10:19Z</time></trkpt><trkpt lat="42.40568723222461" lon="2.8783299608334385"><ele>100.0</ele><time>2026-04-09T10:10:20Z</time></trkpt><trkpt lat="42.40556146323356" lon="2.8783726675692467"><ele>99.75</ele><time>2026-04-09T10:10:21Z</time></trkpt><trkpt lat="42.40543723962192" lon="2.8784161881823076"><ele>99.5</ele><time>2026-04-09T10:10:22Z</time></trkpt><trkpt lat="42.40531883994423" lon="2.8784555480347813"><ele>99.25</ele><time>2026-04-09T10:10:23Z</time></trkpt><trkpt lat="42.40521103319355" lon="2.8784908500950785"><ele>99.0</ele><time>2026-04-09T10:10:24Z</time></trkpt><trkpt lat="42.405111227590545" lon="2.878522757296172"><ele>99.0</ele><time>2026-04-09T10:10:25Z</time></trkpt><trkpt lat="42.405021987833884" lon="2.8785518470844815"><ele>99.0</ele><time>2026-04-09T10:10:26Z</time></trkpt><trkpt lat="42.404941399812174" lon="2.878575070452685"><ele>99.0</ele><time>2026-04-09T10:10:27Z</time></trkpt><trkpt lat="42.4048681492432" lon="2.8785969113483922"><ele>99.0</ele><time>2026-04-09T10:10:28Z</time></trkpt><trkpt lat="42.404800436810966" lon="2.878609522169893"><ele>99.0</ele><time>2026-04-09T10:10:29Z</time></trkpt><trkpt lat="42.4046826455148" lon="2.8786050692719902"><ele>99.0</ele><time>2026-04-09T10:10:31Z</time></trkpt><trkpt lat="42.40461601854009" lon="2.8785801902936825"><ele>99.0</ele><time>2026-04-09T10:10:32Z</time></trkpt><trkpt lat="42.40455101589395" lon="2.8785362288922745"><ele>99.0</ele><time>2026-04-09T10:10:33Z</time></trkpt><trkpt lat="42.40448054231935" lon="2.8784871079770338"><ele>99.0</ele><time>2026-04-09T10:10:34Z</time></trkpt><trkpt lat="42.40440961990549" lon="2.8784501592600007"><ele>99.0</ele><time>2026-04-09T10:10:35Z</time></trkpt><trkpt lat="42.40433321446552" lon="2.8784331731227892"><ele>99.0</ele><time>2026-04-09T10:10:36Z</time></trkpt><trkpt lat="42.4042558736343" lon="2.8784461575243294"><ele>99.0</ele><time>2026-04-09T10:10:37Z</time></trkpt><trkpt lat="42.40418121782724" lon="2.8784853346236403"><ele>99.0</ele><time>2026-04-09T10:10:38Z</time></trkpt><trkpt lat="42.404114327457414" lon="2.8785525768640268"><ele>99.0</ele><time>2026-04-09T10:10:39Z</time></trkpt><trkpt lat="42.404058071795525" lon="2.878642454870493"><ele>99.0</ele><time>2026-04-09T10:10:40Z</time></trkpt><trkpt lat="42.404001549016066" lon="2.878737783269719"><ele>99.0</ele><time>2026-04-09T10:10:41Z</time></trkpt><trkpt lat="42.403937160471756" lon="2.87883059092327"><ele>99.0</ele><time>2026-04-09T10:10:42Z</time></trkpt><trkpt lat="42.40385980933939" lon="2.878908555507885"><ele>98.25</ele><time>2026-04-09T10:10:43Z</time></trkpt><trkpt lat="42.40376689635068" lon="2.8789670194312285"><ele>97.5</ele><time>2026-04-09T10:10:44Z</time></trkpt><trkpt lat="42.40366072749227" lon="2.8790078851475447"><ele>96.75</ele><time>2026-04-09T10:10:45Z</time></trkpt><trkpt lat="42.40354339355012" lon="2.8790482855055015"><ele>96.0</ele><time>2026-04-09T10:10:46Z</time></trkpt><trkpt lat="42.403413420169066" lon="2.8790930571151327"><ele>96.0</ele><time>2026-04-09T10:10:47Z</time></trkpt><trkpt lat="42.403275902199006" lon="2.87914232558777"><ele>96.0</ele><time>2026-04-09T10:10:48Z</time></trkpt><trkpt lat="42.40314028223602" lon="2.8791932406725653"><ele>96.0</ele><time>2026-04-09T10:10:49Z</time></trkpt><trkpt lat="42.4029966014144" lon="2.8792455221692865"><ele>96.0</ele><time>2026-04-09T10:10:50Z</time></trkpt><trkpt lat="42.40284658093332" lon="2.879292087450217"><ele>96.33333333333334</ele><time>2026-04-09T10:10:51Z</time></trkpt><trkpt lat="42.402688696513316" lon="2.8793461323320972"><ele>96.66666666666667</ele><time>2026-04-09T10:10:52Z</time></trkpt><trkpt lat="42.40252105717302" lon="2.879402157045168"><ele>97.0</ele><time>2026-04-09T10:10:53Z</time></trkpt><trkpt lat="42.40234956802297" lon="2.87945563415013"><ele>97.0</ele><time>2026-04-09T10:10:54Z</time></trkpt><trkpt lat="42.40218187819341" lon="2.879514925626658"><ele>97.0</ele><time>2026-04-09T10:10:55Z</time></trkpt><trkpt lat="42.40201507838213" lon="2.879577452067301"><ele>97.0</ele><time>2026-04-09T10:10:56Z</time></trkpt><trkpt lat="42.40184900322195" lon="2.879641219839574"><ele>96.0</ele><time>2026-04-09T10:10:57Z</time></trkpt><trkpt lat="42.40168743508608" lon="2.8797116829934004"><ele>95.0</ele><time>2026-04-09T10:10:58Z</time></trkpt><trkpt lat="42.40153322345009" lon="2.879778905591796"><ele>94.0</ele><time>2026-04-09T10:10:59Z</time></trkpt><trkpt lat="42.40138386882537" lon="2.8798430545406375"><ele>94.25</ele><time>2026-04-09T10:11:00Z</time></trkpt><trkpt lat="42.40123859239707" lon="2.879907506681396"><ele>94.5</ele><time>2026-04-09T10:11:01Z</time></trkpt><trkpt lat="42.40109689289916" lon="2.8799674036896605"><ele>94.75</ele><time>2026-04-09T10:11:02Z</time></trkpt><trkpt lat="42.40096167518747" lon="2.880025183004972"><ele>95.0</ele><time>2026-04-09T10:11:03Z</time></trkpt><trkpt lat="42.40082657760187" lon="2.880083997634346"><ele>95.0</ele><time>2026-04-09T10:11:04Z</time></trkpt><trkpt lat="42.400693338357854" lon="2.8801416765720758"><ele>95.0</ele><time>2026-04-09T10:11:05Z</time></trkpt><trkpt lat="42.400562963660754" lon="2.880198674710611"><ele>95.0</ele><time>2026-04-09T10:11:06Z</time></trkpt><trkpt lat="42.4004364506006" lon="2.880252948403699"><ele>95.0</ele><time>2026-04-09T10:11:07Z</time></trkpt><trkpt lat="42.400315679399064" lon="2.880305940983532"><ele>95.0</ele><time>2026-04-09T10:11:08Z</time></trkpt><trkpt lat="42.40020123943947" lon="2.880357707000106"><ele>95.0</ele><time>2026-04-09T10:11:09Z</time></trkpt><trkpt lat="42.40009307288816" lon="2.880406078593736"><ele>95.0</ele><time>2026-04-09T10:11:10Z</time></trkpt><trkpt lat="42.39999396168411" lon="2.8804513071469358"><ele>95.0</ele><time>2026-04-09T10:11:11Z</time></trkpt><trkpt lat="42.39989950366839" lon="2.8804922502666654"><ele>95.0</ele><time>2026-04-09T10:11:12Z</time></trkpt><trkpt lat="42.3998114535517" lon="2.8805309225828886"><ele>95.0</ele><time>2026-04-09T10:11:13Z</time></trkpt><trkpt lat="42.399733679776894" lon="2.8805646389799677"><ele>95.0</ele><time>2026-04-09T10:11:14Z</time></trkpt><trkpt lat="42.399663450959" lon="2.8805928467648596"><ele>95.0</ele><time>2026-04-09T10:11:15Z</time></trkpt><trkpt lat="42.39959587976089" lon="2.8806218892500954"><ele>95.0</ele><time>2026-04-09T10:11:16Z</time></trkpt><trkpt lat="42.399534341947515" lon="2.880644361478207"><ele>95.0</ele><time>2026-04-09T10:11:17Z</time></trkpt><trkpt lat="42.39945130013968" lon="2.88067890403454"><ele>95.0</ele><time>2026-04-09T10:11:19Z</time></trkpt><trkpt lat="42.39938237580062" lon="2.8807059265727957"><ele>95.0</ele><time>2026-04-09T10:11:31Z</time></trkpt><trkpt lat="42.39931702875014" lon="2.8807356068604792"><ele>94.71428571428572</ele><time>2026-04-09T10:11:40Z</time></trkpt><trkpt lat="42.399233290477646" lon="2.8807686138327036"><ele>94.42857142857143</ele><time>2026-04-09T10:11:47Z</time></trkpt><trkpt lat="42.39916547111334" lon="2.880800520624742"><ele>94.14285714285714</ele><time>2026-04-09T10:11:50Z</time></trkpt><trkpt lat="42.39909594536444" lon="2.8808306939697514"><ele>93.85714285714286</ele><time>2026-04-09T10:11:54Z</time></trkpt><trkpt lat="42.3990313676676" lon="2.8808591975313145"><ele>93.57142857142857</ele><time>2026-04-09T10:11:57Z</time></trkpt><trkpt lat="42.39895990674596" lon="2.880893428380091"><ele>93.28571428571429</ele><time>2026-04-09T10:12:00Z</time></trkpt><trkpt lat="42.39889191077559" lon="2.8809235513151266"><ele>93.0</ele><time>2026-04-09T10:12:04Z</time></trkpt><trkpt lat="42.398815366542514" lon="2.8809445294867913"><ele>92.5</ele><time>2026-04-09T10:12:16Z</time></trkpt><trkpt lat="42.39874985273824" lon="2.8809498234274753"><ele>92.0</ele><time>2026-04-09T10:12:21Z</time></trkpt><trkpt lat="42.398687077438375" lon="2.8809312329717445"><ele>91.5</ele><time>2026-04-09T10:13:24Z</time></trkpt><trkpt lat="42.398618056535426" lon="2.8809247114523804"><ele>91.0</ele><time>2026-04-09T10:13:32Z</time></trkpt><trkpt lat="42.398545806662725" lon="2.8809041682565657"><ele>90.5</ele><time>2026-04-09T10:13:35Z</time></trkpt><trkpt lat="42.398452586768705" lon="2.880863315594795"><ele>90.0</ele><time>2026-04-09T10:13:38Z</time></trkpt><trkpt lat="42.39832109221317" lon="2.8808254230833206"><ele>90.0</ele><time>2026-04-09T10:13:40Z</time></trkpt><trkpt lat="42.39824509076581" lon="2.88082793507058"><ele>90.0</ele><time>2026-04-09T10:13:41Z</time></trkpt><trkpt lat="42.398153328921104" lon="2.8808481219483544"><ele>90.0</ele><time>2026-04-09T10:13:42Z</time></trkpt><trkpt lat="42.398103041251204" lon="2.880973457740494"><ele>90.0</ele><time>2026-04-09T10:13:44Z</time></trkpt><trkpt lat="42.398068540246165" lon="2.881061478665902"><ele>90.0</ele><time>2026-04-09T10:13:45Z</time></trkpt><trkpt lat="42.39804850135072" lon="2.8811609975903"><ele>90.0</ele><time>2026-04-09T10:13:46Z</time></trkpt><trkpt lat="42.398049193825685" lon="2.8812673455998543"><ele>90.0</ele><time>2026-04-09T10:13:47Z</time></trkpt><trkpt lat="42.398072297763335" lon="2.881366528699855"><ele>90.0</ele><time>2026-04-09T10:13:48Z</time></trkpt><trkpt lat="42.39811638798928" lon="2.8814547100644248"><ele>90.0</ele><time>2026-04-09T10:13:49Z</time></trkpt><trkpt lat="42.39817990731028" lon="2.8815246986814174"><ele>90.0</ele><time>2026-04-09T10:13:50Z</time></trkpt><trkpt lat="42.39825105620839" lon="2.881581339452328"><ele>90.0</ele><time>2026-04-09T10:13:51Z</time></trkpt><trkpt lat="42.398321945732796" lon="2.8816229262217803"><ele>90.0</ele><time>2026-04-09T10:13:52Z</time></trkpt><trkpt lat="42.3983809618652" lon="2.8816610197174284"><ele>90.0</ele><time>2026-04-09T10:13:53Z</time></trkpt><trkpt lat="42.39845100105924" lon="2.8817647672672746"><ele>90.0</ele><time>2026-04-09T10:13:55Z</time></trkpt><trkpt lat="42.398465751192845" lon="2.8818811736136434"><ele>90.0</ele><time>2026-04-09T10:13:57Z</time></trkpt><trkpt lat="42.398415498299286" lon="2.8819761502597037"><ele>90.0</ele><time>2026-04-09T10:13:59Z</time></trkpt><trkpt lat="42.398320724388824" lon="2.8820218326251283"><ele>90.0</ele><time>2026-04-09T10:14:01Z</time></trkpt><trkpt lat="42.39823373074603" lon="2.882055615881171"><ele>90.16666666666667</ele><time>2026-04-09T10:14:03Z</time></trkpt><trkpt lat="42.398157089688276" lon="2.8820881619343908"><ele>90.33333333333333</ele><time>2026-04-09T10:14:05Z</time></trkpt><trkpt lat="42.398082977649885" lon="2.882122200822197"><ele>90.5</ele><time>2026-04-09T10:14:07Z</time></trkpt><trkpt lat="42.398000849758674" lon="2.8821550536462492"><ele>90.66666666666666</ele><time>2026-04-09T10:14:09Z</time></trkpt><trkpt lat="42.397922561868704" lon="2.8821933257698196"><ele>90.83333333333333</ele><time>2026-04-09T10:14:11Z</time></trkpt><trkpt lat="42.3978499785126" lon="2.8822263405530117"><ele>91.0</ele><time>2026-04-09T10:14:13Z</time></trkpt><trkpt lat="42.39779024053108" lon="2.882260903465372"><ele>91.0</ele><time>2026-04-09T10:14:15Z</time></trkpt><trkpt lat="42.397716219195644" lon="2.8822956710828103"><ele>91.0</ele><time>2026-04-09T10:14:18Z</time></trkpt><trkpt lat="42.39763781570307" lon="2.8823279882643567"><ele>91.0</ele><time>2026-04-09T10:14:31Z</time></trkpt><trkpt lat="42.39755277349244" lon="2.882366248710925"><ele>91.0</ele><time>2026-04-09T10:14:34Z</time></trkpt><trkpt lat="42.39748171301829" lon="2.8823977786886825"><ele>91.0</ele><time>2026-04-09T10:14:36Z</time></trkpt><trkpt lat="42.39741444762918" lon="2.8824289525710687"><ele>91.0</ele><time>2026-04-09T10:14:38Z</time></trkpt><trkpt lat="42.39732769198763" lon="2.882441788433532"><ele>91.0</ele><time>2026-04-09T10:14:41Z</time></trkpt><trkpt lat="42.3972715959196" lon="2.882362325143697"><ele>91.0</ele><time>2026-04-09T10:14:44Z</time></trkpt><trkpt lat="42.39728176547939" lon="2.882256651497155"><ele>91.0</ele><time>2026-04-09T10:14:47Z</time></trkpt><trkpt lat="42.39734914449374" lon="2.8822131981238277"><ele>91.0</ele><time>2026-04-09T10:14:50Z</time></trkpt><trkpt lat="42.3974215447319" lon="2.8821910585413018"><ele>91.0</ele><time>2026-04-09T10:14:54Z</time></trkpt><trkpt lat="42.39748290748022" lon="2.8821670069573364"><ele>91.0</ele><time>2026-04-09T10:15:01Z</time></trkpt><trkpt lat="42.39755023246924" lon="2.882139436160207"><ele>91.0</ele><time>2026-04-09T10:15:05Z</time></trkpt><trkpt lat="42.39761365994143" lon="2.8821081496735506"><ele>91.0</ele><time>2026-04-09T10:15:08Z</time></trkpt><trkpt lat="42.397677801715076" lon="2.8820814010301214"><ele>91.0</ele><time>2026-04-09T10:15:11Z</time></trkpt><trkpt lat="42.39774008658434" lon="2.88205426262042"><ele>91.0</ele><time>2026-04-09T10:15:14Z</time></trkpt><trkpt lat="42.397807829166425" lon="2.881993265280147"><ele>91.0</ele><time>2026-04-09T10:15:18Z</time></trkpt></trkseg><trkseg><trkpt lat="42.397838677529265" lon="2.8819699435651382"><ele>91.0</ele><time>2026-04-09T11:17:33Z</time></trkpt><trkpt lat="42.39790338810993" lon="2.8819434941122233"><ele>91.0</ele><time>2026-04-09T11:17:38Z</time></trkpt><trkpt lat="42.39797651076123" lon="2.8819142458611915"><ele>91.0</ele><time>2026-04-09T11:17:43Z</time></trkpt><trkpt lat="42.398040177053225" lon="2.8818890766137453"><ele>91.0</ele><time>2026-04-09T11:17:46Z</time></trkpt><trkpt lat="42.398110629136994" lon="2.8818576127321442"><ele>91.0</ele><time>2026-04-09T11:17:49Z</time></trkpt><trkpt lat="42.39818312743441" lon="2.881879413924242"><ele>91.0</ele><time>2026-04-09T11:17:52Z</time></trkpt><trkpt lat="42.39822209942401" lon="2.8819478269661984"><ele>91.0</ele><time>2026-04-09T11:17:55Z</time></trkpt><trkpt lat="42.39827661262959" lon="2.8820252922488954"><ele>90.85714285714286</ele><time>2026-04-09T11:18:01Z</time></trkpt><trkpt lat="42.39835156086098" lon="2.882018373049878"><ele>90.71428571428572</ele><time>2026-04-09T11:18:03Z</time></trkpt><trkpt lat="42.39842170680921" lon="2.8819837768084486"><ele>90.57142857142857</ele><time>2026-04-09T11:18:05Z</time></trkpt><trkpt lat="42.398495177351236" lon="2.8819538536166602"><ele>90.42857142857143</ele><time>2026-04-09T11:18:15Z</time></trkpt><trkpt lat="42.39854697767375" lon="2.881891334408498"><ele>90.28571428571429</ele><time>2026-04-09T11:18:18Z</time></trkpt><trkpt lat="42.39854666171328" lon="2.881793248763611"><ele>90.14285714285714</ele><time>2026-04-09T11:18:20Z</time></trkpt><trkpt lat="42.398534074764484" lon="2.881708412713387"><ele>90.0</ele><time>2026-04-09T11:18:22Z</time></trkpt><trkpt lat="42.3985297842483" lon="2.88161326738252"><ele>90.0</ele><time>2026-04-09T11:18:37Z</time></trkpt><trkpt lat="42.39855830016327" lon="2.881502173627641"><ele>90.0</ele><time>2026-04-09T11:18:40Z</time></trkpt><trkpt lat="42.39861662328491" lon="2.881402990437077"><ele>90.0</ele><time>2026-04-09T11:18:42Z</time></trkpt><trkpt lat="42.39867428944657" lon="2.881276426146806"><ele>90.0</ele><time>2026-04-09T11:18:44Z</time></trkpt><trkpt lat="42.39875848269989" lon="2.8811408393809916"><ele>90.0</ele><time>2026-04-09T11:18:46Z</time></trkpt><trkpt lat="42.39881582224003" lon="2.881079528155308"><ele>90.5</ele><time>2026-04-09T11:18:47Z</time></trkpt><trkpt lat="42.398882459921595" lon="2.8810307509028394"><ele>91.0</ele><time>2026-04-09T11:18:48Z</time></trkpt><trkpt lat="42.39893767083909" lon="2.8809664399287107"><ele>91.5</ele><time>2026-04-09T11:18:49Z</time></trkpt><trkpt lat="42.3990410630023" lon="2.8809585838747855"><ele>92.0</ele><time>2026-04-09T11:18:50Z</time></trkpt><trkpt lat="42.399125162062724" lon="2.880923817473552"><ele>92.5</ele><time>2026-04-09T11:18:51Z</time></trkpt><trkpt lat="42.39921002507018" lon="2.8808879413947817"><ele>93.0</ele><time>2026-04-09T11:18:52Z</time></trkpt><trkpt lat="42.39929981647013" lon="2.8808502385136494"><ele>93.0</ele><time>2026-04-09T11:18:53Z</time></trkpt><trkpt lat="42.399390961244414" lon="2.880809137390444"><ele>93.0</ele><time>2026-04-09T11:18:54Z</time></trkpt><trkpt lat="42.3994835282818" lon="2.8807681983179245"><ele>93.0</ele><time>2026-04-09T11:18:55Z</time></trkpt><trkpt lat="42.39958059510747" lon="2.8807266837438754"><ele>93.0</ele><time>2026-04-09T11:18:56Z</time></trkpt><trkpt lat="42.39967667745844" lon="2.8806835945949683"><ele>93.0</ele><time>2026-04-09T11:18:57Z</time></trkpt><trkpt lat="42.39977472598351" lon="2.880641002318685"><ele>93.5</ele><time>2026-04-09T11:18:58Z</time></trkpt><trkpt lat="42.399878643669346" lon="2.8805945385684333"><ele>94.0</ele><time>2026-04-09T11:18:59Z</time></trkpt><trkpt lat="42.399988205329635" lon="2.8805455983111607"><ele>94.5</ele><time>2026-04-09T11:19:00Z</time></trkpt><trkpt lat="42.40010289611728" lon="2.880496186765681"><ele>95.0</ele><time>2026-04-09T11:19:01Z</time></trkpt><trkpt lat="42.40021963766748" lon="2.8804451517161604"><ele>95.0</ele><time>2026-04-09T11:19:02Z</time></trkpt><trkpt lat="42.40033844886388" lon="2.88039355578813"><ele>95.0</ele><time>2026-04-09T11:19:03Z</time></trkpt><trkpt lat="42.400454267520836" lon="2.8803435503177464"><ele>95.0</ele><time>2026-04-09T11:19:04Z</time></trkpt><trkpt lat="42.40056543980325" lon="2.8802946260274043"><ele>95.0</ele><time>2026-04-09T11:19:05Z</time></trkpt><trkpt lat="42.40067535432054" lon="2.8802486465124604"><ele>95.0</ele><time>2026-04-09T11:19:06Z</time></trkpt><trkpt lat="42.40078534119908" lon="2.8802005455359154"><ele>95.0</ele><time>2026-04-09T11:19:07Z</time></trkpt><trkpt lat="42.40089515681281" lon="2.8801529804791195"><ele>95.0</ele><time>2026-04-09T11:19:08Z</time></trkpt><trkpt lat="42.40100322136497" lon="2.880106808008161"><ele>95.0</ele><time>2026-04-09T11:19:09Z</time></trkpt><trkpt lat="42.40110986086376" lon="2.880059702245916"><ele>95.0</ele><time>2026-04-09T11:19:10Z</time></trkpt><trkpt lat="42.401217561650576" lon="2.8800146059243756"><ele>95.0</ele><time>2026-04-09T11:19:11Z</time></trkpt><trkpt lat="42.401324141249724" lon="2.879969951547596"><ele>95.0</ele><time>2026-04-09T11:19:12Z</time></trkpt><trkpt lat="42.4014306307739" lon="2.8799240065636837"><ele>95.0</ele><time>2026-04-09T11:19:13Z</time></trkpt><trkpt lat="42.40153859161347" lon="2.8798779759401536"><ele>95.0</ele><time>2026-04-09T11:19:14Z</time></trkpt><trkpt lat="42.401645764650624" lon="2.87983491057449"><ele>94.8</ele><time>2026-04-09T11:19:15Z</time></trkpt><trkpt lat="42.40175222368056" lon="2.879790818299538"><ele>94.6</ele><time>2026-04-09T11:19:16Z</time></trkpt><trkpt lat="42.40185803331804" lon="2.8797472530089925"><ele>94.4</ele><time>2026-04-09T11:19:17Z</time></trkpt><trkpt lat="42.40196448605778" lon="2.8797047865630896"><ele>94.2</ele><time>2026-04-09T11:19:18Z</time></trkpt><trkpt lat="42.40207038299994" lon="2.879663558692987"><ele>94.0</ele><time>2026-04-09T11:19:19Z</time></trkpt><trkpt lat="42.40217713371293" lon="2.879621149439293"><ele>94.6</ele><time>2026-04-09T11:19:20Z</time></trkpt><trkpt lat="42.40228310808199" lon="2.8795790440917894"><ele>95.2</ele><time>2026-04-09T11:19:21Z</time></trkpt><trkpt lat="42.40239009398792" lon="2.8795392710972414"><ele>95.8</ele><time>2026-04-09T11:19:22Z</time></trkpt><trkpt lat="42.402495874824865" lon="2.879502034785498"><ele>96.39999999999999</ele><time>2026-04-09T11:19:23Z</time></trkpt><trkpt lat="42.402602372270586" lon="2.8794632991086617"><ele>97.0</ele><time>2026-04-09T11:19:24Z</time></trkpt><trkpt lat="42.4027089488875" lon="2.879426636725748"><ele>97.0</ele><time>2026-04-09T11:19:25Z</time></trkpt><trkpt lat="42.40281532069649" lon="2.879389676054397"><ele>97.0</ele><time>2026-04-09T11:19:26Z</time></trkpt><trkpt lat="42.40292148016077" lon="2.8793529641611175"><ele>97.0</ele><time>2026-04-09T11:19:27Z</time></trkpt><trkpt lat="42.40302669023428" lon="2.879315449027681"><ele>97.0</ele><time>2026-04-09T11:19:28Z</time></trkpt><trkpt lat="42.403131249326876" lon="2.8792794507610013"><ele>97.0</ele><time>2026-04-09T11:19:29Z</time></trkpt><trkpt lat="42.40323560680463" lon="2.879244633109489"><ele>96.8</ele><time>2026-04-09T11:19:30Z</time></trkpt><trkpt lat="42.40333768014193" lon="2.879208490625335"><ele>96.6</ele><time>2026-04-09T11:19:31Z</time></trkpt><trkpt lat="42.40343632931953" lon="2.8791695117441387"><ele>96.39999999999999</ele><time>2026-04-09T11:19:32Z</time></trkpt><trkpt lat="42.403530806921225" lon="2.879128609104695"><ele>96.19999999999999</ele><time>2026-04-09T11:19:33Z</time></trkpt><trkpt lat="42.40362337892015" lon="2.8790874595960227"><ele>96.0</ele><time>2026-04-09T11:19:34Z</time></trkpt><trkpt lat="42.40370685046435" lon="2.879049708843811"><ele>96.0</ele><time>2026-04-09T11:19:35Z</time></trkpt><trkpt lat="42.403784783315494" lon="2.8790227830751167"><ele>96.0</ele><time>2026-04-09T11:19:36Z</time></trkpt><trkpt lat="42.40385655473359" lon="2.8790083750618036"><ele>96.0</ele><time>2026-04-09T11:19:37Z</time></trkpt><trkpt lat="42.403927667253775" lon="2.879006799052802"><ele>96.0</ele><time>2026-04-09T11:19:38Z</time></trkpt><trkpt lat="42.404000338315925" lon="2.879020682979881"><ele>96.0</ele><time>2026-04-09T11:19:39Z</time></trkpt><trkpt lat="42.404079527336954" lon="2.8790554631640464"><ele>96.0</ele><time>2026-04-09T11:19:40Z</time></trkpt><trkpt lat="42.404153850343185" lon="2.8791052423840724"><ele>96.42857142857142</ele><time>2026-04-09T11:19:41Z</time></trkpt><trkpt lat="42.40421114026516" lon="2.879145361111258"><ele>96.85714285714286</ele><time>2026-04-09T11:19:42Z</time></trkpt><trkpt lat="42.404285382065424" lon="2.8791710658947367"><ele>97.28571428571428</ele><time>2026-04-09T11:19:43Z</time></trkpt><trkpt lat="42.40435505392435" lon="2.879178711127213"><ele>97.71428571428571</ele><time>2026-04-09T11:19:44Z</time></trkpt><trkpt lat="42.40442180452993" lon="2.879166466175318"><ele>98.14285714285714</ele><time>2026-04-09T11:19:45Z</time></trkpt><trkpt lat="42.404489244354586" lon="2.8791317828993424"><ele>98.57142857142857</ele><time>2026-04-09T11:19:46Z</time></trkpt><trkpt lat="42.40454886487553" lon="2.879074555346269"><ele>99.0</ele><time>2026-04-09T11:19:47Z</time></trkpt><trkpt lat="42.40459343929649" lon="2.8790044953489047"><ele>99.0</ele><time>2026-04-09T11:19:48Z</time></trkpt><trkpt lat="42.404626856083524" lon="2.8789181884135644"><ele>99.0</ele><time>2026-04-09T11:19:49Z</time></trkpt><trkpt lat="42.404643051540496" lon="2.8788226601891513"><ele>99.0</ele><time>2026-04-09T11:19:50Z</time></trkpt><trkpt lat="42.40464219246152" lon="2.8787218247177244"><ele>99.0</ele><time>2026-04-09T11:19:51Z</time></trkpt><trkpt lat="42.40462361968984" lon="2.8786260814635796"><ele>99.0</ele><time>2026-04-09T11:19:52Z</time></trkpt><trkpt lat="42.404585190725186" lon="2.8785397719728048"><ele>99.0</ele><time>2026-04-09T11:19:53Z</time></trkpt><trkpt lat="42.4045326311683" lon="2.878470896368684"><ele>99.0</ele><time>2026-04-09T11:19:54Z</time></trkpt><trkpt lat="42.4044626059041" lon="2.878415725845837"><ele>98.6</ele><time>2026-04-09T11:19:55Z</time></trkpt><trkpt lat="42.40439454348037" lon="2.8783580242910825"><ele>98.2</ele><time>2026-04-09T11:19:56Z</time></trkpt><trkpt lat="42.40432290012021" lon="2.878291245843722"><ele>97.8</ele><time>2026-04-09T11:19:57Z</time></trkpt><trkpt lat="42.40426213337046" lon="2.8782086796238064"><ele>97.39999999999999</ele><time>2026-04-09T11:19:58Z</time></trkpt><trkpt lat="42.404185953228655" lon="2.8779938540430963"><ele>97.0</ele><time>2026-04-09T11:20:00Z</time></trkpt><trkpt lat="42.40416176083925" lon="2.8778688559586083"><ele>97.00000000000001</ele><time>2026-04-09T11:20:01Z</time></trkpt><trkpt lat="42.404138445387346" lon="2.8777583260103863"><ele>97.0</ele><time>2026-04-09T11:20:02Z</time></trkpt><trkpt lat="42.40412089007696" lon="2.877668704933915"><ele>97.0</ele><time>2026-04-09T11:20:03Z</time></trkpt><trkpt lat="42.40409699166993" lon="2.877510708466508"><ele>97.0</ele><time>2026-04-09T11:20:05Z</time></trkpt><trkpt lat="42.40409299333213" lon="2.877423687783529"><ele>97.00000000000001</ele><time>2026-04-09T11:20:06Z</time></trkpt><trkpt lat="42.404086930206354" lon="2.8773319211252613"><ele>97.0</ele><time>2026-04-09T11:20:07Z</time></trkpt><trkpt lat="42.40406764843289" lon="2.877236195738573"><ele>96.71428571428571</ele><time>2026-04-09T11:20:08Z</time></trkpt><trkpt lat="42.404045652938414" lon="2.8771346868076026"><ele>96.42857142857143</ele><time>2026-04-09T11:20:09Z</time></trkpt><trkpt lat="42.40402443090723" lon="2.877035680107655"><ele>96.14285714285714</ele><time>2026-04-09T11:20:10Z</time></trkpt><trkpt lat="42.404000479935654" lon="2.8769455571214686"><ele>95.85714285714286</ele><time>2026-04-09T11:20:11Z</time></trkpt><trkpt lat="42.40396048808626" lon="2.8768650877509545"><ele>95.57142857142858</ele><time>2026-04-09T11:20:12Z</time></trkpt><trkpt lat="42.40391349500918" lon="2.876792448516041"><ele>95.28571428571429</ele><time>2026-04-09T11:20:13Z</time></trkpt><trkpt lat="42.4038655934208" lon="2.8767216489279046"><ele>95.0</ele><time>2026-04-09T11:20:14Z</time></trkpt><trkpt lat="42.40382929406327" lon="2.8766290087326776"><ele>94.2</ele><time>2026-04-09T11:20:15Z</time></trkpt><trkpt lat="42.403804230992115" lon="2.876526401711989"><ele>93.4</ele><time>2026-04-09T11:20:16Z</time></trkpt><trkpt lat="42.40377802705975" lon="2.8764163116893915"><ele>92.6</ele><time>2026-04-09T11:20:17Z</time></trkpt><trkpt lat="42.40374976088721" lon="2.876298276685106"><ele>91.8</ele><time>2026-04-09T11:20:18Z</time></trkpt><trkpt lat="42.403720185843795" lon="2.8761712455702613"><ele>91.0</ele><time>2026-04-09T11:20:19Z</time></trkpt><trkpt lat="42.40369004163679" lon="2.8760347636026515"><ele>91.25</ele><time>2026-04-09T11:20:20Z</time></trkpt><trkpt lat="42.40365741356655" lon="2.8758916751213284"><ele>91.5</ele><time>2026-04-09T11:20:21Z</time></trkpt><trkpt lat="42.403623040325684" lon="2.875739070044346"><ele>91.75</ele><time>2026-04-09T11:20:22Z</time></trkpt><trkpt lat="42.40358317841644" lon="2.8755793566579846"><ele>92.0</ele><time>2026-04-09T11:20:23Z</time></trkpt><trkpt lat="42.403543432406494" lon="2.8754117115280167"><ele>92.0</ele><time>2026-04-09T11:20:24Z</time></trkpt><trkpt lat="42.40350363447121" lon="2.8752403232510355"><ele>92.0</ele><time>2026-04-09T11:20:25Z</time></trkpt><trkpt lat="42.403463242724065" lon="2.8750664970003816"><ele>92.0</ele><time>2026-04-09T11:20:26Z</time></trkpt><trkpt lat="42.40341884330076" lon="2.874886698245923"><ele>92.0</ele><time>2026-04-09T11:20:27Z</time></trkpt><trkpt lat="42.403372379773685" lon="2.874703092997554"><ele>92.75</ele><time>2026-04-09T11:20:28Z</time></trkpt><trkpt lat="42.403325962912426" lon="2.8745265516241623"><ele>93.5</ele><time>2026-04-09T11:20:29Z</time></trkpt><trkpt lat="42.40328162570779" lon="2.8743500184849995"><ele>94.25</ele><time>2026-04-09T11:20:30Z</time></trkpt><trkpt lat="42.40323785155716" lon="2.874176862512991"><ele>95.0</ele><time>2026-04-09T11:20:31Z</time></trkpt><trkpt lat="42.40320132643566" lon="2.874001894565115"><ele>95.25</ele><time>2026-04-09T11:20:32Z</time></trkpt><trkpt lat="42.40317091538016" lon="2.87381246495178"><ele>95.5</ele><time>2026-04-09T11:20:33Z</time></trkpt><trkpt lat="42.40315038770621" lon="2.8736262322569286"><ele>95.75</ele><time>2026-04-09T11:20:34Z</time></trkpt><trkpt lat="42.40314001042766" lon="2.873437275062942"><ele>96.0</ele><time>2026-04-09T11:20:35Z</time></trkpt><trkpt lat="42.40313785518631" lon="2.8732470366583054"><ele>96.25</ele><time>2026-04-09T11:20:36Z</time></trkpt><trkpt lat="42.40315117456391" lon="2.8730582733833505"><ele>96.5</ele><time>2026-04-09T11:20:37Z</time></trkpt><trkpt lat="42.403172056289414" lon="2.8728706926358725"><ele>96.75</ele><time>2026-04-09T11:20:38Z</time></trkpt><trkpt lat="42.403192051842424" lon="2.8726848753238228"><ele>97.0</ele><time>2026-04-09T11:20:39Z</time></trkpt><trkpt lat="42.40320854313939" lon="2.8725007520853447"><ele>97.25</ele><time>2026-04-09T11:20:40Z</time></trkpt><trkpt lat="42.4032202060127" lon="2.872315680842077"><ele>97.5</ele><time>2026-04-09T11:20:41Z</time></trkpt><trkpt lat="42.4032225983156" lon="2.872127974887565"><ele>97.75</ele><time>2026-04-09T11:20:42Z</time></trkpt><trkpt lat="42.40321379475055" lon="2.87194091824669"><ele>98.0</ele><time>2026-04-09T11:20:43Z</time></trkpt><trkpt lat="42.403192463733085" lon="2.8717604245333335"><ele>99.25</ele><time>2026-04-09T11:20:44Z</time></trkpt><trkpt lat="42.40315901568998" lon="2.871580425390734"><ele>100.5</ele><time>2026-04-09T11:20:45Z</time></trkpt><trkpt lat="42.40311503481747" lon="2.8714039639236177"><ele>101.75</ele><time>2026-04-09T11:20:46Z</time></trkpt><trkpt lat="42.40306007557976" lon="2.871235505293113"><ele>103.0</ele><time>2026-04-09T11:20:47Z</time></trkpt><trkpt lat="42.40299971063106" lon="2.8710692529808832"><ele>104.5</ele><time>2026-04-09T11:20:48Z</time></trkpt><trkpt lat="42.40293835475722" lon="2.870903938098618"><ele>106.0</ele><time>2026-04-09T11:20:49Z</time></trkpt><trkpt lat="42.402872470207484" lon="2.870739259508435"><ele>107.5</ele><time>2026-04-09T11:20:50Z</time></trkpt><trkpt lat="42.402804322255314" lon="2.870573910465299"><ele>109.0</ele><time>2026-04-09T11:20:51Z</time></trkpt><trkpt lat="42.402735923632214" lon="2.870405240033594"><ele>109.0</ele><time>2026-04-09T11:20:52Z</time></trkpt><trkpt lat="42.40266778157381" lon="2.8702438670117325"><ele>109.0</ele><time>2026-04-09T11:20:53Z</time></trkpt><trkpt lat="42.40259951451436" lon="2.8700734644462345"><ele>109.0</ele><time>2026-04-09T11:20:54Z</time></trkpt><trkpt lat="42.402531928605974" lon="2.869901524936669"><ele>109.0</ele><time>2026-04-09T11:20:55Z</time></trkpt><trkpt lat="42.40245610860717" lon="2.8697190809817417"><ele>109.33333333333334</ele><time>2026-04-09T11:20:56Z</time></trkpt><trkpt lat="42.40237391659398" lon="2.869551114644936"><ele>109.66666666666666</ele><time>2026-04-09T11:20:57Z</time></trkpt><trkpt lat="42.40228416580177" lon="2.869389243133867"><ele>110.0</ele><time>2026-04-09T11:20:58Z</time></trkpt><trkpt lat="42.402189108568194" lon="2.869228649631016"><ele>109.33333333333333</ele><time>2026-04-09T11:20:59Z</time></trkpt><trkpt lat="42.40209492874247" lon="2.869069293551169"><ele>108.66666666666666</ele><time>2026-04-09T11:21:00Z</time></trkpt><trkpt lat="42.40200060467082" lon="2.868910209657685"><ele>108.0</ele><time>2026-04-09T11:21:01Z</time></trkpt><trkpt lat="42.40190613677708" lon="2.8687509405823"><ele>108.0</ele><time>2026-04-09T11:21:02Z</time></trkpt><trkpt lat="42.4018116247367" lon="2.868591122283445"><ele>108.0</ele><time>2026-04-09T11:21:03Z</time></trkpt><trkpt lat="42.4017170712425" lon="2.8684318441885384"><ele>108.0</ele><time>2026-04-09T11:21:04Z</time></trkpt><trkpt lat="42.40162388717204" lon="2.868271382689277"><ele>108.66666666666666</ele><time>2026-04-09T11:21:05Z</time></trkpt><trkpt lat="42.40152592474562" lon="2.868115806371187"><ele>109.33333333333333</ele><time>2026-04-09T11:21:06Z</time></trkpt><trkpt lat="42.40142998905978" lon="2.867960055286868"><ele>110.0</ele><time>2026-04-09T11:21:07Z</time></trkpt><trkpt lat="42.40133289934289" lon="2.8678033270543666"><ele>110.66666666666666</ele><time>2026-04-09T11:21:08Z</time></trkpt><trkpt lat="42.40123714822026" lon="2.8676464784907885"><ele>111.33333333333334</ele><time>2026-04-09T11:21:09Z</time></trkpt><trkpt lat="42.40114121154227" lon="2.8674883477959137"><ele>112.0</ele><time>2026-04-09T11:21:10Z</time></trkpt><trkpt lat="42.401044884603074" lon="2.8673308391406023"><ele>113.33333333333334</ele><time>2026-04-09T11:21:11Z</time></trkpt><trkpt lat="42.400949322619645" lon="2.867174352532558"><ele>114.66666666666666</ele><time>2026-04-09T11:21:12Z</time></trkpt><trkpt lat="42.40085221034797" lon="2.8670132539106574"><ele>116.0</ele><time>2026-04-09T11:21:13Z</time></trkpt><trkpt lat="42.4007554618048" lon="2.866852577160087"><ele>115.66666666666666</ele><time>2026-04-09T11:21:14Z</time></trkpt><trkpt lat="42.400657755764485" lon="2.866688361956364"><ele>115.33333333333334</ele><time>2026-04-09T11:21:15Z</time></trkpt><trkpt lat="42.400559340199294" lon="2.8665196211217836"><ele>115.0</ele><time>2026-04-09T11:21:16Z</time></trkpt><trkpt lat="42.40046035351531" lon="2.86635177581573"><ele>115.66666666666667</ele><time>2026-04-09T11:21:17Z</time></trkpt><trkpt lat="42.40036096699168" lon="2.8661848384001987"><ele>116.33333333333334</ele><time>2026-04-09T11:21:18Z</time></trkpt><trkpt lat="42.40026138843971" lon="2.8660171261155445"><ele>117.0</ele><time>2026-04-09T11:21:19Z</time></trkpt><trkpt lat="42.40016117580368" lon="2.8658493612671507"><ele>117.33333333333334</ele><time>2026-04-09T11:21:20Z</time></trkpt><trkpt lat="42.40006022474449" lon="2.8656821380326503"><ele>117.66666666666667</ele><time>2026-04-09T11:21:21Z</time></trkpt><trkpt lat="42.399958902871745" lon="2.865514864072653"><ele>118.0</ele><time>2026-04-09T11:21:22Z</time></trkpt><trkpt lat="42.399858207540355" lon="2.865346453440052"><ele>118.0</ele><time>2026-04-09T11:21:23Z</time></trkpt><trkpt lat="42.39975468556821" lon="2.8651773380185355"><ele>118.0</ele><time>2026-04-09T11:21:24Z</time></trkpt><trkpt lat="42.39965012167311" lon="2.865006752364057"><ele>118.0</ele><time>2026-04-09T11:21:25Z</time></trkpt><trkpt lat="42.39954618347316" lon="2.8648343870642634"><ele>119.33333333333334</ele><time>2026-04-09T11:21:26Z</time></trkpt><trkpt lat="42.3994417581891" lon="2.8646611581134684"><ele>120.66666666666666</ele><time>2026-04-09T11:21:27Z</time></trkpt><trkpt lat="42.399336148401126" lon="2.8644873331888094"><ele>122.0</ele><time>2026-04-09T11:21:28Z</time></trkpt><trkpt lat="42.399230294517395" lon="2.8643119978079308"><ele>123.66666666666666</ele><time>2026-04-09T11:21:29Z</time></trkpt><trkpt lat="42.39912491157135" lon="2.8641365823703238"><ele>125.33333333333334</ele><time>2026-04-09T11:21:30Z</time></trkpt><trkpt lat="42.39902032697335" lon="2.8639613163072766"><ele>127.0</ele><time>2026-04-09T11:21:31Z</time></trkpt><trkpt lat="42.39891703870776" lon="2.863788271741419"><ele>128.33333333333334</ele><time>2026-04-09T11:21:32Z</time></trkpt><trkpt lat="42.3988138346241" lon="2.863616418061927"><ele>129.66666666666666</ele><time>2026-04-09T11:21:33Z</time></trkpt><trkpt lat="42.39870888267263" lon="2.8634464380978035"><ele>131.0</ele><time>2026-04-09T11:21:34Z</time></trkpt><trkpt lat="42.39860471973395" lon="2.8632765227790875"><ele>131.66666666666666</ele><time>2026-04-09T11:21:35Z</time></trkpt><trkpt lat="42.39850165773533" lon="2.8631033736656675"><ele>132.33333333333334</ele><time>2026-04-09T11:21:36Z</time></trkpt><trkpt lat="42.39839729599625" lon="2.862928283149999"><ele>133.0</ele><time>2026-04-09T11:21:37Z</time></trkpt><trkpt lat="42.398292874208785" lon="2.862753552831286"><ele>133.66666666666669</ele><time>2026-04-09T11:21:38Z</time></trkpt><trkpt lat="42.398187099970954" lon="2.862578618818558"><ele>134.33333333333334</ele><time>2026-04-09T11:21:39Z</time></trkpt><trkpt lat="42.39808168615822" lon="2.8624039222904947"><ele>135.0</ele><time>2026-04-09T11:21:40Z</time></trkpt><trkpt lat="42.39797527057248" lon="2.862228326102025"><ele>135.0</ele><time>2026-04-09T11:21:41Z</time></trkpt><trkpt lat="42.39786834265735" lon="2.862050724085352"><ele>135.0</ele><time>2026-04-09T11:21:42Z</time></trkpt><trkpt lat="42.39776259252673" lon="2.8618731833213418"><ele>135.0</ele><time>2026-04-09T11:21:43Z</time></trkpt><trkpt lat="42.397655280621514" lon="2.8616933930045856"><ele>134.66666666666666</ele><time>2026-04-09T11:21:44Z</time></trkpt><trkpt lat="42.39754683734591" lon="2.8615131477084588"><ele>134.33333333333331</ele><time>2026-04-09T11:21:45Z</time></trkpt><trkpt lat="42.39743809997155" lon="2.8613323988498838"><ele>134.0</ele><time>2026-04-09T11:21:46Z</time></trkpt><trkpt lat="42.3973288996075" lon="2.8611510029322873"><ele>134.0</ele><time>2026-04-09T11:21:47Z</time></trkpt><trkpt lat="42.39722054278614" lon="2.8609681411074375"><ele>134.0</ele><time>2026-04-09T11:21:48Z</time></trkpt><trkpt lat="42.39711082760986" lon="2.860784591418237"><ele>134.0</ele><time>2026-04-09T11:21:49Z</time></trkpt><trkpt lat="42.396999855498265" lon="2.860597826524531"><ele>134.33333333333331</ele><time>2026-04-09T11:21:50Z</time></trkpt><trkpt lat="42.39688947516462" lon="2.8604148861078564"><ele>134.66666666666666</ele><time>2026-04-09T11:21:51Z</time></trkpt><trkpt lat="42.39677961867195" lon="2.860231293545921"><ele>135.0</ele><time>2026-04-09T11:21:52Z</time></trkpt><trkpt lat="42.396669430931404" lon="2.8600473217241342"><ele>135.0</ele><time>2026-04-09T11:21:53Z</time></trkpt><trkpt lat="42.39655626481751" lon="2.8598669531492202"><ele>135.0</ele><time>2026-04-09T11:21:54Z</time></trkpt><trkpt lat="42.396444106714604" lon="2.859683814500045"><ele>135.0</ele><time>2026-04-09T11:21:55Z</time></trkpt><trkpt lat="42.39633371371769" lon="2.8594994063122794"><ele>133.33333333333334</ele><time>2026-04-09T11:21:56Z</time></trkpt><trkpt lat="42.39622106540414" lon="2.8593130357377725"><ele>131.66666666666669</ele><time>2026-04-09T11:21:57Z</time></trkpt><trkpt lat="42.396110696045575" lon="2.859129256586844"><ele>130.0</ele><time>2026-04-09T11:21:58Z</time></trkpt><trkpt lat="42.39600014951611" lon="2.8589445905764785"><ele>130.0</ele><time>2026-04-09T11:21:59Z</time></trkpt><trkpt lat="42.395890749063845" lon="2.8587605003274734"><ele>130.0</ele><time>2026-04-09T11:22:00Z</time></trkpt><trkpt lat="42.39578048806592" lon="2.85857491974745"><ele>130.0</ele><time>2026-04-09T11:22:01Z</time></trkpt><trkpt lat="42.39567230629671" lon="2.8583951495931643"><ele>130.0</ele><time>2026-04-09T11:22:02Z</time></trkpt><trkpt lat="42.39556489114476" lon="2.85821708681711"><ele>130.0</ele><time>2026-04-09T11:22:03Z</time></trkpt><trkpt lat="42.39545727505399" lon="2.8580408380907656"><ele>130.0</ele><time>2026-04-09T11:22:04Z</time></trkpt><trkpt lat="42.39535053096245" lon="2.8578675102193265"><ele>129.66666666666669</ele><time>2026-04-09T11:22:05Z</time></trkpt><trkpt lat="42.39524749587983" lon="2.8576960942714105"><ele>129.33333333333334</ele><time>2026-04-09T11:22:06Z</time></trkpt><trkpt lat="42.39515274683022" lon="2.8575334792770297"><ele>129.0</ele><time>2026-04-09T11:22:07Z</time></trkpt><trkpt lat="42.395069426493635" lon="2.8573717484052423"><ele>131.0</ele><time>2026-04-09T11:22:08Z</time></trkpt><trkpt lat="42.39501002509299" lon="2.857201156912236"><ele>133.0</ele><time>2026-04-09T11:22:09Z</time></trkpt><trkpt lat="42.39497733448506" lon="2.8570185299258744"><ele>135.0</ele><time>2026-04-09T11:22:10Z</time></trkpt><trkpt lat="42.394957911142605" lon="2.8568241544519593"><ele>137.0</ele><time>2026-04-09T11:22:11Z</time></trkpt><trkpt lat="42.394942942299515" lon="2.856629623061151"><ele>137.75</ele><time>2026-04-09T11:22:12Z</time></trkpt><trkpt lat="42.39492864881387" lon="2.8564322179998825"><ele>138.5</ele><time>2026-04-09T11:22:13Z</time></trkpt><trkpt lat="42.39491254886538" lon="2.85623247917128"><ele>139.25</ele><time>2026-04-09T11:22:14Z</time></trkpt><trkpt lat="42.39489712913817" lon="2.8560300687371605"><ele>140.0</ele><time>2026-04-09T11:22:15Z</time></trkpt><trkpt lat="42.39488033990051" lon="2.8558242816343866"><ele>140.0</ele><time>2026-04-09T11:22:16Z</time></trkpt><trkpt lat="42.39486435304792" lon="2.8556167747450973"><ele>140.0</ele><time>2026-04-09T11:22:17Z</time></trkpt><trkpt lat="42.394845689884775" lon="2.855405544645108"><ele>140.0</ele><time>2026-04-09T11:22:18Z</time></trkpt><trkpt lat="42.39482677094905" lon="2.85519037617673"><ele>140.33333333333331</ele><time>2026-04-09T11:22:19Z</time></trkpt><trkpt lat="42.39480977924787" lon="2.854973224288583"><ele>140.66666666666666</ele><time>2026-04-09T11:22:20Z</time></trkpt><trkpt lat="42.39479368770834" lon="2.8547568673280055"><ele>141.0</ele><time>2026-04-09T11:22:21Z</time></trkpt><trkpt lat="42.39477628692182" lon="2.8545480865312536"><ele>141.0</ele><time>2026-04-09T11:22:22Z</time></trkpt><trkpt lat="42.39476022207733" lon="2.854350152820774"><ele>141.0</ele><time>2026-04-09T11:22:23Z</time></trkpt><trkpt lat="42.39474523874229" lon="2.8541631858376704"><ele>141.0</ele><time>2026-04-09T11:22:24Z</time></trkpt><trkpt lat="42.394731589221756" lon="2.853988959330905"><ele>141.0</ele><time>2026-04-09T11:22:25Z</time></trkpt><trkpt lat="42.39472342018107" lon="2.853815245642382"><ele>141.75</ele><time>2026-04-09T11:22:26Z</time></trkpt><trkpt lat="42.3947362691987" lon="2.853638818377216"><ele>142.5</ele><time>2026-04-09T11:22:27Z</time></trkpt><trkpt lat="42.394786112538405" lon="2.8534574879231176"><ele>143.25</ele><time>2026-04-09T11:22:28Z</time></trkpt><trkpt lat="42.39485820091541" lon="2.8533298640547415"><ele>144.0</ele><time>2026-04-09T11:22:29Z</time></trkpt><trkpt lat="42.39495381893121" lon="2.8531981420272636"><ele>144.0</ele><time>2026-04-09T11:22:30Z</time></trkpt><trkpt lat="42.395058256233725" lon="2.8530747964729657"><ele>144.0</ele><time>2026-04-09T11:22:31Z</time></trkpt><trkpt lat="42.39516800252593" lon="2.852946518857722"><ele>144.0</ele><time>2026-04-09T11:22:32Z</time></trkpt><trkpt lat="42.395276467627674" lon="2.852812002404488"><ele>144.0</ele><time>2026-04-09T11:22:33Z</time></trkpt><trkpt lat="42.39538069137782" lon="2.8526828291502877"><ele>143.4</ele><time>2026-04-09T11:22:34Z</time></trkpt><trkpt lat="42.39547618526492" lon="2.8525612048751805"><ele>142.8</ele><time>2026-04-09T11:22:35Z</time></trkpt><trkpt lat="42.395556156603995" lon="2.8524540382981685"><ele>142.2</ele><time>2026-04-09T11:22:36Z</time></trkpt><trkpt lat="42.39560926159131" lon="2.8523403864180588"><ele>141.6</ele><time>2026-04-09T11:22:37Z</time></trkpt><trkpt lat="42.39562723211539" lon="2.852215412502829"><ele>141.0</ele><time>2026-04-09T11:22:38Z</time></trkpt><trkpt lat="42.395596333051316" lon="2.852094955563995"><ele>141.0</ele><time>2026-04-09T11:22:39Z</time></trkpt><trkpt lat="42.39553846346106" lon="2.8519920002408905"><ele>141.0</ele><time>2026-04-09T11:22:40Z</time></trkpt><trkpt lat="42.39545696892323" lon="2.851922852509206"><ele>141.0</ele><time>2026-04-09T11:22:41Z</time></trkpt><trkpt lat="42.39536800159097" lon="2.8518548608291927"><ele>141.0</ele><time>2026-04-09T11:22:42Z</time></trkpt><trkpt lat="42.39527832266138" lon="2.8517843030899837"><ele>141.0</ele><time>2026-04-09T11:22:43Z</time></trkpt><trkpt lat="42.395181594440025" lon="2.8517116008333803"><ele>142.0</ele><time>2026-04-09T11:22:44Z</time></trkpt><trkpt lat="42.39508851370857" lon="2.8516321061484744"><ele>143.0</ele><time>2026-04-09T11:22:45Z</time></trkpt><trkpt lat="42.39498817503085" lon="2.851555244038129"><ele>144.0</ele><time>2026-04-09T11:22:46Z</time></trkpt><trkpt lat="42.39489660199368" lon="2.8514669117716043"><ele>145.0</ele><time>2026-04-09T11:22:47Z</time></trkpt><trkpt lat="42.39482051713179" lon="2.851361745938905"><ele>146.0</ele><time>2026-04-09T11:22:48Z</time></trkpt><trkpt lat="42.39477090713112" lon="2.8512329294491487"><ele>146.0</ele><time>2026-04-09T11:22:49Z</time></trkpt><trkpt lat="42.39474939404573" lon="2.8510828965812136"><ele>146.0</ele><time>2026-04-09T11:22:50Z</time></trkpt><trkpt lat="42.39475893740049" lon="2.850934010583343"><ele>146.0</ele><time>2026-04-09T11:22:51Z</time></trkpt><trkpt lat="42.394802314193" lon="2.8508018198739467"><ele>146.0</ele><time>2026-04-09T11:22:52Z</time></trkpt><trkpt lat="42.39487110287604" lon="2.8506815943511743"><ele>146.0</ele><time>2026-04-09T11:22:53Z</time></trkpt><trkpt lat="42.39496180404807" lon="2.8505805766732193"><ele>146.25</ele><time>2026-04-09T11:22:54Z</time></trkpt><trkpt lat="42.39506096084954" lon="2.85048246683199"><ele>146.5</ele><time>2026-04-09T11:22:55Z</time></trkpt><trkpt lat="42.39516415791881" lon="2.850385416746059"><ele>146.75</ele><time>2026-04-09T11:22:56Z</time></trkpt><trkpt lat="42.39526892559675" lon="2.8502758297750304"><ele>147.0</ele><time>2026-04-09T11:22:57Z</time></trkpt><trkpt lat="42.39538061850714" lon="2.850170743108789"><ele>146.25</ele><time>2026-04-09T11:22:58Z</time></trkpt><trkpt lat="42.39548921256452" lon="2.850059435021999"><ele>145.5</ele><time>2026-04-09T11:22:59Z</time></trkpt><trkpt lat="42.39559762413141" lon="2.8499499799998023"><ele>144.75</ele><time>2026-04-09T11:23:00Z</time></trkpt><trkpt lat="42.395705488827" lon="2.8498455125923776"><ele>144.0</ele><time>2026-04-09T11:23:01Z</time></trkpt><trkpt lat="42.39580630840359" lon="2.8497284931713627"><ele>144.0</ele><time>2026-04-09T11:23:02Z</time></trkpt><trkpt lat="42.39589566640447" lon="2.8496017406869187"><ele>144.0</ele><time>2026-04-09T11:23:03Z</time></trkpt><trkpt lat="42.395976773045334" lon="2.849478158458663"><ele>144.0</ele><time>2026-04-09T11:23:04Z</time></trkpt><trkpt lat="42.39605647018618" lon="2.84936670986984"><ele>144.0</ele><time>2026-04-09T11:23:05Z</time></trkpt><trkpt lat="42.39612906280158" lon="2.84926418518554"><ele>142.83333333333334</ele><time>2026-04-09T11:23:06Z</time></trkpt><trkpt lat="42.39619670477905" lon="2.8491715485015408"><ele>141.66666666666666</ele><time>2026-04-09T11:23:07Z</time></trkpt><trkpt lat="42.39625306996193" lon="2.849076752822072"><ele>140.5</ele><time>2026-04-09T11:23:08Z</time></trkpt><trkpt lat="42.39629446563744" lon="2.8489770171027775"><ele>139.33333333333331</ele><time>2026-04-09T11:23:09Z</time></trkpt><trkpt lat="42.39630830193804" lon="2.848870106673416"><ele>138.16666666666666</ele><time>2026-04-09T11:23:10Z</time></trkpt><trkpt lat="42.39629237231089" lon="2.8487635597107275"><ele>137.0</ele><time>2026-04-09T11:23:11Z</time></trkpt><trkpt lat="42.39625040924989" lon="2.8486750333703625"><ele>137.0</ele><time>2026-04-09T11:23:12Z</time></trkpt><trkpt lat="42.396188472643004" lon="2.8486136017108996"><ele>137.0</ele><time>2026-04-09T11:23:13Z</time></trkpt><trkpt lat="42.39612747198431" lon="2.8485428699313626"><ele>137.0</ele><time>2026-04-09T11:23:14Z</time></trkpt><trkpt lat="42.39606723171025" lon="2.8484635415491795"><ele>137.0</ele><time>2026-04-09T11:23:15Z</time></trkpt><trkpt lat="42.39600451774742" lon="2.8483851357602097"><ele>137.0</ele><time>2026-04-09T11:23:16Z</time></trkpt><trkpt lat="42.39594216538882" lon="2.8483079308387573"><ele>137.0</ele><time>2026-04-09T11:23:17Z</time></trkpt><trkpt lat="42.395880227100484" lon="2.848232014511429"><ele>137.0</ele><time>2026-04-09T11:23:18Z</time></trkpt><trkpt lat="42.395813547517626" lon="2.848166502240244"><ele>137.0</ele><time>2026-04-09T11:23:19Z</time></trkpt><trkpt lat="42.39573439941409" lon="2.8481271234851007"><ele>137.0</ele><time>2026-04-09T11:23:20Z</time></trkpt><trkpt lat="42.395646960517254" lon="2.8481191357325946"><ele>137.0</ele><time>2026-04-09T11:23:21Z</time></trkpt><trkpt lat="42.395559909467856" lon="2.848106258023174"><ele>137.0</ele><time>2026-04-09T11:23:22Z</time></trkpt><trkpt lat="42.39547382087222" lon="2.8480934947933125"><ele>137.0</ele><time>2026-04-09T11:23:23Z</time></trkpt><trkpt lat="42.39539456109437" lon="2.8481054587024226"><ele>136.66666666666666</ele><time>2026-04-09T11:23:24Z</time></trkpt><trkpt lat="42.39532375843758" lon="2.8481529941679096"><ele>136.33333333333331</ele><time>2026-04-09T11:23:25Z</time></trkpt><trkpt lat="42.39526731412297" lon="2.8482260580856673"><ele>136.0</ele><time>2026-04-09T11:23:26Z</time></trkpt><trkpt lat="42.39520614841413" lon="2.8482991218163036"><ele>135.66666666666666</ele><time>2026-04-09T11:23:27Z</time></trkpt><trkpt lat="42.395146420243606" lon="2.8483736212226494"><ele>135.33333333333334</ele><time>2026-04-09T11:23:28Z</time></trkpt><trkpt lat="42.39508084151708" lon="2.848445133689911"><ele>135.0</ele><time>2026-04-09T11:23:29Z</time></trkpt><trkpt lat="42.39501782747381" lon="2.8485196770024444"><ele>135.0</ele><time>2026-04-09T11:23:30Z</time></trkpt><trkpt lat="42.39495414557637" lon="2.8485943568765637"><ele>135.0</ele><time>2026-04-09T11:23:31Z</time></trkpt><trkpt lat="42.39488856252673" lon="2.848659093122961"><ele>135.0</ele><time>2026-04-09T11:23:32Z</time></trkpt><trkpt lat="42.39481852086" lon="2.848690679216716"><ele>135.0</ele><time>2026-04-09T11:23:33Z</time></trkpt><trkpt lat="42.39474746271961" lon="2.84867522330254"><ele>135.0</ele><time>2026-04-09T11:23:34Z</time></trkpt><trkpt lat="42.39468853296811" lon="2.848632628592265"><ele>135.0</ele><time>2026-04-09T11:23:35Z</time></trkpt><trkpt lat="42.394632201803475" lon="2.8484787980823003"><ele>136.57142857142856</ele><time>2026-04-09T11:23:37Z</time></trkpt><trkpt lat="42.39464021273755" lon="2.8483940060883226"><ele>138.14285714285714</ele><time>2026-04-09T11:23:38Z</time></trkpt><trkpt lat="42.39467186599959" lon="2.8483141932107254"><ele>139.71428571428572</ele><time>2026-04-09T11:23:39Z</time></trkpt><trkpt lat="42.39471829636603" lon="2.8482386873232186"><ele>141.28571428571428</ele><time>2026-04-09T11:23:40Z</time></trkpt><trkpt lat="42.39476534816282" lon="2.8481612324816825"><ele>142.85714285714286</ele><time>2026-04-09T11:23:41Z</time></trkpt><trkpt lat="42.394811973990464" lon="2.848077984108871"><ele>144.42857142857142</ele><time>2026-04-09T11:23:42Z</time></trkpt><trkpt lat="42.3948593384374" lon="2.847994295241456"><ele>146.0</ele><time>2026-04-09T11:23:43Z</time></trkpt><trkpt lat="42.39490505535458" lon="2.8479131515860487"><ele>146.0</ele><time>2026-04-09T11:23:44Z</time></trkpt><trkpt lat="42.39494806830772" lon="2.8478351668142303"><ele>146.0</ele><time>2026-04-09T11:23:45Z</time></trkpt><trkpt lat="42.39499099673806" lon="2.847758040327799"><ele>146.0</ele><time>2026-04-09T11:23:46Z</time></trkpt><trkpt lat="42.39503697668051" lon="2.847684600712756"><ele>146.0</ele><time>2026-04-09T11:23:47Z</time></trkpt><trkpt lat="42.39508056253053" lon="2.847613028635848"><ele>146.0</ele><time>2026-04-09T11:23:48Z</time></trkpt><trkpt lat="42.395165474601406" lon="2.8475069798771586"><ele>146.0</ele><time>2026-04-09T11:23:50Z</time></trkpt><trkpt lat="42.39522192622519" lon="2.8474221974836564"><ele>147.75</ele><time>2026-04-09T11:23:52Z</time></trkpt><trkpt lat="42.395115025379255" lon="2.847289361087831"><ele>149.5</ele><time>2026-04-09T11:23:56Z</time></trkpt><trkpt lat="42.395006181836415" lon="2.8472736715424105"><ele>151.25</ele><time>2026-04-09T11:23:58Z</time></trkpt><trkpt lat="42.39489339776781" lon="2.847269632800067"><ele>153.0</ele><time>2026-04-09T11:24:00Z</time></trkpt><trkpt lat="42.394767849565454" lon="2.8472645416468887"><ele>153.0</ele><time>2026-04-09T11:24:02Z</time></trkpt><trkpt lat="42.39470131895429" lon="2.8472605959862753"><ele>153.0</ele><time>2026-04-09T11:24:03Z</time></trkpt><trkpt lat="42.39463786320279" lon="2.8472568326789056"><ele>153.0</ele><time>2026-04-09T11:24:04Z</time></trkpt><trkpt lat="42.3945311729283" lon="2.8472690760255026"><ele>153.0</ele><time>2026-04-09T11:24:06Z</time></trkpt><trkpt lat="42.39443248891902" lon="2.8472525041916477"><ele>153.0</ele><time>2026-04-09T11:24:08Z</time></trkpt><trkpt lat="42.394336491361656" lon="2.8472442746580713"><ele>153.0</ele><time>2026-04-09T11:24:10Z</time></trkpt><trkpt lat="42.39421666703641" lon="2.84724820663567"><ele>153.8</ele><time>2026-04-09T11:24:12Z</time></trkpt><trkpt lat="42.39409961175709" lon="2.8472498031808158"><ele>154.60000000000002</ele><time>2026-04-09T11:24:14Z</time></trkpt><trkpt lat="42.39399157695313" lon="2.8472347199247072"><ele>155.39999999999998</ele><time>2026-04-09T11:24:16Z</time></trkpt><trkpt lat="42.39391065053402" lon="2.847235044393634"><ele>156.2</ele><time>2026-04-09T11:24:18Z</time></trkpt><trkpt lat="42.39384183286717" lon="2.847235438616976"><ele>157.0</ele><time>2026-04-09T11:24:20Z</time></trkpt><trkpt lat="42.39375805087241" lon="2.847201209109401"><ele>157.7142857142857</ele><time>2026-04-09T11:24:23Z</time></trkpt><trkpt lat="42.39375371944794" lon="2.847114784520747"><ele>158.42857142857142</ele><time>2026-04-09T11:24:24Z</time></trkpt><trkpt lat="42.39375730674369" lon="2.8470049823222654"><ele>159.14285714285714</ele><time>2026-04-09T11:24:26Z</time></trkpt><trkpt lat="42.39376073703765" lon="2.8469063432222805"><ele>159.85714285714283</ele><time>2026-04-09T11:24:28Z</time></trkpt><trkpt lat="42.39369230803186" lon="2.846824885875707"><ele>160.57142857142856</ele><time>2026-04-09T11:24:31Z</time></trkpt><trkpt lat="42.393622594518135" lon="2.84681325234968"><ele>161.28571428571428</ele><time>2026-04-09T11:24:33Z</time></trkpt><trkpt lat="42.393554245049955" lon="2.8468202899309833"><ele>162.0</ele><time>2026-04-09T11:24:35Z</time></trkpt><trkpt lat="42.39348913510777" lon="2.8468237805500087"><ele>162.0</ele><time>2026-04-09T11:24:37Z</time></trkpt><trkpt lat="42.393399632230285" lon="2.8468369348910136"><ele>162.0</ele><time>2026-04-09T11:24:40Z</time></trkpt><trkpt lat="42.39332385955695" lon="2.8468414741093677"><ele>162.0</ele><time>2026-04-09T11:24:43Z</time></trkpt><trkpt lat="42.393257928214716" lon="2.846671434099862"><ele>162.0</ele><time>2026-04-09T11:24:50Z</time></trkpt><trkpt lat="42.39323687750363" lon="2.8465835454334387"><ele>162.0</ele><time>2026-04-09T11:24:52Z</time></trkpt><trkpt lat="42.39321366296011" lon="2.8464947739024615"><ele>162.0</ele><time>2026-04-09T11:24:54Z</time></trkpt><trkpt lat="42.393191886659075" lon="2.84640366459697"><ele>162.66666666666666</ele><time>2026-04-09T11:24:56Z</time></trkpt><trkpt lat="42.39316288782578" lon="2.8463093705360474"><ele>163.33333333333334</ele><time>2026-04-09T11:24:58Z</time></trkpt><trkpt lat="42.393141277096355" lon="2.846205610524177"><ele>164.0</ele><time>2026-04-09T11:25:00Z</time></trkpt><trkpt lat="42.39311738409193" lon="2.8461084456404295"><ele>164.66666666666669</ele><time>2026-04-09T11:25:02Z</time></trkpt><trkpt lat="42.39309635293275" lon="2.8460222591870603"><ele>165.33333333333334</ele><time>2026-04-09T11:25:04Z</time></trkpt><trkpt lat="42.393074153864504" lon="2.845929996085103"><ele>166.0</ele><time>2026-04-09T11:25:06Z</time></trkpt><trkpt lat="42.39304020504594" lon="2.8458310102376254"><ele>167.14285714285714</ele><time>2026-04-09T11:25:08Z</time></trkpt><trkpt lat="42.393016542530894" lon="2.8457301834477375"><ele>168.2857142857143</ele><time>2026-04-09T11:25:10Z</time></trkpt><trkpt lat="42.39299092676032" lon="2.8456325166676613"><ele>169.42857142857144</ele><time>2026-04-09T11:25:12Z</time></trkpt><trkpt lat="42.39296739218084" lon="2.845542494721832"><ele>170.57142857142856</ele><time>2026-04-09T11:25:14Z</time></trkpt><trkpt lat="42.392965099701954" lon="2.8454528520948763"><ele>171.71428571428572</ele><time>2026-04-09T11:25:17Z</time></trkpt><trkpt lat="42.393027062564556" lon="2.845404504452782"><ele>172.85714285714286</ele><time>2026-04-09T11:25:19Z</time></trkpt><trkpt lat="42.393066199458325" lon="2.845317123864704"><ele>174.0</ele><time>2026-04-09T11:25:21Z</time></trkpt><trkpt lat="42.39311444137652" lon="2.8452337669666474"><ele>174.0</ele><time>2026-04-09T11:25:23Z</time></trkpt><trkpt lat="42.393160988477035" lon="2.8451594519288808"><ele>174.0</ele><time>2026-04-09T11:25:25Z</time></trkpt><trkpt lat="42.39321221937614" lon="2.845080833668893"><ele>174.0</ele><time>2026-04-09T11:25:28Z</time></trkpt><trkpt lat="42.39315471365383" lon="2.844852535648958"><ele>174.0</ele><time>2026-04-09T11:25:41Z</time></trkpt><trkpt lat="42.39311378145039" lon="2.844779087816177"><ele>174.0</ele><time>2026-04-09T11:25:43Z</time></trkpt><trkpt lat="42.39307378871654" lon="2.844707325744971"><ele>174.66666666666666</ele><time>2026-04-09T11:25:45Z</time></trkpt><trkpt lat="42.39303496937943" lon="2.8446389716841374"><ele>175.33333333333334</ele><time>2026-04-09T11:25:47Z</time></trkpt><trkpt lat="42.39298066306806" lon="2.844544660670899"><ele>176.0</ele><time>2026-04-09T11:25:50Z</time></trkpt><trkpt lat="42.392923029077544" lon="2.844478326014929"><ele>176.66666666666669</ele><time>2026-04-09T11:25:53Z</time></trkpt><trkpt lat="42.39299032617023" lon="2.8444036635033045"><ele>177.33333333333334</ele><time>2026-04-09T11:25:56Z</time></trkpt><trkpt lat="42.39306528043306" lon="2.8443388322452834"><ele>178.0</ele><time>2026-04-09T11:25:58Z</time></trkpt><trkpt lat="42.39315620404204" lon="2.8442925065224967"><ele>178.2</ele><time>2026-04-09T11:26:00Z</time></trkpt><trkpt lat="42.39325700030554" lon="2.8442573060977394"><ele>178.4</ele><time>2026-04-09T11:26:02Z</time></trkpt><trkpt lat="42.3933653403911" lon="2.8442214170783333"><ele>178.6</ele><time>2026-04-09T11:26:04Z</time></trkpt><trkpt lat="42.39348540936475" lon="2.8441815546666587"><ele>178.79999999999998</ele><time>2026-04-09T11:26:06Z</time></trkpt><trkpt lat="42.3935457102633" lon="2.8441399042043534"><ele>179.0</ele><time>2026-04-09T11:26:07Z</time></trkpt><trkpt lat="42.3936598196476" lon="2.844107213592133"><ele>179.0</ele><time>2026-04-09T11:26:09Z</time></trkpt><trkpt lat="42.393734775393575" lon="2.844074832316121"><ele>179.0</ele><time>2026-04-09T11:26:11Z</time></trkpt><trkpt lat="42.3938064789968" lon="2.8440481471085026"><ele>179.0</ele><time>2026-04-09T11:26:13Z</time></trkpt><trkpt lat="42.39389077959314" lon="2.8440186726717895"><ele>179.0</ele><time>2026-04-09T11:26:16Z</time></trkpt><trkpt lat="42.393865820793586" lon="2.8438910142696963"><ele>179.0</ele><time>2026-04-09T11:26:17Z</time></trkpt><trkpt lat="42.39386250418603" lon="2.843772404361196"><ele>179.0</ele><time>2026-04-09T11:26:19Z</time></trkpt><trkpt lat="42.39386262138217" lon="2.843680713631621"><ele>177.79999999999998</ele><time>2026-04-09T11:26:21Z</time></trkpt><trkpt lat="42.39388626678848" lon="2.8435764354278157"><ele>176.6</ele><time>2026-04-09T11:26:24Z</time></trkpt><trkpt lat="42.39393125587265" lon="2.8434368403334283"><ele>175.4</ele><time>2026-04-09T11:26:29Z</time></trkpt><trkpt lat="42.39394127880926" lon="2.843283218194902"><ele>174.2</ele><time>2026-04-09T11:26:31Z</time></trkpt><trkpt lat="42.393945936086006" lon="2.8431820436998487"><ele>173.0</ele><time>2026-04-09T11:26:32Z</time></trkpt><trkpt lat="42.393951721899604" lon="2.8430749948095473"><ele>173.0</ele><time>2026-04-09T11:26:33Z</time></trkpt><trkpt lat="42.39395746133212" lon="2.8429649247241247"><ele>173.0</ele><time>2026-04-09T11:26:34Z</time></trkpt><trkpt lat="42.393967233822806" lon="2.8428600672070643"><ele>173.0</ele><time>2026-04-09T11:26:35Z</time></trkpt><trkpt lat="42.39400371588775" lon="2.842762633098866"><ele>173.0</ele><time>2026-04-09T11:26:36Z</time></trkpt><trkpt lat="42.39405748697918" lon="2.8426704680445276"><ele>173.0</ele><time>2026-04-09T11:26:37Z</time></trkpt><trkpt lat="42.39412299204649" lon="2.842578193219747"><ele>173.0</ele><time>2026-04-09T11:26:38Z</time></trkpt><trkpt lat="42.394195925620444" lon="2.842481720083124"><ele>174.60000000000002</ele><time>2026-04-09T11:26:39Z</time></trkpt><trkpt lat="42.39427683774237" lon="2.842382037782516"><ele>176.20000000000002</ele><time>2026-04-09T11:26:40Z</time></trkpt><trkpt lat="42.39436028564594" lon="2.842277934904609"><ele>177.8</ele><time>2026-04-09T11:26:41Z</time></trkpt><trkpt lat="42.39444445598617" lon="2.842182921298622"><ele>179.4</ele><time>2026-04-09T11:26:42Z</time></trkpt><trkpt lat="42.394522455736755" lon="2.842096514685129"><ele>181.0</ele><time>2026-04-09T11:26:43Z</time></trkpt><trkpt lat="42.394605026589176" lon="2.842028960712527"><ele>180.5</ele><time>2026-04-09T11:26:44Z</time></trkpt><trkpt lat="42.394690448396226" lon="2.8419756950930357"><ele>180.0</ele><time>2026-04-09T11:26:45Z</time></trkpt><trkpt lat="42.39476654345432" lon="2.841920464865303"><ele>179.5</ele><time>2026-04-09T11:26:46Z</time></trkpt><trkpt lat="42.39482311903091" lon="2.8418532053230416"><ele>179.0</ele><time>2026-04-09T11:26:47Z</time></trkpt><trkpt lat="42.39485739609143" lon="2.841772972662913"><ele>178.5</ele><time>2026-04-09T11:26:48Z</time></trkpt><trkpt lat="42.39485248478702" lon="2.841658371073042"><ele>178.0</ele><time>2026-04-09T11:26:49Z</time></trkpt><trkpt lat="42.39476165324193" lon="2.841534753301412"><ele>178.0</ele><time>2026-04-09T11:26:51Z</time></trkpt><trkpt lat="42.394682268279716" lon="2.841491797546266"><ele>178.0</ele><time>2026-04-09T11:26:52Z</time></trkpt><trkpt lat="42.39459643154614" lon="2.8414473048689124"><ele>178.0</ele><time>2026-04-09T11:26:53Z</time></trkpt><trkpt lat="42.39450297428575" lon="2.8413956902447626"><ele>178.0</ele><time>2026-04-09T11:26:54Z</time></trkpt><trkpt lat="42.39440159897468" lon="2.841340534879425"><ele>178.0</ele><time>2026-04-09T11:26:55Z</time></trkpt><trkpt lat="42.39431230669077" lon="2.841279109094397"><ele>179.2</ele><time>2026-04-09T11:26:56Z</time></trkpt><trkpt lat="42.39424708921807" lon="2.841191019843249"><ele>180.4</ele><time>2026-04-09T11:26:57Z</time></trkpt><trkpt lat="42.394213659942615" lon="2.841082121434062"><ele>181.6</ele><time>2026-04-09T11:26:58Z</time></trkpt><trkpt lat="42.3942379945068" lon="2.84096044264982"><ele>182.79999999999998</ele><time>2026-04-09T11:26:59Z</time></trkpt><trkpt lat="42.39426148032743" lon="2.8408430804533955"><ele>184.0</ele><time>2026-04-09T11:27:00Z</time></trkpt><trkpt lat="42.39427776803673" lon="2.8407119489705557"><ele>184.0</ele><time>2026-04-09T11:27:01Z</time></trkpt><trkpt lat="42.39431162985042" lon="2.8405801034122584"><ele>184.0</ele><time>2026-04-09T11:27:02Z</time></trkpt><trkpt lat="42.39434624247844" lon="2.84043856601594"><ele>184.0</ele><time>2026-04-09T11:27:03Z</time></trkpt><trkpt lat="42.394379923726795" lon="2.840299508938755"><ele>184.0</ele><time>2026-04-09T11:27:04Z</time></trkpt><trkpt lat="42.39441479465078" lon="2.8401599361772583"><ele>184.0</ele><time>2026-04-09T11:27:05Z</time></trkpt><trkpt lat="42.39445197707509" lon="2.8400151279558803"><ele>184.0</ele><time>2026-04-09T11:27:06Z</time></trkpt><trkpt lat="42.3944911155779" lon="2.839866791890945"><ele>184.0</ele><time>2026-04-09T11:27:07Z</time></trkpt><trkpt lat="42.39453032198557" lon="2.8397173439715875"><ele>184.0</ele><time>2026-04-09T11:27:08Z</time></trkpt><trkpt lat="42.39456845340159" lon="2.839567828076004"><ele>184.0</ele><time>2026-04-09T11:27:09Z</time></trkpt><trkpt lat="42.39459922120991" lon="2.839416580972318"><ele>185.5</ele><time>2026-04-09T11:27:10Z</time></trkpt><trkpt lat="42.394622686024945" lon="2.8392610443918964"><ele>187.0</ele><time>2026-04-09T11:27:11Z</time></trkpt><trkpt lat="42.394632530564756" lon="2.839104803669519"><ele>188.5</ele><time>2026-04-09T11:27:12Z</time></trkpt><trkpt lat="42.394629974303065" lon="2.8389457218497465"><ele>190.0</ele><time>2026-04-09T11:27:13Z</time></trkpt><trkpt lat="42.3946183871127" lon="2.8387864400702827"><ele>190.0</ele><time>2026-04-09T11:27:14Z</time></trkpt><trkpt lat="42.39459772774576" lon="2.838628891190108"><ele>190.0</ele><time>2026-04-09T11:27:15Z</time></trkpt><trkpt lat="42.394572565615064" lon="2.8384726906415993"><ele>190.0</ele><time>2026-04-09T11:27:16Z</time></trkpt><trkpt lat="42.39454594540281" lon="2.8383162525949004"><ele>190.0</ele><time>2026-04-09T11:27:17Z</time></trkpt><trkpt lat="42.39452358212418" lon="2.8381578113543386"><ele>191.5</ele><time>2026-04-09T11:27:18Z</time></trkpt><trkpt lat="42.39451066727315" lon="2.8379975233049732"><ele>193.0</ele><time>2026-04-09T11:27:19Z</time></trkpt><trkpt lat="42.39451043935757" lon="2.837837896380016"><ele>194.5</ele><time>2026-04-09T11:27:20Z</time></trkpt><trkpt lat="42.39452666146109" lon="2.8376807096981054"><ele>196.0</ele><time>2026-04-09T11:27:21Z</time></trkpt><trkpt lat="42.394562284354855" lon="2.8375302910159252"><ele>196.75</ele><time>2026-04-09T11:27:22Z</time></trkpt><trkpt lat="42.39461562943248" lon="2.8373899448174384"><ele>197.5</ele><time>2026-04-09T11:27:23Z</time></trkpt><trkpt lat="42.3946823933335" lon="2.837260722977689"><ele>198.25</ele><time>2026-04-09T11:27:24Z</time></trkpt><trkpt lat="42.394758489350785" lon="2.8371411868490526"><ele>199.0</ele><time>2026-04-09T11:27:25Z</time></trkpt><trkpt lat="42.394840686918634" lon="2.83702752757792"><ele>199.0</ele><time>2026-04-09T11:27:26Z</time></trkpt><trkpt lat="42.394921930801935" lon="2.836907953510228"><ele>199.0</ele><time>2026-04-09T11:27:27Z</time></trkpt><trkpt lat="42.39500374818612" lon="2.8367887570258876"><ele>199.0</ele><time>2026-04-09T11:27:28Z</time></trkpt><trkpt lat="42.39508631522284" lon="2.8366714624454086"><ele>199.0</ele><time>2026-04-09T11:27:29Z</time></trkpt><trkpt lat="42.395167415336665" lon="2.8365548697153855"><ele>200.5</ele><time>2026-04-09T11:27:30Z</time></trkpt><trkpt lat="42.395248070066806" lon="2.8364339380723185"><ele>202.0</ele><time>2026-04-09T11:27:31Z</time></trkpt><trkpt lat="42.3953235913315" lon="2.8363134733582336"><ele>203.5</ele><time>2026-04-09T11:27:32Z</time></trkpt><trkpt lat="42.395390518346225" lon="2.8361839349462734"><ele>205.0</ele><time>2026-04-09T11:27:33Z</time></trkpt><trkpt lat="42.395469675138806" lon="2.8360682655122558"><ele>207.0</ele><time>2026-04-09T11:27:34Z</time></trkpt><trkpt lat="42.39554326868871" lon="2.8359391376120096"><ele>209.0</ele><time>2026-04-09T11:27:35Z</time></trkpt><trkpt lat="42.39561702024399" lon="2.835809732473118"><ele>211.0</ele><time>2026-04-09T11:27:36Z</time></trkpt><trkpt lat="42.395631648829266" lon="2.835614921028441"><ele>213.0</ele><time>2026-04-09T11:27:37Z</time></trkpt><trkpt lat="42.39568316754157" lon="2.835465160265768"><ele>213.0</ele><time>2026-04-09T11:27:38Z</time></trkpt><trkpt lat="42.39573797028227" lon="2.8353142670666607"><ele>213.0</ele><time>2026-04-09T11:27:39Z</time></trkpt><trkpt lat="42.39578860922849" lon="2.835162311188482"><ele>213.0</ele><time>2026-04-09T11:27:40Z</time></trkpt><trkpt lat="42.395823992430394" lon="2.835001842270882"><ele>213.0</ele><time>2026-04-09T11:27:41Z</time></trkpt><trkpt lat="42.395842157666216" lon="2.834837248109367"><ele>213.5</ele><time>2026-04-09T11:27:42Z</time></trkpt><trkpt lat="42.39585053632329" lon="2.834664852488287"><ele>214.0</ele><time>2026-04-09T11:27:43Z</time></trkpt><trkpt lat="42.395847324584295" lon="2.834492124023977"><ele>214.5</ele><time>2026-04-09T11:27:44Z</time></trkpt><trkpt lat="42.395843730041896" lon="2.8343197815882353"><ele>215.0</ele><time>2026-04-09T11:27:45Z</time></trkpt><trkpt lat="42.39585299863056" lon="2.8341581709997223"><ele>216.75</ele><time>2026-04-09T11:27:46Z</time></trkpt><trkpt lat="42.39588386611568" lon="2.834004225542112"><ele>218.5</ele><time>2026-04-09T11:27:47Z</time></trkpt><trkpt lat="42.39593225300041" lon="2.833857835211152"><ele>220.25</ele><time>2026-04-09T11:27:48Z</time></trkpt><trkpt lat="42.39599601263953" lon="2.8337197380636625"><ele>222.0</ele><time>2026-04-09T11:27:49Z</time></trkpt><trkpt lat="42.39607232280246" lon="2.8335933697747278"><ele>222.0</ele><time>2026-04-09T11:27:50Z</time></trkpt><trkpt lat="42.39615669463787" lon="2.833477074303021"><ele>222.0</ele><time>2026-04-09T11:27:51Z</time></trkpt><trkpt lat="42.39624729653842" lon="2.8333761125391734"><ele>222.0</ele><time>2026-04-09T11:27:52Z</time></trkpt><trkpt lat="42.396349837242624" lon="2.8333015435666784"><ele>222.0</ele><time>2026-04-09T11:27:53Z</time></trkpt><trkpt lat="42.39645578781528" lon="2.8332672996322654"><ele>223.2</ele><time>2026-04-09T11:27:54Z</time></trkpt><trkpt lat="42.396559198591696" lon="2.833255783137128"><ele>224.39999999999998</ele><time>2026-04-09T11:27:55Z</time></trkpt><trkpt lat="42.396657186349884" lon="2.8332460245703945"><ele>225.60000000000002</ele><time>2026-04-09T11:27:56Z</time></trkpt><trkpt lat="42.396755338670175" lon="2.8332298998633307"><ele>226.8</ele><time>2026-04-09T11:27:57Z</time></trkpt><trkpt lat="42.39684581186068" lon="2.833180770370687"><ele>228.0</ele><time>2026-04-09T11:27:58Z</time></trkpt><trkpt lat="42.39692712081524" lon="2.833097714205897"><ele>228.0</ele><time>2026-04-09T11:27:59Z</time></trkpt><trkpt lat="42.39698866845562" lon="2.8330049177576098"><ele>228.0</ele><time>2026-04-09T11:28:00Z</time></trkpt><trkpt lat="42.39703975560157" lon="2.8328849597614787"><ele>228.0</ele><time>2026-04-09T11:28:01Z</time></trkpt><trkpt lat="42.39709196150445" lon="2.8327734146220616"><ele>228.0</ele><time>2026-04-09T11:28:02Z</time></trkpt><trkpt lat="42.39714692174291" lon="2.832661147155495"><ele>228.0</ele><time>2026-04-09T11:28:03Z</time></trkpt><trkpt lat="42.39720232100726" lon="2.832548582436899"><ele>229.60000000000002</ele><time>2026-04-09T11:28:04Z</time></trkpt><trkpt lat="42.39725681847914" lon="2.8324390114298885"><ele>231.20000000000002</ele><time>2026-04-09T11:28:05Z</time></trkpt><trkpt lat="42.39731603044107" lon="2.8323342298455487"><ele>232.8</ele><time>2026-04-09T11:28:06Z</time></trkpt><trkpt lat="42.39738860507862" lon="2.832248299897939"><ele>234.4</ele><time>2026-04-09T11:28:07Z</time></trkpt><trkpt lat="42.39748090709156" lon="2.832197754388149"><ele>236.0</ele><time>2026-04-09T11:28:08Z</time></trkpt><trkpt lat="42.39757730184467" lon="2.832160895430638"><ele>236.0</ele><time>2026-04-09T11:28:09Z</time></trkpt><trkpt lat="42.39767152621019" lon="2.832134104121218"><ele>236.00000000000003</ele><time>2026-04-09T11:28:10Z</time></trkpt><trkpt lat="42.39776541748708" lon="2.832103214499856"><ele>236.00000000000003</ele><time>2026-04-09T11:28:11Z</time></trkpt><trkpt lat="42.39785399606492" lon="2.8320496415273175"><ele>236.0</ele><time>2026-04-09T11:28:12Z</time></trkpt><trkpt lat="42.397928085475726" lon="2.8319660019895667"><ele>236.0</ele><time>2026-04-09T11:28:13Z</time></trkpt><trkpt lat="42.39798699316451" lon="2.831858818964055"><ele>238.4</ele><time>2026-04-09T11:28:14Z</time></trkpt><trkpt lat="42.39803164234837" lon="2.831741227828228"><ele>240.8</ele><time>2026-04-09T11:28:15Z</time></trkpt><trkpt lat="42.398073746099655" lon="2.831620249582919"><ele>243.20000000000002</ele><time>2026-04-09T11:28:16Z</time></trkpt><trkpt lat="42.398123471491324" lon="2.831509185611697"><ele>245.60000000000002</ele><time>2026-04-09T11:28:17Z</time></trkpt><trkpt lat="42.39819848464061" lon="2.8314250392369393"><ele>248.0</ele><time>2026-04-09T11:28:18Z</time></trkpt><trkpt lat="42.39828836832318" lon="2.8313739133106943"><ele>248.00000000000003</ele><time>2026-04-09T11:28:19Z</time></trkpt><trkpt lat="42.39838537265207" lon="2.831374358609845"><ele>248.0</ele><time>2026-04-09T11:28:20Z</time></trkpt><trkpt lat="42.39847240865152" lon="2.8313754152896897"><ele>248.0</ele><time>2026-04-09T11:28:21Z</time></trkpt><trkpt lat="42.39854892974724" lon="2.8313301157607884"><ele>248.0</ele><time>2026-04-09T11:28:22Z</time></trkpt><trkpt lat="42.39860305826654" lon="2.8312427241906395"><ele>248.00000000000003</ele><time>2026-04-09T11:28:23Z</time></trkpt><trkpt lat="42.39860475721639" lon="2.8311305151742063"><ele>248.0</ele><time>2026-04-09T11:28:24Z</time></trkpt><trkpt lat="42.39857804633035" lon="2.831037605471111"><ele>249.83333333333334</ele><time>2026-04-09T11:28:25Z</time></trkpt><trkpt lat="42.39853585798669" lon="2.8309576787095545"><ele>251.66666666666669</ele><time>2026-04-09T11:28:26Z</time></trkpt><trkpt lat="42.39848847719508" lon="2.8308729504028247"><ele>253.5</ele><time>2026-04-09T11:28:27Z</time></trkpt><trkpt lat="42.39844599846234" lon="2.830775747255803"><ele>255.33333333333331</ele><time>2026-04-09T11:28:28Z</time></trkpt><trkpt lat="42.39842073834435" lon="2.830667019485802"><ele>257.16666666666663</ele><time>2026-04-09T11:28:29Z</time></trkpt><trkpt lat="42.3984347803025" lon="2.8305660988918553"><ele>259.0</ele><time>2026-04-09T11:28:30Z</time></trkpt><trkpt lat="42.39848533912502" lon="2.8304939084621275"><ele>259.0</ele><time>2026-04-09T11:28:31Z</time></trkpt><trkpt lat="42.398565042123884" lon="2.830471060786842"><ele>259.0</ele><time>2026-04-09T11:28:32Z</time></trkpt><trkpt lat="42.39864598802544" lon="2.8304846525481633"><ele>259.0</ele><time>2026-04-09T11:28:33Z</time></trkpt><trkpt lat="42.398727647507435" lon="2.8304969480153424"><ele>259.0</ele><time>2026-04-09T11:28:34Z</time></trkpt><trkpt lat="42.39881529795621" lon="2.830483422779545"><ele>259.0</ele><time>2026-04-09T11:28:35Z</time></trkpt><trkpt lat="42.39890076430573" lon="2.8304357383151157"><ele>259.0</ele><time>2026-04-09T11:28:36Z</time></trkpt><trkpt lat="42.398980167851704" lon="2.8303603304248095"><ele>258.2</ele><time>2026-04-09T11:28:37Z</time></trkpt><trkpt lat="42.39905526777731" lon="2.8302636419561154"><ele>257.4</ele><time>2026-04-09T11:28:38Z</time></trkpt><trkpt lat="42.39913678954762" lon="2.830168483007212"><ele>256.6</ele><time>2026-04-09T11:28:39Z</time></trkpt><trkpt lat="42.399222036004176" lon="2.8300955562425663"><ele>255.8</ele><time>2026-04-09T11:28:40Z</time></trkpt><trkpt lat="42.39931607030663" lon="2.8300686655236307"><ele>255.0</ele><time>2026-04-09T11:28:41Z</time></trkpt><trkpt lat="42.39941083984251" lon="2.83007557280842"><ele>255.0</ele><time>2026-04-09T11:28:42Z</time></trkpt><trkpt lat="42.39949385160604" lon="2.8301480857094266"><ele>255.0</ele><time>2026-04-09T11:28:43Z</time></trkpt><trkpt lat="42.39955480895461" lon="2.8302601970664383"><ele>255.0</ele><time>2026-04-09T11:28:44Z</time></trkpt><trkpt lat="42.39960029475165" lon="2.8303924845307593"><ele>255.0</ele><time>2026-04-09T11:28:45Z</time></trkpt><trkpt lat="42.39963893401163" lon="2.830531452544841"><ele>255.0</ele><time>2026-04-09T11:28:46Z</time></trkpt><trkpt lat="42.39967661733635" lon="2.8306588983974432"><ele>258.0</ele><time>2026-04-09T11:28:47Z</time></trkpt><trkpt lat="42.39972605115488" lon="2.8307594050439993"><ele>261.0</ele><time>2026-04-09T11:28:48Z</time></trkpt><trkpt lat="42.39979680990372" lon="2.830813466750896"><ele>264.0</ele><time>2026-04-09T11:28:49Z</time></trkpt><trkpt lat="42.39988554340582" lon="2.8308255182161894"><ele>267.0</ele><time>2026-04-09T11:28:50Z</time></trkpt><trkpt lat="42.399980310930914" lon="2.830812499472529"><ele>270.0</ele><time>2026-04-09T11:28:51Z</time></trkpt><trkpt lat="42.400078211510646" lon="2.830786361120784"><ele>270.0</ele><time>2026-04-09T11:28:52Z</time></trkpt><trkpt lat="42.400182109119676" lon="2.8307585345061113"><ele>270.0</ele><time>2026-04-09T11:28:53Z</time></trkpt><trkpt lat="42.40028781474257" lon="2.830726860394152"><ele>270.0</ele><time>2026-04-09T11:28:54Z</time></trkpt><trkpt lat="42.40040051801059" lon="2.8306903914895885"><ele>270.0</ele><time>2026-04-09T11:28:55Z</time></trkpt><trkpt lat="42.40051886249275" lon="2.8306433782615543"><ele>271.25</ele><time>2026-04-09T11:28:56Z</time></trkpt><trkpt lat="42.400637096650875" lon="2.8305747360028075"><ele>272.5</ele><time>2026-04-09T11:28:57Z</time></trkpt><trkpt lat="42.40075671095158" lon="2.830487443822932"><ele>273.75</ele><time>2026-04-09T11:28:58Z</time></trkpt><trkpt lat="42.4008818848252" lon="2.830396998163"><ele>275.0</ele><time>2026-04-09T11:28:59Z</time></trkpt><trkpt lat="42.40100600319993" lon="2.8303008372399265"><ele>275.0</ele><time>2026-04-09T11:29:00Z</time></trkpt><trkpt lat="42.401125022193185" lon="2.8302154530404744"><ele>275.0</ele><time>2026-04-09T11:29:01Z</time></trkpt><trkpt lat="42.40124071638258" lon="2.8301286089594346"><ele>275.0</ele><time>2026-04-09T11:29:02Z</time></trkpt><trkpt lat="42.40134802305111" lon="2.8300412128860506"><ele>275.0</ele><time>2026-04-09T11:29:03Z</time></trkpt><trkpt lat="42.40143601934988" lon="2.829923965945428"><ele>276.5</ele><time>2026-04-09T11:29:04Z</time></trkpt><trkpt lat="42.401500497315425" lon="2.8297722147614426"><ele>278.0</ele><time>2026-04-09T11:29:05Z</time></trkpt><trkpt lat="42.401545269012956" lon="2.829608285799705"><ele>279.5</ele><time>2026-04-09T11:29:06Z</time></trkpt><trkpt lat="42.40159245697502" lon="2.829442572816494"><ele>281.0</ele><time>2026-04-09T11:29:07Z</time></trkpt><trkpt lat="42.401645708099444" lon="2.8292766284939646"><ele>281.75</ele><time>2026-04-09T11:29:08Z</time></trkpt><trkpt lat="42.40169953176619" lon="2.8291087965763384"><ele>282.5</ele><time>2026-04-09T11:29:09Z</time></trkpt><trkpt lat="42.401751891319776" lon="2.8289395825432995"><ele>283.25</ele><time>2026-04-09T11:29:10Z</time></trkpt><trkpt lat="42.4018071987461" lon="2.8287690373721026"><ele>284.0</ele><time>2026-04-09T11:29:11Z</time></trkpt><trkpt lat="42.40186095808485" lon="2.8285923698864974"><ele>285.5</ele><time>2026-04-09T11:29:12Z</time></trkpt><trkpt lat="42.40191827155268" lon="2.828415153780753"><ele>287.0</ele><time>2026-04-09T11:29:13Z</time></trkpt><trkpt lat="42.401968262286445" lon="2.8282483178194378"><ele>288.5</ele><time>2026-04-09T11:29:14Z</time></trkpt><trkpt lat="42.402018510327146" lon="2.8280890911549816"><ele>290.0</ele><time>2026-04-09T11:29:15Z</time></trkpt><trkpt lat="42.402063259363935" lon="2.827942781191934"><ele>290.0</ele><time>2026-04-09T11:29:16Z</time></trkpt><trkpt lat="42.40210275394317" lon="2.8278087193473302"><ele>290.0</ele><time>2026-04-09T11:29:17Z</time></trkpt><trkpt lat="42.402144491648066" lon="2.827679777457953"><ele>290.0</ele><time>2026-04-09T11:29:18Z</time></trkpt><trkpt lat="42.40220762685323" lon="2.8275671471326143"><ele>290.0</ele><time>2026-04-09T11:29:19Z</time></trkpt><trkpt lat="42.40229884725703" lon="2.827485798421251"><ele>290.0</ele><time>2026-04-09T11:29:20Z</time></trkpt><trkpt lat="42.40240183800396" lon="2.8274430722737915"><ele>291.2</ele><time>2026-04-09T11:29:21Z</time></trkpt><trkpt lat="42.402503334058096" lon="2.8273996639111227"><ele>292.4</ele><time>2026-04-09T11:29:22Z</time></trkpt><trkpt lat="42.40258665716272" lon="2.8273132048716882"><ele>293.6</ele><time>2026-04-09T11:29:23Z</time></trkpt><trkpt lat="42.40265217398858" lon="2.8271958716007743"><ele>294.8</ele><time>2026-04-09T11:29:24Z</time></trkpt><trkpt lat="42.402703128834204" lon="2.8270652507466596"><ele>296.0</ele><time>2026-04-09T11:29:25Z</time></trkpt><trkpt lat="42.40276018626462" lon="2.82693786301041"><ele>296.0</ele><time>2026-04-09T11:29:26Z</time></trkpt><trkpt lat="42.402823310162574" lon="2.8268147358889792"><ele>296.0</ele><time>2026-04-09T11:29:27Z</time></trkpt><trkpt lat="42.40290207254177" lon="2.826708254868639"><ele>296.0</ele><time>2026-04-09T11:29:28Z</time></trkpt><trkpt lat="42.40300008146869" lon="2.8266244324250542"><ele>296.0</ele><time>2026-04-09T11:29:29Z</time></trkpt><trkpt lat="42.40310788857039" lon="2.8265628799290075"><ele>297.5</ele><time>2026-04-09T11:29:30Z</time></trkpt><trkpt lat="42.40321349818113" lon="2.8265032188102746"><ele>299.0</ele><time>2026-04-09T11:29:31Z</time></trkpt><trkpt lat="42.40331996721418" lon="2.826436462595477"><ele>300.5</ele><time>2026-04-09T11:29:32Z</time></trkpt><trkpt lat="42.403426910095604" lon="2.826372244669224"><ele>302.0</ele><time>2026-04-09T11:29:33Z</time></trkpt><trkpt lat="42.40353904890751" lon="2.8263080969437406"><ele>302.0</ele><time>2026-04-09T11:29:34Z</time></trkpt><trkpt lat="42.40365239785698" lon="2.826242257603874"><ele>302.0</ele><time>2026-04-09T11:29:35Z</time></trkpt><trkpt lat="42.40376629349856" lon="2.826172503306098"><ele>302.0</ele><time>2026-04-09T11:29:36Z</time></trkpt><trkpt lat="42.4038755104203" lon="2.826094488476155"><ele>302.0</ele><time>2026-04-09T11:29:37Z</time></trkpt><trkpt lat="42.40397628315176" lon="2.8259912135663097"><ele>303.75</ele><time>2026-04-09T11:29:38Z</time></trkpt><trkpt lat="42.404066409497204" lon="2.825864333210075"><ele>305.5</ele><time>2026-04-09T11:29:39Z</time></trkpt><trkpt lat="42.40414830605054" lon="2.8257246124718396"><ele>307.25</ele><time>2026-04-09T11:29:40Z</time></trkpt><trkpt lat="42.40422341440546" lon="2.82558110861843"><ele>309.0</ele><time>2026-04-09T11:29:41Z</time></trkpt><trkpt lat="42.40430225155613" lon="2.8254376763069966"><ele>309.0</ele><time>2026-04-09T11:29:42Z</time></trkpt><trkpt lat="42.40438150094018" lon="2.825301826976637"><ele>309.0</ele><time>2026-04-09T11:29:43Z</time></trkpt><trkpt lat="42.40445193856911" lon="2.8251619059733613"><ele>309.0</ele><time>2026-04-09T11:29:44Z</time></trkpt><trkpt lat="42.40450427354975" lon="2.825003846647985"><ele>309.0</ele><time>2026-04-09T11:29:45Z</time></trkpt><trkpt lat="42.40453555190457" lon="2.8248338268659583"><ele>311.5</ele><time>2026-04-09T11:29:46Z</time></trkpt><trkpt lat="42.40455366209223" lon="2.8246569990096"><ele>314.0</ele><time>2026-04-09T11:29:47Z</time></trkpt><trkpt lat="42.40456872996128" lon="2.8244807596285604"><ele>316.5</ele><time>2026-04-09T11:29:48Z</time></trkpt><trkpt lat="42.40458382679671" lon="2.824301942795201"><ele>319.0</ele><time>2026-04-09T11:29:49Z</time></trkpt><trkpt lat="42.4045979057156" lon="2.824121550859416"><ele>319.75</ele><time>2026-04-09T11:29:50Z</time></trkpt><trkpt lat="42.40461510018645" lon="2.8239381174638374"><ele>320.5</ele><time>2026-04-09T11:29:51Z</time></trkpt><trkpt lat="42.4046325937652" lon="2.823753581933275"><ele>321.25</ele><time>2026-04-09T11:29:52Z</time></trkpt><trkpt lat="42.404652335597504" lon="2.8235684393813782"><ele>322.0</ele><time>2026-04-09T11:29:53Z</time></trkpt><trkpt lat="42.40467179310883" lon="2.823382616549268"><ele>322.0</ele><time>2026-04-09T11:29:54Z</time></trkpt><trkpt lat="42.40469252995423" lon="2.823194799378252"><ele>322.0</ele><time>2026-04-09T11:29:55Z</time></trkpt><trkpt lat="42.404707721314686" lon="2.8230023039440657"><ele>322.0</ele><time>2026-04-09T11:29:56Z</time></trkpt><trkpt lat="42.404705131760416" lon="2.8228083363205316"><ele>322.0</ele><time>2026-04-09T11:29:57Z</time></trkpt><trkpt lat="42.40468796832952" lon="2.82261582569887"><ele>323.25</ele><time>2026-04-09T11:29:58Z</time></trkpt><trkpt lat="42.40466414310572" lon="2.8224231497442007"><ele>324.5</ele><time>2026-04-09T11:29:59Z</time></trkpt><trkpt lat="42.40463549457292" lon="2.8222314882015738"><ele>325.75</ele><time>2026-04-09T11:30:00Z</time></trkpt><trkpt lat="42.40460064629213" lon="2.822043678141148"><ele>327.0</ele><time>2026-04-09T11:30:01Z</time></trkpt><trkpt lat="42.404566547703816" lon="2.821867772793238"><ele>330.8</ele><time>2026-04-09T11:30:02Z</time></trkpt><trkpt lat="42.404533883608515" lon="2.821705913669015"><ele>334.6</ele><time>2026-04-09T11:30:03Z</time></trkpt><trkpt lat="42.40450386117965" lon="2.821557632854308"><ele>338.40000000000003</ele><time>2026-04-09T11:30:04Z</time></trkpt><trkpt lat="42.40448578307779" lon="2.821430853982341"><ele>342.20000000000005</ele><time>2026-04-09T11:30:05Z</time></trkpt><trkpt lat="42.40448873989448" lon="2.8213155935141745"><ele>346.0</ele><time>2026-04-09T11:30:06Z</time></trkpt><trkpt lat="42.40454036540285" lon="2.821181248603587"><ele>346.0</ele><time>2026-04-09T11:30:07Z</time></trkpt><trkpt lat="42.40460508131583" lon="2.8211188511714624"><ele>346.0</ele><time>2026-04-09T11:30:08Z</time></trkpt><trkpt lat="42.40469851345363" lon="2.821086934000573"><ele>346.0</ele><time>2026-04-09T11:30:09Z</time></trkpt><trkpt lat="42.40478975205109" lon="2.821101210518573"><ele>346.0</ele><time>2026-04-09T11:30:10Z</time></trkpt><trkpt lat="42.40488145587361" lon="2.8211328488082565"><ele>346.0</ele><time>2026-04-09T11:30:11Z</time></trkpt><trkpt lat="42.40497066434748" lon="2.8211463151310334"><ele>345.8</ele><time>2026-04-09T11:30:12Z</time></trkpt><trkpt lat="42.40505544097697" lon="2.8211204992138477"><ele>345.6</ele><time>2026-04-09T11:30:13Z</time></trkpt><trkpt lat="42.40512910420355" lon="2.821068975250714"><ele>345.4</ele><time>2026-04-09T11:30:14Z</time></trkpt><trkpt lat="42.40520184644928" lon="2.8209931457244513"><ele>345.2</ele><time>2026-04-09T11:30:15Z</time></trkpt><trkpt lat="42.40527468199347" lon="2.8209059338559523"><ele>345.0</ele><time>2026-04-09T11:30:16Z</time></trkpt><trkpt lat="42.405356221445345" lon="2.820815920917972"><ele>345.0</ele><time>2026-04-09T11:30:17Z</time></trkpt><trkpt lat="42.405440569482344" lon="2.8207183070877977"><ele>345.0</ele><time>2026-04-09T11:30:18Z</time></trkpt><trkpt lat="42.405518100639" lon="2.820600587706648"><ele>345.0</ele><time>2026-04-09T11:30:19Z</time></trkpt><trkpt lat="42.40557725345071" lon="2.820465770127504"><ele>345.0</ele><time>2026-04-09T11:30:20Z</time></trkpt><trkpt lat="42.4056325861733" lon="2.8203377423073444"><ele>344.25</ele><time>2026-04-09T11:30:21Z</time></trkpt><trkpt lat="42.40570572671183" lon="2.82022415663566"><ele>343.5</ele><time>2026-04-09T11:30:22Z</time></trkpt><trkpt lat="42.40579963795747" lon="2.820141752042479"><ele>342.75</ele><time>2026-04-09T11:30:23Z</time></trkpt><trkpt lat="42.405908369507266" lon="2.820089718006616"><ele>342.0</ele><time>2026-04-09T11:30:24Z</time></trkpt><trkpt lat="42.40602786768485" lon="2.820053112624994"><ele>344.0</ele><time>2026-04-09T11:30:25Z</time></trkpt><trkpt lat="42.40614642332664" lon="2.820003289492803"><ele>346.0</ele><time>2026-04-09T11:30:26Z</time></trkpt><trkpt lat="42.40625524554053" lon="2.8199361412358814"><ele>348.0</ele><time>2026-04-09T11:30:27Z</time></trkpt><trkpt lat="42.40634944249423" lon="2.8198289426268914"><ele>350.0</ele><time>2026-04-09T11:30:28Z</time></trkpt><trkpt lat="42.40643162824942" lon="2.819697690851637"><ele>350.0</ele><time>2026-04-09T11:30:29Z</time></trkpt><trkpt lat="42.40652304759766" lon="2.8195690208597584"><ele>350.0</ele><time>2026-04-09T11:30:30Z</time></trkpt><trkpt lat="42.406639910002646" lon="2.8194689537944084"><ele>350.0</ele><time>2026-04-09T11:30:31Z</time></trkpt><trkpt lat="42.4067654098953" lon="2.819389098375641"><ele>350.0</ele><time>2026-04-09T11:30:32Z</time></trkpt><trkpt lat="42.4068856854631" lon="2.8193223023437"><ele>351.25</ele><time>2026-04-09T11:30:33Z</time></trkpt><trkpt lat="42.407011057701" lon="2.8192522328914165"><ele>352.5</ele><time>2026-04-09T11:30:34Z</time></trkpt><trkpt lat="42.40714040773788" lon="2.819178429690207"><ele>353.75</ele><time>2026-04-09T11:30:35Z</time></trkpt><trkpt lat="42.40726802809279" lon="2.8191053338794543"><ele>355.0</ele><time>2026-04-09T11:30:36Z</time></trkpt><trkpt lat="42.407392497892886" lon="2.8190158178560623"><ele>355.0</ele><time>2026-04-09T11:30:37Z</time></trkpt><trkpt lat="42.40750585639534" lon="2.818895667966152"><ele>355.0</ele><time>2026-04-09T11:30:38Z</time></trkpt><trkpt lat="42.407610319657515" lon="2.818772082930476"><ele>355.0</ele><time>2026-04-09T11:30:39Z</time></trkpt><trkpt lat="42.40769778490273" lon="2.8186517268669418"><ele>355.0</ele><time>2026-04-09T11:30:40Z</time></trkpt><trkpt lat="42.407750940060495" lon="2.8185207982597773"><ele>357.8</ele><time>2026-04-09T11:30:41Z</time></trkpt><trkpt lat="42.40778862286191" lon="2.8183820593099886"><ele>360.6</ele><time>2026-04-09T11:30:42Z</time></trkpt><trkpt lat="42.40778227327139" lon="2.818231022356306"><ele>363.4</ele><time>2026-04-09T11:30:43Z</time></trkpt><trkpt lat="42.4077421244217" lon="2.818089098994321"><ele>366.2</ele><time>2026-04-09T11:30:44Z</time></trkpt><trkpt lat="42.4076828640546" lon="2.817964041436095"><ele>369.0</ele><time>2026-04-09T11:30:45Z</time></trkpt><trkpt lat="42.40759870466031" lon="2.817861281377498"><ele>369.0</ele><time>2026-04-09T11:30:46Z</time></trkpt><trkpt lat="42.40750618390663" lon="2.817771143523398"><ele>369.0</ele><time>2026-04-09T11:30:47Z</time></trkpt><trkpt lat="42.407413280398416" lon="2.817685214097289"><ele>369.0</ele><time>2026-04-09T11:30:48Z</time></trkpt><trkpt lat="42.40732606103287" lon="2.8175945111413934"><ele>369.0</ele><time>2026-04-09T11:30:49Z</time></trkpt><trkpt lat="42.40726271798195" lon="2.8174823117324164"><ele>369.0</ele><time>2026-04-09T11:30:50Z</time></trkpt><trkpt lat="42.407227423379986" lon="2.817347251554509"><ele>369.79999999999995</ele><time>2026-04-09T11:30:51Z</time></trkpt><trkpt lat="42.407215338102844" lon="2.8172059858969503"><ele>370.59999999999997</ele><time>2026-04-09T11:30:52Z</time></trkpt><trkpt lat="42.40721008388138" lon="2.8170674079964595"><ele>371.4</ele><time>2026-04-09T11:30:53Z</time></trkpt><trkpt lat="42.407208331771756" lon="2.81693326849178"><ele>372.2</ele><time>2026-04-09T11:30:54Z</time></trkpt><trkpt lat="42.407234367463715" lon="2.816809453051497"><ele>373.0</ele><time>2026-04-09T11:30:55Z</time></trkpt><trkpt lat="42.40729079519364" lon="2.816703632765829"><ele>374.59999999999997</ele><time>2026-04-09T11:30:56Z</time></trkpt><trkpt lat="42.40737011574329" lon="2.8166260355394663"><ele>376.2</ele><time>2026-04-09T11:30:57Z</time></trkpt><trkpt lat="42.407458756062994" lon="2.816574945323786"><ele>377.8</ele><time>2026-04-09T11:30:58Z</time></trkpt><trkpt lat="42.40754958909839" lon="2.8165207119892903"><ele>379.4</ele><time>2026-04-09T11:30:59Z</time></trkpt><trkpt lat="42.40763002521953" lon="2.8164505818346486"><ele>381.0</ele><time>2026-04-09T11:31:00Z</time></trkpt><trkpt lat="42.40769184127931" lon="2.8163508505631936"><ele>381.0</ele><time>2026-04-09T11:31:01Z</time></trkpt><trkpt lat="42.40773648461306" lon="2.8162326105068396"><ele>381.0</ele><time>2026-04-09T11:31:02Z</time></trkpt><trkpt lat="42.407755545395325" lon="2.8161031696580086"><ele>381.0</ele><time>2026-04-09T11:31:03Z</time></trkpt><trkpt lat="42.40774613878799" lon="2.815971493557541"><ele>381.0</ele><time>2026-04-09T11:31:04Z</time></trkpt><trkpt lat="42.40772162213543" lon="2.8158431765422844"><ele>381.0</ele><time>2026-04-09T11:31:05Z</time></trkpt><trkpt lat="42.40767879224478" lon="2.815724801721041"><ele>382.20000000000005</ele><time>2026-04-09T11:31:06Z</time></trkpt><trkpt lat="42.407623850441965" lon="2.8156126836251665"><ele>383.40000000000003</ele><time>2026-04-09T11:31:07Z</time></trkpt><trkpt lat="42.40756289853787" lon="2.815507971873354"><ele>384.6</ele><time>2026-04-09T11:31:08Z</time></trkpt><trkpt lat="42.407504412846606" lon="2.8154043282386763"><ele>385.8</ele><time>2026-04-09T11:31:09Z</time></trkpt><trkpt lat="42.40744553386762" lon="2.81529873863528"><ele>387.0</ele><time>2026-04-09T11:31:10Z</time></trkpt><trkpt lat="42.40738801904588" lon="2.815191849242062"><ele>386.6</ele><time>2026-04-09T11:31:11Z</time></trkpt><trkpt lat="42.407327917746606" lon="2.8150900742055702"><ele>386.20000000000005</ele><time>2026-04-09T11:31:12Z</time></trkpt><trkpt lat="42.40725388056239" lon="2.8149954846234935"><ele>385.8</ele><time>2026-04-09T11:31:13Z</time></trkpt><trkpt lat="42.40716465926554" lon="2.814916412351893"><ele>385.4</ele><time>2026-04-09T11:31:14Z</time></trkpt><trkpt lat="42.40705846688954" lon="2.814850438086473"><ele>385.0</ele><time>2026-04-09T11:31:15Z</time></trkpt><trkpt lat="42.40694403581753" lon="2.814783046149909"><ele>386.0</ele><time>2026-04-09T11:31:16Z</time></trkpt><trkpt lat="42.4068273715325" lon="2.8147056556577223"><ele>387.0</ele><time>2026-04-09T11:31:17Z</time></trkpt><trkpt lat="42.406706023893335" lon="2.814623533220045"><ele>388.0</ele><time>2026-04-09T11:31:18Z</time></trkpt><trkpt lat="42.406587695055556" lon="2.814543785191363"><ele>389.0</ele><time>2026-04-09T11:31:19Z</time></trkpt><trkpt lat="42.40647511266213" lon="2.8144690046463756"><ele>389.0</ele><time>2026-04-09T11:31:20Z</time></trkpt><trkpt lat="42.406371004283734" lon="2.8143963050998284"><ele>389.0</ele><time>2026-04-09T11:31:21Z</time></trkpt><trkpt lat="42.40628383277691" lon="2.8143113587094826"><ele>389.0</ele><time>2026-04-09T11:31:22Z</time></trkpt><trkpt lat="42.40622335603018" lon="2.814205250098464"><ele>389.0</ele><time>2026-04-09T11:31:23Z</time></trkpt><trkpt lat="42.40620473929055" lon="2.814071243349674"><ele>389.0</ele><time>2026-04-09T11:31:24Z</time></trkpt><trkpt lat="42.406210914372366" lon="2.81393308452287"><ele>392.2</ele><time>2026-04-09T11:31:25Z</time></trkpt><trkpt lat="42.40623430364038" lon="2.8137976825621807"><ele>395.4</ele><time>2026-04-09T11:31:26Z</time></trkpt><trkpt lat="42.406254983947115" lon="2.8136631208735476"><ele>398.6</ele><time>2026-04-09T11:31:27Z</time></trkpt><trkpt lat="42.40627311036087" lon="2.813528865899678"><ele>401.8</ele><time>2026-04-09T11:31:28Z</time></trkpt><trkpt lat="42.406276471849566" lon="2.8133901272264694"><ele>405.0</ele><time>2026-04-09T11:31:29Z</time></trkpt><trkpt lat="42.40626623492492" lon="2.813249256184079"><ele>407.2</ele><time>2026-04-09T11:31:30Z</time></trkpt><trkpt lat="42.406248479087694" lon="2.813110585522621"><ele>409.4</ele><time>2026-04-09T11:31:31Z</time></trkpt><trkpt lat="42.406232875177864" lon="2.8129706785785396"><ele>411.6</ele><time>2026-04-09T11:31:32Z</time></trkpt><trkpt lat="42.40622253851973" lon="2.812824098816091"><ele>413.8</ele><time>2026-04-09T11:31:33Z</time></trkpt><trkpt lat="42.40624614567963" lon="2.8126757314969932"><ele>416.0</ele><time>2026-04-09T11:31:34Z</time></trkpt><trkpt lat="42.406294568027704" lon="2.8125411847966006"><ele>410.6</ele><time>2026-04-09T11:31:35Z</time></trkpt><trkpt lat="42.40635593941426" lon="2.8124153781586414"><ele>405.20000000000005</ele><time>2026-04-09T11:31:36Z</time></trkpt><trkpt lat="42.40641838527625" lon="2.8122904359413243"><ele>399.79999999999995</ele><time>2026-04-09T11:31:37Z</time></trkpt><trkpt lat="42.406481517866645" lon="2.8121640922366202"><ele>394.4</ele><time>2026-04-09T11:31:38Z</time></trkpt><trkpt lat="42.406541276349635" lon="2.8120349074188247"><ele>389.0</ele><time>2026-04-09T11:31:39Z</time></trkpt><trkpt lat="42.40658904013348" lon="2.811893088550439"><ele>393.0</ele><time>2026-04-09T11:31:40Z</time></trkpt><trkpt lat="42.406625185042614" lon="2.8117445039567386"><ele>397.0</ele><time>2026-04-09T11:31:41Z</time></trkpt><trkpt lat="42.40664888819019" lon="2.811588594081824"><ele>401.0</ele><time>2026-04-09T11:31:42Z</time></trkpt><trkpt lat="42.40666185382771" lon="2.8114328421328016"><ele>405.0</ele><time>2026-04-09T11:31:43Z</time></trkpt><trkpt lat="42.406677152947935" lon="2.811272171421109"><ele>405.0</ele><time>2026-04-09T11:31:44Z</time></trkpt><trkpt lat="42.4066907565595" lon="2.811110936090127"><ele>405.0</ele><time>2026-04-09T11:31:45Z</time></trkpt><trkpt lat="42.406708742466556" lon="2.8109467416247536"><ele>405.0</ele><time>2026-04-09T11:31:46Z</time></trkpt><trkpt lat="42.406721416216406" lon="2.8107787471980923"><ele>405.0</ele><time>2026-04-09T11:31:47Z</time></trkpt><trkpt lat="42.406720665254454" lon="2.810608605893757"><ele>407.0</ele><time>2026-04-09T11:31:48Z</time></trkpt><trkpt lat="42.40670928067527" lon="2.810437160448453"><ele>409.0</ele><time>2026-04-09T11:31:49Z</time></trkpt><trkpt lat="42.406690748921356" lon="2.810264836749093"><ele>411.0</ele><time>2026-04-09T11:31:50Z</time></trkpt><trkpt lat="42.40667360362451" lon="2.8100986543186113"><ele>413.0</ele><time>2026-04-09T11:31:51Z</time></trkpt><trkpt lat="42.40664860306585" lon="2.8099523519854146"><ele>413.0</ele><time>2026-04-09T11:31:52Z</time></trkpt><trkpt lat="42.40661017300607" lon="2.809814479998961"><ele>413.0</ele><time>2026-04-09T11:31:53Z</time></trkpt><trkpt lat="42.406547941388546" lon="2.8097009220421447"><ele>413.0</ele><time>2026-04-09T11:31:54Z</time></trkpt><trkpt lat="42.40645883156378" lon="2.809628760906966"><ele>413.0</ele><time>2026-04-09T11:31:55Z</time></trkpt><trkpt lat="42.40636160467769" lon="2.809582028174508"><ele>413.0</ele><time>2026-04-09T11:31:56Z</time></trkpt><trkpt lat="42.4062763931218" lon="2.8095259841551394"><ele>419.4</ele><time>2026-04-09T11:31:57Z</time></trkpt><trkpt lat="42.40620949904818" lon="2.8094304197721374"><ele>425.79999999999995</ele><time>2026-04-09T11:31:58Z</time></trkpt><trkpt lat="42.406173207825276" lon="2.809303236972076"><ele>432.2</ele><time>2026-04-09T11:31:59Z</time></trkpt><trkpt lat="42.40616469204005" lon="2.809168038396263"><ele>438.6</ele><time>2026-04-09T11:32:00Z</time></trkpt><trkpt lat="42.40616787509967" lon="2.8090380952282024"><ele>445.0</ele><time>2026-04-09T11:32:01Z</time></trkpt><trkpt lat="42.40616766796078" lon="2.8089066335840425"><ele>445.0</ele><time>2026-04-09T11:32:02Z</time></trkpt><trkpt lat="42.40617356250438" lon="2.808772556028678"><ele>445.0</ele><time>2026-04-09T11:32:03Z</time></trkpt><trkpt lat="42.40618030929859" lon="2.8086388550798302"><ele>445.0</ele><time>2026-04-09T11:32:04Z</time></trkpt><trkpt lat="42.40619012821542" lon="2.8085031357439503"><ele>445.0</ele><time>2026-04-09T11:32:05Z</time></trkpt><trkpt lat="42.40620510533202" lon="2.808370698440006"><ele>445.0</ele><time>2026-04-09T11:32:06Z</time></trkpt><trkpt lat="42.406222028866495" lon="2.8082447669462653"><ele>446.2</ele><time>2026-04-09T11:32:07Z</time></trkpt><trkpt lat="42.406241944602975" lon="2.808106271401324"><ele>447.4</ele><time>2026-04-09T11:32:08Z</time></trkpt><trkpt lat="42.40626119216654" lon="2.8079616302215586"><ele>448.6</ele><time>2026-04-09T11:32:09Z</time></trkpt><trkpt lat="42.406275984662834" lon="2.807811846238403"><ele>449.8</ele><time>2026-04-09T11:32:10Z</time></trkpt><trkpt lat="42.40627092692736" lon="2.8076601278318742"><ele>451.0</ele><time>2026-04-09T11:32:11Z</time></trkpt><trkpt lat="42.40625125399884" lon="2.8075201779642196"><ele>452.0</ele><time>2026-04-09T11:32:12Z</time></trkpt><trkpt lat="42.40623638947437" lon="2.8073858214040768"><ele>453.0</ele><time>2026-04-09T11:32:13Z</time></trkpt><trkpt lat="42.40624715074215" lon="2.8072652954910513"><ele>454.0</ele><time>2026-04-09T11:32:14Z</time></trkpt><trkpt lat="42.40629020188444" lon="2.8071433086220186"><ele>455.0</ele><time>2026-04-09T11:32:15Z</time></trkpt><trkpt lat="42.406360125024236" lon="2.8070368340868344"><ele>456.0</ele><time>2026-04-09T11:32:16Z</time></trkpt><trkpt lat="42.40644488171297" lon="2.8069608883859223"><ele>452.0</ele><time>2026-04-09T11:32:17Z</time></trkpt><trkpt lat="42.4065284925707" lon="2.806864079136165"><ele>448.0</ele><time>2026-04-09T11:32:18Z</time></trkpt><trkpt lat="42.40660090304618" lon="2.8067473790118416"><ele>444.0</ele><time>2026-04-09T11:32:19Z</time></trkpt><trkpt lat="42.40666437147037" lon="2.8066129858810163"><ele>440.0</ele><time>2026-04-09T11:32:20Z</time></trkpt><trkpt lat="42.40672927088067" lon="2.8064692442784804"><ele>440.0</ele><time>2026-04-09T11:32:21Z</time></trkpt><trkpt lat="42.40679737511631" lon="2.8063236425606997"><ele>440.0</ele><time>2026-04-09T11:32:22Z</time></trkpt><trkpt lat="42.406866236222854" lon="2.806170646319521"><ele>440.0</ele><time>2026-04-09T11:32:23Z</time></trkpt><trkpt lat="42.40694072535114" lon="2.8060155282936963"><ele>440.0</ele><time>2026-04-09T11:32:24Z</time></trkpt><trkpt lat="42.40700691319517" lon="2.805868927687213"><ele>443.2</ele><time>2026-04-09T11:32:25Z</time></trkpt><trkpt lat="42.407064878914696" lon="2.8057307270309826"><ele>446.4</ele><time>2026-04-09T11:32:26Z</time></trkpt><trkpt lat="42.40709665852769" lon="2.8055928344302528"><ele>449.6</ele><time>2026-04-09T11:32:27Z</time></trkpt><trkpt lat="42.40709811132214" lon="2.805444020814468"><ele>452.8</ele><time>2026-04-09T11:32:28Z</time></trkpt><trkpt lat="42.40707080123864" lon="2.805298656806258"><ele>456.0</ele><time>2026-04-09T11:32:29Z</time></trkpt><trkpt lat="42.407024878344885" lon="2.8051546168428407"><ele>458.25</ele><time>2026-04-09T11:32:30Z</time></trkpt><trkpt lat="42.406974817082514" lon="2.8050039314080104"><ele>460.5</ele><time>2026-04-09T11:32:31Z</time></trkpt><trkpt lat="42.40692248905892" lon="2.8048468250549674"><ele>462.75</ele><time>2026-04-09T11:32:32Z</time></trkpt><trkpt lat="42.406867968051145" lon="2.8046789394636664"><ele>465.0</ele><time>2026-04-09T11:32:33Z</time></trkpt><trkpt lat="42.40682694539909" lon="2.8045264387408864"><ele>465.0</ele><time>2026-04-09T11:32:34Z</time></trkpt><trkpt lat="42.40680992132823" lon="2.8043701549390416"><ele>465.0</ele><time>2026-04-09T11:32:35Z</time></trkpt><trkpt lat="42.406817578928305" lon="2.8042126642119065"><ele>465.0</ele><time>2026-04-09T11:32:36Z</time></trkpt><trkpt lat="42.40685714834529" lon="2.804051525506234"><ele>465.0</ele><time>2026-04-09T11:32:37Z</time></trkpt><trkpt lat="42.406911700404265" lon="2.803897826997243"><ele>465.5</ele><time>2026-04-09T11:32:38Z</time></trkpt><trkpt lat="42.40697019666023" lon="2.803738110384409"><ele>466.0</ele><time>2026-04-09T11:32:39Z</time></trkpt><trkpt lat="42.40703273520173" lon="2.8035756035760344"><ele>466.5</ele><time>2026-04-09T11:32:40Z</time></trkpt><trkpt lat="42.40709389506378" lon="2.803417414427194"><ele>467.0</ele><time>2026-04-09T11:32:41Z</time></trkpt><trkpt lat="42.40715865840279" lon="2.8032640376229416"><ele>461.5</ele><time>2026-04-09T11:32:42Z</time></trkpt><trkpt lat="42.40722784288353" lon="2.803119373640921"><ele>456.0</ele><time>2026-04-09T11:32:43Z</time></trkpt><trkpt lat="42.407296240699644" lon="2.8029899432721557"><ele>450.5</ele><time>2026-04-09T11:32:44Z</time></trkpt><trkpt lat="42.40735551406028" lon="2.8028732260598597"><ele>445.0</ele><time>2026-04-09T11:32:45Z</time></trkpt><trkpt lat="42.40739566431083" lon="2.802747306776173"><ele>447.4</ele><time>2026-04-09T11:32:46Z</time></trkpt><trkpt lat="42.40740086229071" lon="2.8026122537898965"><ele>449.8</ele><time>2026-04-09T11:32:47Z</time></trkpt><trkpt lat="42.4073656331299" lon="2.802479952195151"><ele>452.20000000000005</ele><time>2026-04-09T11:32:48Z</time></trkpt><trkpt lat="42.40730517655886" lon="2.8023617166293646"><ele>454.6</ele><time>2026-04-09T11:32:49Z</time></trkpt><trkpt lat="42.407234654035236" lon="2.802246940087065"><ele>457.0</ele><time>2026-04-09T11:32:50Z</time></trkpt><trkpt lat="42.407170298263246" lon="2.8021245705088687"><ele>458.20000000000005</ele><time>2026-04-09T11:32:51Z</time></trkpt><trkpt lat="42.40711819659942" lon="2.802007956732467"><ele>459.40000000000003</ele><time>2026-04-09T11:32:52Z</time></trkpt><trkpt lat="42.40710047844867" lon="2.8018865856430963"><ele>460.59999999999997</ele><time>2026-04-09T11:32:53Z</time></trkpt><trkpt lat="42.40711750319844" lon="2.801759728357876"><ele>461.79999999999995</ele><time>2026-04-09T11:32:54Z</time></trkpt><trkpt lat="42.40717231601027" lon="2.8016443444554513"><ele>463.0</ele><time>2026-04-09T11:32:55Z</time></trkpt><trkpt lat="42.40724493575353" lon="2.8015475153588634"><ele>463.0</ele><time>2026-04-09T11:32:56Z</time></trkpt><trkpt lat="42.40732981053191" lon="2.8014566441644244"><ele>462.99999999999994</ele><time>2026-04-09T11:32:57Z</time></trkpt><trkpt lat="42.40740930604412" lon="2.801360878098534"><ele>462.99999999999994</ele><time>2026-04-09T11:32:58Z</time></trkpt><trkpt lat="42.40747558532515" lon="2.801263225850289"><ele>463.0</ele><time>2026-04-09T11:32:59Z</time></trkpt><trkpt lat="42.407519748419055" lon="2.8011396548421637"><ele>463.0</ele><time>2026-04-09T11:33:00Z</time></trkpt><trkpt lat="42.40753747615664" lon="2.8009925331300267"><ele>465.75</ele><time>2026-04-09T11:33:01Z</time></trkpt><trkpt lat="42.40754069258991" lon="2.800839052697041"><ele>468.5</ele><time>2026-04-09T11:33:02Z</time></trkpt><trkpt lat="42.40752626801406" lon="2.800683114804482"><ele>471.25</ele><time>2026-04-09T11:33:03Z</time></trkpt><trkpt lat="42.40748047530954" lon="2.800530433846645"><ele>474.0</ele><time>2026-04-09T11:33:04Z</time></trkpt><trkpt lat="42.407422190427845" lon="2.8003802197685044"><ele>474.0</ele><time>2026-04-09T11:33:05Z</time></trkpt><trkpt lat="42.40736258613783" lon="2.800234107149585"><ele>474.0</ele><time>2026-04-09T11:33:06Z</time></trkpt><trkpt lat="42.407321361473535" lon="2.800084808122655"><ele>474.0</ele><time>2026-04-09T11:33:07Z</time></trkpt><trkpt lat="42.40731897130197" lon="2.799929242844643"><ele>474.0</ele><time>2026-04-09T11:33:08Z</time></trkpt><trkpt lat="42.40733226093644" lon="2.7997739117161022"><ele>475.2</ele><time>2026-04-09T11:33:09Z</time></trkpt><trkpt lat="42.40732564789822" lon="2.7996219756772667"><ele>476.4</ele><time>2026-04-09T11:33:10Z</time></trkpt><trkpt lat="42.407297544696995" lon="2.799475643764819"><ele>477.6</ele><time>2026-04-09T11:33:11Z</time></trkpt><trkpt lat="42.40726796777068" lon="2.7993429248071853"><ele>478.8</ele><time>2026-04-09T11:33:12Z</time></trkpt><trkpt lat="42.40723675572749" lon="2.799226339026559"><ele>480.0</ele><time>2026-04-09T11:33:13Z</time></trkpt><trkpt lat="42.40722912146604" lon="2.79911648515765"><ele>480.6666666666667</ele><time>2026-04-09T11:33:14Z</time></trkpt><trkpt lat="42.40725048442802" lon="2.7990251584098664"><ele>481.33333333333337</ele><time>2026-04-09T11:33:15Z</time></trkpt><trkpt lat="42.40729929243983" lon="2.79894760418175"><ele>482.0</ele><time>2026-04-09T11:33:16Z</time></trkpt><trkpt lat="42.4073689094773" lon="2.798894368517681"><ele>482.6666666666667</ele><time>2026-04-09T11:33:17Z</time></trkpt><trkpt lat="42.40745194334713" lon="2.798865606104232"><ele>483.33333333333337</ele><time>2026-04-09T11:33:18Z</time></trkpt><trkpt lat="42.40754011934216" lon="2.7988594248849843"><ele>484.0</ele><time>2026-04-09T11:33:19Z</time></trkpt><trkpt lat="42.40763776422368" lon="2.7988510449234396"><ele>484.0</ele><time>2026-04-09T11:33:20Z</time></trkpt><trkpt lat="42.40773738262287" lon="2.7988514064764054"><ele>484.0</ele><time>2026-04-09T11:33:21Z</time></trkpt><trkpt lat="42.407839232271854" lon="2.7988593206219963"><ele>484.0</ele><time>2026-04-09T11:33:22Z</time></trkpt><trkpt lat="42.407937743137" lon="2.7988691180747054"><ele>484.0</ele><time>2026-04-09T11:33:23Z</time></trkpt><trkpt lat="42.408028026466404" lon="2.798875647383779"><ele>484.0</ele><time>2026-04-09T11:33:24Z</time></trkpt><trkpt lat="42.40810732830427" lon="2.7988696736493295"><ele>484.33333333333337</ele><time>2026-04-09T11:33:25Z</time></trkpt><trkpt lat="42.4081886224169" lon="2.798835902595007"><ele>484.6666666666667</ele><time>2026-04-09T11:33:26Z</time></trkpt><trkpt lat="42.40826323500465" lon="2.798763499544761"><ele>485.0</ele><time>2026-04-09T11:33:27Z</time></trkpt><trkpt lat="42.40831849766768" lon="2.798667912077196"><ele>485.33333333333337</ele><time>2026-04-09T11:33:28Z</time></trkpt><trkpt lat="42.40834358618277" lon="2.7985597758965004"><ele>485.6666666666667</ele><time>2026-04-09T11:33:29Z</time></trkpt><trkpt lat="42.40833294155687" lon="2.798448958182875"><ele>486.0</ele><time>2026-04-09T11:33:30Z</time></trkpt><trkpt lat="42.408307634907715" lon="2.7983416698968435"><ele>488.20000000000005</ele><time>2026-04-09T11:33:31Z</time></trkpt><trkpt lat="42.40826400818952" lon="2.798245614633835"><ele>490.40000000000003</ele><time>2026-04-09T11:33:32Z</time></trkpt><trkpt lat="42.40819421422523" lon="2.7981736953448464"><ele>492.6</ele><time>2026-04-09T11:33:33Z</time></trkpt><trkpt lat="42.40810803777857" lon="2.798134627921703"><ele>494.8</ele><time>2026-04-09T11:33:34Z</time></trkpt><trkpt lat="42.40800956217875" lon="2.7981359105081904"><ele>497.0</ele><time>2026-04-09T11:33:35Z</time></trkpt><trkpt lat="42.40791405453898" lon="2.7981820214062716"><ele>497.0</ele><time>2026-04-09T11:33:36Z</time></trkpt><trkpt lat="42.40781769664462" lon="2.7982359435116897"><ele>497.00000000000006</ele><time>2026-04-09T11:33:37Z</time></trkpt><trkpt lat="42.40772756848006" lon="2.798279766775433"><ele>497.00000000000006</ele><time>2026-04-09T11:33:38Z</time></trkpt><trkpt lat="42.40764370890573" lon="2.7983001406152703"><ele>497.0</ele><time>2026-04-09T11:33:39Z</time></trkpt><trkpt lat="42.40756336927533" lon="2.798274811714935"><ele>497.0</ele><time>2026-04-09T11:33:40Z</time></trkpt><trkpt lat="42.40748797765482" lon="2.7982075119482808"><ele>497.0</ele><time>2026-04-09T11:33:41Z</time></trkpt><trkpt lat="42.40742689900121" lon="2.79810851636804"><ele>497.00000000000006</ele><time>2026-04-09T11:33:42Z</time></trkpt><trkpt lat="42.40736226993801" lon="2.79800193367876"><ele>497.00000000000006</ele><time>2026-04-09T11:33:43Z</time></trkpt><trkpt lat="42.40729422275776" lon="2.7979129057678733"><ele>497.0</ele><time>2026-04-09T11:33:44Z</time></trkpt><trkpt lat="42.407221045802956" lon="2.7978571790169835"><ele>497.0</ele><time>2026-04-09T11:33:45Z</time></trkpt><trkpt lat="42.407144625148" lon="2.7978368385174397"><ele>500.40000000000003</ele><time>2026-04-09T11:33:46Z</time></trkpt><trkpt lat="42.40707082524405" lon="2.79786718576135"><ele>503.80000000000007</ele><time>2026-04-09T11:33:47Z</time></trkpt><trkpt lat="42.407005753833204" lon="2.797923759971494"><ele>507.2</ele><time>2026-04-09T11:33:48Z</time></trkpt><trkpt lat="42.406953031854" lon="2.798133065076626"><ele>510.6</ele><time>2026-04-09T11:33:50Z</time></trkpt><trkpt lat="42.40691914312259" lon="2.798241233479855"><ele>514.0</ele><time>2026-04-09T11:33:51Z</time></trkpt><trkpt lat="42.40688494875006" lon="2.7983621849448546"><ele>514.0</ele><time>2026-04-09T11:33:52Z</time></trkpt><trkpt lat="42.406839337840026" lon="2.798481694578532"><ele>514.0</ele><time>2026-04-09T11:33:53Z</time></trkpt><trkpt lat="42.40677412557369" lon="2.7985900441678564"><ele>514.0</ele><time>2026-04-09T11:33:54Z</time></trkpt><trkpt lat="42.40669162515897" lon="2.798675909350033"><ele>514.0</ele><time>2026-04-09T11:33:55Z</time></trkpt><trkpt lat="42.40660571183203" lon="2.7987486977755123"><ele>514.0</ele><time>2026-04-09T11:33:56Z</time></trkpt><trkpt lat="42.40653808013404" lon="2.79883749996696"><ele>512.4</ele><time>2026-04-09T11:33:57Z</time></trkpt><trkpt lat="42.40650955972909" lon="2.7989563017928565"><ele>510.79999999999995</ele><time>2026-04-09T11:33:58Z</time></trkpt><trkpt lat="42.40651219617204" lon="2.7990856640763675"><ele>509.20000000000005</ele><time>2026-04-09T11:33:59Z</time></trkpt><trkpt lat="42.40653772978957" lon="2.799213925731226"><ele>507.6</ele><time>2026-04-09T11:34:00Z</time></trkpt><trkpt lat="42.40655087639814" lon="2.799344721996106"><ele>506.0</ele><time>2026-04-09T11:34:01Z</time></trkpt><trkpt lat="42.406529682413876" lon="2.799475139275356"><ele>506.0</ele><time>2026-04-09T11:34:02Z</time></trkpt><trkpt lat="42.40648334477085" lon="2.7995958169281994"><ele>506.0</ele><time>2026-04-09T11:34:03Z</time></trkpt><trkpt lat="42.40640852988292" lon="2.7996931560249543"><ele>506.0</ele><time>2026-04-09T11:34:04Z</time></trkpt><trkpt lat="42.4063203912878" lon="2.799763875835858"><ele>506.0</ele><time>2026-04-09T11:34:05Z</time></trkpt><trkpt lat="42.406221516982114" lon="2.7998238266371853"><ele>506.0</ele><time>2026-04-09T11:34:06Z</time></trkpt><trkpt lat="42.406126047990426" lon="2.7998974087800037"><ele>506.6</ele><time>2026-04-09T11:34:07Z</time></trkpt><trkpt lat="42.40605114697649" lon="2.7999961377659894"><ele>507.20000000000005</ele><time>2026-04-09T11:34:08Z</time></trkpt><trkpt lat="42.406003477371186" lon="2.8001132124807167"><ele>507.79999999999995</ele><time>2026-04-09T11:34:09Z</time></trkpt><trkpt lat="42.40596689740392" lon="2.800241400071787"><ele>508.4</ele><time>2026-04-09T11:34:10Z</time></trkpt><trkpt lat="42.40592485747289" lon="2.800364418482484"><ele>509.0</ele><time>2026-04-09T11:34:11Z</time></trkpt><trkpt lat="42.405860774357876" lon="2.8004678215104164"><ele>509.0</ele><time>2026-04-09T11:34:12Z</time></trkpt><trkpt lat="42.4057695102997" lon="2.8005397587538594"><ele>509.0</ele><time>2026-04-09T11:34:13Z</time></trkpt><trkpt lat="42.405666433802764" lon="2.800580845070403"><ele>509.0</ele><time>2026-04-09T11:34:14Z</time></trkpt><trkpt lat="42.40555976561876" lon="2.800608714653461"><ele>509.0</ele><time>2026-04-09T11:34:15Z</time></trkpt><trkpt lat="42.40545588752507" lon="2.8006489720034353"><ele>509.0</ele><time>2026-04-09T11:34:16Z</time></trkpt><trkpt lat="42.405356628987406" lon="2.8006917777735283"><ele>511.6</ele><time>2026-04-09T11:34:17Z</time></trkpt><trkpt lat="42.40526737278993" lon="2.8007416382542014"><ele>514.2</ele><time>2026-04-09T11:34:18Z</time></trkpt><trkpt lat="42.40518011192532" lon="2.800793564500889"><ele>516.8000000000001</ele><time>2026-04-09T11:34:19Z</time></trkpt><trkpt lat="42.4050943569546" lon="2.800851000941248"><ele>519.4</ele><time>2026-04-09T11:34:20Z</time></trkpt><trkpt lat="42.405012426178416" lon="2.8009096599834287"><ele>522.0</ele><time>2026-04-09T11:34:21Z</time></trkpt><trkpt lat="42.40493760197392" lon="2.800960298758443"><ele>522.0</ele><time>2026-04-09T11:34:22Z</time></trkpt><trkpt lat="42.40487290469936" lon="2.8010000316007617"><ele>522.0</ele><time>2026-04-09T11:34:23Z</time></trkpt><trkpt lat="42.40477479129284" lon="2.8010438640791286"><ele>522.0</ele><time>2026-04-09T11:34:25Z</time></trkpt><trkpt lat="42.40470074013531" lon="2.8009929288233706"><ele>522.0</ele><time>2026-04-09T11:34:27Z</time></trkpt><trkpt lat="42.40469742090609" lon="2.800840602764005"><ele>522.0</ele><time>2026-04-09T11:34:29Z</time></trkpt><trkpt lat="42.40473962994946" lon="2.800770532746903"><ele>522.0</ele><time>2026-04-09T11:34:30Z</time></trkpt><trkpt lat="42.404806428051195" lon="2.8007223512012462"><ele>522.0</ele><time>2026-04-09T11:34:31Z</time></trkpt><trkpt lat="42.40488574446569" lon="2.800697124937463"><ele>522.0</ele><time>2026-04-09T11:34:32Z</time></trkpt><trkpt lat="42.40496885493757" lon="2.800653846114534"><ele>522.0</ele><time>2026-04-09T11:34:33Z</time></trkpt><trkpt lat="42.40504396210372" lon="2.800604044364468"><ele>522.0</ele><time>2026-04-09T11:34:34Z</time></trkpt><trkpt lat="42.405122737599896" lon="2.8005479000418942"><ele>522.0</ele><time>2026-04-09T11:34:35Z</time></trkpt><trkpt lat="42.40520079656088" lon="2.800481075667204"><ele>522.0</ele><time>2026-04-09T11:34:36Z</time></trkpt><trkpt lat="42.405263207551116" lon="2.800404660195006"><ele>522.0</ele><time>2026-04-09T11:34:37Z</time></trkpt><trkpt lat="42.405318941059214" lon="2.8003012086326455"><ele>522.0</ele><time>2026-04-09T11:34:38Z</time></trkpt><trkpt lat="42.40534991125275" lon="2.800177738355792"><ele>522.0</ele><time>2026-04-09T11:34:39Z</time></trkpt><trkpt lat="42.40536260468184" lon="2.8000509363122155"><ele>522.0</ele><time>2026-04-09T11:34:40Z</time></trkpt><trkpt lat="42.40534972878255" lon="2.799923797590038"><ele>522.0</ele><time>2026-04-09T11:34:41Z</time></trkpt><trkpt lat="42.40532513954778" lon="2.799800666499538"><ele>524.4</ele><time>2026-04-09T11:34:42Z</time></trkpt><trkpt lat="42.405298102302154" lon="2.7996839011770236"><ele>526.8000000000001</ele><time>2026-04-09T11:34:43Z</time></trkpt><trkpt lat="42.40524363432184" lon="2.7995839423374407"><ele>529.2</ele><time>2026-04-09T11:34:44Z</time></trkpt><trkpt lat="42.405176110287414" lon="2.799497233138322"><ele>531.6</ele><time>2026-04-09T11:34:45Z</time></trkpt><trkpt lat="42.40509840133842" lon="2.799417467350614"><ele>534.0</ele><time>2026-04-09T11:34:46Z</time></trkpt><trkpt lat="42.40501858197664" lon="2.799334750503994"><ele>534.6666666666666</ele><time>2026-04-09T11:34:47Z</time></trkpt><trkpt lat="42.40494184197836" lon="2.7992605777672264"><ele>535.3333333333334</ele><time>2026-04-09T11:34:48Z</time></trkpt><trkpt lat="42.40486975738153" lon="2.7991895998594574"><ele>536.0</ele><time>2026-04-09T11:34:49Z</time></trkpt><trkpt lat="42.404801666458845" lon="2.7991139739428736"><ele>536.6666666666667</ele><time>2026-04-09T11:34:50Z</time></trkpt><trkpt lat="42.40474395754174" lon="2.799027893451273"><ele>537.3333333333334</ele><time>2026-04-09T11:34:51Z</time></trkpt><trkpt lat="42.404698108955856" lon="2.7989270264818176"><ele>538.0</ele><time>2026-04-09T11:34:52Z</time></trkpt><trkpt lat="42.404668630861835" lon="2.798816483043607"><ele>539.1666666666667</ele><time>2026-04-09T11:34:53Z</time></trkpt><trkpt lat="42.4046539127146" lon="2.79870168820892"><ele>540.3333333333334</ele><time>2026-04-09T11:34:54Z</time></trkpt><trkpt lat="42.40465326448147" lon="2.798594063021821"><ele>541.5</ele><time>2026-04-09T11:34:55Z</time></trkpt><trkpt lat="42.40466864210212" lon="2.7984980699491966"><ele>542.6666666666666</ele><time>2026-04-09T11:34:56Z</time></trkpt><trkpt lat="42.40469620699423" lon="2.7984197657140424"><ele>543.8333333333333</ele><time>2026-04-09T11:34:57Z</time></trkpt><trkpt lat="42.404751410436305" lon="2.798328407045648"><ele>545.0</ele><time>2026-04-09T11:34:59Z</time></trkpt><trkpt lat="42.404737617614956" lon="2.7982167310869537"><ele>545.0</ele><time>2026-04-09T11:35:02Z</time></trkpt><trkpt lat="42.40466462633497" lon="2.798199594150025"><ele>545.0</ele><time>2026-04-09T11:35:04Z</time></trkpt><trkpt lat="42.40459573569113" lon="2.798217630645322"><ele>545.0</ele><time>2026-04-09T11:35:06Z</time></trkpt><trkpt lat="42.404508236744185" lon="2.7982429486648335"><ele>545.0</ele><time>2026-04-09T11:35:08Z</time></trkpt><trkpt lat="42.40438170404784" lon="2.7982918371517154"><ele>545.0</ele><time>2026-04-09T11:35:10Z</time></trkpt><trkpt lat="42.40431777498427" lon="2.798319164993707"><ele>545.0</ele><time>2026-04-09T11:35:11Z</time></trkpt><trkpt lat="42.404203918401684" lon="2.7983080246369165"><ele>545.4</ele><time>2026-04-09T11:35:13Z</time></trkpt><trkpt lat="42.40409518565779" lon="2.7982302707614055"><ele>545.8</ele><time>2026-04-09T11:35:15Z</time></trkpt><trkpt lat="42.40399641265921" lon="2.798179130170277"><ele>546.2</ele><time>2026-04-09T11:35:17Z</time></trkpt><trkpt lat="42.40391837280132" lon="2.7981391070454755"><ele>546.6</ele><time>2026-04-09T11:35:19Z</time></trkpt><trkpt lat="42.403889832885106" lon="2.7979991640911526"><ele>547.0</ele><time>2026-04-09T11:35:21Z</time></trkpt><trkpt lat="42.4038631801436" lon="2.797855647847244"><ele>547.0</ele><time>2026-04-09T11:35:23Z</time></trkpt><trkpt lat="42.40381029091638" lon="2.7977527973419107"><ele>547.0</ele><time>2026-04-09T11:35:25Z</time></trkpt><trkpt lat="42.40371329149115" lon="2.7977339367070253"><ele>547.0</ele><time>2026-04-09T11:35:27Z</time></trkpt><trkpt lat="42.40360786222586" lon="2.7978140610943205"><ele>547.0</ele><time>2026-04-09T11:35:29Z</time></trkpt><trkpt lat="42.40354539460153" lon="2.797858216794295"><ele>547.0</ele><time>2026-04-09T11:35:30Z</time></trkpt><trkpt lat="42.40347933535147" lon="2.7979033482062037"><ele>547.0</ele><time>2026-04-09T11:35:31Z</time></trkpt><trkpt lat="42.40341538697419" lon="2.797944504232545"><ele>547.0</ele><time>2026-04-09T11:35:32Z</time></trkpt><trkpt lat="42.40335073412042" lon="2.7979767685840415"><ele>547.0</ele><time>2026-04-09T11:35:33Z</time></trkpt><trkpt lat="42.40328346364116" lon="2.7979920150046973"><ele>547.0</ele><time>2026-04-09T11:35:34Z</time></trkpt><trkpt lat="42.40315663672593" lon="2.797970856682672"><ele>547.0</ele><time>2026-04-09T11:35:36Z</time></trkpt><trkpt lat="42.40309482744892" lon="2.7979243376953136"><ele>547.0</ele><time>2026-04-09T11:35:37Z</time></trkpt><trkpt lat="42.40303213349686" lon="2.7978613194197997"><ele>546.4</ele><time>2026-04-09T11:35:38Z</time></trkpt><trkpt lat="42.40295998702921" lon="2.79779094995126"><ele>545.8000000000001</ele><time>2026-04-09T11:35:39Z</time></trkpt><trkpt lat="42.40288546730602" lon="2.7977164087509596"><ele>545.2</ele><time>2026-04-09T11:35:40Z</time></trkpt><trkpt lat="42.40281437495585" lon="2.7976452442223896"><ele>544.6</ele><time>2026-04-09T11:35:41Z</time></trkpt><trkpt lat="42.402738366511805" lon="2.7975635896200477"><ele>544.0</ele><time>2026-04-09T11:35:42Z</time></trkpt><trkpt lat="42.40266281967176" lon="2.797477699076893"><ele>546.1666666666667</ele><time>2026-04-09T11:35:43Z</time></trkpt><trkpt lat="42.402598617466886" lon="2.7973856069158605"><ele>548.3333333333334</ele><time>2026-04-09T11:35:44Z</time></trkpt><trkpt lat="42.40254468379139" lon="2.7972929378637823"><ele>550.5</ele><time>2026-04-09T11:35:45Z</time></trkpt><trkpt lat="42.4024850567101" lon="2.7972135700865755"><ele>552.6666666666666</ele><time>2026-04-09T11:35:46Z</time></trkpt><trkpt lat="42.402429564073664" lon="2.7971469856027693"><ele>554.8333333333333</ele><time>2026-04-09T11:35:47Z</time></trkpt><trkpt lat="42.40236457220886" lon="2.797063982618879"><ele>557.0</ele><time>2026-04-09T11:35:49Z</time></trkpt><trkpt lat="42.40232426734189" lon="2.7969928027440223"><ele>557.0</ele><time>2026-04-09T11:35:53Z</time></trkpt><trkpt lat="42.402287161825505" lon="2.7968921797729887"><ele>557.0</ele><time>2026-04-09T11:35:56Z</time></trkpt><trkpt lat="42.40225621478823" lon="2.7967427915495002"><ele>557.0</ele><time>2026-04-09T11:35:58Z</time></trkpt><trkpt lat="42.4022225604324" lon="2.7965811360669863"><ele>557.0</ele><time>2026-04-09T11:36:00Z</time></trkpt><trkpt lat="42.40218857841526" lon="2.7964192700171653"><ele>557.0</ele><time>2026-04-09T11:36:02Z</time></trkpt><trkpt lat="42.40217496614945" lon="2.7962562719957096"><ele>558.2</ele><time>2026-04-09T11:36:04Z</time></trkpt><trkpt lat="42.40219122680192" lon="2.796102847274913"><ele>559.4000000000001</ele><time>2026-04-09T11:36:06Z</time></trkpt><trkpt lat="42.402235646738056" lon="2.7959374351080224"><ele>560.5999999999999</ele><time>2026-04-09T11:36:08Z</time></trkpt><trkpt lat="42.402259272280695" lon="2.795840840693684"><ele>561.8</ele><time>2026-04-09T11:36:09Z</time></trkpt><trkpt lat="42.40228659313413" lon="2.7957472833481685"><ele>563.0</ele><time>2026-04-09T11:36:10Z</time></trkpt><trkpt lat="42.40231081969235" lon="2.7956537765200165"><ele>563.0</ele><time>2026-04-09T11:36:11Z</time></trkpt><trkpt lat="42.402335353311614" lon="2.7955613434995294"><ele>563.0</ele><time>2026-04-09T11:36:12Z</time></trkpt><trkpt lat="42.40236142544015" lon="2.7954642852201403"><ele>563.0</ele><time>2026-04-09T11:36:13Z</time></trkpt><trkpt lat="42.402379109690095" lon="2.7953585532309084"><ele>563.0</ele><time>2026-04-09T11:36:14Z</time></trkpt><trkpt lat="42.40239839680183" lon="2.7952589282192593"><ele>563.0</ele><time>2026-04-09T11:36:15Z</time></trkpt><trkpt lat="42.40242328640222" lon="2.7951649944410755"><ele>563.0</ele><time>2026-04-09T11:36:16Z</time></trkpt><trkpt lat="42.40244587615899" lon="2.7950761683624323"><ele>563.0</ele><time>2026-04-09T11:36:17Z</time></trkpt><trkpt lat="42.40246597351001" lon="2.794989953732192"><ele>563.0</ele><time>2026-04-09T11:36:18Z</time></trkpt><trkpt lat="42.402488159823605" lon="2.7948999912155763"><ele>563.0</ele><time>2026-04-09T11:36:19Z</time></trkpt><trkpt lat="42.402496645872844" lon="2.794811537034081"><ele>563.0</ele><time>2026-04-09T11:36:20Z</time></trkpt><trkpt lat="42.40247889041954" lon="2.7947265442378235"><ele>563.0</ele><time>2026-04-09T11:36:21Z</time></trkpt><trkpt lat="42.40244938201748" lon="2.794636243688577"><ele>563.0</ele><time>2026-04-09T11:36:22Z</time></trkpt><trkpt lat="42.402421242869195" lon="2.794539712926034"><ele>563.0</ele><time>2026-04-09T11:36:23Z</time></trkpt><trkpt lat="42.40239386547781" lon="2.794439270180619"><ele>563.0</ele><time>2026-04-09T11:36:24Z</time></trkpt><trkpt lat="42.40236967724391" lon="2.7943350800765177"><ele>563.0</ele><time>2026-04-09T11:36:25Z</time></trkpt><trkpt lat="42.40235184811262" lon="2.7942230248978737"><ele>563.0</ele><time>2026-04-09T11:36:26Z</time></trkpt><trkpt lat="42.402342838889105" lon="2.7940986146988647"><ele>563.0</ele><time>2026-04-09T11:36:27Z</time></trkpt><trkpt lat="42.402339307577755" lon="2.7939692203901556"><ele>563.0</ele><time>2026-04-09T11:36:28Z</time></trkpt><trkpt lat="42.40232755643723" lon="2.7938403326097063"><ele>563.0</ele><time>2026-04-09T11:36:29Z</time></trkpt><trkpt lat="42.40232850852955" lon="2.7937128337503516"><ele>563.0</ele><time>2026-04-09T11:36:30Z</time></trkpt><trkpt lat="42.4023226857483" lon="2.7935782714956137"><ele>563.0</ele><time>2026-04-09T11:36:31Z</time></trkpt><trkpt lat="42.4023186335191" lon="2.7934440314053544"><ele>563.0</ele><time>2026-04-09T11:36:32Z</time></trkpt><trkpt lat="42.40230630677778" lon="2.7933020589714683"><ele>563.0</ele><time>2026-04-09T11:36:33Z</time></trkpt><trkpt lat="42.40229460591265" lon="2.7931523330895907"><ele>563.0</ele><time>2026-04-09T11:36:34Z</time></trkpt><trkpt lat="42.40228614180367" lon="2.7930131134148355"><ele>562.8</ele><time>2026-04-09T11:36:35Z</time></trkpt><trkpt lat="42.40227277431933" lon="2.7928750489868235"><ele>562.5999999999999</ele><time>2026-04-09T11:36:36Z</time></trkpt><trkpt lat="42.402262729607415" lon="2.7927422624335847"><ele>562.4000000000001</ele><time>2026-04-09T11:36:37Z</time></trkpt><trkpt lat="42.4022518106434" lon="2.792612551129539"><ele>562.2</ele><time>2026-04-09T11:36:38Z</time></trkpt><trkpt lat="42.40224026328518" lon="2.792486308873923"><ele>562.0</ele><time>2026-04-09T11:36:39Z</time></trkpt><trkpt lat="42.402232267445285" lon="2.792351708823784"><ele>561.4</ele><time>2026-04-09T11:36:40Z</time></trkpt><trkpt lat="42.40223770531107" lon="2.7922246022763977"><ele>560.8000000000001</ele><time>2026-04-09T11:36:41Z</time></trkpt><trkpt lat="42.40225256265929" lon="2.792089844704529"><ele>560.2</ele><time>2026-04-09T11:36:42Z</time></trkpt><trkpt lat="42.40228335770304" lon="2.7919598946377833"><ele>559.6</ele><time>2026-04-09T11:36:43Z</time></trkpt><trkpt lat="42.40231540533279" lon="2.791823128576963"><ele>559.0</ele><time>2026-04-09T11:36:44Z</time></trkpt><trkpt lat="42.40234680300282" lon="2.7916933097772767"><ele>558.4</ele><time>2026-04-09T11:36:45Z</time></trkpt><trkpt lat="42.40237345290544" lon="2.791560126267531"><ele>557.8</ele><time>2026-04-09T11:36:46Z</time></trkpt><trkpt lat="42.402396550363356" lon="2.791431019269422"><ele>557.2</ele><time>2026-04-09T11:36:47Z</time></trkpt><trkpt lat="42.40241909345665" lon="2.791301568477381"><ele>556.6</ele><time>2026-04-09T11:36:48Z</time></trkpt><trkpt lat="42.402453458511204" lon="2.7911825586578396"><ele>556.0</ele><time>2026-04-09T11:36:49Z</time></trkpt><trkpt lat="42.40249533536548" lon="2.7910711080371606"><ele>557.2</ele><time>2026-04-09T11:36:50Z</time></trkpt><trkpt lat="42.40254406401639" lon="2.790960354543356"><ele>558.4000000000001</ele><time>2026-04-09T11:36:51Z</time></trkpt><trkpt lat="42.40259220085332" lon="2.790852130605751"><ele>559.6</ele><time>2026-04-09T11:36:52Z</time></trkpt><trkpt lat="42.40264393125114" lon="2.790745618037206"><ele>560.8000000000001</ele><time>2026-04-09T11:36:53Z</time></trkpt><trkpt lat="42.40269984021079" lon="2.7906411991424545"><ele>562.0</ele><time>2026-04-09T11:36:54Z</time></trkpt><trkpt lat="42.40275898719807" lon="2.790536340008088"><ele>562.0</ele><time>2026-04-09T11:36:55Z</time></trkpt><trkpt lat="42.402821008620464" lon="2.7904295390257685"><ele>562.0</ele><time>2026-04-09T11:36:56Z</time></trkpt><trkpt lat="42.402893975277124" lon="2.7903208224323546"><ele>562.0</ele><time>2026-04-09T11:36:57Z</time></trkpt><trkpt lat="42.4029709959753" lon="2.7902090850385153"><ele>562.0</ele><time>2026-04-09T11:36:58Z</time></trkpt><trkpt lat="42.40304570506707" lon="2.790097376021786"><ele>562.0</ele><time>2026-04-09T11:36:59Z</time></trkpt><trkpt lat="42.40311837905927" lon="2.7899859593212657"><ele>561.0</ele><time>2026-04-09T11:37:00Z</time></trkpt><trkpt lat="42.40319370028066" lon="2.7898785939092936"><ele>560.0</ele><time>2026-04-09T11:37:01Z</time></trkpt><trkpt lat="42.40326919403789" lon="2.7897674265333676"><ele>559.0</ele><time>2026-04-09T11:37:02Z</time></trkpt><trkpt lat="42.40333978119963" lon="2.789656063561339"><ele>558.0</ele><time>2026-04-09T11:37:03Z</time></trkpt><trkpt lat="42.403411517957835" lon="2.7895479849003695"><ele>557.0</ele><time>2026-04-09T11:37:04Z</time></trkpt><trkpt lat="42.4034810455229" lon="2.7894373123527"><ele>557.4</ele><time>2026-04-09T11:37:05Z</time></trkpt><trkpt lat="42.40354745561392" lon="2.7893238834274174"><ele>557.8000000000001</ele><time>2026-04-09T11:37:06Z</time></trkpt><trkpt lat="42.40361487005077" lon="2.7892143684138144"><ele>558.2</ele><time>2026-04-09T11:37:07Z</time></trkpt><trkpt lat="42.403672696776766" lon="2.7891065908886024"><ele>558.6</ele><time>2026-04-09T11:37:08Z</time></trkpt><trkpt lat="42.40372408855253" lon="2.7890005100689894"><ele>559.0</ele><time>2026-04-09T11:37:09Z</time></trkpt><trkpt lat="42.4037710901496" lon="2.7888968721271743"><ele>559.0</ele><time>2026-04-09T11:37:10Z</time></trkpt><trkpt lat="42.40381632230333" lon="2.7887976618406514"><ele>559.0</ele><time>2026-04-09T11:37:11Z</time></trkpt><trkpt lat="42.40386042491868" lon="2.7887004305585488"><ele>559.0</ele><time>2026-04-09T11:37:12Z</time></trkpt><trkpt lat="42.403907970718016" lon="2.7886085106457035"><ele>559.0</ele><time>2026-04-09T11:37:13Z</time></trkpt><trkpt lat="42.403971613354514" lon="2.7885341960781944"><ele>559.0</ele><time>2026-04-09T11:37:14Z</time></trkpt><trkpt lat="42.40404718183143" lon="2.78847089186564"><ele>559.0</ele><time>2026-04-09T11:37:15Z</time></trkpt><trkpt lat="42.40412639074954" lon="2.7884160618193046"><ele>556.8333333333334</ele><time>2026-04-09T11:37:16Z</time></trkpt><trkpt lat="42.40421285242087" lon="2.7883641041704585"><ele>554.6666666666667</ele><time>2026-04-09T11:37:17Z</time></trkpt><trkpt lat="42.40429925809761" lon="2.7883102109646116"><ele>552.5</ele><time>2026-04-09T11:37:18Z</time></trkpt><trkpt lat="42.40438157048831" lon="2.7882602780745405"><ele>550.3333333333334</ele><time>2026-04-09T11:37:19Z</time></trkpt><trkpt lat="42.40445583847596" lon="2.7882028873164275"><ele>548.1666666666666</ele><time>2026-04-09T11:37:20Z</time></trkpt><trkpt lat="42.40452379741035" lon="2.788146466670377"><ele>546.0</ele><time>2026-04-09T11:37:21Z</time></trkpt><trkpt lat="42.404593266571695" lon="2.788097768889422"><ele>546.1666666666666</ele><time>2026-04-09T11:37:22Z</time></trkpt><trkpt lat="42.40467413023027" lon="2.7880776079606813"><ele>546.3333333333334</ele><time>2026-04-09T11:37:23Z</time></trkpt><trkpt lat="42.404764901686846" lon="2.7880730566946608"><ele>546.5</ele><time>2026-04-09T11:37:24Z</time></trkpt><trkpt lat="42.40484989699265" lon="2.7880802039169215"><ele>546.6666666666667</ele><time>2026-04-09T11:37:25Z</time></trkpt><trkpt lat="42.40493712851787" lon="2.7881097794425953"><ele>546.8333333333334</ele><time>2026-04-09T11:37:26Z</time></trkpt><trkpt lat="42.405022010043226" lon="2.7881484192659145"><ele>547.0</ele><time>2026-04-09T11:37:27Z</time></trkpt><trkpt lat="42.4050999503426" lon="2.78820575096888"><ele>547.0</ele><time>2026-04-09T11:37:28Z</time></trkpt><trkpt lat="42.405159985865666" lon="2.7882792987961493"><ele>547.0</ele><time>2026-04-09T11:37:29Z</time></trkpt><trkpt lat="42.405220103602495" lon="2.7883446692504448"><ele>547.0</ele><time>2026-04-09T11:37:30Z</time></trkpt><trkpt lat="42.40527720456595" lon="2.7883997021036517"><ele>547.0</ele><time>2026-04-09T11:37:31Z</time></trkpt><trkpt lat="42.40533729156978" lon="2.7884279074145533"><ele>547.0</ele><time>2026-04-09T11:37:32Z</time></trkpt><trkpt lat="42.40544585898247" lon="2.788387535045093"><ele>547.0</ele><time>2026-04-09T11:37:34Z</time></trkpt><trkpt lat="42.40544515456297" lon="2.788262027620447"><ele>547.0</ele><time>2026-04-09T11:37:36Z</time></trkpt><trkpt lat="42.40539059901051" lon="2.7881511648194537"><ele>547.0</ele><time>2026-04-09T11:37:38Z</time></trkpt><trkpt lat="42.405314260208804" lon="2.78806865498147"><ele>547.0</ele><time>2026-04-09T11:37:40Z</time></trkpt><trkpt lat="42.40525974650049" lon="2.7879929621465798"><ele>547.0</ele><time>2026-04-09T11:37:41Z</time></trkpt><trkpt lat="42.40519260311442" lon="2.7879051056441626"><ele>547.0</ele><time>2026-04-09T11:37:42Z</time></trkpt><trkpt lat="42.40512183144818" lon="2.7878290872566094"><ele>547.0</ele><time>2026-04-09T11:37:43Z</time></trkpt><trkpt lat="42.40504180975126" lon="2.787762874892085"><ele>547.0</ele><time>2026-04-09T11:37:44Z</time></trkpt><trkpt lat="42.40495639484487" lon="2.787698959898884"><ele>547.0</ele><time>2026-04-09T11:37:45Z</time></trkpt><trkpt lat="42.4048769711838" lon="2.7876362308750564"><ele>547.0</ele><time>2026-04-09T11:37:46Z</time></trkpt><trkpt lat="42.404801369012965" lon="2.787586582721329"><ele>547.0</ele><time>2026-04-09T11:37:47Z</time></trkpt><trkpt lat="42.40472496496781" lon="2.7875687969952936"><ele>547.0</ele><time>2026-04-09T11:37:48Z</time></trkpt><trkpt lat="42.40464862330769" lon="2.7875955580054836"><ele>547.2</ele><time>2026-04-09T11:37:49Z</time></trkpt><trkpt lat="42.404565802762896" lon="2.7876235369403934"><ele>547.4000000000001</ele><time>2026-04-09T11:37:50Z</time></trkpt><trkpt lat="42.40447665399592" lon="2.7876494980585824"><ele>547.5999999999999</ele><time>2026-04-09T11:37:51Z</time></trkpt><trkpt lat="42.40437882879009" lon="2.787671284650016"><ele>547.8</ele><time>2026-04-09T11:37:52Z</time></trkpt><trkpt lat="42.40428160097029" lon="2.7876863587505194"><ele>548.0</ele><time>2026-04-09T11:37:53Z</time></trkpt><trkpt lat="42.404183988684224" lon="2.7877000766660536"><ele>547.6666666666666</ele><time>2026-04-09T11:37:54Z</time></trkpt><trkpt lat="42.40408605307975" lon="2.7877083038525505"><ele>547.3333333333333</ele><time>2026-04-09T11:37:55Z</time></trkpt><trkpt lat="42.40399099585713" lon="2.7877152311909876"><ele>547.0</ele><time>2026-04-09T11:37:56Z</time></trkpt><trkpt lat="42.403897221468064" lon="2.787720351636105"><ele>546.6666666666666</ele><time>2026-04-09T11:37:57Z</time></trkpt><trkpt lat="42.40380971692438" lon="2.7877251804736027"><ele>546.3333333333334</ele><time>2026-04-09T11:37:58Z</time></trkpt><trkpt lat="42.40373590624517" lon="2.7877194569410872"><ele>546.0</ele><time>2026-04-09T11:37:59Z</time></trkpt><trkpt lat="42.40363175642285" lon="2.787643535383256"><ele>545.2</ele><time>2026-04-09T11:38:01Z</time></trkpt><trkpt lat="42.40361979744434" lon="2.787469508697284"><ele>544.4000000000001</ele><time>2026-04-09T11:38:03Z</time></trkpt><trkpt lat="42.40363791444959" lon="2.787357656209574"><ele>543.6</ele><time>2026-04-09T11:38:04Z</time></trkpt><trkpt lat="42.4036497941113" lon="2.7872293881394445"><ele>542.8000000000001</ele><time>2026-04-09T11:38:05Z</time></trkpt><trkpt lat="42.4036554890698" lon="2.7870968635522404"><ele>542.0</ele><time>2026-04-09T11:38:06Z</time></trkpt><trkpt lat="42.40365395595574" lon="2.78697151552341"><ele>542.0</ele><time>2026-04-09T11:38:07Z</time></trkpt><trkpt lat="42.403657079877036" lon="2.7868488456595615"><ele>542.0</ele><time>2026-04-09T11:38:08Z</time></trkpt><trkpt lat="42.40368042963397" lon="2.7867323197431673"><ele>542.0</ele><time>2026-04-09T11:38:09Z</time></trkpt><trkpt lat="42.403696449372035" lon="2.7866116983453284"><ele>542.0</ele><time>2026-04-09T11:38:10Z</time></trkpt><trkpt lat="42.40368514096479" lon="2.786487848170972"><ele>542.0</ele><time>2026-04-09T11:38:11Z</time></trkpt><trkpt lat="42.403643812456565" lon="2.7863918619336574"><ele>542.0</ele><time>2026-04-09T11:38:12Z</time></trkpt><trkpt lat="42.40358816082416" lon="2.786316628755903"><ele>540.3333333333333</ele><time>2026-04-09T11:38:13Z</time></trkpt><trkpt lat="42.40352008642153" lon="2.786247554844663"><ele>538.6666666666666</ele><time>2026-04-09T11:38:14Z</time></trkpt><trkpt lat="42.40344293314776" lon="2.786200735393713"><ele>537.0</ele><time>2026-04-09T11:38:15Z</time></trkpt><trkpt lat="42.40335993102986" lon="2.7861704901865134"><ele>535.3333333333334</ele><time>2026-04-09T11:38:16Z</time></trkpt><trkpt lat="42.4032913800102" lon="2.7861208290810793"><ele>533.6666666666667</ele><time>2026-04-09T11:38:17Z</time></trkpt><trkpt lat="42.40322887538184" lon="2.7860605768509843"><ele>532.0</ele><time>2026-04-09T11:38:18Z</time></trkpt><trkpt lat="42.403187448535625" lon="2.7859693240125996"><ele>532.0</ele><time>2026-04-09T11:38:19Z</time></trkpt><trkpt lat="42.40317601202166" lon="2.7858496605659253"><ele>532.0</ele><time>2026-04-09T11:38:20Z</time></trkpt><trkpt lat="42.40315119109689" lon="2.7857295786358733"><ele>532.0</ele><time>2026-04-09T11:38:21Z</time></trkpt><trkpt lat="42.40310772507128" lon="2.7856201990567353"><ele>532.0</ele><time>2026-04-09T11:38:22Z</time></trkpt><trkpt lat="42.40306076334855" lon="2.7855117948487353"><ele>532.0</ele><time>2026-04-09T11:38:23Z</time></trkpt><trkpt lat="42.40301962622178" lon="2.785400320986216"><ele>526.6</ele><time>2026-04-09T11:38:24Z</time></trkpt><trkpt lat="42.40298480503819" lon="2.7852868520036513"><ele>521.2</ele><time>2026-04-09T11:38:25Z</time></trkpt><trkpt lat="42.40295805522372" lon="2.7851674052630297"><ele>515.8</ele><time>2026-04-09T11:38:26Z</time></trkpt><trkpt lat="42.40293928646976" lon="2.7850375293074823"><ele>510.4</ele><time>2026-04-09T11:38:27Z</time></trkpt><trkpt lat="42.40291804407396" lon="2.7849085671424643"><ele>505.0</ele><time>2026-04-09T11:38:28Z</time></trkpt><trkpt lat="42.40290820891388" lon="2.784789670991161"><ele>504.50000000000006</ele><time>2026-04-09T11:38:29Z</time></trkpt><trkpt lat="42.40291080138734" lon="2.7846823259564886"><ele>504.0</ele><time>2026-04-09T11:38:30Z</time></trkpt><trkpt lat="42.40290867441448" lon="2.784589726717587"><ele>503.5</ele><time>2026-04-09T11:38:31Z</time></trkpt><trkpt lat="42.40284725394186" lon="2.784451552387057"><ele>503.0</ele><time>2026-04-09T11:38:33Z</time></trkpt><trkpt lat="42.40277486061063" lon="2.7844242217029787"><ele>502.50000000000006</ele><time>2026-04-09T11:38:34Z</time></trkpt><trkpt lat="42.40269637260162" lon="2.784432026645161"><ele>502.0</ele><time>2026-04-09T11:38:35Z</time></trkpt><trkpt lat="42.40261704058999" lon="2.7844468974736056"><ele>502.00000000000006</ele><time>2026-04-09T11:38:36Z</time></trkpt><trkpt lat="42.40253963684934" lon="2.784460722104172"><ele>502.0</ele><time>2026-04-09T11:38:37Z</time></trkpt><trkpt lat="42.4024743855919" lon="2.7844412952921114"><ele>502.0</ele><time>2026-04-09T11:38:38Z</time></trkpt><trkpt lat="42.402403451756136" lon="2.784304388227829"><ele>502.0</ele><time>2026-04-09T11:38:40Z</time></trkpt><trkpt lat="42.402403755092735" lon="2.7842103103745224"><ele>502.00000000000006</ele><time>2026-04-09T11:38:41Z</time></trkpt><trkpt lat="42.40243504215446" lon="2.7841211324108217"><ele>502.0</ele><time>2026-04-09T11:38:42Z</time></trkpt><trkpt lat="42.402492385077785" lon="2.784061895273261"><ele>502.6</ele><time>2026-04-09T11:38:43Z</time></trkpt><trkpt lat="42.40257312705364" lon="2.7840236228493787"><ele>503.20000000000005</ele><time>2026-04-09T11:38:44Z</time></trkpt><trkpt lat="42.4026564380421" lon="2.7839692780830467"><ele>503.8</ele><time>2026-04-09T11:38:45Z</time></trkpt><trkpt lat="42.402732823130044" lon="2.783898183408153"><ele>504.4</ele><time>2026-04-09T11:38:46Z</time></trkpt><trkpt lat="42.40279886873368" lon="2.7838096099876246"><ele>505.0</ele><time>2026-04-09T11:38:47Z</time></trkpt><trkpt lat="42.40285788990598" lon="2.78370853831678"><ele>505.00000000000006</ele><time>2026-04-09T11:38:48Z</time></trkpt><trkpt lat="42.4029206630903" lon="2.7836134668618926"><ele>505.0</ele><time>2026-04-09T11:38:49Z</time></trkpt><trkpt lat="42.402976267002195" lon="2.783522562980462"><ele>505.0</ele><time>2026-04-09T11:38:50Z</time></trkpt><trkpt lat="42.40302482269781" lon="2.7834474196198715"><ele>505.0</ele><time>2026-04-09T11:38:51Z</time></trkpt><trkpt lat="42.4030947911957" lon="2.7833477124829957"><ele>505.00000000000006</ele><time>2026-04-09T11:38:53Z</time></trkpt><trkpt lat="42.40311328781207" lon="2.783260567442975"><ele>505.0</ele><time>2026-04-09T11:38:55Z</time></trkpt><trkpt lat="42.4030683310237" lon="2.783186325920665"><ele>505.1666666666667</ele><time>2026-04-09T11:38:57Z</time></trkpt><trkpt lat="42.4029948527628" lon="2.783125140026907"><ele>505.33333333333337</ele><time>2026-04-09T11:38:59Z</time></trkpt><trkpt lat="42.40288581334518" lon="2.7831219281164152"><ele>505.5</ele><time>2026-04-09T11:39:01Z</time></trkpt><trkpt lat="42.40282234566767" lon="2.7831366294706483"><ele>505.66666666666663</ele><time>2026-04-09T11:39:02Z</time></trkpt><trkpt lat="42.40274913100823" lon="2.7831435252169063"><ele>505.8333333333333</ele><time>2026-04-09T11:39:03Z</time></trkpt><trkpt lat="42.402669801933776" lon="2.783145379222656"><ele>506.0</ele><time>2026-04-09T11:39:04Z</time></trkpt><trkpt lat="42.402581871302374" lon="2.7831430176952017"><ele>505.99999999999994</ele><time>2026-04-09T11:39:05Z</time></trkpt><trkpt lat="42.4025041385322" lon="2.7831407134028283"><ele>506.0</ele><time>2026-04-09T11:39:06Z</time></trkpt><trkpt lat="42.40242729870729" lon="2.7831464420540377"><ele>506.0</ele><time>2026-04-09T11:39:07Z</time></trkpt><trkpt lat="42.40235159654277" lon="2.783175947158908"><ele>506.0</ele><time>2026-04-09T11:39:08Z</time></trkpt><trkpt lat="42.402273141483036" lon="2.783212239887545"><ele>505.99999999999994</ele><time>2026-04-09T11:39:09Z</time></trkpt><trkpt lat="42.402193363890945" lon="2.783250003789262"><ele>506.0</ele><time>2026-04-09T11:39:10Z</time></trkpt><trkpt lat="42.40210837942421" lon="2.783275362409394"><ele>508.3333333333333</ele><time>2026-04-09T11:39:11Z</time></trkpt><trkpt lat="42.40202133499576" lon="2.7833052636198006"><ele>510.66666666666663</ele><time>2026-04-09T11:39:12Z</time></trkpt><trkpt lat="42.4019360723077" lon="2.783336358884143"><ele>513.0</ele><time>2026-04-09T11:39:13Z</time></trkpt><trkpt lat="42.40185073857059" lon="2.7833671539915024"><ele>515.3333333333334</ele><time>2026-04-09T11:39:14Z</time></trkpt><trkpt lat="42.40176720405353" lon="2.7833954894417583"><ele>517.6666666666667</ele><time>2026-04-09T11:39:15Z</time></trkpt><trkpt lat="42.401682035324896" lon="2.7834244616187425"><ele>520.0</ele><time>2026-04-09T11:39:16Z</time></trkpt><trkpt lat="42.40160622540783" lon="2.783460922120279"><ele>520.0</ele><time>2026-04-09T11:39:17Z</time></trkpt><trkpt lat="42.40153449233954" lon="2.7835072385445847"><ele>520.0</ele><time>2026-04-09T11:39:18Z</time></trkpt><trkpt lat="42.40146440747383" lon="2.7835566208044873"><ele>520.0</ele><time>2026-04-09T11:39:19Z</time></trkpt><trkpt lat="42.4013915448792" lon="2.7836068473308675"><ele>520.0</ele><time>2026-04-09T11:39:20Z</time></trkpt><trkpt lat="42.40131909034192" lon="2.783648857059964"><ele>520.0</ele><time>2026-04-09T11:39:21Z</time></trkpt><trkpt lat="42.40124639220199" lon="2.7836677817329876"><ele>520.0</ele><time>2026-04-09T11:39:22Z</time></trkpt><trkpt lat="42.401169388422595" lon="2.783654017147873"><ele>519.6666666666667</ele><time>2026-04-09T11:39:23Z</time></trkpt><trkpt lat="42.40109268049531" lon="2.7836223290320476"><ele>519.3333333333334</ele><time>2026-04-09T11:39:24Z</time></trkpt><trkpt lat="42.401016255192744" lon="2.7835755984261206"><ele>519.0</ele><time>2026-04-09T11:39:25Z</time></trkpt><trkpt lat="42.40094206970149" lon="2.7835127183137707"><ele>518.6666666666666</ele><time>2026-04-09T11:39:26Z</time></trkpt><trkpt lat="42.400869841947326" lon="2.7834334270518513"><ele>518.3333333333333</ele><time>2026-04-09T11:39:27Z</time></trkpt><trkpt lat="42.400796494856124" lon="2.7833557941642795"><ele>518.0</ele><time>2026-04-09T11:39:28Z</time></trkpt><trkpt lat="42.400723849714915" lon="2.783291766721973"><ele>518.0</ele><time>2026-04-09T11:39:29Z</time></trkpt><trkpt lat="42.4006421542659" lon="2.783256582427946"><ele>518.0</ele><time>2026-04-09T11:39:30Z</time></trkpt><trkpt lat="42.400566351335925" lon="2.783237134863706"><ele>518.0</ele><time>2026-04-09T11:39:31Z</time></trkpt><trkpt lat="42.40049812630283" lon="2.783212440396459"><ele>518.0</ele><time>2026-04-09T11:39:32Z</time></trkpt><trkpt lat="42.400450095725645" lon="2.7831501329363895"><ele>518.0</ele><time>2026-04-09T11:39:33Z</time></trkpt><trkpt lat="42.40042307050015" lon="2.783069666554775"><ele>518.0</ele><time>2026-04-09T11:39:34Z</time></trkpt><trkpt lat="42.400413013605835" lon="2.782973056206426"><ele>518.0</ele><time>2026-04-09T11:39:35Z</time></trkpt><trkpt lat="42.40041121603619" lon="2.782877229774898"><ele>520.6666666666666</ele><time>2026-04-09T11:39:36Z</time></trkpt><trkpt lat="42.40043472266665" lon="2.7827813111183297"><ele>523.3333333333333</ele><time>2026-04-09T11:39:37Z</time></trkpt><trkpt lat="42.40046439716652" lon="2.782687201829947"><ele>526.0</ele><time>2026-04-09T11:39:38Z</time></trkpt><trkpt lat="42.400489125925844" lon="2.7826035034569006"><ele>528.6666666666666</ele><time>2026-04-09T11:39:39Z</time></trkpt><trkpt lat="42.40052901227885" lon="2.7824651643477494"><ele>531.3333333333334</ele><time>2026-04-09T11:39:41Z</time></trkpt><trkpt lat="42.4005185469417" lon="2.7823147319071344"><ele>534.0</ele><time>2026-04-09T11:39:43Z</time></trkpt><trkpt lat="42.400479630521794" lon="2.782244626435657"><ele>528.1666666666666</ele><time>2026-04-09T11:39:44Z</time></trkpt><trkpt lat="42.400425347423614" lon="2.7821879274253662"><ele>522.3333333333334</ele><time>2026-04-09T11:39:45Z</time></trkpt><trkpt lat="42.40035299056909" lon="2.782150398109516"><ele>516.5</ele><time>2026-04-09T11:39:46Z</time></trkpt><trkpt lat="42.4002711337619" lon="2.7821209785976992"><ele>510.6666666666667</ele><time>2026-04-09T11:39:47Z</time></trkpt><trkpt lat="42.40019897839005" lon="2.7820864170422888"><ele>504.83333333333337</ele><time>2026-04-09T11:39:48Z</time></trkpt><trkpt lat="42.400132731994354" lon="2.78205572356003"><ele>499.0</ele><time>2026-04-09T11:39:49Z</time></trkpt><trkpt lat="42.4000513934477" lon="2.781941993367562"><ele>503.0</ele><time>2026-04-09T11:39:51Z</time></trkpt><trkpt lat="42.39998639170316" lon="2.781825416217953"><ele>507.0</ele><time>2026-04-09T11:39:53Z</time></trkpt><trkpt lat="42.39990888038084" lon="2.781713643495559"><ele>511.0</ele><time>2026-04-09T11:39:55Z</time></trkpt><trkpt lat="42.39982420557169" lon="2.781615201944559"><ele>515.0</ele><time>2026-04-09T11:39:57Z</time></trkpt><trkpt lat="42.39973776328504" lon="2.7815226558592316"><ele>519.0</ele><time>2026-04-09T11:39:59Z</time></trkpt><trkpt lat="42.39967303724114" lon="2.7814131733996823"><ele>520.0</ele><time>2026-04-09T11:40:01Z</time></trkpt><trkpt lat="42.39965943899391" lon="2.7812639385248463"><ele>521.0</ele><time>2026-04-09T11:40:03Z</time></trkpt><trkpt lat="42.39965612430838" lon="2.7811738768785705"><ele>522.0</ele><time>2026-04-09T11:40:04Z</time></trkpt><trkpt lat="42.39965433376548" lon="2.7810749614613455"><ele>523.0</ele><time>2026-04-09T11:40:05Z</time></trkpt><trkpt lat="42.39965136403095" lon="2.780971647835211"><ele>524.0</ele><time>2026-04-09T11:40:06Z</time></trkpt><trkpt lat="42.39965560217704" lon="2.780870955363745"><ele>525.0</ele><time>2026-04-09T11:40:07Z</time></trkpt><trkpt lat="42.399667433997365" lon="2.7807659733390273"><ele>525.0</ele><time>2026-04-09T11:40:08Z</time></trkpt><trkpt lat="42.39967978202216" lon="2.780657293696567"><ele>525.0</ele><time>2026-04-09T11:40:09Z</time></trkpt><trkpt lat="42.39969174791713" lon="2.780541363783346"><ele>525.0</ele><time>2026-04-09T11:40:10Z</time></trkpt><trkpt lat="42.399696635334806" lon="2.7804201064269995"><ele>525.0</ele><time>2026-04-09T11:40:11Z</time></trkpt><trkpt lat="42.39969849724794" lon="2.7803036362265865"><ele>525.0</ele><time>2026-04-09T11:40:12Z</time></trkpt><trkpt lat="42.39970955247665" lon="2.780193558832377"><ele>525.0</ele><time>2026-04-09T11:40:13Z</time></trkpt><trkpt lat="42.39973948446582" lon="2.780085443707539"><ele>523.8333333333334</ele><time>2026-04-09T11:40:14Z</time></trkpt><trkpt lat="42.39977166725946" lon="2.7799799715620077"><ele>522.6666666666666</ele><time>2026-04-09T11:40:15Z</time></trkpt><trkpt lat="42.39980136155458" lon="2.779886592786665"><ele>521.5</ele><time>2026-04-09T11:40:16Z</time></trkpt><trkpt lat="42.39981776115064" lon="2.7797242975049072"><ele>520.3333333333333</ele><time>2026-04-09T11:40:18Z</time></trkpt><trkpt lat="42.39979036055397" lon="2.7796433117858537"><ele>519.1666666666666</ele><time>2026-04-09T11:40:19Z</time></trkpt><trkpt lat="42.399760870263954" lon="2.7795658615042"><ele>518.0</ele><time>2026-04-09T11:40:20Z</time></trkpt><trkpt lat="42.39972395102929" lon="2.7794838903847467"><ele>518.0</ele><time>2026-04-09T11:40:21Z</time></trkpt><trkpt lat="42.399680798861155" lon="2.7794105206591775"><ele>518.0</ele><time>2026-04-09T11:40:22Z</time></trkpt><trkpt lat="42.39961777834274" lon="2.7793669816340123"><ele>518.0</ele><time>2026-04-09T11:40:23Z</time></trkpt><trkpt lat="42.39954640657918" lon="2.779344585730975"><ele>518.0</ele><time>2026-04-09T11:40:24Z</time></trkpt><trkpt lat="42.39946372717556" lon="2.779341371078975"><ele>518.0</ele><time>2026-04-09T11:40:25Z</time></trkpt><trkpt lat="42.399375218476585" lon="2.7793463425344447"><ele>518.0</ele><time>2026-04-09T11:40:26Z</time></trkpt><trkpt lat="42.399287762946685" lon="2.7793621602361838"><ele>511.8333333333333</ele><time>2026-04-09T11:40:27Z</time></trkpt><trkpt lat="42.39920272290286" lon="2.7793846441712455"><ele>505.66666666666663</ele><time>2026-04-09T11:40:28Z</time></trkpt><trkpt lat="42.39913359459196" lon="2.7794200652440573"><ele>499.5</ele><time>2026-04-09T11:40:29Z</time></trkpt><trkpt lat="42.39907167816299" lon="2.7794447334753136"><ele>493.33333333333337</ele><time>2026-04-09T11:40:30Z</time></trkpt><trkpt lat="42.39894280736836" lon="2.7794520796081517"><ele>487.1666666666667</ele><time>2026-04-09T11:40:32Z</time></trkpt><trkpt lat="42.39887104018398" lon="2.7794421815565777"><ele>481.0</ele><time>2026-04-09T11:40:33Z</time></trkpt><trkpt lat="42.39879757128336" lon="2.7793977495815465"><ele>481.6666666666667</ele><time>2026-04-09T11:40:34Z</time></trkpt><trkpt lat="42.39872828469248" lon="2.779347002783926"><ele>482.33333333333337</ele><time>2026-04-09T11:40:35Z</time></trkpt><trkpt lat="42.398670110563366" lon="2.7792748534057967"><ele>483.0</ele><time>2026-04-09T11:40:36Z</time></trkpt><trkpt lat="42.39861393997278" lon="2.7791984987001133"><ele>483.66666666666663</ele><time>2026-04-09T11:40:37Z</time></trkpt><trkpt lat="42.39855452485271" lon="2.7791333489981507"><ele>484.3333333333333</ele><time>2026-04-09T11:40:38Z</time></trkpt><trkpt lat="42.398479596035656" lon="2.7790959598629588"><ele>485.0</ele><time>2026-04-09T11:40:39Z</time></trkpt><trkpt lat="42.398395263518125" lon="2.7790877158153346"><ele>484.99999999999994</ele><time>2026-04-09T11:40:40Z</time></trkpt><trkpt lat="42.39830579135416" lon="2.7791044558209035"><ele>485.0</ele><time>2026-04-09T11:40:41Z</time></trkpt><trkpt lat="42.398214187245514" lon="2.779133582159525"><ele>485.0</ele><time>2026-04-09T11:40:42Z</time></trkpt><trkpt lat="42.39812596179795" lon="2.7791581071822"><ele>485.0</ele><time>2026-04-09T11:40:43Z</time></trkpt><trkpt lat="42.39804541152829" lon="2.7791693616556015"><ele>484.99999999999994</ele><time>2026-04-09T11:40:44Z</time></trkpt><trkpt lat="42.397968873643535" lon="2.779161521339971"><ele>485.0</ele><time>2026-04-09T11:40:45Z</time></trkpt><trkpt lat="42.3979012868466" lon="2.7791321338629165"><ele>481.8333333333333</ele><time>2026-04-09T11:40:46Z</time></trkpt><trkpt lat="42.39782066152481" lon="2.779014391459822"><ele>478.66666666666663</ele><time>2026-04-09T11:40:48Z</time></trkpt><trkpt lat="42.397799715166975" lon="2.7789224415176004"><ele>475.5</ele><time>2026-04-09T11:40:49Z</time></trkpt><trkpt lat="42.39777629041869" lon="2.778822148867352"><ele>472.33333333333337</ele><time>2026-04-09T11:40:50Z</time></trkpt><trkpt lat="42.39774879048034" lon="2.778713073930101"><ele>469.1666666666667</ele><time>2026-04-09T11:40:51Z</time></trkpt><trkpt lat="42.39771621344114" lon="2.778599656545767"><ele>466.0</ele><time>2026-04-09T11:40:52Z</time></trkpt><trkpt lat="42.39767009872042" lon="2.77847840778792"><ele>466.0</ele><time>2026-04-09T11:40:53Z</time></trkpt><trkpt lat="42.397620455766905" lon="2.7783543598622717"><ele>466.0</ele><time>2026-04-09T11:40:54Z</time></trkpt><trkpt lat="42.39756561626976" lon="2.7782268745596266"><ele>466.0</ele><time>2026-04-09T11:40:55Z</time></trkpt><trkpt lat="42.3975115877625" lon="2.7781049374480284"><ele>466.0</ele><time>2026-04-09T11:40:56Z</time></trkpt><trkpt lat="42.39745655706516" lon="2.7779925017826317"><ele>466.0</ele><time>2026-04-09T11:40:57Z</time></trkpt><trkpt lat="42.39739772481728" lon="2.777884842206383"><ele>466.0</ele><time>2026-04-09T11:40:58Z</time></trkpt><trkpt lat="42.397334849198835" lon="2.77777710119397"><ele>466.0</ele><time>2026-04-09T11:40:59Z</time></trkpt><trkpt lat="42.39727835866623" lon="2.777664581394091"><ele>466.0</ele><time>2026-04-09T11:41:00Z</time></trkpt><trkpt lat="42.39722840570393" lon="2.7775369934086513"><ele>466.0</ele><time>2026-04-09T11:41:01Z</time></trkpt><trkpt lat="42.39718234931898" lon="2.7774182442592243"><ele>466.0</ele><time>2026-04-09T11:41:02Z</time></trkpt><trkpt lat="42.39714205358753" lon="2.7773114428100207"><ele>466.33333333333337</ele><time>2026-04-09T11:41:03Z</time></trkpt><trkpt lat="42.39711262900123" lon="2.7772145849053715"><ele>466.6666666666667</ele><time>2026-04-09T11:41:04Z</time></trkpt><trkpt lat="42.397100924460126" lon="2.7771243032164286"><ele>467.0</ele><time>2026-04-09T11:41:05Z</time></trkpt><trkpt lat="42.39711050867212" lon="2.777037105571777"><ele>467.33333333333337</ele><time>2026-04-09T11:41:06Z</time></trkpt><trkpt lat="42.397147370258125" lon="2.7769451855547493"><ele>467.6666666666667</ele><time>2026-04-09T11:41:07Z</time></trkpt><trkpt lat="42.39720391945625" lon="2.7768609763774306"><ele>468.0</ele><time>2026-04-09T11:41:08Z</time></trkpt><trkpt lat="42.397267651678575" lon="2.7767778856363843"><ele>463.79999999999995</ele><time>2026-04-09T11:41:09Z</time></trkpt><trkpt lat="42.39734414891426" lon="2.7767011612609878"><ele>459.59999999999997</ele><time>2026-04-09T11:41:10Z</time></trkpt><trkpt lat="42.39743227484518" lon="2.7766397918898487"><ele>455.40000000000003</ele><time>2026-04-09T11:41:11Z</time></trkpt><trkpt lat="42.397529049279605" lon="2.7765849241899994"><ele>451.20000000000005</ele><time>2026-04-09T11:41:12Z</time></trkpt><trkpt lat="42.39763764514729" lon="2.776540709446676"><ele>447.0</ele><time>2026-04-09T11:41:13Z</time></trkpt><trkpt lat="42.39775167791296" lon="2.776504581797551"><ele>447.0</ele><time>2026-04-09T11:41:14Z</time></trkpt><trkpt lat="42.39786272696771" lon="2.7764779656063516"><ele>447.00000000000006</ele><time>2026-04-09T11:41:15Z</time></trkpt><trkpt lat="42.397963330956436" lon="2.7764536056264126"><ele>447.00000000000006</ele><time>2026-04-09T11:41:16Z</time></trkpt><trkpt lat="42.398050371919624" lon="2.776440808048243"><ele>447.0</ele><time>2026-04-09T11:41:17Z</time></trkpt><trkpt lat="42.398134582465495" lon="2.776429558172809"><ele>447.0</ele><time>2026-04-09T11:41:18Z</time></trkpt><trkpt lat="42.39820971086786" lon="2.7763944381591985"><ele>446.5</ele><time>2026-04-09T11:41:19Z</time></trkpt><trkpt lat="42.39827420866271" lon="2.776349123508939"><ele>446.0</ele><time>2026-04-09T11:41:20Z</time></trkpt><trkpt lat="42.39833094855712" lon="2.7762988558190203"><ele>445.5</ele><time>2026-04-09T11:41:21Z</time></trkpt><trkpt lat="42.398386654222264" lon="2.776175224755595"><ele>445.0</ele><time>2026-04-09T11:41:23Z</time></trkpt><trkpt lat="42.39834595098225" lon="2.776017511172516"><ele>444.5</ele><time>2026-04-09T11:41:25Z</time></trkpt><trkpt lat="42.39831125179348" lon="2.7759349594672083"><ele>444.0</ele><time>2026-04-09T11:41:26Z</time></trkpt><trkpt lat="42.39827682400752" lon="2.775839056248795"><ele>444.0</ele><time>2026-04-09T11:41:27Z</time></trkpt><trkpt lat="42.39824481892144" lon="2.7757381508686345"><ele>444.0</ele><time>2026-04-09T11:41:28Z</time></trkpt><trkpt lat="42.39821922129848" lon="2.775625438571802"><ele>444.0</ele><time>2026-04-09T11:41:29Z</time></trkpt><trkpt lat="42.3981994589939" lon="2.7755078547960625"><ele>444.0</ele><time>2026-04-09T11:41:30Z</time></trkpt><trkpt lat="42.39819299621703" lon="2.7753849316358816"><ele>444.0</ele><time>2026-04-09T11:41:31Z</time></trkpt><trkpt lat="42.39819139561861" lon="2.7752729576267425"><ele>444.0</ele><time>2026-04-09T11:41:32Z</time></trkpt><trkpt lat="42.398186246436865" lon="2.7751672560657012"><ele>441.7142857142857</ele><time>2026-04-09T11:41:33Z</time></trkpt><trkpt lat="42.39817971089383" lon="2.7750729488920047"><ele>439.42857142857144</ele><time>2026-04-09T11:41:34Z</time></trkpt><trkpt lat="42.39817888170748" lon="2.7749829076086936"><ele>437.14285714285717</ele><time>2026-04-09T11:41:35Z</time></trkpt><trkpt lat="42.398203074078445" lon="2.774901912341753"><ele>434.8571428571429</ele><time>2026-04-09T11:41:36Z</time></trkpt><trkpt lat="42.39825053461669" lon="2.774832567139677"><ele>432.57142857142856</ele><time>2026-04-09T11:41:37Z</time></trkpt><trkpt lat="42.39831193466642" lon="2.774766403818558"><ele>430.28571428571433</ele><time>2026-04-09T11:41:38Z</time></trkpt><trkpt lat="42.398376808484315" lon="2.7746842402625256"><ele>428.0</ele><time>2026-04-09T11:41:39Z</time></trkpt><trkpt lat="42.39843758060291" lon="2.774583889973693"><ele>428.0</ele><time>2026-04-09T11:41:40Z</time></trkpt><trkpt lat="42.398489151843584" lon="2.774465792807575"><ele>427.99999999999994</ele><time>2026-04-09T11:41:41Z</time></trkpt><trkpt lat="42.398530116017284" lon="2.7743600410363234"><ele>427.99999999999994</ele><time>2026-04-09T11:41:42Z</time></trkpt><trkpt lat="42.39855136603559" lon="2.774268181814159"><ele>428.0</ele><time>2026-04-09T11:41:43Z</time></trkpt><trkpt lat="42.398525633966294" lon="2.7741398407797773"><ele>428.0</ele><time>2026-04-09T11:41:45Z</time></trkpt><trkpt lat="42.398412702615666" lon="2.774126618634098"><ele>428.00000000000006</ele><time>2026-04-09T11:41:47Z</time></trkpt><trkpt lat="42.39835509948602" lon="2.774185303035846"><ele>428.0</ele><time>2026-04-09T11:41:48Z</time></trkpt><trkpt lat="42.398304757998986" lon="2.7742596933764276"><ele>428.0</ele><time>2026-04-09T11:41:49Z</time></trkpt><trkpt lat="42.39825431225113" lon="2.7743381759653385"><ele>428.0</ele><time>2026-04-09T11:41:50Z</time></trkpt><trkpt lat="42.39820016405343" lon="2.774421855424406"><ele>428.0</ele><time>2026-04-09T11:41:51Z</time></trkpt><trkpt lat="42.39815260832594" lon="2.7744991108809876"><ele>428.00000000000006</ele><time>2026-04-09T11:41:52Z</time></trkpt><trkpt lat="42.39810854819918" lon="2.77456033684896"><ele>428.0</ele><time>2026-04-09T11:41:53Z</time></trkpt><trkpt lat="42.39802437083208" lon="2.7745911778544943"><ele>427.99999999999994</ele><time>2026-04-09T11:41:55Z</time></trkpt><trkpt lat="42.397968108809316" lon="2.7745186237832926"><ele>428.0</ele><time>2026-04-09T11:41:57Z</time></trkpt><trkpt lat="42.39802851389567" lon="2.774359863967528"><ele>428.0</ele><time>2026-04-09T11:41:59Z</time></trkpt><trkpt lat="42.398059071021045" lon="2.7742710220006668"><ele>428.0</ele><time>2026-04-09T11:42:00Z</time></trkpt><trkpt lat="42.39808842213756" lon="2.7741719388404595"><ele>427.99999999999994</ele><time>2026-04-09T11:42:01Z</time></trkpt><trkpt lat="42.398122049415974" lon="2.774066072284169"><ele>428.0</ele><time>2026-04-09T11:42:02Z</time></trkpt><trkpt lat="42.39816019755541" lon="2.773949778990835"><ele>425.3333333333333</ele><time>2026-04-09T11:42:03Z</time></trkpt><trkpt lat="42.39819961681033" lon="2.7738426621595798"><ele>422.66666666666663</ele><time>2026-04-09T11:42:04Z</time></trkpt><trkpt lat="42.39823440521751" lon="2.7737373227160758"><ele>420.0</ele><time>2026-04-09T11:42:05Z</time></trkpt><trkpt lat="42.39827556158285" lon="2.7736456136158836"><ele>417.33333333333337</ele><time>2026-04-09T11:42:06Z</time></trkpt><trkpt lat="42.398303339735676" lon="2.77354825434567"><ele>414.6666666666667</ele><time>2026-04-09T11:42:07Z</time></trkpt><trkpt lat="42.39830275826958" lon="2.773436856681878"><ele>412.0</ele><time>2026-04-09T11:42:08Z</time></trkpt><trkpt lat="42.39827155596523" lon="2.773323487113616"><ele>410.20000000000005</ele><time>2026-04-09T11:42:09Z</time></trkpt><trkpt lat="42.398223700845" lon="2.7732136314514415"><ele>408.4</ele><time>2026-04-09T11:42:10Z</time></trkpt><trkpt lat="42.39821113108591" lon="2.773073230525489"><ele>406.6</ele><time>2026-04-09T11:42:11Z</time></trkpt><trkpt lat="42.39821930523126" lon="2.772927444020788"><ele>404.79999999999995</ele><time>2026-04-09T11:42:12Z</time></trkpt><trkpt lat="42.398222774648886" lon="2.7727948874199866"><ele>403.0</ele><time>2026-04-09T11:42:13Z</time></trkpt><trkpt lat="42.398227067534705" lon="2.7726832301858173"><ele>401.2</ele><time>2026-04-09T11:42:14Z</time></trkpt><trkpt lat="42.39826464960097" lon="2.77258683022336"><ele>399.4</ele><time>2026-04-09T11:42:15Z</time></trkpt><trkpt lat="42.3983305080985" lon="2.7725250957585303"><ele>397.59999999999997</ele><time>2026-04-09T11:42:16Z</time></trkpt><trkpt lat="42.398393934664476" lon="2.7724699630678336"><ele>395.79999999999995</ele><time>2026-04-09T11:42:17Z</time></trkpt><trkpt lat="42.39845787330342" lon="2.7723411310732002"><ele>394.0</ele><time>2026-04-09T11:42:19Z</time></trkpt><trkpt lat="42.39839093400881" lon="2.7721963776823317"><ele>394.00000000000006</ele><time>2026-04-09T11:42:21Z</time></trkpt><trkpt lat="42.398322561588834" lon="2.7721667821768623"><ele>394.0</ele><time>2026-04-09T11:42:22Z</time></trkpt><trkpt lat="42.39825400942138" lon="2.7721371709337"><ele>394.0</ele><time>2026-04-09T11:42:23Z</time></trkpt><trkpt lat="42.39818445202603" lon="2.7721003378044426"><ele>394.0</ele><time>2026-04-09T11:42:24Z</time></trkpt><trkpt lat="42.39811107640236" lon="2.772059476320997"><ele>394.00000000000006</ele><time>2026-04-09T11:42:25Z</time></trkpt><trkpt lat="42.398041527937224" lon="2.772006585388527"><ele>394.0</ele><time>2026-04-09T11:42:26Z</time></trkpt><trkpt lat="42.3979813086303" lon="2.771935159527595"><ele>394.0</ele><time>2026-04-09T11:42:27Z</time></trkpt><trkpt lat="42.39791383326235" lon="2.77186711540822"><ele>394.0</ele><time>2026-04-09T11:42:28Z</time></trkpt><trkpt lat="42.39783108894272" lon="2.7718112389409097"><ele>394.0</ele><time>2026-04-09T11:42:29Z</time></trkpt><trkpt lat="42.39773934336162" lon="2.7717719709238935"><ele>394.0</ele><time>2026-04-09T11:42:30Z</time></trkpt><trkpt lat="42.39764403295613" lon="2.771727802726656"><ele>394.0</ele><time>2026-04-09T11:42:31Z</time></trkpt><trkpt lat="42.39755023124399" lon="2.7716789896165475"><ele>394.0</ele><time>2026-04-09T11:42:32Z</time></trkpt><trkpt lat="42.39745571619057" lon="2.771624757826865"><ele>394.0</ele><time>2026-04-09T11:42:33Z</time></trkpt><trkpt lat="42.39735853704229" lon="2.7715609099630085"><ele>394.0</ele><time>2026-04-09T11:42:34Z</time></trkpt><trkpt lat="42.39725542407468" lon="2.7715013779104614"><ele>394.0</ele><time>2026-04-09T11:42:35Z</time></trkpt><trkpt lat="42.39715130407244" lon="2.771443227693143"><ele>394.0</ele><time>2026-04-09T11:42:36Z</time></trkpt><trkpt lat="42.39704700284696" lon="2.7713884689111374"><ele>394.4</ele><time>2026-04-09T11:42:37Z</time></trkpt><trkpt lat="42.39694915708354" lon="2.7713420824108286"><ele>394.79999999999995</ele><time>2026-04-09T11:42:38Z</time></trkpt><trkpt lat="42.39685758807905" lon="2.7713017308636942"><ele>395.20000000000005</ele><time>2026-04-09T11:42:39Z</time></trkpt><trkpt lat="42.39677033962337" lon="2.771264380896946"><ele>395.6</ele><time>2026-04-09T11:42:40Z</time></trkpt><trkpt lat="42.396689062275435" lon="2.77123101286456"><ele>396.0</ele><time>2026-04-09T11:42:41Z</time></trkpt><trkpt lat="42.396613602226" lon="2.7711983766033645"><ele>396.0</ele><time>2026-04-09T11:42:42Z</time></trkpt><trkpt lat="42.39655368769987" lon="2.7711464458249595"><ele>396.0</ele><time>2026-04-09T11:42:43Z</time></trkpt><trkpt lat="42.39650827079679" lon="2.77106355223909"><ele>396.0</ele><time>2026-04-09T11:42:44Z</time></trkpt><trkpt lat="42.39646882603353" lon="2.7709508902790905"><ele>396.0</ele><time>2026-04-09T11:42:45Z</time></trkpt><trkpt lat="42.39642875955106" lon="2.770847215001148"><ele>396.0</ele><time>2026-04-09T11:42:46Z</time></trkpt><trkpt lat="42.3963825482064" lon="2.770758028605056"><ele>396.0</ele><time>2026-04-09T11:42:47Z</time></trkpt><trkpt lat="42.39631927660125" lon="2.7706709106859737"><ele>394.8</ele><time>2026-04-09T11:42:48Z</time></trkpt><trkpt lat="42.396247031172486" lon="2.7705918155099414"><ele>393.6</ele><time>2026-04-09T11:42:49Z</time></trkpt><trkpt lat="42.39617413025914" lon="2.7705197078765065"><ele>392.4</ele><time>2026-04-09T11:42:50Z</time></trkpt><trkpt lat="42.396081165326216" lon="2.7704467816556733"><ele>391.2</ele><time>2026-04-09T11:42:51Z</time></trkpt><trkpt lat="42.395998453697224" lon="2.770389049495873"><ele>390.0</ele><time>2026-04-09T11:42:52Z</time></trkpt><trkpt lat="42.39591928904091" lon="2.7703322327782365"><ele>390.0</ele><time>2026-04-09T11:42:53Z</time></trkpt><trkpt lat="42.39584173150472" lon="2.7702905509239453"><ele>390.0</ele><time>2026-04-09T11:42:54Z</time></trkpt><trkpt lat="42.3957606254882" lon="2.7702625212476235"><ele>390.0</ele><time>2026-04-09T11:42:55Z</time></trkpt><trkpt lat="42.39567281510366" lon="2.7702483379810316"><ele>390.0</ele><time>2026-04-09T11:42:56Z</time></trkpt><trkpt lat="42.3955854738782" lon="2.770236178966362"><ele>390.0</ele><time>2026-04-09T11:42:57Z</time></trkpt><trkpt lat="42.39549475591395" lon="2.7702259161366767"><ele>390.0</ele><time>2026-04-09T11:42:58Z</time></trkpt><trkpt lat="42.3953995876438" lon="2.770211705706537"><ele>390.2</ele><time>2026-04-09T11:42:59Z</time></trkpt><trkpt lat="42.3952993104864" lon="2.7702006211197556"><ele>390.4</ele><time>2026-04-09T11:43:00Z</time></trkpt><trkpt lat="42.395200344382545" lon="2.770190410942849"><ele>390.6</ele><time>2026-04-09T11:43:01Z</time></trkpt><trkpt lat="42.3950930864749" lon="2.770181334816669"><ele>390.8</ele><time>2026-04-09T11:43:02Z</time></trkpt><trkpt lat="42.39498551201569" lon="2.7701872138953108"><ele>391.0</ele><time>2026-04-09T11:43:03Z</time></trkpt><trkpt lat="42.394884400944555" lon="2.7702036975832725"><ele>390.20000000000005</ele><time>2026-04-09T11:43:04Z</time></trkpt><trkpt lat="42.394783315471265" lon="2.770216210863059"><ele>389.40000000000003</ele><time>2026-04-09T11:43:05Z</time></trkpt><trkpt lat="42.39468789822692" lon="2.7702291171469127"><ele>388.6</ele><time>2026-04-09T11:43:06Z</time></trkpt><trkpt lat="42.3945946312172" lon="2.770233084974018"><ele>387.8</ele><time>2026-04-09T11:43:07Z</time></trkpt><trkpt lat="42.39450428267515" lon="2.7702185047659444"><ele>387.0</ele><time>2026-04-09T11:43:08Z</time></trkpt><trkpt lat="42.39441327697042" lon="2.7701871814082635"><ele>387.0</ele><time>2026-04-09T11:43:09Z</time></trkpt><trkpt lat="42.39432557884925" lon="2.7701370011415793"><ele>387.0</ele><time>2026-04-09T11:43:10Z</time></trkpt><trkpt lat="42.394231815371626" lon="2.770085365626061"><ele>387.0</ele><time>2026-04-09T11:43:11Z</time></trkpt><trkpt lat="42.39413770702453" lon="2.770036456052686"><ele>387.0</ele><time>2026-04-09T11:43:12Z</time></trkpt><trkpt lat="42.39404386340066" lon="2.7699842400711527"><ele>387.0</ele><time>2026-04-09T11:43:13Z</time></trkpt><trkpt lat="42.3939530492414" lon="2.7699314395714247"><ele>387.0</ele><time>2026-04-09T11:43:14Z</time></trkpt><trkpt lat="42.39386527412375" lon="2.7698692178447053"><ele>387.0</ele><time>2026-04-09T11:43:15Z</time></trkpt><trkpt lat="42.393781573523036" lon="2.7697990440597615"><ele>387.0</ele><time>2026-04-09T11:43:16Z</time></trkpt><trkpt lat="42.39371300169004" lon="2.769737291231518"><ele>387.0</ele><time>2026-04-09T11:43:17Z</time></trkpt><trkpt lat="42.39365164785776" lon="2.7696906159691554"><ele>387.0</ele><time>2026-04-09T11:43:18Z</time></trkpt><trkpt lat="42.39352663437599" lon="2.7696481334260703"><ele>386.3333333333333</ele><time>2026-04-09T11:43:20Z</time></trkpt><trkpt lat="42.393454507478125" lon="2.769670435363999"><ele>385.6666666666667</ele><time>2026-04-09T11:43:21Z</time></trkpt><trkpt lat="42.39338013112287" lon="2.7697063269402675"><ele>385.0</ele><time>2026-04-09T11:43:22Z</time></trkpt><trkpt lat="42.393299937534" lon="2.7697312240305325"><ele>384.33333333333337</ele><time>2026-04-09T11:43:23Z</time></trkpt><trkpt lat="42.393218903760996" lon="2.7697451340341916"><ele>383.6666666666667</ele><time>2026-04-09T11:43:24Z</time></trkpt><trkpt lat="42.39313105733476" lon="2.7697388093557285"><ele>383.0</ele><time>2026-04-09T11:43:25Z</time></trkpt><trkpt lat="42.39303872412091" lon="2.76973188326962"><ele>382.59999999999997</ele><time>2026-04-09T11:43:26Z</time></trkpt><trkpt lat="42.39293713355062" lon="2.7697352476266284"><ele>382.2</ele><time>2026-04-09T11:43:27Z</time></trkpt><trkpt lat="42.39283481968464" lon="2.769741633783886"><ele>381.8</ele><time>2026-04-09T11:43:28Z</time></trkpt><trkpt lat="42.392734136733274" lon="2.7697524636825377"><ele>381.4</ele><time>2026-04-09T11:43:29Z</time></trkpt><trkpt lat="42.392633679277935" lon="2.7697545775536434"><ele>381.0</ele><time>2026-04-09T11:43:30Z</time></trkpt><trkpt lat="42.39253445459897" lon="2.7697460475584834"><ele>381.0</ele><time>2026-04-09T11:43:31Z</time></trkpt><trkpt lat="42.39243709366408" lon="2.769724506495884"><ele>381.0</ele><time>2026-04-09T11:43:32Z</time></trkpt><trkpt lat="42.39234020602377" lon="2.76969563438937"><ele>381.0</ele><time>2026-04-09T11:43:33Z</time></trkpt><trkpt lat="42.392244668876195" lon="2.7696608126576514"><ele>381.0</ele><time>2026-04-09T11:43:34Z</time></trkpt><trkpt lat="42.39215963253781" lon="2.7696130796349157"><ele>381.0</ele><time>2026-04-09T11:43:35Z</time></trkpt><trkpt lat="42.39208229673049" lon="2.7695470980464987"><ele>381.20000000000005</ele><time>2026-04-09T11:43:36Z</time></trkpt><trkpt lat="42.39201472431045" lon="2.769458873295369"><ele>381.40000000000003</ele><time>2026-04-09T11:43:37Z</time></trkpt><trkpt lat="42.39195097013472" lon="2.7693656446755233"><ele>381.6</ele><time>2026-04-09T11:43:38Z</time></trkpt><trkpt lat="42.391893248049854" lon="2.7692728029006437"><ele>381.8</ele><time>2026-04-09T11:43:39Z</time></trkpt><trkpt lat="42.39183621880122" lon="2.7691811251513125"><ele>382.0</ele><time>2026-04-09T11:43:40Z</time></trkpt><trkpt lat="42.3917721757117" lon="2.769097572072518"><ele>382.8333333333333</ele><time>2026-04-09T11:43:41Z</time></trkpt><trkpt lat="42.39170528740101" lon="2.7690203400100977"><ele>383.66666666666663</ele><time>2026-04-09T11:43:42Z</time></trkpt><trkpt lat="42.39165315817074" lon="2.768948765190708"><ele>384.5</ele><time>2026-04-09T11:43:43Z</time></trkpt><trkpt lat="42.39162728098698" lon="2.768867607162921"><ele>385.3333333333333</ele><time>2026-04-09T11:43:44Z</time></trkpt><trkpt lat="42.39162132299362" lon="2.768759192962564"><ele>386.1666666666667</ele><time>2026-04-09T11:43:45Z</time></trkpt><trkpt lat="42.391661548265425" lon="2.768665083670045"><ele>387.0</ele><time>2026-04-09T11:43:46Z</time></trkpt><trkpt lat="42.39172098457838" lon="2.7685558591552404"><ele>384.25</ele><time>2026-04-09T11:43:47Z</time></trkpt><trkpt lat="42.39178321230263" lon="2.768432468233843"><ele>381.5</ele><time>2026-04-09T11:43:48Z</time></trkpt><trkpt lat="42.39184396915169" lon="2.768294904227282"><ele>378.75</ele><time>2026-04-09T11:43:49Z</time></trkpt><trkpt lat="42.39189983115917" lon="2.768140521726763"><ele>376.0</ele><time>2026-04-09T11:43:50Z</time></trkpt><trkpt lat="42.39195115101475" lon="2.767976990808456"><ele>376.0</ele><time>2026-04-09T11:43:51Z</time></trkpt><trkpt lat="42.391984208099174" lon="2.7678262777407827"><ele>376.0</ele><time>2026-04-09T11:43:52Z</time></trkpt><trkpt lat="42.392003657611994" lon="2.7676939872637463"><ele>376.0</ele><time>2026-04-09T11:43:53Z</time></trkpt><trkpt lat="42.39201566417323" lon="2.767559052623164"><ele>376.0</ele><time>2026-04-09T11:43:54Z</time></trkpt><trkpt lat="42.39200595531164" lon="2.767411366862987"><ele>376.0</ele><time>2026-04-09T11:43:55Z</time></trkpt><trkpt lat="42.39196530394577" lon="2.76726222272886"><ele>373.25</ele><time>2026-04-09T11:43:56Z</time></trkpt><trkpt lat="42.39193554959718" lon="2.7671055502772326"><ele>370.5</ele><time>2026-04-09T11:43:57Z</time></trkpt><trkpt lat="42.39191285911453" lon="2.766943922476931"><ele>367.75</ele><time>2026-04-09T11:43:58Z</time></trkpt><trkpt lat="42.391889334857794" lon="2.7667961364260467"><ele>365.0</ele><time>2026-04-09T11:43:59Z</time></trkpt><trkpt lat="42.391865467890135" lon="2.7666600186523214"><ele>363.6666666666667</ele><time>2026-04-09T11:44:00Z</time></trkpt><trkpt lat="42.39184502890434" lon="2.766543844678833"><ele>362.33333333333337</ele><time>2026-04-09T11:44:01Z</time></trkpt><trkpt lat="42.39182599488261" lon="2.7664518914827934"><ele>361.0</ele><time>2026-04-09T11:44:02Z</time></trkpt><trkpt lat="42.39180402145657" lon="2.7663692979171906"><ele>359.6666666666667</ele><time>2026-04-09T11:44:03Z</time></trkpt><trkpt lat="42.391712569175624" lon="2.766272480062811"><ele>358.3333333333333</ele><time>2026-04-09T11:44:05Z</time></trkpt><trkpt lat="42.39163611993564" lon="2.7662631009710292"><ele>357.0</ele><time>2026-04-09T11:44:06Z</time></trkpt><trkpt lat="42.391553014037825" lon="2.766269700018524"><ele>357.0</ele><time>2026-04-09T11:44:07Z</time></trkpt><trkpt lat="42.391461601106826" lon="2.7662768007317258"><ele>357.0</ele><time>2026-04-09T11:44:08Z</time></trkpt><trkpt lat="42.39136788125893" lon="2.7662757849933945"><ele>357.0</ele><time>2026-04-09T11:44:09Z</time></trkpt><trkpt lat="42.39127829978577" lon="2.7662824606149936"><ele>357.0</ele><time>2026-04-09T11:44:10Z</time></trkpt><trkpt lat="42.39119757046629" lon="2.766287182062206"><ele>357.0</ele><time>2026-04-09T11:44:11Z</time></trkpt><trkpt lat="42.391120674907334" lon="2.766284884734849"><ele>357.0</ele><time>2026-04-09T11:44:12Z</time></trkpt><trkpt lat="42.39104833346933" lon="2.7662808588467382"><ele>355.40000000000003</ele><time>2026-04-09T11:44:13Z</time></trkpt><trkpt lat="42.390978044276316" lon="2.7662618369019714"><ele>353.8</ele><time>2026-04-09T11:44:14Z</time></trkpt><trkpt lat="42.39088029269699" lon="2.7662073745736513"><ele>352.2</ele><time>2026-04-09T11:44:16Z</time></trkpt><trkpt lat="42.39082664216246" lon="2.7661078149156872"><ele>350.6</ele><time>2026-04-09T11:44:21Z</time></trkpt><trkpt lat="42.39086464741887" lon="2.765976293776874"><ele>349.0</ele><time>2026-04-09T11:44:23Z</time></trkpt><trkpt lat="42.39092336475698" lon="2.765823121085049"><ele>347.2</ele><time>2026-04-09T11:44:25Z</time></trkpt><trkpt lat="42.39094594921492" lon="2.7657105700556266"><ele>345.4</ele><time>2026-04-09T11:44:26Z</time></trkpt><trkpt lat="42.390954733162935" lon="2.765572531855669"><ele>343.6</ele><time>2026-04-09T11:44:27Z</time></trkpt><trkpt lat="42.39095097360801" lon="2.7654387910703124"><ele>341.8</ele><time>2026-04-09T11:44:28Z</time></trkpt><trkpt lat="42.39092581962892" lon="2.7652974716096765"><ele>340.0</ele><time>2026-04-09T11:44:29Z</time></trkpt><trkpt lat="42.39088331562723" lon="2.765151990768178"><ele>339.5</ele><time>2026-04-09T11:44:30Z</time></trkpt><trkpt lat="42.39082175984946" lon="2.7650097170679344"><ele>339.0</ele><time>2026-04-09T11:44:31Z</time></trkpt><trkpt lat="42.390761473399216" lon="2.7648676756143766"><ele>338.5</ele><time>2026-04-09T11:44:32Z</time></trkpt><trkpt lat="42.390703401443105" lon="2.7647287340353275"><ele>338.0</ele><time>2026-04-09T11:44:33Z</time></trkpt><trkpt lat="42.39064458656651" lon="2.764594251719165"><ele>338.0</ele><time>2026-04-09T11:44:34Z</time></trkpt><trkpt lat="42.390577806909825" lon="2.7644630661201623"><ele>338.0</ele><time>2026-04-09T11:44:35Z</time></trkpt><trkpt lat="42.39050251159364" lon="2.764330048483563"><ele>338.0</ele><time>2026-04-09T11:44:36Z</time></trkpt><trkpt lat="42.39041197602004" lon="2.7642156040233807"><ele>338.0</ele><time>2026-04-09T11:44:37Z</time></trkpt><trkpt lat="42.39030937086379" lon="2.7641278751145824"><ele>339.0</ele><time>2026-04-09T11:44:38Z</time></trkpt><trkpt lat="42.390193567043546" lon="2.7640706802758976"><ele>340.0</ele><time>2026-04-09T11:44:39Z</time></trkpt><trkpt lat="42.39007140871714" lon="2.7640520647970654"><ele>341.0</ele><time>2026-04-09T11:44:40Z</time></trkpt><trkpt lat="42.3899449564997" lon="2.7640691049971657"><ele>342.0</ele><time>2026-04-09T11:44:41Z</time></trkpt><trkpt lat="42.38982096661238" lon="2.7641150687301135"><ele>342.0</ele><time>2026-04-09T11:44:42Z</time></trkpt><trkpt lat="42.38970075502085" lon="2.7641740434014572"><ele>342.0</ele><time>2026-04-09T11:44:43Z</time></trkpt><trkpt lat="42.38957568451816" lon="2.76423269631234"><ele>342.0</ele><time>2026-04-09T11:44:44Z</time></trkpt><trkpt lat="42.389449877740375" lon="2.76428765838962"><ele>342.0</ele><time>2026-04-09T11:44:45Z</time></trkpt><trkpt lat="42.389328613632934" lon="2.764340665195334"><ele>343.25</ele><time>2026-04-09T11:44:46Z</time></trkpt><trkpt lat="42.38921152819125" lon="2.7643665531271338"><ele>344.5</ele><time>2026-04-09T11:44:47Z</time></trkpt><trkpt lat="42.38909729399976" lon="2.7643485715290064"><ele>345.75</ele><time>2026-04-09T11:44:48Z</time></trkpt><trkpt lat="42.38898641594129" lon="2.764278233179738"><ele>347.0</ele><time>2026-04-09T11:44:49Z</time></trkpt><trkpt lat="42.388884476488535" lon="2.7641836289834387"><ele>345.5</ele><time>2026-04-09T11:44:50Z</time></trkpt><trkpt lat="42.388784164341416" lon="2.7640788535517156"><ele>344.0</ele><time>2026-04-09T11:44:51Z</time></trkpt><trkpt lat="42.388681060255315" lon="2.7639715310703514"><ele>342.5</ele><time>2026-04-09T11:44:52Z</time></trkpt><trkpt lat="42.388584453576435" lon="2.763846801637867"><ele>341.0</ele><time>2026-04-09T11:44:53Z</time></trkpt><trkpt lat="42.388485793161294" lon="2.7637162630032908"><ele>341.0</ele><time>2026-04-09T11:44:54Z</time></trkpt><trkpt lat="42.38838137445514" lon="2.7635854040434116"><ele>341.0</ele><time>2026-04-09T11:44:55Z</time></trkpt><trkpt lat="42.38827691715518" lon="2.7634563640895498"><ele>341.0</ele><time>2026-04-09T11:44:56Z</time></trkpt><trkpt lat="42.38817105572075" lon="2.7633273698571603"><ele>341.0</ele><time>2026-04-09T11:44:57Z</time></trkpt><trkpt lat="42.388070678251" lon="2.763190657898776"><ele>340.5</ele><time>2026-04-09T11:44:58Z</time></trkpt><trkpt lat="42.387979703955956" lon="2.763040998668472"><ele>340.0</ele><time>2026-04-09T11:44:59Z</time></trkpt><trkpt lat="42.38789408796888" lon="2.762887842945732"><ele>339.5</ele><time>2026-04-09T11:45:00Z</time></trkpt><trkpt lat="42.38780795299033" lon="2.76274001602023"><ele>339.0</ele><time>2026-04-09T11:45:01Z</time></trkpt><trkpt lat="42.387726629016" lon="2.7625999255912865"><ele>342.75</ele><time>2026-04-09T11:45:02Z</time></trkpt><trkpt lat="42.38764783410931" lon="2.7624660774301337"><ele>346.5</ele><time>2026-04-09T11:45:03Z</time></trkpt><trkpt lat="42.387573019698195" lon="2.7623317355305588"><ele>350.25</ele><time>2026-04-09T11:45:04Z</time></trkpt><trkpt lat="42.38750047670906" lon="2.7622101333583506"><ele>354.0</ele><time>2026-04-09T11:45:05Z</time></trkpt><trkpt lat="42.38744006977876" lon="2.7620927781535296"><ele>354.0</ele><time>2026-04-09T11:45:06Z</time></trkpt><trkpt lat="42.387406616604636" lon="2.7619625334758453"><ele>354.0</ele><time>2026-04-09T11:45:07Z</time></trkpt><trkpt lat="42.387409178897855" lon="2.7618131067959184"><ele>354.0</ele><time>2026-04-09T11:45:08Z</time></trkpt><trkpt lat="42.38744659914125" lon="2.7616649245881657"><ele>354.0</ele><time>2026-04-09T11:45:09Z</time></trkpt><trkpt lat="42.38748982763973" lon="2.761516866191671"><ele>354.0</ele><time>2026-04-09T11:45:10Z</time></trkpt><trkpt lat="42.38753372530323" lon="2.7613617046219865"><ele>354.5</ele><time>2026-04-09T11:45:11Z</time></trkpt><trkpt lat="42.38758236748715" lon="2.761197891501722"><ele>355.0</ele><time>2026-04-09T11:45:12Z</time></trkpt><trkpt lat="42.38763100555765" lon="2.7610315725953773"><ele>355.5</ele><time>2026-04-09T11:45:13Z</time></trkpt><trkpt lat="42.387679089134714" lon="2.760869500368655"><ele>356.0</ele><time>2026-04-09T11:45:14Z</time></trkpt><trkpt lat="42.387722767912805" lon="2.7607114403011797"><ele>355.20000000000005</ele><time>2026-04-09T11:45:15Z</time></trkpt><trkpt lat="42.38776481727504" lon="2.7605610785555523"><ele>354.40000000000003</ele><time>2026-04-09T11:45:16Z</time></trkpt><trkpt lat="42.38780667494945" lon="2.7604205606852084"><ele>353.6</ele><time>2026-04-09T11:45:17Z</time></trkpt><trkpt lat="42.3878430494506" lon="2.760283817815578"><ele>352.8</ele><time>2026-04-09T11:45:18Z</time></trkpt><trkpt lat="42.38786961486627" lon="2.7601487184111178"><ele>352.0</ele><time>2026-04-09T11:45:19Z</time></trkpt><trkpt lat="42.38788459210136" lon="2.760019407993015"><ele>351.20000000000005</ele><time>2026-04-09T11:45:20Z</time></trkpt><trkpt lat="42.387885045328076" lon="2.759891662686496"><ele>350.4</ele><time>2026-04-09T11:45:21Z</time></trkpt><trkpt lat="42.38786590318797" lon="2.7597639091391843"><ele>349.6</ele><time>2026-04-09T11:45:22Z</time></trkpt><trkpt lat="42.3878362707105" lon="2.759638007340535"><ele>348.79999999999995</ele><time>2026-04-09T11:45:23Z</time></trkpt><trkpt lat="42.38779637153741" lon="2.759517569664585"><ele>348.0</ele><time>2026-04-09T11:45:24Z</time></trkpt><trkpt lat="42.38774361170006" lon="2.7594099687918905"><ele>349.4</ele><time>2026-04-09T11:45:25Z</time></trkpt><trkpt lat="42.387671821000374" lon="2.759316099199595"><ele>350.79999999999995</ele><time>2026-04-09T11:45:26Z</time></trkpt><trkpt lat="42.38758248627798" lon="2.7592396121399236"><ele>352.2</ele><time>2026-04-09T11:45:27Z</time></trkpt><trkpt lat="42.387486247085896" lon="2.759177554210887"><ele>353.6</ele><time>2026-04-09T11:45:28Z</time></trkpt><trkpt lat="42.38738620854143" lon="2.7591160803892762"><ele>355.0</ele><time>2026-04-09T11:45:29Z</time></trkpt><trkpt lat="42.38729396810523" lon="2.7590436318285594"><ele>355.0</ele><time>2026-04-09T11:45:30Z</time></trkpt><trkpt lat="42.38721213285718" lon="2.7589538032872074"><ele>355.0</ele><time>2026-04-09T11:45:31Z</time></trkpt><trkpt lat="42.38714841246486" lon="2.7588374368134003"><ele>355.0</ele><time>2026-04-09T11:45:32Z</time></trkpt><trkpt lat="42.3871082834056" lon="2.7587057319116286"><ele>355.0</ele><time>2026-04-09T11:45:33Z</time></trkpt><trkpt lat="42.38707778511225" lon="2.758558615837067"><ele>355.0</ele><time>2026-04-09T11:45:34Z</time></trkpt><trkpt lat="42.3870466552474" lon="2.7584049130741346"><ele>354.25</ele><time>2026-04-09T11:45:35Z</time></trkpt><trkpt lat="42.387004395269685" lon="2.758246173372365"><ele>353.5</ele><time>2026-04-09T11:45:36Z</time></trkpt><trkpt lat="42.38696092615479" lon="2.7580813908575665"><ele>352.75</ele><time>2026-04-09T11:45:37Z</time></trkpt><trkpt lat="42.38691425161896" lon="2.7579095989176308"><ele>352.0</ele><time>2026-04-09T11:45:38Z</time></trkpt><trkpt lat="42.38686982541514" lon="2.7577458705416458"><ele>351.75</ele><time>2026-04-09T11:45:39Z</time></trkpt><trkpt lat="42.386828669901405" lon="2.7575868983996403"><ele>351.5</ele><time>2026-04-09T11:45:40Z</time></trkpt><trkpt lat="42.386786458012764" lon="2.7574302264659156"><ele>351.25</ele><time>2026-04-09T11:45:41Z</time></trkpt><trkpt lat="42.38674419196541" lon="2.7572705442266536"><ele>351.0</ele><time>2026-04-09T11:45:42Z</time></trkpt><trkpt lat="42.38669879790141" lon="2.7571113720003932"><ele>351.0</ele><time>2026-04-09T11:45:43Z</time></trkpt><trkpt lat="42.386654840767456" lon="2.756953770183995"><ele>351.0</ele><time>2026-04-09T11:45:44Z</time></trkpt><trkpt lat="42.38661129374687" lon="2.7567902826382067"><ele>351.0</ele><time>2026-04-09T11:45:45Z</time></trkpt><trkpt lat="42.386567116192694" lon="2.756627754890386"><ele>351.0</ele><time>2026-04-09T11:45:46Z</time></trkpt><trkpt lat="42.3865249756003" lon="2.7564641507305736"><ele>351.0</ele><time>2026-04-09T11:45:47Z</time></trkpt><trkpt lat="42.38648069101245" lon="2.756300550494935"><ele>351.0</ele><time>2026-04-09T11:45:48Z</time></trkpt><trkpt lat="42.386436033363864" lon="2.7561378713443507"><ele>351.0</ele><time>2026-04-09T11:45:49Z</time></trkpt><trkpt lat="42.38639072465664" lon="2.755978024920161"><ele>351.0</ele><time>2026-04-09T11:45:50Z</time></trkpt><trkpt lat="42.38635152684862" lon="2.755822121202844"><ele>350.0</ele><time>2026-04-09T11:45:51Z</time></trkpt><trkpt lat="42.38630703969765" lon="2.7556669578494115"><ele>349.0</ele><time>2026-04-09T11:45:52Z</time></trkpt><trkpt lat="42.38626422539375" lon="2.7555163547930634"><ele>348.0</ele><time>2026-04-09T11:45:53Z</time></trkpt><trkpt lat="42.386224960139984" lon="2.755374386976993"><ele>347.0</ele><time>2026-04-09T11:45:54Z</time></trkpt><trkpt lat="42.386187286448056" lon="2.755239173134476"><ele>347.0</ele><time>2026-04-09T11:45:55Z</time></trkpt><trkpt lat="42.386150227789585" lon="2.7551061483125543"><ele>347.0</ele><time>2026-04-09T11:45:56Z</time></trkpt><trkpt lat="42.38611538889929" lon="2.754971881173279"><ele>347.0</ele><time>2026-04-09T11:45:57Z</time></trkpt><trkpt lat="42.38608061635874" lon="2.754834722085825"><ele>347.0</ele><time>2026-04-09T11:45:58Z</time></trkpt><trkpt lat="42.38604089157779" lon="2.754703572206956"><ele>347.0</ele><time>2026-04-09T11:45:59Z</time></trkpt><trkpt lat="42.38600746677325" lon="2.7545734890532976"><ele>347.0</ele><time>2026-04-09T11:46:00Z</time></trkpt><trkpt lat="42.38597845607414" lon="2.7544486284973773"><ele>347.0</ele><time>2026-04-09T11:46:01Z</time></trkpt><trkpt lat="42.3859455842692" lon="2.7543274352009313"><ele>347.0</ele><time>2026-04-09T11:46:02Z</time></trkpt><trkpt lat="42.385915942465374" lon="2.7542149234835507"><ele>347.0</ele><time>2026-04-09T11:46:03Z</time></trkpt><trkpt lat="42.38588893959562" lon="2.754107044767528"><ele>347.0</ele><time>2026-04-09T11:46:04Z</time></trkpt><trkpt lat="42.385861948428726" lon="2.7540026899898606"><ele>347.0</ele><time>2026-04-09T11:46:05Z</time></trkpt><trkpt lat="42.385833247558516" lon="2.7539090776208224"><ele>347.1666666666667</ele><time>2026-04-09T11:46:06Z</time></trkpt><trkpt lat="42.385793460154176" lon="2.753824760423702"><ele>347.33333333333337</ele><time>2026-04-09T11:46:07Z</time></trkpt><trkpt lat="42.38574063740672" lon="2.753754621543203"><ele>347.5</ele><time>2026-04-09T11:46:08Z</time></trkpt><trkpt lat="42.38567694004996" lon="2.7536974899644315"><ele>347.6666666666667</ele><time>2026-04-09T11:46:09Z</time></trkpt><trkpt lat="42.38560808493054" lon="2.7536514961389567"><ele>347.8333333333333</ele><time>2026-04-09T11:46:10Z</time></trkpt><trkpt lat="42.38553185649426" lon="2.7536180011151523"><ele>348.0</ele><time>2026-04-09T11:46:11Z</time></trkpt><trkpt lat="42.38544917205072" lon="2.753588046647633"><ele>347.8333333333333</ele><time>2026-04-09T11:46:12Z</time></trkpt><trkpt lat="42.38536545906762" lon="2.7535676115026733"><ele>347.6666666666667</ele><time>2026-04-09T11:46:13Z</time></trkpt><trkpt lat="42.385283431520925" lon="2.753551959397835"><ele>347.5</ele><time>2026-04-09T11:46:14Z</time></trkpt><trkpt lat="42.385207499262705" lon="2.753531176468665"><ele>347.33333333333337</ele><time>2026-04-09T11:46:15Z</time></trkpt><trkpt lat="42.385138549672575" lon="2.7535032426653414"><ele>347.1666666666667</ele><time>2026-04-09T11:46:16Z</time></trkpt><trkpt lat="42.38507175189248" lon="2.753460542811503"><ele>347.0</ele><time>2026-04-09T11:46:17Z</time></trkpt><trkpt lat="42.38501325528981" lon="2.7534002144526695"><ele>347.0</ele><time>2026-04-09T11:46:18Z</time></trkpt><trkpt lat="42.38496108749305" lon="2.753323057589658"><ele>347.0</ele><time>2026-04-09T11:46:19Z</time></trkpt><trkpt lat="42.384919206579745" lon="2.753228625964403"><ele>347.0</ele><time>2026-04-09T11:46:20Z</time></trkpt><trkpt lat="42.384886717602704" lon="2.7531186513634793"><ele>347.0</ele><time>2026-04-09T11:46:21Z</time></trkpt><trkpt lat="42.38486130775689" lon="2.7529969322000762"><ele>347.0</ele><time>2026-04-09T11:46:22Z</time></trkpt><trkpt lat="42.38484101619264" lon="2.7528715319212913"><ele>347.0</ele><time>2026-04-09T11:46:23Z</time></trkpt><trkpt lat="42.384822773557644" lon="2.7527441319317294"><ele>347.40000000000003</ele><time>2026-04-09T11:46:24Z</time></trkpt><trkpt lat="42.384803258131086" lon="2.7526175213190798"><ele>347.8</ele><time>2026-04-09T11:46:25Z</time></trkpt><trkpt lat="42.38478229647182" lon="2.752491970404614"><ele>348.2</ele><time>2026-04-09T11:46:26Z</time></trkpt><trkpt lat="42.384758327836984" lon="2.7523707877243644"><ele>348.6</ele><time>2026-04-09T11:46:27Z</time></trkpt><trkpt lat="42.38473011204271" lon="2.752253424595085"><ele>349.0</ele><time>2026-04-09T11:46:28Z</time></trkpt><trkpt lat="42.38469511320492" lon="2.75213405625439"><ele>348.2</ele><time>2026-04-09T11:46:29Z</time></trkpt><trkpt lat="42.3846520149369" lon="2.7520172880278113"><ele>347.4</ele><time>2026-04-09T11:46:30Z</time></trkpt><trkpt lat="42.3845996183271" lon="2.7518995966748783"><ele>346.6</ele><time>2026-04-09T11:46:31Z</time></trkpt><trkpt lat="42.3845385009131" lon="2.7517790694224686"><ele>345.8</ele><time>2026-04-09T11:46:32Z</time></trkpt><trkpt lat="42.38446776515968" lon="2.7516616188200196"><ele>345.0</ele><time>2026-04-09T11:46:33Z</time></trkpt><trkpt lat="42.38438987851985" lon="2.7515515475718155"><ele>345.0</ele><time>2026-04-09T11:46:34Z</time></trkpt><trkpt lat="42.384306248006105" lon="2.7514502988595217"><ele>345.0</ele><time>2026-04-09T11:46:35Z</time></trkpt><trkpt lat="42.38421567415235" lon="2.751359817728383"><ele>345.0</ele><time>2026-04-09T11:46:36Z</time></trkpt><trkpt lat="42.384124553243645" lon="2.7512710929683166"><ele>345.0</ele><time>2026-04-09T11:46:37Z</time></trkpt><trkpt lat="42.384032091150544" lon="2.7511770430065026"><ele>345.0</ele><time>2026-04-09T11:46:38Z</time></trkpt><trkpt lat="42.38393412949523" lon="2.7510759558490463"><ele>345.0</ele><time>2026-04-09T11:46:39Z</time></trkpt><trkpt lat="42.38383009935574" lon="2.750969877193408"><ele>345.0</ele><time>2026-04-09T11:46:40Z</time></trkpt><trkpt lat="42.38372045947437" lon="2.7508604068160754"><ele>345.0</ele><time>2026-04-09T11:46:41Z</time></trkpt><trkpt lat="42.38360630030965" lon="2.7507456491717464"><ele>346.5</ele><time>2026-04-09T11:46:42Z</time></trkpt><trkpt lat="42.38348929960016" lon="2.750627594774697"><ele>348.0</ele><time>2026-04-09T11:46:43Z</time></trkpt><trkpt lat="42.38337836678458" lon="2.7505168983619392"><ele>349.5</ele><time>2026-04-09T11:46:44Z</time></trkpt><trkpt lat="42.383268060193195" lon="2.7504077911867464"><ele>351.0</ele><time>2026-04-09T11:46:45Z</time></trkpt><trkpt lat="42.38315571512087" lon="2.7502939400496915"><ele>352.0</ele><time>2026-04-09T11:46:46Z</time></trkpt><trkpt lat="42.383042772572786" lon="2.75017961981047"><ele>353.0</ele><time>2026-04-09T11:46:47Z</time></trkpt><trkpt lat="42.3829314608547" lon="2.7500584804155794"><ele>354.0</ele><time>2026-04-09T11:46:48Z</time></trkpt><trkpt lat="42.382827719665435" lon="2.749928406122761"><ele>355.0</ele><time>2026-04-09T11:46:49Z</time></trkpt><trkpt lat="42.38273212237824" lon="2.749789367440894"><ele>356.75</ele><time>2026-04-09T11:46:50Z</time></trkpt><trkpt lat="42.382646391611424" lon="2.749641899663153"><ele>358.5</ele><time>2026-04-09T11:46:51Z</time></trkpt><trkpt lat="42.382569021632605" lon="2.749489129308233"><ele>360.25</ele><time>2026-04-09T11:46:52Z</time></trkpt><trkpt lat="42.38250452176102" lon="2.7493306148709973"><ele>362.0</ele><time>2026-04-09T11:46:53Z</time></trkpt><trkpt lat="42.3824478072188" lon="2.749164339054891"><ele>363.0</ele><time>2026-04-09T11:46:54Z</time></trkpt><trkpt lat="42.382400783134" lon="2.7489933335664056"><ele>364.0</ele><time>2026-04-09T11:46:55Z</time></trkpt><trkpt lat="42.38236058084085" lon="2.748818555460353"><ele>365.0</ele><time>2026-04-09T11:46:56Z</time></trkpt><trkpt lat="42.382326690556475" lon="2.7486407545715754"><ele>366.0</ele><time>2026-04-09T11:46:57Z</time></trkpt><trkpt lat="42.38230324728159" lon="2.748460051150654"><ele>368.0</ele><time>2026-04-09T11:46:58Z</time></trkpt><trkpt lat="42.38229135874989" lon="2.748278966913272"><ele>370.0</ele><time>2026-04-09T11:46:59Z</time></trkpt><trkpt lat="42.38229233859771" lon="2.7480983734890025"><ele>372.0</ele><time>2026-04-09T11:47:00Z</time></trkpt><trkpt lat="42.38230365481186" lon="2.747914519522372"><ele>374.0</ele><time>2026-04-09T11:47:01Z</time></trkpt><trkpt lat="42.38232790073008" lon="2.747735149363824"><ele>375.75</ele><time>2026-04-09T11:47:02Z</time></trkpt><trkpt lat="42.38235911617586" lon="2.747553494502833"><ele>377.5</ele><time>2026-04-09T11:47:03Z</time></trkpt><trkpt lat="42.38240070761271" lon="2.747372523836315"><ele>379.25</ele><time>2026-04-09T11:47:04Z</time></trkpt><trkpt lat="42.38245578652107" lon="2.747195297360544"><ele>381.0</ele><time>2026-04-09T11:47:05Z</time></trkpt><trkpt lat="42.38252422052584" lon="2.747022333113042"><ele>381.75</ele><time>2026-04-09T11:47:06Z</time></trkpt><trkpt lat="42.38260511031905" lon="2.7468536063904967"><ele>382.5</ele><time>2026-04-09T11:47:07Z</time></trkpt><trkpt lat="42.38269275945356" lon="2.7466911054343295"><ele>383.25</ele><time>2026-04-09T11:47:08Z</time></trkpt><trkpt lat="42.38279149114907" lon="2.7465352940575274"><ele>384.0</ele><time>2026-04-09T11:47:09Z</time></trkpt><trkpt lat="42.38290334658743" lon="2.7463915473706964"><ele>384.66666666666663</ele><time>2026-04-09T11:47:10Z</time></trkpt><trkpt lat="42.38302883196935" lon="2.7462657353583193"><ele>385.3333333333333</ele><time>2026-04-09T11:47:11Z</time></trkpt><trkpt lat="42.38316191413356" lon="2.7461450153116345"><ele>386.0</ele><time>2026-04-09T11:47:12Z</time></trkpt><trkpt lat="42.383305102213775" lon="2.746031207864407"><ele>386.0</ele><time>2026-04-09T11:47:13Z</time></trkpt><trkpt lat="42.38345367161839" lon="2.7459247472694623"><ele>386.0</ele><time>2026-04-09T11:47:14Z</time></trkpt><trkpt lat="42.38360158232773" lon="2.745818554543382"><ele>386.0</ele><time>2026-04-09T11:47:15Z</time></trkpt><trkpt lat="42.383748276878" lon="2.7457121332534755"><ele>386.3333333333333</ele><time>2026-04-09T11:47:16Z</time></trkpt><trkpt lat="42.38389124587516" lon="2.7456076561181284"><ele>386.66666666666663</ele><time>2026-04-09T11:47:17Z</time></trkpt><trkpt lat="42.384031125179725" lon="2.7455058454746757"><ele>387.0</ele><time>2026-04-09T11:47:18Z</time></trkpt><trkpt lat="42.384169221231716" lon="2.745404365971832"><ele>387.0</ele><time>2026-04-09T11:47:19Z</time></trkpt><trkpt lat="42.38430220242323" lon="2.7453043081642075"><ele>387.0</ele><time>2026-04-09T11:47:20Z</time></trkpt><trkpt lat="42.38443188637437" lon="2.745206363287581"><ele>387.0</ele><time>2026-04-09T11:47:21Z</time></trkpt><trkpt lat="42.38455566834613" lon="2.7451144598929194"><ele>387.0</ele><time>2026-04-09T11:47:22Z</time></trkpt><trkpt lat="42.38467030637305" lon="2.7450336759702143"><ele>388.0</ele><time>2026-04-09T11:47:23Z</time></trkpt><trkpt lat="42.38477650570386" lon="2.7449573145280257"><ele>389.0</ele><time>2026-04-09T11:47:24Z</time></trkpt><trkpt lat="42.384877925792196" lon="2.744873234976066"><ele>390.0</ele><time>2026-04-09T11:47:25Z</time></trkpt><trkpt lat="42.38497542176718" lon="2.744774589033416"><ele>391.0</ele><time>2026-04-09T11:47:26Z</time></trkpt><trkpt lat="42.3850674187321" lon="2.744665205825911"><ele>391.0</ele><time>2026-04-09T11:47:27Z</time></trkpt><trkpt lat="42.385153925072856" lon="2.7445467264408046"><ele>391.0</ele><time>2026-04-09T11:47:28Z</time></trkpt><trkpt lat="42.385233939216725" lon="2.7444196230837448"><ele>391.0</ele><time>2026-04-09T11:47:29Z</time></trkpt><trkpt lat="42.38530709908263" lon="2.744284727127269"><ele>391.0</ele><time>2026-04-09T11:47:30Z</time></trkpt><trkpt lat="42.385370918860424" lon="2.7441415309062736"><ele>393.75</ele><time>2026-04-09T11:47:31Z</time></trkpt><trkpt lat="42.385430231310224" lon="2.743994727543668"><ele>396.5</ele><time>2026-04-09T11:47:32Z</time></trkpt><trkpt lat="42.385483121301014" lon="2.743841357504186"><ele>399.25</ele><time>2026-04-09T11:47:33Z</time></trkpt><trkpt lat="42.38552981207176" lon="2.743683946289373"><ele>402.0</ele><time>2026-04-09T11:47:34Z</time></trkpt><trkpt lat="42.38557336642302" lon="2.7435239575848236"><ele>404.75</ele><time>2026-04-09T11:47:35Z</time></trkpt><trkpt lat="42.385614803264914" lon="2.743362194772218"><ele>407.5</ele><time>2026-04-09T11:47:36Z</time></trkpt><trkpt lat="42.38565481966176" lon="2.7432013944377394"><ele>410.25</ele><time>2026-04-09T11:47:37Z</time></trkpt><trkpt lat="42.38569344518618" lon="2.743042319371696"><ele>413.0</ele><time>2026-04-09T11:47:38Z</time></trkpt><trkpt lat="42.385732768613" lon="2.7428837225349754"><ele>413.0</ele><time>2026-04-09T11:47:39Z</time></trkpt><trkpt lat="42.385773122303476" lon="2.7427272092967443"><ele>413.0</ele><time>2026-04-09T11:47:40Z</time></trkpt><trkpt lat="42.38581324549731" lon="2.742571886121509"><ele>413.0</ele><time>2026-04-09T11:47:41Z</time></trkpt><trkpt lat="42.3858523350845" lon="2.7424150588339735"><ele>413.0</ele><time>2026-04-09T11:47:42Z</time></trkpt><trkpt lat="42.385892207578436" lon="2.742257085979296"><ele>414.25</ele><time>2026-04-09T11:47:43Z</time></trkpt><trkpt lat="42.385930587990515" lon="2.7420967543848547"><ele>415.5</ele><time>2026-04-09T11:47:44Z</time></trkpt><trkpt lat="42.38597062095783" lon="2.7419381485182672"><ele>416.75</ele><time>2026-04-09T11:47:45Z</time></trkpt><trkpt lat="42.38601170336104" lon="2.741777147360001"><ele>418.0</ele><time>2026-04-09T11:47:46Z</time></trkpt><trkpt lat="42.38605162046574" lon="2.7416145137512684"><ele>419.75</ele><time>2026-04-09T11:47:47Z</time></trkpt><trkpt lat="42.38609337748633" lon="2.741452647283113"><ele>421.5</ele><time>2026-04-09T11:47:48Z</time></trkpt><trkpt lat="42.38613473321044" lon="2.741287849346849"><ele>423.25</ele><time>2026-04-09T11:47:49Z</time></trkpt><trkpt lat="42.386176977903666" lon="2.741123765019386"><ele>425.0</ele><time>2026-04-09T11:47:50Z</time></trkpt><trkpt lat="42.38621782388416" lon="2.740960337359532"><ele>425.75</ele><time>2026-04-09T11:47:51Z</time></trkpt><trkpt lat="42.38625138111068" lon="2.740794189067423"><ele>426.5</ele><time>2026-04-09T11:47:52Z</time></trkpt><trkpt lat="42.38627563302706" lon="2.7406244984215276"><ele>427.25</ele><time>2026-04-09T11:47:53Z</time></trkpt><trkpt lat="42.38628774393892" lon="2.740452737701043"><ele>428.0</ele><time>2026-04-09T11:47:54Z</time></trkpt><trkpt lat="42.386283827222606" lon="2.7402762400074865"><ele>429.25</ele><time>2026-04-09T11:47:55Z</time></trkpt><trkpt lat="42.386265641764325" lon="2.740100615167395"><ele>430.5</ele><time>2026-04-09T11:47:56Z</time></trkpt><trkpt lat="42.38623525162635" lon="2.7399277374225575"><ele>431.75</ele><time>2026-04-09T11:47:57Z</time></trkpt><trkpt lat="42.38619171190129" lon="2.7397569312586683"><ele>433.0</ele><time>2026-04-09T11:47:58Z</time></trkpt><trkpt lat="42.38613204250297" lon="2.7395916917189984"><ele>433.0</ele><time>2026-04-09T11:47:59Z</time></trkpt><trkpt lat="42.3860566499937" lon="2.739435864533002"><ele>433.0</ele><time>2026-04-09T11:48:00Z</time></trkpt><trkpt lat="42.38597418273204" lon="2.7392842367973267"><ele>433.0</ele><time>2026-04-09T11:48:01Z</time></trkpt><trkpt lat="42.38588996730762" lon="2.739130906849654"><ele>433.0</ele><time>2026-04-09T11:48:02Z</time></trkpt><trkpt lat="42.38580409346078" lon="2.7389753796588727"><ele>434.5</ele><time>2026-04-09T11:48:03Z</time></trkpt><trkpt lat="42.38571779002274" lon="2.7388180986111426"><ele>436.0</ele><time>2026-04-09T11:48:04Z</time></trkpt><trkpt lat="42.385632973506596" lon="2.7386620469091136"><ele>437.5</ele><time>2026-04-09T11:48:05Z</time></trkpt><trkpt lat="42.38554992969439" lon="2.7385029127965113"><ele>439.0</ele><time>2026-04-09T11:48:06Z</time></trkpt><trkpt lat="42.38547119550434" lon="2.7383390990140404"><ele>439.75</ele><time>2026-04-09T11:48:07Z</time></trkpt><trkpt lat="42.3853948187968" lon="2.738172853827068"><ele>440.5</ele><time>2026-04-09T11:48:08Z</time></trkpt><trkpt lat="42.38532414858177" lon="2.738002891931699"><ele>441.25</ele><time>2026-04-09T11:48:09Z</time></trkpt><trkpt lat="42.38525924551678" lon="2.73782124293877"><ele>442.0</ele><time>2026-04-09T11:48:10Z</time></trkpt><trkpt lat="42.38520372992745" lon="2.7376275630867695"><ele>442.0</ele><time>2026-04-09T11:48:11Z</time></trkpt><trkpt lat="42.38515901873919" lon="2.73742370884455"><ele>442.0</ele><time>2026-04-09T11:48:12Z</time></trkpt><trkpt lat="42.385120872828615" lon="2.7372088257288483"><ele>442.0</ele><time>2026-04-09T11:48:13Z</time></trkpt><trkpt lat="42.38508709367201" lon="2.736989296466673"><ele>441.6666666666667</ele><time>2026-04-09T11:48:14Z</time></trkpt><trkpt lat="42.385054355454535" lon="2.736766831566976"><ele>441.33333333333337</ele><time>2026-04-09T11:48:15Z</time></trkpt><trkpt lat="42.385023688924456" lon="2.736541915363718"><ele>441.0</ele><time>2026-04-09T11:48:16Z</time></trkpt><trkpt lat="42.38499371104452" lon="2.73632316829157"><ele>441.0</ele><time>2026-04-09T11:48:17Z</time></trkpt><trkpt lat="42.384962791966984" lon="2.7361067413753837"><ele>441.0</ele><time>2026-04-09T11:48:18Z</time></trkpt><trkpt lat="42.3849324027136" lon="2.7358911068040066"><ele>441.0</ele><time>2026-04-09T11:48:19Z</time></trkpt><trkpt lat="42.384902162220534" lon="2.735673272809947"><ele>441.0</ele><time>2026-04-09T11:48:20Z</time></trkpt><trkpt lat="42.384873966593574" lon="2.7354580659185728"><ele>441.0</ele><time>2026-04-09T11:48:21Z</time></trkpt><trkpt lat="42.38484511242195" lon="2.7352438480880843"><ele>441.0</ele><time>2026-04-09T11:48:22Z</time></trkpt><trkpt lat="42.384825448264834" lon="2.7350319018622873"><ele>439.0</ele><time>2026-04-09T11:48:23Z</time></trkpt><trkpt lat="42.38482104903415" lon="2.734822333331946"><ele>437.0</ele><time>2026-04-09T11:48:24Z</time></trkpt><trkpt lat="42.38483028055544" lon="2.7346082532627536"><ele>435.0</ele><time>2026-04-09T11:48:25Z</time></trkpt><trkpt lat="42.38485454296939" lon="2.734404089693115"><ele>433.25</ele><time>2026-04-09T11:48:26Z</time></trkpt><trkpt lat="42.3848988171796" lon="2.734210370450635"><ele>431.5</ele><time>2026-04-09T11:48:27Z</time></trkpt><trkpt lat="42.384958007832076" lon="2.7340253045619236"><ele>429.75</ele><time>2026-04-09T11:48:28Z</time></trkpt><trkpt lat="42.38502959049069" lon="2.733846271333278"><ele>428.0</ele><time>2026-04-09T11:48:29Z</time></trkpt><trkpt lat="42.38510622015837" lon="2.7336686124476075"><ele>426.0</ele><time>2026-04-09T11:48:30Z</time></trkpt><trkpt lat="42.385181445727376" lon="2.7334953511775195"><ele>424.0</ele><time>2026-04-09T11:48:31Z</time></trkpt><trkpt lat="42.385253964284864" lon="2.733329225183329"><ele>422.0</ele><time>2026-04-09T11:48:32Z</time></trkpt><trkpt lat="42.385316307890804" lon="2.7331633930331427"><ele>420.0</ele><time>2026-04-09T11:48:33Z</time></trkpt><trkpt lat="42.38536466176391" lon="2.7329985333334466"><ele>420.0</ele><time>2026-04-09T11:48:34Z</time></trkpt><trkpt lat="42.385393135020195" lon="2.7328289669022854"><ele>420.0</ele><time>2026-04-09T11:48:35Z</time></trkpt><trkpt lat="42.385403297872685" lon="2.73265681681675"><ele>420.0</ele><time>2026-04-09T11:48:36Z</time></trkpt><trkpt lat="42.38539695146649" lon="2.7324884591318894"><ele>420.0</ele><time>2026-04-09T11:48:37Z</time></trkpt><trkpt lat="42.385369318352296" lon="2.732321195356006"><ele>421.25</ele><time>2026-04-09T11:48:38Z</time></trkpt><trkpt lat="42.38532434480991" lon="2.7321580761059385"><ele>422.5</ele><time>2026-04-09T11:48:39Z</time></trkpt><trkpt lat="42.38526042235195" lon="2.732003468727734"><ele>423.75</ele><time>2026-04-09T11:48:40Z</time></trkpt><trkpt lat="42.38517784670971" lon="2.7318644816547946"><ele>425.0</ele><time>2026-04-09T11:48:41Z</time></trkpt><trkpt lat="42.38507583620267" lon="2.7317441183471476"><ele>428.5</ele><time>2026-04-09T11:48:42Z</time></trkpt><trkpt lat="42.384966439975" lon="2.7316418699749185"><ele>432.0</ele><time>2026-04-09T11:48:43Z</time></trkpt><trkpt lat="42.38484444428315" lon="2.731568420450899"><ele>435.5</ele><time>2026-04-09T11:48:44Z</time></trkpt><trkpt lat="42.3847120495041" lon="2.731522298687786"><ele>439.0</ele><time>2026-04-09T11:48:45Z</time></trkpt><trkpt lat="42.384574467093536" lon="2.7315044115979554"><ele>440.75</ele><time>2026-04-09T11:48:46Z</time></trkpt><trkpt lat="42.38443444040173" lon="2.731520928443993"><ele>442.5</ele><time>2026-04-09T11:48:47Z</time></trkpt><trkpt lat="42.38429802100589" lon="2.7315681526092668"><ele>444.25</ele><time>2026-04-09T11:48:48Z</time></trkpt><trkpt lat="42.38416510918151" lon="2.7316442272707206"><ele>446.0</ele><time>2026-04-09T11:48:49Z</time></trkpt><trkpt lat="42.38404147371822" lon="2.7317472838771386"><ele>446.0</ele><time>2026-04-09T11:48:50Z</time></trkpt><trkpt lat="42.38392779808628" lon="2.7318726951133376"><ele>446.0</ele><time>2026-04-09T11:48:51Z</time></trkpt><trkpt lat="42.3838290569975" lon="2.7320224992629165"><ele>446.0</ele><time>2026-04-09T11:48:52Z</time></trkpt><trkpt lat="42.3837384647578" lon="2.732185595151256"><ele>446.0</ele><time>2026-04-09T11:48:53Z</time></trkpt><trkpt lat="42.38364307111704" lon="2.7323423294368205"><ele>443.75</ele><time>2026-04-09T11:48:54Z</time></trkpt><trkpt lat="42.38354630342216" lon="2.732492545554574"><ele>441.5</ele><time>2026-04-09T11:48:55Z</time></trkpt><trkpt lat="42.38344319320778" lon="2.7326359210880726"><ele>439.25</ele><time>2026-04-09T11:48:56Z</time></trkpt><trkpt lat="42.38333536898642" lon="2.7327595668258415"><ele>437.0</ele><time>2026-04-09T11:48:57Z</time></trkpt><trkpt lat="42.383220049789266" lon="2.732864684302066"><ele>437.0</ele><time>2026-04-09T11:48:58Z</time></trkpt><trkpt lat="42.38309420528157" lon="2.732949446298709"><ele>437.0</ele><time>2026-04-09T11:48:59Z</time></trkpt><trkpt lat="42.382960268429365" lon="2.7330190084380153"><ele>437.0</ele><time>2026-04-09T11:49:00Z</time></trkpt><trkpt lat="42.38281839655281" lon="2.733066092189087"><ele>437.0</ele><time>2026-04-09T11:49:01Z</time></trkpt><trkpt lat="42.38267183868256" lon="2.7330979234598765"><ele>442.3333333333333</ele><time>2026-04-09T11:49:02Z</time></trkpt><trkpt lat="42.38252203558188" lon="2.7331075945560994"><ele>447.66666666666663</ele><time>2026-04-09T11:49:03Z</time></trkpt><trkpt lat="42.38237129617531" lon="2.7330958992006997"><ele>453.0</ele><time>2026-04-09T11:49:04Z</time></trkpt><trkpt lat="42.38222483742025" lon="2.733059232586379"><ele>450.66666666666663</ele><time>2026-04-09T11:49:05Z</time></trkpt><trkpt lat="42.38208475835072" lon="2.7329908280181403"><ele>448.3333333333333</ele><time>2026-04-09T11:49:06Z</time></trkpt><trkpt lat="42.38194903861473" lon="2.732903214472312"><ele>446.0</ele><time>2026-04-09T11:49:07Z</time></trkpt><trkpt lat="42.381815635858345" lon="2.7327982899444723"><ele>451.3333333333333</ele><time>2026-04-09T11:49:08Z</time></trkpt><trkpt lat="42.381685413516614" lon="2.7326854753151615"><ele>456.66666666666663</ele><time>2026-04-09T11:49:09Z</time></trkpt><trkpt lat="42.38155659931793" lon="2.732570041205202"><ele>462.0</ele><time>2026-04-09T11:49:10Z</time></trkpt><trkpt lat="42.381426951619616" lon="2.732459519826548"><ele>459.5</ele><time>2026-04-09T11:49:11Z</time></trkpt><trkpt lat="42.38130483890019" lon="2.73235142607137"><ele>457.0</ele><time>2026-04-09T11:49:12Z</time></trkpt><trkpt lat="42.38118710005781" lon="2.73224505160457"><ele>454.5</ele><time>2026-04-09T11:49:13Z</time></trkpt><trkpt lat="42.381075769671135" lon="2.7321418500613857"><ele>452.0</ele><time>2026-04-09T11:49:14Z</time></trkpt><trkpt lat="42.38097493244932" lon="2.7320239261937713"><ele>453.75</ele><time>2026-04-09T11:49:15Z</time></trkpt><trkpt lat="42.3808908833674" lon="2.731885196385778"><ele>455.5</ele><time>2026-04-09T11:49:16Z</time></trkpt><trkpt lat="42.380823249395895" lon="2.7317274437195644"><ele>457.25</ele><time>2026-04-09T11:49:17Z</time></trkpt><trkpt lat="42.380775783408275" lon="2.7315604733302568"><ele>459.0</ele><time>2026-04-09T11:49:18Z</time></trkpt><trkpt lat="42.380750505294344" lon="2.731387228664395"><ele>459.0</ele><time>2026-04-09T11:49:19Z</time></trkpt><trkpt lat="42.38074764335948" lon="2.731217507664081"><ele>459.0</ele><time>2026-04-09T11:49:20Z</time></trkpt><trkpt lat="42.38077244526575" lon="2.7310541284321177"><ele>459.0</ele><time>2026-04-09T11:49:21Z</time></trkpt><trkpt lat="42.38078810847682" lon="2.7308881633424744"><ele>459.0</ele><time>2026-04-09T11:49:22Z</time></trkpt><trkpt lat="42.38086819252284" lon="2.7307436737282123"><ele>459.5</ele><time>2026-04-09T11:49:23Z</time></trkpt><trkpt lat="42.38096599916154" lon="2.730608850672313"><ele>460.0</ele><time>2026-04-09T11:49:24Z</time></trkpt><trkpt lat="42.381083731110856" lon="2.7304921871643133"><ele>460.5</ele><time>2026-04-09T11:49:25Z</time></trkpt><trkpt lat="42.381213814195185" lon="2.730389413070802"><ele>461.0</ele><time>2026-04-09T11:49:26Z</time></trkpt><trkpt lat="42.38135799794936" lon="2.7303026968126134"><ele>458.66666666666663</ele><time>2026-04-09T11:49:27Z</time></trkpt><trkpt lat="42.38150336518287" lon="2.7302062697321294"><ele>456.33333333333337</ele><time>2026-04-09T11:49:28Z</time></trkpt><trkpt lat="42.381645902855965" lon="2.7301141675038507"><ele>454.0</ele><time>2026-04-09T11:49:29Z</time></trkpt><trkpt lat="42.381785950944426" lon="2.730022971101416"><ele>454.0</ele><time>2026-04-09T11:49:30Z</time></trkpt><trkpt lat="42.381924077323" lon="2.7299352276567124"><ele>454.0</ele><time>2026-04-09T11:49:31Z</time></trkpt><trkpt lat="42.38205907998556" lon="2.729850113013015"><ele>454.0</ele><time>2026-04-09T11:49:32Z</time></trkpt><trkpt lat="42.38219139838651" lon="2.72976735939915"><ele>454.0</ele><time>2026-04-09T11:49:33Z</time></trkpt><trkpt lat="42.38231921692187" lon="2.729686649897629"><ele>455.75</ele><time>2026-04-09T11:49:34Z</time></trkpt><trkpt lat="42.38244308380995" lon="2.729602093175643"><ele>457.5</ele><time>2026-04-09T11:49:35Z</time></trkpt><trkpt lat="42.38255785304756" lon="2.729504358105767"><ele>459.25</ele><time>2026-04-09T11:49:36Z</time></trkpt><trkpt lat="42.382658102847756" lon="2.7293888335060443"><ele>461.0</ele><time>2026-04-09T11:49:37Z</time></trkpt><trkpt lat="42.38274619394463" lon="2.7292545689281766"><ele>457.5</ele><time>2026-04-09T11:49:38Z</time></trkpt><trkpt lat="42.38282016965151" lon="2.7291029940856895"><ele>454.0</ele><time>2026-04-09T11:49:39Z</time></trkpt><trkpt lat="42.38286910612879" lon="2.7289390994407143"><ele>450.5</ele><time>2026-04-09T11:49:40Z</time></trkpt><trkpt lat="42.38288647529142" lon="2.728762779443041"><ele>447.0</ele><time>2026-04-09T11:49:41Z</time></trkpt><trkpt lat="42.38287243319157" lon="2.728583266264929"><ele>447.5</ele><time>2026-04-09T11:49:42Z</time></trkpt><trkpt lat="42.38283382128628" lon="2.728401534843369"><ele>448.0</ele><time>2026-04-09T11:49:43Z</time></trkpt><trkpt lat="42.382783982049716" lon="2.7282204246205706"><ele>448.5</ele><time>2026-04-09T11:49:44Z</time></trkpt><trkpt lat="42.38271153709545" lon="2.7280505606822856"><ele>449.0</ele><time>2026-04-09T11:49:45Z</time></trkpt><trkpt lat="42.38261431147943" lon="2.727901867586028"><ele>449.0</ele><time>2026-04-09T11:49:46Z</time></trkpt><trkpt lat="42.382496741308806" lon="2.7277791613534523"><ele>449.0</ele><time>2026-04-09T11:49:47Z</time></trkpt><trkpt lat="42.382370843289316" lon="2.727667445489729"><ele>449.0</ele><time>2026-04-09T11:49:48Z</time></trkpt><trkpt lat="42.38224066477098" lon="2.727560417000995"><ele>451.3333333333333</ele><time>2026-04-09T11:49:49Z</time></trkpt><trkpt lat="42.38210815503707" lon="2.727451736671131"><ele>453.66666666666663</ele><time>2026-04-09T11:49:50Z</time></trkpt><trkpt lat="42.38197662529277" lon="2.7273445806360574"><ele>456.0</ele><time>2026-04-09T11:49:51Z</time></trkpt><trkpt lat="42.38185329302818" lon="2.7272376018654585"><ele>456.0</ele><time>2026-04-09T11:49:52Z</time></trkpt><trkpt lat="42.381743797955174" lon="2.7271270398905783"><ele>456.0</ele><time>2026-04-09T11:49:53Z</time></trkpt><trkpt lat="42.38164331395175" lon="2.7269998978569734"><ele>456.0</ele><time>2026-04-09T11:49:54Z</time></trkpt><trkpt lat="42.38155559662148" lon="2.726854375444739"><ele>456.0</ele><time>2026-04-09T11:49:55Z</time></trkpt><trkpt lat="42.381485822905915" lon="2.7266922562169333"><ele>458.25</ele><time>2026-04-09T11:49:56Z</time></trkpt><trkpt lat="42.38144508252598" lon="2.7265140515258017"><ele>460.5</ele><time>2026-04-09T11:49:57Z</time></trkpt><trkpt lat="42.381429189872826" lon="2.7263230631233486"><ele>462.75</ele><time>2026-04-09T11:49:58Z</time></trkpt><trkpt lat="42.38142889963116" lon="2.7261265650824598"><ele>465.0</ele><time>2026-04-09T11:49:59Z</time></trkpt><trkpt lat="42.38144688832091" lon="2.725927615357395"><ele>466.33333333333337</ele><time>2026-04-09T11:50:00Z</time></trkpt><trkpt lat="42.381480340020126" lon="2.725726155846398"><ele>467.6666666666667</ele><time>2026-04-09T11:50:01Z</time></trkpt><trkpt lat="42.38151307707807" lon="2.7255196003173023"><ele>469.0</ele><time>2026-04-09T11:50:02Z</time></trkpt><trkpt lat="42.3815455518363" lon="2.725308611263526"><ele>468.6666666666667</ele><time>2026-04-09T11:50:03Z</time></trkpt><trkpt lat="42.381583848833685" lon="2.725100218258996"><ele>468.33333333333337</ele><time>2026-04-09T11:50:04Z</time></trkpt><trkpt lat="42.381627247291" lon="2.7248941289951314"><ele>468.0</ele><time>2026-04-09T11:50:05Z</time></trkpt><trkpt lat="42.381681307132055" lon="2.724692334804085"><ele>468.0</ele><time>2026-04-09T11:50:06Z</time></trkpt><trkpt lat="42.38174684615422" lon="2.7244947703170386"><ele>468.0</ele><time>2026-04-09T11:50:07Z</time></trkpt><trkpt lat="42.38182474765329" lon="2.724303219340096"><ele>468.0</ele><time>2026-04-09T11:50:08Z</time></trkpt><trkpt lat="42.38191947346336" lon="2.7241181004968777"><ele>467.33333333333337</ele><time>2026-04-09T11:50:09Z</time></trkpt><trkpt lat="42.38203041352314" lon="2.7239450996788945"><ele>466.6666666666667</ele><time>2026-04-09T11:50:10Z</time></trkpt><trkpt lat="42.382148853207276" lon="2.7237792498130133"><ele>466.0</ele><time>2026-04-09T11:50:11Z</time></trkpt><trkpt lat="42.38225912132645" lon="2.7236117502518282"><ele>466.33333333333337</ele><time>2026-04-09T11:50:12Z</time></trkpt><trkpt lat="42.382370076466934" lon="2.7234518632340734"><ele>466.66666666666663</ele><time>2026-04-09T11:50:13Z</time></trkpt><trkpt lat="42.38248276418533" lon="2.723297818321501"><ele>467.0</ele><time>2026-04-09T11:50:14Z</time></trkpt><trkpt lat="42.382598230217916" lon="2.7231503161171142"><ele>467.0</ele><time>2026-04-09T11:50:15Z</time></trkpt><trkpt lat="42.38271631343075" lon="2.7230140349834193"><ele>467.0</ele><time>2026-04-09T11:50:16Z</time></trkpt><trkpt lat="42.382844405639034" lon="2.722887721685291"><ele>467.0</ele><time>2026-04-09T11:50:17Z</time></trkpt><trkpt lat="42.382981417418236" lon="2.722773485423975"><ele>464.3333333333333</ele><time>2026-04-09T11:50:18Z</time></trkpt><trkpt lat="42.38312791510762" lon="2.7226689057370197"><ele>461.66666666666663</ele><time>2026-04-09T11:50:19Z</time></trkpt><trkpt lat="42.383281163604515" lon="2.7225724654278745"><ele>459.0</ele><time>2026-04-09T11:50:20Z</time></trkpt><trkpt lat="42.383442611615145" lon="2.7224874219842277"><ele>459.0</ele><time>2026-04-09T11:50:21Z</time></trkpt><trkpt lat="42.38360975965039" lon="2.722417942209801"><ele>459.0</ele><time>2026-04-09T11:50:22Z</time></trkpt><trkpt lat="42.38377455780654" lon="2.72234280152012"><ele>459.0</ele><time>2026-04-09T11:50:23Z</time></trkpt><trkpt lat="42.38393924084681" lon="2.722268355450639"><ele>461.33333333333337</ele><time>2026-04-09T11:50:24Z</time></trkpt><trkpt lat="42.38410049872341" lon="2.7221913003128844"><ele>463.6666666666667</ele><time>2026-04-09T11:50:25Z</time></trkpt><trkpt lat="42.38425692812598" lon="2.7221065289228044"><ele>466.0</ele><time>2026-04-09T11:50:26Z</time></trkpt><trkpt lat="42.3844087593802" lon="2.72201742696711"><ele>466.0</ele><time>2026-04-09T11:50:27Z</time></trkpt><trkpt lat="42.38455444604894" lon="2.7219253391909737"><ele>466.0</ele><time>2026-04-09T11:50:28Z</time></trkpt><trkpt lat="42.38469546137699" lon="2.721828111893615"><ele>466.0</ele><time>2026-04-09T11:50:29Z</time></trkpt><trkpt lat="42.38482913905927" lon="2.721729018444083"><ele>463.25</ele><time>2026-04-09T11:50:30Z</time></trkpt><trkpt lat="42.38495999705649" lon="2.7216278726254357"><ele>460.5</ele><time>2026-04-09T11:50:31Z</time></trkpt><trkpt lat="42.3850866839843" lon="2.7215268621098647"><ele>457.75</ele><time>2026-04-09T11:50:32Z</time></trkpt><trkpt lat="42.38521052090003" lon="2.721427580919904"><ele>455.0</ele><time>2026-04-09T11:50:33Z</time></trkpt><trkpt lat="42.385335292482274" lon="2.7213269613737774"><ele>455.0</ele><time>2026-04-09T11:50:33.999Z</time></trkpt><trkpt lat="42.38546158773006" lon="2.7212256101261825"><ele>455.0</ele><time>2026-04-09T11:50:34.999Z</time></trkpt><trkpt lat="42.38558801422374" lon="2.72112130215598"><ele>455.0</ele><time>2026-04-09T11:50:35.999Z</time></trkpt><trkpt lat="42.385714035495724" lon="2.7210207387181513"><ele>455.0</ele><time>2026-04-09T11:50:36.999Z</time></trkpt><trkpt lat="42.38583823735679" lon="2.7209223259037256"><ele>454.25</ele><time>2026-04-09T11:50:37.999Z</time></trkpt><trkpt lat="42.38595734211675" lon="2.7208255763739904"><ele>453.5</ele><time>2026-04-09T11:50:38.999Z</time></trkpt><trkpt lat="42.38607020085293" lon="2.720731412998163"><ele>452.75</ele><time>2026-04-09T11:50:39.999Z</time></trkpt><trkpt lat="42.38618073633015" lon="2.720639859533073"><ele>452.0</ele><time>2026-04-09T11:50:40.999Z</time></trkpt><trkpt lat="42.38628550501062" lon="2.720546130294555"><ele>453.0</ele><time>2026-04-09T11:50:41.999Z</time></trkpt><trkpt lat="42.38637523220546" lon="2.7204380977246876"><ele>454.0</ele><time>2026-04-09T11:50:42.999Z</time></trkpt><trkpt lat="42.386444656521874" lon="2.720308294055981"><ele>455.0</ele><time>2026-04-09T11:50:43.999Z</time></trkpt><trkpt lat="42.38649516966213" lon="2.720165059635934"><ele>456.0</ele><time>2026-04-09T11:50:44.999Z</time></trkpt><trkpt lat="42.38650729035295" lon="2.719997692306504"><ele>456.0</ele><time>2026-04-09T11:50:45.999Z</time></trkpt><trkpt lat="42.38649572014867" lon="2.7198455506585355"><ele>456.0</ele><time>2026-04-09T11:50:46.999Z</time></trkpt><trkpt lat="42.38645437643726" lon="2.719692617147995"><ele>456.0</ele><time>2026-04-09T11:50:47.999Z</time></trkpt><trkpt lat="42.38639768488876" lon="2.719541469382976"><ele>456.0</ele><time>2026-04-09T11:50:48.999Z</time></trkpt><trkpt lat="42.38634239640139" lon="2.7193945378202558"><ele>453.75</ele><time>2026-04-09T11:50:49.999Z</time></trkpt><trkpt lat="42.386309361624804" lon="2.719236537985534"><ele>451.5</ele><time>2026-04-09T11:50:50.999Z</time></trkpt><trkpt lat="42.38629746147218" lon="2.719070597699586"><ele>449.25</ele><time>2026-04-09T11:50:51.999Z</time></trkpt><trkpt lat="42.386308997688005" lon="2.7188959311088388"><ele>447.0</ele><time>2026-04-09T11:50:52.999Z</time></trkpt><trkpt lat="42.38632805964445" lon="2.7187165455075966"><ele>451.75</ele><time>2026-04-09T11:50:53.999Z</time></trkpt><trkpt lat="42.38634491652499" lon="2.7185341132493512"><ele>456.5</ele><time>2026-04-09T11:50:54.999Z</time></trkpt><trkpt lat="42.38636144726104" lon="2.718345873437893"><ele>461.25</ele><time>2026-04-09T11:50:55.999Z</time></trkpt><trkpt lat="42.38637294643226" lon="2.7181579550410286"><ele>466.0</ele><time>2026-04-09T11:50:56.999Z</time></trkpt><trkpt lat="42.38636705645826" lon="2.7179723141087435"><ele>466.0</ele><time>2026-04-09T11:50:57.999Z</time></trkpt><trkpt lat="42.38634615774056" lon="2.7177887452867178"><ele>466.0</ele><time>2026-04-09T11:50:58.999Z</time></trkpt><trkpt lat="42.38630272215814" lon="2.717611876216309"><ele>466.0</ele><time>2026-04-09T11:50:59.999Z</time></trkpt><trkpt lat="42.386237766618414" lon="2.717446597329788"><ele>466.0</ele><time>2026-04-09T11:51:00.999Z</time></trkpt><trkpt lat="42.386162055867665" lon="2.7172912994258356"><ele>465.5</ele><time>2026-04-09T11:51:01.999Z</time></trkpt><trkpt lat="42.38606944316476" lon="2.717157172110131"><ele>465.0</ele><time>2026-04-09T11:51:02.999Z</time></trkpt><trkpt lat="42.38596795050012" lon="2.7170363255335794"><ele>464.5</ele><time>2026-04-09T11:51:03.999Z</time></trkpt><trkpt lat="42.385861795397346" lon="2.716926648032891"><ele>464.0</ele><time>2026-04-09T11:51:04.999Z</time></trkpt><trkpt lat="42.385755925428846" lon="2.7168205590841463"><ele>464.0</ele><time>2026-04-09T11:51:05.999Z</time></trkpt><trkpt lat="42.385650181874375" lon="2.7167156473618688"><ele>464.0</ele><time>2026-04-09T11:51:06.999Z</time></trkpt><trkpt lat="42.385544966654194" lon="2.7166140564963723"><ele>464.0</ele><time>2026-04-09T11:51:07.999Z</time></trkpt><trkpt lat="42.38544265813542" lon="2.7165133820038867"><ele>464.0</ele><time>2026-04-09T11:51:08.999Z</time></trkpt><trkpt lat="42.38534429158974" lon="2.716404293157585"><ele>464.5</ele><time>2026-04-09T11:51:09.999Z</time></trkpt><trkpt lat="42.385256698502836" lon="2.716283373960127"><ele>465.0</ele><time>2026-04-09T11:51:10.999Z</time></trkpt><trkpt lat="42.38517590961792" lon="2.716154143133392"><ele>465.5</ele><time>2026-04-09T11:51:11.999Z</time></trkpt><trkpt lat="42.38510371218279" lon="2.716018756906009"><ele>466.0</ele><time>2026-04-09T11:51:12.999Z</time></trkpt><trkpt lat="42.385042661886224" lon="2.7158765846723085"><ele>467.75</ele><time>2026-04-09T11:51:13.999Z</time></trkpt><trkpt lat="42.38499057824685" lon="2.7157297362486204"><ele>469.5</ele><time>2026-04-09T11:51:14.999Z</time></trkpt><trkpt lat="42.38494785420318" lon="2.7155804913488697"><ele>471.25</ele><time>2026-04-09T11:51:15.999Z</time></trkpt><trkpt lat="42.38491601151166" lon="2.715429662023805"><ele>473.0</ele><time>2026-04-09T11:51:16.999Z</time></trkpt><trkpt lat="42.384893865889595" lon="2.7152860343076397"><ele>474.59999999999997</ele><time>2026-04-09T11:51:17.999Z</time></trkpt><trkpt lat="42.38487808590263" lon="2.715137297493617"><ele>476.19999999999993</ele><time>2026-04-09T11:51:18.999Z</time></trkpt><trkpt lat="42.38486294194315" lon="2.7149887712770675"><ele>477.8</ele><time>2026-04-09T11:51:19.999Z</time></trkpt><trkpt lat="42.384848409043855" lon="2.71483786377616"><ele>479.4</ele><time>2026-04-09T11:51:20.999Z</time></trkpt><trkpt lat="42.384834672837854" lon="2.7146868926269376"><ele>481.0</ele><time>2026-04-09T11:51:21.999Z</time></trkpt><trkpt lat="42.384820030901786" lon="2.714535656376874"><ele>483.5</ele><time>2026-04-09T11:51:22.999Z</time></trkpt><trkpt lat="42.384805251129976" lon="2.714382786504148"><ele>486.0</ele><time>2026-04-09T11:51:23.999Z</time></trkpt><trkpt lat="42.38479014246304" lon="2.714227329440424"><ele>488.5</ele><time>2026-04-09T11:51:24.999Z</time></trkpt><trkpt lat="42.38477541630621" lon="2.714071187000518"><ele>491.0</ele><time>2026-04-09T11:51:25.999Z</time></trkpt><trkpt lat="42.384761034711715" lon="2.7139119315057845"><ele>491.0</ele><time>2026-04-09T11:51:26.999Z</time></trkpt><trkpt lat="42.3847466686724" lon="2.7137463819816885"><ele>491.0</ele><time>2026-04-09T11:51:27.999Z</time></trkpt><trkpt lat="42.384736836146075" lon="2.7135818184272105"><ele>491.0</ele><time>2026-04-09T11:51:28.999Z</time></trkpt><trkpt lat="42.38473521595397" lon="2.7134130066671402"><ele>491.0</ele><time>2026-04-09T11:51:29.999Z</time></trkpt><trkpt lat="42.38474673124103" lon="2.713248297948194"><ele>491.5</ele><time>2026-04-09T11:51:30.999Z</time></trkpt><trkpt lat="42.384771247711306" lon="2.7130873906205375"><ele>492.0</ele><time>2026-04-09T11:51:31.999Z</time></trkpt><trkpt lat="42.384811652240884" lon="2.7129291240546336"><ele>492.5</ele><time>2026-04-09T11:51:32.999Z</time></trkpt><trkpt lat="42.38486952359002" lon="2.712773903529952"><ele>493.0</ele><time>2026-04-09T11:51:33.999Z</time></trkpt><trkpt lat="42.384946693076024" lon="2.712630693638798"><ele>489.5</ele><time>2026-04-09T11:51:34.999Z</time></trkpt><trkpt lat="42.38504274189598" lon="2.712497135503877"><ele>486.0</ele><time>2026-04-09T11:51:35.999Z</time></trkpt><trkpt lat="42.3851547937428" lon="2.7123724247332133"><ele>482.5</ele><time>2026-04-09T11:51:36.999Z</time></trkpt><trkpt lat="42.38527527887999" lon="2.7122482560749797"><ele>479.0</ele><time>2026-04-09T11:51:37.999Z</time></trkpt><trkpt lat="42.38539979531241" lon="2.712123015046915"><ele>482.0</ele><time>2026-04-09T11:51:38.999Z</time></trkpt><trkpt lat="42.385523119493044" lon="2.7119937929439515"><ele>485.0</ele><time>2026-04-09T11:51:39.999Z</time></trkpt><trkpt lat="42.38563756867879" lon="2.711855745260803"><ele>488.0</ele><time>2026-04-09T11:51:40.999Z</time></trkpt><trkpt lat="42.38574864287011" lon="2.711711492856449"><ele>488.0</ele><time>2026-04-09T11:51:41.999Z</time></trkpt><trkpt lat="42.38585060611871" lon="2.711558340275398"><ele>488.0</ele><time>2026-04-09T11:51:42.999Z</time></trkpt><trkpt lat="42.38594234523139" lon="2.7113939281793153"><ele>488.0</ele><time>2026-04-09T11:51:43.999Z</time></trkpt><trkpt lat="42.38602778716198" lon="2.711222643784598"><ele>481.66666666666663</ele><time>2026-04-09T11:51:44.999Z</time></trkpt><trkpt lat="42.38610210043593" lon="2.7110424982697254"><ele>475.33333333333337</ele><time>2026-04-09T11:51:45.999Z</time></trkpt><trkpt lat="42.38615650363213" lon="2.710851690923003"><ele>469.0</ele><time>2026-04-09T11:51:46.999Z</time></trkpt><trkpt lat="42.38620036745795" lon="2.710653061546118"><ele>469.0</ele><time>2026-04-09T11:51:47.999Z</time></trkpt><trkpt lat="42.3862306804518" lon="2.710451388525976"><ele>469.0</ele><time>2026-04-09T11:51:48.999Z</time></trkpt><trkpt lat="42.38625016782339" lon="2.7102403157703603"><ele>469.0</ele><time>2026-04-09T11:51:49.999Z</time></trkpt><trkpt lat="42.38626248472659" lon="2.7100230804281327"><ele>467.6666666666667</ele><time>2026-04-09T11:51:50.999Z</time></trkpt><trkpt lat="42.38626723802622" lon="2.709799466634813"><ele>466.33333333333337</ele><time>2026-04-09T11:51:51.999Z</time></trkpt><trkpt lat="42.386265364691404" lon="2.709571411781633"><ele>465.0</ele><time>2026-04-09T11:51:52.999Z</time></trkpt><trkpt lat="42.386266312953225" lon="2.7093422373868576"><ele>465.0</ele><time>2026-04-09T11:51:53.999Z</time></trkpt><trkpt lat="42.38626545601982" lon="2.709109984223762"><ele>465.0</ele><time>2026-04-09T11:51:54.999Z</time></trkpt><trkpt lat="42.386262934740714" lon="2.708881127504274"><ele>465.0</ele><time>2026-04-09T11:51:55.999Z</time></trkpt><trkpt lat="42.38626018164881" lon="2.708654829272211"><ele>463.66666666666663</ele><time>2026-04-09T11:51:56.999Z</time></trkpt><trkpt lat="42.386259401204185" lon="2.7084400033998017"><ele>462.3333333333333</ele><time>2026-04-09T11:51:57.999Z</time></trkpt><trkpt lat="42.38625811760959" lon="2.7082319589963624"><ele>461.0</ele><time>2026-04-09T11:51:58.999Z</time></trkpt><trkpt lat="42.38625674564797" lon="2.7080273161687423"><ele>461.0</ele><time>2026-04-09T11:51:59.999Z</time></trkpt><trkpt lat="42.38625458543702" lon="2.7078274807844074"><ele>461.0</ele><time>2026-04-09T11:52:00.999Z</time></trkpt><trkpt lat="42.386254047835926" lon="2.70763067605107"><ele>461.0</ele><time>2026-04-09T11:52:01.999Z</time></trkpt><trkpt lat="42.386253252936" lon="2.70743364561006"><ele>461.0</ele><time>2026-04-09T11:52:02.999Z</time></trkpt><trkpt lat="42.386251715707374" lon="2.7072389723176853"><ele>462.5</ele><time>2026-04-09T11:52:03.999Z</time></trkpt><trkpt lat="42.38625042661604" lon="2.70704454690941"><ele>464.0</ele><time>2026-04-09T11:52:04.999Z</time></trkpt><trkpt lat="42.38624757763583" lon="2.7068555151120504"><ele>465.5</ele><time>2026-04-09T11:52:05.999Z</time></trkpt><trkpt lat="42.38623379530996" lon="2.7066780891113664"><ele>467.0</ele><time>2026-04-09T11:52:06.999Z</time></trkpt><trkpt lat="42.38620183812759" lon="2.706508036984275"><ele>468.5</ele><time>2026-04-09T11:52:07.999Z</time></trkpt><trkpt lat="42.386151217966045" lon="2.706350417732569"><ele>470.0</ele><time>2026-04-09T11:52:08.999Z</time></trkpt><trkpt lat="42.38608499263635" lon="2.706208160184437"><ele>471.5</ele><time>2026-04-09T11:52:09.999Z</time></trkpt><trkpt lat="42.38600415089232" lon="2.706086715813163"><ele>473.0</ele><time>2026-04-09T11:52:10.999Z</time></trkpt><trkpt lat="42.38591075823966" lon="2.705983938846634"><ele>473.5</ele><time>2026-04-09T11:52:11.999Z</time></trkpt><trkpt lat="42.385806336683515" lon="2.7059075833217543"><ele>474.0</ele><time>2026-04-09T11:52:12.999Z</time></trkpt><trkpt lat="42.3856969961828" lon="2.705851842694151"><ele>474.5</ele><time>2026-04-09T11:52:13.999Z</time></trkpt><trkpt lat="42.38558282413836" lon="2.7058229746959794"><ele>475.0</ele><time>2026-04-09T11:52:14.999Z</time></trkpt><trkpt lat="42.38546945015037" lon="2.7058204321410857"><ele>477.2</ele><time>2026-04-09T11:52:15.999Z</time></trkpt><trkpt lat="42.38536357052161" lon="2.7058403233686796"><ele>479.4</ele><time>2026-04-09T11:52:16.999Z</time></trkpt><trkpt lat="42.38525770346185" lon="2.705879672429751"><ele>481.6</ele><time>2026-04-09T11:52:17.999Z</time></trkpt><trkpt lat="42.38515494469979" lon="2.7059363915835797"><ele>483.8</ele><time>2026-04-09T11:52:18.999Z</time></trkpt><trkpt lat="42.38506063991462" lon="2.7060164712423114"><ele>486.0</ele><time>2026-04-09T11:52:19.999Z</time></trkpt><trkpt lat="42.38497483701867" lon="2.7061141050217508"><ele>486.0</ele><time>2026-04-09T11:52:20.999Z</time></trkpt><trkpt lat="42.384901157810575" lon="2.706228687886997"><ele>486.0</ele><time>2026-04-09T11:52:21.999Z</time></trkpt><trkpt lat="42.384840955151375" lon="2.706359288234161"><ele>486.0</ele><time>2026-04-09T11:52:23Z</time></trkpt><trkpt lat="42.38479615907323" lon="2.706502589215316"><ele>486.0</ele><time>2026-04-09T11:52:24Z</time></trkpt><trkpt lat="42.38476421321072" lon="2.706653183183529"><ele>486.0</ele><time>2026-04-09T11:52:25Z</time></trkpt><trkpt lat="42.3847328891951" lon="2.706803687529281"><ele>486.0</ele><time>2026-04-09T11:52:26Z</time></trkpt><trkpt lat="42.384703030233375" lon="2.7069538340506085"><ele>486.0</ele><time>2026-04-09T11:52:27Z</time></trkpt><trkpt lat="42.38467326413095" lon="2.707101613786828"><ele>486.0</ele><time>2026-04-09T11:52:28Z</time></trkpt><trkpt lat="42.38463878148155" lon="2.707246145691297"><ele>490.0</ele><time>2026-04-09T11:52:29Z</time></trkpt><trkpt lat="42.38459308937156" lon="2.7073837944336074"><ele>494.0</ele><time>2026-04-09T11:52:30Z</time></trkpt><trkpt lat="42.38452888384733" lon="2.7075038006956547"><ele>498.0</ele><time>2026-04-09T11:52:31Z</time></trkpt><trkpt lat="42.38445348218827" lon="2.7076140583751576"><ele>502.0</ele><time>2026-04-09T11:52:32Z</time></trkpt><trkpt lat="42.38436435362482" lon="2.707705343738936"><ele>506.0</ele><time>2026-04-09T11:52:33Z</time></trkpt><trkpt lat="42.38426641953183" lon="2.707778561478048"><ele>506.0</ele><time>2026-04-09T11:52:34Z</time></trkpt><trkpt lat="42.384163893861235" lon="2.707841509547188"><ele>506.0</ele><time>2026-04-09T11:52:35Z</time></trkpt><trkpt lat="42.384062977391245" lon="2.707911386409715"><ele>506.0</ele><time>2026-04-09T11:52:36Z</time></trkpt><trkpt lat="42.38396264138206" lon="2.707985617553911"><ele>506.0</ele><time>2026-04-09T11:52:37Z</time></trkpt><trkpt lat="42.383862967745145" lon="2.7080650554246692"><ele>511.0</ele><time>2026-04-09T11:52:38Z</time></trkpt><trkpt lat="42.38376534854065" lon="2.70815107762838"><ele>516.0</ele><time>2026-04-09T11:52:39Z</time></trkpt><trkpt lat="42.38366943671743" lon="2.708241262009258"><ele>521.0</ele><time>2026-04-09T11:52:40Z</time></trkpt><trkpt lat="42.38357552657496" lon="2.7083372333756635"><ele>526.0</ele><time>2026-04-09T11:52:41Z</time></trkpt><trkpt lat="42.38348722334771" lon="2.7084436157721528"><ele>526.0</ele><time>2026-04-09T11:52:42Z</time></trkpt><trkpt lat="42.38340192768432" lon="2.708556985611024"><ele>526.0</ele><time>2026-04-09T11:52:43Z</time></trkpt><trkpt lat="42.38331896543928" lon="2.708675350204367"><ele>526.0</ele><time>2026-04-09T11:52:44Z</time></trkpt><trkpt lat="42.38323885370466" lon="2.708798935323005"><ele>526.0</ele><time>2026-04-09T11:52:45Z</time></trkpt><trkpt lat="42.383160078005886" lon="2.7089279340226344"><ele>525.5</ele><time>2026-04-09T11:52:46Z</time></trkpt><trkpt lat="42.38307963503938" lon="2.709057978497879"><ele>525.0</ele><time>2026-04-09T11:52:47Z</time></trkpt><trkpt lat="42.382998793962464" lon="2.709189053390955"><ele>524.5</ele><time>2026-04-09T11:52:48Z</time></trkpt><trkpt lat="42.38291202550355" lon="2.7093154118556853"><ele>524.0</ele><time>2026-04-09T11:52:49Z</time></trkpt><trkpt lat="42.382816728040716" lon="2.7094327566283867"><ele>524.0</ele><time>2026-04-09T11:52:50Z</time></trkpt><trkpt lat="42.38271389731741" lon="2.7095411429631215"><ele>524.0</ele><time>2026-04-09T11:52:51Z</time></trkpt><trkpt lat="42.3826039866079" lon="2.709637654006643"><ele>524.0</ele><time>2026-04-09T11:52:52Z</time></trkpt><trkpt lat="42.382490250651074" lon="2.709726629076507"><ele>524.0</ele><time>2026-04-09T11:52:53Z</time></trkpt><trkpt lat="42.38236782985241" lon="2.7097939207814217"><ele>524.0</ele><time>2026-04-09T11:52:54Z</time></trkpt><trkpt lat="42.382242435387404" lon="2.709856250811906"><ele>524.0</ele><time>2026-04-09T11:52:55Z</time></trkpt><trkpt lat="42.38211335277503" lon="2.709903910619252"><ele>524.0</ele><time>2026-04-09T11:52:56Z</time></trkpt><trkpt lat="42.38198109087857" lon="2.709940508269746"><ele>524.0</ele><time>2026-04-09T11:52:57Z</time></trkpt><trkpt lat="42.381846592884" lon="2.709967354712933"><ele>526.5</ele><time>2026-04-09T11:52:58Z</time></trkpt><trkpt lat="42.38170973777086" lon="2.7099795787612546"><ele>529.0</ele><time>2026-04-09T11:52:59Z</time></trkpt><trkpt lat="42.38157275910039" lon="2.7099794666981185"><ele>531.5</ele><time>2026-04-09T11:53:00Z</time></trkpt><trkpt lat="42.38143706787141" lon="2.709964372833047"><ele>534.0</ele><time>2026-04-09T11:53:01Z</time></trkpt><trkpt lat="42.381302680550455" lon="2.709933521223356"><ele>537.0</ele><time>2026-04-09T11:53:02Z</time></trkpt><trkpt lat="42.38116849069889" lon="2.7098886464034626"><ele>540.0</ele><time>2026-04-09T11:53:03Z</time></trkpt><trkpt lat="42.38103657717993" lon="2.7098272089848074"><ele>543.0</ele><time>2026-04-09T11:53:04Z</time></trkpt><trkpt lat="42.38090817533891" lon="2.709752766721541"><ele>546.0</ele><time>2026-04-09T11:53:05Z</time></trkpt><trkpt lat="42.38078307815735" lon="2.709663343135177"><ele>546.0</ele><time>2026-04-09T11:53:06Z</time></trkpt><trkpt lat="42.380661589008376" lon="2.7095601297503027"><ele>546.0</ele><time>2026-04-09T11:53:07Z</time></trkpt><trkpt lat="42.38054578719825" lon="2.7094427645134376"><ele>546.0</ele><time>2026-04-09T11:53:08Z</time></trkpt><trkpt lat="42.38043703472648" lon="2.7093150417478773"><ele>546.0</ele><time>2026-04-09T11:53:09Z</time></trkpt><trkpt lat="42.38033537900873" lon="2.7091748373903095"><ele>545.75</ele><time>2026-04-09T11:53:10Z</time></trkpt><trkpt lat="42.38024307470109" lon="2.7090229772289858"><ele>545.5</ele><time>2026-04-09T11:53:11Z</time></trkpt><trkpt lat="42.3801602765093" lon="2.708859110882487"><ele>545.25</ele><time>2026-04-09T11:53:12Z</time></trkpt><trkpt lat="42.38008892057753" lon="2.708685030449431"><ele>545.0</ele><time>2026-04-09T11:53:13Z</time></trkpt><trkpt lat="42.38002732136022" lon="2.7085027088120652"><ele>545.0</ele><time>2026-04-09T11:53:14Z</time></trkpt><trkpt lat="42.37997664939455" lon="2.7083125148556215"><ele>545.0</ele><time>2026-04-09T11:53:15Z</time></trkpt><trkpt lat="42.37993902383594" lon="2.7081166745607144"><ele>545.0</ele><time>2026-04-09T11:53:16Z</time></trkpt><trkpt lat="42.379922146309" lon="2.7079181216234187"><ele>545.0</ele><time>2026-04-09T11:53:17Z</time></trkpt><trkpt lat="42.37993397780099" lon="2.7077198384010863"><ele>547.5</ele><time>2026-04-09T11:53:18Z</time></trkpt><trkpt lat="42.37997549723825" lon="2.7075315299721563"><ele>550.0</ele><time>2026-04-09T11:53:19Z</time></trkpt><trkpt lat="42.380021994363574" lon="2.7073450477191887"><ele>552.5</ele><time>2026-04-09T11:53:20Z</time></trkpt><trkpt lat="42.38011211721927" lon="2.707173422203009"><ele>555.0</ele><time>2026-04-09T11:53:21Z</time></trkpt><trkpt lat="42.38020418748938" lon="2.7070082403343894"><ele>552.3333333333334</ele><time>2026-04-09T11:53:22Z</time></trkpt><trkpt lat="42.38030896867586" lon="2.7068556871857634"><ele>549.6666666666667</ele><time>2026-04-09T11:53:23Z</time></trkpt><trkpt lat="42.38041343854998" lon="2.706701979176152"><ele>547.0</ele><time>2026-04-09T11:53:24Z</time></trkpt><trkpt lat="42.38052200934264" lon="2.706549053625639"><ele>553.0</ele><time>2026-04-09T11:53:25Z</time></trkpt><trkpt lat="42.380628928543736" lon="2.7063911058654404"><ele>559.0</ele><time>2026-04-09T11:53:26Z</time></trkpt><trkpt lat="42.38073557368089" lon="2.706230303795725"><ele>565.0</ele><time>2026-04-09T11:53:27Z</time></trkpt><trkpt lat="42.38084118994078" lon="2.7060725611723324"><ele>565.0</ele><time>2026-04-09T11:53:28Z</time></trkpt><trkpt lat="42.38094883974606" lon="2.7059136078852597"><ele>565.0</ele><time>2026-04-09T11:53:29Z</time></trkpt><trkpt lat="42.381057451300954" lon="2.7057528676805154"><ele>565.0</ele><time>2026-04-09T11:53:30Z</time></trkpt><trkpt lat="42.381164929802665" lon="2.705593388788374"><ele>565.0</ele><time>2026-04-09T11:53:31Z</time></trkpt><trkpt lat="42.38126819083813" lon="2.70543472356611"><ele>565.0</ele><time>2026-04-09T11:53:32Z</time></trkpt><trkpt lat="42.38136587931553" lon="2.705269532261511"><ele>565.0</ele><time>2026-04-09T11:53:33Z</time></trkpt><trkpt lat="42.381450621283435" lon="2.7050942825610096"><ele>570.6666666666667</ele><time>2026-04-09T11:53:34Z</time></trkpt><trkpt lat="42.3815117755082" lon="2.704904820707437"><ele>576.3333333333334</ele><time>2026-04-09T11:53:35Z</time></trkpt><trkpt lat="42.38154783593034" lon="2.7047063165799643"><ele>582.0</ele><time>2026-04-09T11:53:36Z</time></trkpt><trkpt lat="42.381549996240174" lon="2.7045027735300917"><ele>581.75</ele><time>2026-04-09T11:53:37Z</time></trkpt><trkpt lat="42.38152736394398" lon="2.7043023688632526"><ele>581.5</ele><time>2026-04-09T11:53:38Z</time></trkpt><trkpt lat="42.38147799751184" lon="2.704113267246385"><ele>581.25</ele><time>2026-04-09T11:53:39Z</time></trkpt><trkpt lat="42.38140923339847" lon="2.7039319739401964"><ele>581.0</ele><time>2026-04-09T11:53:40Z</time></trkpt><trkpt lat="42.38132050853132" lon="2.7037643097915125"><ele>577.6666666666666</ele><time>2026-04-09T11:53:41Z</time></trkpt><trkpt lat="42.38121979538818" lon="2.703607744847851"><ele>574.3333333333334</ele><time>2026-04-09T11:53:42Z</time></trkpt><trkpt lat="42.38111994361574" lon="2.703447206898151"><ele>571.0</ele><time>2026-04-09T11:53:43Z</time></trkpt><trkpt lat="42.381022549185" lon="2.703288201106981"><ele>571.0</ele><time>2026-04-09T11:53:44Z</time></trkpt><trkpt lat="42.38092798266911" lon="2.7031335877385367"><ele>571.0</ele><time>2026-04-09T11:53:45Z</time></trkpt><trkpt lat="42.38083897409975" lon="2.7029816281406323"><ele>571.0</ele><time>2026-04-09T11:53:46Z</time></trkpt><trkpt lat="42.38075513226963" lon="2.7028395531169687"><ele>571.0</ele><time>2026-04-09T11:53:47Z</time></trkpt><trkpt lat="42.380675138633464" lon="2.702706609291523"><ele>569.75</ele><time>2026-04-09T11:53:48Z</time></trkpt><trkpt lat="42.380597176804095" lon="2.7025808824506417"><ele>568.5</ele><time>2026-04-09T11:53:49Z</time></trkpt><trkpt lat="42.3805208751197" lon="2.7024553441935852"><ele>567.25</ele><time>2026-04-09T11:53:50Z</time></trkpt><trkpt lat="42.38044758922263" lon="2.702334900520279"><ele>566.0</ele><time>2026-04-09T11:53:51Z</time></trkpt><trkpt lat="42.380379106972505" lon="2.702222276863632"><ele>566.0</ele><time>2026-04-09T11:53:52Z</time></trkpt><trkpt lat="42.380315160902526" lon="2.702116739150792"><ele>566.0</ele><time>2026-04-09T11:53:53Z</time></trkpt><trkpt lat="42.38025739285212" lon="2.7020212773541488"><ele>566.0</ele><time>2026-04-09T11:53:54Z</time></trkpt><trkpt lat="42.38020623213009" lon="2.701934962406796"><ele>566.0</ele><time>2026-04-09T11:53:55Z</time></trkpt><trkpt lat="42.380159211348435" lon="2.701855396701864"><ele>566.0</ele><time>2026-04-09T11:53:56Z</time></trkpt><trkpt lat="42.38011428721295" lon="2.7017815895979393"><ele>566.0</ele><time>2026-04-09T11:53:57Z</time></trkpt><trkpt lat="42.380073398247916" lon="2.7017110075078783"><ele>567.5714285714286</ele><time>2026-04-09T11:53:58Z</time></trkpt><trkpt lat="42.38003258417684" lon="2.701639616516149"><ele>569.1428571428572</ele><time>2026-04-09T11:53:59Z</time></trkpt><trkpt lat="42.37999595284179" lon="2.701559478536218"><ele>570.7142857142858</ele><time>2026-04-09T11:54:00Z</time></trkpt><trkpt lat="42.37996733983723" lon="2.7014741707424235"><ele>572.2857142857143</ele><time>2026-04-09T11:54:01Z</time></trkpt><trkpt lat="42.37994441895448" lon="2.7013819144014737"><ele>573.8571428571429</ele><time>2026-04-09T11:54:02Z</time></trkpt><trkpt lat="42.37992900341517" lon="2.7012843093468053"><ele>575.4285714285714</ele><time>2026-04-09T11:54:03Z</time></trkpt><trkpt lat="42.37992330710241" lon="2.701184541416966"><ele>577.0</ele><time>2026-04-09T11:54:04Z</time></trkpt><trkpt lat="42.3799320960551" lon="2.7010834176546896"><ele>577.6666666666667</ele><time>2026-04-09T11:54:05Z</time></trkpt><trkpt lat="42.37995129348211" lon="2.700978499459525"><ele>578.3333333333334</ele><time>2026-04-09T11:54:06Z</time></trkpt><trkpt lat="42.37997813152857" lon="2.7008717402265496"><ele>579.0</ele><time>2026-04-09T11:54:07Z</time></trkpt><trkpt lat="42.380011729307746" lon="2.7007628322460007"><ele>579.6666666666666</ele><time>2026-04-09T11:54:08Z</time></trkpt><trkpt lat="42.38005329105031" lon="2.7006574935873924"><ele>580.3333333333333</ele><time>2026-04-09T11:54:09Z</time></trkpt><trkpt lat="42.38010494251706" lon="2.70054844361486"><ele>581.0</ele><time>2026-04-09T11:54:10Z</time></trkpt><trkpt lat="42.38015611476926" lon="2.7004283911786584"><ele>581.0</ele><time>2026-04-09T11:54:11Z</time></trkpt><trkpt lat="42.38020367495046" lon="2.7002945754488197"><ele>581.0</ele><time>2026-04-09T11:54:12Z</time></trkpt><trkpt lat="42.380246425625735" lon="2.7001504799109264"><ele>581.0</ele><time>2026-04-09T11:54:13Z</time></trkpt><trkpt lat="42.3802777082534" lon="2.699994882827122"><ele>581.0</ele><time>2026-04-09T11:54:14Z</time></trkpt><trkpt lat="42.38029802103166" lon="2.699824931390795"><ele>580.75</ele><time>2026-04-09T11:54:15Z</time></trkpt><trkpt lat="42.38030247120325" lon="2.699644628593885"><ele>580.5</ele><time>2026-04-09T11:54:16Z</time></trkpt><trkpt lat="42.380287341414615" lon="2.6994535834421614"><ele>580.25</ele><time>2026-04-09T11:54:17Z</time></trkpt><trkpt lat="42.38024686804357" lon="2.6992606472212617"><ele>580.0</ele><time>2026-04-09T11:54:18Z</time></trkpt><trkpt lat="42.3801949084497" lon="2.699069923442191"><ele>580.0</ele><time>2026-04-09T11:54:19Z</time></trkpt><trkpt lat="42.38013629518351" lon="2.698892941611585"><ele>580.0</ele><time>2026-04-09T11:54:20Z</time></trkpt><trkpt lat="42.38007946831922" lon="2.6987174471052358"><ele>580.0</ele><time>2026-04-09T11:54:21Z</time></trkpt><trkpt lat="42.380031685455585" lon="2.6985396010306406"><ele>580.0</ele><time>2026-04-09T11:54:22Z</time></trkpt><trkpt lat="42.38000104140401" lon="2.698356505941789"><ele>583.75</ele><time>2026-04-09T11:54:23Z</time></trkpt><trkpt lat="42.37998559213964" lon="2.6981736000746457"><ele>587.5</ele><time>2026-04-09T11:54:24Z</time></trkpt><trkpt lat="42.37999194617836" lon="2.697992521463092"><ele>591.25</ele><time>2026-04-09T11:54:25Z</time></trkpt><trkpt lat="42.38000840419453" lon="2.6978145212507822"><ele>595.0</ele><time>2026-04-09T11:54:26Z</time></trkpt><trkpt lat="42.3800209210823" lon="2.6976411242050142"><ele>596.75</ele><time>2026-04-09T11:54:27Z</time></trkpt><trkpt lat="42.38001709958408" lon="2.697470989752558"><ele>598.5</ele><time>2026-04-09T11:54:28Z</time></trkpt><trkpt lat="42.379997188008154" lon="2.6973016881242757"><ele>600.25</ele><time>2026-04-09T11:54:29Z</time></trkpt><trkpt lat="42.37995106997391" lon="2.6971439041425707"><ele>602.0</ele><time>2026-04-09T11:54:30Z</time></trkpt><trkpt lat="42.37988781633643" lon="2.6969981612245073"><ele>598.25</ele><time>2026-04-09T11:54:31Z</time></trkpt><trkpt lat="42.37982052300645" lon="2.6968543716188043"><ele>594.5</ele><time>2026-04-09T11:54:32Z</time></trkpt><trkpt lat="42.379756788328905" lon="2.6967112133271405"><ele>590.75</ele><time>2026-04-09T11:54:33Z</time></trkpt><trkpt lat="42.379706155566275" lon="2.696562859559993"><ele>587.0</ele><time>2026-04-09T11:54:34Z</time></trkpt><trkpt lat="42.37967242161709" lon="2.6964041150710742"><ele>587.0</ele><time>2026-04-09T11:54:35Z</time></trkpt><trkpt lat="42.37965872934139" lon="2.6962399867153026"><ele>587.0</ele><time>2026-04-09T11:54:36Z</time></trkpt><trkpt lat="42.37966443156749" lon="2.6960747648167844"><ele>587.0</ele><time>2026-04-09T11:54:37Z</time></trkpt><trkpt lat="42.3796863560639" lon="2.695910366114855"><ele>587.0</ele><time>2026-04-09T11:54:38Z</time></trkpt><trkpt lat="42.37973165465504" lon="2.695755582912041"><ele>595.5</ele><time>2026-04-09T11:54:39Z</time></trkpt><trkpt lat="42.37980340797732" lon="2.695616025092957"><ele>604.0</ele><time>2026-04-09T11:54:40Z</time></trkpt><trkpt lat="42.379898452679406" lon="2.6955074288448384"><ele>612.5</ele><time>2026-04-09T11:54:41Z</time></trkpt><trkpt lat="42.380004435344034" lon="2.6954181236833707"><ele>621.0</ele><time>2026-04-09T11:54:42Z</time></trkpt><trkpt lat="42.38011872308537" lon="2.695342078436333"><ele>621.0</ele><time>2026-04-09T11:54:43Z</time></trkpt><trkpt lat="42.38023373751579" lon="2.695272548794378"><ele>621.0</ele><time>2026-04-09T11:54:44Z</time></trkpt><trkpt lat="42.38035107256394" lon="2.6952051008999858"><ele>621.0</ele><time>2026-04-09T11:54:45Z</time></trkpt><trkpt lat="42.38047109208212" lon="2.6951413818070082"><ele>621.0</ele><time>2026-04-09T11:54:46Z</time></trkpt><trkpt lat="42.38059182011726" lon="2.6950793992635127"><ele>622.75</ele><time>2026-04-09T11:54:47Z</time></trkpt><trkpt lat="42.3807062966214" lon="2.695023786658299"><ele>624.5</ele><time>2026-04-09T11:54:48Z</time></trkpt><trkpt lat="42.38081525364714" lon="2.69496839342069"><ele>626.25</ele><time>2026-04-09T11:54:49Z</time></trkpt><trkpt lat="42.38090994780204" lon="2.6948934776431033"><ele>628.0</ele><time>2026-04-09T11:54:50Z</time></trkpt><trkpt lat="42.38098724943341" lon="2.6947977676047516"><ele>628.0</ele><time>2026-04-09T11:54:51Z</time></trkpt><trkpt lat="42.38104062459477" lon="2.6946825248482837"><ele>628.0</ele><time>2026-04-09T11:54:52Z</time></trkpt><trkpt lat="42.381066103950175" lon="2.694550657225444"><ele>628.0</ele><time>2026-04-09T11:54:53Z</time></trkpt><trkpt lat="42.38106533277713" lon="2.6944147144170767"><ele>628.0</ele><time>2026-04-09T11:54:54Z</time></trkpt><trkpt lat="42.38103964507925" lon="2.6942859940881076"><ele>628.0</ele><time>2026-04-09T11:54:55Z</time></trkpt><trkpt lat="42.38099179230764" lon="2.694169646663895"><ele>628.1999999999999</ele><time>2026-04-09T11:54:56Z</time></trkpt><trkpt lat="42.38092446138189" lon="2.6940722535749364"><ele>628.4</ele><time>2026-04-09T11:54:57Z</time></trkpt><trkpt lat="42.38084990038394" lon="2.693979284703662"><ele>628.5999999999999</ele><time>2026-04-09T11:54:58Z</time></trkpt><trkpt lat="42.38077690987576" lon="2.6938943972582408"><ele>628.8</ele><time>2026-04-09T11:54:59Z</time></trkpt><trkpt lat="42.3807081635534" lon="2.6937998532697582"><ele>629.0</ele><time>2026-04-09T11:55:00Z</time></trkpt><trkpt lat="42.38065359388604" lon="2.6936867891112026"><ele>630.6</ele><time>2026-04-09T11:55:01Z</time></trkpt><trkpt lat="42.38061767006997" lon="2.6935614940510564"><ele>632.2</ele><time>2026-04-09T11:55:02Z</time></trkpt><trkpt lat="42.3806025905943" lon="2.69342076242442"><ele>633.8000000000001</ele><time>2026-04-09T11:55:03Z</time></trkpt><trkpt lat="42.38061282723717" lon="2.6932760384027477"><ele>635.4</ele><time>2026-04-09T11:55:04Z</time></trkpt><trkpt lat="42.38065373974607" lon="2.6931380963827607"><ele>637.0</ele><time>2026-04-09T11:55:05Z</time></trkpt><trkpt lat="42.38071666238202" lon="2.6930116884083812"><ele>637.0</ele><time>2026-04-09T11:55:06Z</time></trkpt><trkpt lat="42.380791590918676" lon="2.692889119898447"><ele>637.0</ele><time>2026-04-09T11:55:07Z</time></trkpt><trkpt lat="42.38086349182583" lon="2.69275688928277"><ele>637.0</ele><time>2026-04-09T11:55:08Z</time></trkpt><trkpt lat="42.380933004683186" lon="2.6926150509342395"><ele>637.0</ele><time>2026-04-09T11:55:09Z</time></trkpt><trkpt lat="42.38099060721661" lon="2.6924491789164295"><ele>635.75</ele><time>2026-04-09T11:55:10Z</time></trkpt><trkpt lat="42.38102641368025" lon="2.6922717001425336"><ele>634.5</ele><time>2026-04-09T11:55:11Z</time></trkpt><trkpt lat="42.381044629458685" lon="2.6920864360534815"><ele>633.25</ele><time>2026-04-09T11:55:12Z</time></trkpt><trkpt lat="42.381059093361" lon="2.6918943944768983"><ele>632.0</ele><time>2026-04-09T11:55:13Z</time></trkpt><trkpt lat="42.38107629054017" lon="2.6917077742693087"><ele>631.5</ele><time>2026-04-09T11:55:14Z</time></trkpt><trkpt lat="42.38109088392628" lon="2.691523777962153"><ele>631.0</ele><time>2026-04-09T11:55:15Z</time></trkpt><trkpt lat="42.38110116905301" lon="2.691345048099313"><ele>630.5</ele><time>2026-04-09T11:55:16Z</time></trkpt><trkpt lat="42.38109914936058" lon="2.691172159349557"><ele>630.0</ele><time>2026-04-09T11:55:17Z</time></trkpt><trkpt lat="42.3810780329907" lon="2.6910060917533416"><ele>630.0</ele><time>2026-04-09T11:55:18Z</time></trkpt><trkpt lat="42.38103583328652" lon="2.690850889599512"><ele>630.0</ele><time>2026-04-09T11:55:19Z</time></trkpt><trkpt lat="42.380975821434056" lon="2.6907037752921035"><ele>630.0</ele><time>2026-04-09T11:55:20Z</time></trkpt><trkpt lat="42.38090376831012" lon="2.690569426917627"><ele>630.0</ele><time>2026-04-09T11:55:21Z</time></trkpt><trkpt lat="42.38082772865443" lon="2.690445084803313"><ele>630.0</ele><time>2026-04-09T11:55:22Z</time></trkpt><trkpt lat="42.38075377879132" lon="2.690323371747851"><ele>630.0</ele><time>2026-04-09T11:55:23Z</time></trkpt><trkpt lat="42.38068772332872" lon="2.6901921375375855"><ele>630.0</ele><time>2026-04-09T11:55:24Z</time></trkpt><trkpt lat="42.38063852234962" lon="2.6900438483362596"><ele>630.0</ele><time>2026-04-09T11:55:25Z</time></trkpt><trkpt lat="42.38061292039772" lon="2.6898823862748444"><ele>631.75</ele><time>2026-04-09T11:55:26Z</time></trkpt><trkpt lat="42.380610967111664" lon="2.689713182533971"><ele>633.5</ele><time>2026-04-09T11:55:27Z</time></trkpt><trkpt lat="42.38062257951589" lon="2.689538575291194"><ele>635.25</ele><time>2026-04-09T11:55:28Z</time></trkpt><trkpt lat="42.38063861540317" lon="2.689361518943149"><ele>637.0</ele><time>2026-04-09T11:55:29Z</time></trkpt><trkpt lat="42.3806569500185" lon="2.6891829532842846"><ele>637.0</ele><time>2026-04-09T11:55:30Z</time></trkpt><trkpt lat="42.380673878467775" lon="2.6890011862606635"><ele>637.0</ele><time>2026-04-09T11:55:31Z</time></trkpt><trkpt lat="42.380690089515575" lon="2.6888175139432513"><ele>637.0</ele><time>2026-04-09T11:55:32Z</time></trkpt><trkpt lat="42.38070753440217" lon="2.6886331509925427"><ele>637.0</ele><time>2026-04-09T11:55:33Z</time></trkpt><trkpt lat="42.38072740558987" lon="2.6884479566611"><ele>637.0</ele><time>2026-04-09T11:55:34Z</time></trkpt><trkpt lat="42.38074910496793" lon="2.6882645091043447"><ele>637.0</ele><time>2026-04-09T11:55:35Z</time></trkpt><trkpt lat="42.38076827463983" lon="2.688080730821039"><ele>637.0</ele><time>2026-04-09T11:55:36Z</time></trkpt><trkpt lat="42.38078567345417" lon="2.687898157564594"><ele>637.0</ele><time>2026-04-09T11:55:37Z</time></trkpt><trkpt lat="42.380797770065165" lon="2.6877185833205477"><ele>638.5</ele><time>2026-04-09T11:55:38Z</time></trkpt><trkpt lat="42.380798449152934" lon="2.6875408635847307"><ele>640.0</ele><time>2026-04-09T11:55:39Z</time></trkpt><trkpt lat="42.3807881485337" lon="2.6873631472817885"><ele>641.5</ele><time>2026-04-09T11:55:40Z</time></trkpt><trkpt lat="42.38076310892637" lon="2.687189521227638"><ele>643.0</ele><time>2026-04-09T11:55:41Z</time></trkpt><trkpt lat="42.380722149100244" lon="2.6870221023836502"><ele>642.75</ele><time>2026-04-09T11:55:42Z</time></trkpt><trkpt lat="42.380674056929664" lon="2.6868607017986417"><ele>642.5</ele><time>2026-04-09T11:55:43Z</time></trkpt><trkpt lat="42.38061793440727" lon="2.686704579305881"><ele>642.25</ele><time>2026-04-09T11:55:44Z</time></trkpt><trkpt lat="42.380556383987674" lon="2.686553823071823"><ele>642.0</ele><time>2026-04-09T11:55:45Z</time></trkpt><trkpt lat="42.38048486326833" lon="2.6864140182910567"><ele>642.0</ele><time>2026-04-09T11:55:46Z</time></trkpt><trkpt lat="42.38039961603272" lon="2.6862928170343365"><ele>642.0</ele><time>2026-04-09T11:55:47Z</time></trkpt><trkpt lat="42.38030359930297" lon="2.6861869821856796"><ele>642.0</ele><time>2026-04-09T11:55:48Z</time></trkpt><trkpt lat="42.38019446563963" lon="2.6861095786203752"><ele>642.0</ele><time>2026-04-09T11:55:49Z</time></trkpt><trkpt lat="42.380078828851914" lon="2.6860587074400115"><ele>645.75</ele><time>2026-04-09T11:55:50Z</time></trkpt><trkpt lat="42.37996054525232" lon="2.6860244459508986"><ele>649.5</ele><time>2026-04-09T11:55:51Z</time></trkpt><trkpt lat="42.3798405102398" lon="2.686003543797463"><ele>653.25</ele><time>2026-04-09T11:55:52Z</time></trkpt><trkpt lat="42.379720553287385" lon="2.6859776427982287"><ele>657.0</ele><time>2026-04-09T11:55:53Z</time></trkpt><trkpt lat="42.3796039182095" lon="2.6859409360835538"><ele>657.0</ele><time>2026-04-09T11:55:54Z</time></trkpt><trkpt lat="42.379494196755395" lon="2.6858819067070323"><ele>657.0</ele><time>2026-04-09T11:55:55Z</time></trkpt><trkpt lat="42.379392222586056" lon="2.6858012508172524"><ele>657.0</ele><time>2026-04-09T11:55:56Z</time></trkpt><trkpt lat="42.379299883987436" lon="2.6857074079293035"><ele>657.0</ele><time>2026-04-09T11:55:57Z</time></trkpt><trkpt lat="42.379210383832316" lon="2.685615636238677"><ele>657.0</ele><time>2026-04-09T11:55:58Z</time></trkpt><trkpt lat="42.37911921817219" lon="2.6855283863232935"><ele>657.0</ele><time>2026-04-09T11:55:59Z</time></trkpt><trkpt lat="42.37902392264304" lon="2.6854581086806952"><ele>657.0</ele><time>2026-04-09T11:56:00Z</time></trkpt><trkpt lat="42.378925338952925" lon="2.6854111707229364"><ele>657.0</ele><time>2026-04-09T11:56:01Z</time></trkpt><trkpt lat="42.378819548848156" lon="2.685379744611001"><ele>657.0</ele><time>2026-04-09T11:56:02Z</time></trkpt><trkpt lat="42.37871036240704" lon="2.6853672988430977"><ele>658.5</ele><time>2026-04-09T11:56:03Z</time></trkpt><trkpt lat="42.37859790525894" lon="2.685370638929481"><ele>660.0</ele><time>2026-04-09T11:56:04Z</time></trkpt><trkpt lat="42.378485252050886" lon="2.6853776543676995"><ele>661.5</ele><time>2026-04-09T11:56:05Z</time></trkpt><trkpt lat="42.37837130361245" lon="2.6853846508754775"><ele>663.0</ele><time>2026-04-09T11:56:06Z</time></trkpt><trkpt lat="42.37825558045882" lon="2.6853891597873516"><ele>663.0</ele><time>2026-04-09T11:56:07Z</time></trkpt><trkpt lat="42.37814062800248" lon="2.685399332814671"><ele>663.0</ele><time>2026-04-09T11:56:08Z</time></trkpt><trkpt lat="42.378035175932034" lon="2.685428322858875"><ele>663.0</ele><time>2026-04-09T11:56:09Z</time></trkpt><trkpt lat="42.377942948840996" lon="2.6854897487967517"><ele>663.0</ele><time>2026-04-09T11:56:10Z</time></trkpt><trkpt lat="42.37786582503853" lon="2.6855825363627153"><ele>663.0</ele><time>2026-04-09T11:56:11Z</time></trkpt><trkpt lat="42.377809660633964" lon="2.6856983247745045"><ele>667.8</ele><time>2026-04-09T11:56:12Z</time></trkpt><trkpt lat="42.37777979116023" lon="2.6858329213815675"><ele>672.5999999999999</ele><time>2026-04-09T11:56:13Z</time></trkpt><trkpt lat="42.377774294843185" lon="2.6859758654513133"><ele>677.4000000000001</ele><time>2026-04-09T11:56:14Z</time></trkpt><trkpt lat="42.37780119637965" lon="2.686117651483439"><ele>682.2</ele><time>2026-04-09T11:56:15Z</time></trkpt><trkpt lat="42.37786029809063" lon="2.6862510272449462"><ele>687.0</ele><time>2026-04-09T11:56:16Z</time></trkpt><trkpt lat="42.37793615387482" lon="2.6863513857553127"><ele>681.5</ele><time>2026-04-09T11:56:17Z</time></trkpt><trkpt lat="42.37803406985423" lon="2.68643127229169"><ele>676.0</ele><time>2026-04-09T11:56:18Z</time></trkpt><trkpt lat="42.37812684986835" lon="2.6865098353308823"><ele>670.5</ele><time>2026-04-09T11:56:19Z</time></trkpt><trkpt lat="42.378202020024354" lon="2.6866233811557376"><ele>665.0</ele><time>2026-04-09T11:56:20Z</time></trkpt><trkpt lat="42.37824582230294" lon="2.6867667533724755"><ele>665.0</ele><time>2026-04-09T11:56:21Z</time></trkpt><trkpt lat="42.37825021430684" lon="2.686922513157324"><ele>665.0</ele><time>2026-04-09T11:56:22Z</time></trkpt><trkpt lat="42.37822041461026" lon="2.687078139405999"><ele>665.0</ele><time>2026-04-09T11:56:23Z</time></trkpt><trkpt lat="42.378157199070976" lon="2.6872149348431833"><ele>665.0</ele><time>2026-04-09T11:56:24Z</time></trkpt><trkpt lat="42.37805698622402" lon="2.687311306023703"><ele>667.75</ele><time>2026-04-09T11:56:25Z</time></trkpt><trkpt lat="42.37793483329681" lon="2.687353566007278"><ele>670.5</ele><time>2026-04-09T11:56:26Z</time></trkpt><trkpt lat="42.37780982433811" lon="2.687361286197835"><ele>673.25</ele><time>2026-04-09T11:56:27Z</time></trkpt><trkpt lat="42.37768208854106" lon="2.687346630118075"><ele>676.0</ele><time>2026-04-09T11:56:28Z</time></trkpt><trkpt lat="42.37755295413068" lon="2.6873486023618383"><ele>676.0</ele><time>2026-04-09T11:56:29Z</time></trkpt><trkpt lat="42.37742410810357" lon="2.6873689083912167"><ele>676.0</ele><time>2026-04-09T11:56:30Z</time></trkpt><trkpt lat="42.37729400417894" lon="2.687413325304669"><ele>676.0</ele><time>2026-04-09T11:56:31Z</time></trkpt><trkpt lat="42.377172250699424" lon="2.6874871343191806"><ele>676.0</ele><time>2026-04-09T11:56:32Z</time></trkpt><trkpt lat="42.37705682933594" lon="2.6875834533237826"><ele>674.75</ele><time>2026-04-09T11:56:33Z</time></trkpt><trkpt lat="42.37694462606849" lon="2.6876893770852175"><ele>673.5</ele><time>2026-04-09T11:56:34Z</time></trkpt><trkpt lat="42.37683042234347" lon="2.687795087955221"><ele>672.25</ele><time>2026-04-09T11:56:35Z</time></trkpt><trkpt lat="42.37671042421222" lon="2.687898014210174"><ele>671.0</ele><time>2026-04-09T11:56:36Z</time></trkpt><trkpt lat="42.376586842495456" lon="2.6880008119838537"><ele>671.0</ele><time>2026-04-09T11:56:37Z</time></trkpt><trkpt lat="42.37645504949923" lon="2.688095499532335"><ele>671.0</ele><time>2026-04-09T11:56:38Z</time></trkpt><trkpt lat="42.37631862885729" lon="2.6881833987714896"><ele>671.0</ele><time>2026-04-09T11:56:39Z</time></trkpt><trkpt lat="42.37618259505651" lon="2.6882632547880467"><ele>671.0</ele><time>2026-04-09T11:56:40Z</time></trkpt><trkpt lat="42.37604412885903" lon="2.6883174703637804"><ele>675.5</ele><time>2026-04-09T11:56:41Z</time></trkpt><trkpt lat="42.37590574828539" lon="2.688326173658121"><ele>680.0</ele><time>2026-04-09T11:56:42Z</time></trkpt><trkpt lat="42.37578432803718" lon="2.688255974609341"><ele>684.5</ele><time>2026-04-09T11:56:43Z</time></trkpt><trkpt lat="42.37568436553566" lon="2.688142403533075"><ele>689.0</ele><time>2026-04-09T11:56:44Z</time></trkpt><trkpt lat="42.37562291410762" lon="2.687982485701063"><ele>689.0</ele><time>2026-04-09T11:56:45Z</time></trkpt><trkpt lat="42.37560195606886" lon="2.6878057529352937"><ele>689.0</ele><time>2026-04-09T11:56:46Z</time></trkpt><trkpt lat="42.375595581546406" lon="2.6876346735374077"><ele>689.0</ele><time>2026-04-09T11:56:47Z</time></trkpt><trkpt lat="42.37559819316401" lon="2.687453014974453"><ele>689.0</ele><time>2026-04-09T11:56:48Z</time></trkpt><trkpt lat="42.375598494351856" lon="2.6872742254803095"><ele>693.0</ele><time>2026-04-09T11:56:49Z</time></trkpt><trkpt lat="42.37559985047796" lon="2.6870938146740144"><ele>697.0</ele><time>2026-04-09T11:56:50Z</time></trkpt><trkpt lat="42.37560195372378" lon="2.6869122223303052"><ele>701.0</ele><time>2026-04-09T11:56:51Z</time></trkpt><trkpt lat="42.37560236836687" lon="2.6867298972539206"><ele>705.0</ele><time>2026-04-09T11:56:52Z</time></trkpt><trkpt lat="42.37560348508335" lon="2.6865450016372727"><ele>706.75</ele><time>2026-04-09T11:56:53Z</time></trkpt><trkpt lat="42.37560519291765" lon="2.6863584386059536"><ele>708.5</ele><time>2026-04-09T11:56:54Z</time></trkpt><trkpt lat="42.375608117395636" lon="2.686170210976328"><ele>710.25</ele><time>2026-04-09T11:56:55Z</time></trkpt><trkpt lat="42.375611129082166" lon="2.685981438650406"><ele>712.0</ele><time>2026-04-09T11:56:56Z</time></trkpt><trkpt lat="42.37561887476676" lon="2.685796405701854"><ele>713.25</ele><time>2026-04-09T11:56:57Z</time></trkpt><trkpt lat="42.37563913638327" lon="2.685614974661818"><ele>714.5</ele><time>2026-04-09T11:56:58Z</time></trkpt><trkpt lat="42.375671283705366" lon="2.68543661405528"><ele>715.75</ele><time>2026-04-09T11:56:59Z</time></trkpt><trkpt lat="42.375706209745445" lon="2.685257224720934"><ele>717.0</ele><time>2026-04-09T11:57:00Z</time></trkpt><trkpt lat="42.375742643134" lon="2.6850920069599358"><ele>717.25</ele><time>2026-04-09T11:57:01Z</time></trkpt><trkpt lat="42.37577464845249" lon="2.6849373985534526"><ele>717.5</ele><time>2026-04-09T11:57:02Z</time></trkpt><trkpt lat="42.375801445368666" lon="2.68478024537376"><ele>717.75</ele><time>2026-04-09T11:57:03Z</time></trkpt><trkpt lat="42.37581751596083" lon="2.684618136574812"><ele>718.0</ele><time>2026-04-09T11:57:04Z</time></trkpt><trkpt lat="42.375803762792394" lon="2.6844589742212492"><ele>718.75</ele><time>2026-04-09T11:57:05Z</time></trkpt><trkpt lat="42.37576107997963" lon="2.684313223847543"><ele>719.5</ele><time>2026-04-09T11:57:06Z</time></trkpt><trkpt lat="42.375689578823796" lon="2.684187750220132"><ele>720.25</ele><time>2026-04-09T11:57:07Z</time></trkpt><trkpt lat="42.37559330782381" lon="2.6840973629237017"><ele>721.0</ele><time>2026-04-09T11:57:08Z</time></trkpt><trkpt lat="42.3754852245863" lon="2.684047849898609"><ele>721.0</ele><time>2026-04-09T11:57:09Z</time></trkpt><trkpt lat="42.37537155758782" lon="2.6840344124446904"><ele>721.0</ele><time>2026-04-09T11:57:10Z</time></trkpt><trkpt lat="42.37525832185096" lon="2.6840533038032413"><ele>721.0</ele><time>2026-04-09T11:57:11Z</time></trkpt><trkpt lat="42.37514826148382" lon="2.6840896189614867"><ele>721.0</ele><time>2026-04-09T11:57:12Z</time></trkpt><trkpt lat="42.37503804548649" lon="2.684127859923646"><ele>721.0</ele><time>2026-04-09T11:57:13Z</time></trkpt><trkpt lat="42.37492554336346" lon="2.6841643529317216"><ele>721.0</ele><time>2026-04-09T11:57:14Z</time></trkpt><trkpt lat="42.37481112893058" lon="2.6841894072134775"><ele>721.0</ele><time>2026-04-09T11:57:15Z</time></trkpt><trkpt lat="42.374695063800736" lon="2.684191227640124"><ele>721.0</ele><time>2026-04-09T11:57:16Z</time></trkpt><trkpt lat="42.37457697020769" lon="2.684180460205286"><ele>720.0</ele><time>2026-04-09T11:57:17Z</time></trkpt><trkpt lat="42.374459165513095" lon="2.684148459277721"><ele>719.0</ele><time>2026-04-09T11:57:18Z</time></trkpt><trkpt lat="42.37434578105081" lon="2.6840928588740227"><ele>718.0</ele><time>2026-04-09T11:57:19Z</time></trkpt><trkpt lat="42.37423477061539" lon="2.6840188160078764"><ele>717.0</ele><time>2026-04-09T11:57:20Z</time></trkpt><trkpt lat="42.3741298672051" lon="2.6839272345844383"><ele>717.0</ele><time>2026-04-09T11:57:21Z</time></trkpt><trkpt lat="42.37402795995873" lon="2.68382066287663"><ele>717.0</ele><time>2026-04-09T11:57:22Z</time></trkpt><trkpt lat="42.373924692839545" lon="2.6837148851642243"><ele>717.0</ele><time>2026-04-09T11:57:23Z</time></trkpt><trkpt lat="42.37381774645787" lon="2.6836257414808715"><ele>717.0</ele><time>2026-04-09T11:57:24Z</time></trkpt><trkpt lat="42.37369826782046" lon="2.6835877653085385"><ele>716.75</ele><time>2026-04-09T11:57:25Z</time></trkpt><trkpt lat="42.3735736895333" lon="2.6835957339334993"><ele>716.5</ele><time>2026-04-09T11:57:26Z</time></trkpt><trkpt lat="42.37345520458167" lon="2.683651304990356"><ele>716.25</ele><time>2026-04-09T11:57:27Z</time></trkpt><trkpt lat="42.373342899238445" lon="2.6837365985434523"><ele>716.0</ele><time>2026-04-09T11:57:28Z</time></trkpt><trkpt lat="42.37322888442428" lon="2.6838276245547608"><ele>716.0</ele><time>2026-04-09T11:57:29Z</time></trkpt><trkpt lat="42.37310775073943" lon="2.6839105168156996"><ele>716.0</ele><time>2026-04-09T11:57:30Z</time></trkpt><trkpt lat="42.372976217768645" lon="2.6839783661434535"><ele>716.0</ele><time>2026-04-09T11:57:31Z</time></trkpt><trkpt lat="42.372839816393316" lon="2.6840301114029503"><ele>716.0</ele><time>2026-04-09T11:57:32Z</time></trkpt><trkpt lat="42.372702776371945" lon="2.6840671692258935"><ele>716.75</ele><time>2026-04-09T11:57:33Z</time></trkpt><trkpt lat="42.37256525135251" lon="2.6840734107354463"><ele>717.5</ele><time>2026-04-09T11:57:34Z</time></trkpt><trkpt lat="42.37242439498721" lon="2.6840312529926402"><ele>718.25</ele><time>2026-04-09T11:57:35Z</time></trkpt><trkpt lat="42.37228660837552" lon="2.6839566444914476"><ele>719.0</ele><time>2026-04-09T11:57:36Z</time></trkpt><trkpt lat="42.37215481501188" lon="2.683857273115934"><ele>719.0</ele><time>2026-04-09T11:57:37Z</time></trkpt><trkpt lat="42.37201669725727" lon="2.6837628748313005"><ele>719.0</ele><time>2026-04-09T11:57:38Z</time></trkpt><trkpt lat="42.371878369509815" lon="2.683674335188756"><ele>719.0</ele><time>2026-04-09T11:57:39Z</time></trkpt><trkpt lat="42.371747138497554" lon="2.6835919079306207"><ele>723.75</ele><time>2026-04-09T11:57:40Z</time></trkpt><trkpt lat="42.37162718578506" lon="2.683502167701492"><ele>728.5</ele><time>2026-04-09T11:57:41Z</time></trkpt><trkpt lat="42.37153226844264" lon="2.6833858564401623"><ele>733.25</ele><time>2026-04-09T11:57:42Z</time></trkpt><trkpt lat="42.37147151427511" lon="2.683236099132926"><ele>738.0</ele><time>2026-04-09T11:57:43Z</time></trkpt><trkpt lat="42.371443212539276" lon="2.683057117429955"><ele>738.0</ele><time>2026-04-09T11:57:44Z</time></trkpt><trkpt lat="42.371445548642946" lon="2.6828742098814957"><ele>738.0</ele><time>2026-04-09T11:57:45Z</time></trkpt><trkpt lat="42.3714477811582" lon="2.6826862724910727"><ele>738.0</ele><time>2026-04-09T11:57:46Z</time></trkpt><trkpt lat="42.37144057566525" lon="2.682495409294632"><ele>738.0</ele><time>2026-04-09T11:57:47Z</time></trkpt><trkpt lat="42.371412650371035" lon="2.6823088919656297"><ele>733.5</ele><time>2026-04-09T11:57:48Z</time></trkpt><trkpt lat="42.37135201186413" lon="2.682132195905862"><ele>729.0</ele><time>2026-04-09T11:57:49Z</time></trkpt><trkpt lat="42.37127906823561" lon="2.681964549254634"><ele>724.5</ele><time>2026-04-09T11:57:50Z</time></trkpt><trkpt lat="42.37121407726318" lon="2.681799455208373"><ele>720.0</ele><time>2026-04-09T11:57:51Z</time></trkpt><trkpt lat="42.371182341656926" lon="2.6816177653291353"><ele>720.0</ele><time>2026-04-09T11:57:52Z</time></trkpt><trkpt lat="42.37118403398368" lon="2.681421988414736"><ele>720.0</ele><time>2026-04-09T11:57:53Z</time></trkpt><trkpt lat="42.37120023912437" lon="2.6812213805870115"><ele>720.0</ele><time>2026-04-09T11:57:54Z</time></trkpt><trkpt lat="42.37123162918181" lon="2.6810196633218037"><ele>720.0</ele><time>2026-04-09T11:57:55Z</time></trkpt><trkpt lat="42.37126831792889" lon="2.680814056051524"><ele>720.3333333333334</ele><time>2026-04-09T11:57:56Z</time></trkpt><trkpt lat="42.37130670323209" lon="2.6806023905658707"><ele>720.6666666666667</ele><time>2026-04-09T11:57:57Z</time></trkpt><trkpt lat="42.37134307491184" lon="2.6803872575017924"><ele>721.0</ele><time>2026-04-09T11:57:58Z</time></trkpt><trkpt lat="42.3713788180356" lon="2.6801791501010075"><ele>729.5</ele><time>2026-04-09T11:57:59Z</time></trkpt><trkpt lat="42.37141225508875" lon="2.679978589491133"><ele>738.0</ele><time>2026-04-09T11:58:00Z</time></trkpt><trkpt lat="42.37144208972723" lon="2.6797853553245354"><ele>746.5</ele><time>2026-04-09T11:58:01Z</time></trkpt><trkpt lat="42.37146007043607" lon="2.6795867103188242"><ele>755.0</ele><time>2026-04-09T11:58:02Z</time></trkpt><trkpt lat="42.37145884166044" lon="2.679384719429081"><ele>755.0</ele><time>2026-04-09T11:58:03Z</time></trkpt><trkpt lat="42.37142995555897" lon="2.679186285152675"><ele>755.0</ele><time>2026-04-09T11:58:04Z</time></trkpt><trkpt lat="42.37138178144018" lon="2.679001517631613"><ele>755.0</ele><time>2026-04-09T11:58:05Z</time></trkpt><trkpt lat="42.37133788732172" lon="2.678820514055028"><ele>755.0</ele><time>2026-04-09T11:58:06Z</time></trkpt><trkpt lat="42.37131085071719" lon="2.6786380148909816"><ele>754.25</ele><time>2026-04-09T11:58:07Z</time></trkpt><trkpt lat="42.37130808196579" lon="2.678454357639238"><ele>753.5</ele><time>2026-04-09T11:58:08Z</time></trkpt><trkpt lat="42.371339200525036" lon="2.6782800256643062"><ele>752.75</ele><time>2026-04-09T11:58:09Z</time></trkpt><trkpt lat="42.37139464804861" lon="2.678115139999064"><ele>752.0</ele><time>2026-04-09T11:58:10Z</time></trkpt><trkpt lat="42.371468950388774" lon="2.677953572035304"><ele>752.0</ele><time>2026-04-09T11:58:11Z</time></trkpt><trkpt lat="42.371546625063395" lon="2.677794378615228"><ele>752.0</ele><time>2026-04-09T11:58:12Z</time></trkpt><trkpt lat="42.37161926180128" lon="2.677639892838698"><ele>752.0</ele><time>2026-04-09T11:58:13Z</time></trkpt><trkpt lat="42.371686334132995" lon="2.6774915123130665"><ele>752.0</ele><time>2026-04-09T11:58:14Z</time></trkpt><trkpt lat="42.37174771946641" lon="2.677347268915476"><ele>750.4000000000001</ele><time>2026-04-09T11:58:15Z</time></trkpt><trkpt lat="42.37179742375286" lon="2.67720480090827"><ele>748.8000000000001</ele><time>2026-04-09T11:58:16Z</time></trkpt><trkpt lat="42.37182109101975" lon="2.677058726250809"><ele>747.2</ele><time>2026-04-09T11:58:17Z</time></trkpt><trkpt lat="42.37182271237652" lon="2.67691170476628"><ele>745.6</ele><time>2026-04-09T11:58:18Z</time></trkpt><trkpt lat="42.371791317284256" lon="2.676777513280061"><ele>744.0</ele><time>2026-04-09T11:58:19Z</time></trkpt><trkpt lat="42.37173221190834" lon="2.6766558185061275"><ele>744.0</ele><time>2026-04-09T11:58:20Z</time></trkpt><trkpt lat="42.371646769355635" lon="2.676557046282575"><ele>744.0</ele><time>2026-04-09T11:58:21Z</time></trkpt><trkpt lat="42.37154204415155" lon="2.6764881123667235"><ele>744.0</ele><time>2026-04-09T11:58:22Z</time></trkpt><trkpt lat="42.37142416937381" lon="2.676435586668333"><ele>744.0</ele><time>2026-04-09T11:58:23Z</time></trkpt><trkpt lat="42.371303169120054" lon="2.676387980800416"><ele>741.5</ele><time>2026-04-09T11:58:24Z</time></trkpt><trkpt lat="42.371178082496364" lon="2.676346019195105"><ele>739.0</ele><time>2026-04-09T11:58:25Z</time></trkpt><trkpt lat="42.371051126201394" lon="2.676318928589323"><ele>736.5</ele><time>2026-04-09T11:58:26Z</time></trkpt><trkpt lat="42.37091771584851" lon="2.676331666015277"><ele>734.0</ele><time>2026-04-09T11:58:27Z</time></trkpt><trkpt lat="42.370787582004034" lon="2.676382715429695"><ele>734.0</ele><time>2026-04-09T11:58:28Z</time></trkpt><trkpt lat="42.37065899378489" lon="2.676459953442087"><ele>734.0</ele><time>2026-04-09T11:58:29Z</time></trkpt><trkpt lat="42.3705298517005" lon="2.676547080229059"><ele>734.0</ele><time>2026-04-09T11:58:30Z</time></trkpt><trkpt lat="42.37039558574537" lon="2.6766383657162645"><ele>734.0</ele><time>2026-04-09T11:58:31Z</time></trkpt><trkpt lat="42.37025675325579" lon="2.6767351113929654"><ele>732.6666666666666</ele><time>2026-04-09T11:58:32Z</time></trkpt><trkpt lat="42.37011406178615" lon="2.676826172794003"><ele>731.3333333333334</ele><time>2026-04-09T11:58:33Z</time></trkpt><trkpt lat="42.36997057869235" lon="2.676917917407952"><ele>730.0</ele><time>2026-04-09T11:58:34Z</time></trkpt><trkpt lat="42.36983366238317" lon="2.677008062029952"><ele>730.0</ele><time>2026-04-09T11:58:35Z</time></trkpt><trkpt lat="42.369698126120454" lon="2.6771028313170624"><ele>730.0</ele><time>2026-04-09T11:58:36Z</time></trkpt><trkpt lat="42.3695718014335" lon="2.6772185290495574"><ele>730.0</ele><time>2026-04-09T11:58:37Z</time></trkpt><trkpt lat="42.36946257377724" lon="2.6773612883613733"><ele>733.6666666666667</ele><time>2026-04-09T11:58:38Z</time></trkpt><trkpt lat="42.36937654192286" lon="2.677536852918972"><ele>737.3333333333334</ele><time>2026-04-09T11:58:39Z</time></trkpt><trkpt lat="42.369300778185284" lon="2.6777154471906517"><ele>741.0</ele><time>2026-04-09T11:58:40Z</time></trkpt><trkpt lat="42.369208490367036" lon="2.677879719846125"><ele>741.0</ele><time>2026-04-09T11:58:41Z</time></trkpt><trkpt lat="42.369096183872365" lon="2.6780259608179424"><ele>741.0</ele><time>2026-04-09T11:58:42Z</time></trkpt><trkpt lat="42.36897030892632" lon="2.678153580804975"><ele>741.0</ele><time>2026-04-09T11:58:43Z</time></trkpt><trkpt lat="42.36884170598381" lon="2.678277582412347"><ele>745.3333333333334</ele><time>2026-04-09T11:58:44Z</time></trkpt><trkpt lat="42.36871248892063" lon="2.6784038927452616"><ele>749.6666666666667</ele><time>2026-04-09T11:58:45Z</time></trkpt><trkpt lat="42.36859012132621" lon="2.6785382112485308"><ele>754.0</ele><time>2026-04-09T11:58:46Z</time></trkpt><trkpt lat="42.36848101722205" lon="2.67869026507581"><ele>754.0</ele><time>2026-04-09T11:58:47Z</time></trkpt><trkpt lat="42.368383337315684" lon="2.6788571755196995"><ele>754.0</ele><time>2026-04-09T11:58:48Z</time></trkpt><trkpt lat="42.36830381818796" lon="2.6790287824300303"><ele>754.0</ele><time>2026-04-09T11:58:49Z</time></trkpt><trkpt lat="42.36823550315535" lon="2.6791923798627195"><ele>754.0</ele><time>2026-04-09T11:58:50Z</time></trkpt><trkpt lat="42.36817000362031" lon="2.6793362765637654"><ele>752.0</ele><time>2026-04-09T11:58:51Z</time></trkpt><trkpt lat="42.368091642405716" lon="2.679454143370285"><ele>750.0</ele><time>2026-04-09T11:58:52Z</time></trkpt><trkpt lat="42.36799555020036" lon="2.6795459354623805"><ele>748.0</ele><time>2026-04-09T11:58:53Z</time></trkpt><trkpt lat="42.367884876896106" lon="2.679602729974842"><ele>746.0</ele><time>2026-04-09T11:58:54Z</time></trkpt><trkpt lat="42.3677575533328" lon="2.6796014925346894"><ele>749.75</ele><time>2026-04-09T11:58:55Z</time></trkpt><trkpt lat="42.367633206485756" lon="2.6795476698821328"><ele>753.5</ele><time>2026-04-09T11:58:56Z</time></trkpt><trkpt lat="42.36753528190113" lon="2.6794307796450223"><ele>757.25</ele><time>2026-04-09T11:58:57Z</time></trkpt><trkpt lat="42.36746797768149" lon="2.6792856606409186"><ele>761.0</ele><time>2026-04-09T11:58:58Z</time></trkpt><trkpt lat="42.36744290228225" lon="2.679113413425128"><ele>761.0</ele><time>2026-04-09T11:58:59Z</time></trkpt><trkpt lat="42.36746084477265" lon="2.6789281859581737"><ele>761.0</ele><time>2026-04-09T11:59:00Z</time></trkpt><trkpt lat="42.36750066836974" lon="2.6787393912688566"><ele>761.0</ele><time>2026-04-09T11:59:01Z</time></trkpt><trkpt lat="42.36753718222551" lon="2.6785391165499557"><ele>761.0</ele><time>2026-04-09T11:59:02Z</time></trkpt><trkpt lat="42.36756746558181" lon="2.678348215116073"><ele>760.75</ele><time>2026-04-09T11:59:03Z</time></trkpt><trkpt lat="42.36757142903438" lon="2.678149375290438"><ele>760.5</ele><time>2026-04-09T11:59:04Z</time></trkpt><trkpt lat="42.367547610449975" lon="2.6779575239853"><ele>760.25</ele><time>2026-04-09T11:59:05Z</time></trkpt><trkpt lat="42.36749260205576" lon="2.6777802095117003"><ele>760.0</ele><time>2026-04-09T11:59:06Z</time></trkpt><trkpt lat="42.36741904241761" lon="2.677616614321285"><ele>762.25</ele><time>2026-04-09T11:59:07Z</time></trkpt><trkpt lat="42.367318617734284" lon="2.677475163427472"><ele>764.5</ele><time>2026-04-09T11:59:08Z</time></trkpt><trkpt lat="42.367201745322326" lon="2.6773664763343628"><ele>766.75</ele><time>2026-04-09T11:59:09Z</time></trkpt><trkpt lat="42.36708021111946" lon="2.677279299430452"><ele>769.0</ele><time>2026-04-09T11:59:10Z</time></trkpt><trkpt lat="42.366959633764964" lon="2.677203407254814"><ele>766.5</ele><time>2026-04-09T11:59:11Z</time></trkpt><trkpt lat="42.36684646579945" lon="2.6771231966601894"><ele>764.0</ele><time>2026-04-09T11:59:12Z</time></trkpt><trkpt lat="42.36674721730668" lon="2.677023064899146"><ele>761.5</ele><time>2026-04-09T11:59:13Z</time></trkpt><trkpt lat="42.36666609536192" lon="2.6768913572206006"><ele>759.0</ele><time>2026-04-09T11:59:14Z</time></trkpt><trkpt lat="42.366613368744424" lon="2.6767231148695907"><ele>759.0</ele><time>2026-04-09T11:59:15Z</time></trkpt><trkpt lat="42.36658957945143" lon="2.6765415412393905"><ele>759.0</ele><time>2026-04-09T11:59:16Z</time></trkpt><trkpt lat="42.3665831146741" lon="2.6763552378346116"><ele>759.0</ele><time>2026-04-09T11:59:17Z</time></trkpt><trkpt lat="42.366564470942386" lon="2.676178216725816"><ele>759.0</ele><time>2026-04-09T11:59:18Z</time></trkpt><trkpt lat="42.36652688626701" lon="2.676008178055896"><ele>757.25</ele><time>2026-04-09T11:59:19Z</time></trkpt><trkpt lat="42.366463255164525" lon="2.6758561054693857"><ele>755.5</ele><time>2026-04-09T11:59:20Z</time></trkpt><trkpt lat="42.366373294460374" lon="2.6757229270946388"><ele>753.75</ele><time>2026-04-09T11:59:21Z</time></trkpt><trkpt lat="42.36626512358543" lon="2.675612306973358"><ele>752.0</ele><time>2026-04-09T11:59:22Z</time></trkpt><trkpt lat="42.36614172659015" lon="2.6755245985547123"><ele>752.0</ele><time>2026-04-09T11:59:23Z</time></trkpt><trkpt lat="42.36600352288381" lon="2.67546865581731"><ele>752.0</ele><time>2026-04-09T11:59:24Z</time></trkpt><trkpt lat="42.36585457658933" lon="2.675436155404602"><ele>752.0</ele><time>2026-04-09T11:59:25Z</time></trkpt><trkpt lat="42.36569811912028" lon="2.675408658436286"><ele>752.0</ele><time>2026-04-09T11:59:26Z</time></trkpt><trkpt lat="42.36553512951109" lon="2.6753742574743606"><ele>752.0</ele><time>2026-04-09T11:59:27Z</time></trkpt><trkpt lat="42.365367415993816" lon="2.67533799036124"><ele>752.0</ele><time>2026-04-09T11:59:28Z</time></trkpt><trkpt lat="42.36520286325107" lon="2.6753053734770185"><ele>750.0</ele><time>2026-04-09T11:59:29Z</time></trkpt><trkpt lat="42.36504257014747" lon="2.6752732549280673"><ele>748.0</ele><time>2026-04-09T11:59:30Z</time></trkpt><trkpt lat="42.36488742473834" lon="2.6752417488973244"><ele>746.0</ele><time>2026-04-09T11:59:31Z</time></trkpt><trkpt lat="42.36473545756021" lon="2.6752115553425813"><ele>749.3333333333333</ele><time>2026-04-09T11:59:32Z</time></trkpt><trkpt lat="42.36458760029757" lon="2.675180426358155"><ele>752.6666666666666</ele><time>2026-04-09T11:59:33Z</time></trkpt><trkpt lat="42.36443644968783" lon="2.6751458123578433"><ele>756.0</ele><time>2026-04-09T11:59:34Z</time></trkpt><trkpt lat="42.36428049101419" lon="2.6751009881051298"><ele>756.0</ele><time>2026-04-09T11:59:35Z</time></trkpt><trkpt lat="42.36412470498243" lon="2.675033354024863"><ele>756.0</ele><time>2026-04-09T11:59:36Z</time></trkpt><trkpt lat="42.3639679262827" lon="2.67495712096119"><ele>756.0</ele><time>2026-04-09T11:59:37Z</time></trkpt><trkpt lat="42.36381811191383" lon="2.6748655732691655"><ele>749.6666666666666</ele><time>2026-04-09T11:59:38Z</time></trkpt><trkpt lat="42.36367595038192" lon="2.674765324205457"><ele>743.3333333333333</ele><time>2026-04-09T11:59:39Z</time></trkpt><trkpt lat="42.36354349764295" lon="2.6746580332108283"><ele>737.0</ele><time>2026-04-09T11:59:40Z</time></trkpt><trkpt lat="42.363432041162056" lon="2.674533294590054"><ele>739.5</ele><time>2026-04-09T11:59:41Z</time></trkpt><trkpt lat="42.363347161709804" lon="2.6743792321963933"><ele>742.0</ele><time>2026-04-09T11:59:42Z</time></trkpt><trkpt lat="42.363298195385305" lon="2.674208982281022"><ele>744.5</ele><time>2026-04-09T11:59:43Z</time></trkpt><trkpt lat="42.36327898998669" lon="2.6740154461710604"><ele>747.0</ele><time>2026-04-09T11:59:44Z</time></trkpt><trkpt lat="42.363292503769884" lon="2.6738235356111835"><ele>747.0</ele><time>2026-04-09T11:59:45Z</time></trkpt><trkpt lat="42.363341076566" lon="2.673638468394931"><ele>747.0</ele><time>2026-04-09T11:59:46Z</time></trkpt><trkpt lat="42.36342264585199" lon="2.673484006095768"><ele>747.0</ele><time>2026-04-09T11:59:47Z</time></trkpt><trkpt lat="42.36353331599322" lon="2.6733626624111984"><ele>747.0</ele><time>2026-04-09T11:59:48Z</time></trkpt><trkpt lat="42.36365978364272" lon="2.6732681041621653"><ele>745.0</ele><time>2026-04-09T11:59:49Z</time></trkpt><trkpt lat="42.36380299317566" lon="2.6732102846035417"><ele>743.0</ele><time>2026-04-09T11:59:50Z</time></trkpt><trkpt lat="42.36395422115017" lon="2.67317334309422"><ele>741.0</ele><time>2026-04-09T11:59:51Z</time></trkpt><trkpt lat="42.364111500874614" lon="2.6731338006247323"><ele>746.3333333333334</ele><time>2026-04-09T11:59:52Z</time></trkpt><trkpt lat="42.36427190815176" lon="2.673089787592616"><ele>751.6666666666667</ele><time>2026-04-09T11:59:53Z</time></trkpt><trkpt lat="42.3644378139914" lon="2.673053733196508"><ele>757.0</ele><time>2026-04-09T11:59:54Z</time></trkpt><trkpt lat="42.364597738458045" lon="2.6730134898316"><ele>758.6666666666667</ele><time>2026-04-09T11:59:55Z</time></trkpt><trkpt lat="42.364756159489126" lon="2.672972790466032"><ele>760.3333333333334</ele><time>2026-04-09T11:59:56Z</time></trkpt><trkpt lat="42.36491403231751" lon="2.6729339542477666"><ele>762.0</ele><time>2026-04-09T11:59:57Z</time></trkpt><trkpt lat="42.365072283476195" lon="2.67289624050527"><ele>762.0</ele><time>2026-04-09T11:59:58Z</time></trkpt><trkpt lat="42.3652320880483" lon="2.6728550526323573"><ele>762.0</ele><time>2026-04-09T11:59:59Z</time></trkpt><trkpt lat="42.36539104087925" lon="2.6728184889096753"><ele>762.0</ele><time>2026-04-09T12:00:00Z</time></trkpt><trkpt lat="42.36555104455524" lon="2.6727857848563397"><ele>762.3333333333334</ele><time>2026-04-09T12:00:01Z</time></trkpt><trkpt lat="42.36571319226565" lon="2.6727726866697026"><ele>762.6666666666667</ele><time>2026-04-09T12:00:02Z</time></trkpt><trkpt lat="42.36587002486369" lon="2.6727764781962007"><ele>763.0</ele><time>2026-04-09T12:00:03Z</time></trkpt><trkpt lat="42.36601529075722" lon="2.6727837807121517"><ele>763.0</ele><time>2026-04-09T12:00:04Z</time></trkpt><trkpt lat="42.3661471904719" lon="2.6727851774448137"><ele>763.0</ele><time>2026-04-09T12:00:05Z</time></trkpt><trkpt lat="42.36627915766508" lon="2.6727646704667882"><ele>763.0</ele><time>2026-04-09T12:00:06Z</time></trkpt><trkpt lat="42.36640889540551" lon="2.672705304128391"><ele>763.0</ele><time>2026-04-09T12:00:07Z</time></trkpt><trkpt lat="42.366527260473774" lon="2.6726103356382005"><ele>758.5</ele><time>2026-04-09T12:00:08Z</time></trkpt><trkpt lat="42.36662150790986" lon="2.672476913637992"><ele>754.0</ele><time>2026-04-09T12:00:09Z</time></trkpt><trkpt lat="42.36669581617974" lon="2.672326732651029"><ele>749.5</ele><time>2026-04-09T12:00:10Z</time></trkpt><trkpt lat="42.36673677813279" lon="2.6721511992740012"><ele>745.0</ele><time>2026-04-09T12:00:11Z</time></trkpt><trkpt lat="42.366750430585036" lon="2.6719649118128426"><ele>740.0</ele><time>2026-04-09T12:00:12Z</time></trkpt><trkpt lat="42.36674000202243" lon="2.6717633246796146"><ele>735.0</ele><time>2026-04-09T12:00:13Z</time></trkpt><trkpt lat="42.36671425596167" lon="2.671550795979621"><ele>730.0</ele><time>2026-04-09T12:00:14Z</time></trkpt><trkpt lat="42.36668193402048" lon="2.671328027857358"><ele>729.0</ele><time>2026-04-09T12:00:15Z</time></trkpt><trkpt lat="42.36665321882315" lon="2.6710926748195347"><ele>728.0</ele><time>2026-04-09T12:00:16Z</time></trkpt><trkpt lat="42.36662611426939" lon="2.67085001733851"><ele>727.0</ele><time>2026-04-09T12:00:17Z</time></trkpt><trkpt lat="42.366600142619475" lon="2.670606753231861"><ele>727.0</ele><time>2026-04-09T12:00:18Z</time></trkpt><trkpt lat="42.3665753146586" lon="2.6703579527543875"><ele>727.0</ele><time>2026-04-09T12:00:19Z</time></trkpt><trkpt lat="42.366554627624005" lon="2.670109491656309"><ele>727.0</ele><time>2026-04-09T12:00:20Z</time></trkpt><trkpt lat="42.36653499767544" lon="2.6698577304444377"><ele>726.6666666666667</ele><time>2026-04-09T12:00:21Z</time></trkpt><trkpt lat="42.36651841742632" lon="2.6696069307982957"><ele>726.3333333333334</ele><time>2026-04-09T12:00:22Z</time></trkpt><trkpt lat="42.366503022047844" lon="2.6693552178991755"><ele>726.0</ele><time>2026-04-09T12:00:23Z</time></trkpt><trkpt lat="42.36648892565077" lon="2.6690992853797777"><ele>726.0</ele><time>2026-04-09T12:00:24Z</time></trkpt><trkpt lat="42.366476843663655" lon="2.668842941373551"><ele>726.0</ele><time>2026-04-09T12:00:25Z</time></trkpt><trkpt lat="42.36646954113457" lon="2.668586579163045"><ele>726.0</ele><time>2026-04-09T12:00:26Z</time></trkpt><trkpt lat="42.36646290785877" lon="2.6683312317047028"><ele>723.0</ele><time>2026-04-09T12:00:27Z</time></trkpt><trkpt lat="42.36645246530799" lon="2.668074819705583"><ele>720.0</ele><time>2026-04-09T12:00:28Z</time></trkpt><trkpt lat="42.36644263063364" lon="2.667821026792855"><ele>717.0</ele><time>2026-04-09T12:00:29Z</time></trkpt><trkpt lat="42.36643459115253" lon="2.6675696478949567"><ele>717.0</ele><time>2026-04-09T12:00:30Z</time></trkpt><trkpt lat="42.366425337049556" lon="2.6673228655848265"><ele>717.0</ele><time>2026-04-09T12:00:31Z</time></trkpt><trkpt lat="42.36641881228526" lon="2.667078665164082"><ele>717.0</ele><time>2026-04-09T12:00:32Z</time></trkpt><trkpt lat="42.36642280632611" lon="2.666837785355274"><ele>717.6666666666666</ele><time>2026-04-09T12:00:33Z</time></trkpt><trkpt lat="42.36643995360115" lon="2.666589931650722"><ele>718.3333333333333</ele><time>2026-04-09T12:00:34Z</time></trkpt><trkpt lat="42.36647128503321" lon="2.66634192016578"><ele>719.0</ele><time>2026-04-09T12:00:35Z</time></trkpt><trkpt lat="42.366512085328004" lon="2.6660961591835255"><ele>716.3333333333333</ele><time>2026-04-09T12:00:36Z</time></trkpt><trkpt lat="42.36655065007281" lon="2.6658519955045494"><ele>713.6666666666666</ele><time>2026-04-09T12:00:37Z</time></trkpt><trkpt lat="42.36658562999318" lon="2.6656105331876736"><ele>711.0</ele><time>2026-04-09T12:00:38Z</time></trkpt><trkpt lat="42.366619011866995" lon="2.665369458766647"><ele>711.6666666666666</ele><time>2026-04-09T12:00:39Z</time></trkpt><trkpt lat="42.366653898267096" lon="2.6651319980051498"><ele>712.3333333333333</ele><time>2026-04-09T12:00:40Z</time></trkpt><trkpt lat="42.366689786167036" lon="2.664897287022165"><ele>713.0</ele><time>2026-04-09T12:00:41Z</time></trkpt><trkpt lat="42.36672483723801" lon="2.664667219414486"><ele>713.0</ele><time>2026-04-09T12:00:42Z</time></trkpt><trkpt lat="42.366785834177065" lon="2.6644493149848554"><ele>713.0</ele><time>2026-04-09T12:00:43Z</time></trkpt><trkpt lat="42.36686657898052" lon="2.664249712673886"><ele>713.0</ele><time>2026-04-09T12:00:44Z</time></trkpt><trkpt lat="42.366971814402156" lon="2.664097368997546"><ele>713.25</ele><time>2026-04-09T12:00:45Z</time></trkpt><trkpt lat="42.36707133485941" lon="2.6639490600210807"><ele>713.5</ele><time>2026-04-09T12:00:46Z</time></trkpt><trkpt lat="42.367154175806895" lon="2.663783988724996"><ele>713.75</ele><time>2026-04-09T12:00:47Z</time></trkpt><trkpt lat="42.36720277404954" lon="2.6635937265864067"><ele>714.0</ele><time>2026-04-09T12:00:48Z</time></trkpt><trkpt lat="42.36721488113475" lon="2.6633998003185404"><ele>714.0</ele><time>2026-04-09T12:00:49Z</time></trkpt><trkpt lat="42.36720663110708" lon="2.6632079795018635"><ele>714.0</ele><time>2026-04-09T12:00:50Z</time></trkpt><trkpt lat="42.36719486269938" lon="2.663017678307039"><ele>714.0</ele><time>2026-04-09T12:00:51Z</time></trkpt><trkpt lat="42.367191625356625" lon="2.6628270328420713"><ele>714.0</ele><time>2026-04-09T12:00:52Z</time></trkpt><trkpt lat="42.36720237784953" lon="2.662640211208702"><ele>712.25</ele><time>2026-04-09T12:00:53Z</time></trkpt><trkpt lat="42.36723186049352" lon="2.6624579944582445"><ele>710.5</ele><time>2026-04-09T12:00:54Z</time></trkpt><trkpt lat="42.36728880821708" lon="2.662290166806003"><ele>708.75</ele><time>2026-04-09T12:00:55Z</time></trkpt><trkpt lat="42.36736105034584" lon="2.662135123545694"><ele>707.0</ele><time>2026-04-09T12:00:56Z</time></trkpt><trkpt lat="42.36744875373053" lon="2.6619994891230427"><ele>702.75</ele><time>2026-04-09T12:00:57Z</time></trkpt><trkpt lat="42.36754411096041" lon="2.66187631184452"><ele>698.5</ele><time>2026-04-09T12:00:58Z</time></trkpt><trkpt lat="42.36763888799931" lon="2.661748553304535"><ele>694.25</ele><time>2026-04-09T12:00:59Z</time></trkpt><trkpt lat="42.3677317555852" lon="2.66162039447972"><ele>690.0</ele><time>2026-04-09T12:01:00Z</time></trkpt><trkpt lat="42.36781923842834" lon="2.6614922382155384"><ele>690.0</ele><time>2026-04-09T12:01:01Z</time></trkpt><trkpt lat="42.36788784044081" lon="2.661346966774215"><ele>690.0</ele><time>2026-04-09T12:01:02Z</time></trkpt><trkpt lat="42.36794210104103" lon="2.6611876748352628"><ele>690.0</ele><time>2026-04-09T12:01:03Z</time></trkpt><trkpt lat="42.36797902628637" lon="2.6610221787003083"><ele>690.0</ele><time>2026-04-09T12:01:04Z</time></trkpt><trkpt lat="42.36799456595786" lon="2.6608514313941294"><ele>689.25</ele><time>2026-04-09T12:01:05Z</time></trkpt><trkpt lat="42.367991767871395" lon="2.6606816897263466"><ele>688.5</ele><time>2026-04-09T12:01:06Z</time></trkpt><trkpt lat="42.36796847572929" lon="2.6605169153542025"><ele>687.75</ele><time>2026-04-09T12:01:07Z</time></trkpt><trkpt lat="42.367935063737804" lon="2.6603578222857904"><ele>687.0</ele><time>2026-04-09T12:01:08Z</time></trkpt><trkpt lat="42.36789319081346" lon="2.660206139216041"><ele>688.8</ele><time>2026-04-09T12:01:09Z</time></trkpt><trkpt lat="42.3678577299034" lon="2.660056766579109"><ele>690.6</ele><time>2026-04-09T12:01:10Z</time></trkpt><trkpt lat="42.3678351622033" lon="2.659908593721081"><ele>692.4</ele><time>2026-04-09T12:01:11Z</time></trkpt><trkpt lat="42.367830339688446" lon="2.6597598757807575"><ele>694.1999999999999</ele><time>2026-04-09T12:01:12Z</time></trkpt><trkpt lat="42.36784149212036" lon="2.6596240778435836"><ele>696.0</ele><time>2026-04-09T12:01:13Z</time></trkpt><trkpt lat="42.367860909608495" lon="2.6594953122977776"><ele>697.5999999999999</ele><time>2026-04-09T12:01:14Z</time></trkpt><trkpt lat="42.36787950192212" lon="2.659365329390376"><ele>699.2</ele><time>2026-04-09T12:01:15Z</time></trkpt><trkpt lat="42.367892969425725" lon="2.659233656691691"><ele>700.8</ele><time>2026-04-09T12:01:16Z</time></trkpt><trkpt lat="42.36789841215168" lon="2.659102757693361"><ele>702.4000000000001</ele><time>2026-04-09T12:01:17Z</time></trkpt><trkpt lat="42.36790033068099" lon="2.6589720395203886"><ele>704.0</ele><time>2026-04-09T12:01:18Z</time></trkpt><trkpt lat="42.367897889504235" lon="2.6588437551993946"><ele>704.0</ele><time>2026-04-09T12:01:19Z</time></trkpt><trkpt lat="42.36789685923597" lon="2.658717115921136"><ele>704.0</ele><time>2026-04-09T12:01:20Z</time></trkpt><trkpt lat="42.367894420791316" lon="2.6585900325276857"><ele>704.0</ele><time>2026-04-09T12:01:21Z</time></trkpt><trkpt lat="42.367893178140775" lon="2.658469106435915"><ele>704.0</ele><time>2026-04-09T12:01:22Z</time></trkpt><trkpt lat="42.36788962181354" lon="2.6583535257082818"><ele>704.0</ele><time>2026-04-09T12:01:23Z</time></trkpt><trkpt lat="42.367887589315096" lon="2.6582296329245687"><ele>705.8000000000001</ele><time>2026-04-09T12:01:24Z</time></trkpt><trkpt lat="42.36788226426198" lon="2.658102362397488"><ele>707.6</ele><time>2026-04-09T12:01:25Z</time></trkpt><trkpt lat="42.36787627173166" lon="2.6579755487145693"><ele>709.4</ele><time>2026-04-09T12:01:26Z</time></trkpt><trkpt lat="42.36787202188313" lon="2.657841431614703"><ele>711.2</ele><time>2026-04-09T12:01:27Z</time></trkpt><trkpt lat="42.367867817147534" lon="2.657706970227002"><ele>713.0</ele><time>2026-04-09T12:01:28Z</time></trkpt><trkpt lat="42.36786352532047" lon="2.657569215591033"><ele>714.5999999999999</ele><time>2026-04-09T12:01:29Z</time></trkpt><trkpt lat="42.367865702094996" lon="2.657424723146376"><ele>716.1999999999999</ele><time>2026-04-09T12:01:30Z</time></trkpt><trkpt lat="42.36787337540882" lon="2.6572742312815922"><ele>717.8</ele><time>2026-04-09T12:01:31Z</time></trkpt><trkpt lat="42.367880766094714" lon="2.6571206372345157"><ele>719.4</ele><time>2026-04-09T12:01:32Z</time></trkpt><trkpt lat="42.367887233239216" lon="2.6569628815416255"><ele>721.0</ele><time>2026-04-09T12:01:33Z</time></trkpt><trkpt lat="42.36789470139311" lon="2.6568056372331106"><ele>722.75</ele><time>2026-04-09T12:01:34Z</time></trkpt><trkpt lat="42.367902624588716" lon="2.6566424504400796"><ele>724.5</ele><time>2026-04-09T12:01:35Z</time></trkpt><trkpt lat="42.36791272818233" lon="2.6564743281997183"><ele>726.25</ele><time>2026-04-09T12:01:36Z</time></trkpt><trkpt lat="42.36792363765433" lon="2.6563068564809647"><ele>728.0</ele><time>2026-04-09T12:01:37Z</time></trkpt><trkpt lat="42.367932258735095" lon="2.656140776363406"><ele>730.25</ele><time>2026-04-09T12:01:38Z</time></trkpt><trkpt lat="42.36793883034226" lon="2.6559758999138063"><ele>732.5</ele><time>2026-04-09T12:01:39Z</time></trkpt><trkpt lat="42.367945621657974" lon="2.65581004866654"><ele>734.75</ele><time>2026-04-09T12:01:40Z</time></trkpt><trkpt lat="42.367952663434814" lon="2.6556480776335274"><ele>737.0</ele><time>2026-04-09T12:01:41Z</time></trkpt><trkpt lat="42.36795854472151" lon="2.65548473056172"><ele>737.0</ele><time>2026-04-09T12:01:42Z</time></trkpt><trkpt lat="42.36795974732217" lon="2.6553183717668456"><ele>737.0</ele><time>2026-04-09T12:01:43Z</time></trkpt><trkpt lat="42.36795703939008" lon="2.655146831764534"><ele>737.0</ele><time>2026-04-09T12:01:44Z</time></trkpt><trkpt lat="42.36794888816584" lon="2.6549718780406915"><ele>737.0</ele><time>2026-04-09T12:01:45Z</time></trkpt><trkpt lat="42.367937429602534" lon="2.6548012490176656"><ele>738.8</ele><time>2026-04-09T12:01:46Z</time></trkpt><trkpt lat="42.36792682418474" lon="2.6546388512628045"><ele>740.6</ele><time>2026-04-09T12:01:47Z</time></trkpt><trkpt lat="42.36791964309312" lon="2.6544899975268734"><ele>742.4</ele><time>2026-04-09T12:01:48Z</time></trkpt><trkpt lat="42.36791183513197" lon="2.6543499938832826"><ele>744.1999999999999</ele><time>2026-04-09T12:01:49Z</time></trkpt><trkpt lat="42.36790328291581" lon="2.6542188965129685"><ele>746.0</ele><time>2026-04-09T12:01:50Z</time></trkpt><trkpt lat="42.36788897818764" lon="2.654102761037708"><ele>748.1428571428571</ele><time>2026-04-09T12:01:51Z</time></trkpt><trkpt lat="42.36785362218684" lon="2.6540071235654623"><ele>750.2857142857143</ele><time>2026-04-09T12:01:52Z</time></trkpt><trkpt lat="42.36780613676757" lon="2.653932951208189"><ele>752.4285714285713</ele><time>2026-04-09T12:01:53Z</time></trkpt><trkpt lat="42.367744954428176" lon="2.6538809464342483"><ele>754.5714285714286</ele><time>2026-04-09T12:01:54Z</time></trkpt><trkpt lat="42.36767643591718" lon="2.6538649850408818"><ele>756.7142857142857</ele><time>2026-04-09T12:01:55Z</time></trkpt><trkpt lat="42.36760975896544" lon="2.6538848302544995"><ele>758.8571428571428</ele><time>2026-04-09T12:01:56Z</time></trkpt><trkpt lat="42.36754871697859" lon="2.6539365298389876"><ele>761.0</ele><time>2026-04-09T12:01:57Z</time></trkpt><trkpt lat="42.36749560977197" lon="2.6540101866164503"><ele>761.0</ele><time>2026-04-09T12:01:58Z</time></trkpt><trkpt lat="42.367455974210706" lon="2.654097168154745"><ele>761.0</ele><time>2026-04-09T12:01:59Z</time></trkpt><trkpt lat="42.3674207627922" lon="2.65419028431093"><ele>761.0</ele><time>2026-04-09T12:02:00Z</time></trkpt><trkpt lat="42.36738093056757" lon="2.6542861070337893"><ele>761.0</ele><time>2026-04-09T12:02:01Z</time></trkpt><trkpt lat="42.367337757834164" lon="2.6543827488662037"><ele>761.0</ele><time>2026-04-09T12:02:02Z</time></trkpt><trkpt lat="42.36728759070872" lon="2.654483468221952"><ele>761.0</ele><time>2026-04-09T12:02:03Z</time></trkpt><trkpt lat="42.36723208439473" lon="2.654584223330002"><ele>764.1999999999999</ele><time>2026-04-09T12:02:04Z</time></trkpt><trkpt lat="42.36717141040133" lon="2.6546898981516964"><ele>767.4</ele><time>2026-04-09T12:02:05Z</time></trkpt><trkpt lat="42.36709970772851" lon="2.65479307496376"><ele>770.6</ele><time>2026-04-09T12:02:06Z</time></trkpt><trkpt lat="42.367016045581785" lon="2.6548934783830718"><ele>773.8</ele><time>2026-04-09T12:02:07Z</time></trkpt><trkpt lat="42.366931672222705" lon="2.655001557212527"><ele>777.0</ele><time>2026-04-09T12:02:08Z</time></trkpt><trkpt lat="42.3668442503782" lon="2.6551158988165566"><ele>777.0</ele><time>2026-04-09T12:02:09Z</time></trkpt><trkpt lat="42.36675210973227" lon="2.655234078339684"><ele>777.0</ele><time>2026-04-09T12:02:10Z</time></trkpt><trkpt lat="42.36666180911896" lon="2.655368832701923"><ele>777.0</ele><time>2026-04-09T12:02:11Z</time></trkpt><trkpt lat="42.36658230565762" lon="2.6555248518568266"><ele>777.0</ele><time>2026-04-09T12:02:12Z</time></trkpt><trkpt lat="42.36651413931195" lon="2.6556990763363073"><ele>779.5</ele><time>2026-04-09T12:02:13Z</time></trkpt><trkpt lat="42.36645900633441" lon="2.6558749855413604"><ele>782.0</ele><time>2026-04-09T12:02:14Z</time></trkpt><trkpt lat="42.366412617980934" lon="2.6560514864072493"><ele>784.5</ele><time>2026-04-09T12:02:15Z</time></trkpt><trkpt lat="42.36635469540903" lon="2.6562335459546422"><ele>787.0</ele><time>2026-04-09T12:02:16Z</time></trkpt><trkpt lat="42.366279390817155" lon="2.656412659565095"><ele>787.0</ele><time>2026-04-09T12:02:17Z</time></trkpt><trkpt lat="42.36619703026048" lon="2.6565830787395153"><ele>787.0</ele><time>2026-04-09T12:02:18Z</time></trkpt><trkpt lat="42.366116524257954" lon="2.6567554789407266"><ele>787.0</ele><time>2026-04-09T12:02:19Z</time></trkpt><trkpt lat="42.36605284929613" lon="2.656934278709372"><ele>787.0</ele><time>2026-04-09T12:02:20Z</time></trkpt><trkpt lat="42.365991616651584" lon="2.6571027677394996"><ele>782.0</ele><time>2026-04-09T12:02:21Z</time></trkpt><trkpt lat="42.36591112224217" lon="2.657248248521046"><ele>777.0</ele><time>2026-04-09T12:02:22Z</time></trkpt><trkpt lat="42.36580973743463" lon="2.6573537122297664"><ele>772.0</ele><time>2026-04-09T12:02:23Z</time></trkpt><trkpt lat="42.365690947881" lon="2.6574288657948535"><ele>767.0</ele><time>2026-04-09T12:02:24Z</time></trkpt><trkpt lat="42.365561515185604" lon="2.6574699631073604"><ele>771.5</ele><time>2026-04-09T12:02:25Z</time></trkpt><trkpt lat="42.36542950366247" lon="2.6574684325916675"><ele>776.0</ele><time>2026-04-09T12:02:26Z</time></trkpt><trkpt lat="42.36530165001841" lon="2.6574586636836495"><ele>780.5</ele><time>2026-04-09T12:02:27Z</time></trkpt><trkpt lat="42.36517595630791" lon="2.6574681263378976"><ele>785.0</ele><time>2026-04-09T12:02:28Z</time></trkpt><trkpt lat="42.36505330290546" lon="2.657512050028441"><ele>785.0</ele><time>2026-04-09T12:02:29Z</time></trkpt><trkpt lat="42.36493753322972" lon="2.6575797032537922"><ele>785.0</ele><time>2026-04-09T12:02:30Z</time></trkpt><trkpt lat="42.364833268890955" lon="2.6576783431943394"><ele>785.0</ele><time>2026-04-09T12:02:31Z</time></trkpt><trkpt lat="42.36473131763258" lon="2.6577736221301644"><ele>785.0</ele><time>2026-04-09T12:02:32Z</time></trkpt><trkpt lat="42.364625588546716" lon="2.6578600076938943"><ele>784.75</ele><time>2026-04-09T12:02:33Z</time></trkpt><trkpt lat="42.36452365353966" lon="2.657948312501071"><ele>784.5</ele><time>2026-04-09T12:02:34Z</time></trkpt><trkpt lat="42.3644262292163" lon="2.658036980231374"><ele>784.25</ele><time>2026-04-09T12:02:35Z</time></trkpt><trkpt lat="42.3643285592997" lon="2.6581173340409623"><ele>784.0</ele><time>2026-04-09T12:02:36Z</time></trkpt><trkpt lat="42.364243067855185" lon="2.658192618781285"><ele>784.0</ele><time>2026-04-09T12:02:37Z</time></trkpt><trkpt lat="42.364167538160764" lon="2.6582581230664926"><ele>784.0</ele><time>2026-04-09T12:02:38Z</time></trkpt><trkpt lat="42.36410428558819" lon="2.6583066404331874"><ele>784.0</ele><time>2026-04-09T12:02:39Z</time></trkpt><trkpt lat="42.363994787601946" lon="2.658283230763437"><ele>784.0</ele><time>2026-04-09T12:02:41Z</time></trkpt><trkpt lat="42.36397331670996" lon="2.6581476184164194"><ele>784.0</ele><time>2026-04-09T12:02:43Z</time></trkpt><trkpt lat="42.36407155130501" lon="2.6580418551104628"><ele>784.0</ele><time>2026-04-09T12:02:45Z</time></trkpt><trkpt lat="42.36414561490876" lon="2.658012276848389"><ele>784.0</ele><time>2026-04-09T12:02:46Z</time></trkpt><trkpt lat="42.36422973453336" lon="2.657969512581442"><ele>784.0</ele><time>2026-04-09T12:02:47Z</time></trkpt><trkpt lat="42.36432369967259" lon="2.65791632815974"><ele>784.0</ele><time>2026-04-09T12:02:48Z</time></trkpt><trkpt lat="42.364422863113646" lon="2.657842640547767"><ele>784.0</ele><time>2026-04-09T12:02:49Z</time></trkpt><trkpt lat="42.364502028310355" lon="2.65774671551972"><ele>784.25</ele><time>2026-04-09T12:02:50Z</time></trkpt><trkpt lat="42.364579669456546" lon="2.6576304622499136"><ele>784.5</ele><time>2026-04-09T12:02:51Z</time></trkpt><trkpt lat="42.36465101980031" lon="2.6574970396850155"><ele>784.75</ele><time>2026-04-09T12:02:52Z</time></trkpt><trkpt lat="42.36471742818756" lon="2.6573504324659867"><ele>785.0</ele><time>2026-04-09T12:02:53Z</time></trkpt><trkpt lat="42.36479863678049" lon="2.657218978340068"><ele>785.0</ele><time>2026-04-09T12:02:54Z</time></trkpt><trkpt lat="42.36489648337408" lon="2.657110042770766"><ele>785.0</ele><time>2026-04-09T12:02:55Z</time></trkpt><trkpt lat="42.365005751185215" lon="2.6570288254569894"><ele>785.0</ele><time>2026-04-09T12:02:56Z</time></trkpt><trkpt lat="42.36512204976355" lon="2.656964026702467"><ele>785.0</ele><time>2026-04-09T12:02:57Z</time></trkpt><trkpt lat="42.365235476058835" lon="2.6568805803727367"><ele>791.25</ele><time>2026-04-09T12:02:58Z</time></trkpt><trkpt lat="42.36533727891053" lon="2.6567725265485715"><ele>797.5</ele><time>2026-04-09T12:02:59Z</time></trkpt><trkpt lat="42.365423662716736" lon="2.656654944504745"><ele>803.75</ele><time>2026-04-09T12:03:00Z</time></trkpt><trkpt lat="42.36548254699833" lon="2.65652378910547"><ele>810.0</ele><time>2026-04-09T12:03:01Z</time></trkpt><trkpt lat="42.36551345361508" lon="2.656380196684555"><ele>810.0</ele><time>2026-04-09T12:03:02Z</time></trkpt><trkpt lat="42.36551612341785" lon="2.6562278922760574"><ele>810.0</ele><time>2026-04-09T12:03:03Z</time></trkpt><trkpt lat="42.36551484000308" lon="2.656078074830891"><ele>810.0</ele><time>2026-04-09T12:03:04Z</time></trkpt><trkpt lat="42.36554749807209" lon="2.6559308642737656"><ele>810.0</ele><time>2026-04-09T12:03:05Z</time></trkpt><trkpt lat="42.365603468372285" lon="2.6557914263480997"><ele>810.25</ele><time>2026-04-09T12:03:06Z</time></trkpt><trkpt lat="42.365683010082705" lon="2.655671685113168"><ele>810.5</ele><time>2026-04-09T12:03:07Z</time></trkpt><trkpt lat="42.3657702107571" lon="2.6555586342621167"><ele>810.75</ele><time>2026-04-09T12:03:08Z</time></trkpt><trkpt lat="42.36584512503641" lon="2.655423730227629"><ele>811.0</ele><time>2026-04-09T12:03:09Z</time></trkpt><trkpt lat="42.36589788892452" lon="2.6552646727527036"><ele>811.0</ele><time>2026-04-09T12:03:10Z</time></trkpt><trkpt lat="42.36594165272323" lon="2.6551013376115296"><ele>811.0</ele><time>2026-04-09T12:03:11Z</time></trkpt><trkpt lat="42.365981216013836" lon="2.654945148345456"><ele>811.0</ele><time>2026-04-09T12:03:12Z</time></trkpt><trkpt lat="42.366020534295615" lon="2.6547932436482355"><ele>811.0</ele><time>2026-04-09T12:03:13Z</time></trkpt><trkpt lat="42.366063595898446" lon="2.6546528624056207"><ele>811.0</ele><time>2026-04-09T12:03:14Z</time></trkpt><trkpt lat="42.36610550420516" lon="2.654517870444033"><ele>811.0</ele><time>2026-04-09T12:03:15Z</time></trkpt><trkpt lat="42.3661460799072" lon="2.6543810613188006"><ele>811.0</ele><time>2026-04-09T12:03:16Z</time></trkpt><trkpt lat="42.366190518894804" lon="2.6542424198108887"><ele>811.0</ele><time>2026-04-09T12:03:17Z</time></trkpt><trkpt lat="42.366235246999004" lon="2.6541045107590993"><ele>811.0</ele><time>2026-04-09T12:03:18Z</time></trkpt><trkpt lat="42.366275675910934" lon="2.6539651866586342"><ele>811.0</ele><time>2026-04-09T12:03:19Z</time></trkpt><trkpt lat="42.366308473541324" lon="2.65382643888042"><ele>811.0</ele><time>2026-04-09T12:03:20Z</time></trkpt><trkpt lat="42.36633610380806" lon="2.653686462951679"><ele>811.0</ele><time>2026-04-09T12:03:21Z</time></trkpt><trkpt lat="42.36635836180081" lon="2.6535431497029127"><ele>811.0</ele><time>2026-04-09T12:03:22Z</time></trkpt><trkpt lat="42.36637096550682" lon="2.6533988922156873"><ele>811.0</ele><time>2026-04-09T12:03:23Z</time></trkpt><trkpt lat="42.36636869688698" lon="2.653249936608358"><ele>810.1999999999999</ele><time>2026-04-09T12:03:24Z</time></trkpt><trkpt lat="42.36636071125286" lon="2.653095110752935"><ele>809.4</ele><time>2026-04-09T12:03:25Z</time></trkpt><trkpt lat="42.3663471669242" lon="2.652939434147993"><ele>808.6</ele><time>2026-04-09T12:03:26Z</time></trkpt><trkpt lat="42.36633570295968" lon="2.6527903454681283"><ele>807.8</ele><time>2026-04-09T12:03:27Z</time></trkpt><trkpt lat="42.36632872200685" lon="2.6526486551313946"><ele>807.0</ele><time>2026-04-09T12:03:28Z</time></trkpt><trkpt lat="42.366322982368786" lon="2.652514745318827"><ele>807.0000000000001</ele><time>2026-04-09T12:03:29Z</time></trkpt><trkpt lat="42.36631940047119" lon="2.652394386542263"><ele>807.0</ele><time>2026-04-09T12:03:30Z</time></trkpt><trkpt lat="42.36632428787207" lon="2.652287186181726"><ele>807.0</ele><time>2026-04-09T12:03:31Z</time></trkpt><trkpt lat="42.366333530909394" lon="2.6521953906046796"><ele>807.0</ele><time>2026-04-09T12:03:32Z</time></trkpt><trkpt lat="42.36634472831392" lon="2.6521100005773346"><ele>807.0</ele><time>2026-04-09T12:03:33Z</time></trkpt><trkpt lat="42.36635904922228" lon="2.652025568073575"><ele>807.0000000000001</ele><time>2026-04-09T12:03:34Z</time></trkpt><trkpt lat="42.36637624981463" lon="2.65194297985004"><ele>807.0</ele><time>2026-04-09T12:03:35Z</time></trkpt><trkpt lat="42.36639776799758" lon="2.651854356537743"><ele>809.1666666666666</ele><time>2026-04-09T12:03:36Z</time></trkpt><trkpt lat="42.36642153989292" lon="2.6517619383488245"><ele>811.3333333333333</ele><time>2026-04-09T12:03:37Z</time></trkpt><trkpt lat="42.366447388018166" lon="2.651665900783466"><ele>813.5</ele><time>2026-04-09T12:03:38Z</time></trkpt><trkpt lat="42.36647530143792" lon="2.651570911167748"><ele>815.6666666666666</ele><time>2026-04-09T12:03:39Z</time></trkpt><trkpt lat="42.36650353617775" lon="2.6514763108707755"><ele>817.8333333333333</ele><time>2026-04-09T12:03:40Z</time></trkpt><trkpt lat="42.36653237771293" lon="2.651380708288739"><ele>820.0</ele><time>2026-04-09T12:03:41Z</time></trkpt><trkpt lat="42.36656158824722" lon="2.6512840298074285"><ele>819.9999999999999</ele><time>2026-04-09T12:03:42Z</time></trkpt><trkpt lat="42.36658852058441" lon="2.6511864047343603"><ele>820.0</ele><time>2026-04-09T12:03:43Z</time></trkpt><trkpt lat="42.36661651703186" lon="2.651089027259772"><ele>820.0</ele><time>2026-04-09T12:03:44Z</time></trkpt><trkpt lat="42.36664423012496" lon="2.6509898403174006"><ele>820.0</ele><time>2026-04-09T12:03:45Z</time></trkpt><trkpt lat="42.366671277356716" lon="2.650890999928871"><ele>819.9999999999999</ele><time>2026-04-09T12:03:46Z</time></trkpt><trkpt lat="42.36669887317001" lon="2.650791683395369"><ele>820.0</ele><time>2026-04-09T12:03:47Z</time></trkpt><trkpt lat="42.3667273778872" lon="2.6506911645625117"><ele>820.0</ele><time>2026-04-09T12:03:48Z</time></trkpt><trkpt lat="42.366755034388845" lon="2.6505955816928823"><ele>820.0</ele><time>2026-04-09T12:03:49Z</time></trkpt><trkpt lat="42.3667793209442" lon="2.6505020480151975"><ele>820.0</ele><time>2026-04-09T12:03:50Z</time></trkpt><trkpt lat="42.36680393287786" lon="2.6504089692989865"><ele>820.0</ele><time>2026-04-09T12:03:51Z</time></trkpt><trkpt lat="42.366828458873385" lon="2.650316341788534"><ele>820.0</ele><time>2026-04-09T12:03:52Z</time></trkpt><trkpt lat="42.36685443064992" lon="2.6502240516309326"><ele>820.0</ele><time>2026-04-09T12:03:53Z</time></trkpt><trkpt lat="42.36688133603134" lon="2.650139655797555"><ele>820.0</ele><time>2026-04-09T12:03:54Z</time></trkpt><trkpt lat="42.36691064719453" lon="2.650060390463618"><ele>819.9999999999999</ele><time>2026-04-09T12:03:55Z</time></trkpt><trkpt lat="42.36694244977042" lon="2.649979540254424"><ele>820.0</ele><time>2026-04-09T12:03:56Z</time></trkpt><trkpt lat="42.36697757077769" lon="2.649903190125736"><ele>820.0</ele><time>2026-04-09T12:03:57Z</time></trkpt><trkpt lat="42.36704290041481" lon="2.649759911407986"><ele>820.0</ele><time>2026-04-09T12:03:59Z</time></trkpt><trkpt lat="42.36709621306086" lon="2.649637244118645"><ele>819.9999999999999</ele><time>2026-04-09T12:04:01Z</time></trkpt><trkpt lat="42.36713512815304" lon="2.649549680701017"><ele>820.0</ele><time>2026-04-09T12:04:04Z</time></trkpt><trkpt lat="42.36718514103371" lon="2.6494344809458017"><ele>820.2</ele><time>2026-04-09T12:04:07Z</time></trkpt><trkpt lat="42.36723070091141" lon="2.6493290536418383"><ele>820.4</ele><time>2026-04-09T12:04:09Z</time></trkpt><trkpt lat="42.36729623982907" lon="2.6491726897477643"><ele>820.5999999999999</ele><time>2026-04-09T12:04:11Z</time></trkpt><trkpt lat="42.367335424674124" lon="2.649080489350788"><ele>820.8</ele><time>2026-04-09T12:04:12Z</time></trkpt><trkpt lat="42.36738034978192" lon="2.648979746210966"><ele>821.0</ele><time>2026-04-09T12:04:13Z</time></trkpt><trkpt lat="42.36742900715213" lon="2.6488792276351"><ele>821.0000000000001</ele><time>2026-04-09T12:04:14Z</time></trkpt><trkpt lat="42.36748038744227" lon="2.6487832432763745"><ele>821.0</ele><time>2026-04-09T12:04:15Z</time></trkpt><trkpt lat="42.367532112806245" lon="2.6486944530451275"><ele>821.0</ele><time>2026-04-09T12:04:16Z</time></trkpt><trkpt lat="42.36758587058109" lon="2.6486250464037537"><ele>821.0</ele><time>2026-04-09T12:04:17Z</time></trkpt><trkpt lat="42.367637672116274" lon="2.648570175354955"><ele>821.0000000000001</ele><time>2026-04-09T12:04:18Z</time></trkpt><trkpt lat="42.36768729862842" lon="2.6485113382870504"><ele>821.0</ele><time>2026-04-09T12:04:19Z</time></trkpt><trkpt lat="42.36772778455582" lon="2.648424449249414"><ele>820.0</ele><time>2026-04-09T12:04:20Z</time></trkpt><trkpt lat="42.36776999966837" lon="2.6483230556751574"><ele>819.0</ele><time>2026-04-09T12:04:21Z</time></trkpt><trkpt lat="42.367815639853" lon="2.648211592483202"><ele>818.0</ele><time>2026-04-09T12:04:22Z</time></trkpt><trkpt lat="42.367863250126064" lon="2.648094805759016"><ele>817.0</ele><time>2026-04-09T12:04:23Z</time></trkpt><trkpt lat="42.367910475120624" lon="2.64797199310452"><ele>816.0</ele><time>2026-04-09T12:04:24Z</time></trkpt><trkpt lat="42.36795105310411" lon="2.6478407172905074"><ele>816.1999999999999</ele><time>2026-04-09T12:04:25Z</time></trkpt><trkpt lat="42.367982215174024" lon="2.647698753799149"><ele>816.4</ele><time>2026-04-09T12:04:26Z</time></trkpt><trkpt lat="42.36799948509654" lon="2.6475513643262003"><ele>816.6</ele><time>2026-04-09T12:04:27Z</time></trkpt><trkpt lat="42.36800944427994" lon="2.647401976215306"><ele>816.8</ele><time>2026-04-09T12:04:28Z</time></trkpt><trkpt lat="42.36801899751421" lon="2.647251996603719"><ele>817.0</ele><time>2026-04-09T12:04:29Z</time></trkpt><trkpt lat="42.36803220998063" lon="2.647102434339718"><ele>814.5</ele><time>2026-04-09T12:04:30Z</time></trkpt><trkpt lat="42.36805883534829" lon="2.646956404327121"><ele>812.0</ele><time>2026-04-09T12:04:31Z</time></trkpt><trkpt lat="42.36810891147675" lon="2.646816437411725"><ele>809.5</ele><time>2026-04-09T12:04:32Z</time></trkpt><trkpt lat="42.368175733062685" lon="2.646683373802861"><ele>807.0</ele><time>2026-04-09T12:04:33Z</time></trkpt><trkpt lat="42.368253679720226" lon="2.6465545910685835"><ele>807.0</ele><time>2026-04-09T12:04:34Z</time></trkpt><trkpt lat="42.36833167594404" lon="2.646423355214875"><ele>807.0</ele><time>2026-04-09T12:04:35Z</time></trkpt><trkpt lat="42.36841013499411" lon="2.6462926323466487"><ele>807.0</ele><time>2026-04-09T12:04:36Z</time></trkpt><trkpt lat="42.36848200823788" lon="2.646158351611872"><ele>807.0</ele><time>2026-04-09T12:04:37Z</time></trkpt><trkpt lat="42.36853897179841" lon="2.6460169189663842"><ele>804.5</ele><time>2026-04-09T12:04:38Z</time></trkpt><trkpt lat="42.368578353794824" lon="2.645868424054015"><ele>802.0</ele><time>2026-04-09T12:04:39Z</time></trkpt><trkpt lat="42.36860182445642" lon="2.645714301138811"><ele>799.5</ele><time>2026-04-09T12:04:40Z</time></trkpt><trkpt lat="42.36861495984932" lon="2.645561857875173"><ele>797.0</ele><time>2026-04-09T12:04:41Z</time></trkpt><trkpt lat="42.368622893920715" lon="2.6454144618680684"><ele>795.5</ele><time>2026-04-09T12:04:42Z</time></trkpt><trkpt lat="42.36863790845351" lon="2.645267853726915"><ele>794.0</ele><time>2026-04-09T12:04:43Z</time></trkpt><trkpt lat="42.36867010543432" lon="2.645121025137431"><ele>792.5</ele><time>2026-04-09T12:04:44Z</time></trkpt><trkpt lat="42.3687123897492" lon="2.644973732873107"><ele>791.0</ele><time>2026-04-09T12:04:45Z</time></trkpt><trkpt lat="42.36874802236908" lon="2.644820564399349"><ele>791.0</ele><time>2026-04-09T12:04:46Z</time></trkpt><trkpt lat="42.36877770353234" lon="2.644661949718703"><ele>791.0</ele><time>2026-04-09T12:04:47Z</time></trkpt><trkpt lat="42.368790655161924" lon="2.6444958760543256"><ele>791.0</ele><time>2026-04-09T12:04:48Z</time></trkpt><trkpt lat="42.36877963421026" lon="2.6443245751991156"><ele>791.0</ele><time>2026-04-09T12:04:49Z</time></trkpt><trkpt lat="42.36875255183148" lon="2.6441541464525358"><ele>789.25</ele><time>2026-04-09T12:04:50Z</time></trkpt><trkpt lat="42.36872209594243" lon="2.643989974665928"><ele>787.5</ele><time>2026-04-09T12:04:51Z</time></trkpt><trkpt lat="42.368692993386865" lon="2.6438302612390383"><ele>785.75</ele><time>2026-04-09T12:04:52Z</time></trkpt><trkpt lat="42.36868339197831" lon="2.643675970180375"><ele>784.0</ele><time>2026-04-09T12:04:53Z</time></trkpt><trkpt lat="42.36870765495723" lon="2.6435106888060385"><ele>782.0</ele><time>2026-04-09T12:04:54Z</time></trkpt><trkpt lat="42.36875357076954" lon="2.643361373299485"><ele>780.0</ele><time>2026-04-09T12:04:55Z</time></trkpt><trkpt lat="42.36880575689825" lon="2.643202567177446"><ele>778.0</ele><time>2026-04-09T12:04:56Z</time></trkpt><trkpt lat="42.36886298323538" lon="2.643045252824496"><ele>776.0</ele><time>2026-04-09T12:04:57Z</time></trkpt><trkpt lat="42.368916085958375" lon="2.642893655837986"><ele>777.1999999999999</ele><time>2026-04-09T12:04:58Z</time></trkpt><trkpt lat="42.368964885917244" lon="2.642764338844214"><ele>778.4</ele><time>2026-04-09T12:04:59Z</time></trkpt><trkpt lat="42.36902565182964" lon="2.6426517621834047"><ele>779.6</ele><time>2026-04-09T12:05:00Z</time></trkpt><trkpt lat="42.369121659605" lon="2.6425690402887883"><ele>780.8</ele><time>2026-04-09T12:05:01Z</time></trkpt><trkpt lat="42.36922486394034" lon="2.642506434707753"><ele>782.0</ele><time>2026-04-09T12:05:02Z</time></trkpt><trkpt lat="42.36932649959443" lon="2.642446073177909"><ele>782.0000000000001</ele><time>2026-04-09T12:05:03Z</time></trkpt><trkpt lat="42.369414637211904" lon="2.6423973386708375"><ele>782.0</ele><time>2026-04-09T12:05:04Z</time></trkpt><trkpt lat="42.369489959847826" lon="2.642342073591089"><ele>782.0</ele><time>2026-04-09T12:05:05Z</time></trkpt><trkpt lat="42.36954789084973" lon="2.642278708466"><ele>782.0</ele><time>2026-04-09T12:05:06Z</time></trkpt><trkpt lat="42.36957957249949" lon="2.642199158247502"><ele>782.0000000000001</ele><time>2026-04-09T12:05:07Z</time></trkpt><trkpt lat="42.36958705765065" lon="2.642113565341169"><ele>782.0</ele><time>2026-04-09T12:05:08Z</time></trkpt><trkpt lat="42.369573149674686" lon="2.642027216414784"><ele>780.6</ele><time>2026-04-09T12:05:09Z</time></trkpt><trkpt lat="42.369502529116005" lon="2.6418741736291462"><ele>779.2</ele><time>2026-04-09T12:05:11Z</time></trkpt><trkpt lat="42.369431629972325" lon="2.641827054242438"><ele>777.8</ele><time>2026-04-09T12:05:12Z</time></trkpt><trkpt lat="42.369347450010785" lon="2.6417929247590526"><ele>776.4</ele><time>2026-04-09T12:05:13Z</time></trkpt><trkpt lat="42.36926732973233" lon="2.6417594668928817"><ele>775.0</ele><time>2026-04-09T12:05:14Z</time></trkpt><trkpt lat="42.36919035468473" lon="2.641710205498891"><ele>775.0</ele><time>2026-04-09T12:05:15Z</time></trkpt><trkpt lat="42.3691253353057" lon="2.641616808549522"><ele>775.0</ele><time>2026-04-09T12:05:16Z</time></trkpt><trkpt lat="42.36906915468293" lon="2.6414911076653764"><ele>775.0</ele><time>2026-04-09T12:05:17Z</time></trkpt><trkpt lat="42.36901047355954" lon="2.641370345468325"><ele>775.0</ele><time>2026-04-09T12:05:18Z</time></trkpt><trkpt lat="42.36894759919981" lon="2.641250622172655"><ele>775.0</ele><time>2026-04-09T12:05:19Z</time></trkpt><trkpt lat="42.36888516788459" lon="2.6411286726079775"><ele>772.0</ele><time>2026-04-09T12:05:20Z</time></trkpt><trkpt lat="42.36883049061271" lon="2.6409971721007937"><ele>769.0</ele><time>2026-04-09T12:05:21Z</time></trkpt><trkpt lat="42.36878369653309" lon="2.6408582778164145"><ele>766.0</ele><time>2026-04-09T12:05:22Z</time></trkpt><trkpt lat="42.36873314675971" lon="2.640722078572084"><ele>763.0</ele><time>2026-04-09T12:05:23Z</time></trkpt><trkpt lat="42.3686844442911" lon="2.6405802803388636"><ele>763.0</ele><time>2026-04-09T12:05:24Z</time></trkpt><trkpt lat="42.36863432515473" lon="2.6404399423441256"><ele>763.0</ele><time>2026-04-09T12:05:25Z</time></trkpt><trkpt lat="42.36858901874502" lon="2.6403114449270353"><ele>763.0</ele><time>2026-04-09T12:05:26Z</time></trkpt><trkpt lat="42.36857437223255" lon="2.640182694742007"><ele>763.0</ele><time>2026-04-09T12:05:27Z</time></trkpt><trkpt lat="42.368586964230445" lon="2.64004562944106"><ele>763.0</ele><time>2026-04-09T12:05:28Z</time></trkpt><trkpt lat="42.36862694633809" lon="2.6399099200757936"><ele>762.75</ele><time>2026-04-09T12:05:29Z</time></trkpt><trkpt lat="42.36866102976481" lon="2.639762675588987"><ele>762.5</ele><time>2026-04-09T12:05:30Z</time></trkpt><trkpt lat="42.36868383555522" lon="2.639608738696537"><ele>762.25</ele><time>2026-04-09T12:05:31Z</time></trkpt><trkpt lat="42.36868734263836" lon="2.63944834812433"><ele>762.0</ele><time>2026-04-09T12:05:32Z</time></trkpt><trkpt lat="42.368687793015205" lon="2.6392843484180797"><ele>761.0</ele><time>2026-04-09T12:05:33Z</time></trkpt><trkpt lat="42.36868388882992" lon="2.6391192339852987"><ele>760.0</ele><time>2026-04-09T12:05:34Z</time></trkpt><trkpt lat="42.36866547048741" lon="2.6389558721133324"><ele>759.0</ele><time>2026-04-09T12:05:35Z</time></trkpt><trkpt lat="42.368633184328786" lon="2.6387939804408345"><ele>758.0</ele><time>2026-04-09T12:05:36Z</time></trkpt><trkpt lat="42.36858290173744" lon="2.638637134165315"><ele>757.75</ele><time>2026-04-09T12:05:37Z</time></trkpt><trkpt lat="42.36854125006228" lon="2.6384781984665144"><ele>757.5</ele><time>2026-04-09T12:05:38Z</time></trkpt><trkpt lat="42.368500090250414" lon="2.6383147616804936"><ele>757.25</ele><time>2026-04-09T12:05:39Z</time></trkpt><trkpt lat="42.36846901118385" lon="2.6381439217447364"><ele>757.0</ele><time>2026-04-09T12:05:40Z</time></trkpt><trkpt lat="42.3684560416392" lon="2.637967511124238"><ele>756.25</ele><time>2026-04-09T12:05:41Z</time></trkpt><trkpt lat="42.368443391562806" lon="2.637790501604221"><ele>755.5</ele><time>2026-04-09T12:05:42Z</time></trkpt><trkpt lat="42.36843166365807" lon="2.6376067132388967"><ele>754.75</ele><time>2026-04-09T12:05:43Z</time></trkpt><trkpt lat="42.36842030698136" lon="2.6374377811809384"><ele>754.0</ele><time>2026-04-09T12:05:44Z</time></trkpt><trkpt lat="42.36840229914751" lon="2.637283526858318"><ele>754.0</ele><time>2026-04-09T12:05:45Z</time></trkpt><trkpt lat="42.36837551293908" lon="2.6371401734699553"><ele>754.0</ele><time>2026-04-09T12:05:46Z</time></trkpt><trkpt lat="42.36835214165922" lon="2.6370024684505355"><ele>754.0</ele><time>2026-04-09T12:05:47Z</time></trkpt><trkpt lat="42.368349069114956" lon="2.636877635699839"><ele>754.0</ele><time>2026-04-09T12:05:48Z</time></trkpt><trkpt lat="42.368386627830816" lon="2.636748236962212"><ele>754.0</ele><time>2026-04-09T12:05:49Z</time></trkpt><trkpt lat="42.368465161729716" lon="2.6366417519340573"><ele>753.4000000000001</ele><time>2026-04-09T12:05:50Z</time></trkpt><trkpt lat="42.36853724637972" lon="2.63653980137133"><ele>752.8</ele><time>2026-04-09T12:05:51Z</time></trkpt><trkpt lat="42.36858661985758" lon="2.6364193100285918"><ele>752.2</ele><time>2026-04-09T12:05:52Z</time></trkpt><trkpt lat="42.36860847214001" lon="2.6362780694881165"><ele>751.5999999999999</ele><time>2026-04-09T12:05:53Z</time></trkpt><trkpt lat="42.3686065046995" lon="2.63612193089862"><ele>751.0</ele><time>2026-04-09T12:05:54Z</time></trkpt><trkpt lat="42.368607121097384" lon="2.6359560998624687"><ele>749.5</ele><time>2026-04-09T12:05:55Z</time></trkpt><trkpt lat="42.368607708351895" lon="2.6357870263230727"><ele>748.0</ele><time>2026-04-09T12:05:56Z</time></trkpt><trkpt lat="42.36860651657604" lon="2.6356130691479187"><ele>746.5</ele><time>2026-04-09T12:05:57Z</time></trkpt><trkpt lat="42.368598914971415" lon="2.6354396837178244"><ele>745.0</ele><time>2026-04-09T12:05:58Z</time></trkpt><trkpt lat="42.36858102000974" lon="2.6352700383333802"><ele>743.5</ele><time>2026-04-09T12:05:59Z</time></trkpt><trkpt lat="42.36857052038154" lon="2.6350927590637006"><ele>742.0</ele><time>2026-04-09T12:06:00Z</time></trkpt><trkpt lat="42.368583018883434" lon="2.6349155832262574"><ele>740.5</ele><time>2026-04-09T12:06:01Z</time></trkpt><trkpt lat="42.36861106134198" lon="2.6347394753976943"><ele>739.0</ele><time>2026-04-09T12:06:02Z</time></trkpt><trkpt lat="42.36865875104619" lon="2.6345689039719815"><ele>738.25</ele><time>2026-04-09T12:06:03Z</time></trkpt><trkpt lat="42.36870747133256" lon="2.6344013870082468"><ele>737.5</ele><time>2026-04-09T12:06:04Z</time></trkpt><trkpt lat="42.36873213309977" lon="2.634223558092204"><ele>736.75</ele><time>2026-04-09T12:06:05Z</time></trkpt><trkpt lat="42.36875108555211" lon="2.634045497923139"><ele>736.0</ele><time>2026-04-09T12:06:06Z</time></trkpt><trkpt lat="42.36879404666368" lon="2.6338701450769118"><ele>736.0</ele><time>2026-04-09T12:06:07Z</time></trkpt><trkpt lat="42.36883211410554" lon="2.633691289828129"><ele>736.0</ele><time>2026-04-09T12:06:08Z</time></trkpt><trkpt lat="42.36885123342723" lon="2.6335060105531305"><ele>736.0</ele><time>2026-04-09T12:06:09Z</time></trkpt><trkpt lat="42.36884881216995" lon="2.6333165549296127"><ele>736.0</ele><time>2026-04-09T12:06:10Z</time></trkpt><trkpt lat="42.36885194436181" lon="2.633125698194768"><ele>738.75</ele><time>2026-04-09T12:06:11Z</time></trkpt><trkpt lat="42.36886767003274" lon="2.6329385243559966"><ele>741.5</ele><time>2026-04-09T12:06:12Z</time></trkpt><trkpt lat="42.36889667780291" lon="2.632748384494728"><ele>744.25</ele><time>2026-04-09T12:06:13Z</time></trkpt><trkpt lat="42.36892422305525" lon="2.6325569552033214"><ele>747.0</ele><time>2026-04-09T12:06:14Z</time></trkpt><trkpt lat="42.368950277761975" lon="2.632363556893268"><ele>747.0</ele><time>2026-04-09T12:06:15Z</time></trkpt><trkpt lat="42.36897127224823" lon="2.632164095324862"><ele>747.0</ele><time>2026-04-09T12:06:16Z</time></trkpt><trkpt lat="42.368993718129815" lon="2.6319670592429594"><ele>747.0</ele><time>2026-04-09T12:06:17Z</time></trkpt><trkpt lat="42.36901493958859" lon="2.631769409898023"><ele>747.0</ele><time>2026-04-09T12:06:18Z</time></trkpt><trkpt lat="42.3690358915204" lon="2.631570093767249"><ele>743.6666666666666</ele><time>2026-04-09T12:06:19Z</time></trkpt><trkpt lat="42.369039143527964" lon="2.631366285512974"><ele>740.3333333333333</ele><time>2026-04-09T12:06:20Z</time></trkpt><trkpt lat="42.369035929358986" lon="2.631163275140865"><ele>737.0</ele><time>2026-04-09T12:06:21Z</time></trkpt><trkpt lat="42.36902876561768" lon="2.6309591049234116"><ele>735.6666666666666</ele><time>2026-04-09T12:06:22Z</time></trkpt><trkpt lat="42.36901626274378" lon="2.630758341644388"><ele>734.3333333333334</ele><time>2026-04-09T12:06:23Z</time></trkpt><trkpt lat="42.368996807820764" lon="2.6305527951976573"><ele>733.0</ele><time>2026-04-09T12:06:24Z</time></trkpt><trkpt lat="42.368977264366976" lon="2.6303430719471534"><ele>733.0</ele><time>2026-04-09T12:06:25Z</time></trkpt><trkpt lat="42.36897044068263" lon="2.6301322365393602"><ele>733.0</ele><time>2026-04-09T12:06:26Z</time></trkpt><trkpt lat="42.368985381614216" lon="2.629921579954443"><ele>733.0</ele><time>2026-04-09T12:06:27Z</time></trkpt><trkpt lat="42.3690147047859" lon="2.629713364243356"><ele>733.0</ele><time>2026-04-09T12:06:28Z</time></trkpt><trkpt lat="42.36905285079207" lon="2.629504023473079"><ele>733.0</ele><time>2026-04-09T12:06:29Z</time></trkpt><trkpt lat="42.36908025788774" lon="2.6292938795433267"><ele>733.0</ele><time>2026-04-09T12:06:30Z</time></trkpt><trkpt lat="42.36910246291957" lon="2.6290833743274327"><ele>731.75</ele><time>2026-04-09T12:06:31Z</time></trkpt><trkpt lat="42.36912319367508" lon="2.6288786446110235"><ele>730.5</ele><time>2026-04-09T12:06:32Z</time></trkpt><trkpt lat="42.36914315090582" lon="2.6286923472138586"><ele>729.25</ele><time>2026-04-09T12:06:33Z</time></trkpt><trkpt lat="42.36916597382656" lon="2.628521897149977"><ele>728.0</ele><time>2026-04-09T12:06:34Z</time></trkpt><trkpt lat="42.36917874180561" lon="2.6283485543208913"><ele>727.0</ele><time>2026-04-09T12:06:35Z</time></trkpt><trkpt lat="42.36916813185494" lon="2.628170163749196"><ele>726.0</ele><time>2026-04-09T12:06:36Z</time></trkpt><trkpt lat="42.36914250449616" lon="2.627985894956258"><ele>725.0</ele><time>2026-04-09T12:06:37Z</time></trkpt><trkpt lat="42.369114746366414" lon="2.6277926398606644"><ele>724.0</ele><time>2026-04-09T12:06:38Z</time></trkpt><trkpt lat="42.369093109749194" lon="2.627595149916895"><ele>723.5</ele><time>2026-04-09T12:06:39Z</time></trkpt><trkpt lat="42.369067249689984" lon="2.627398768342452"><ele>723.0</ele><time>2026-04-09T12:06:40Z</time></trkpt><trkpt lat="42.36904017382241" lon="2.627197873686926"><ele>722.5</ele><time>2026-04-09T12:06:41Z</time></trkpt><trkpt lat="42.36901411939982" lon="2.627000201873272"><ele>722.0</ele><time>2026-04-09T12:06:42Z</time></trkpt><trkpt lat="42.368991628801105" lon="2.6268073373279606"><ele>721.25</ele><time>2026-04-09T12:06:43Z</time></trkpt><trkpt lat="42.36897658677366" lon="2.6266119490956985"><ele>720.5</ele><time>2026-04-09T12:06:44Z</time></trkpt><trkpt lat="42.36898156427798" lon="2.6264140998888315"><ele>719.75</ele><time>2026-04-09T12:06:45Z</time></trkpt><trkpt lat="42.36901134132819" lon="2.6262192225304384"><ele>719.0</ele><time>2026-04-09T12:06:46Z</time></trkpt><trkpt lat="42.36904854736026" lon="2.62602427808827"><ele>717.75</ele><time>2026-04-09T12:06:47Z</time></trkpt><trkpt lat="42.369087229530294" lon="2.6258299703122114"><ele>716.5</ele><time>2026-04-09T12:06:48Z</time></trkpt><trkpt lat="42.36913816800138" lon="2.6256397036972716"><ele>715.25</ele><time>2026-04-09T12:06:49Z</time></trkpt><trkpt lat="42.369206818210245" lon="2.6254587622221464"><ele>714.0</ele><time>2026-04-09T12:06:50Z</time></trkpt><trkpt lat="42.3692918476962" lon="2.6252865946920116"><ele>711.0</ele><time>2026-04-09T12:06:51Z</time></trkpt><trkpt lat="42.369376115182305" lon="2.6251172856260068"><ele>708.0</ele><time>2026-04-09T12:06:52Z</time></trkpt><trkpt lat="42.36945825772644" lon="2.624945325942868"><ele>705.0</ele><time>2026-04-09T12:06:53Z</time></trkpt><trkpt lat="42.36953943614345" lon="2.6247737858412092"><ele>705.0</ele><time>2026-04-09T12:06:54Z</time></trkpt><trkpt lat="42.36962088151742" lon="2.624601778742967"><ele>705.0</ele><time>2026-04-09T12:06:55Z</time></trkpt><trkpt lat="42.36970103617552" lon="2.624431558216713"><ele>705.0</ele><time>2026-04-09T12:06:56Z</time></trkpt><trkpt lat="42.36978249683487" lon="2.624262895048916"><ele>705.0</ele><time>2026-04-09T12:06:57Z</time></trkpt><trkpt lat="42.36986342164083" lon="2.624094156129017"><ele>704.5</ele><time>2026-04-09T12:06:58Z</time></trkpt><trkpt lat="42.36994208364527" lon="2.623924207096567"><ele>704.0</ele><time>2026-04-09T12:06:59Z</time></trkpt><trkpt lat="42.37002077813753" lon="2.623755293009571"><ele>703.5</ele><time>2026-04-09T12:07:00Z</time></trkpt><trkpt lat="42.37009815384399" lon="2.623594736091021"><ele>703.0</ele><time>2026-04-09T12:07:01Z</time></trkpt><trkpt lat="42.370162816487124" lon="2.6234548518597753"><ele>703.0</ele><time>2026-04-09T12:07:02Z</time></trkpt><trkpt lat="42.37022092375447" lon="2.6233409871101685"><ele>703.0</ele><time>2026-04-09T12:07:03Z</time></trkpt><trkpt lat="42.37029506836755" lon="2.623247112146352"><ele>703.0</ele><time>2026-04-09T12:07:04Z</time></trkpt><trkpt lat="42.37038432648032" lon="2.6231836986146404"><ele>703.0</ele><time>2026-04-09T12:07:05Z</time></trkpt><trkpt lat="42.37048775099464" lon="2.623159794581966"><ele>703.0</ele><time>2026-04-09T12:07:06Z</time></trkpt><trkpt lat="42.370601437273166" lon="2.623182544215733"><ele>703.0</ele><time>2026-04-09T12:07:07Z</time></trkpt><trkpt lat="42.37071902302482" lon="2.6232224014040817"><ele>703.0</ele><time>2026-04-09T12:07:08Z</time></trkpt><trkpt lat="42.370841255611154" lon="2.6232978598028334"><ele>703.0</ele><time>2026-04-09T12:07:09Z</time></trkpt><trkpt lat="42.37096405964616" lon="2.623365671576467"><ele>703.0</ele><time>2026-04-09T12:07:10Z</time></trkpt><trkpt lat="42.371086288610506" lon="2.623431607063442"><ele>703.0</ele><time>2026-04-09T12:07:11Z</time></trkpt><trkpt lat="42.37120721790852" lon="2.6234908950587092"><ele>703.0</ele><time>2026-04-09T12:07:12Z</time></trkpt><trkpt lat="42.37133098154978" lon="2.6235217594071587"><ele>703.0</ele><time>2026-04-09T12:07:13Z</time></trkpt><trkpt lat="42.371457396284754" lon="2.6235171664869785"><ele>703.0</ele><time>2026-04-09T12:07:14Z</time></trkpt><trkpt lat="42.37158044067451" lon="2.623487689942574"><ele>702.75</ele><time>2026-04-09T12:07:15Z</time></trkpt><trkpt lat="42.37169243806538" lon="2.6234123949331245"><ele>702.5</ele><time>2026-04-09T12:07:16Z</time></trkpt><trkpt lat="42.37179200263645" lon="2.623313995890309"><ele>702.25</ele><time>2026-04-09T12:07:17Z</time></trkpt><trkpt lat="42.37188969282391" lon="2.62321825791448"><ele>702.0</ele><time>2026-04-09T12:07:18Z</time></trkpt><trkpt lat="42.371991398272215" lon="2.623126948771676"><ele>702.0</ele><time>2026-04-09T12:07:19Z</time></trkpt><trkpt lat="42.37209900738764" lon="2.6230481253607434"><ele>702.0</ele><time>2026-04-09T12:07:20Z</time></trkpt><trkpt lat="42.372206126750726" lon="2.622973179153251"><ele>702.0</ele><time>2026-04-09T12:07:21Z</time></trkpt><trkpt lat="42.372304434629235" lon="2.622885761980112"><ele>702.0</ele><time>2026-04-09T12:07:22Z</time></trkpt><trkpt lat="42.37239649847043" lon="2.6227863368068354"><ele>700.5</ele><time>2026-04-09T12:07:23Z</time></trkpt><trkpt lat="42.372491084796145" lon="2.6226832296200664"><ele>699.0</ele><time>2026-04-09T12:07:24Z</time></trkpt><trkpt lat="42.37259481700996" lon="2.6226091286290836"><ele>697.5</ele><time>2026-04-09T12:07:25Z</time></trkpt><trkpt lat="42.37270431535659" lon="2.622558624041175"><ele>696.0</ele><time>2026-04-09T12:07:26Z</time></trkpt><trkpt lat="42.37282303745164" lon="2.622567571290286"><ele>696.0</ele><time>2026-04-09T12:07:27Z</time></trkpt><trkpt lat="42.37293234603071" lon="2.622607845816109"><ele>696.0</ele><time>2026-04-09T12:07:28Z</time></trkpt><trkpt lat="42.37304205284679" lon="2.6226748177729267"><ele>696.0</ele><time>2026-04-09T12:07:29Z</time></trkpt><trkpt lat="42.37315225576085" lon="2.622770175417744"><ele>696.0</ele><time>2026-04-09T12:07:30Z</time></trkpt><trkpt lat="42.37326483864324" lon="2.6228443223344304"><ele>697.25</ele><time>2026-04-09T12:07:31Z</time></trkpt><trkpt lat="42.373380223617474" lon="2.622888377444749"><ele>698.5</ele><time>2026-04-09T12:07:32Z</time></trkpt><trkpt lat="42.37350721591188" lon="2.6229061543374326"><ele>699.75</ele><time>2026-04-09T12:07:33Z</time></trkpt><trkpt lat="42.37362595652397" lon="2.6229068509693314"><ele>701.0</ele><time>2026-04-09T12:07:34Z</time></trkpt><trkpt lat="42.3737403461725" lon="2.6228947600705874"><ele>701.0</ele><time>2026-04-09T12:07:35Z</time></trkpt><trkpt lat="42.37385380925641" lon="2.6228746746654292"><ele>701.0</ele><time>2026-04-09T12:07:36Z</time></trkpt><trkpt lat="42.37395883997668" lon="2.6228014692767823"><ele>701.0</ele><time>2026-04-09T12:07:37Z</time></trkpt><trkpt lat="42.37404982781192" lon="2.6226881957854897"><ele>701.0</ele><time>2026-04-09T12:07:38Z</time></trkpt><trkpt lat="42.37413795852456" lon="2.6225613344139527"><ele>698.0</ele><time>2026-04-09T12:07:39Z</time></trkpt><trkpt lat="42.374236187020514" lon="2.6224314741887302"><ele>695.0</ele><time>2026-04-09T12:07:40Z</time></trkpt><trkpt lat="42.37433004463465" lon="2.622289973993684"><ele>692.0</ele><time>2026-04-09T12:07:41Z</time></trkpt><trkpt lat="42.374419169103426" lon="2.622140398639307"><ele>689.0</ele><time>2026-04-09T12:07:42Z</time></trkpt><trkpt lat="42.374508621656965" lon="2.6219956355991854"><ele>689.75</ele><time>2026-04-09T12:07:43Z</time></trkpt><trkpt lat="42.374596707060526" lon="2.62184886062602"><ele>690.5</ele><time>2026-04-09T12:07:44Z</time></trkpt><trkpt lat="42.37465963380313" lon="2.6216819528370685"><ele>691.25</ele><time>2026-04-09T12:07:45Z</time></trkpt><trkpt lat="42.37471885196649" lon="2.6215129865130646"><ele>692.0</ele><time>2026-04-09T12:07:46Z</time></trkpt><trkpt lat="42.37477586764355" lon="2.621345775272524"><ele>693.5</ele><time>2026-04-09T12:07:47Z</time></trkpt><trkpt lat="42.374831874951845" lon="2.621176799967255"><ele>695.0</ele><time>2026-04-09T12:07:48Z</time></trkpt><trkpt lat="42.374882977549674" lon="2.6210055252699513"><ele>696.5</ele><time>2026-04-09T12:07:49Z</time></trkpt><trkpt lat="42.37493504017237" lon="2.620837758031305"><ele>698.0</ele><time>2026-04-09T12:07:50Z</time></trkpt><trkpt lat="42.37498222566167" lon="2.6206816936189425"><ele>695.4</ele><time>2026-04-09T12:07:51Z</time></trkpt><trkpt lat="42.375024647404224" lon="2.62053937293735"><ele>692.8</ele><time>2026-04-09T12:07:52Z</time></trkpt><trkpt lat="42.375067171187524" lon="2.6204050689423535"><ele>690.2</ele><time>2026-04-09T12:07:53Z</time></trkpt><trkpt lat="42.375124544963626" lon="2.620287536835704"><ele>687.6</ele><time>2026-04-09T12:07:54Z</time></trkpt><trkpt lat="42.37521668227542" lon="2.620215826954821"><ele>685.0</ele><time>2026-04-09T12:07:55Z</time></trkpt><trkpt lat="42.37532605273688" lon="2.6201944712807212"><ele>683.8</ele><time>2026-04-09T12:07:56Z</time></trkpt><trkpt lat="42.375432610025655" lon="2.620204236677451"><ele>682.6</ele><time>2026-04-09T12:07:57Z</time></trkpt><trkpt lat="42.37554312728081" lon="2.620199457060837"><ele>681.4000000000001</ele><time>2026-04-09T12:07:58Z</time></trkpt><trkpt lat="42.3756529310846" lon="2.620150350650359"><ele>680.2</ele><time>2026-04-09T12:07:59Z</time></trkpt><trkpt lat="42.37575411090489" lon="2.6200723506893913"><ele>679.0</ele><time>2026-04-09T12:08:00Z</time></trkpt><trkpt lat="42.3758542487854" lon="2.6199786506846614"><ele>679.0</ele><time>2026-04-09T12:08:01Z</time></trkpt><trkpt lat="42.37596764812137" lon="2.6198895992946736"><ele>679.0</ele><time>2026-04-09T12:08:02Z</time></trkpt><trkpt lat="42.37607397800152" lon="2.6198197219472874"><ele>679.0</ele><time>2026-04-09T12:08:03Z</time></trkpt><trkpt lat="42.37619394813979" lon="2.6197756911926495"><ele>679.0</ele><time>2026-04-09T12:08:04Z</time></trkpt><trkpt lat="42.37632022603856" lon="2.619767219081001"><ele>678.25</ele><time>2026-04-09T12:08:05Z</time></trkpt><trkpt lat="42.37644711844611" lon="2.619781905360098"><ele>677.5</ele><time>2026-04-09T12:08:06Z</time></trkpt><trkpt lat="42.37656614008011" lon="2.619780825475006"><ele>676.75</ele><time>2026-04-09T12:08:07Z</time></trkpt><trkpt lat="42.376689452517795" lon="2.6197693808828673"><ele>676.0</ele><time>2026-04-09T12:08:08Z</time></trkpt><trkpt lat="42.376808885228876" lon="2.6197421460486763"><ele>676.0</ele><time>2026-04-09T12:08:09Z</time></trkpt><trkpt lat="42.37693281044915" lon="2.6197113829053995"><ele>676.0</ele><time>2026-04-09T12:08:10Z</time></trkpt><trkpt lat="42.377054919753796" lon="2.619675506309615"><ele>676.0</ele><time>2026-04-09T12:08:11Z</time></trkpt><trkpt lat="42.37717757551305" lon="2.619636230269739"><ele>676.0</ele><time>2026-04-09T12:08:12Z</time></trkpt><trkpt lat="42.37729702708044" lon="2.619602475552786"><ele>674.0</ele><time>2026-04-09T12:08:13Z</time></trkpt><trkpt lat="42.37741456370197" lon="2.6195658282264023"><ele>672.0</ele><time>2026-04-09T12:08:14Z</time></trkpt><trkpt lat="42.37753455349658" lon="2.619550701747072"><ele>670.0</ele><time>2026-04-09T12:08:15Z</time></trkpt><trkpt lat="42.3776527317454" lon="2.6195735756121223"><ele>668.0</ele><time>2026-04-09T12:08:16Z</time></trkpt><trkpt lat="42.37776665976251" lon="2.619603436694369"><ele>668.0</ele><time>2026-04-09T12:08:17Z</time></trkpt><trkpt lat="42.37788168130956" lon="2.6196122900422782"><ele>668.0</ele><time>2026-04-09T12:08:18Z</time></trkpt><trkpt lat="42.37799597169787" lon="2.619609713599831"><ele>668.0</ele><time>2026-04-09T12:08:19Z</time></trkpt><trkpt lat="42.37810894916998" lon="2.619585385694383"><ele>668.0</ele><time>2026-04-09T12:08:20Z</time></trkpt><trkpt lat="42.37821618896631" lon="2.6195474797242624"><ele>667.2</ele><time>2026-04-09T12:08:21Z</time></trkpt><trkpt lat="42.378323301240485" lon="2.619507674577642"><ele>666.4</ele><time>2026-04-09T12:08:22Z</time></trkpt><trkpt lat="42.378430778487264" lon="2.619466725820991"><ele>665.6</ele><time>2026-04-09T12:08:23Z</time></trkpt><trkpt lat="42.37853596772577" lon="2.619428291678813"><ele>664.8000000000001</ele><time>2026-04-09T12:08:24Z</time></trkpt><trkpt lat="42.37864110340012" lon="2.619389794556357"><ele>664.0</ele><time>2026-04-09T12:08:25Z</time></trkpt><trkpt lat="42.37874197196532" lon="2.6193484536286107"><ele>664.8000000000001</ele><time>2026-04-09T12:08:26Z</time></trkpt><trkpt lat="42.37884393042123" lon="2.6193097937607708"><ele>665.6</ele><time>2026-04-09T12:08:27Z</time></trkpt><trkpt lat="42.37894242796112" lon="2.6192643444399506"><ele>666.4</ele><time>2026-04-09T12:08:28Z</time></trkpt><trkpt lat="42.37903950947209" lon="2.619215090290236"><ele>667.2</ele><time>2026-04-09T12:08:29Z</time></trkpt><trkpt lat="42.379132407179384" lon="2.619158893364361"><ele>668.0</ele><time>2026-04-09T12:08:30Z</time></trkpt><trkpt lat="42.379218629706266" lon="2.6190820288580845"><ele>668.0</ele><time>2026-04-09T12:08:31Z</time></trkpt><trkpt lat="42.37929082300053" lon="2.6189890874717734"><ele>668.0</ele><time>2026-04-09T12:08:32Z</time></trkpt><trkpt lat="42.37935606611599" lon="2.618885500032459"><ele>668.0</ele><time>2026-04-09T12:08:33Z</time></trkpt><trkpt lat="42.37941329602951" lon="2.6187733797710906"><ele>668.0</ele><time>2026-04-09T12:08:34Z</time></trkpt><trkpt lat="42.379474125099364" lon="2.6186671557100016"><ele>668.0</ele><time>2026-04-09T12:08:35Z</time></trkpt><trkpt lat="42.379536282773785" lon="2.6185620873390874"><ele>667.1666666666666</ele><time>2026-04-09T12:08:36Z</time></trkpt><trkpt lat="42.37959248283224" lon="2.618466948116843"><ele>666.3333333333333</ele><time>2026-04-09T12:08:37Z</time></trkpt><trkpt lat="42.37964173030129" lon="2.6183871806268333"><ele>665.5</ele><time>2026-04-09T12:08:38Z</time></trkpt><trkpt lat="42.37970995709453" lon="2.6183315557213267"><ele>664.6666666666666</ele><time>2026-04-09T12:08:39Z</time></trkpt><trkpt lat="42.3797826744827" lon="2.618311059488804"><ele>663.8333333333334</ele><time>2026-04-09T12:08:40Z</time></trkpt><trkpt lat="42.37986531155828" lon="2.6183212760630616"><ele>663.0</ele><time>2026-04-09T12:08:41Z</time></trkpt><trkpt lat="42.37995474169791" lon="2.6183289092418636"><ele>663.0</ele><time>2026-04-09T12:08:42Z</time></trkpt><trkpt lat="42.38004240154674" lon="2.618328097931352"><ele>663.0</ele><time>2026-04-09T12:08:43Z</time></trkpt><trkpt lat="42.38012822046658" lon="2.6183076569484434"><ele>663.0</ele><time>2026-04-09T12:08:44Z</time></trkpt><trkpt lat="42.3802069500974" lon="2.6182705794132057"><ele>663.0</ele><time>2026-04-09T12:08:45Z</time></trkpt><trkpt lat="42.38028350816206" lon="2.618235294396199"><ele>663.0</ele><time>2026-04-09T12:08:46Z</time></trkpt><trkpt lat="42.38035252797993" lon="2.618196602111199"><ele>663.0</ele><time>2026-04-09T12:08:47Z</time></trkpt><trkpt lat="42.380418882944895" lon="2.6181456361740834"><ele>663.0</ele><time>2026-04-09T12:08:48Z</time></trkpt><trkpt lat="42.38047398794044" lon="2.6180734576638867"><ele>663.0</ele><time>2026-04-09T12:08:49Z</time></trkpt><trkpt lat="42.38053207060789" lon="2.6179947221256197"><ele>663.0</ele><time>2026-04-09T12:08:50Z</time></trkpt><trkpt lat="42.38058510110913" lon="2.617918081455443"><ele>663.0</ele><time>2026-04-09T12:08:51Z</time></trkpt><trkpt lat="42.38063696482211" lon="2.617854899272495"><ele>663.0</ele><time>2026-04-09T12:08:52Z</time></trkpt><trkpt lat="42.38072282801352" lon="2.6177445981970284"><ele>663.0</ele><time>2026-04-09T12:08:54Z</time></trkpt><trkpt lat="42.3807852507535" lon="2.617663792100133"><ele>662.8333333333334</ele><time>2026-04-09T12:08:56Z</time></trkpt><trkpt lat="42.380844097606406" lon="2.617585839813621"><ele>662.6666666666666</ele><time>2026-04-09T12:08:58Z</time></trkpt><trkpt lat="42.38091121582798" lon="2.617489870010081"><ele>662.5</ele><time>2026-04-09T12:09:00Z</time></trkpt><trkpt lat="42.380995693629025" lon="2.6173739882481013"><ele>662.3333333333333</ele><time>2026-04-09T12:09:02Z</time></trkpt><trkpt lat="42.38104182292922" lon="2.617309802704879"><ele>662.1666666666666</ele><time>2026-04-09T12:09:03Z</time></trkpt><trkpt lat="42.38108933778672" lon="2.617243571461857"><ele>662.0</ele><time>2026-04-09T12:09:04Z</time></trkpt><trkpt lat="42.381137625248755" lon="2.6171764384343743"><ele>662.0</ele><time>2026-04-09T12:09:05Z</time></trkpt><trkpt lat="42.38118652057341" lon="2.6171091013843353"><ele>662.0</ele><time>2026-04-09T12:09:06Z</time></trkpt><trkpt lat="42.38123688561551" lon="2.617040498009374"><ele>662.0</ele><time>2026-04-09T12:09:07Z</time></trkpt><trkpt lat="42.38128661327073" lon="2.6169726244259834"><ele>662.0</ele><time>2026-04-09T12:09:08Z</time></trkpt><trkpt lat="42.38133717071461" lon="2.616909800605807"><ele>662.0</ele><time>2026-04-09T12:09:09Z</time></trkpt><trkpt lat="42.381389019067626" lon="2.616842019092887"><ele>662.0</ele><time>2026-04-09T12:09:10Z</time></trkpt><trkpt lat="42.38144407933728" lon="2.616773933300555"><ele>662.0</ele><time>2026-04-09T12:09:11Z</time></trkpt><trkpt lat="42.381501523472075" lon="2.616701471754219"><ele>662.4285714285714</ele><time>2026-04-09T12:09:12Z</time></trkpt><trkpt lat="42.381556178815416" lon="2.6166297255361153"><ele>662.8571428571429</ele><time>2026-04-09T12:09:13Z</time></trkpt><trkpt lat="42.3816100763414" lon="2.616559282837991"><ele>663.2857142857142</ele><time>2026-04-09T12:09:14Z</time></trkpt><trkpt lat="42.38166100257121" lon="2.6164894871216475"><ele>663.7142857142858</ele><time>2026-04-09T12:09:15Z</time></trkpt><trkpt lat="42.381712302429506" lon="2.6164193868216894"><ele>664.1428571428571</ele><time>2026-04-09T12:09:16Z</time></trkpt><trkpt lat="42.38175437254171" lon="2.6163459162048395"><ele>664.5714285714286</ele><time>2026-04-09T12:09:17Z</time></trkpt><trkpt lat="42.38180297577072" lon="2.616284143020773"><ele>665.0</ele><time>2026-04-09T12:09:18Z</time></trkpt><trkpt lat="42.38187355807265" lon="2.6161801341846282"><ele>665.5</ele><time>2026-04-09T12:09:20Z</time></trkpt><trkpt lat="42.38194430022628" lon="2.616088957083795"><ele>666.0</ele><time>2026-04-09T12:09:22Z</time></trkpt><trkpt lat="42.38202758553862" lon="2.6159705622612326"><ele>666.5</ele><time>2026-04-09T12:09:24Z</time></trkpt><trkpt lat="42.38207113434324" lon="2.6159042385611935"><ele>667.0</ele><time>2026-04-09T12:09:25Z</time></trkpt><trkpt lat="42.38211906651703" lon="2.6158418281882403"><ele>667.5</ele><time>2026-04-09T12:09:26Z</time></trkpt><trkpt lat="42.382165304772236" lon="2.6157786641346066"><ele>668.0</ele><time>2026-04-09T12:09:27Z</time></trkpt><trkpt lat="42.382200325337394" lon="2.6157042820125387"><ele>668.0</ele><time>2026-04-09T12:09:28Z</time></trkpt><trkpt lat="42.38223025989723" lon="2.6156259938534636"><ele>668.0</ele><time>2026-04-09T12:09:29Z</time></trkpt><trkpt lat="42.38225408673949" lon="2.6155457527489427"><ele>668.0</ele><time>2026-04-09T12:09:30Z</time></trkpt><trkpt lat="42.382266150317484" lon="2.61546203226183"><ele>668.0</ele><time>2026-04-09T12:09:31Z</time></trkpt><trkpt lat="42.38227872428104" lon="2.61529726845451"><ele>668.0</ele><time>2026-04-09T12:09:33Z</time></trkpt><trkpt lat="42.382311025884526" lon="2.6151511706535486"><ele>668.0</ele><time>2026-04-09T12:09:35Z</time></trkpt><trkpt lat="42.38235195027645" lon="2.6150007914108575"><ele>667.3333333333333</ele><time>2026-04-09T12:09:37Z</time></trkpt><trkpt lat="42.382404102641516" lon="2.614857819871866"><ele>666.6666666666666</ele><time>2026-04-09T12:09:39Z</time></trkpt><trkpt lat="42.38247570550924" lon="2.61471349176736"><ele>666.0</ele><time>2026-04-09T12:09:41Z</time></trkpt><trkpt lat="42.38251454984028" lon="2.614642959215374"><ele>665.3333333333334</ele><time>2026-04-09T12:09:42Z</time></trkpt><trkpt lat="42.38255727743359" lon="2.6145751546895433"><ele>664.6666666666667</ele><time>2026-04-09T12:09:43Z</time></trkpt><trkpt lat="42.38260445162944" lon="2.6145185639968553"><ele>664.0</ele><time>2026-04-09T12:09:44Z</time></trkpt><trkpt lat="42.382715460054044" lon="2.6144530010863467"><ele>664.0</ele><time>2026-04-09T12:09:46Z</time></trkpt><trkpt lat="42.38282717387712" lon="2.6144699062338175"><ele>664.0</ele><time>2026-04-09T12:09:48Z</time></trkpt><trkpt lat="42.38290666939023" lon="2.614577002275541"><ele>664.0</ele><time>2026-04-09T12:09:50Z</time></trkpt><trkpt lat="42.382935685982126" lon="2.6147404713051623"><ele>664.0</ele><time>2026-04-09T12:09:52Z</time></trkpt><trkpt lat="42.38294491858827" lon="2.6148264552300526"><ele>664.0</ele><time>2026-04-09T12:09:53Z</time></trkpt><trkpt lat="42.382996397533006" lon="2.614973269091777"><ele>663.5714285714286</ele><time>2026-04-09T12:09:55Z</time></trkpt><trkpt lat="42.383049921897374" lon="2.6150223596295614"><ele>663.1428571428572</ele><time>2026-04-09T12:09:56Z</time></trkpt><trkpt lat="42.38311267749792" lon="2.6150541966433143"><ele>662.7142857142858</ele><time>2026-04-09T12:09:57Z</time></trkpt><trkpt lat="42.383180877715944" lon="2.6150652498267273"><ele>662.2857142857142</ele><time>2026-04-09T12:09:58Z</time></trkpt><trkpt lat="42.38324682133734" lon="2.6150790147668572"><ele>661.8571428571429</ele><time>2026-04-09T12:09:59Z</time></trkpt><trkpt lat="42.38331952813875" lon="2.6150732696615853"><ele>661.4285714285714</ele><time>2026-04-09T12:10:00Z</time></trkpt><trkpt lat="42.38339253715245" lon="2.615066930384777"><ele>661.0</ele><time>2026-04-09T12:10:01Z</time></trkpt><trkpt lat="42.38346365648457" lon="2.6150608061634455"><ele>661.0</ele><time>2026-04-09T12:10:02Z</time></trkpt><trkpt lat="42.38353295592045" lon="2.615054646380882"><ele>661.0</ele><time>2026-04-09T12:10:03Z</time></trkpt><trkpt lat="42.38360043363405" lon="2.6150620316747912"><ele>661.0</ele><time>2026-04-09T12:10:04Z</time></trkpt><trkpt lat="42.383667307845435" lon="2.615059863413297"><ele>661.0</ele><time>2026-04-09T12:10:05Z</time></trkpt><trkpt lat="42.3837344561984" lon="2.6150366388448134"><ele>661.0</ele><time>2026-04-09T12:10:06Z</time></trkpt><trkpt lat="42.38379369886855" lon="2.6149902959098443"><ele>661.0</ele><time>2026-04-09T12:10:07Z</time></trkpt><trkpt lat="42.38384747586455" lon="2.6149372145876644"><ele>661.0</ele><time>2026-04-09T12:10:08Z</time></trkpt><trkpt lat="42.38390204453523" lon="2.614877575705937"><ele>661.0</ele><time>2026-04-09T12:10:09Z</time></trkpt><trkpt lat="42.38393816780259" lon="2.6147957343085575"><ele>661.0</ele><time>2026-04-09T12:10:10Z</time></trkpt><trkpt lat="42.38396572240837" lon="2.614711449888399"><ele>661.0</ele><time>2026-04-09T12:10:11Z</time></trkpt><trkpt lat="42.38398893638264" lon="2.6146296788106036"><ele>661.0</ele><time>2026-04-09T12:10:12Z</time></trkpt><trkpt lat="42.38400081662555" lon="2.6145444294519797"><ele>661.0</ele><time>2026-04-09T12:10:13Z</time></trkpt><trkpt lat="42.38400073315396" lon="2.6144526599299955"><ele>661.0</ele><time>2026-04-09T12:10:14Z</time></trkpt><trkpt lat="42.38399445038171" lon="2.614366010817192"><ele>661.0</ele><time>2026-04-09T12:10:15Z</time></trkpt><trkpt lat="42.383962750843104" lon="2.6142290319193675"><ele>662.0</ele><time>2026-04-09T12:10:17Z</time></trkpt><trkpt lat="42.38394207980612" lon="2.6141424200001544"><ele>663.0</ele><time>2026-04-09T12:10:19Z</time></trkpt><trkpt lat="42.38392193538667" lon="2.6140514558594217"><ele>664.0</ele><time>2026-04-09T12:10:21Z</time></trkpt><trkpt lat="42.38389180993484" lon="2.6139413936646356"><ele>665.0</ele><time>2026-04-09T12:10:23Z</time></trkpt><trkpt lat="42.38386436444798" lon="2.6138113108268337"><ele>666.0</ele><time>2026-04-09T12:10:25Z</time></trkpt><trkpt lat="42.38384468122469" lon="2.613660962876682"><ele>667.0</ele><time>2026-04-09T12:10:27Z</time></trkpt><trkpt lat="42.38382578616759" lon="2.6135010350379724"><ele>669.2</ele><time>2026-04-09T12:10:29Z</time></trkpt><trkpt lat="42.38382745169998" lon="2.6134158267228194"><ele>671.4000000000001</ele><time>2026-04-09T12:10:30Z</time></trkpt><trkpt lat="42.38382815842652" lon="2.6132539376234396"><ele>673.5999999999999</ele><time>2026-04-09T12:10:32Z</time></trkpt><trkpt lat="42.383843379051655" lon="2.6131005871339"><ele>675.8</ele><time>2026-04-09T12:10:34Z</time></trkpt><trkpt lat="42.38386727528819" lon="2.6129491280295007"><ele>678.0</ele><time>2026-04-09T12:10:36Z</time></trkpt><trkpt lat="42.38388336021914" lon="2.612862247840288"><ele>677.0</ele><time>2026-04-09T12:10:37Z</time></trkpt><trkpt lat="42.383929474323615" lon="2.612717593698129"><ele>676.0</ele><time>2026-04-09T12:10:39Z</time></trkpt><trkpt lat="42.38395406923164" lon="2.612636396694062"><ele>675.0</ele><time>2026-04-09T12:10:41Z</time></trkpt><trkpt lat="42.384025515697346" lon="2.6125789446239986"><ele>674.0</ele><time>2026-04-09T12:10:45Z</time></trkpt><trkpt lat="42.38409539387862" lon="2.612533850392122"><ele>673.0</ele><time>2026-04-09T12:10:47Z</time></trkpt><trkpt lat="42.38416863601318" lon="2.6124847913434825"><ele>672.0</ele><time>2026-04-09T12:10:49Z</time></trkpt><trkpt lat="42.38425075852071" lon="2.6124445582484364"><ele>672.0</ele><time>2026-04-09T12:10:51Z</time></trkpt><trkpt lat="42.384334400574616" lon="2.6124174524038595"><ele>672.0</ele><time>2026-04-09T12:10:53Z</time></trkpt><trkpt lat="42.384421369088" lon="2.612407515274677"><ele>672.0</ele><time>2026-04-09T12:10:55Z</time></trkpt><trkpt lat="42.384510624933796" lon="2.612394488377862"><ele>672.0</ele><time>2026-04-09T12:10:57Z</time></trkpt><trkpt lat="42.38459696220828" lon="2.612405760950012"><ele>672.0</ele><time>2026-04-09T12:10:59Z</time></trkpt><trkpt lat="42.3846843569483" lon="2.6124181978223486"><ele>672.0</ele><time>2026-04-09T12:11:01Z</time></trkpt><trkpt lat="42.38476429630452" lon="2.6124266615461216"><ele>673.4285714285714</ele><time>2026-04-09T12:11:03Z</time></trkpt><trkpt lat="42.38484141840523" lon="2.612440561371853"><ele>674.8571428571429</ele><time>2026-04-09T12:11:05Z</time></trkpt><trkpt lat="42.38492099638577" lon="2.6124588652736733"><ele>676.2857142857142</ele><time>2026-04-09T12:11:07Z</time></trkpt><trkpt lat="42.3849962067499" lon="2.6124653743052564"><ele>677.7142857142858</ele><time>2026-04-09T12:11:09Z</time></trkpt><trkpt lat="42.38505947922649" lon="2.612482511865335"><ele>679.1428571428571</ele><time>2026-04-09T12:11:11Z</time></trkpt><trkpt lat="42.3850987510104" lon="2.6125691040120027"><ele>680.5714285714286</ele><time>2026-04-09T12:11:13Z</time></trkpt><trkpt lat="42.385132190402786" lon="2.6126513730873113"><ele>682.0</ele><time>2026-04-09T12:11:15Z</time></trkpt><trkpt lat="42.38515967340471" lon="2.6127350594733145"><ele>682.0</ele><time>2026-04-09T12:11:17Z</time></trkpt><trkpt lat="42.3851947352592" lon="2.612820720443276"><ele>682.0</ele><time>2026-04-09T12:11:19Z</time></trkpt><trkpt lat="42.385239259028836" lon="2.6128963700161987"><ele>682.0</ele><time>2026-04-09T12:11:21Z</time></trkpt><trkpt lat="42.38528765280345" lon="2.6129730449681015"><ele>682.0</ele><time>2026-04-09T12:11:24Z</time></trkpt><trkpt lat="42.38536745696811" lon="2.613019929050833"><ele>682.0</ele><time>2026-04-09T12:11:28Z</time></trkpt><trkpt lat="42.38544022193684" lon="2.613011603262087"><ele>682.0</ele><time>2026-04-09T12:11:30Z</time></trkpt><trkpt lat="42.385515679863836" lon="2.612973549968679"><ele>682.1666666666667</ele><time>2026-04-09T12:11:32Z</time></trkpt><trkpt lat="42.38558913311727" lon="2.6129290254014212"><ele>682.3333333333334</ele><time>2026-04-09T12:11:34Z</time></trkpt><trkpt lat="42.385681984415434" lon="2.6128681855645866"><ele>682.5</ele><time>2026-04-09T12:11:36Z</time></trkpt><trkpt lat="42.385764349961555" lon="2.6128229567795334"><ele>682.6666666666666</ele><time>2026-04-09T12:11:38Z</time></trkpt><trkpt lat="42.385832424497174" lon="2.61277919884741"><ele>682.8333333333333</ele><time>2026-04-09T12:11:40Z</time></trkpt><trkpt lat="42.385905353805335" lon="2.6127229922383512"><ele>683.0</ele><time>2026-04-09T12:11:42Z</time></trkpt><trkpt lat="42.38595894402123" lon="2.6126676544188014"><ele>683.0</ele><time>2026-04-09T12:11:44Z</time></trkpt><trkpt lat="42.38600437687168" lon="2.6125912371559554"><ele>683.0</ele><time>2026-04-09T12:11:46Z</time></trkpt><trkpt lat="42.38607251871136" lon="2.6125016269636454"><ele>683.0</ele><time>2026-04-09T12:11:49Z</time></trkpt><trkpt lat="42.38612564818477" lon="2.6124399793384137"><ele>683.0</ele><time>2026-04-09T12:11:51Z</time></trkpt><trkpt lat="42.386192946888144" lon="2.6123799026228847"><ele>683.0</ele><time>2026-04-09T12:11:53Z</time></trkpt><trkpt lat="42.38626428775646" lon="2.612335658080527"><ele>683.0</ele><time>2026-04-09T12:11:55Z</time></trkpt><trkpt lat="42.38633680816661" lon="2.6122990462503766"><ele>684.4</ele><time>2026-04-09T12:11:57Z</time></trkpt><trkpt lat="42.38643003521369" lon="2.6122326126338273"><ele>685.8</ele><time>2026-04-09T12:11:59Z</time></trkpt><trkpt lat="42.386540696964694" lon="2.6121716077152715"><ele>687.2</ele><time>2026-04-09T12:12:01Z</time></trkpt><trkpt lat="42.38663774128249" lon="2.6121063264129836"><ele>688.6</ele><time>2026-04-09T12:12:03Z</time></trkpt><trkpt lat="42.38673584448524" lon="2.612031770076005"><ele>690.0</ele><time>2026-04-09T12:12:05Z</time></trkpt><trkpt lat="42.38682211117953" lon="2.6119593559637893"><ele>687.6666666666666</ele><time>2026-04-09T12:12:07Z</time></trkpt><trkpt lat="42.38690564504096" lon="2.6118897681195756"><ele>685.3333333333334</ele><time>2026-04-09T12:12:09Z</time></trkpt><trkpt lat="42.38698436676365" lon="2.6118305984531"><ele>683.0</ele><time>2026-04-09T12:12:11Z</time></trkpt><trkpt lat="42.38704035675343" lon="2.6117480193144798"><ele>680.6666666666667</ele><time>2026-04-09T12:12:13Z</time></trkpt><trkpt lat="42.387051447005575" lon="2.611638320019863"><ele>678.3333333333334</ele><time>2026-04-09T12:12:15Z</time></trkpt><trkpt lat="42.38703956855616" lon="2.6115361098464636"><ele>676.0</ele><time>2026-04-09T12:12:17Z</time></trkpt><trkpt lat="42.38702196353112" lon="2.6114248340573245"><ele>676.0</ele><time>2026-04-09T12:12:22Z</time></trkpt><trkpt lat="42.387060231367954" lon="2.6113209140058804"><ele>676.0</ele><time>2026-04-09T12:12:24Z</time></trkpt><trkpt lat="42.387157200392984" lon="2.611202890000652"><ele>676.0</ele><time>2026-04-09T12:12:26Z</time></trkpt><trkpt lat="42.38722566498096" lon="2.611135301484691"><ele>676.0</ele><time>2026-04-09T12:12:27Z</time></trkpt><trkpt lat="42.38729348353309" lon="2.611072496625197"><ele>676.0</ele><time>2026-04-09T12:12:28Z</time></trkpt><trkpt lat="42.38736359083548" lon="2.611006145102643"><ele>676.0</ele><time>2026-04-09T12:12:29Z</time></trkpt><trkpt lat="42.387431410770304" lon="2.6109409857660055"><ele>676.0</ele><time>2026-04-09T12:12:30Z</time></trkpt><trkpt lat="42.38749940962639" lon="2.610878675407801"><ele>676.0</ele><time>2026-04-09T12:12:31Z</time></trkpt><trkpt lat="42.38756900368872" lon="2.610819889349575"><ele>676.0</ele><time>2026-04-09T12:12:32Z</time></trkpt><trkpt lat="42.38764351937862" lon="2.610767483780764"><ele>676.0</ele><time>2026-04-09T12:12:33Z</time></trkpt><trkpt lat="42.38772102392001" lon="2.610726648048449"><ele>676.0</ele><time>2026-04-09T12:12:34Z</time></trkpt><trkpt lat="42.38780705667174" lon="2.6107091469287527"><ele>676.0</ele><time>2026-04-09T12:12:35Z</time></trkpt><trkpt lat="42.38789763055441" lon="2.6106921642932432"><ele>676.0</ele><time>2026-04-09T12:12:36Z</time></trkpt><trkpt lat="42.38798677641752" lon="2.6106538239628314"><ele>676.0</ele><time>2026-04-09T12:12:37Z</time></trkpt><trkpt lat="42.38806882089444" lon="2.6105883334466724"><ele>676.0</ele><time>2026-04-09T12:12:38Z</time></trkpt><trkpt lat="42.38813615721505" lon="2.6105023261716473"><ele>676.0</ele><time>2026-04-09T12:12:39Z</time></trkpt><trkpt lat="42.38819971282364" lon="2.6104099261294507"><ele>674.8</ele><time>2026-04-09T12:12:40Z</time></trkpt><trkpt lat="42.38825283691174" lon="2.610305335952099"><ele>673.5999999999999</ele><time>2026-04-09T12:12:41Z</time></trkpt><trkpt lat="42.388301170747845" lon="2.610195319028454"><ele>672.4</ele><time>2026-04-09T12:12:42Z</time></trkpt><trkpt lat="42.388350867020684" lon="2.610085614471854"><ele>671.2</ele><time>2026-04-09T12:12:43Z</time></trkpt><trkpt lat="42.38841249623526" lon="2.609983573821268"><ele>670.0</ele><time>2026-04-09T12:12:44Z</time></trkpt><trkpt lat="42.38848945269384" lon="2.6099057421157372"><ele>670.0</ele><time>2026-04-09T12:12:45Z</time></trkpt><trkpt lat="42.38857640988855" lon="2.6098417134333514"><ele>670.0</ele><time>2026-04-09T12:12:46Z</time></trkpt><trkpt lat="42.388669757989156" lon="2.6097951055897175"><ele>670.0</ele><time>2026-04-09T12:12:47Z</time></trkpt><trkpt lat="42.38875345947564" lon="2.6097451966753114"><ele>670.0</ele><time>2026-04-09T12:12:48Z</time></trkpt><trkpt lat="42.388826635648414" lon="2.6096678418730663"><ele>670.0</ele><time>2026-04-09T12:12:49Z</time></trkpt><trkpt lat="42.388887994567874" lon="2.6095716800843616"><ele>672.0</ele><time>2026-04-09T12:12:50Z</time></trkpt><trkpt lat="42.38892319009245" lon="2.6094537122545134"><ele>674.0</ele><time>2026-04-09T12:12:51Z</time></trkpt><trkpt lat="42.38891971032" lon="2.6093126466679077"><ele>676.0</ele><time>2026-04-09T12:12:52Z</time></trkpt><trkpt lat="42.3888966161492" lon="2.609156229971602"><ele>678.0</ele><time>2026-04-09T12:12:53Z</time></trkpt><trkpt lat="42.38888232127753" lon="2.609006626855644"><ele>680.0</ele><time>2026-04-09T12:12:54Z</time></trkpt><trkpt lat="42.38886431168896" lon="2.6088569283921914"><ele>680.0</ele><time>2026-04-09T12:12:55Z</time></trkpt><trkpt lat="42.38885029570092" lon="2.608707981505649"><ele>680.0</ele><time>2026-04-09T12:12:56Z</time></trkpt><trkpt lat="42.38883856566719" lon="2.608563399511205"><ele>680.0</ele><time>2026-04-09T12:12:57Z</time></trkpt><trkpt lat="42.38884896879363" lon="2.608439131817639"><ele>680.0</ele><time>2026-04-09T12:12:58Z</time></trkpt><trkpt lat="42.38888973537827" lon="2.6083101054395357"><ele>680.0</ele><time>2026-04-09T12:12:59Z</time></trkpt><trkpt lat="42.388950549435734" lon="2.60819221585289"><ele>678.2</ele><time>2026-04-09T12:13:00Z</time></trkpt><trkpt lat="42.38902046627707" lon="2.6080734644737613"><ele>676.4</ele><time>2026-04-09T12:13:01Z</time></trkpt><trkpt lat="42.38908339702474" lon="2.6079523570888674"><ele>674.5999999999999</ele><time>2026-04-09T12:13:02Z</time></trkpt><trkpt lat="42.38911990013" lon="2.6078174058693695"><ele>672.8</ele><time>2026-04-09T12:13:03Z</time></trkpt><trkpt lat="42.389125016993354" lon="2.6076709189256584"><ele>671.0</ele><time>2026-04-09T12:13:04Z</time></trkpt><trkpt lat="42.38911152808833" lon="2.6075303878031733"><ele>668.8</ele><time>2026-04-09T12:13:05Z</time></trkpt><trkpt lat="42.389088390413576" lon="2.607390287721636"><ele>666.5999999999999</ele><time>2026-04-09T12:13:06Z</time></trkpt><trkpt lat="42.38906540886631" lon="2.6072484181498643"><ele>664.4</ele><time>2026-04-09T12:13:07Z</time></trkpt><trkpt lat="42.389056604360995" lon="2.607104248672227"><ele>662.2</ele><time>2026-04-09T12:13:08Z</time></trkpt><trkpt lat="42.38906620320228" lon="2.606958802614847"><ele>660.0</ele><time>2026-04-09T12:13:09Z</time></trkpt><trkpt lat="42.38908832063081" lon="2.606816584766254"><ele>657.8</ele><time>2026-04-09T12:13:10Z</time></trkpt><trkpt lat="42.389116468289444" lon="2.606671729876107"><ele>655.6</ele><time>2026-04-09T12:13:11Z</time></trkpt><trkpt lat="42.38915699762271" lon="2.6065323188473517"><ele>653.4000000000001</ele><time>2026-04-09T12:13:12Z</time></trkpt><trkpt lat="42.38922011894012" lon="2.6064061030147996"><ele>651.2</ele><time>2026-04-09T12:13:13Z</time></trkpt><trkpt lat="42.38929645145856" lon="2.6062982820520646"><ele>649.0</ele><time>2026-04-09T12:13:14Z</time></trkpt><trkpt lat="42.38938283911363" lon="2.6061990838917053"><ele>647.0</ele><time>2026-04-09T12:13:15Z</time></trkpt><trkpt lat="42.389461359967406" lon="2.6060919178849624"><ele>645.0</ele><time>2026-04-09T12:13:16Z</time></trkpt><trkpt lat="42.38951756702958" lon="2.6059753946313537"><ele>643.0</ele><time>2026-04-09T12:13:17Z</time></trkpt><trkpt lat="42.38954456127833" lon="2.605841636822677"><ele>641.0</ele><time>2026-04-09T12:13:18Z</time></trkpt><trkpt lat="42.38955474562937" lon="2.605704939783212"><ele>639.0</ele><time>2026-04-09T12:13:19Z</time></trkpt><trkpt lat="42.38956449022769" lon="2.605571535515329"><ele>639.0</ele><time>2026-04-09T12:13:20Z</time></trkpt><trkpt lat="42.38957482070325" lon="2.605445186746004"><ele>639.0</ele><time>2026-04-09T12:13:21Z</time></trkpt><trkpt lat="42.389584136494804" lon="2.6053228248075437"><ele>639.0</ele><time>2026-04-09T12:13:22Z</time></trkpt><trkpt lat="42.389575039388255" lon="2.605204056106995"><ele>639.0</ele><time>2026-04-09T12:13:23Z</time></trkpt><trkpt lat="42.38954742533459" lon="2.6050842830378933"><ele>639.0</ele><time>2026-04-09T12:13:24Z</time></trkpt><trkpt lat="42.38951491268857" lon="2.6049693119228214"><ele>638.4</ele><time>2026-04-09T12:13:25Z</time></trkpt><trkpt lat="42.38947866103371" lon="2.6048522719634124"><ele>637.8</ele><time>2026-04-09T12:13:26Z</time></trkpt><trkpt lat="42.38943793594552" lon="2.6047396771958615"><ele>637.2</ele><time>2026-04-09T12:13:27Z</time></trkpt><trkpt lat="42.389394497812994" lon="2.6046275672901835"><ele>636.6</ele><time>2026-04-09T12:13:28Z</time></trkpt><trkpt lat="42.3893484330234" lon="2.6045138329522497"><ele>636.0</ele><time>2026-04-09T12:13:29Z</time></trkpt><trkpt lat="42.38930289678316" lon="2.604399157554559"><ele>636.0</ele><time>2026-04-09T12:13:30Z</time></trkpt><trkpt lat="42.38926909429809" lon="2.6042774029701814"><ele>636.0</ele><time>2026-04-09T12:13:31Z</time></trkpt><trkpt lat="42.389263040747316" lon="2.6041435861514874"><ele>636.0</ele><time>2026-04-09T12:13:32Z</time></trkpt><trkpt lat="42.389267519827776" lon="2.6040107015741953"><ele>636.0</ele><time>2026-04-09T12:13:33Z</time></trkpt><trkpt lat="42.38927318580987" lon="2.6038780903335015"><ele>636.0</ele><time>2026-04-09T12:13:34Z</time></trkpt><trkpt lat="42.38928493186597" lon="2.603747031388049"><ele>635.0</ele><time>2026-04-09T12:13:35Z</time></trkpt><trkpt lat="42.38931850834001" lon="2.6036188343348368"><ele>634.0</ele><time>2026-04-09T12:13:36Z</time></trkpt><trkpt lat="42.38937731266954" lon="2.6035053787110423"><ele>633.0</ele><time>2026-04-09T12:13:37Z</time></trkpt><trkpt lat="42.38945312967251" lon="2.6034172261237423"><ele>632.0</ele><time>2026-04-09T12:13:38Z</time></trkpt><trkpt lat="42.38955102907179" lon="2.603373058784641"><ele>631.0</ele><time>2026-04-09T12:13:39Z</time></trkpt><trkpt lat="42.389654955015374" lon="2.603359027038094"><ele>632.6</ele><time>2026-04-09T12:13:40Z</time></trkpt><trkpt lat="42.38975133131397" lon="2.6033633937533116"><ele>634.2</ele><time>2026-04-09T12:13:41Z</time></trkpt><trkpt lat="42.389853683174735" lon="2.6033813213668755"><ele>635.8</ele><time>2026-04-09T12:13:42Z</time></trkpt><trkpt lat="42.38995878255962" lon="2.6033765613956756"><ele>637.4</ele><time>2026-04-09T12:13:43Z</time></trkpt><trkpt lat="42.39006140347462" lon="2.6033477692136486"><ele>639.0</ele><time>2026-04-09T12:13:44Z</time></trkpt><trkpt lat="42.39015543578705" lon="2.6032828066600064"><ele>639.0</ele><time>2026-04-09T12:13:45Z</time></trkpt><trkpt lat="42.390239726396366" lon="2.603198733616093"><ele>639.0</ele><time>2026-04-09T12:13:46Z</time></trkpt><trkpt lat="42.39032166465781" lon="2.6031103079291755"><ele>639.0</ele><time>2026-04-09T12:13:47Z</time></trkpt><trkpt lat="42.39040457834486" lon="2.603027501068643"><ele>639.0</ele><time>2026-04-09T12:13:48Z</time></trkpt><trkpt lat="42.39049194931574" lon="2.6029469896994337"><ele>639.0</ele><time>2026-04-09T12:13:49Z</time></trkpt><trkpt lat="42.39057893059881" lon="2.6028634092294483"><ele>636.8</ele><time>2026-04-09T12:13:50Z</time></trkpt><trkpt lat="42.39067239188916" lon="2.6027894635176287"><ele>634.5999999999999</ele><time>2026-04-09T12:13:51Z</time></trkpt><trkpt lat="42.390773686253084" lon="2.602732009628918"><ele>632.4</ele><time>2026-04-09T12:13:52Z</time></trkpt><trkpt lat="42.390876415775146" lon="2.6026833274168735"><ele>630.1999999999999</ele><time>2026-04-09T12:13:53Z</time></trkpt><trkpt lat="42.39097975611791" lon="2.6026324350060626"><ele>628.0</ele><time>2026-04-09T12:13:54Z</time></trkpt><trkpt lat="42.39108345792762" lon="2.6025876049650747"><ele>628.0</ele><time>2026-04-09T12:13:55Z</time></trkpt><trkpt lat="42.391184100145146" lon="2.602536128637053"><ele>628.0</ele><time>2026-04-09T12:13:56Z</time></trkpt><trkpt lat="42.391279541648395" lon="2.602469210276002"><ele>628.0</ele><time>2026-04-09T12:13:57Z</time></trkpt><trkpt lat="42.39135192168044" lon="2.602366904022503"><ele>628.0</ele><time>2026-04-09T12:13:58Z</time></trkpt><trkpt lat="42.39140249676611" lon="2.6022399424989002"><ele>628.0</ele><time>2026-04-09T12:13:59Z</time></trkpt><trkpt lat="42.39144316422403" lon="2.602120218492491"><ele>628.8</ele><time>2026-04-09T12:14:00Z</time></trkpt><trkpt lat="42.39148793591052" lon="2.602005627217045"><ele>629.5999999999999</ele><time>2026-04-09T12:14:01Z</time></trkpt><trkpt lat="42.391541226786316" lon="2.6018920296912076"><ele>630.4000000000001</ele><time>2026-04-09T12:14:02Z</time></trkpt><trkpt lat="42.391606453809125" lon="2.60178150797874"><ele>631.2</ele><time>2026-04-09T12:14:03Z</time></trkpt><trkpt lat="42.391674183418075" lon="2.601672876735595"><ele>632.0</ele><time>2026-04-09T12:14:04Z</time></trkpt><trkpt lat="42.39174266224527" lon="2.60155688307195"><ele>632.0</ele><time>2026-04-09T12:14:05Z</time></trkpt><trkpt lat="42.39180185811618" lon="2.6014328475992605"><ele>632.0</ele><time>2026-04-09T12:14:06Z</time></trkpt><trkpt lat="42.39185335677856" lon="2.6013014023627252"><ele>632.0</ele><time>2026-04-09T12:14:07Z</time></trkpt><trkpt lat="42.39190360998052" lon="2.6011701788076866"><ele>632.0</ele><time>2026-04-09T12:14:08Z</time></trkpt><trkpt lat="42.39195893516902" lon="2.6010493398802077"><ele>632.0</ele><time>2026-04-09T12:14:09Z</time></trkpt><trkpt lat="42.392030471655914" lon="2.6009466570062343"><ele>630.8000000000001</ele><time>2026-04-09T12:14:10Z</time></trkpt><trkpt lat="42.39212020810048" lon="2.60087581824017"><ele>629.6</ele><time>2026-04-09T12:14:11Z</time></trkpt><trkpt lat="42.39221983723374" lon="2.6008549230274296"><ele>628.4000000000001</ele><time>2026-04-09T12:14:12Z</time></trkpt><trkpt lat="42.39231960199882" lon="2.6008654604201826"><ele>627.2</ele><time>2026-04-09T12:14:13Z</time></trkpt><trkpt lat="42.392412729211095" lon="2.6009146476884912"><ele>626.0</ele><time>2026-04-09T12:14:14Z</time></trkpt><trkpt lat="42.39248887636622" lon="2.601005740686299"><ele>626.0</ele><time>2026-04-09T12:14:15Z</time></trkpt><trkpt lat="42.39256181560539" lon="2.6010951310339077"><ele>626.0</ele><time>2026-04-09T12:14:16Z</time></trkpt><trkpt lat="42.39264243753113" lon="2.60116451768712"><ele>626.0</ele><time>2026-04-09T12:14:17Z</time></trkpt><trkpt lat="42.39273824795288" lon="2.6011972529732934"><ele>626.0</ele><time>2026-04-09T12:14:18Z</time></trkpt><trkpt lat="42.39284617826224" lon="2.601202282812734"><ele>626.0</ele><time>2026-04-09T12:14:19Z</time></trkpt><trkpt lat="42.39295633157764" lon="2.6012134165586778"><ele>626.75</ele><time>2026-04-09T12:14:20Z</time></trkpt><trkpt lat="42.39306807664489" lon="2.601192751039681"><ele>627.5</ele><time>2026-04-09T12:14:21Z</time></trkpt><trkpt lat="42.39318093959911" lon="2.6011552636900266"><ele>628.25</ele><time>2026-04-09T12:14:22Z</time></trkpt><trkpt lat="42.393289749804886" lon="2.6010903498105935"><ele>629.0</ele><time>2026-04-09T12:14:23Z</time></trkpt><trkpt lat="42.39339003360509" lon="2.6010063372881067"><ele>629.0</ele><time>2026-04-09T12:14:24Z</time></trkpt><trkpt lat="42.39346991418644" lon="2.6008924166376675"><ele>629.0</ele><time>2026-04-09T12:14:25Z</time></trkpt><trkpt lat="42.39354113173278" lon="2.6007594670740324"><ele>629.0</ele><time>2026-04-09T12:14:26Z</time></trkpt><trkpt lat="42.39360133264693" lon="2.6006143809012676"><ele>629.0</ele><time>2026-04-09T12:14:27Z</time></trkpt><trkpt lat="42.393664397856924" lon="2.600468540155102"><ele>626.75</ele><time>2026-04-09T12:14:28Z</time></trkpt><trkpt lat="42.393717094978776" lon="2.600324016974532"><ele>624.5</ele><time>2026-04-09T12:14:29Z</time></trkpt><trkpt lat="42.39375770604099" lon="2.6001757457184866"><ele>622.25</ele><time>2026-04-09T12:14:30Z</time></trkpt><trkpt lat="42.39378874506511" lon="2.600023572563057"><ele>620.0</ele><time>2026-04-09T12:14:31Z</time></trkpt><trkpt lat="42.393816624509114" lon="2.5998704078579307"><ele>620.25</ele><time>2026-04-09T12:14:32Z</time></trkpt><trkpt lat="42.39385619950445" lon="2.5997221179212486"><ele>620.5</ele><time>2026-04-09T12:14:33Z</time></trkpt><trkpt lat="42.393912875242584" lon="2.5995807054881777"><ele>620.75</ele><time>2026-04-09T12:14:34Z</time></trkpt><trkpt lat="42.393992504655486" lon="2.5994584636836624"><ele>621.0</ele><time>2026-04-09T12:14:35Z</time></trkpt><trkpt lat="42.39408638886759" lon="2.5993473514412466"><ele>621.0</ele><time>2026-04-09T12:14:36Z</time></trkpt><trkpt lat="42.39418929870653" lon="2.5992556451876982"><ele>621.0</ele><time>2026-04-09T12:14:37Z</time></trkpt><trkpt lat="42.39430487973463" lon="2.599200781874624"><ele>621.0</ele><time>2026-04-09T12:14:38Z</time></trkpt><trkpt lat="42.39442397012637" lon="2.5991971001454734"><ele>621.0</ele><time>2026-04-09T12:14:39Z</time></trkpt><trkpt lat="42.39453384605113" lon="2.599245261619588"><ele>621.0</ele><time>2026-04-09T12:14:40Z</time></trkpt><trkpt lat="42.39464616331609" lon="2.599319763456772"><ele>621.0</ele><time>2026-04-09T12:14:41Z</time></trkpt><trkpt lat="42.394759219902525" lon="2.599386950253303"><ele>621.0</ele><time>2026-04-09T12:14:42Z</time></trkpt><trkpt lat="42.394875266155424" lon="2.599425368605916"><ele>621.0</ele><time>2026-04-09T12:14:43Z</time></trkpt><trkpt lat="42.394991814344735" lon="2.599425550518505"><ele>621.0</ele><time>2026-04-09T12:14:44Z</time></trkpt><trkpt lat="42.395110520511395" lon="2.5993898571692644"><ele>621.0</ele><time>2026-04-09T12:14:45Z</time></trkpt><trkpt lat="42.395228865297895" lon="2.5993542208800777"><ele>621.0</ele><time>2026-04-09T12:14:46Z</time></trkpt><trkpt lat="42.39534754299658" lon="2.5993309368972928"><ele>621.0</ele><time>2026-04-09T12:14:47Z</time></trkpt><trkpt lat="42.395469466404634" lon="2.599344642580388"><ele>621.0</ele><time>2026-04-09T12:14:48Z</time></trkpt><trkpt lat="42.395594094186784" lon="2.599386691819928"><ele>621.0</ele><time>2026-04-09T12:14:49Z</time></trkpt><trkpt lat="42.395722817923684" lon="2.599422914740908"><ele>621.0</ele><time>2026-04-09T12:14:50Z</time></trkpt><trkpt lat="42.39584812409178" lon="2.599457837169659"><ele>621.0</ele><time>2026-04-09T12:14:51Z</time></trkpt><trkpt lat="42.395965504348126" lon="2.599509299024331"><ele>623.75</ele><time>2026-04-09T12:14:52Z</time></trkpt><trkpt lat="42.39607741254183" lon="2.5995602769730977"><ele>626.5</ele><time>2026-04-09T12:14:53Z</time></trkpt><trkpt lat="42.39619363069379" lon="2.5995899982476756"><ele>629.25</ele><time>2026-04-09T12:14:54Z</time></trkpt><trkpt lat="42.39630935934496" lon="2.599595497189125"><ele>632.0</ele><time>2026-04-09T12:14:55Z</time></trkpt><trkpt lat="42.3964260833355" lon="2.599581850416331"><ele>632.0</ele><time>2026-04-09T12:14:56Z</time></trkpt><trkpt lat="42.39653905096916" lon="2.5995737633826526"><ele>632.0</ele><time>2026-04-09T12:14:57Z</time></trkpt><trkpt lat="42.396650597697715" lon="2.5995937510620895"><ele>632.0</ele><time>2026-04-09T12:14:58Z</time></trkpt><trkpt lat="42.3967512698184" lon="2.5996519625612744"><ele>632.0</ele><time>2026-04-09T12:14:59Z</time></trkpt><trkpt lat="42.39681142222427" lon="2.5997721979837665"><ele>632.0</ele><time>2026-04-09T12:15:00Z</time></trkpt><trkpt lat="42.3968733638315" lon="2.5998869508830844"><ele>632.0</ele><time>2026-04-09T12:15:01Z</time></trkpt><trkpt lat="42.39694111385825" lon="2.5999755282859085"><ele>632.0</ele><time>2026-04-09T12:15:02Z</time></trkpt><trkpt lat="42.39704285316663" lon="2.600012301519902"><ele>632.0</ele><time>2026-04-09T12:15:03Z</time></trkpt><trkpt lat="42.39714446825373" lon="2.599991899898245"><ele>632.0</ele><time>2026-04-09T12:15:04Z</time></trkpt><trkpt lat="42.39723200203153" lon="2.5999291856403093"><ele>632.0</ele><time>2026-04-09T12:15:05Z</time></trkpt><trkpt lat="42.39729646644206" lon="2.599814569235634"><ele>630.8000000000001</ele><time>2026-04-09T12:15:06Z</time></trkpt><trkpt lat="42.397371738781025" lon="2.5997107509525095"><ele>629.6</ele><time>2026-04-09T12:15:07Z</time></trkpt><trkpt lat="42.397460205975484" lon="2.599622393047354"><ele>628.4000000000001</ele><time>2026-04-09T12:15:08Z</time></trkpt><trkpt lat="42.39756366103023" lon="2.5995664004245644"><ele>627.2</ele><time>2026-04-09T12:15:09Z</time></trkpt><trkpt lat="42.39767956048319" lon="2.5995317882671976"><ele>626.0</ele><time>2026-04-09T12:15:10Z</time></trkpt><trkpt lat="42.39780176172863" lon="2.599502395994479"><ele>624.25</ele><time>2026-04-09T12:15:11Z</time></trkpt><trkpt lat="42.397929324883734" lon="2.599467913066762"><ele>622.5</ele><time>2026-04-09T12:15:12Z</time></trkpt><trkpt lat="42.398055060467144" lon="2.599416897069986"><ele>620.75</ele><time>2026-04-09T12:15:13Z</time></trkpt><trkpt lat="42.398173129629555" lon="2.5993603126570677"><ele>619.0</ele><time>2026-04-09T12:15:14Z</time></trkpt><trkpt lat="42.39829081337335" lon="2.599295587468928"><ele>619.0</ele><time>2026-04-09T12:15:15Z</time></trkpt><trkpt lat="42.39841289518508" lon="2.5992281050488617"><ele>619.0</ele><time>2026-04-09T12:15:16Z</time></trkpt><trkpt lat="42.398526592388365" lon="2.5991643759090968"><ele>619.0</ele><time>2026-04-09T12:15:17Z</time></trkpt><trkpt lat="42.3986308259029" lon="2.5990846883757968"><ele>619.0</ele><time>2026-04-09T12:15:18Z</time></trkpt><trkpt lat="42.398725814436624" lon="2.598974191425909"><ele>619.0</ele><time>2026-04-09T12:15:19Z</time></trkpt><trkpt lat="42.39880506828581" lon="2.598842134804718"><ele>619.0</ele><time>2026-04-09T12:15:20Z</time></trkpt><trkpt lat="42.398878899319975" lon="2.598695700729398"><ele>619.0</ele><time>2026-04-09T12:15:21Z</time></trkpt><trkpt lat="42.39896173458358" lon="2.5985505037126604"><ele>619.0</ele><time>2026-04-09T12:15:22Z</time></trkpt><trkpt lat="42.39904486009942" lon="2.598401109712984"><ele>619.5</ele><time>2026-04-09T12:15:23Z</time></trkpt><trkpt lat="42.39912255638572" lon="2.5982569674745326"><ele>620.0</ele><time>2026-04-09T12:15:24Z</time></trkpt><trkpt lat="42.39919903281248" lon="2.598115814302125"><ele>620.5</ele><time>2026-04-09T12:15:25Z</time></trkpt><trkpt lat="42.399281627795794" lon="2.5979829106707957"><ele>621.0</ele><time>2026-04-09T12:15:26Z</time></trkpt><trkpt lat="42.399378961066624" lon="2.5978752028355676"><ele>620.0</ele><time>2026-04-09T12:15:27Z</time></trkpt><trkpt lat="42.399488366296254" lon="2.5977967710849867"><ele>619.0</ele><time>2026-04-09T12:15:28Z</time></trkpt><trkpt lat="42.399610384696665" lon="2.5977538342361375"><ele>618.0</ele><time>2026-04-09T12:15:29Z</time></trkpt><trkpt lat="42.39974150113496" lon="2.5977341834464918"><ele>617.0</ele><time>2026-04-09T12:15:30Z</time></trkpt><trkpt lat="42.39986772219746" lon="2.5976999124172537"><ele>617.0</ele><time>2026-04-09T12:15:31Z</time></trkpt><trkpt lat="42.39998836647643" lon="2.597636759010471"><ele>617.0</ele><time>2026-04-09T12:15:32Z</time></trkpt><trkpt lat="42.40010644912075" lon="2.5975576376196936"><ele>617.0</ele><time>2026-04-09T12:15:33Z</time></trkpt><trkpt lat="42.400214901254" lon="2.5974496634453415"><ele>617.0</ele><time>2026-04-09T12:15:34Z</time></trkpt><trkpt lat="42.400322750775125" lon="2.5973551256753855"><ele>617.0</ele><time>2026-04-09T12:15:35Z</time></trkpt><trkpt lat="42.40043072391804" lon="2.597287508561768"><ele>617.0</ele><time>2026-04-09T12:15:36Z</time></trkpt><trkpt lat="42.40054317065407" lon="2.5972775268410926"><ele>617.0</ele><time>2026-04-09T12:15:37Z</time></trkpt><trkpt lat="42.40066044196752" lon="2.5973199418101087"><ele>617.0</ele><time>2026-04-09T12:15:38Z</time></trkpt><trkpt lat="42.40076927981928" lon="2.5973999316721432"><ele>616.0</ele><time>2026-04-09T12:15:39Z</time></trkpt><trkpt lat="42.40086259660065" lon="2.5975088714978507"><ele>615.0</ele><time>2026-04-09T12:15:40Z</time></trkpt><trkpt lat="42.40095337426637" lon="2.5976431298900975"><ele>614.0</ele><time>2026-04-09T12:15:41Z</time></trkpt><trkpt lat="42.40105210791479" lon="2.5977739077306077"><ele>613.0</ele><time>2026-04-09T12:15:42Z</time></trkpt><trkpt lat="42.401148184089514" lon="2.597901487219803"><ele>610.75</ele><time>2026-04-09T12:15:43Z</time></trkpt><trkpt lat="42.40124823293749" lon="2.5980284748667803"><ele>608.5</ele><time>2026-04-09T12:15:44Z</time></trkpt><trkpt lat="42.401344269621035" lon="2.5981572314439187"><ele>606.25</ele><time>2026-04-09T12:15:45Z</time></trkpt><trkpt lat="42.4014377532267" lon="2.5982907367619608"><ele>604.0</ele><time>2026-04-09T12:15:46Z</time></trkpt><trkpt lat="42.401519387218784" lon="2.598432780226607"><ele>604.0</ele><time>2026-04-09T12:15:47Z</time></trkpt><trkpt lat="42.401580186680874" lon="2.59859127009463"><ele>604.0</ele><time>2026-04-09T12:15:48Z</time></trkpt><trkpt lat="42.40161849782971" lon="2.5987558812096387"><ele>604.0</ele><time>2026-04-09T12:15:49Z</time></trkpt><trkpt lat="42.401652838866156" lon="2.5989198706898273"><ele>604.0</ele><time>2026-04-09T12:15:50Z</time></trkpt><trkpt lat="42.40169516557472" lon="2.5990796392067184"><ele>606.25</ele><time>2026-04-09T12:15:51Z</time></trkpt><trkpt lat="42.401755560206574" lon="2.599221749629341"><ele>608.5</ele><time>2026-04-09T12:15:52Z</time></trkpt><trkpt lat="42.40182312452245" lon="2.59935514781235"><ele>610.75</ele><time>2026-04-09T12:15:53Z</time></trkpt><trkpt lat="42.401889329880866" lon="2.599486943046927"><ele>613.0</ele><time>2026-04-09T12:15:54Z</time></trkpt><trkpt lat="42.40195623085355" lon="2.5996122912818156"><ele>613.75</ele><time>2026-04-09T12:15:55Z</time></trkpt><trkpt lat="42.40202954263593" lon="2.599728865668351"><ele>614.5</ele><time>2026-04-09T12:15:56Z</time></trkpt><trkpt lat="42.402121795154756" lon="2.599817662150807"><ele>615.25</ele><time>2026-04-09T12:15:57Z</time></trkpt><trkpt lat="42.40222393686534" lon="2.599887408910394"><ele>616.0</ele><time>2026-04-09T12:15:58Z</time></trkpt><trkpt lat="42.40233682726646" lon="2.5999245846472574"><ele>616.0</ele><time>2026-04-09T12:15:59Z</time></trkpt><trkpt lat="42.40245047809364" lon="2.5999332427097444"><ele>616.0</ele><time>2026-04-09T12:16:00Z</time></trkpt><trkpt lat="42.402563498259994" lon="2.599916822889009"><ele>616.0</ele><time>2026-04-09T12:16:01Z</time></trkpt><trkpt lat="42.40266627102697" lon="2.599896629212753"><ele>616.0</ele><time>2026-04-09T12:16:02Z</time></trkpt><trkpt lat="42.40277041968525" lon="2.5998789468151244"><ele>616.0</ele><time>2026-04-09T12:16:03Z</time></trkpt><trkpt lat="42.40286488690859" lon="2.5998635826139784"><ele>616.0</ele><time>2026-04-09T12:16:04Z</time></trkpt><trkpt lat="42.40295434742967" lon="2.599849178976586"><ele>616.0</ele><time>2026-04-09T12:16:05Z</time></trkpt><trkpt lat="42.40304831722746" lon="2.599833216547609"><ele>616.0</ele><time>2026-04-09T12:16:06Z</time></trkpt><trkpt lat="42.40313874182325" lon="2.599817497374693"><ele>616.0</ele><time>2026-04-09T12:16:07Z</time></trkpt><trkpt lat="42.4032264213165" lon="2.5998055109314544"><ele>616.0</ele><time>2026-04-09T12:16:08Z</time></trkpt><trkpt lat="42.403314142001186" lon="2.599794750235894"><ele>615.3333333333334</ele><time>2026-04-09T12:16:09Z</time></trkpt><trkpt lat="42.4033953449498" lon="2.5997879987850734"><ele>614.6666666666667</ele><time>2026-04-09T12:16:10Z</time></trkpt><trkpt lat="42.40346486680153" lon="2.599778886227564"><ele>614.0</ele><time>2026-04-09T12:16:11Z</time></trkpt><trkpt lat="42.403560749544205" lon="2.5997632061563323"><ele>613.3333333333334</ele><time>2026-04-09T12:16:13Z</time></trkpt><trkpt lat="42.403642042064455" lon="2.5997490996789687"><ele>612.6666666666666</ele><time>2026-04-09T12:16:15Z</time></trkpt><trkpt lat="42.40374232418932" lon="2.5997359165959986"><ele>612.0</ele><time>2026-04-09T12:16:17Z</time></trkpt><trkpt lat="42.40387341816535" lon="2.599725269854099"><ele>612.0</ele><time>2026-04-09T12:16:19Z</time></trkpt><trkpt lat="42.40395035506869" lon="2.5997300563991614"><ele>612.0</ele><time>2026-04-09T12:16:20Z</time></trkpt><trkpt lat="42.40402816814799" lon="2.5997386680513124"><ele>612.0</ele><time>2026-04-09T12:16:21Z</time></trkpt><trkpt lat="42.40410578509579" lon="2.5997502460203723"><ele>612.0</ele><time>2026-04-09T12:16:22Z</time></trkpt><trkpt lat="42.40418410306205" lon="2.5997637116954073"><ele>612.0</ele><time>2026-04-09T12:16:23Z</time></trkpt><trkpt lat="42.40425851686567" lon="2.5997805747167684"><ele>612.0</ele><time>2026-04-09T12:16:24Z</time></trkpt><trkpt lat="42.40433000205745" lon="2.599801178967224"><ele>612.0</ele><time>2026-04-09T12:16:25Z</time></trkpt><trkpt lat="42.40440227255821" lon="2.5998301550830965"><ele>612.0</ele><time>2026-04-09T12:16:26Z</time></trkpt><trkpt lat="42.40447275518145" lon="2.5998637624782477"><ele>612.0</ele><time>2026-04-09T12:16:27Z</time></trkpt><trkpt lat="42.40454432676159" lon="2.599903673745721"><ele>612.0</ele><time>2026-04-09T12:16:28Z</time></trkpt><trkpt lat="42.40461576020542" lon="2.5999454772977724"><ele>612.0</ele><time>2026-04-09T12:16:29Z</time></trkpt><trkpt lat="42.40468114537478" lon="2.5999885445863304"><ele>612.0</ele><time>2026-04-09T12:16:30Z</time></trkpt><trkpt lat="42.40475091264399" lon="2.6000346559779253"><ele>611.5</ele><time>2026-04-09T12:16:31Z</time></trkpt><trkpt lat="42.40481725096277" lon="2.6000744880490165"><ele>611.0</ele><time>2026-04-09T12:16:32Z</time></trkpt><trkpt lat="42.40488733183934" lon="2.600102955185312"><ele>610.5</ele><time>2026-04-09T12:16:33Z</time></trkpt><trkpt lat="42.404963449736535" lon="2.6001087701648964"><ele>610.0</ele><time>2026-04-09T12:16:34Z</time></trkpt><trkpt lat="42.405040156549084" lon="2.6000909983058373"><ele>609.5</ele><time>2026-04-09T12:16:35Z</time></trkpt><trkpt lat="42.405111023125585" lon="2.6000562192533905"><ele>609.0</ele><time>2026-04-09T12:16:36Z</time></trkpt><trkpt lat="42.40517945690863" lon="2.6000104992397794"><ele>609.0</ele><time>2026-04-09T12:16:37Z</time></trkpt><trkpt lat="42.40523861005222" lon="2.599949168998249"><ele>609.0</ele><time>2026-04-09T12:16:38Z</time></trkpt><trkpt lat="42.405288659625775" lon="2.599892416916429"><ele>609.0</ele><time>2026-04-09T12:16:39Z</time></trkpt><trkpt lat="42.40535813099607" lon="2.5998100655801775"><ele>609.0</ele><time>2026-04-09T12:16:41Z</time></trkpt><trkpt lat="42.40542490463122" lon="2.599724408414443"><ele>609.0</ele><time>2026-04-09T12:16:43Z</time></trkpt><trkpt lat="42.40551491569212" lon="2.5996236936942325"><ele>609.0</ele><time>2026-04-09T12:16:45Z</time></trkpt><trkpt lat="42.405575866188855" lon="2.599582188609576"><ele>609.6666666666666</ele><time>2026-04-09T12:16:46Z</time></trkpt><trkpt lat="42.40564325127074" lon="2.5995535386914717"><ele>610.3333333333334</ele><time>2026-04-09T12:16:47Z</time></trkpt><trkpt lat="42.40571006212359" lon="2.599536937835115"><ele>611.0</ele><time>2026-04-09T12:16:48Z</time></trkpt><trkpt lat="42.40578185788052" lon="2.5995521759622724"><ele>611.6666666666667</ele><time>2026-04-09T12:16:49Z</time></trkpt><trkpt lat="42.405855580388604" lon="2.5995671414552186"><ele>612.3333333333334</ele><time>2026-04-09T12:16:50Z</time></trkpt><trkpt lat="42.40593564503788" lon="2.5995859439343674"><ele>613.0</ele><time>2026-04-09T12:16:51Z</time></trkpt><trkpt lat="42.40601923009645" lon="2.5996034551322578"><ele>613.0</ele><time>2026-04-09T12:16:52Z</time></trkpt><trkpt lat="42.40610141556312" lon="2.5996131441600063"><ele>613.0</ele><time>2026-04-09T12:16:53Z</time></trkpt><trkpt lat="42.40618350632732" lon="2.5996133716195966"><ele>613.0</ele><time>2026-04-09T12:16:54Z</time></trkpt><trkpt lat="42.406267460688895" lon="2.599598310865696"><ele>613.0</ele><time>2026-04-09T12:16:55Z</time></trkpt><trkpt lat="42.406349487976414" lon="2.5995707458551767"><ele>613.0</ele><time>2026-04-09T12:16:56Z</time></trkpt><trkpt lat="42.40642637042494" lon="2.599530853039217"><ele>613.0</ele><time>2026-04-09T12:16:57Z</time></trkpt><trkpt lat="42.406502277293164" lon="2.5994790783338253"><ele>611.1666666666667</ele><time>2026-04-09T12:16:58Z</time></trkpt><trkpt lat="42.40657769837602" lon="2.5994306712719264"><ele>609.3333333333334</ele><time>2026-04-09T12:16:59Z</time></trkpt><trkpt lat="42.40665430782013" lon="2.5993862879306175"><ele>607.5</ele><time>2026-04-09T12:17:00Z</time></trkpt><trkpt lat="42.4067355128231" lon="2.599342725908246"><ele>605.6666666666666</ele><time>2026-04-09T12:17:01Z</time></trkpt><trkpt lat="42.40681713810587" lon="2.599294596944599"><ele>603.8333333333333</ele><time>2026-04-09T12:17:02Z</time></trkpt><trkpt lat="42.406894264400236" lon="2.5992428640960537"><ele>602.0</ele><time>2026-04-09T12:17:03Z</time></trkpt><trkpt lat="42.4069669254511" lon="2.59918372086676"><ele>602.0</ele><time>2026-04-09T12:17:04Z</time></trkpt><trkpt lat="42.40703190534093" lon="2.5991049707459166"><ele>602.0</ele><time>2026-04-09T12:17:05Z</time></trkpt><trkpt lat="42.40708958420379" lon="2.5990195779857546"><ele>602.0</ele><time>2026-04-09T12:17:06Z</time></trkpt><trkpt lat="42.407144014339906" lon="2.5989325582829537"><ele>602.0</ele><time>2026-04-09T12:17:07Z</time></trkpt><trkpt lat="42.40720094412801" lon="2.5988517871165633"><ele>602.0</ele><time>2026-04-09T12:17:08Z</time></trkpt><trkpt lat="42.40726323952906" lon="2.598780232765146"><ele>602.0</ele><time>2026-04-09T12:17:09Z</time></trkpt><trkpt lat="42.407333271105706" lon="2.598725869591528"><ele>601.6666666666666</ele><time>2026-04-09T12:17:10Z</time></trkpt><trkpt lat="42.40741119284094" lon="2.5986929991428505"><ele>601.3333333333333</ele><time>2026-04-09T12:17:11Z</time></trkpt><trkpt lat="42.407488902851526" lon="2.5986841163372416"><ele>601.0</ele><time>2026-04-09T12:17:12Z</time></trkpt><trkpt lat="42.40756336020555" lon="2.598686075122014"><ele>600.6666666666666</ele><time>2026-04-09T12:17:13Z</time></trkpt><trkpt lat="42.40763524084922" lon="2.598661779135167"><ele>600.3333333333334</ele><time>2026-04-09T12:17:14Z</time></trkpt><trkpt lat="42.40770258733628" lon="2.5986035370280742"><ele>600.0</ele><time>2026-04-09T12:17:15Z</time></trkpt><trkpt lat="42.40776662796839" lon="2.5985284372365"><ele>600.0</ele><time>2026-04-09T12:17:16Z</time></trkpt><trkpt lat="42.407840782175555" lon="2.5984500804572392"><ele>600.0</ele><time>2026-04-09T12:17:17Z</time></trkpt><trkpt lat="42.40793245239507" lon="2.5983809485387024"><ele>600.0</ele><time>2026-04-09T12:17:18Z</time></trkpt><trkpt lat="42.40803084433529" lon="2.5983084850122764"><ele>600.0</ele><time>2026-04-09T12:17:19Z</time></trkpt><trkpt lat="42.40813003142294" lon="2.5982313023718286"><ele>600.0</ele><time>2026-04-09T12:17:20Z</time></trkpt><trkpt lat="42.408231989371195" lon="2.5981409933657074"><ele>600.75</ele><time>2026-04-09T12:17:21Z</time></trkpt><trkpt lat="42.40833214498484" lon="2.5980439018256782"><ele>601.5</ele><time>2026-04-09T12:17:22Z</time></trkpt><trkpt lat="42.40842425399815" lon="2.5979351012425824"><ele>602.25</ele><time>2026-04-09T12:17:23Z</time></trkpt><trkpt lat="42.40850854253354" lon="2.597809671229166"><ele>603.0</ele><time>2026-04-09T12:17:24Z</time></trkpt><trkpt lat="42.40858244328472" lon="2.597668338862727"><ele>603.0</ele><time>2026-04-09T12:17:25Z</time></trkpt><trkpt lat="42.40865552188155" lon="2.597528667864835"><ele>603.0</ele><time>2026-04-09T12:17:26Z</time></trkpt><trkpt lat="42.4087170225317" lon="2.5973821930413683"><ele>603.0</ele><time>2026-04-09T12:17:27Z</time></trkpt><trkpt lat="42.408758489238714" lon="2.597225514027893"><ele>603.0</ele><time>2026-04-09T12:17:28Z</time></trkpt><trkpt lat="42.4087854754328" lon="2.5970656969618418"><ele>603.75</ele><time>2026-04-09T12:17:29Z</time></trkpt><trkpt lat="42.40881456637568" lon="2.596908627540697"><ele>604.5</ele><time>2026-04-09T12:17:30Z</time></trkpt><trkpt lat="42.40884487762437" lon="2.596752419808157"><ele>605.25</ele><time>2026-04-09T12:17:31Z</time></trkpt><trkpt lat="42.40887543734943" lon="2.5966005349052574"><ele>606.0</ele><time>2026-04-09T12:17:32Z</time></trkpt><trkpt lat="42.40890360774509" lon="2.596448986827951"><ele>607.0</ele><time>2026-04-09T12:17:33Z</time></trkpt><trkpt lat="42.408941901114446" lon="2.5963038230300173"><ele>608.0</ele><time>2026-04-09T12:17:34Z</time></trkpt><trkpt lat="42.40899478228705" lon="2.596168718782591"><ele>609.0</ele><time>2026-04-09T12:17:35Z</time></trkpt><trkpt lat="42.40906095581575" lon="2.596046057737444"><ele>610.0</ele><time>2026-04-09T12:17:36Z</time></trkpt><trkpt lat="42.40914315506832" lon="2.595939728022982"><ele>606.25</ele><time>2026-04-09T12:17:37Z</time></trkpt><trkpt lat="42.40924132774326" lon="2.5958468009102047"><ele>602.5</ele><time>2026-04-09T12:17:38Z</time></trkpt><trkpt lat="42.40935281913536" lon="2.59576924667824"><ele>598.75</ele><time>2026-04-09T12:17:39Z</time></trkpt><trkpt lat="42.40947025642911" lon="2.595705817485597"><ele>595.0</ele><time>2026-04-09T12:17:40Z</time></trkpt><trkpt lat="42.40958537457304" lon="2.5956328262580746"><ele>596.5</ele><time>2026-04-09T12:17:41Z</time></trkpt><trkpt lat="42.40969414654356" lon="2.5955533408422213"><ele>598.0</ele><time>2026-04-09T12:17:42Z</time></trkpt><trkpt lat="42.409806968470825" lon="2.5955017728803123"><ele>599.5</ele><time>2026-04-09T12:17:43Z</time></trkpt><trkpt lat="42.40992299665597" lon="2.5954838574075074"><ele>601.0</ele><time>2026-04-09T12:17:44Z</time></trkpt><trkpt lat="42.410042073657465" lon="2.5955127884709817"><ele>601.0</ele><time>2026-04-09T12:17:45Z</time></trkpt><trkpt lat="42.41015981461168" lon="2.595538825344453"><ele>601.0</ele><time>2026-04-09T12:17:46Z</time></trkpt><trkpt lat="42.41027043807941" lon="2.595583286656403"><ele>601.0</ele><time>2026-04-09T12:17:47Z</time></trkpt><trkpt lat="42.4103632312371" lon="2.5956642007057025"><ele>601.0</ele><time>2026-04-09T12:17:48Z</time></trkpt><trkpt lat="42.410440277215855" lon="2.595771867956811"><ele>594.75</ele><time>2026-04-09T12:17:49Z</time></trkpt><trkpt lat="42.41049533628751" lon="2.5959016326518074"><ele>588.5</ele><time>2026-04-09T12:17:50Z</time></trkpt><trkpt lat="42.41052659558944" lon="2.5960537267095334"><ele>582.25</ele><time>2026-04-09T12:17:51Z</time></trkpt><trkpt lat="42.41053812243173" lon="2.5962093978256897"><ele>576.0</ele><time>2026-04-09T12:17:52Z</time></trkpt><trkpt lat="42.41053729722525" lon="2.5963673555743165"><ele>576.0</ele><time>2026-04-09T12:17:53Z</time></trkpt><trkpt lat="42.41050670934622" lon="2.5965286850458633"><ele>576.0</ele><time>2026-04-09T12:17:54Z</time></trkpt><trkpt lat="42.41045828031381" lon="2.596692130060403"><ele>576.0</ele><time>2026-04-09T12:17:55Z</time></trkpt><trkpt lat="42.410406141097106" lon="2.5968613788246433"><ele>576.0</ele><time>2026-04-09T12:17:56Z</time></trkpt><trkpt lat="42.4103613398016" lon="2.597033353654225"><ele>585.25</ele><time>2026-04-09T12:17:57Z</time></trkpt><trkpt lat="42.41032332012781" lon="2.59720448974572"><ele>594.5</ele><time>2026-04-09T12:17:58Z</time></trkpt><trkpt lat="42.410291568344874" lon="2.5973784728069593"><ele>603.75</ele><time>2026-04-09T12:17:59Z</time></trkpt><trkpt lat="42.410267717316614" lon="2.5975543309648157"><ele>613.0</ele><time>2026-04-09T12:18:00Z</time></trkpt><trkpt lat="42.41024651393371" lon="2.5977271831339426"><ele>612.25</ele><time>2026-04-09T12:18:01Z</time></trkpt><trkpt lat="42.4102319035373" lon="2.5978914473242"><ele>611.5</ele><time>2026-04-09T12:18:02Z</time></trkpt><trkpt lat="42.41024223894316" lon="2.598046673539568"><ele>610.75</ele><time>2026-04-09T12:18:03Z</time></trkpt><trkpt lat="42.41028654721376" lon="2.5981994640022887"><ele>610.0</ele><time>2026-04-09T12:18:04Z</time></trkpt><trkpt lat="42.41033067429716" lon="2.598344199650189"><ele>610.0</ele><time>2026-04-09T12:18:05Z</time></trkpt><trkpt lat="42.41035476167889" lon="2.5984933163322443"><ele>610.0</ele><time>2026-04-09T12:18:06Z</time></trkpt><trkpt lat="42.410355149878654" lon="2.59863940811481"><ele>610.0</ele><time>2026-04-09T12:18:07Z</time></trkpt><trkpt lat="42.41032200733492" lon="2.5987727905676965"><ele>610.0</ele><time>2026-04-09T12:18:08Z</time></trkpt><trkpt lat="42.410292973182244" lon="2.598904042323444"><ele>610.0</ele><time>2026-04-09T12:18:09Z</time></trkpt><trkpt lat="42.410283725660676" lon="2.5990358649060767"><ele>610.0</ele><time>2026-04-09T12:18:10Z</time></trkpt><trkpt lat="42.41031960803384" lon="2.599164114603772"><ele>610.0</ele><time>2026-04-09T12:18:11Z</time></trkpt><trkpt lat="42.41038765505497" lon="2.5992715752609916"><ele>610.0</ele><time>2026-04-09T12:18:12Z</time></trkpt><trkpt lat="42.41049441241544" lon="2.5993403137784896"><ele>610.0</ele><time>2026-04-09T12:18:13Z</time></trkpt><trkpt lat="42.41060048865965" lon="2.5993940462032303"><ele>610.0</ele><time>2026-04-09T12:18:14Z</time></trkpt><trkpt lat="42.41071002228782" lon="2.5994249248458177"><ele>606.8</ele><time>2026-04-09T12:18:15Z</time></trkpt><trkpt lat="42.41082221054807" lon="2.5994225167989056"><ele>603.6</ele><time>2026-04-09T12:18:16Z</time></trkpt><trkpt lat="42.410926629348005" lon="2.5994140388364437"><ele>600.4</ele><time>2026-04-09T12:18:17Z</time></trkpt><trkpt lat="42.41101744907674" lon="2.5994299208670264"><ele>597.2</ele><time>2026-04-09T12:18:18Z</time></trkpt><trkpt lat="42.41109834895963" lon="2.599497066453164"><ele>594.0</ele><time>2026-04-09T12:18:19Z</time></trkpt><trkpt lat="42.411158049494496" lon="2.5996016896267102"><ele>594.0</ele><time>2026-04-09T12:18:20Z</time></trkpt><trkpt lat="42.41120133721725" lon="2.599724694525715"><ele>594.0</ele><time>2026-04-09T12:18:21Z</time></trkpt><trkpt lat="42.41125312989302" lon="2.5998338481059693"><ele>594.0</ele><time>2026-04-09T12:18:22Z</time></trkpt><trkpt lat="42.41132224348446" lon="2.599909851596811"><ele>594.0</ele><time>2026-04-09T12:18:23Z</time></trkpt><trkpt lat="42.411404468361006" lon="2.5999295057401492"><ele>594.0</ele><time>2026-04-09T12:18:24Z</time></trkpt><trkpt lat="42.411492924479575" lon="2.5998974701262996"><ele>592.6</ele><time>2026-04-09T12:18:25Z</time></trkpt><trkpt lat="42.41158008960396" lon="2.5998716004843603"><ele>591.2</ele><time>2026-04-09T12:18:26Z</time></trkpt><trkpt lat="42.411651971957504" lon="2.5998008296012665"><ele>589.8000000000001</ele><time>2026-04-09T12:18:27Z</time></trkpt><trkpt lat="42.411690949904404" lon="2.5996836645627144"><ele>588.4</ele><time>2026-04-09T12:18:28Z</time></trkpt><trkpt lat="42.411705321132274" lon="2.599554853700255"><ele>587.0</ele><time>2026-04-09T12:18:29Z</time></trkpt><trkpt lat="42.41171704835204" lon="2.5994138068825943"><ele>584.8000000000001</ele><time>2026-04-09T12:18:30Z</time></trkpt><trkpt lat="42.411744818131744" lon="2.599279480654866"><ele>582.6</ele><time>2026-04-09T12:18:31Z</time></trkpt><trkpt lat="42.41180102771327" lon="2.5991565652292543"><ele>580.4000000000001</ele><time>2026-04-09T12:18:32Z</time></trkpt><trkpt lat="42.41187825657916" lon="2.5990494896449237"><ele>578.2</ele><time>2026-04-09T12:18:33Z</time></trkpt><trkpt lat="42.41197490339399" lon="2.5989572507695504"><ele>576.0</ele><time>2026-04-09T12:18:34Z</time></trkpt><trkpt lat="42.41207573249487" lon="2.5988731442648656"><ele>579.75</ele><time>2026-04-09T12:18:35Z</time></trkpt><trkpt lat="42.41218230395307" lon="2.59881850114013"><ele>583.5</ele><time>2026-04-09T12:18:36Z</time></trkpt><trkpt lat="42.41230090538125" lon="2.5988045188716056"><ele>587.25</ele><time>2026-04-09T12:18:37Z</time></trkpt><trkpt lat="42.412425473462" lon="2.598809979961744"><ele>591.0</ele><time>2026-04-09T12:18:38Z</time></trkpt><trkpt lat="42.41255230079627" lon="2.5988051180964495"><ele>591.0</ele><time>2026-04-09T12:18:39Z</time></trkpt><trkpt lat="42.41268080663994" lon="2.5987786839628426"><ele>591.0</ele><time>2026-04-09T12:18:40Z</time></trkpt><trkpt lat="42.41280679531535" lon="2.5987248718581153"><ele>591.0</ele><time>2026-04-09T12:18:41Z</time></trkpt><trkpt lat="42.412925869183454" lon="2.598651313950708"><ele>591.0</ele><time>2026-04-09T12:18:42Z</time></trkpt><trkpt lat="42.41304379431248" lon="2.5985816356502793"><ele>592.0</ele><time>2026-04-09T12:18:43Z</time></trkpt><trkpt lat="42.413160755034134" lon="2.598531637150155"><ele>593.0</ele><time>2026-04-09T12:18:44Z</time></trkpt><trkpt lat="42.41327334910382" lon="2.5985418752120673"><ele>594.0</ele><time>2026-04-09T12:18:45Z</time></trkpt><trkpt lat="42.41338560274621" lon="2.598618211672861"><ele>595.0</ele><time>2026-04-09T12:18:46Z</time></trkpt><trkpt lat="42.413468497922274" lon="2.5987364779349695"><ele>595.0</ele><time>2026-04-09T12:18:47Z</time></trkpt><trkpt lat="42.413566958093845" lon="2.5988305958202345"><ele>595.0</ele><time>2026-04-09T12:18:48Z</time></trkpt><trkpt lat="42.4136846744302" lon="2.598902671413124"><ele>595.0</ele><time>2026-04-09T12:18:49Z</time></trkpt><trkpt lat="42.4138122492538" lon="2.598971207225545"><ele>595.0</ele><time>2026-04-09T12:18:50Z</time></trkpt><trkpt lat="42.413935230604146" lon="2.599033989175903"><ele>590.75</ele><time>2026-04-09T12:18:51Z</time></trkpt><trkpt lat="42.414067284410834" lon="2.5990689330696837"><ele>586.5</ele><time>2026-04-09T12:18:52Z</time></trkpt><trkpt lat="42.41419910457047" lon="2.599092287741028"><ele>582.25</ele><time>2026-04-09T12:18:53Z</time></trkpt><trkpt lat="42.41432967072221" lon="2.5991395478387678"><ele>578.0</ele><time>2026-04-09T12:18:54Z</time></trkpt><trkpt lat="42.41444427230697" lon="2.599200459906851"><ele>578.0</ele><time>2026-04-09T12:18:55Z</time></trkpt><trkpt lat="42.414538732975636" lon="2.5992801562151633"><ele>578.0</ele><time>2026-04-09T12:18:56Z</time></trkpt><trkpt lat="42.41462864073424" lon="2.599347846215354"><ele>578.0</ele><time>2026-04-09T12:18:57Z</time></trkpt><trkpt lat="42.414733128955625" lon="2.5993704376265367"><ele>578.0</ele><time>2026-04-09T12:18:58Z</time></trkpt><trkpt lat="42.41484211618281" lon="2.5993536070721257"><ele>578.0</ele><time>2026-04-09T12:18:59Z</time></trkpt><trkpt lat="42.41495814469174" lon="2.599346980284894"><ele>574.25</ele><time>2026-04-09T12:19:00Z</time></trkpt><trkpt lat="42.4150832374304" lon="2.59935207470713"><ele>570.5</ele><time>2026-04-09T12:19:01Z</time></trkpt><trkpt lat="42.41520976451772" lon="2.599351210750639"><ele>566.75</ele><time>2026-04-09T12:19:02Z</time></trkpt><trkpt lat="42.415335864226726" lon="2.5993299462353696"><ele>563.0</ele><time>2026-04-09T12:19:03Z</time></trkpt><trkpt lat="42.41546803024393" lon="2.5993002195851185"><ele>562.75</ele><time>2026-04-09T12:19:04Z</time></trkpt><trkpt lat="42.41559586374809" lon="2.599256561216817"><ele>562.5</ele><time>2026-04-09T12:19:05Z</time></trkpt><trkpt lat="42.41572207517952" lon="2.5992166840210835"><ele>562.25</ele><time>2026-04-09T12:19:06Z</time></trkpt><trkpt lat="42.415849854192594" lon="2.599190367565113"><ele>562.0</ele><time>2026-04-09T12:19:07Z</time></trkpt><trkpt lat="42.4159793480202" lon="2.5991799431606526"><ele>562.0</ele><time>2026-04-09T12:19:08Z</time></trkpt><trkpt lat="42.41611005426844" lon="2.5991634388979774"><ele>562.0</ele><time>2026-04-09T12:19:09Z</time></trkpt><trkpt lat="42.41623747294567" lon="2.5991374272687704"><ele>562.0</ele><time>2026-04-09T12:19:10Z</time></trkpt><trkpt lat="42.41636612706335" lon="2.5991127820947373"><ele>562.0</ele><time>2026-04-09T12:19:11Z</time></trkpt><trkpt lat="42.41649295725843" lon="2.599080751249951"><ele>560.8000000000001</ele><time>2026-04-09T12:19:12Z</time></trkpt><trkpt lat="42.416612214464465" lon="2.599054355338406"><ele>559.6</ele><time>2026-04-09T12:19:13Z</time></trkpt><trkpt lat="42.4167191037178" lon="2.5990338762407914"><ele>558.4000000000001</ele><time>2026-04-09T12:19:14Z</time></trkpt><trkpt lat="42.41682143361268" lon="2.5990240009373102"><ele>557.2</ele><time>2026-04-09T12:19:15Z</time></trkpt><trkpt lat="42.416911552118464" lon="2.5990430515184664"><ele>556.0</ele><time>2026-04-09T12:19:16Z</time></trkpt><trkpt lat="42.41698708420142" lon="2.5990999776900368"><ele>556.0</ele><time>2026-04-09T12:19:17Z</time></trkpt><trkpt lat="42.41704139094613" lon="2.599201998476183"><ele>556.0</ele><time>2026-04-09T12:19:18Z</time></trkpt><trkpt lat="42.417052438918255" lon="2.5993322662469818"><ele>556.0</ele><time>2026-04-09T12:19:19Z</time></trkpt><trkpt lat="42.417030673126675" lon="2.59946162564776"><ele>556.0</ele><time>2026-04-09T12:19:20Z</time></trkpt><trkpt lat="42.41699272496372" lon="2.599595824942438"><ele>556.0</ele><time>2026-04-09T12:19:21Z</time></trkpt><trkpt lat="42.416959560190456" lon="2.599731627115597"><ele>557.25</ele><time>2026-04-09T12:19:22Z</time></trkpt><trkpt lat="42.416912257502496" lon="2.5998686248726535"><ele>558.5</ele><time>2026-04-09T12:19:23Z</time></trkpt><trkpt lat="42.41684919177817" lon="2.5999963980781096"><ele>559.75</ele><time>2026-04-09T12:19:24Z</time></trkpt><trkpt lat="42.41677455335062" lon="2.6001101200117125"><ele>561.0</ele><time>2026-04-09T12:19:25Z</time></trkpt><trkpt lat="42.41669024157362" lon="2.6002196908553357"><ele>561.0</ele><time>2026-04-09T12:19:26Z</time></trkpt><trkpt lat="42.416610885140415" lon="2.6003274597722643"><ele>561.0</ele><time>2026-04-09T12:19:27Z</time></trkpt><trkpt lat="42.41654557160921" lon="2.6004302891128668"><ele>561.0</ele><time>2026-04-09T12:19:28Z</time></trkpt><trkpt lat="42.41648204241194" lon="2.6005185719728408"><ele>561.0</ele><time>2026-04-09T12:19:29Z</time></trkpt><trkpt lat="42.41642838236867" lon="2.6006003518447858"><ele>561.0</ele><time>2026-04-09T12:19:30Z</time></trkpt><trkpt lat="42.416396692698136" lon="2.600693205190091"><ele>561.3333333333334</ele><time>2026-04-09T12:19:31Z</time></trkpt><trkpt lat="42.41640113811119" lon="2.6007985794960105"><ele>561.6666666666666</ele><time>2026-04-09T12:19:32Z</time></trkpt><trkpt lat="42.416438908096445" lon="2.600885773158723"><ele>562.0</ele><time>2026-04-09T12:19:33Z</time></trkpt><trkpt lat="42.416491118762565" lon="2.600954001452869"><ele>562.3333333333333</ele><time>2026-04-09T12:19:34Z</time></trkpt><trkpt lat="42.416560791338874" lon="2.6010025548904445"><ele>562.6666666666666</ele><time>2026-04-09T12:19:35Z</time></trkpt><trkpt lat="42.41663987363838" lon="2.601001094066749"><ele>563.0</ele><time>2026-04-09T12:19:36Z</time></trkpt><trkpt lat="42.41672595666232" lon="2.6009566639536223"><ele>563.0</ele><time>2026-04-09T12:19:37Z</time></trkpt><trkpt lat="42.41680577172616" lon="2.600891501154433"><ele>563.0</ele><time>2026-04-09T12:19:38Z</time></trkpt><trkpt lat="42.41689692684849" lon="2.600821371272738"><ele>563.0</ele><time>2026-04-09T12:19:39Z</time></trkpt><trkpt lat="42.417001306914045" lon="2.600755692455086"><ele>563.0</ele><time>2026-04-09T12:19:40Z</time></trkpt><trkpt lat="42.41710648860099" lon="2.6006934261207157"><ele>563.0</ele><time>2026-04-09T12:19:41Z</time></trkpt><trkpt lat="42.417212430444096" lon="2.600627592434995"><ele>564.75</ele><time>2026-04-09T12:19:42Z</time></trkpt><trkpt lat="42.417310197056175" lon="2.6005423789815567"><ele>566.5</ele><time>2026-04-09T12:19:43Z</time></trkpt><trkpt lat="42.41739364465319" lon="2.600406502336653"><ele>568.25</ele><time>2026-04-09T12:19:44Z</time></trkpt><trkpt lat="42.41748117892645" lon="2.600263703311094"><ele>570.0</ele><time>2026-04-09T12:19:45Z</time></trkpt><trkpt lat="42.4175791469096" lon="2.600124577583167"><ele>571.5</ele><time>2026-04-09T12:19:46Z</time></trkpt><trkpt lat="42.41767617581994" lon="2.599980098180751"><ele>573.0</ele><time>2026-04-09T12:19:47Z</time></trkpt><trkpt lat="42.41777046651722" lon="2.5998382082544342"><ele>574.5</ele><time>2026-04-09T12:19:48Z</time></trkpt><trkpt lat="42.41787412280094" lon="2.599710954029476"><ele>576.0</ele><time>2026-04-09T12:19:49Z</time></trkpt><trkpt lat="42.41798780855712" lon="2.5995997713405443"><ele>570.75</ele><time>2026-04-09T12:19:50Z</time></trkpt><trkpt lat="42.41809436146382" lon="2.599482072613856"><ele>565.5</ele><time>2026-04-09T12:19:51Z</time></trkpt><trkpt lat="42.418190322050656" lon="2.5993517999895968"><ele>560.25</ele><time>2026-04-09T12:19:52Z</time></trkpt><trkpt lat="42.418277943824606" lon="2.5992058717847284"><ele>555.0</ele><time>2026-04-09T12:19:53Z</time></trkpt><trkpt lat="42.41835087060357" lon="2.5990351253531396"><ele>555.0</ele><time>2026-04-09T12:19:54Z</time></trkpt><trkpt lat="42.41842296719503" lon="2.598856643313883"><ele>555.0</ele><time>2026-04-09T12:19:55Z</time></trkpt><trkpt lat="42.418491615515826" lon="2.59866979378562"><ele>555.0</ele><time>2026-04-09T12:19:56Z</time></trkpt><trkpt lat="42.418550051305274" lon="2.5984806530632047"><ele>550.75</ele><time>2026-04-09T12:19:57Z</time></trkpt><trkpt lat="42.418596874262995" lon="2.5982899502579215"><ele>546.5</ele><time>2026-04-09T12:19:58Z</time></trkpt><trkpt lat="42.41863966726418" lon="2.5980977911667753"><ele>542.25</ele><time>2026-04-09T12:19:59Z</time></trkpt><trkpt lat="42.41868152240932" lon="2.597907258937324"><ele>538.0</ele><time>2026-04-09T12:20:00Z</time></trkpt><trkpt lat="42.41870686728691" lon="2.5977151620931753"><ele>536.25</ele><time>2026-04-09T12:20:01Z</time></trkpt><trkpt lat="42.418708838437404" lon="2.597520404302782"><ele>534.5</ele><time>2026-04-09T12:20:02Z</time></trkpt><trkpt lat="42.4186794789006" lon="2.597331109564052"><ele>532.75</ele><time>2026-04-09T12:20:03Z</time></trkpt><trkpt lat="42.418635002861095" lon="2.597146915702476"><ele>531.0</ele><time>2026-04-09T12:20:04Z</time></trkpt><trkpt lat="42.41857207231647" lon="2.596989122083867"><ele>530.5</ele><time>2026-04-09T12:20:05Z</time></trkpt><trkpt lat="42.418493707537145" lon="2.596859575144903"><ele>530.0</ele><time>2026-04-09T12:20:06Z</time></trkpt><trkpt lat="42.418414164328844" lon="2.596746644454872"><ele>529.5</ele><time>2026-04-09T12:20:07Z</time></trkpt><trkpt lat="42.41836513956225" lon="2.596610274311487"><ele>529.0</ele><time>2026-04-09T12:20:08Z</time></trkpt><trkpt lat="42.41836014273875" lon="2.596452910532488"><ele>529.0</ele><time>2026-04-09T12:20:09Z</time></trkpt><trkpt lat="42.41840882456019" lon="2.5963105548401177"><ele>529.0</ele><time>2026-04-09T12:20:10Z</time></trkpt><trkpt lat="42.41848727955759" lon="2.596185253656315"><ele>529.0</ele><time>2026-04-09T12:20:11Z</time></trkpt><trkpt lat="42.41857169396282" lon="2.5960564605776515"><ele>529.0</ele><time>2026-04-09T12:20:12Z</time></trkpt><trkpt lat="42.41866232501568" lon="2.5959198828899126"><ele>527.5</ele><time>2026-04-09T12:20:13Z</time></trkpt><trkpt lat="42.41876928485598" lon="2.5958018541669863"><ele>526.0</ele><time>2026-04-09T12:20:14Z</time></trkpt><trkpt lat="42.41888854520596" lon="2.595705045515065"><ele>524.5</ele><time>2026-04-09T12:20:15Z</time></trkpt><trkpt lat="42.41902364142011" lon="2.595625536340548"><ele>523.0</ele><time>2026-04-09T12:20:16Z</time></trkpt><trkpt lat="42.41916454370849" lon="2.5955541163650904"><ele>528.75</ele><time>2026-04-09T12:20:17Z</time></trkpt><trkpt lat="42.41930369861553" lon="2.59549670106797"><ele>534.5</ele><time>2026-04-09T12:20:18Z</time></trkpt><trkpt lat="42.41943433551958" lon="2.595469119143936"><ele>540.25</ele><time>2026-04-09T12:20:19Z</time></trkpt><trkpt lat="42.419551802868604" lon="2.5954719094284173"><ele>546.0</ele><time>2026-04-09T12:20:20Z</time></trkpt><trkpt lat="42.419657842605694" lon="2.5954888386499437"><ele>544.2</ele><time>2026-04-09T12:20:21Z</time></trkpt><trkpt lat="42.41975998415181" lon="2.5954868757782585"><ele>542.4000000000001</ele><time>2026-04-09T12:20:22Z</time></trkpt><trkpt lat="42.41984924317456" lon="2.5954543588542527"><ele>540.6</ele><time>2026-04-09T12:20:23Z</time></trkpt><trkpt lat="42.41992826168592" lon="2.5953813454589776"><ele>538.8000000000001</ele><time>2026-04-09T12:20:24Z</time></trkpt><trkpt lat="42.41998780700253" lon="2.595283757177059"><ele>537.0</ele><time>2026-04-09T12:20:25Z</time></trkpt><trkpt lat="42.42000684652065" lon="2.5951693430527087"><ele>537.0</ele><time>2026-04-09T12:20:26Z</time></trkpt><trkpt lat="42.41998842344028" lon="2.595046480565298"><ele>537.0</ele><time>2026-04-09T12:20:27Z</time></trkpt><trkpt lat="42.419959094433025" lon="2.594916917155325"><ele>537.0</ele><time>2026-04-09T12:20:28Z</time></trkpt><trkpt lat="42.419951501412775" lon="2.594782709333322"><ele>537.0</ele><time>2026-04-09T12:20:29Z</time></trkpt><trkpt lat="42.41997803521898" lon="2.594643091000713"><ele>537.0</ele><time>2026-04-09T12:20:30Z</time></trkpt><trkpt lat="42.42002648829001" lon="2.5945019794853335"><ele>532.5</ele><time>2026-04-09T12:20:31Z</time></trkpt><trkpt lat="42.42008183029354" lon="2.5943571014464513"><ele>528.0</ele><time>2026-04-09T12:20:32Z</time></trkpt><trkpt lat="42.42012899660936" lon="2.5941973236055675"><ele>523.5</ele><time>2026-04-09T12:20:33Z</time></trkpt><trkpt lat="42.42015912693895" lon="2.5940258723643397"><ele>519.0</ele><time>2026-04-09T12:20:34Z</time></trkpt><trkpt lat="42.42017617970961" lon="2.5938410656191975"><ele>514.75</ele><time>2026-04-09T12:20:35Z</time></trkpt><trkpt lat="42.420179723951705" lon="2.593658920304091"><ele>510.5</ele><time>2026-04-09T12:20:36Z</time></trkpt><trkpt lat="42.42014807814186" lon="2.593485325562758"><ele>506.25</ele><time>2026-04-09T12:20:37Z</time></trkpt><trkpt lat="42.420120901289195" lon="2.593333864270638"><ele>502.0</ele><time>2026-04-09T12:20:38Z</time></trkpt><trkpt lat="42.420105709134695" lon="2.593202443068939"><ele>502.0</ele><time>2026-04-09T12:20:39Z</time></trkpt><trkpt lat="42.42013211441765" lon="2.5930817209231383"><ele>502.00000000000006</ele><time>2026-04-09T12:20:40Z</time></trkpt><trkpt lat="42.42019601953268" lon="2.592967046060856"><ele>502.00000000000006</ele><time>2026-04-09T12:20:41Z</time></trkpt><trkpt lat="42.420290608278904" lon="2.592883109361408"><ele>502.0</ele><time>2026-04-09T12:20:42Z</time></trkpt><trkpt lat="42.42040638710768" lon="2.5928416606585993"><ele>502.0</ele><time>2026-04-09T12:20:43Z</time></trkpt><trkpt lat="42.420529936441326" lon="2.592823222112146"><ele>507.25</ele><time>2026-04-09T12:20:44Z</time></trkpt><trkpt lat="42.42064734665063" lon="2.592788998062709"><ele>512.5</ele><time>2026-04-09T12:20:45Z</time></trkpt><trkpt lat="42.42075377667638" lon="2.592713892564112"><ele>517.75</ele><time>2026-04-09T12:20:46Z</time></trkpt><trkpt lat="42.42084796268519" lon="2.592609647402193"><ele>523.0</ele><time>2026-04-09T12:20:47Z</time></trkpt><trkpt lat="42.42092754541505" lon="2.5924793509527864"><ele>523.0</ele><time>2026-04-09T12:20:48Z</time></trkpt><trkpt lat="42.420962559753235" lon="2.59232290080037"><ele>523.0</ele><time>2026-04-09T12:20:49Z</time></trkpt><trkpt lat="42.42094540825324" lon="2.5921535142144574"><ele>523.0</ele><time>2026-04-09T12:20:50Z</time></trkpt><trkpt lat="42.42094792563592" lon="2.5919926303125695"><ele>523.0</ele><time>2026-04-09T12:20:51Z</time></trkpt><trkpt lat="42.420997787909336" lon="2.5918353166204793"><ele>517.5</ele><time>2026-04-09T12:20:52Z</time></trkpt><trkpt lat="42.4210769235411" lon="2.5917051284482393"><ele>512.0</ele><time>2026-04-09T12:20:53Z</time></trkpt><trkpt lat="42.421174840279335" lon="2.591592845941567"><ele>506.5</ele><time>2026-04-09T12:20:54Z</time></trkpt><trkpt lat="42.421238904821756" lon="2.591449533986582"><ele>501.0</ele><time>2026-04-09T12:20:55Z</time></trkpt><trkpt lat="42.42126577931483" lon="2.5912823177471056"><ele>495.5</ele><time>2026-04-09T12:20:56Z</time></trkpt><trkpt lat="42.421267586835626" lon="2.5911051204142574"><ele>490.0</ele><time>2026-04-09T12:20:57Z</time></trkpt><trkpt lat="42.421250427500624" lon="2.590919760885275"><ele>484.5</ele><time>2026-04-09T12:20:58Z</time></trkpt><trkpt lat="42.421227311902534" lon="2.5907339567803525"><ele>479.0</ele><time>2026-04-09T12:20:59Z</time></trkpt><trkpt lat="42.421214616105246" lon="2.5905550856240405"><ele>479.0</ele><time>2026-04-09T12:21:00Z</time></trkpt><trkpt lat="42.42122370131163" lon="2.59039862073145"><ele>479.0</ele><time>2026-04-09T12:21:01Z</time></trkpt><trkpt lat="42.42126615309257" lon="2.5902438733993565"><ele>479.0</ele><time>2026-04-09T12:21:02Z</time></trkpt><trkpt lat="42.4213395457763" lon="2.5901067457620432"><ele>479.0</ele><time>2026-04-09T12:21:03Z</time></trkpt><trkpt lat="42.42141081476298" lon="2.5899635537491545"><ele>484.75</ele><time>2026-04-09T12:21:04Z</time></trkpt><trkpt lat="42.421480262824275" lon="2.5898304779375603"><ele>490.5</ele><time>2026-04-09T12:21:05Z</time></trkpt><trkpt lat="42.42155152024563" lon="2.5897158103915596"><ele>496.25</ele><time>2026-04-09T12:21:06Z</time></trkpt><trkpt lat="42.4216451171819" lon="2.5896344750489435"><ele>502.0</ele><time>2026-04-09T12:21:07Z</time></trkpt><trkpt lat="42.4217556444949" lon="2.5895930421177717"><ele>502.0</ele><time>2026-04-09T12:21:08Z</time></trkpt><trkpt lat="42.42187856785561" lon="2.589584742998968"><ele>502.0</ele><time>2026-04-09T12:21:09Z</time></trkpt><trkpt lat="42.422006215718625" lon="2.589606440089766"><ele>502.0</ele><time>2026-04-09T12:21:10Z</time></trkpt><trkpt lat="42.42213996302153" lon="2.5896399598357207"><ele>502.0</ele><time>2026-04-09T12:21:11Z</time></trkpt><trkpt lat="42.422268079106004" lon="2.5896942821897593"><ele>502.0</ele><time>2026-04-09T12:21:12Z</time></trkpt><trkpt lat="42.422381303241245" lon="2.589777824310961"><ele>502.0</ele><time>2026-04-09T12:21:13Z</time></trkpt><trkpt lat="42.422480858776254" lon="2.5898963611367987"><ele>502.0</ele><time>2026-04-09T12:21:14Z</time></trkpt><trkpt lat="42.422553651296745" lon="2.5900472316040846"><ele>502.0</ele><time>2026-04-09T12:21:15Z</time></trkpt><trkpt lat="42.42262691427414" lon="2.590189752000003"><ele>502.0</ele><time>2026-04-09T12:21:16Z</time></trkpt><trkpt lat="42.42272481260713" lon="2.5903140669619233"><ele>502.0</ele><time>2026-04-09T12:21:17Z</time></trkpt><trkpt lat="42.422822800164646" lon="2.5904291137687148"><ele>502.0</ele><time>2026-04-09T12:21:18Z</time></trkpt><trkpt lat="42.422924934080775" lon="2.590553390837579"><ele>502.0</ele><time>2026-04-09T12:21:19Z</time></trkpt><trkpt lat="42.423027490841164" lon="2.590676403025943"><ele>500.75</ele><time>2026-04-09T12:21:20Z</time></trkpt><trkpt lat="42.42314124952424" lon="2.5907826288202647"><ele>499.5</ele><time>2026-04-09T12:21:21Z</time></trkpt><trkpt lat="42.42327458147815" lon="2.590852533049597"><ele>498.25</ele><time>2026-04-09T12:21:22Z</time></trkpt><trkpt lat="42.42340997575375" lon="2.5908992552917973"><ele>497.0</ele><time>2026-04-09T12:21:23Z</time></trkpt><trkpt lat="42.42353797541078" lon="2.5909866734078166"><ele>497.0</ele><time>2026-04-09T12:21:24Z</time></trkpt><trkpt lat="42.423650205542074" lon="2.5911100476124393"><ele>497.0</ele><time>2026-04-09T12:21:25Z</time></trkpt><trkpt lat="42.4237622150381" lon="2.5912351552218733"><ele>497.0</ele><time>2026-04-09T12:21:26Z</time></trkpt><trkpt lat="42.42388388662452" lon="2.591344237555992"><ele>497.0</ele><time>2026-04-09T12:21:27Z</time></trkpt><trkpt lat="42.42401559531443" lon="2.5914298353473284"><ele>498.25</ele><time>2026-04-09T12:21:28Z</time></trkpt><trkpt lat="42.42414478226569" lon="2.59151179016174"><ele>499.5</ele><time>2026-04-09T12:21:29Z</time></trkpt><trkpt lat="42.42427711631902" lon="2.5916062994055373"><ele>500.75</ele><time>2026-04-09T12:21:30Z</time></trkpt><trkpt lat="42.42440481838435" lon="2.59170828951823"><ele>502.0</ele><time>2026-04-09T12:21:31Z</time></trkpt><trkpt lat="42.424517496105935" lon="2.591809438118016"><ele>502.0</ele><time>2026-04-09T12:21:32Z</time></trkpt><trkpt lat="42.42462262639358" lon="2.591893863400427"><ele>502.0</ele><time>2026-04-09T12:21:33Z</time></trkpt><trkpt lat="42.42474072914537" lon="2.5919383014610804"><ele>502.0</ele><time>2026-04-09T12:21:34Z</time></trkpt><trkpt lat="42.4248686267498" lon="2.5919385287169683"><ele>502.0</ele><time>2026-04-09T12:21:35Z</time></trkpt><trkpt lat="42.42500685458834" lon="2.5919272896830408"><ele>493.25</ele><time>2026-04-09T12:21:36Z</time></trkpt><trkpt lat="42.42515473695885" lon="2.5919231723574003"><ele>484.5</ele><time>2026-04-09T12:21:37Z</time></trkpt><trkpt lat="42.42530051511305" lon="2.5919241790618823"><ele>475.75</ele><time>2026-04-09T12:21:38Z</time></trkpt><trkpt lat="42.42544786829681" lon="2.5919267440811837"><ele>467.0</ele><time>2026-04-09T12:21:39Z</time></trkpt><trkpt lat="42.4255968273797" lon="2.5919116152775175"><ele>465.66666666666663</ele><time>2026-04-09T12:21:40Z</time></trkpt><trkpt lat="42.42573991945788" lon="2.5918526575650493"><ele>464.33333333333337</ele><time>2026-04-09T12:21:41Z</time></trkpt><trkpt lat="42.42588679873182" lon="2.5918150192438736"><ele>463.0</ele><time>2026-04-09T12:21:42Z</time></trkpt><trkpt lat="42.42603827491682" lon="2.591804037914972"><ele>463.0</ele><time>2026-04-09T12:21:43Z</time></trkpt><trkpt lat="42.4261902108699" lon="2.5917998455993385"><ele>463.0</ele><time>2026-04-09T12:21:44Z</time></trkpt><trkpt lat="42.426343196717205" lon="2.5917985265777803"><ele>463.0</ele><time>2026-04-09T12:21:45Z</time></trkpt><trkpt lat="42.426484861436" lon="2.5918049701808554"><ele>463.0</ele><time>2026-04-09T12:21:46Z</time></trkpt><trkpt lat="42.42661660028884" lon="2.591811946484925"><ele>461.5</ele><time>2026-04-09T12:21:47Z</time></trkpt><trkpt lat="42.426734360477795" lon="2.591817141420316"><ele>460.0</ele><time>2026-04-09T12:21:48Z</time></trkpt><trkpt lat="42.426857220059055" lon="2.5918477991787925"><ele>458.5</ele><time>2026-04-09T12:21:49Z</time></trkpt><trkpt lat="42.42697436654388" lon="2.5919196531451916"><ele>457.0</ele><time>2026-04-09T12:21:50Z</time></trkpt><trkpt lat="42.427078920602916" lon="2.5920183551189497"><ele>455.75</ele><time>2026-04-09T12:21:51Z</time></trkpt><trkpt lat="42.427170337114035" lon="2.5921149626950246"><ele>454.5</ele><time>2026-04-09T12:21:52Z</time></trkpt><trkpt lat="42.427244090070346" lon="2.5922237218896615"><ele>453.25</ele><time>2026-04-09T12:21:53Z</time></trkpt><trkpt lat="42.42728765801388" lon="2.5923590031446504"><ele>452.0</ele><time>2026-04-09T12:21:54Z</time></trkpt><trkpt lat="42.42730130359639" lon="2.5925149470928126"><ele>452.0</ele><time>2026-04-09T12:21:55Z</time></trkpt><trkpt lat="42.42728674216285" lon="2.5926731621618275"><ele>452.0</ele><time>2026-04-09T12:21:56Z</time></trkpt><trkpt lat="42.42727642275218" lon="2.5928261853368486"><ele>452.0</ele><time>2026-04-09T12:21:57Z</time></trkpt><trkpt lat="42.42727730904936" lon="2.592981594495017"><ele>452.0</ele><time>2026-04-09T12:21:58Z</time></trkpt><trkpt lat="42.42731407939222" lon="2.5931299071113862"><ele>454.75</ele><time>2026-04-09T12:21:59Z</time></trkpt><trkpt lat="42.42737116512805" lon="2.593270296857039"><ele>457.5</ele><time>2026-04-09T12:22:00Z</time></trkpt><trkpt lat="42.42742261827144" lon="2.593424104489692"><ele>460.25</ele><time>2026-04-09T12:22:01Z</time></trkpt><trkpt lat="42.427460181217235" lon="2.593586355384031"><ele>463.0</ele><time>2026-04-09T12:22:02Z</time></trkpt><trkpt lat="42.4275125996612" lon="2.593737391757479"><ele>468.75</ele><time>2026-04-09T12:22:03Z</time></trkpt><trkpt lat="42.427598439673766" lon="2.5938598583474124"><ele>474.5</ele><time>2026-04-09T12:22:04Z</time></trkpt><trkpt lat="42.42770430036376" lon="2.5939490160215066"><ele>480.25</ele><time>2026-04-09T12:22:05Z</time></trkpt><trkpt lat="42.42782048863863" lon="2.5940185349684"><ele>486.0</ele><time>2026-04-09T12:22:06Z</time></trkpt><trkpt lat="42.42792287559334" lon="2.5941254849534072"><ele>481.25</ele><time>2026-04-09T12:22:07Z</time></trkpt><trkpt lat="42.42801314117188" lon="2.59425985367245"><ele>476.5</ele><time>2026-04-09T12:22:08Z</time></trkpt><trkpt lat="42.42810213661575" lon="2.594397005375911"><ele>471.75</ele><time>2026-04-09T12:22:09Z</time></trkpt><trkpt lat="42.428207114679566" lon="2.5945262740510078"><ele>467.0</ele><time>2026-04-09T12:22:10Z</time></trkpt><trkpt lat="42.42829455956105" lon="2.594649702886294"><ele>467.0</ele><time>2026-04-09T12:22:11Z</time></trkpt><trkpt lat="42.42836954647179" lon="2.5947616966455445"><ele>467.00000000000006</ele><time>2026-04-09T12:22:12Z</time></trkpt><trkpt lat="42.42842159446978" lon="2.5948829207375597"><ele>467.00000000000006</ele><time>2026-04-09T12:22:13Z</time></trkpt><trkpt lat="42.42845034151758" lon="2.595013453561242"><ele>467.0</ele><time>2026-04-09T12:22:14Z</time></trkpt><trkpt lat="42.4284852989788" lon="2.595137860219471"><ele>467.0</ele><time>2026-04-09T12:22:15Z</time></trkpt><trkpt lat="42.42852409157649" lon="2.5952344980583977"><ele>466.99999999999994</ele><time>2026-04-09T12:22:16Z</time></trkpt><trkpt lat="42.42858507153877" lon="2.5952947472111494"><ele>467.0</ele><time>2026-04-09T12:22:17Z</time></trkpt><trkpt lat="42.42866662540522" lon="2.595292724299072"><ele>467.0</ele><time>2026-04-09T12:22:18Z</time></trkpt><trkpt lat="42.428742381660975" lon="2.595223782098329"><ele>467.0</ele><time>2026-04-09T12:22:19Z</time></trkpt><trkpt lat="42.42879484406216" lon="2.595118909127704"><ele>466.99999999999994</ele><time>2026-04-09T12:22:20Z</time></trkpt><trkpt lat="42.42885232489278" lon="2.5950002336780242"><ele>467.0</ele><time>2026-04-09T12:22:21Z</time></trkpt><trkpt lat="42.428939762322344" lon="2.5949040500338945"><ele>466.75</ele><time>2026-04-09T12:22:22Z</time></trkpt><trkpt lat="42.42904754024003" lon="2.5948311550964105"><ele>466.5</ele><time>2026-04-09T12:22:23Z</time></trkpt><trkpt lat="42.429165666322184" lon="2.5947573649124043"><ele>466.25</ele><time>2026-04-09T12:22:24Z</time></trkpt><trkpt lat="42.429280059670326" lon="2.5946703210035866"><ele>466.0</ele><time>2026-04-09T12:22:25Z</time></trkpt><trkpt lat="42.42938713571077" lon="2.594569631695487"><ele>462.0</ele><time>2026-04-09T12:22:26Z</time></trkpt><trkpt lat="42.429488853913824" lon="2.594462520109906"><ele>458.0</ele><time>2026-04-09T12:22:27Z</time></trkpt><trkpt lat="42.42959697110086" lon="2.5943994486769726"><ele>454.0</ele><time>2026-04-09T12:22:28Z</time></trkpt><trkpt lat="42.42971021197929" lon="2.594328202729612"><ele>450.0</ele><time>2026-04-09T12:22:29Z</time></trkpt><trkpt lat="42.429801690984846" lon="2.594207224934359"><ele>450.0</ele><time>2026-04-09T12:22:30Z</time></trkpt><trkpt lat="42.42987323409582" lon="2.594052711578365"><ele>450.0</ele><time>2026-04-09T12:22:31Z</time></trkpt><trkpt lat="42.429930047849936" lon="2.593890599417623"><ele>450.0</ele><time>2026-04-09T12:22:32Z</time></trkpt><trkpt lat="42.42995801259552" lon="2.593711369751867"><ele>450.0</ele><time>2026-04-09T12:22:33Z</time></trkpt><trkpt lat="42.42998705083886" lon="2.593526505470062"><ele>442.5</ele><time>2026-04-09T12:22:34Z</time></trkpt><trkpt lat="42.430036398757224" lon="2.5933494392014245"><ele>435.0</ele><time>2026-04-09T12:22:35Z</time></trkpt><trkpt lat="42.43010074858427" lon="2.593178830548624"><ele>427.5</ele><time>2026-04-09T12:22:36Z</time></trkpt><trkpt lat="42.430173549542495" lon="2.593016156791447"><ele>420.0</ele><time>2026-04-09T12:22:37Z</time></trkpt><trkpt lat="42.43024252471301" lon="2.5928711736723637"><ele>417.6</ele><time>2026-04-09T12:22:38Z</time></trkpt><trkpt lat="42.43030790871104" lon="2.5927430138124956"><ele>415.2</ele><time>2026-04-09T12:22:39Z</time></trkpt><trkpt lat="42.43038957894894" lon="2.5926570690376343"><ele>412.79999999999995</ele><time>2026-04-09T12:22:40Z</time></trkpt><trkpt lat="42.430487046760106" lon="2.5926392176724558"><ele>410.4</ele><time>2026-04-09T12:22:41Z</time></trkpt><trkpt lat="42.43057793239929" lon="2.592697030421288"><ele>408.0</ele><time>2026-04-09T12:22:42Z</time></trkpt><trkpt lat="42.43063167733725" lon="2.592806221540389"><ele>414.5</ele><time>2026-04-09T12:22:43Z</time></trkpt><trkpt lat="42.43066589363664" lon="2.5929411234914235"><ele>421.0</ele><time>2026-04-09T12:22:44Z</time></trkpt><trkpt lat="42.430717659377834" lon="2.593076231164893"><ele>427.5</ele><time>2026-04-09T12:22:45Z</time></trkpt><trkpt lat="42.43078851702183" lon="2.593211981051022"><ele>434.0</ele><time>2026-04-09T12:22:46Z</time></trkpt><trkpt lat="42.43087710331021" lon="2.593334894871149"><ele>434.0</ele><time>2026-04-09T12:22:47Z</time></trkpt><trkpt lat="42.43098138089995" lon="2.59345854930864"><ele>434.0</ele><time>2026-04-09T12:22:48Z</time></trkpt><trkpt lat="42.431067696135884" lon="2.593611887967495"><ele>434.0</ele><time>2026-04-09T12:22:49Z</time></trkpt><trkpt lat="42.431137941303945" lon="2.5937786546465773"><ele>434.0</ele><time>2026-04-09T12:22:50Z</time></trkpt><trkpt lat="42.431218646378554" lon="2.5939341816828354"><ele>432.0</ele><time>2026-04-09T12:22:51Z</time></trkpt><trkpt lat="42.43131577416308" lon="2.5940840499221505"><ele>430.0</ele><time>2026-04-09T12:22:52Z</time></trkpt><trkpt lat="42.43140014583484" lon="2.594243221574076"><ele>428.0</ele><time>2026-04-09T12:22:53Z</time></trkpt><trkpt lat="42.431444311768836" lon="2.5944203413711966"><ele>426.0</ele><time>2026-04-09T12:22:54Z</time></trkpt><trkpt lat="42.43148107824799" lon="2.594592577008452"><ele>426.0</ele><time>2026-04-09T12:22:55Z</time></trkpt><trkpt lat="42.43153372298838" lon="2.594762701163502"><ele>426.0</ele><time>2026-04-09T12:22:56Z</time></trkpt><trkpt lat="42.431632297925006" lon="2.594901428343063"><ele>426.0</ele><time>2026-04-09T12:22:57Z</time></trkpt><trkpt lat="42.43173973497007" lon="2.5950141419818755"><ele>426.0</ele><time>2026-04-09T12:22:58Z</time></trkpt><trkpt lat="42.43183251981637" lon="2.595153580605708"><ele>426.0</ele><time>2026-04-09T12:22:59Z</time></trkpt><trkpt lat="42.43190161626225" lon="2.5953170818545996"><ele>426.0</ele><time>2026-04-09T12:23:00Z</time></trkpt><trkpt lat="42.431934524491055" lon="2.595477959711509"><ele>426.0</ele><time>2026-04-09T12:23:01Z</time></trkpt><trkpt lat="42.43201005442436" lon="2.595613114584298"><ele>426.0</ele><time>2026-04-09T12:23:02Z</time></trkpt><trkpt lat="42.432091635031895" lon="2.595724120000848"><ele>424.0</ele><time>2026-04-09T12:23:03Z</time></trkpt><trkpt lat="42.43215907601487" lon="2.595829176056348"><ele>422.0</ele><time>2026-04-09T12:23:04Z</time></trkpt><trkpt lat="42.43219749706742" lon="2.59595418395895"><ele>420.0</ele><time>2026-04-09T12:23:05Z</time></trkpt><trkpt lat="42.43219836294334" lon="2.596082306417223"><ele>418.0</ele><time>2026-04-09T12:23:06Z</time></trkpt><trkpt lat="42.43220025027096" lon="2.5961876239185337"><ele>416.0</ele><time>2026-04-09T12:23:07Z</time></trkpt><trkpt lat="42.432237297279485" lon="2.596308693369691"><ele>416.0</ele><time>2026-04-09T12:23:09Z</time></trkpt><trkpt lat="42.43231160203333" lon="2.596351986831059"><ele>416.0</ele><time>2026-04-09T12:23:12Z</time></trkpt><trkpt lat="42.43243006423591" lon="2.5963686415747076"><ele>416.0</ele><time>2026-04-09T12:23:14Z</time></trkpt><trkpt lat="42.43251355729646" lon="2.5963899155889463"><ele>416.0</ele><time>2026-04-09T12:23:15Z</time></trkpt><trkpt lat="42.43259816316018" lon="2.5964131143695424"><ele>416.0</ele><time>2026-04-09T12:23:16Z</time></trkpt><trkpt lat="42.43268377324786" lon="2.596478345132611"><ele>416.0</ele><time>2026-04-09T12:23:17Z</time></trkpt><trkpt lat="42.43276096858079" lon="2.59657582018941"><ele>416.0</ele><time>2026-04-09T12:23:18Z</time></trkpt><trkpt lat="42.432806849742235" lon="2.5967055684492166"><ele>416.0</ele><time>2026-04-09T12:23:19Z</time></trkpt><trkpt lat="42.432809123962016" lon="2.5968490158988544"><ele>416.0</ele><time>2026-04-09T12:23:20Z</time></trkpt><trkpt lat="42.43280141349984" lon="2.596973052554322"><ele>416.0</ele><time>2026-04-09T12:23:21Z</time></trkpt><trkpt lat="42.43281896650239" lon="2.5970820215058787"><ele>417.0</ele><time>2026-04-09T12:23:22Z</time></trkpt><trkpt lat="42.43286874886404" lon="2.5971715971220823"><ele>418.0</ele><time>2026-04-09T12:23:23Z</time></trkpt><trkpt lat="42.43295270728117" lon="2.597211734164494"><ele>419.0</ele><time>2026-04-09T12:23:24Z</time></trkpt><trkpt lat="42.43304404663624" lon="2.59719889027616"><ele>420.0</ele><time>2026-04-09T12:23:25Z</time></trkpt><trkpt lat="42.43313195241523" lon="2.597154025618954"><ele>421.0</ele><time>2026-04-09T12:23:26Z</time></trkpt><trkpt lat="42.43322556360968" lon="2.59707796522535"><ele>421.0</ele><time>2026-04-09T12:23:27Z</time></trkpt><trkpt lat="42.43333358280466" lon="2.5970282349745375"><ele>421.0</ele><time>2026-04-09T12:23:28Z</time></trkpt><trkpt lat="42.43345085735001" lon="2.5970032632444733"><ele>421.0</ele><time>2026-04-09T12:23:29Z</time></trkpt><trkpt lat="42.43356482877092" lon="2.5969987779955206"><ele>421.0</ele><time>2026-04-09T12:23:30Z</time></trkpt><trkpt lat="42.433693307591184" lon="2.5970002684812754"><ele>410.25</ele><time>2026-04-09T12:23:31Z</time></trkpt><trkpt lat="42.43381881411428" lon="2.5969876926338573"><ele>399.5</ele><time>2026-04-09T12:23:32Z</time></trkpt><trkpt lat="42.433939983350726" lon="2.596942591282811"><ele>388.75</ele><time>2026-04-09T12:23:33Z</time></trkpt><trkpt lat="42.43405569773601" lon="2.5968622101034007"><ele>378.0</ele><time>2026-04-09T12:23:34Z</time></trkpt><trkpt lat="42.434164475201726" lon="2.5967914283778675"><ele>378.0</ele><time>2026-04-09T12:23:35Z</time></trkpt><trkpt lat="42.43428135837975" lon="2.596780871911655"><ele>378.0</ele><time>2026-04-09T12:23:36Z</time></trkpt><trkpt lat="42.4344013650422" lon="2.5968220615337922"><ele>378.0</ele><time>2026-04-09T12:23:37Z</time></trkpt><trkpt lat="42.43451483840899" lon="2.5968657778143363"><ele>378.0</ele><time>2026-04-09T12:23:38Z</time></trkpt><trkpt lat="42.434634996386535" lon="2.5968797336344336"><ele>376.75</ele><time>2026-04-09T12:23:39Z</time></trkpt><trkpt lat="42.43475579667625" lon="2.5968539398518384"><ele>375.5</ele><time>2026-04-09T12:23:40Z</time></trkpt><trkpt lat="42.434875237824386" lon="2.596807537362962"><ele>374.25</ele><time>2026-04-09T12:23:41Z</time></trkpt><trkpt lat="42.43498381867995" lon="2.5967744897114313"><ele>373.0</ele><time>2026-04-09T12:23:42Z</time></trkpt><trkpt lat="42.43508722584591" lon="2.5967785177367815"><ele>373.0</ele><time>2026-04-09T12:23:43Z</time></trkpt><trkpt lat="42.43519668447456" lon="2.5968144756953038"><ele>373.0</ele><time>2026-04-09T12:23:44Z</time></trkpt><trkpt lat="42.43530784263234" lon="2.5968345182378982"><ele>373.0</ele><time>2026-04-09T12:23:45Z</time></trkpt><trkpt lat="42.43541274675272" lon="2.5968347791890674"><ele>373.0</ele><time>2026-04-09T12:23:46Z</time></trkpt><trkpt lat="42.43550662356417" lon="2.596818618073091"><ele>373.0</ele><time>2026-04-09T12:23:47Z</time></trkpt><trkpt lat="42.43559489752862" lon="2.596778836208282"><ele>372.59999999999997</ele><time>2026-04-09T12:23:48Z</time></trkpt><trkpt lat="42.4356875192604" lon="2.596736613027054"><ele>372.2</ele><time>2026-04-09T12:23:49Z</time></trkpt><trkpt lat="42.435780259311734" lon="2.596695233668976"><ele>371.8</ele><time>2026-04-09T12:23:50Z</time></trkpt><trkpt lat="42.43587373262721" lon="2.596653016218911"><ele>371.4</ele><time>2026-04-09T12:23:51Z</time></trkpt><trkpt lat="42.43595607288619" lon="2.5966167762183825"><ele>371.0</ele><time>2026-04-09T12:23:52Z</time></trkpt><trkpt lat="42.43605689514339" lon="2.5965804610021275"><ele>371.0</ele><time>2026-04-09T12:23:54Z</time></trkpt><trkpt lat="42.436038187140014" lon="2.5964881762242205"><ele>371.0</ele><time>2026-04-09T12:23:57Z</time></trkpt><trkpt lat="42.43597128849271" lon="2.596522169498986"><ele>371.0</ele><time>2026-04-09T12:24:00Z</time></trkpt><trkpt lat="42.43592111953031" lon="2.596596844307063"><ele>371.0</ele><time>2026-04-09T12:24:02Z</time></trkpt><trkpt lat="42.43582455872357" lon="2.5966552273887467"><ele>371.0</ele><time>2026-04-09T12:24:04Z</time></trkpt><trkpt lat="42.43569884038252" lon="2.596707854919861"><ele>371.0</ele><time>2026-04-09T12:24:06Z</time></trkpt><trkpt lat="42.435621060241104" lon="2.596742958266317"><ele>371.0</ele><time>2026-04-09T12:24:07Z</time></trkpt><trkpt lat="42.43554470182335" lon="2.59677481161811"><ele>371.0</ele><time>2026-04-09T12:24:08Z</time></trkpt><trkpt lat="42.435471648833" lon="2.59680218606607"><ele>371.0</ele><time>2026-04-09T12:24:09Z</time></trkpt><trkpt lat="42.4354066502446" lon="2.596816533666273"><ele>371.0</ele><time>2026-04-09T12:24:10Z</time></trkpt><trkpt lat="42.43529552032236" lon="2.596819153888284"><ele>371.0</ele><time>2026-04-09T12:24:12Z</time></trkpt><trkpt lat="42.43523819606822" lon="2.596863367346584"><ele>371.4</ele><time>2026-04-09T12:24:14Z</time></trkpt><trkpt lat="42.43523382132899" lon="2.5969622123294434"><ele>371.8</ele><time>2026-04-09T12:24:16Z</time></trkpt><trkpt lat="42.4352601524726" lon="2.5970687906612953"><ele>372.2</ele><time>2026-04-09T12:24:18Z</time></trkpt><trkpt lat="42.43528675235822" lon="2.597196716831418"><ele>372.59999999999997</ele><time>2026-04-09T12:24:20Z</time></trkpt><trkpt lat="42.43530836678856" lon="2.597329837038574"><ele>373.0</ele><time>2026-04-09T12:24:22Z</time></trkpt><trkpt lat="42.435321394620516" lon="2.597475952016884"><ele>379.25</ele><time>2026-04-09T12:24:24Z</time></trkpt><trkpt lat="42.435318152480704" lon="2.597633677222961"><ele>385.5</ele><time>2026-04-09T12:24:26Z</time></trkpt><trkpt lat="42.43531577837409" lon="2.5977851437338955"><ele>391.75</ele><time>2026-04-09T12:24:28Z</time></trkpt><trkpt lat="42.43532539412262" lon="2.597939759389837"><ele>398.0</ele><time>2026-04-09T12:24:30Z</time></trkpt><trkpt lat="42.43535138851532" lon="2.598091401062629"><ele>401.59999999999997</ele><time>2026-04-09T12:24:32Z</time></trkpt><trkpt lat="42.43538065733195" lon="2.598239044244128"><ele>405.2</ele><time>2026-04-09T12:24:34Z</time></trkpt><trkpt lat="42.4354073646296" lon="2.59838305986569"><ele>408.8</ele><time>2026-04-09T12:24:36Z</time></trkpt><trkpt lat="42.43543291711338" lon="2.598512855606069"><ele>412.4</ele><time>2026-04-09T12:24:38Z</time></trkpt><trkpt lat="42.43544644169335" lon="2.5986397952718367"><ele>416.0</ele><time>2026-04-09T12:24:40Z</time></trkpt><trkpt lat="42.435461666879306" lon="2.5987767815722864"><ele>410.25</ele><time>2026-04-09T12:24:42Z</time></trkpt><trkpt lat="42.43547563969204" lon="2.598928829116487"><ele>404.5</ele><time>2026-04-09T12:24:44Z</time></trkpt><trkpt lat="42.4354877737211" lon="2.5990701290493607"><ele>398.75</ele><time>2026-04-09T12:24:46Z</time></trkpt><trkpt lat="42.43549846392746" lon="2.599226083984518"><ele>393.0</ele><time>2026-04-09T12:24:48Z</time></trkpt><trkpt lat="42.43549902169197" lon="2.5993847468115603"><ele>393.0</ele><time>2026-04-09T12:24:50Z</time></trkpt><trkpt lat="42.43550229117428" lon="2.599541649531004"><ele>393.0</ele><time>2026-04-09T12:24:52Z</time></trkpt><trkpt lat="42.43551134454617" lon="2.5996914875956616"><ele>393.0</ele><time>2026-04-09T12:24:54Z</time></trkpt><trkpt lat="42.4355302882096" lon="2.5998442126859884"><ele>393.0</ele><time>2026-04-09T12:24:56Z</time></trkpt><trkpt lat="42.43554382885844" lon="2.5999929490520146"><ele>393.0</ele><time>2026-04-09T12:24:58Z</time></trkpt><trkpt lat="42.4355114233536" lon="2.6001440698075253"><ele>393.0</ele><time>2026-04-09T12:25:00Z</time></trkpt><trkpt lat="42.435451318708836" lon="2.600285717221459"><ele>393.0</ele><time>2026-04-09T12:25:02Z</time></trkpt><trkpt lat="42.43539405902676" lon="2.6004110032338534"><ele>393.0</ele><time>2026-04-09T12:25:04Z</time></trkpt><trkpt lat="42.43534849768316" lon="2.600530307595985"><ele>393.0</ele><time>2026-04-09T12:25:06Z</time></trkpt><trkpt lat="42.43533109723983" lon="2.600656797006775"><ele>394.0</ele><time>2026-04-09T12:25:08Z</time></trkpt><trkpt lat="42.43536358278097" lon="2.6007587294380348"><ele>395.0</ele><time>2026-04-09T12:25:10Z</time></trkpt><trkpt lat="42.435423157192744" lon="2.600840905861983"><ele>396.0</ele><time>2026-04-09T12:25:13Z</time></trkpt><trkpt lat="42.435471813610654" lon="2.600896691820337"><ele>397.0</ele><time>2026-04-09T12:25:15Z</time></trkpt><trkpt lat="42.435546616865196" lon="2.6009176268522363"><ele>398.0</ele><time>2026-04-09T12:25:17Z</time></trkpt><trkpt lat="42.435634315645075" lon="2.600880758754706"><ele>399.0</ele><time>2026-04-09T12:25:19Z</time></trkpt><trkpt lat="42.43572081287055" lon="2.600824936891807"><ele>399.0</ele><time>2026-04-09T12:25:21Z</time></trkpt><trkpt lat="42.43580918944884" lon="2.600788967325921"><ele>399.0</ele><time>2026-04-09T12:25:23Z</time></trkpt><trkpt lat="42.43589881669122" lon="2.6007764187514746"><ele>399.0</ele><time>2026-04-09T12:25:25Z</time></trkpt><trkpt lat="42.43599921125226" lon="2.600800897056371"><ele>399.0</ele><time>2026-04-09T12:25:27Z</time></trkpt><trkpt lat="42.43610003218264" lon="2.600846526236715"><ele>399.0</ele><time>2026-04-09T12:25:29Z</time></trkpt><trkpt lat="42.43618984165555" lon="2.600913113218742"><ele>399.0</ele><time>2026-04-09T12:25:31Z</time></trkpt><trkpt lat="42.436264711982744" lon="2.6010021252999853"><ele>399.0</ele><time>2026-04-09T12:25:33Z</time></trkpt><trkpt lat="42.43633796491022" lon="2.6010979668336405"><ele>399.0</ele><time>2026-04-09T12:25:35Z</time></trkpt><trkpt lat="42.43640029936005" lon="2.60118915078133"><ele>399.0</ele><time>2026-04-09T12:25:37Z</time></trkpt><trkpt lat="42.43646073572895" lon="2.6012868362233315"><ele>399.0</ele><time>2026-04-09T12:25:39Z</time></trkpt><trkpt lat="42.43650680563525" lon="2.6013631916712394"><ele>401.6666666666667</ele><time>2026-04-09T12:25:41Z</time></trkpt><trkpt lat="42.43656815200497" lon="2.601452857681597"><ele>404.33333333333337</ele><time>2026-04-09T12:25:43Z</time></trkpt><trkpt lat="42.436627640241824" lon="2.6015350854999695"><ele>407.0</ele><time>2026-04-09T12:25:45Z</time></trkpt><trkpt lat="42.43669498762055" lon="2.6015954619733446"><ele>409.6666666666667</ele><time>2026-04-09T12:25:47Z</time></trkpt><trkpt lat="42.43676368376821" lon="2.6016065317762704"><ele>412.33333333333337</ele><time>2026-04-09T12:25:49Z</time></trkpt><trkpt lat="42.436826653990295" lon="2.6015883464811815"><ele>415.0</ele><time>2026-04-09T12:25:51Z</time></trkpt><trkpt lat="42.43690031139921" lon="2.601546103362092"><ele>415.00000000000006</ele><time>2026-04-09T12:25:53Z</time></trkpt><trkpt lat="42.436964682510464" lon="2.601517321234927"><ele>415.0</ele><time>2026-04-09T12:25:56Z</time></trkpt><trkpt lat="42.436893846828404" lon="2.601566721710163"><ele>415.0</ele><time>2026-04-09T12:26:12Z</time></trkpt><trkpt lat="42.43682567871563" lon="2.601598951167136"><ele>415.0</ele><time>2026-04-09T12:26:14Z</time></trkpt><trkpt lat="42.43673112120306" lon="2.6015940268088125"><ele>415.00000000000006</ele><time>2026-04-09T12:26:16Z</time></trkpt><trkpt lat="42.43665770191416" lon="2.6015484446437718"><ele>415.0</ele><time>2026-04-09T12:26:18Z</time></trkpt><trkpt lat="42.436572554708725" lon="2.601457013204162"><ele>415.0</ele><time>2026-04-09T12:26:20Z</time></trkpt><trkpt lat="42.43651840939034" lon="2.6013890673099733"><ele>415.0</ele><time>2026-04-09T12:26:22Z</time></trkpt><trkpt lat="42.43647310779732" lon="2.601315170965177"><ele>415.0</ele><time>2026-04-09T12:26:24Z</time></trkpt><trkpt lat="42.4364247692455" lon="2.6012286157486253"><ele>415.0</ele><time>2026-04-09T12:26:26Z</time></trkpt><trkpt lat="42.43637700146338" lon="2.601168354868158"><ele>415.0</ele><time>2026-04-09T12:26:28Z</time></trkpt><trkpt lat="42.43633472051635" lon="2.601103556462553"><ele>415.0</ele><time>2026-04-09T12:26:30Z</time></trkpt><trkpt lat="42.436289067101484" lon="2.601040726393814"><ele>415.0</ele><time>2026-04-09T12:26:32Z</time></trkpt><trkpt lat="42.436234046022804" lon="2.6009672700654916"><ele>412.33333333333337</ele><time>2026-04-09T12:26:34Z</time></trkpt><trkpt lat="42.436166431372136" lon="2.6009004049150257"><ele>409.6666666666667</ele><time>2026-04-09T12:26:36Z</time></trkpt><trkpt lat="42.43609506762395" lon="2.6008545450497884"><ele>407.0</ele><time>2026-04-09T12:26:38Z</time></trkpt><trkpt lat="42.43602434286801" lon="2.6008247867759864"><ele>404.33333333333337</ele><time>2026-04-09T12:26:40Z</time></trkpt><trkpt lat="42.43595258859849" lon="2.60081548577862"><ele>401.6666666666667</ele><time>2026-04-09T12:26:42Z</time></trkpt><trkpt lat="42.43588387887237" lon="2.6008001285138413"><ele>399.0</ele><time>2026-04-09T12:26:44Z</time></trkpt><trkpt lat="42.43580201452652" lon="2.6008159087008695"><ele>399.0</ele><time>2026-04-09T12:26:46Z</time></trkpt><trkpt lat="42.435742035943754" lon="2.6008421787759564"><ele>399.0</ele><time>2026-04-09T12:26:48Z</time></trkpt><trkpt lat="42.43567739741038" lon="2.6008779527853467"><ele>399.0</ele><time>2026-04-09T12:26:50Z</time></trkpt><trkpt lat="42.43560537593152" lon="2.6009123412621142"><ele>399.0</ele><time>2026-04-09T12:26:52Z</time></trkpt><trkpt lat="42.43553066988314" lon="2.6009228382867557"><ele>399.0</ele><time>2026-04-09T12:27:06Z</time></trkpt><trkpt lat="42.43546241045067" lon="2.6008861461078374"><ele>399.0</ele><time>2026-04-09T12:27:10Z</time></trkpt><trkpt lat="42.43541237773142" lon="2.600832347143669"><ele>399.0</ele><time>2026-04-09T12:27:12Z</time></trkpt><trkpt lat="42.435366934237926" lon="2.6007717081747113"><ele>398.0</ele><time>2026-04-09T12:27:14Z</time></trkpt><trkpt lat="42.43534534431893" lon="2.600659132127176"><ele>397.0</ele><time>2026-04-09T12:27:17Z</time></trkpt><trkpt lat="42.43536438098709" lon="2.6005423807337227"><ele>396.0</ele><time>2026-04-09T12:27:19Z</time></trkpt><trkpt lat="42.435396563441124" lon="2.600426084662494"><ele>395.0</ele><time>2026-04-09T12:27:21Z</time></trkpt><trkpt lat="42.43544137766555" lon="2.6003100289458954"><ele>394.0</ele><time>2026-04-09T12:27:23Z</time></trkpt><trkpt lat="42.435483857960406" lon="2.6002120222477734"><ele>393.0</ele><time>2026-04-09T12:27:25Z</time></trkpt><trkpt lat="42.43552679187709" lon="2.600122089795069"><ele>393.0</ele><time>2026-04-09T12:27:27Z</time></trkpt><trkpt lat="42.43554463805605" lon="2.6000227816278874"><ele>393.0</ele><time>2026-04-09T12:27:29Z</time></trkpt><trkpt lat="42.43554153512382" lon="2.599912756588712"><ele>393.0</ele><time>2026-04-09T12:27:31Z</time></trkpt><trkpt lat="42.43553210176286" lon="2.5998007417065137"><ele>393.0</ele><time>2026-04-09T12:27:33Z</time></trkpt><trkpt lat="42.43551885465101" lon="2.599692428293032"><ele>393.0</ele><time>2026-04-09T12:27:35Z</time></trkpt><trkpt lat="42.43551075872006" lon="2.599576072354049"><ele>393.0</ele><time>2026-04-09T12:27:37Z</time></trkpt><trkpt lat="42.43550516614614" lon="2.5994439631332433"><ele>393.0</ele><time>2026-04-09T12:27:39Z</time></trkpt><trkpt lat="42.43550302308279" lon="2.5993101442060618"><ele>393.0</ele><time>2026-04-09T12:27:41Z</time></trkpt><trkpt lat="42.43549771370087" lon="2.599186440265011"><ele>393.0</ele><time>2026-04-09T12:27:43Z</time></trkpt><trkpt lat="42.43548923612761" lon="2.5990515444315228"><ele>393.0</ele><time>2026-04-09T12:27:45Z</time></trkpt><trkpt lat="42.43548029457126" lon="2.5989095266049835"><ele>393.0</ele><time>2026-04-09T12:27:47Z</time></trkpt><trkpt lat="42.435465775973846" lon="2.598787596317663"><ele>396.8333333333333</ele><time>2026-04-09T12:27:49Z</time></trkpt><trkpt lat="42.435454096927856" lon="2.5986480006262336"><ele>400.66666666666663</ele><time>2026-04-09T12:27:51Z</time></trkpt><trkpt lat="42.43543448843997" lon="2.598491024810207"><ele>404.5</ele><time>2026-04-09T12:27:53Z</time></trkpt><trkpt lat="42.43542255677963" lon="2.598400730198809"><ele>408.3333333333333</ele><time>2026-04-09T12:27:54Z</time></trkpt><trkpt lat="42.43540763336112" lon="2.5983023837168493"><ele>412.16666666666663</ele><time>2026-04-09T12:27:55Z</time></trkpt><trkpt lat="42.43538812982921" lon="2.5981934383678524"><ele>416.0</ele><time>2026-04-09T12:27:56Z</time></trkpt><trkpt lat="42.435368085369234" lon="2.598089873981371"><ele>416.0</ele><time>2026-04-09T12:27:57Z</time></trkpt><trkpt lat="42.43534964742952" lon="2.5979861389242247"><ele>416.0</ele><time>2026-04-09T12:27:58Z</time></trkpt><trkpt lat="42.435335305653425" lon="2.5978819345778503"><ele>416.0</ele><time>2026-04-09T12:27:59Z</time></trkpt><trkpt lat="42.4353281973459" lon="2.597787064292462"><ele>416.0</ele><time>2026-04-09T12:28:00Z</time></trkpt><trkpt lat="42.43532745595805" lon="2.5976987089117616"><ele>416.0</ele><time>2026-04-09T12:28:01Z</time></trkpt><trkpt lat="42.43532752517039" lon="2.5976096169480285"><ele>416.0</ele><time>2026-04-09T12:28:02Z</time></trkpt><trkpt lat="42.43533035619166" lon="2.59751830530099"><ele>416.0</ele><time>2026-04-09T12:28:03Z</time></trkpt><trkpt lat="42.43533501271376" lon="2.597429119425572"><ele>412.99999999999994</ele><time>2026-04-09T12:28:04Z</time></trkpt><trkpt lat="42.43533283373997" lon="2.5973430575473864"><ele>410.0</ele><time>2026-04-09T12:28:05Z</time></trkpt><trkpt lat="42.43530574403094" lon="2.5971833935451474"><ele>407.0</ele><time>2026-04-09T12:28:07Z</time></trkpt><trkpt lat="42.43526867570128" lon="2.597051386069654"><ele>404.0</ele><time>2026-04-09T12:28:09Z</time></trkpt><trkpt lat="42.43524276979775" lon="2.596949922240135"><ele>400.99999999999994</ele><time>2026-04-09T12:28:11Z</time></trkpt><trkpt lat="42.43525592387905" lon="2.596859464948488"><ele>398.0</ele><time>2026-04-09T12:28:15Z</time></trkpt><trkpt lat="42.43532648686742" lon="2.5968318983216534"><ele>393.0</ele><time>2026-04-09T12:28:17Z</time></trkpt><trkpt lat="42.43544739243279" lon="2.5968309062519945"><ele>388.0</ele><time>2026-04-09T12:28:19Z</time></trkpt><trkpt lat="42.43552785870672" lon="2.596814320483477"><ele>383.0</ele><time>2026-04-09T12:28:20Z</time></trkpt><trkpt lat="42.43562001022878" lon="2.5967770777649606"><ele>378.0</ele><time>2026-04-09T12:28:21Z</time></trkpt><trkpt lat="42.43571085003661" lon="2.596736038187461"><ele>373.0</ele><time>2026-04-09T12:28:22Z</time></trkpt><trkpt lat="42.43580776788618" lon="2.5966924127859405"><ele>372.66666666666663</ele><time>2026-04-09T12:28:23Z</time></trkpt><trkpt lat="42.43590524520896" lon="2.596648990992615"><ele>372.3333333333333</ele><time>2026-04-09T12:28:24Z</time></trkpt><trkpt lat="42.436000246632744" lon="2.59660671282673"><ele>372.0</ele><time>2026-04-09T12:28:25Z</time></trkpt><trkpt lat="42.43608958701755" lon="2.5965681428432488"><ele>371.6666666666667</ele><time>2026-04-09T12:28:26Z</time></trkpt><trkpt lat="42.4361676451462" lon="2.5965346064942354"><ele>371.33333333333337</ele><time>2026-04-09T12:28:27Z</time></trkpt><trkpt lat="42.43623516452086" lon="2.5965046510166605"><ele>371.0</ele><time>2026-04-09T12:28:28Z</time></trkpt><trkpt lat="42.43629384510369" lon="2.59646014163387"><ele>370.5</ele><time>2026-04-09T12:28:29Z</time></trkpt><trkpt lat="42.43633973397198" lon="2.596386405905598"><ele>370.0</ele><time>2026-04-09T12:28:30Z</time></trkpt><trkpt lat="42.43636001745134" lon="2.5962919108106552"><ele>369.5</ele><time>2026-04-09T12:28:31Z</time></trkpt><trkpt lat="42.43635698336801" lon="2.5961841671453096"><ele>369.0</ele><time>2026-04-09T12:28:32Z</time></trkpt><trkpt lat="42.43632620711807" lon="2.5960823807805338"><ele>368.5</ele><time>2026-04-09T12:28:33Z</time></trkpt><trkpt lat="42.43627135476436" lon="2.596002049744729"><ele>368.0</ele><time>2026-04-09T12:28:34Z</time></trkpt><trkpt lat="42.43619556428655" lon="2.595954838298057"><ele>368.59999999999997</ele><time>2026-04-09T12:28:35Z</time></trkpt><trkpt lat="42.43611115533455" lon="2.595957749919252"><ele>369.2</ele><time>2026-04-09T12:28:36Z</time></trkpt><trkpt lat="42.43602641677438" lon="2.5959882734132567"><ele>369.8</ele><time>2026-04-09T12:28:37Z</time></trkpt><trkpt lat="42.43594040298524" lon="2.596061422210833"><ele>370.4</ele><time>2026-04-09T12:28:38Z</time></trkpt><trkpt lat="42.435847322811846" lon="2.5961358192680235"><ele>371.0</ele><time>2026-04-09T12:28:39Z</time></trkpt><trkpt lat="42.435745012752975" lon="2.5962023637670604"><ele>371.0</ele><time>2026-04-09T12:28:40Z</time></trkpt><trkpt lat="42.435638986969245" lon="2.5962592329258425"><ele>371.0</ele><time>2026-04-09T12:28:41Z</time></trkpt><trkpt lat="42.43552636478039" lon="2.5962843788659113"><ele>371.0</ele><time>2026-04-09T12:28:42Z</time></trkpt><trkpt lat="42.43541276939466" lon="2.596289449521534"><ele>371.0</ele><time>2026-04-09T12:28:43Z</time></trkpt><trkpt lat="42.43531067834471" lon="2.5962902381278554"><ele>371.0</ele><time>2026-04-09T12:28:44Z</time></trkpt><trkpt lat="42.435214701975845" lon="2.5963074752183704"><ele>371.2857142857143</ele><time>2026-04-09T12:28:45Z</time></trkpt><trkpt lat="42.435132376328426" lon="2.5963513166073615"><ele>371.57142857142856</ele><time>2026-04-09T12:28:46Z</time></trkpt><trkpt lat="42.435057610918555" lon="2.5963977411432895"><ele>371.8571428571429</ele><time>2026-04-09T12:28:47Z</time></trkpt><trkpt lat="42.43499148484955" lon="2.596437524962522"><ele>372.1428571428571</ele><time>2026-04-09T12:28:48Z</time></trkpt><trkpt lat="42.434928392009596" lon="2.596444771968969"><ele>372.42857142857144</ele><time>2026-04-09T12:28:49Z</time></trkpt><trkpt lat="42.434867146491264" lon="2.596407131317382"><ele>372.7142857142857</ele><time>2026-04-09T12:28:50Z</time></trkpt><trkpt lat="42.43481548314929" lon="2.5963344436059375"><ele>373.0</ele><time>2026-04-09T12:28:51Z</time></trkpt><trkpt lat="42.4347988637961" lon="2.5962359130514385"><ele>370.16666666666663</ele><time>2026-04-09T12:28:52Z</time></trkpt><trkpt lat="42.434800996834454" lon="2.5961208535212186"><ele>367.3333333333333</ele><time>2026-04-09T12:28:53Z</time></trkpt><trkpt lat="42.43479443463152" lon="2.595993620219081"><ele>364.5</ele><time>2026-04-09T12:28:54Z</time></trkpt><trkpt lat="42.43478523611257" lon="2.5958763769147426"><ele>361.6666666666667</ele><time>2026-04-09T12:28:55Z</time></trkpt><trkpt lat="42.43477546361031" lon="2.595765601685331"><ele>358.83333333333337</ele><time>2026-04-09T12:28:56Z</time></trkpt><trkpt lat="42.43476273739053" lon="2.5956597928888114"><ele>356.0</ele><time>2026-04-09T12:28:57Z</time></trkpt><trkpt lat="42.43475329991975" lon="2.59556187262733"><ele>356.0</ele><time>2026-04-09T12:28:58Z</time></trkpt><trkpt lat="42.43475461848493" lon="2.595476305172896"><ele>356.0</ele><time>2026-04-09T12:28:59Z</time></trkpt><trkpt lat="42.43483918725275" lon="2.5953349312034755"><ele>356.0</ele><time>2026-04-09T12:29:01Z</time></trkpt><trkpt lat="42.434901507172974" lon="2.595272523420106"><ele>356.0</ele><time>2026-04-09T12:29:02Z</time></trkpt><trkpt lat="42.43496447493098" lon="2.5951967669644485"><ele>356.0</ele><time>2026-04-09T12:29:03Z</time></trkpt><trkpt lat="42.43503033581387" lon="2.5951204647150465"><ele>356.0</ele><time>2026-04-09T12:29:04Z</time></trkpt><trkpt lat="42.43509636688971" lon="2.5950446409135055"><ele>355.83333333333337</ele><time>2026-04-09T12:29:05Z</time></trkpt><trkpt lat="42.435160058033" lon="2.5949742904029534"><ele>355.6666666666667</ele><time>2026-04-09T12:29:06Z</time></trkpt><trkpt lat="42.43522471454539" lon="2.5949082041329268"><ele>355.5</ele><time>2026-04-09T12:29:07Z</time></trkpt><trkpt lat="42.435286284786606" lon="2.5948462611080956"><ele>355.3333333333333</ele><time>2026-04-09T12:29:08Z</time></trkpt><trkpt lat="42.43534323939396" lon="2.594790470134132"><ele>355.16666666666663</ele><time>2026-04-09T12:29:09Z</time></trkpt><trkpt lat="42.435396496978356" lon="2.5947361484659877"><ele>355.0</ele><time>2026-04-09T12:29:10Z</time></trkpt><trkpt lat="42.43550054485291" lon="2.594639774394462"><ele>355.0</ele><time>2026-04-09T12:29:12Z</time></trkpt><trkpt lat="42.43555324815582" lon="2.5945860141153627"><ele>355.0</ele><time>2026-04-09T12:29:13Z</time></trkpt><trkpt lat="42.43560937382808" lon="2.594535646324095"><ele>355.0</ele><time>2026-04-09T12:29:14Z</time></trkpt><trkpt lat="42.43566848290141" lon="2.59448347958738"><ele>355.0</ele><time>2026-04-09T12:29:15Z</time></trkpt><trkpt lat="42.43572124251671" lon="2.5944259531158744"><ele>355.0</ele><time>2026-04-09T12:29:16Z</time></trkpt><trkpt lat="42.43580065017023" lon="2.594302823191095"><ele>355.0</ele><time>2026-04-09T12:29:18Z</time></trkpt><trkpt lat="42.435834745725536" lon="2.594188715476566"><ele>356.5</ele><time>2026-04-09T12:29:20Z</time></trkpt><trkpt lat="42.43584826642442" lon="2.5940731539554807"><ele>358.0</ele><time>2026-04-09T12:29:28Z</time></trkpt><trkpt lat="42.435962195697115" lon="2.5940289047236154"><ele>359.5</ele><time>2026-04-09T12:29:30Z</time></trkpt><trkpt lat="42.436023010247425" lon="2.5940021643846896"><ele>361.0</ele><time>2026-04-09T12:29:31Z</time></trkpt><trkpt lat="42.436097639481545" lon="2.5939653571143197"><ele>362.5</ele><time>2026-04-09T12:29:32Z</time></trkpt><trkpt lat="42.43618433641104" lon="2.593919868396073"><ele>364.0</ele><time>2026-04-09T12:29:33Z</time></trkpt><trkpt lat="42.4362838160084" lon="2.593869904992032"><ele>364.5</ele><time>2026-04-09T12:29:34Z</time></trkpt><trkpt lat="42.43638129396368" lon="2.59382005024352"><ele>365.0</ele><time>2026-04-09T12:29:35Z</time></trkpt><trkpt lat="42.43649380925587" lon="2.593764377507293"><ele>365.5</ele><time>2026-04-09T12:29:36Z</time></trkpt><trkpt lat="42.436605134922026" lon="2.593711490743215"><ele>366.0</ele><time>2026-04-09T12:29:37Z</time></trkpt><trkpt lat="42.43672580142864" lon="2.5936555948251225"><ele>366.0</ele><time>2026-04-09T12:29:38Z</time></trkpt><trkpt lat="42.436838974918274" lon="2.5935974853567543"><ele>366.0</ele><time>2026-04-09T12:29:39Z</time></trkpt><trkpt lat="42.43694806159861" lon="2.5935381392261254"><ele>366.0</ele><time>2026-04-09T12:29:40Z</time></trkpt><trkpt lat="42.43706020159129" lon="2.5934812435986743"><ele>366.0</ele><time>2026-04-09T12:29:41Z</time></trkpt><trkpt lat="42.4371705153527" lon="2.593426879503908"><ele>364.25</ele><time>2026-04-09T12:29:42Z</time></trkpt><trkpt lat="42.43728242522266" lon="2.5933714373404877"><ele>362.5</ele><time>2026-04-09T12:29:43Z</time></trkpt><trkpt lat="42.4373905668016" lon="2.593316207044873"><ele>360.75</ele><time>2026-04-09T12:29:44Z</time></trkpt><trkpt lat="42.4375005357338" lon="2.5932705581242503"><ele>359.0</ele><time>2026-04-09T12:29:45Z</time></trkpt><trkpt lat="42.437613774608906" lon="2.5932355166805667"><ele>359.0</ele><time>2026-04-09T12:29:46Z</time></trkpt><trkpt lat="42.4377266140322" lon="2.5932225863984137"><ele>359.0</ele><time>2026-04-09T12:29:47Z</time></trkpt><trkpt lat="42.43785003466217" lon="2.5932216222048594"><ele>359.0</ele><time>2026-04-09T12:29:48Z</time></trkpt><trkpt lat="42.43797566862346" lon="2.5932288880391416"><ele>359.0</ele><time>2026-04-09T12:29:49Z</time></trkpt><trkpt lat="42.438104744838554" lon="2.5932387361470193"><ele>359.0</ele><time>2026-04-09T12:29:50Z</time></trkpt><trkpt lat="42.43822509413092" lon="2.5932530034209047"><ele>359.0</ele><time>2026-04-09T12:29:51Z</time></trkpt><trkpt lat="42.438344687495096" lon="2.5932710175491285"><ele>359.0</ele><time>2026-04-09T12:29:52Z</time></trkpt><trkpt lat="42.438461050542955" lon="2.593288834433211"><ele>359.0</ele><time>2026-04-09T12:29:53Z</time></trkpt><trkpt lat="42.43857794895161" lon="2.593310259026"><ele>359.0</ele><time>2026-04-09T12:29:54Z</time></trkpt><trkpt lat="42.438691913137205" lon="2.5933428378988705"><ele>359.0</ele><time>2026-04-09T12:29:55Z</time></trkpt><trkpt lat="42.4388006273369" lon="2.5933912912625416"><ele>359.0</ele><time>2026-04-09T12:29:56Z</time></trkpt><trkpt lat="42.438905163630196" lon="2.5934610768060153"><ele>359.0</ele><time>2026-04-09T12:29:57Z</time></trkpt><trkpt lat="42.43900505007396" lon="2.5935549339463453"><ele>357.5</ele><time>2026-04-09T12:29:58Z</time></trkpt><trkpt lat="42.43909216788452" lon="2.593673969116057"><ele>356.0</ele><time>2026-04-09T12:29:59Z</time></trkpt><trkpt lat="42.439167415428244" lon="2.593811245145216"><ele>354.5</ele><time>2026-04-09T12:30:00Z</time></trkpt><trkpt lat="42.43922652085034" lon="2.593965444202032"><ele>353.0</ele><time>2026-04-09T12:30:01Z</time></trkpt><trkpt lat="42.439262570246015" lon="2.594138341752455"><ele>353.0</ele><time>2026-04-09T12:30:02Z</time></trkpt><trkpt lat="42.43928839664067" lon="2.5943195401902894"><ele>353.0</ele><time>2026-04-09T12:30:03Z</time></trkpt><trkpt lat="42.43931092769442" lon="2.5945061501252455"><ele>353.0</ele><time>2026-04-09T12:30:04Z</time></trkpt><trkpt lat="42.43933705285463" lon="2.594685546945235"><ele>353.0</ele><time>2026-04-09T12:30:05Z</time></trkpt><trkpt lat="42.43938137573058" lon="2.5948634572079574"><ele>351.25</ele><time>2026-04-09T12:30:06Z</time></trkpt><trkpt lat="42.43943587270863" lon="2.595036226668052"><ele>349.5</ele><time>2026-04-09T12:30:07Z</time></trkpt><trkpt lat="42.43948855770494" lon="2.595203654031842"><ele>347.75</ele><time>2026-04-09T12:30:08Z</time></trkpt><trkpt lat="42.4395380108813" lon="2.595371186219989"><ele>346.0</ele><time>2026-04-09T12:30:09Z</time></trkpt><trkpt lat="42.439586836599744" lon="2.595538305100842"><ele>347.0</ele><time>2026-04-09T12:30:10Z</time></trkpt><trkpt lat="42.43963507927611" lon="2.595704622696031"><ele>348.0</ele><time>2026-04-09T12:30:11Z</time></trkpt><trkpt lat="42.43968303655719" lon="2.5958683384938537"><ele>349.0</ele><time>2026-04-09T12:30:12Z</time></trkpt><trkpt lat="42.439732733997836" lon="2.596027703045782"><ele>350.0</ele><time>2026-04-09T12:30:13Z</time></trkpt><trkpt lat="42.43977996084307" lon="2.5961852640683607"><ele>350.0</ele><time>2026-04-09T12:30:14Z</time></trkpt><trkpt lat="42.43982211206293" lon="2.59634323574702"><ele>350.0</ele><time>2026-04-09T12:30:15Z</time></trkpt><trkpt lat="42.439855332629" lon="2.5965022236775432"><ele>350.0</ele><time>2026-04-09T12:30:16Z</time></trkpt><trkpt lat="42.439878470131305" lon="2.5966612682277"><ele>350.0</ele><time>2026-04-09T12:30:17Z</time></trkpt><trkpt lat="42.439898044108894" lon="2.5968197812807152"><ele>350.0</ele><time>2026-04-09T12:30:18Z</time></trkpt><trkpt lat="42.439917446417496" lon="2.5969740577153106"><ele>350.0</ele><time>2026-04-09T12:30:19Z</time></trkpt><trkpt lat="42.43993898805458" lon="2.597125196969113"><ele>350.0</ele><time>2026-04-09T12:30:20Z</time></trkpt><trkpt lat="42.43997169897861" lon="2.5972715438803315"><ele>350.0</ele><time>2026-04-09T12:30:21Z</time></trkpt><trkpt lat="42.44001747706584" lon="2.5974190562189765"><ele>349.75</ele><time>2026-04-09T12:30:22Z</time></trkpt><trkpt lat="42.44007025118864" lon="2.5975691662770033"><ele>349.5</ele><time>2026-04-09T12:30:23Z</time></trkpt><trkpt lat="42.440125476410515" lon="2.5977278680769467"><ele>349.25</ele><time>2026-04-09T12:30:24Z</time></trkpt><trkpt lat="42.44018290445155" lon="2.5978846855326947"><ele>349.0</ele><time>2026-04-09T12:30:25Z</time></trkpt><trkpt lat="42.4402406577835" lon="2.598043699787935"><ele>348.0</ele><time>2026-04-09T12:30:26Z</time></trkpt><trkpt lat="42.44029886167132" lon="2.5982033854991196"><ele>347.0</ele><time>2026-04-09T12:30:27Z</time></trkpt><trkpt lat="42.44035794950787" lon="2.598364459105045"><ele>346.0</ele><time>2026-04-09T12:30:28Z</time></trkpt><trkpt lat="42.44041968465248" lon="2.59852958222823"><ele>345.0</ele><time>2026-04-09T12:30:29Z</time></trkpt><trkpt lat="42.44048108516129" lon="2.5987010955922463"><ele>345.0</ele><time>2026-04-09T12:30:30Z</time></trkpt><trkpt lat="42.44054513082387" lon="2.59887299223136"><ele>345.0</ele><time>2026-04-09T12:30:31Z</time></trkpt><trkpt lat="42.44060722405295" lon="2.5990473879926284"><ele>345.0</ele><time>2026-04-09T12:30:32Z</time></trkpt><trkpt lat="42.44067100246528" lon="2.5992163129770565"><ele>345.0</ele><time>2026-04-09T12:30:33Z</time></trkpt><trkpt lat="42.44073558913599" lon="2.5993878108468946"><ele>343.75</ele><time>2026-04-09T12:30:34Z</time></trkpt><trkpt lat="42.44079909420987" lon="2.5995568066226027"><ele>342.5</ele><time>2026-04-09T12:30:35Z</time></trkpt><trkpt lat="42.44085997916957" lon="2.599724479193823"><ele>341.25</ele><time>2026-04-09T12:30:36Z</time></trkpt><trkpt lat="42.44092083575562" lon="2.5998912646580155"><ele>340.0</ele><time>2026-04-09T12:30:37Z</time></trkpt><trkpt lat="42.440982964557776" lon="2.600059385564164"><ele>340.0</ele><time>2026-04-09T12:30:38Z</time></trkpt><trkpt lat="42.441045335332" lon="2.6002240276906825"><ele>340.0</ele><time>2026-04-09T12:30:39Z</time></trkpt><trkpt lat="42.441106062538225" lon="2.600387782447817"><ele>340.0</ele><time>2026-04-09T12:30:40Z</time></trkpt><trkpt lat="42.441165445353455" lon="2.6005504429931117"><ele>340.0</ele><time>2026-04-09T12:30:41Z</time></trkpt><trkpt lat="42.44122713292079" lon="2.6007065815295496"><ele>339.5</ele><time>2026-04-09T12:30:42Z</time></trkpt><trkpt lat="42.4412944991613" lon="2.600854515113457"><ele>339.0</ele><time>2026-04-09T12:30:43Z</time></trkpt><trkpt lat="42.44136876808492" lon="2.600994640190843"><ele>338.5</ele><time>2026-04-09T12:30:44Z</time></trkpt><trkpt lat="42.441446006407396" lon="2.6011292558705725"><ele>338.0</ele><time>2026-04-09T12:30:45Z</time></trkpt><trkpt lat="42.44152532736332" lon="2.60126225545961"><ele>338.0</ele><time>2026-04-09T12:30:46Z</time></trkpt><trkpt lat="42.44160206658973" lon="2.6013910944228416"><ele>338.0</ele><time>2026-04-09T12:30:47Z</time></trkpt><trkpt lat="42.441672248518444" lon="2.6015080845250935"><ele>338.0</ele><time>2026-04-09T12:30:48Z</time></trkpt><trkpt lat="42.44174429589244" lon="2.601619369828281"><ele>338.0</ele><time>2026-04-09T12:30:49Z</time></trkpt><trkpt lat="42.44182235437568" lon="2.601720980642486"><ele>338.0</ele><time>2026-04-09T12:30:50Z</time></trkpt><trkpt lat="42.441907500183135" lon="2.601808960408064"><ele>338.0</ele><time>2026-04-09T12:30:51Z</time></trkpt><trkpt lat="42.44199331227804" lon="2.6018930688366555"><ele>338.0</ele><time>2026-04-09T12:30:52Z</time></trkpt><trkpt lat="42.44208092029786" lon="2.601976673618581"><ele>338.0</ele><time>2026-04-09T12:30:53Z</time></trkpt><trkpt lat="42.442166018631994" lon="2.602059947088908"><ele>338.0</ele><time>2026-04-09T12:30:54Z</time></trkpt><trkpt lat="42.44224890189961" lon="2.602143526818542"><ele>338.4</ele><time>2026-04-09T12:30:55Z</time></trkpt><trkpt lat="42.44233098209262" lon="2.602223615013058"><ele>338.79999999999995</ele><time>2026-04-09T12:30:56Z</time></trkpt><trkpt lat="42.44241175335604" lon="2.6022994476263936"><ele>339.2</ele><time>2026-04-09T12:30:57Z</time></trkpt><trkpt lat="42.442489465482986" lon="2.602374689548047"><ele>339.6</ele><time>2026-04-09T12:30:58Z</time></trkpt><trkpt lat="42.44256253856285" lon="2.602449052898844"><ele>340.0</ele><time>2026-04-09T12:30:59Z</time></trkpt><trkpt lat="42.44263502403719" lon="2.60251968461019"><ele>340.0</ele><time>2026-04-09T12:31:00Z</time></trkpt><trkpt lat="42.44270941694043" lon="2.6025889495387"><ele>340.0</ele><time>2026-04-09T12:31:01Z</time></trkpt><trkpt lat="42.44278625192127" lon="2.6026508933633554"><ele>340.0</ele><time>2026-04-09T12:31:02Z</time></trkpt><trkpt lat="42.442866343077334" lon="2.602704567968775"><ele>340.0</ele><time>2026-04-09T12:31:03Z</time></trkpt><trkpt lat="42.44294795834936" lon="2.602759746971465"><ele>340.0</ele><time>2026-04-09T12:31:04Z</time></trkpt><trkpt lat="42.443031824560606" lon="2.602814086526613"><ele>340.8</ele><time>2026-04-09T12:31:05Z</time></trkpt><trkpt lat="42.4431172499954" lon="2.602871075437772"><ele>341.6</ele><time>2026-04-09T12:31:06Z</time></trkpt><trkpt lat="42.44319743083438" lon="2.602932041977742"><ele>342.4</ele><time>2026-04-09T12:31:07Z</time></trkpt><trkpt lat="42.4432763166288" lon="2.6030026732738025"><ele>343.2</ele><time>2026-04-09T12:31:08Z</time></trkpt><trkpt lat="42.44335095405059" lon="2.6030862045815866"><ele>344.0</ele><time>2026-04-09T12:31:09Z</time></trkpt><trkpt lat="42.443416651271974" lon="2.6031793032456556"><ele>344.0</ele><time>2026-04-09T12:31:10Z</time></trkpt><trkpt lat="42.4434804630705" lon="2.603285428536422"><ele>344.0</ele><time>2026-04-09T12:31:11Z</time></trkpt><trkpt lat="42.443530454340085" lon="2.6034002669222476"><ele>344.0</ele><time>2026-04-09T12:31:12Z</time></trkpt><trkpt lat="42.44358588245616" lon="2.603513351965279"><ele>344.0</ele><time>2026-04-09T12:31:13Z</time></trkpt><trkpt lat="42.443640907965204" lon="2.6036372023164125"><ele>344.0</ele><time>2026-04-09T12:31:14Z</time></trkpt><trkpt lat="42.443690042195236" lon="2.603766824706776"><ele>342.79999999999995</ele><time>2026-04-09T12:31:15Z</time></trkpt><trkpt lat="42.44373451778229" lon="2.603896655286701"><ele>341.59999999999997</ele><time>2026-04-09T12:31:16Z</time></trkpt><trkpt lat="42.44377333179298" lon="2.6040310438408514"><ele>340.4</ele><time>2026-04-09T12:31:17Z</time></trkpt><trkpt lat="42.44381034809007" lon="2.6041633546355127"><ele>339.2</ele><time>2026-04-09T12:31:18Z</time></trkpt><trkpt lat="42.44384699542105" lon="2.6042952744408687"><ele>338.0</ele><time>2026-04-09T12:31:19Z</time></trkpt><trkpt lat="42.443893113556165" lon="2.6044235453794036"><ele>339.0</ele><time>2026-04-09T12:31:20Z</time></trkpt><trkpt lat="42.44394541425589" lon="2.6045480240506285"><ele>340.0</ele><time>2026-04-09T12:31:21Z</time></trkpt><trkpt lat="42.44400673681943" lon="2.6046692602932295"><ele>341.0</ele><time>2026-04-09T12:31:22Z</time></trkpt><trkpt lat="42.44407200970592" lon="2.6047890252667374"><ele>342.0</ele><time>2026-04-09T12:31:23Z</time></trkpt><trkpt lat="42.444139814262904" lon="2.6049093877882994"><ele>343.0</ele><time>2026-04-09T12:31:24Z</time></trkpt><trkpt lat="42.4442134106078" lon="2.605028663077171"><ele>343.0</ele><time>2026-04-09T12:31:25Z</time></trkpt><trkpt lat="42.444293245803095" lon="2.6051452364966132"><ele>343.0</ele><time>2026-04-09T12:31:26Z</time></trkpt><trkpt lat="42.44437980173297" lon="2.6052518328690355"><ele>343.0</ele><time>2026-04-09T12:31:27Z</time></trkpt><trkpt lat="42.44447453604015" lon="2.605344515040781"><ele>343.0</ele><time>2026-04-09T12:31:28Z</time></trkpt><trkpt lat="42.44457506762738" lon="2.6054141558077215"><ele>342.5</ele><time>2026-04-09T12:31:29Z</time></trkpt><trkpt lat="42.44468464219247" lon="2.6054610182521856"><ele>342.0</ele><time>2026-04-09T12:31:30Z</time></trkpt><trkpt lat="42.44479804704542" lon="2.6054854762777437"><ele>341.5</ele><time>2026-04-09T12:31:31Z</time></trkpt><trkpt lat="42.44491437413042" lon="2.605489054849766"><ele>341.0</ele><time>2026-04-09T12:31:32Z</time></trkpt><trkpt lat="42.44503302373849" lon="2.6054615476240266"><ele>341.0</ele><time>2026-04-09T12:31:33Z</time></trkpt><trkpt lat="42.44514875462019" lon="2.6054075981779867"><ele>341.0</ele><time>2026-04-09T12:31:34Z</time></trkpt><trkpt lat="42.44525831997277" lon="2.6053280510055745"><ele>341.0</ele><time>2026-04-09T12:31:35Z</time></trkpt><trkpt lat="42.445358219720205" lon="2.605227311196776"><ele>341.0</ele><time>2026-04-09T12:31:36Z</time></trkpt><trkpt lat="42.44544101430008" lon="2.605101756482575"><ele>341.0</ele><time>2026-04-09T12:31:37Z</time></trkpt><trkpt lat="42.445513910521306" lon="2.60496525506067"><ele>341.0</ele><time>2026-04-09T12:31:38Z</time></trkpt><trkpt lat="42.44558590594424" lon="2.604826174597941"><ele>341.0</ele><time>2026-04-09T12:31:39Z</time></trkpt><trkpt lat="42.44566111304011" lon="2.6046942441841665"><ele>341.0</ele><time>2026-04-09T12:31:40Z</time></trkpt><trkpt lat="42.44575000613735" lon="2.6045828693914137"><ele>349.25</ele><time>2026-04-09T12:31:41Z</time></trkpt><trkpt lat="42.44585340960429" lon="2.604494154539477"><ele>357.5</ele><time>2026-04-09T12:31:42Z</time></trkpt><trkpt lat="42.44597052060477" lon="2.604428369210163"><ele>365.75</ele><time>2026-04-09T12:31:43Z</time></trkpt><trkpt lat="42.44608968156902" lon="2.604381434649836"><ele>374.0</ele><time>2026-04-09T12:31:44Z</time></trkpt><trkpt lat="42.446211319684515" lon="2.6043438739334883"><ele>370.5</ele><time>2026-04-09T12:31:45Z</time></trkpt><trkpt lat="42.44633014840194" lon="2.604305821744768"><ele>367.0</ele><time>2026-04-09T12:31:46Z</time></trkpt><trkpt lat="42.44645156132053" lon="2.604268196459954"><ele>363.5</ele><time>2026-04-09T12:31:47Z</time></trkpt><trkpt lat="42.44657763415162" lon="2.6042402117960903"><ele>360.0</ele><time>2026-04-09T12:31:48Z</time></trkpt><trkpt lat="42.446704155367556" lon="2.6042294779691293"><ele>360.0</ele><time>2026-04-09T12:31:49Z</time></trkpt><trkpt lat="42.446835620403405" lon="2.604236356784167"><ele>360.0</ele><time>2026-04-09T12:31:50Z</time></trkpt><trkpt lat="42.446967608628334" lon="2.60425344392099"><ele>360.0</ele><time>2026-04-09T12:31:51Z</time></trkpt><trkpt lat="42.44709997025064" lon="2.604270147442393"><ele>360.0</ele><time>2026-04-09T12:31:52Z</time></trkpt><trkpt lat="42.44723242800837" lon="2.6042835081798437"><ele>358.25</ele><time>2026-04-09T12:31:53Z</time></trkpt><trkpt lat="42.44737006415296" lon="2.6042929108126462"><ele>356.5</ele><time>2026-04-09T12:31:54Z</time></trkpt><trkpt lat="42.44750981347786" lon="2.604294511178909"><ele>354.75</ele><time>2026-04-09T12:31:55Z</time></trkpt><trkpt lat="42.44765788557695" lon="2.604287378550689"><ele>353.0</ele><time>2026-04-09T12:31:56Z</time></trkpt><trkpt lat="42.44780491203144" lon="2.6042670104082326"><ele>353.0</ele><time>2026-04-09T12:31:57Z</time></trkpt><trkpt lat="42.4479522694362" lon="2.6042216828978675"><ele>353.0</ele><time>2026-04-09T12:31:58Z</time></trkpt><trkpt lat="42.44809949613981" lon="2.604168139928012"><ele>353.0</ele><time>2026-04-09T12:31:59Z</time></trkpt><trkpt lat="42.44824805350452" lon="2.6041200449667627"><ele>349.6666666666667</ele><time>2026-04-09T12:32:00Z</time></trkpt><trkpt lat="42.448400594072574" lon="2.604086170033361"><ele>346.3333333333333</ele><time>2026-04-09T12:32:01Z</time></trkpt><trkpt lat="42.44855130728905" lon="2.6040774299662894"><ele>343.0</ele><time>2026-04-09T12:32:02Z</time></trkpt><trkpt lat="42.44870185433293" lon="2.6040928564170636"><ele>342.0</ele><time>2026-04-09T12:32:03Z</time></trkpt><trkpt lat="42.448851138951795" lon="2.6041292593737158"><ele>341.0</ele><time>2026-04-09T12:32:04Z</time></trkpt><trkpt lat="42.44899783449681" lon="2.6041822158675374"><ele>340.0</ele><time>2026-04-09T12:32:05Z</time></trkpt><trkpt lat="42.44914118279555" lon="2.6042392619145565"><ele>340.0</ele><time>2026-04-09T12:32:06Z</time></trkpt><trkpt lat="42.44928459472835" lon="2.6042925270925306"><ele>340.0</ele><time>2026-04-09T12:32:07Z</time></trkpt><trkpt lat="42.449425571593316" lon="2.604343324069094"><ele>340.0</ele><time>2026-04-09T12:32:08Z</time></trkpt><trkpt lat="42.449561997549914" lon="2.60439730060455"><ele>340.0</ele><time>2026-04-09T12:32:09Z</time></trkpt><trkpt lat="42.44969436271564" lon="2.604465063289196"><ele>338.75</ele><time>2026-04-09T12:32:10Z</time></trkpt><trkpt lat="42.44981784557028" lon="2.6045630229100034"><ele>337.5</ele><time>2026-04-09T12:32:11Z</time></trkpt><trkpt lat="42.4499351399995" lon="2.6046760300031098"><ele>336.25</ele><time>2026-04-09T12:32:12Z</time></trkpt><trkpt lat="42.45004663612743" lon="2.6048039958972438"><ele>335.0</ele><time>2026-04-09T12:32:13Z</time></trkpt><trkpt lat="42.4501582803848" lon="2.6049321846822138"><ele>335.0</ele><time>2026-04-09T12:32:14Z</time></trkpt><trkpt lat="42.45026525737169" lon="2.605066655664357"><ele>335.0</ele><time>2026-04-09T12:32:15Z</time></trkpt><trkpt lat="42.45035604801533" lon="2.6052159250516413"><ele>335.0</ele><time>2026-04-09T12:32:16Z</time></trkpt><trkpt lat="42.45042604493226" lon="2.605383861186432"><ele>335.0</ele><time>2026-04-09T12:32:17Z</time></trkpt><trkpt lat="42.45047344831842" lon="2.605562755273997"><ele>333.5</ele><time>2026-04-09T12:32:18Z</time></trkpt><trkpt lat="42.450497587595216" lon="2.6057530325031615"><ele>332.0</ele><time>2026-04-09T12:32:19Z</time></trkpt><trkpt lat="42.45049421536898" lon="2.605947958859165"><ele>330.5</ele><time>2026-04-09T12:32:20Z</time></trkpt><trkpt lat="42.450467167040514" lon="2.6061410295013907"><ele>329.0</ele><time>2026-04-09T12:32:21Z</time></trkpt><trkpt lat="42.45041449294623" lon="2.606319138719128"><ele>329.0</ele><time>2026-04-09T12:32:22Z</time></trkpt><trkpt lat="42.45034043870334" lon="2.6064846481560373"><ele>329.0</ele><time>2026-04-09T12:32:23Z</time></trkpt><trkpt lat="42.45025625471109" lon="2.606634472973437"><ele>329.0</ele><time>2026-04-09T12:32:24Z</time></trkpt><trkpt lat="42.45018503101616" lon="2.6067963662382168"><ele>329.0</ele><time>2026-04-09T12:32:25Z</time></trkpt><trkpt lat="42.45014342875656" lon="2.6069763209867047"><ele>330.25</ele><time>2026-04-09T12:32:26Z</time></trkpt><trkpt lat="42.45012259506911" lon="2.6071609826864504"><ele>331.5</ele><time>2026-04-09T12:32:27Z</time></trkpt><trkpt lat="42.450121804115696" lon="2.607343978594268"><ele>332.75</ele><time>2026-04-09T12:32:28Z</time></trkpt><trkpt lat="42.450131290155625" lon="2.607523683528281"><ele>334.0</ele><time>2026-04-09T12:32:29Z</time></trkpt><trkpt lat="42.4501343448391" lon="2.607702337522168"><ele>335.5</ele><time>2026-04-09T12:32:30Z</time></trkpt><trkpt lat="42.45011714263463" lon="2.607859525330569"><ele>337.0</ele><time>2026-04-09T12:32:31Z</time></trkpt><trkpt lat="42.4500506960674" lon="2.607987352269523"><ele>338.5</ele><time>2026-04-09T12:32:32Z</time></trkpt><trkpt lat="42.44996201211991" lon="2.6081019451151124"><ele>340.0</ele><time>2026-04-09T12:32:33Z</time></trkpt><trkpt lat="42.44988445761082" lon="2.6082285895461474"><ele>340.0</ele><time>2026-04-09T12:32:34Z</time></trkpt><trkpt lat="42.44980918605736" lon="2.6083556495562683"><ele>340.0</ele><time>2026-04-09T12:32:35Z</time></trkpt><trkpt lat="42.449755747898614" lon="2.60849362100758"><ele>340.0</ele><time>2026-04-09T12:32:36Z</time></trkpt><trkpt lat="42.44973262040926" lon="2.6086406735599854"><ele>340.0</ele><time>2026-04-09T12:32:37Z</time></trkpt><trkpt lat="42.44969184445804" lon="2.6087749838184915"><ele>336.6</ele><time>2026-04-09T12:32:38Z</time></trkpt><trkpt lat="42.44961754212483" lon="2.6088845000375245"><ele>333.2</ele><time>2026-04-09T12:32:39Z</time></trkpt><trkpt lat="42.449538711431444" lon="2.608977134943522"><ele>329.79999999999995</ele><time>2026-04-09T12:32:40Z</time></trkpt><trkpt lat="42.44947947896869" lon="2.609090208142235"><ele>326.4</ele><time>2026-04-09T12:32:41Z</time></trkpt><trkpt lat="42.449428007951596" lon="2.60921023832822"><ele>323.0</ele><time>2026-04-09T12:32:42Z</time></trkpt><trkpt lat="42.44937485898589" lon="2.6093225867265115"><ele>323.0</ele><time>2026-04-09T12:32:43Z</time></trkpt><trkpt lat="42.449331842671675" lon="2.609430539393077"><ele>323.0</ele><time>2026-04-09T12:32:44Z</time></trkpt><trkpt lat="42.44931604180587" lon="2.6095554071459066"><ele>323.0</ele><time>2026-04-09T12:32:45Z</time></trkpt><trkpt lat="42.44932939968527" lon="2.609679569204446"><ele>323.0</ele><time>2026-04-09T12:32:46Z</time></trkpt><trkpt lat="42.449382632689044" lon="2.6097838629417365"><ele>323.0</ele><time>2026-04-09T12:32:47Z</time></trkpt><trkpt lat="42.44946005714151" lon="2.6098569500357622"><ele>322.4</ele><time>2026-04-09T12:32:48Z</time></trkpt><trkpt lat="42.44955554473142" lon="2.6098959041888268"><ele>321.79999999999995</ele><time>2026-04-09T12:32:49Z</time></trkpt><trkpt lat="42.4496616859471" lon="2.609905992376628"><ele>321.2</ele><time>2026-04-09T12:32:50Z</time></trkpt><trkpt lat="42.449773923135034" lon="2.609908502382143"><ele>320.6</ele><time>2026-04-09T12:32:51Z</time></trkpt><trkpt lat="42.44989195447007" lon="2.609922073616841"><ele>320.0</ele><time>2026-04-09T12:32:52Z</time></trkpt><trkpt lat="42.45001352295101" lon="2.6099368315770923"><ele>320.75</ele><time>2026-04-09T12:32:53Z</time></trkpt><trkpt lat="42.45013059863676" lon="2.6099406976306057"><ele>321.5</ele><time>2026-04-09T12:32:54Z</time></trkpt><trkpt lat="42.45024611819957" lon="2.609919164686608"><ele>322.25</ele><time>2026-04-09T12:32:55Z</time></trkpt><trkpt lat="42.45036249133394" lon="2.6098905943379767"><ele>323.0</ele><time>2026-04-09T12:32:56Z</time></trkpt><trkpt lat="42.450478246031835" lon="2.6098650119209075"><ele>323.0</ele><time>2026-04-09T12:32:57Z</time></trkpt><trkpt lat="42.45059499332691" lon="2.609871410952966"><ele>323.0</ele><time>2026-04-09T12:32:58Z</time></trkpt><trkpt lat="42.45070637143183" lon="2.609905878653894"><ele>323.0</ele><time>2026-04-09T12:32:59Z</time></trkpt><trkpt lat="42.45081603632627" lon="2.6099518799363346"><ele>323.0</ele><time>2026-04-09T12:33:00Z</time></trkpt><trkpt lat="42.45092499203028" lon="2.6099975947754053"><ele>323.0</ele><time>2026-04-09T12:33:01Z</time></trkpt><trkpt lat="42.451033131686756" lon="2.610036257734232"><ele>323.0</ele><time>2026-04-09T12:33:02Z</time></trkpt><trkpt lat="42.45114312729974" lon="2.6100525666685765"><ele>323.0</ele><time>2026-04-09T12:33:03Z</time></trkpt><trkpt lat="42.451252687106695" lon="2.610059195800801"><ele>323.0</ele><time>2026-04-09T12:33:04Z</time></trkpt><trkpt lat="42.45136014902796" lon="2.6100700370854524"><ele>323.0</ele><time>2026-04-09T12:33:05Z</time></trkpt><trkpt lat="42.451466252299184" lon="2.6100927137733088"><ele>323.79999999999995</ele><time>2026-04-09T12:33:06Z</time></trkpt><trkpt lat="42.451566945165595" lon="2.6101273850415683"><ele>324.6</ele><time>2026-04-09T12:33:07Z</time></trkpt><trkpt lat="42.45166536600908" lon="2.610176260140142"><ele>325.4</ele><time>2026-04-09T12:33:08Z</time></trkpt><trkpt lat="42.45176089844914" lon="2.610222736598605"><ele>326.20000000000005</ele><time>2026-04-09T12:33:09Z</time></trkpt><trkpt lat="42.45185592100092" lon="2.6102699170548935"><ele>327.0</ele><time>2026-04-09T12:33:10Z</time></trkpt><trkpt lat="42.451951193810245" lon="2.61031204582088"><ele>325.20000000000005</ele><time>2026-04-09T12:33:11Z</time></trkpt><trkpt lat="42.45204766800507" lon="2.61033078195897"><ele>323.40000000000003</ele><time>2026-04-09T12:33:12Z</time></trkpt><trkpt lat="42.4521436940085" lon="2.6103305614286407"><ele>321.6</ele><time>2026-04-09T12:33:13Z</time></trkpt><trkpt lat="42.45223739698997" lon="2.61033799199063"><ele>319.8</ele><time>2026-04-09T12:33:14Z</time></trkpt><trkpt lat="42.452327205226425" lon="2.6103780008119113"><ele>318.0</ele><time>2026-04-09T12:33:15Z</time></trkpt><trkpt lat="42.452414188823475" lon="2.6104399426273464"><ele>318.0</ele><time>2026-04-09T12:33:16Z</time></trkpt><trkpt lat="42.45250212217485" lon="2.610519934245008"><ele>318.0</ele><time>2026-04-09T12:33:17Z</time></trkpt><trkpt lat="42.452591372505616" lon="2.6106006153556507"><ele>318.0</ele><time>2026-04-09T12:33:18Z</time></trkpt><trkpt lat="42.452682312663114" lon="2.610676552786976"><ele>318.0</ele><time>2026-04-09T12:33:19Z</time></trkpt><trkpt lat="42.452786984966366" lon="2.610731939836374"><ele>318.0</ele><time>2026-04-09T12:33:20Z</time></trkpt><trkpt lat="42.45289313415965" lon="2.610781456548279"><ele>321.5</ele><time>2026-04-09T12:33:21Z</time></trkpt><trkpt lat="42.453001791494955" lon="2.6108270344688047"><ele>325.0</ele><time>2026-04-09T12:33:22Z</time></trkpt><trkpt lat="42.453108771154625" lon="2.6108747341364826"><ele>328.5</ele><time>2026-04-09T12:33:23Z</time></trkpt><trkpt lat="42.45321376805818" lon="2.610930195402883"><ele>332.0</ele><time>2026-04-09T12:33:24Z</time></trkpt><trkpt lat="42.453317485082096" lon="2.6109884819458764"><ele>332.0</ele><time>2026-04-09T12:33:25Z</time></trkpt><trkpt lat="42.45341555434202" lon="2.611046887898502"><ele>332.0</ele><time>2026-04-09T12:33:26Z</time></trkpt><trkpt lat="42.453500015103465" lon="2.611114933555246"><ele>332.0</ele><time>2026-04-09T12:33:27Z</time></trkpt><trkpt lat="42.453565613134316" lon="2.6112008809638523"><ele>332.0</ele><time>2026-04-09T12:33:28Z</time></trkpt><trkpt lat="42.45360395080925" lon="2.6112927091571803"><ele>332.0</ele><time>2026-04-09T12:33:29Z</time></trkpt><trkpt lat="42.45362638460922" lon="2.6113847270190065"><ele>332.0</ele><time>2026-04-09T12:33:30Z</time></trkpt><trkpt lat="42.45363907922125" lon="2.611473304364933"><ele>329.83333333333337</ele><time>2026-04-09T12:33:31Z</time></trkpt><trkpt lat="42.453637390463655" lon="2.611567410662782"><ele>327.6666666666667</ele><time>2026-04-09T12:33:32Z</time></trkpt><trkpt lat="42.45362976884023" lon="2.6116711244907136"><ele>325.5</ele><time>2026-04-09T12:33:33Z</time></trkpt><trkpt lat="42.453616985749555" lon="2.611781001196342"><ele>323.3333333333333</ele><time>2026-04-09T12:33:34Z</time></trkpt><trkpt lat="42.45357775440793" lon="2.6118972133691027"><ele>321.16666666666663</ele><time>2026-04-09T12:33:35Z</time></trkpt><trkpt lat="42.453519028534465" lon="2.612005270073447"><ele>319.0</ele><time>2026-04-09T12:33:36Z</time></trkpt><trkpt lat="42.45344950919633" lon="2.6121137818937936"><ele>319.0</ele><time>2026-04-09T12:33:37Z</time></trkpt><trkpt lat="42.45337933130939" lon="2.6122261007090923"><ele>319.0</ele><time>2026-04-09T12:33:38Z</time></trkpt><trkpt lat="42.45331270783298" lon="2.6123418136852536"><ele>319.0</ele><time>2026-04-09T12:33:39Z</time></trkpt><trkpt lat="42.453267478248705" lon="2.6124751236812016"><ele>319.0</ele><time>2026-04-09T12:33:40Z</time></trkpt><trkpt lat="42.45324507122684" lon="2.6126199078895116"><ele>319.0</ele><time>2026-04-09T12:33:41Z</time></trkpt><trkpt lat="42.45323453481656" lon="2.612766625378208"><ele>320.2</ele><time>2026-04-09T12:33:42Z</time></trkpt><trkpt lat="42.45322716515243" lon="2.6129105614432953"><ele>321.4</ele><time>2026-04-09T12:33:43Z</time></trkpt><trkpt lat="42.45321576376944" lon="2.6130555163985"><ele>322.6</ele><time>2026-04-09T12:33:44Z</time></trkpt><trkpt lat="42.45319775263183" lon="2.6131988897875598"><ele>323.8</ele><time>2026-04-09T12:33:45Z</time></trkpt><trkpt lat="42.45317434068635" lon="2.6133427345430276"><ele>325.0</ele><time>2026-04-09T12:33:46Z</time></trkpt><trkpt lat="42.45314336422654" lon="2.6134860903502317"><ele>325.0</ele><time>2026-04-09T12:33:47Z</time></trkpt><trkpt lat="42.45310391662331" lon="2.613631638912539"><ele>325.0</ele><time>2026-04-09T12:33:48Z</time></trkpt><trkpt lat="42.453052679713316" lon="2.6137747244854546"><ele>325.0</ele><time>2026-04-09T12:33:49Z</time></trkpt><trkpt lat="42.45299406965102" lon="2.6139184312547346"><ele>325.0</ele><time>2026-04-09T12:33:50Z</time></trkpt><trkpt lat="42.45292597720869" lon="2.614053964957225"><ele>327.75</ele><time>2026-04-09T12:33:51Z</time></trkpt><trkpt lat="42.4528509364326" lon="2.6141803771042165"><ele>330.5</ele><time>2026-04-09T12:33:52Z</time></trkpt><trkpt lat="42.45276801707165" lon="2.6142985537632923"><ele>333.25</ele><time>2026-04-09T12:33:53Z</time></trkpt><trkpt lat="42.45267807893495" lon="2.614404955383271"><ele>336.0</ele><time>2026-04-09T12:33:54Z</time></trkpt><trkpt lat="42.45258912268873" lon="2.6145116473440666"><ele>336.0</ele><time>2026-04-09T12:33:55Z</time></trkpt><trkpt lat="42.45250265967794" lon="2.6146064479130535"><ele>336.0</ele><time>2026-04-09T12:33:56Z</time></trkpt><trkpt lat="42.45241900030429" lon="2.614688679320941"><ele>336.0</ele><time>2026-04-09T12:33:57Z</time></trkpt><trkpt lat="42.45234184430156" lon="2.614760822392841"><ele>336.0</ele><time>2026-04-09T12:33:58Z</time></trkpt><trkpt lat="42.452256608597324" lon="2.614816354097255"><ele>336.0</ele><time>2026-04-09T12:33:59Z</time></trkpt><trkpt lat="42.45216774898224" lon="2.614851149076094"><ele>333.5</ele><time>2026-04-09T12:34:00Z</time></trkpt><trkpt lat="42.452078050754835" lon="2.6148702215905963"><ele>331.0</ele><time>2026-04-09T12:34:01Z</time></trkpt><trkpt lat="42.45199059766733" lon="2.6148869625741353"><ele>328.5</ele><time>2026-04-09T12:34:02Z</time></trkpt><trkpt lat="42.45190679895766" lon="2.6149153008422847"><ele>326.0</ele><time>2026-04-09T12:34:03Z</time></trkpt><trkpt lat="42.45182285721858" lon="2.6149573165623434"><ele>323.5</ele><time>2026-04-09T12:34:04Z</time></trkpt><trkpt lat="42.451738357805475" lon="2.6149990192846273"><ele>321.0</ele><time>2026-04-09T12:34:05Z</time></trkpt><trkpt lat="42.451654807599404" lon="2.6150410328277904"><ele>321.0</ele><time>2026-04-09T12:34:06Z</time></trkpt><trkpt lat="42.451572665546216" lon="2.615087831284867"><ele>321.0</ele><time>2026-04-09T12:34:07Z</time></trkpt><trkpt lat="42.45149502753801" lon="2.6151421024572605"><ele>321.0</ele><time>2026-04-09T12:34:08Z</time></trkpt><trkpt lat="42.451414165368135" lon="2.6151939457442164"><ele>321.0</ele><time>2026-04-09T12:34:09Z</time></trkpt><trkpt lat="42.451327384888" lon="2.61522585643127"><ele>321.0</ele><time>2026-04-09T12:34:10Z</time></trkpt><trkpt lat="42.451224493585904" lon="2.6152386221342896"><ele>319.2</ele><time>2026-04-09T12:34:11Z</time></trkpt><trkpt lat="42.45112141420532" lon="2.615230170622803"><ele>317.40000000000003</ele><time>2026-04-09T12:34:12Z</time></trkpt><trkpt lat="42.45101569594304" lon="2.6152166656034628"><ele>315.6</ele><time>2026-04-09T12:34:13Z</time></trkpt><trkpt lat="42.450910589481445" lon="2.615220747004505"><ele>313.8</ele><time>2026-04-09T12:34:14Z</time></trkpt><trkpt lat="42.450807399283846" lon="2.6152305568270444"><ele>312.0</ele><time>2026-04-09T12:34:15Z</time></trkpt><trkpt lat="42.45070344647943" lon="2.6152261347552637"><ele>312.0</ele><time>2026-04-09T12:34:16Z</time></trkpt><trkpt lat="42.45060239747781" lon="2.6152118495544245"><ele>312.0</ele><time>2026-04-09T12:34:17Z</time></trkpt><trkpt lat="42.450501559366046" lon="2.615195249586901"><ele>312.0</ele><time>2026-04-09T12:34:18Z</time></trkpt><trkpt lat="42.45040384521608" lon="2.6151864688776465"><ele>312.0</ele><time>2026-04-09T12:34:19Z</time></trkpt><trkpt lat="42.450304035648934" lon="2.615173859733469"><ele>312.0</ele><time>2026-04-09T12:34:20Z</time></trkpt><trkpt lat="42.45021051323089" lon="2.6151624823440005"><ele>310.4</ele><time>2026-04-09T12:34:21Z</time></trkpt><trkpt lat="42.45011475397052" lon="2.6151554562531776"><ele>308.79999999999995</ele><time>2026-04-09T12:34:22Z</time></trkpt><trkpt lat="42.45002068054641" lon="2.615178080808211"><ele>307.2</ele><time>2026-04-09T12:34:23Z</time></trkpt><trkpt lat="42.449927491708046" lon="2.6152166040687677"><ele>305.59999999999997</ele><time>2026-04-09T12:34:24Z</time></trkpt><trkpt lat="42.44983709436667" lon="2.615283430154755"><ele>304.0</ele><time>2026-04-09T12:34:25Z</time></trkpt><trkpt lat="42.449746306564066" lon="2.615368902552249"><ele>304.0</ele><time>2026-04-09T12:34:26Z</time></trkpt><trkpt lat="42.44965950891741" lon="2.615472772310942"><ele>304.0</ele><time>2026-04-09T12:34:27Z</time></trkpt><trkpt lat="42.4495689517577" lon="2.6155833605032837"><ele>304.0</ele><time>2026-04-09T12:34:28Z</time></trkpt><trkpt lat="42.44947850806721" lon="2.615701559976332"><ele>304.0</ele><time>2026-04-09T12:34:29Z</time></trkpt><trkpt lat="42.44938979698386" lon="2.6158199733885397"><ele>304.0</ele><time>2026-04-09T12:34:30Z</time></trkpt><trkpt lat="42.44930225531516" lon="2.6159354443608005"><ele>304.0</ele><time>2026-04-09T12:34:31Z</time></trkpt><trkpt lat="42.449215665403244" lon="2.616050917603009"><ele>304.0</ele><time>2026-04-09T12:34:32Z</time></trkpt><trkpt lat="42.44913137597455" lon="2.616169359500612"><ele>304.0</ele><time>2026-04-09T12:34:33Z</time></trkpt><trkpt lat="42.44905175019342" lon="2.6162919568952057"><ele>306.0</ele><time>2026-04-09T12:34:34Z</time></trkpt><trkpt lat="42.44897917912979" lon="2.616424124369171"><ele>308.0</ele><time>2026-04-09T12:34:35Z</time></trkpt><trkpt lat="42.44891288775656" lon="2.6165599923655383"><ele>310.0</ele><time>2026-04-09T12:34:36Z</time></trkpt><trkpt lat="42.44885864812117" lon="2.616696655140075"><ele>312.0</ele><time>2026-04-09T12:34:37Z</time></trkpt><trkpt lat="42.44880804345513" lon="2.616825098009345"><ele>311.0</ele><time>2026-04-09T12:34:38Z</time></trkpt><trkpt lat="42.44877200813588" lon="2.6169564966474677"><ele>310.0</ele><time>2026-04-09T12:34:39Z</time></trkpt><trkpt lat="42.44876318075543" lon="2.617098636874448"><ele>309.0</ele><time>2026-04-09T12:34:40Z</time></trkpt><trkpt lat="42.448783455398505" lon="2.617236764465549"><ele>308.0</ele><time>2026-04-09T12:34:41Z</time></trkpt><trkpt lat="42.44883502846544" lon="2.617368426505801"><ele>307.0</ele><time>2026-04-09T12:34:42Z</time></trkpt><trkpt lat="42.448903831174164" lon="2.6174837988362203"><ele>307.0</ele><time>2026-04-09T12:34:43Z</time></trkpt><trkpt lat="42.448992744840325" lon="2.6175866788140967"><ele>307.0</ele><time>2026-04-09T12:34:44Z</time></trkpt><trkpt lat="42.44909096165479" lon="2.6176875737660703"><ele>307.0</ele><time>2026-04-09T12:34:45Z</time></trkpt><trkpt lat="42.44919635281242" lon="2.617792394436169"><ele>307.0</ele><time>2026-04-09T12:34:46Z</time></trkpt><trkpt lat="42.44930573821578" lon="2.6178954078551033"><ele>308.75</ele><time>2026-04-09T12:34:47Z</time></trkpt><trkpt lat="42.449417290866144" lon="2.6180049178672147"><ele>310.5</ele><time>2026-04-09T12:34:48Z</time></trkpt><trkpt lat="42.44953041792677" lon="2.61811828008685"><ele>312.25</ele><time>2026-04-09T12:34:49Z</time></trkpt><trkpt lat="42.44964612510104" lon="2.6182298710828507"><ele>314.0</ele><time>2026-04-09T12:34:50Z</time></trkpt><trkpt lat="42.44976348441774" lon="2.6183474356540226"><ele>314.0</ele><time>2026-04-09T12:34:51Z</time></trkpt><trkpt lat="42.44988496633008" lon="2.6184665395731836"><ele>314.0</ele><time>2026-04-09T12:34:52Z</time></trkpt><trkpt lat="42.4500092341783" lon="2.618584825500512"><ele>314.0</ele><time>2026-04-09T12:34:53Z</time></trkpt><trkpt lat="42.4501306218206" lon="2.6187009382105293"><ele>311.75</ele><time>2026-04-09T12:34:54Z</time></trkpt><trkpt lat="42.45025270578922" lon="2.618820505662125"><ele>309.5</ele><time>2026-04-09T12:34:55Z</time></trkpt><trkpt lat="42.45037502941776" lon="2.618936610046841"><ele>307.25</ele><time>2026-04-09T12:34:56Z</time></trkpt><trkpt lat="42.45049440838648" lon="2.6190519855815944"><ele>305.0</ele><time>2026-04-09T12:34:57Z</time></trkpt><trkpt lat="42.45061203696964" lon="2.6191665396374213"><ele>305.0</ele><time>2026-04-09T12:34:58Z</time></trkpt><trkpt lat="42.45073059917598" lon="2.6192816119365117"><ele>305.0</ele><time>2026-04-09T12:34:59Z</time></trkpt><trkpt lat="42.450848019604535" lon="2.6193960788864734"><ele>305.0</ele><time>2026-04-09T12:35:00Z</time></trkpt><trkpt lat="42.4509661387614" lon="2.6195104737695862"><ele>305.0</ele><time>2026-04-09T12:35:01Z</time></trkpt><trkpt lat="42.451083932922906" lon="2.6196224507713"><ele>303.5</ele><time>2026-04-09T12:35:02Z</time></trkpt><trkpt lat="42.4512014447547" lon="2.6197350502203327"><ele>302.0</ele><time>2026-04-09T12:35:03Z</time></trkpt><trkpt lat="42.45131931795771" lon="2.619848865165225"><ele>300.5</ele><time>2026-04-09T12:35:04Z</time></trkpt><trkpt lat="42.45143616856215" lon="2.619962749709661"><ele>299.0</ele><time>2026-04-09T12:35:05Z</time></trkpt><trkpt lat="42.45155374404811" lon="2.620075740630092"><ele>299.0</ele><time>2026-04-09T12:35:06Z</time></trkpt><trkpt lat="42.45167111171766" lon="2.6201909569014017"><ele>299.0</ele><time>2026-04-09T12:35:07Z</time></trkpt><trkpt lat="42.451787746022994" lon="2.6203080096519833"><ele>299.0</ele><time>2026-04-09T12:35:08Z</time></trkpt><trkpt lat="42.45190221310838" lon="2.620427459049789"><ele>299.0</ele><time>2026-04-09T12:35:09Z</time></trkpt><trkpt lat="42.45201718111321" lon="2.6205443643226074"><ele>299.25</ele><time>2026-04-09T12:35:10Z</time></trkpt><trkpt lat="42.45213171786349" lon="2.620660186828073"><ele>299.5</ele><time>2026-04-09T12:35:11Z</time></trkpt><trkpt lat="42.45224539332882" lon="2.620771903548548"><ele>299.75</ele><time>2026-04-09T12:35:12Z</time></trkpt><trkpt lat="42.45235355117001" lon="2.6208837128029585"><ele>300.0</ele><time>2026-04-09T12:35:13Z</time></trkpt><trkpt lat="42.45246321221257" lon="2.620990680251406"><ele>300.0</ele><time>2026-04-09T12:35:14Z</time></trkpt><trkpt lat="42.45257335153425" lon="2.6210951567325558"><ele>300.0</ele><time>2026-04-09T12:35:15Z</time></trkpt><trkpt lat="42.45267710343336" lon="2.6212091562271214"><ele>300.0</ele><time>2026-04-09T12:35:16Z</time></trkpt><trkpt lat="42.452773628762195" lon="2.6213368243973805"><ele>300.0</ele><time>2026-04-09T12:35:17Z</time></trkpt><trkpt lat="42.45286102881801" lon="2.621473902654812"><ele>299.5</ele><time>2026-04-09T12:35:18Z</time></trkpt><trkpt lat="42.45294778154585" lon="2.6216127170984986"><ele>299.0</ele><time>2026-04-09T12:35:19Z</time></trkpt><trkpt lat="42.4530330603269" lon="2.6217509419639473"><ele>298.5</ele><time>2026-04-09T12:35:20Z</time></trkpt><trkpt lat="42.45311308998757" lon="2.6218849652143543"><ele>298.0</ele><time>2026-04-09T12:35:21Z</time></trkpt><trkpt lat="42.45319225670099" lon="2.6220113802868497"><ele>297.5</ele><time>2026-04-09T12:35:22Z</time></trkpt><trkpt lat="42.45327796723797" lon="2.6221263574653833"><ele>297.0</ele><time>2026-04-09T12:35:23Z</time></trkpt><trkpt lat="42.45336920065742" lon="2.6222298557921055"><ele>296.5</ele><time>2026-04-09T12:35:24Z</time></trkpt><trkpt lat="42.4534583905333" lon="2.622327071752574"><ele>296.0</ele><time>2026-04-09T12:35:25Z</time></trkpt><trkpt lat="42.45354351522321" lon="2.622418051234544"><ele>296.0</ele><time>2026-04-09T12:35:26Z</time></trkpt><trkpt lat="42.45362600400703" lon="2.622504746693278"><ele>296.0</ele><time>2026-04-09T12:35:27Z</time></trkpt><trkpt lat="42.45370370609367" lon="2.6225859574045693"><ele>296.0</ele><time>2026-04-09T12:35:28Z</time></trkpt><trkpt lat="42.45377654061859" lon="2.6226613023746865"><ele>296.0</ele><time>2026-04-09T12:35:29Z</time></trkpt><trkpt lat="42.45383956157095" lon="2.6227437559220386"><ele>296.0</ele><time>2026-04-09T12:35:30Z</time></trkpt><trkpt lat="42.45389057394502" lon="2.6228355805358885"><ele>297.2</ele><time>2026-04-09T12:35:31Z</time></trkpt><trkpt lat="42.45392594432447" lon="2.622947588477459"><ele>298.40000000000003</ele><time>2026-04-09T12:35:32Z</time></trkpt><trkpt lat="42.45395310055742" lon="2.623072227513201"><ele>299.6</ele><time>2026-04-09T12:35:33Z</time></trkpt><trkpt lat="42.45398309445501" lon="2.623199513244914"><ele>300.8</ele><time>2026-04-09T12:35:34Z</time></trkpt><trkpt lat="42.4540130465506" lon="2.623325861157045"><ele>302.0</ele><time>2026-04-09T12:35:35Z</time></trkpt><trkpt lat="42.45404472923355" lon="2.6234492907994427"><ele>302.0</ele><time>2026-04-09T12:35:36Z</time></trkpt><trkpt lat="42.454076726571174" lon="2.623574144440042"><ele>302.0</ele><time>2026-04-09T12:35:37Z</time></trkpt><trkpt lat="42.45410980810376" lon="2.62369697754323"><ele>302.0</ele><time>2026-04-09T12:35:38Z</time></trkpt><trkpt lat="42.45414122699629" lon="2.6238199530057105"><ele>302.0</ele><time>2026-04-09T12:35:39Z</time></trkpt><trkpt lat="42.4541752256059" lon="2.6239443480349234"><ele>302.0</ele><time>2026-04-09T12:35:40Z</time></trkpt><trkpt lat="42.45420801318326" lon="2.6240694396247477"><ele>301.8</ele><time>2026-04-09T12:35:41Z</time></trkpt><trkpt lat="42.45424211431725" lon="2.6241939125869536"><ele>301.6</ele><time>2026-04-09T12:35:42Z</time></trkpt><trkpt lat="42.4542731353441" lon="2.6243180839895763"><ele>301.40000000000003</ele><time>2026-04-09T12:35:43Z</time></trkpt><trkpt lat="42.45430474223432" lon="2.62444519525852"><ele>301.2</ele><time>2026-04-09T12:35:44Z</time></trkpt><trkpt lat="42.45433653760224" lon="2.624571964050685"><ele>301.0</ele><time>2026-04-09T12:35:45Z</time></trkpt><trkpt lat="42.45436708107233" lon="2.62469528970593"><ele>299.8</ele><time>2026-04-09T12:35:46Z</time></trkpt><trkpt lat="42.45439748241914" lon="2.624816675318026"><ele>298.6</ele><time>2026-04-09T12:35:47Z</time></trkpt><trkpt lat="42.45442670105681" lon="2.6249362471267794"><ele>297.4</ele><time>2026-04-09T12:35:48Z</time></trkpt><trkpt lat="42.454451865713715" lon="2.6250534925322575"><ele>296.2</ele><time>2026-04-09T12:35:49Z</time></trkpt><trkpt lat="42.45446732034088" lon="2.6251718855281476"><ele>295.0</ele><time>2026-04-09T12:35:50Z</time></trkpt><trkpt lat="42.4544736145847" lon="2.6252925244695944"><ele>294.6</ele><time>2026-04-09T12:35:51Z</time></trkpt><trkpt lat="42.45446817542439" lon="2.6254143562090295"><ele>294.2</ele><time>2026-04-09T12:35:52Z</time></trkpt><trkpt lat="42.454460795224264" lon="2.6255374798257494"><ele>293.8</ele><time>2026-04-09T12:35:53Z</time></trkpt><trkpt lat="42.45445323789887" lon="2.625661788691821"><ele>293.4</ele><time>2026-04-09T12:35:54Z</time></trkpt><trkpt lat="42.45444610415563" lon="2.6257872184575173"><ele>293.0</ele><time>2026-04-09T12:35:55Z</time></trkpt><trkpt lat="42.45444044285376" lon="2.625913018368483"><ele>293.0</ele><time>2026-04-09T12:35:56Z</time></trkpt><trkpt lat="42.45443479586628" lon="2.6260400638884627"><ele>293.0</ele><time>2026-04-09T12:35:57Z</time></trkpt><trkpt lat="42.454429272785866" lon="2.6261689664624357"><ele>293.0</ele><time>2026-04-09T12:35:58Z</time></trkpt><trkpt lat="42.45442391480191" lon="2.626292726292509"><ele>293.0</ele><time>2026-04-09T12:35:59Z</time></trkpt><trkpt lat="42.45441902855461" lon="2.6264089141185796"><ele>293.0</ele><time>2026-04-09T12:36:00Z</time></trkpt><trkpt lat="42.45441409052443" lon="2.626517656269498"><ele>293.0</ele><time>2026-04-09T12:36:01Z</time></trkpt><trkpt lat="42.454409784363115" lon="2.6266188768792884"><ele>293.0</ele><time>2026-04-09T12:36:02Z</time></trkpt><trkpt lat="42.45440631873263" lon="2.626709279374837"><ele>293.0</ele><time>2026-04-09T12:36:03Z</time></trkpt><trkpt lat="42.45440136388863" lon="2.6268681597538355"><ele>293.0</ele><time>2026-04-09T12:36:05Z</time></trkpt><trkpt lat="42.45440010239945" lon="2.6270105410105122"><ele>293.0</ele><time>2026-04-09T12:36:07Z</time></trkpt><trkpt lat="42.45440253313855" lon="2.6271619958980894"><ele>293.0</ele><time>2026-04-09T12:36:09Z</time></trkpt><trkpt lat="42.45440558119605" lon="2.6272567144397447"><ele>293.1666666666667</ele><time>2026-04-09T12:36:10Z</time></trkpt><trkpt lat="42.45441199183717" lon="2.6273569133873287"><ele>293.33333333333337</ele><time>2026-04-09T12:36:11Z</time></trkpt><trkpt lat="42.454420498410954" lon="2.6274666051933733"><ele>293.5</ele><time>2026-04-09T12:36:12Z</time></trkpt><trkpt lat="42.454433986787514" lon="2.627580164696418"><ele>293.6666666666667</ele><time>2026-04-09T12:36:13Z</time></trkpt><trkpt lat="42.45444920450566" lon="2.6276983794113344"><ele>293.8333333333333</ele><time>2026-04-09T12:36:14Z</time></trkpt><trkpt lat="42.45446585250863" lon="2.6278139057715055"><ele>294.0</ele><time>2026-04-09T12:36:15Z</time></trkpt><trkpt lat="42.454485613958454" lon="2.627927843099097"><ele>293.5</ele><time>2026-04-09T12:36:16Z</time></trkpt><trkpt lat="42.45450794399901" lon="2.628040870452689"><ele>293.0</ele><time>2026-04-09T12:36:17Z</time></trkpt><trkpt lat="42.45453413991487" lon="2.6281474059111893"><ele>292.5</ele><time>2026-04-09T12:36:18Z</time></trkpt><trkpt lat="42.4545627981974" lon="2.6282526649630404"><ele>292.0</ele><time>2026-04-09T12:36:19Z</time></trkpt><trkpt lat="42.45459493561678" lon="2.628357981080118"><ele>291.5</ele><time>2026-04-09T12:36:20Z</time></trkpt><trkpt lat="42.454627753895785" lon="2.6284625101376884"><ele>291.0</ele><time>2026-04-09T12:36:21Z</time></trkpt><trkpt lat="42.45466172523224" lon="2.628567583888286"><ele>291.3333333333333</ele><time>2026-04-09T12:36:22Z</time></trkpt><trkpt lat="42.45469897413073" lon="2.6286685935293135"><ele>291.6666666666667</ele><time>2026-04-09T12:36:23Z</time></trkpt><trkpt lat="42.45474171903726" lon="2.62877117396096"><ele>292.0</ele><time>2026-04-09T12:36:24Z</time></trkpt><trkpt lat="42.454784112238656" lon="2.628867320722834"><ele>292.33333333333337</ele><time>2026-04-09T12:36:25Z</time></trkpt><trkpt lat="42.45483050996982" lon="2.628965915210783"><ele>292.6666666666667</ele><time>2026-04-09T12:36:26Z</time></trkpt><trkpt lat="42.454875260011285" lon="2.629062414265567"><ele>293.0</ele><time>2026-04-09T12:36:27Z</time></trkpt><trkpt lat="42.45492261349249" lon="2.629157507445302"><ele>293.0</ele><time>2026-04-09T12:36:28Z</time></trkpt><trkpt lat="42.4549693299907" lon="2.6292552248789836"><ele>293.0</ele><time>2026-04-09T12:36:29Z</time></trkpt><trkpt lat="42.455013570460395" lon="2.629355799999736"><ele>293.0</ele><time>2026-04-09T12:36:30Z</time></trkpt><trkpt lat="42.45505980057875" lon="2.6294572579413784"><ele>293.0</ele><time>2026-04-09T12:36:31Z</time></trkpt><trkpt lat="42.4551066119916" lon="2.6295602190266183"><ele>293.0</ele><time>2026-04-09T12:36:32Z</time></trkpt><trkpt lat="42.4551542028168" lon="2.6296617550399075"><ele>293.0</ele><time>2026-04-09T12:36:33Z</time></trkpt><trkpt lat="42.45520176582228" lon="2.6297662556543413"><ele>292.83333333333337</ele><time>2026-04-09T12:36:34Z</time></trkpt><trkpt lat="42.455249023901736" lon="2.6298702006524293"><ele>292.6666666666667</ele><time>2026-04-09T12:36:35Z</time></trkpt><trkpt lat="42.45529544718657" lon="2.6299720549879697"><ele>292.5</ele><time>2026-04-09T12:36:36Z</time></trkpt><trkpt lat="42.45534014047279" lon="2.6300703222160315"><ele>292.3333333333333</ele><time>2026-04-09T12:36:37Z</time></trkpt><trkpt lat="42.455383993537644" lon="2.6301692536710353"><ele>292.16666666666663</ele><time>2026-04-09T12:36:38Z</time></trkpt><trkpt lat="42.45542562110329" lon="2.6302624422560545"><ele>292.0</ele><time>2026-04-09T12:36:39Z</time></trkpt><trkpt lat="42.45546452572152" lon="2.6303439332106593"><ele>292.0</ele><time>2026-04-09T12:36:40Z</time></trkpt><trkpt lat="42.455521031161524" lon="2.6304621523281937"><ele>292.0</ele><time>2026-04-09T12:36:42Z</time></trkpt><trkpt lat="42.45557065739349" lon="2.630571856513231"><ele>292.0</ele><time>2026-04-09T12:36:44Z</time></trkpt><trkpt lat="42.455631304213405" lon="2.630707164552513"><ele>292.0</ele><time>2026-04-09T12:36:46Z</time></trkpt><trkpt lat="42.455668101018574" lon="2.6307861759548916"><ele>292.0</ele><time>2026-04-09T12:36:47Z</time></trkpt><trkpt lat="42.45570928060589" lon="2.6308751152737875"><ele>292.0</ele><time>2026-04-09T12:36:48Z</time></trkpt><trkpt lat="42.45575180510494" lon="2.6309717764760223"><ele>292.0</ele><time>2026-04-09T12:36:49Z</time></trkpt><trkpt lat="42.45579528421592" lon="2.6310739230648728"><ele>292.0</ele><time>2026-04-09T12:36:50Z</time></trkpt><trkpt lat="42.45583711276258" lon="2.6311834165532977"><ele>292.0</ele><time>2026-04-09T12:36:51Z</time></trkpt><trkpt lat="42.455878347476684" lon="2.631296630221966"><ele>292.0</ele><time>2026-04-09T12:36:52Z</time></trkpt><trkpt lat="42.45591723330439" lon="2.6314109817136657"><ele>292.0</ele><time>2026-04-09T12:36:53Z</time></trkpt><trkpt lat="42.455952244559505" lon="2.6315242604242415"><ele>292.16666666666663</ele><time>2026-04-09T12:36:54Z</time></trkpt><trkpt lat="42.45598600382368" lon="2.631634828158823"><ele>292.3333333333333</ele><time>2026-04-09T12:36:55Z</time></trkpt><trkpt lat="42.45601873911189" lon="2.6317467201318907"><ele>292.5</ele><time>2026-04-09T12:36:56Z</time></trkpt><trkpt lat="42.45604884137365" lon="2.631854733840544"><ele>292.6666666666667</ele><time>2026-04-09T12:36:57Z</time></trkpt><trkpt lat="42.45607915666345" lon="2.6319614773610596"><ele>292.83333333333337</ele><time>2026-04-09T12:36:58Z</time></trkpt><trkpt lat="42.45610627480891" lon="2.6320713587283935"><ele>293.0</ele><time>2026-04-09T12:36:59Z</time></trkpt><trkpt lat="42.456130603398314" lon="2.6321774065333385"><ele>293.33333333333337</ele><time>2026-04-09T12:37:00Z</time></trkpt><trkpt lat="42.45615744077448" lon="2.6322827430214604"><ele>293.6666666666667</ele><time>2026-04-09T12:37:01Z</time></trkpt><trkpt lat="42.45618022232558" lon="2.6323877098486648"><ele>294.0</ele><time>2026-04-09T12:37:02Z</time></trkpt><trkpt lat="42.456205490689044" lon="2.6324896220650404"><ele>294.3333333333333</ele><time>2026-04-09T12:37:03Z</time></trkpt><trkpt lat="42.45623222512341" lon="2.6325901127156075"><ele>294.66666666666663</ele><time>2026-04-09T12:37:04Z</time></trkpt><trkpt lat="42.456257350984984" lon="2.632692172404362"><ele>295.0</ele><time>2026-04-09T12:37:05Z</time></trkpt><trkpt lat="42.45628237769644" lon="2.6327916172132397"><ele>294.8571428571429</ele><time>2026-04-09T12:37:06Z</time></trkpt><trkpt lat="42.45630509562175" lon="2.632889399631876"><ele>294.7142857142857</ele><time>2026-04-09T12:37:07Z</time></trkpt><trkpt lat="42.45632941999066" lon="2.6329883873968445"><ele>294.57142857142856</ele><time>2026-04-09T12:37:08Z</time></trkpt><trkpt lat="42.456352941727616" lon="2.6330802167388407"><ele>294.42857142857144</ele><time>2026-04-09T12:37:09Z</time></trkpt><trkpt lat="42.456376389348215" lon="2.6331622085432635"><ele>294.2857142857143</ele><time>2026-04-09T12:37:10Z</time></trkpt><trkpt lat="42.45642572551551" lon="2.63327383271897"><ele>294.14285714285717</ele><time>2026-04-09T12:37:12Z</time></trkpt><trkpt lat="42.45645258212614" lon="2.6333512416961127"><ele>294.0</ele><time>2026-04-09T12:37:14Z</time></trkpt><trkpt lat="42.45641941586645" lon="2.6334341203733915"><ele>294.0</ele><time>2026-04-09T12:37:16Z</time></trkpt><trkpt lat="42.456311647507064" lon="2.6334670513849874"><ele>294.0</ele><time>2026-04-09T12:37:18Z</time></trkpt><trkpt lat="42.45620608279144" lon="2.633472622474216"><ele>294.0</ele><time>2026-04-09T12:37:20Z</time></trkpt><trkpt lat="42.45615088988549" lon="2.6335447430401993"><ele>294.0</ele><time>2026-04-09T12:37:22Z</time></trkpt><trkpt lat="42.45611890675974" lon="2.633633456302349"><ele>294.0</ele><time>2026-04-09T12:37:24Z</time></trkpt><trkpt lat="42.45607385381352" lon="2.633735380670437"><ele>292.75</ele><time>2026-04-09T12:37:26Z</time></trkpt><trkpt lat="42.45600882152519" lon="2.633863322780473"><ele>291.5</ele><time>2026-04-09T12:37:28Z</time></trkpt><trkpt lat="42.455950385409444" lon="2.6339935687095837"><ele>290.25</ele><time>2026-04-09T12:37:30Z</time></trkpt><trkpt lat="42.45588917829667" lon="2.6341245489935443"><ele>289.0</ele><time>2026-04-09T12:37:32Z</time></trkpt><trkpt lat="42.45582396434191" lon="2.6342524271398178"><ele>289.0</ele><time>2026-04-09T12:37:34Z</time></trkpt><trkpt lat="42.45573403203908" lon="2.634358393370799"><ele>289.0</ele><time>2026-04-09T12:37:36Z</time></trkpt><trkpt lat="42.4556692054823" lon="2.634480991132193"><ele>289.0</ele><time>2026-04-09T12:37:38Z</time></trkpt><trkpt lat="42.45563525482073" lon="2.634616306562292"><ele>289.0</ele><time>2026-04-09T12:37:40Z</time></trkpt><trkpt lat="42.45560854964548" lon="2.634749388325402"><ele>289.0</ele><time>2026-04-09T12:37:42Z</time></trkpt><trkpt lat="42.45558596223072" lon="2.6348811713938876"><ele>288.4</ele><time>2026-04-09T12:37:44Z</time></trkpt><trkpt lat="42.45556042111781" lon="2.635015122066301"><ele>287.79999999999995</ele><time>2026-04-09T12:37:46Z</time></trkpt><trkpt lat="42.45555566264196" lon="2.635139985679034"><ele>287.20000000000005</ele><time>2026-04-09T12:37:48Z</time></trkpt><trkpt lat="42.45560468577752" lon="2.6352662978461354"><ele>286.6</ele><time>2026-04-09T12:37:50Z</time></trkpt><trkpt lat="42.45565357568346" lon="2.635403324876932"><ele>286.0</ele><time>2026-04-09T12:37:52Z</time></trkpt><trkpt lat="42.45572760750575" lon="2.6355149807337144"><ele>284.6</ele><time>2026-04-09T12:37:54Z</time></trkpt><trkpt lat="42.45583547409798" lon="2.635561175926099"><ele>283.20000000000005</ele><time>2026-04-09T12:37:56Z</time></trkpt><trkpt lat="42.455945192628725" lon="2.6356040157097147"><ele>281.79999999999995</ele><time>2026-04-09T12:37:58Z</time></trkpt><trkpt lat="42.45605164312412" lon="2.6356473314283275"><ele>280.4</ele><time>2026-04-09T12:38:00Z</time></trkpt><trkpt lat="42.45615363896682" lon="2.6356884646233008"><ele>279.0</ele><time>2026-04-09T12:38:02Z</time></trkpt><trkpt lat="42.45625168892087" lon="2.6357314972573613"><ele>278.8333333333333</ele><time>2026-04-09T12:38:04Z</time></trkpt><trkpt lat="42.45634836076576" lon="2.635771942783893"><ele>278.6666666666667</ele><time>2026-04-09T12:38:06Z</time></trkpt><trkpt lat="42.45643884987499" lon="2.635772282598529"><ele>278.5</ele><time>2026-04-09T12:38:08Z</time></trkpt><trkpt lat="42.45650385576834" lon="2.635752050970371"><ele>278.33333333333337</ele><time>2026-04-09T12:38:11Z</time></trkpt><trkpt lat="42.45656994017079" lon="2.6357163878999272"><ele>278.1666666666667</ele><time>2026-04-09T12:38:16Z</time></trkpt><trkpt lat="42.456637674556546" lon="2.635698550427833"><ele>278.0</ele><time>2026-04-09T12:38:18Z</time></trkpt><trkpt lat="42.456703219268405" lon="2.6356776265017614"><ele>278.0</ele><time>2026-04-09T12:38:20Z</time></trkpt><trkpt lat="42.45677282116105" lon="2.635651517847894"><ele>278.0</ele><time>2026-04-09T12:38:22Z</time></trkpt><trkpt lat="42.45684787335913" lon="2.635630873420829"><ele>278.0</ele><time>2026-04-09T12:38:24Z</time></trkpt><trkpt lat="42.456927942528004" lon="2.6355968917118053"><ele>278.0</ele><time>2026-04-09T12:38:27Z</time></trkpt><trkpt lat="42.45699222071006" lon="2.6355702063795547"><ele>278.0</ele><time>2026-04-09T12:38:29Z</time></trkpt><trkpt lat="42.45707003947832" lon="2.635508051909906"><ele>278.0</ele><time>2026-04-09T12:38:31Z</time></trkpt><trkpt lat="42.45714402816754" lon="2.6354296802380555"><ele>278.0</ele><time>2026-04-09T12:38:33Z</time></trkpt><trkpt lat="42.457226182155175" lon="2.6353240233481"><ele>278.0</ele><time>2026-04-09T12:38:35Z</time></trkpt><trkpt lat="42.45730204219602" lon="2.6351991740303315"><ele>278.0</ele><time>2026-04-09T12:38:37Z</time></trkpt><trkpt lat="42.457376564097224" lon="2.6350949493372773"><ele>278.0</ele><time>2026-04-09T12:38:39Z</time></trkpt><trkpt lat="42.45744556859663" lon="2.6350073612468217"><ele>278.0</ele><time>2026-04-09T12:38:41Z</time></trkpt><trkpt lat="42.45749850976967" lon="2.6349167668397278"><ele>279.0</ele><time>2026-04-09T12:38:43Z</time></trkpt><trkpt lat="42.45754936289197" lon="2.634853614584197"><ele>280.0</ele><time>2026-04-09T12:38:45Z</time></trkpt><trkpt lat="42.45761242451572" lon="2.6348289784416603"><ele>281.0</ele><time>2026-04-09T12:38:49Z</time></trkpt><trkpt lat="42.45764653937569" lon="2.63474027216834"><ele>282.0</ele><time>2026-04-09T12:38:55Z</time></trkpt><trkpt lat="42.457636621944175" lon="2.6346274636824143"><ele>283.0</ele><time>2026-04-09T12:38:57Z</time></trkpt><trkpt lat="42.457629619807705" lon="2.634489177572196"><ele>284.0</ele><time>2026-04-09T12:38:59Z</time></trkpt><trkpt lat="42.457601323470634" lon="2.6343662946690984"><ele>285.2</ele><time>2026-04-09T12:39:01Z</time></trkpt><trkpt lat="42.45757781253505" lon="2.6342520938941556"><ele>286.4</ele><time>2026-04-09T12:39:03Z</time></trkpt><trkpt lat="42.45752189124543" lon="2.634161072152887"><ele>287.6</ele><time>2026-04-09T12:39:05Z</time></trkpt><trkpt lat="42.457455142708994" lon="2.634055597383152"><ele>288.8</ele><time>2026-04-09T12:39:07Z</time></trkpt><trkpt lat="42.45739334234143" lon="2.633942046026877"><ele>290.0</ele><time>2026-04-09T12:39:09Z</time></trkpt><trkpt lat="42.45733710396155" lon="2.633840054256535"><ele>290.0</ele><time>2026-04-09T12:39:11Z</time></trkpt><trkpt lat="42.45728425906171" lon="2.63373079249903"><ele>290.0</ele><time>2026-04-09T12:39:13Z</time></trkpt><trkpt lat="42.45721588010681" lon="2.633643808945026"><ele>290.0</ele><time>2026-04-09T12:39:15Z</time></trkpt><trkpt lat="42.457126190756924" lon="2.633586200569881"><ele>290.0</ele><time>2026-04-09T12:39:17Z</time></trkpt><trkpt lat="42.45701915004228" lon="2.6335530288715288"><ele>290.0</ele><time>2026-04-09T12:39:19Z</time></trkpt><trkpt lat="42.45692164379579" lon="2.6335061525303094"><ele>290.6666666666667</ele><time>2026-04-09T12:39:21Z</time></trkpt><trkpt lat="42.4568354351469" lon="2.6334672606442138"><ele>291.33333333333337</ele><time>2026-04-09T12:39:23Z</time></trkpt><trkpt lat="42.456760232081436" lon="2.6334336027919316"><ele>292.0</ele><time>2026-04-09T12:39:25Z</time></trkpt><trkpt lat="42.45667598819645" lon="2.633397148279746"><ele>292.6666666666667</ele><time>2026-04-09T12:39:27Z</time></trkpt><trkpt lat="42.456595951181136" lon="2.633366336117554"><ele>293.3333333333333</ele><time>2026-04-09T12:39:29Z</time></trkpt><trkpt lat="42.45652102941953" lon="2.6333358419523494"><ele>294.0</ele><time>2026-04-09T12:39:31Z</time></trkpt><trkpt lat="42.45642729828295" lon="2.633337444332632"><ele>294.0</ele><time>2026-04-09T12:39:34Z</time></trkpt><trkpt lat="42.45635614585299" lon="2.633382535234206"><ele>294.0</ele><time>2026-04-09T12:39:36Z</time></trkpt><trkpt lat="42.45627327325729" lon="2.6334215786222623"><ele>294.0</ele><time>2026-04-09T12:39:38Z</time></trkpt><trkpt lat="42.45620159172073" lon="2.633448115112127"><ele>294.0</ele><time>2026-04-09T12:39:40Z</time></trkpt><trkpt lat="42.45613321422824" lon="2.633474359914181"><ele>294.0</ele><time>2026-04-09T12:39:42Z</time></trkpt><trkpt lat="42.45610063029314" lon="2.6335493996843105"><ele>294.0</ele><time>2026-04-09T12:39:44Z</time></trkpt><trkpt lat="42.45606790003062" lon="2.633636004645913"><ele>294.0</ele><time>2026-04-09T12:39:53Z</time></trkpt><trkpt lat="42.456023077401554" lon="2.6337485591721475"><ele>293.0</ele><time>2026-04-09T12:39:56Z</time></trkpt><trkpt lat="42.45597973905971" lon="2.633844581203426"><ele>292.0</ele><time>2026-04-09T12:39:58Z</time></trkpt><trkpt lat="42.455928834014514" lon="2.633962910760326"><ele>291.0</ele><time>2026-04-09T12:40:00Z</time></trkpt><trkpt lat="42.455877496383245" lon="2.634080649243012"><ele>290.0</ele><time>2026-04-09T12:40:02Z</time></trkpt><trkpt lat="42.45582462039884" lon="2.6341951460512076"><ele>289.0</ele><time>2026-04-09T12:40:04Z</time></trkpt><trkpt lat="42.45577135812596" lon="2.6342991441951074"><ele>289.0</ele><time>2026-04-09T12:40:06Z</time></trkpt><trkpt lat="42.45570091736493" lon="2.634374455564991"><ele>289.0</ele><time>2026-04-09T12:40:08Z</time></trkpt><trkpt lat="42.45564429624042" lon="2.6344763016199995"><ele>289.0</ele><time>2026-04-09T12:40:10Z</time></trkpt><trkpt lat="42.45561281154955" lon="2.6346156537711183"><ele>289.0</ele><time>2026-04-09T12:40:12Z</time></trkpt><trkpt lat="42.45558816772641" lon="2.6347651059146777"><ele>289.0</ele><time>2026-04-09T12:40:14Z</time></trkpt><trkpt lat="42.455562088498645" lon="2.634916055097509"><ele>288.4</ele><time>2026-04-09T12:40:16Z</time></trkpt><trkpt lat="42.45553669538367" lon="2.6350613365364484"><ele>287.79999999999995</ele><time>2026-04-09T12:40:18Z</time></trkpt><trkpt lat="42.45557471888525" lon="2.635196863945484"><ele>287.20000000000005</ele><time>2026-04-09T12:40:20Z</time></trkpt><trkpt lat="42.45562232446766" lon="2.6353362207394335"><ele>286.6</ele><time>2026-04-09T12:40:22Z</time></trkpt><trkpt lat="42.45567535708604" lon="2.6354635550208068"><ele>286.0</ele><time>2026-04-09T12:40:24Z</time></trkpt><trkpt lat="42.45577771248225" lon="2.6355398632619518"><ele>284.6</ele><time>2026-04-09T12:40:26Z</time></trkpt><trkpt lat="42.45589904014543" lon="2.635583504068711"><ele>283.20000000000005</ele><time>2026-04-09T12:40:28Z</time></trkpt><trkpt lat="42.45596124711606" lon="2.6356070979568287"><ele>281.79999999999995</ele><time>2026-04-09T12:40:29Z</time></trkpt><trkpt lat="42.456072665584905" lon="2.635649941452971"><ele>280.4</ele><time>2026-04-09T12:40:31Z</time></trkpt><trkpt lat="42.45618818150058" lon="2.635693736502259"><ele>279.0</ele><time>2026-04-09T12:40:33Z</time></trkpt><trkpt lat="42.456253255758305" lon="2.635735460367923"><ele>278.8</ele><time>2026-04-09T12:40:35Z</time></trkpt><trkpt lat="42.456294427733106" lon="2.635818933419423"><ele>278.59999999999997</ele><time>2026-04-09T12:40:37Z</time></trkpt><trkpt lat="42.45629521192046" lon="2.6359492785492042"><ele>278.4</ele><time>2026-04-09T12:40:39Z</time></trkpt><trkpt lat="42.45630406747414" lon="2.636091201199698"><ele>278.2</ele><time>2026-04-09T12:40:41Z</time></trkpt><trkpt lat="42.45630073601523" lon="2.6362362661698713"><ele>278.0</ele><time>2026-04-09T12:40:43Z</time></trkpt><trkpt lat="42.45632389505217" lon="2.636359417937757"><ele>277.0</ele><time>2026-04-09T12:40:45Z</time></trkpt><trkpt lat="42.45643128403205" lon="2.636421686247884"><ele>276.0</ele><time>2026-04-09T12:40:47Z</time></trkpt><trkpt lat="42.456496270701784" lon="2.6364133859916925"><ele>275.0</ele><time>2026-04-09T12:40:48Z</time></trkpt><trkpt lat="42.456561491987294" lon="2.6363979251871967"><ele>274.0</ele><time>2026-04-09T12:40:49Z</time></trkpt><trkpt lat="42.4566327066059" lon="2.6363795082138965"><ele>273.0</ele><time>2026-04-09T12:40:50Z</time></trkpt><trkpt lat="42.45670667623702" lon="2.6363632592436446"><ele>272.0</ele><time>2026-04-09T12:40:51Z</time></trkpt><trkpt lat="42.45678108886954" lon="2.6363466510213613"><ele>272.0</ele><time>2026-04-09T12:40:52Z</time></trkpt><trkpt lat="42.45685218482522" lon="2.636326670549955"><ele>272.0</ele><time>2026-04-09T12:40:53Z</time></trkpt><trkpt lat="42.456918390078414" lon="2.6363069693680656"><ele>272.0</ele><time>2026-04-09T12:40:54Z</time></trkpt><trkpt lat="42.45698488016747" lon="2.636289687887215"><ele>272.0</ele><time>2026-04-09T12:40:55Z</time></trkpt><trkpt lat="42.4570475120469" lon="2.63627058976318"><ele>272.0</ele><time>2026-04-09T12:40:56Z</time></trkpt><trkpt lat="42.457161335453065" lon="2.6362367282955224"><ele>272.0</ele><time>2026-04-09T12:40:58Z</time></trkpt><trkpt lat="42.45726381042107" lon="2.6362478934109546"><ele>272.1428571428571</ele><time>2026-04-09T12:41:00Z</time></trkpt><trkpt lat="42.457327875493" lon="2.6362679633081316"><ele>272.2857142857143</ele><time>2026-04-09T12:41:01Z</time></trkpt><trkpt lat="42.45739386409932" lon="2.636287566269459"><ele>272.42857142857144</ele><time>2026-04-09T12:41:02Z</time></trkpt><trkpt lat="42.4574661946214" lon="2.6363096333202463"><ele>272.57142857142856</ele><time>2026-04-09T12:41:03Z</time></trkpt><trkpt lat="42.457538269467776" lon="2.6363297187432675"><ele>272.7142857142857</ele><time>2026-04-09T12:41:04Z</time></trkpt><trkpt lat="42.45761218201921" lon="2.6363469177689303"><ele>272.85714285714283</ele><time>2026-04-09T12:41:05Z</time></trkpt><trkpt lat="42.45769283778989" lon="2.6363657242494085"><ele>273.0</ele><time>2026-04-09T12:41:06Z</time></trkpt><trkpt lat="42.4577752861792" lon="2.6363823317958066"><ele>273.0</ele><time>2026-04-09T12:41:07Z</time></trkpt><trkpt lat="42.457860174448236" lon="2.6363994973148004"><ele>273.0</ele><time>2026-04-09T12:41:08Z</time></trkpt><trkpt lat="42.45794406036755" lon="2.6364144520769384"><ele>273.0</ele><time>2026-04-09T12:41:09Z</time></trkpt><trkpt lat="42.458025565991136" lon="2.6364288769312267"><ele>273.0</ele><time>2026-04-09T12:41:10Z</time></trkpt><trkpt lat="42.45811012093457" lon="2.6364415834640385"><ele>273.0</ele><time>2026-04-09T12:41:11Z</time></trkpt><trkpt lat="42.458197372642275" lon="2.6364567461451944"><ele>273.0</ele><time>2026-04-09T12:41:12Z</time></trkpt><trkpt lat="42.45828735123882" lon="2.6364725597093366"><ele>273.2</ele><time>2026-04-09T12:41:13Z</time></trkpt><trkpt lat="42.45838150564915" lon="2.636489138939007"><ele>273.4</ele><time>2026-04-09T12:41:14Z</time></trkpt><trkpt lat="42.458474296903" lon="2.636505401741784"><ele>273.59999999999997</ele><time>2026-04-09T12:41:15Z</time></trkpt><trkpt lat="42.458566751525275" lon="2.63651984844533"><ele>273.8</ele><time>2026-04-09T12:41:16Z</time></trkpt><trkpt lat="42.45865884383034" lon="2.6365347550071014"><ele>274.0</ele><time>2026-04-09T12:41:17Z</time></trkpt><trkpt lat="42.45875086313566" lon="2.6365525805381997"><ele>273.59999999999997</ele><time>2026-04-09T12:41:18Z</time></trkpt><trkpt lat="42.458841554526536" lon="2.636573123600704"><ele>273.2</ele><time>2026-04-09T12:41:19Z</time></trkpt><trkpt lat="42.45893557750566" lon="2.636592282135078"><ele>272.79999999999995</ele><time>2026-04-09T12:41:20Z</time></trkpt><trkpt lat="42.459028132897174" lon="2.6366093659406293"><ele>272.4</ele><time>2026-04-09T12:41:21Z</time></trkpt><trkpt lat="42.45911938727808" lon="2.636624798102431"><ele>272.0</ele><time>2026-04-09T12:41:22Z</time></trkpt><trkpt lat="42.459210003616214" lon="2.6366375744704835"><ele>272.0</ele><time>2026-04-09T12:41:23Z</time></trkpt><trkpt lat="42.45929797758214" lon="2.6366498400870726"><ele>272.0</ele><time>2026-04-09T12:41:24Z</time></trkpt><trkpt lat="42.45938568211707" lon="2.636664614120123"><ele>272.0</ele><time>2026-04-09T12:41:25Z</time></trkpt><trkpt lat="42.45947154043825" lon="2.6366886698292817"><ele>272.0</ele><time>2026-04-09T12:41:26Z</time></trkpt><trkpt lat="42.45955973302886" lon="2.6367271959519716"><ele>272.0</ele><time>2026-04-09T12:41:27Z</time></trkpt><trkpt lat="42.45964432242969" lon="2.6367791425496097"><ele>272.0</ele><time>2026-04-09T12:41:28Z</time></trkpt><trkpt lat="42.45972845675859" lon="2.636830739243873"><ele>272.0</ele><time>2026-04-09T12:41:29Z</time></trkpt><trkpt lat="42.45980983858906" lon="2.636879451680801"><ele>272.0</ele><time>2026-04-09T12:41:30Z</time></trkpt><trkpt lat="42.459889015124716" lon="2.6369244695068175"><ele>272.0</ele><time>2026-04-09T12:41:31Z</time></trkpt><trkpt lat="42.459964697407436" lon="2.6369665486800122"><ele>272.0</ele><time>2026-04-09T12:41:32Z</time></trkpt><trkpt lat="42.46003266234184" lon="2.6370082026399766"><ele>272.0</ele><time>2026-04-09T12:41:33Z</time></trkpt><trkpt lat="42.4601450667448" lon="2.637068601221157"><ele>271.33333333333337</ele><time>2026-04-09T12:41:35Z</time></trkpt><trkpt lat="42.46026279205861" lon="2.6371064054603286"><ele>270.6666666666667</ele><time>2026-04-09T12:41:37Z</time></trkpt><trkpt lat="42.46033133079211" lon="2.6371143438006843"><ele>270.0</ele><time>2026-04-09T12:41:38Z</time></trkpt><trkpt lat="42.460403526257494" lon="2.637115875441339"><ele>269.3333333333333</ele><time>2026-04-09T12:41:39Z</time></trkpt><trkpt lat="42.46048248477008" lon="2.637103819017376"><ele>268.66666666666663</ele><time>2026-04-09T12:41:40Z</time></trkpt><trkpt lat="42.46056174238793" lon="2.6370853185813097"><ele>268.0</ele><time>2026-04-09T12:41:41Z</time></trkpt><trkpt lat="42.46063728597788" lon="2.637063023162842"><ele>267.7142857142857</ele><time>2026-04-09T12:41:42Z</time></trkpt><trkpt lat="42.4607056706109" lon="2.6370339052223057"><ele>267.42857142857144</ele><time>2026-04-09T12:41:43Z</time></trkpt><trkpt lat="42.46077201556191" lon="2.637007270341113"><ele>267.1428571428571</ele><time>2026-04-09T12:41:44Z</time></trkpt><trkpt lat="42.46083760889629" lon="2.6369803760632955"><ele>266.8571428571429</ele><time>2026-04-09T12:41:45Z</time></trkpt><trkpt lat="42.46089926840122" lon="2.6369562074786783"><ele>266.57142857142856</ele><time>2026-04-09T12:41:46Z</time></trkpt><trkpt lat="42.46096246065871" lon="2.636937605223904"><ele>266.2857142857143</ele><time>2026-04-09T12:41:47Z</time></trkpt><trkpt lat="42.461029333926405" lon="2.636924513964327"><ele>266.0</ele><time>2026-04-09T12:41:48Z</time></trkpt><trkpt lat="42.46110001977253" lon="2.636916413556337"><ele>267.2</ele><time>2026-04-09T12:41:49Z</time></trkpt><trkpt lat="42.46117637472166" lon="2.636931830563976"><ele>268.40000000000003</ele><time>2026-04-09T12:41:50Z</time></trkpt><trkpt lat="42.461255889696695" lon="2.636969123572234"><ele>269.6</ele><time>2026-04-09T12:41:51Z</time></trkpt><trkpt lat="42.46133341974689" lon="2.6370324391237148"><ele>270.8</ele><time>2026-04-09T12:41:52Z</time></trkpt><trkpt lat="42.461410337146624" lon="2.6371158359705063"><ele>272.0</ele><time>2026-04-09T12:41:53Z</time></trkpt><trkpt lat="42.46149468728298" lon="2.637203763356996"><ele>272.0</ele><time>2026-04-09T12:41:54Z</time></trkpt><trkpt lat="42.461580476170866" lon="2.637293595123829"><ele>272.0</ele><time>2026-04-09T12:41:55Z</time></trkpt><trkpt lat="42.46166725174884" lon="2.637387117365736"><ele>272.0</ele><time>2026-04-09T12:41:56Z</time></trkpt><trkpt lat="42.46175149206299" lon="2.637478078766683"><ele>272.0</ele><time>2026-04-09T12:41:57Z</time></trkpt><trkpt lat="42.46183661851456" lon="2.6375690417711666"><ele>272.0</ele><time>2026-04-09T12:41:58Z</time></trkpt><trkpt lat="42.46192835868491" lon="2.637658774332504"><ele>272.0</ele><time>2026-04-09T12:41:59Z</time></trkpt><trkpt lat="42.46202298513325" lon="2.6377476694110005"><ele>272.0</ele><time>2026-04-09T12:42:00Z</time></trkpt><trkpt lat="42.462117023342614" lon="2.637837741038836"><ele>272.0</ele><time>2026-04-09T12:42:01Z</time></trkpt><trkpt lat="42.46221170624738" lon="2.637929962616584"><ele>272.0</ele><time>2026-04-09T12:42:02Z</time></trkpt><trkpt lat="42.462305229466814" lon="2.638025766328675"><ele>271.0</ele><time>2026-04-09T12:42:03Z</time></trkpt><trkpt lat="42.462400029637955" lon="2.6381245625268317"><ele>270.0</ele><time>2026-04-09T12:42:04Z</time></trkpt><trkpt lat="42.46249284779426" lon="2.6382264525531434"><ele>269.0</ele><time>2026-04-09T12:42:05Z</time></trkpt><trkpt lat="42.46258369892082" lon="2.6383336414056022"><ele>268.0</ele><time>2026-04-09T12:42:06Z</time></trkpt><trkpt lat="42.46267334730949" lon="2.6384410669075833"><ele>268.0</ele><time>2026-04-09T12:42:07Z</time></trkpt><trkpt lat="42.46276278863632" lon="2.6385469849086807"><ele>268.0</ele><time>2026-04-09T12:42:08Z</time></trkpt><trkpt lat="42.4628509124709" lon="2.6386516398051083"><ele>268.0</ele><time>2026-04-09T12:42:09Z</time></trkpt><trkpt lat="42.462937897251614" lon="2.6387543529402917"><ele>268.0</ele><time>2026-04-09T12:42:10Z</time></trkpt><trkpt lat="42.46301947337444" lon="2.6388579476140235"><ele>268.4</ele><time>2026-04-09T12:42:11Z</time></trkpt><trkpt lat="42.46309422692523" lon="2.6389699061254235"><ele>268.8</ele><time>2026-04-09T12:42:12Z</time></trkpt><trkpt lat="42.46316510751848" lon="2.639085746494039"><ele>269.2</ele><time>2026-04-09T12:42:13Z</time></trkpt><trkpt lat="42.463231080318195" lon="2.639207567011646"><ele>269.6</ele><time>2026-04-09T12:42:14Z</time></trkpt><trkpt lat="42.463290250477094" lon="2.6393313189641345"><ele>270.0</ele><time>2026-04-09T12:42:15Z</time></trkpt><trkpt lat="42.46334184589647" lon="2.6394533001246563"><ele>269.6666666666667</ele><time>2026-04-09T12:42:16Z</time></trkpt><trkpt lat="42.46338358790429" lon="2.639566845130895"><ele>269.3333333333333</ele><time>2026-04-09T12:42:17Z</time></trkpt><trkpt lat="42.46341700311176" lon="2.639668765693051"><ele>269.0</ele><time>2026-04-09T12:42:18Z</time></trkpt><trkpt lat="42.46344645596549" lon="2.639764923265672"><ele>268.66666666666663</ele><time>2026-04-09T12:42:19Z</time></trkpt><trkpt lat="42.46347272253877" lon="2.6398563049449937"><ele>268.3333333333333</ele><time>2026-04-09T12:42:20Z</time></trkpt><trkpt lat="42.46349962681855" lon="2.639955403048852"><ele>268.0</ele><time>2026-04-09T12:42:21Z</time></trkpt><trkpt lat="42.463527743810026" lon="2.640057920024011"><ele>268.0</ele><time>2026-04-09T12:42:22Z</time></trkpt><trkpt lat="42.463559378493635" lon="2.6401712358589515"><ele>268.0</ele><time>2026-04-09T12:42:23Z</time></trkpt><trkpt lat="42.46359434305466" lon="2.6402960570423386"><ele>268.0</ele><time>2026-04-09T12:42:24Z</time></trkpt><trkpt lat="42.46363078995577" lon="2.640426994267691"><ele>268.0</ele><time>2026-04-09T12:42:25Z</time></trkpt><trkpt lat="42.463670004095285" lon="2.6405687496289696"><ele>268.0</ele><time>2026-04-09T12:42:26Z</time></trkpt><trkpt lat="42.463710507297826" lon="2.6407180773791814"><ele>267.0</ele><time>2026-04-09T12:42:27Z</time></trkpt><trkpt lat="42.46375429290767" lon="2.640875116407703"><ele>266.0</ele><time>2026-04-09T12:42:28Z</time></trkpt><trkpt lat="42.46379917703765" lon="2.641036286607601"><ele>265.0</ele><time>2026-04-09T12:42:29Z</time></trkpt><trkpt lat="42.46384404584139" lon="2.6411964047998895"><ele>264.0</ele><time>2026-04-09T12:42:30Z</time></trkpt><trkpt lat="42.463888078358586" lon="2.641355741700236"><ele>269.75</ele><time>2026-04-09T12:42:31Z</time></trkpt><trkpt lat="42.46392988559322" lon="2.64151320609175"><ele>275.5</ele><time>2026-04-09T12:42:32Z</time></trkpt><trkpt lat="42.463969021830074" lon="2.641672528357844"><ele>281.25</ele><time>2026-04-09T12:42:33Z</time></trkpt><trkpt lat="42.4639877689599" lon="2.6418427478957196"><ele>287.0</ele><time>2026-04-09T12:42:34Z</time></trkpt><trkpt lat="42.463981080107125" lon="2.6420203438376615"><ele>288.25</ele><time>2026-04-09T12:42:35Z</time></trkpt><trkpt lat="42.46395215184849" lon="2.642180807587172"><ele>289.5</ele><time>2026-04-09T12:42:36Z</time></trkpt><trkpt lat="42.463896819991376" lon="2.642372583000843"><ele>290.75</ele><time>2026-04-09T12:42:37Z</time></trkpt><trkpt lat="42.46383439665177" lon="2.6425426871525763"><ele>292.0</ele><time>2026-04-09T12:42:38Z</time></trkpt><trkpt lat="42.46377902518457" lon="2.6427181923958196"><ele>283.25</ele><time>2026-04-09T12:42:39Z</time></trkpt><trkpt lat="42.463734337943315" lon="2.6428980584396737"><ele>274.5</ele><time>2026-04-09T12:42:40Z</time></trkpt><trkpt lat="42.463722578045044" lon="2.643083509650485"><ele>265.75</ele><time>2026-04-09T12:42:41Z</time></trkpt><trkpt lat="42.46373269535996" lon="2.643266257893199"><ele>257.0</ele><time>2026-04-09T12:42:42Z</time></trkpt><trkpt lat="42.46375286016326" lon="2.643453580782304"><ele>258.5</ele><time>2026-04-09T12:42:43Z</time></trkpt><trkpt lat="42.46378582517738" lon="2.6436346455686017"><ele>260.0</ele><time>2026-04-09T12:42:44Z</time></trkpt><trkpt lat="42.463839559847784" lon="2.6437993665010597"><ele>261.5</ele><time>2026-04-09T12:42:45Z</time></trkpt><trkpt lat="42.46390188386935" lon="2.6439473650893968"><ele>263.0</ele><time>2026-04-09T12:42:46Z</time></trkpt><trkpt lat="42.46394878746212" lon="2.644084725666564"><ele>263.0</ele><time>2026-04-09T12:42:47Z</time></trkpt><trkpt lat="42.463969800589986" lon="2.6442285013824964"><ele>263.0</ele><time>2026-04-09T12:42:48Z</time></trkpt><trkpt lat="42.463962153254556" lon="2.644381208760482"><ele>263.0</ele><time>2026-04-09T12:42:49Z</time></trkpt><trkpt lat="42.46393757937922" lon="2.64453872070007"><ele>263.0</ele><time>2026-04-09T12:42:50Z</time></trkpt><trkpt lat="42.463913247674554" lon="2.64469764139933"><ele>263.75</ele><time>2026-04-09T12:42:51Z</time></trkpt><trkpt lat="42.46388950523803" lon="2.644856150032237"><ele>264.5</ele><time>2026-04-09T12:42:52Z</time></trkpt><trkpt lat="42.463869975674235" lon="2.6450086647996764"><ele>265.25</ele><time>2026-04-09T12:42:53Z</time></trkpt><trkpt lat="42.46384946704523" lon="2.6451571203507616"><ele>266.0</ele><time>2026-04-09T12:42:54Z</time></trkpt><trkpt lat="42.46383017586671" lon="2.645304170272327"><ele>266.0</ele><time>2026-04-09T12:42:55Z</time></trkpt><trkpt lat="42.463826107509995" lon="2.645454442853676"><ele>266.0</ele><time>2026-04-09T12:42:56Z</time></trkpt><trkpt lat="42.46385497661452" lon="2.645599710996331"><ele>266.0</ele><time>2026-04-09T12:42:57Z</time></trkpt><trkpt lat="42.46392279083119" lon="2.6457277750931913"><ele>266.0</ele><time>2026-04-09T12:42:58Z</time></trkpt><trkpt lat="42.46401780993839" lon="2.645826699588139"><ele>266.0</ele><time>2026-04-09T12:42:59Z</time></trkpt><trkpt lat="42.46413510595682" lon="2.6458965445909284"><ele>266.0</ele><time>2026-04-09T12:43:00Z</time></trkpt><trkpt lat="42.464254246126224" lon="2.645984635232636"><ele>266.0</ele><time>2026-04-09T12:43:01Z</time></trkpt><trkpt lat="42.464379827625706" lon="2.6460773243959372"><ele>266.0</ele><time>2026-04-09T12:43:02Z</time></trkpt><trkpt lat="42.464499515693404" lon="2.64617380992217"><ele>264.0</ele><time>2026-04-09T12:43:03Z</time></trkpt><trkpt lat="42.46460706733157" lon="2.646293355543119"><ele>262.0</ele><time>2026-04-09T12:43:04Z</time></trkpt><trkpt lat="42.46469664527401" lon="2.646451358568775"><ele>260.0</ele><time>2026-04-09T12:43:05Z</time></trkpt><trkpt lat="42.46476543537651" lon="2.6466319460899523"><ele>258.0</ele><time>2026-04-09T12:43:06Z</time></trkpt><trkpt lat="42.46483608589455" lon="2.6468175993382403"><ele>260.0</ele><time>2026-04-09T12:43:07Z</time></trkpt><trkpt lat="42.464909840408225" lon="2.646999706922141"><ele>262.0</ele><time>2026-04-09T12:43:08Z</time></trkpt><trkpt lat="42.46500906406842" lon="2.647166707266671"><ele>264.0</ele><time>2026-04-09T12:43:09Z</time></trkpt><trkpt lat="42.4650897972682" lon="2.6473317073691853"><ele>264.0</ele><time>2026-04-09T12:43:10Z</time></trkpt><trkpt lat="42.46515991766704" lon="2.647492874826407"><ele>264.0</ele><time>2026-04-09T12:43:11Z</time></trkpt><trkpt lat="42.46523260802003" lon="2.6476443869823636"><ele>264.0</ele><time>2026-04-09T12:43:12Z</time></trkpt><trkpt lat="42.46528819120595" lon="2.647797001070083"><ele>264.0</ele><time>2026-04-09T12:43:13Z</time></trkpt><trkpt lat="42.465347373203315" lon="2.6479490884198023"><ele>265.0</ele><time>2026-04-09T12:43:14Z</time></trkpt><trkpt lat="42.46540864571581" lon="2.648095648320436"><ele>266.0</ele><time>2026-04-09T12:43:15Z</time></trkpt><trkpt lat="42.46547439127409" lon="2.6482424164971747"><ele>267.0</ele><time>2026-04-09T12:43:16Z</time></trkpt><trkpt lat="42.46553676167835" lon="2.6483840670882253"><ele>268.0</ele><time>2026-04-09T12:43:17Z</time></trkpt><trkpt lat="42.465599017491996" lon="2.648523965358682"><ele>265.75</ele><time>2026-04-09T12:43:18Z</time></trkpt><trkpt lat="42.46566298024972" lon="2.6486601408201915"><ele>263.5</ele><time>2026-04-09T12:43:19Z</time></trkpt><trkpt lat="42.465728910466154" lon="2.6487987232091132"><ele>261.25</ele><time>2026-04-09T12:43:20Z</time></trkpt><trkpt lat="42.4657927280971" lon="2.648939179726035"><ele>259.0</ele><time>2026-04-09T12:43:21Z</time></trkpt><trkpt lat="42.46585673760297" lon="2.649080332051905"><ele>259.0</ele><time>2026-04-09T12:43:22Z</time></trkpt><trkpt lat="42.465922051212154" lon="2.6492222717134597"><ele>259.0</ele><time>2026-04-09T12:43:23Z</time></trkpt><trkpt lat="42.46599021372088" lon="2.6493638638808257"><ele>259.0</ele><time>2026-04-09T12:43:24Z</time></trkpt><trkpt lat="42.46605632982324" lon="2.649511482248121"><ele>259.0</ele><time>2026-04-09T12:43:25Z</time></trkpt><trkpt lat="42.46611219818641" lon="2.6496664913461703"><ele>259.5</ele><time>2026-04-09T12:43:26Z</time></trkpt><trkpt lat="42.466158194049356" lon="2.649827624610518"><ele>260.0</ele><time>2026-04-09T12:43:27Z</time></trkpt><trkpt lat="42.46619821204321" lon="2.64999189249708"><ele>260.5</ele><time>2026-04-09T12:43:28Z</time></trkpt><trkpt lat="42.46623682220407" lon="2.6501571255264005"><ele>261.0</ele><time>2026-04-09T12:43:29Z</time></trkpt><trkpt lat="42.466272865940795" lon="2.6503236901965046"><ele>258.75</ele><time>2026-04-09T12:43:30Z</time></trkpt><trkpt lat="42.46630591964318" lon="2.6504934142393335"><ele>256.5</ele><time>2026-04-09T12:43:31Z</time></trkpt><trkpt lat="42.46634180288803" lon="2.650659818547422"><ele>254.25</ele><time>2026-04-09T12:43:32Z</time></trkpt><trkpt lat="42.46637961605474" lon="2.6508234661774503"><ele>252.0</ele><time>2026-04-09T12:43:33Z</time></trkpt><trkpt lat="42.46641320279081" lon="2.6509836929776087"><ele>252.0</ele><time>2026-04-09T12:43:34Z</time></trkpt><trkpt lat="42.46644401767671" lon="2.6511435251896067"><ele>252.0</ele><time>2026-04-09T12:43:35Z</time></trkpt><trkpt lat="42.466469686115886" lon="2.65130065476869"><ele>252.0</ele><time>2026-04-09T12:43:36Z</time></trkpt><trkpt lat="42.46649837394206" lon="2.6514528680152516"><ele>252.0</ele><time>2026-04-09T12:43:37Z</time></trkpt><trkpt lat="42.46653084422464" lon="2.651608758015459"><ele>252.0</ele><time>2026-04-09T12:43:38Z</time></trkpt><trkpt lat="42.466559772232564" lon="2.651758952318717"><ele>252.0</ele><time>2026-04-09T12:43:39Z</time></trkpt><trkpt lat="42.4665917134239" lon="2.6519072908857875"><ele>252.0</ele><time>2026-04-09T12:43:40Z</time></trkpt><trkpt lat="42.46662321765059" lon="2.6520509547855577"><ele>252.0</ele><time>2026-04-09T12:43:41Z</time></trkpt><trkpt lat="42.46666256346217" lon="2.6521936136266357"><ele>251.75</ele><time>2026-04-09T12:43:42Z</time></trkpt><trkpt lat="42.46669849854888" lon="2.652340044794946"><ele>251.5</ele><time>2026-04-09T12:43:43Z</time></trkpt><trkpt lat="42.46672992101636" lon="2.652490246241713"><ele>251.25</ele><time>2026-04-09T12:43:44Z</time></trkpt><trkpt lat="42.46676107445944" lon="2.65264445060272"><ele>251.0</ele><time>2026-04-09T12:43:45Z</time></trkpt><trkpt lat="42.46679511041208" lon="2.6527994601557627"><ele>250.75</ele><time>2026-04-09T12:43:46Z</time></trkpt><trkpt lat="42.46682853828639" lon="2.6529542259583447"><ele>250.5</ele><time>2026-04-09T12:43:47Z</time></trkpt><trkpt lat="42.46686051259306" lon="2.6531096750870606"><ele>250.25</ele><time>2026-04-09T12:43:48Z</time></trkpt><trkpt lat="42.46689435855421" lon="2.65326828197518"><ele>250.0</ele><time>2026-04-09T12:43:49Z</time></trkpt><trkpt lat="42.46692814816384" lon="2.653429156308065"><ele>250.0</ele><time>2026-04-09T12:43:50Z</time></trkpt><trkpt lat="42.46696143608331" lon="2.653591108694443"><ele>250.0</ele><time>2026-04-09T12:43:51Z</time></trkpt><trkpt lat="42.46699629039636" lon="2.6537536937698643"><ele>250.0</ele><time>2026-04-09T12:43:52Z</time></trkpt><trkpt lat="42.46703036578035" lon="2.653917596855115"><ele>250.0</ele><time>2026-04-09T12:43:53Z</time></trkpt><trkpt lat="42.467065302341496" lon="2.6540827464042898"><ele>250.0</ele><time>2026-04-09T12:43:54Z</time></trkpt><trkpt lat="42.46710014902719" lon="2.654248080369564"><ele>250.0</ele><time>2026-04-09T12:43:55Z</time></trkpt><trkpt lat="42.46713639533677" lon="2.6544136163308445"><ele>250.0</ele><time>2026-04-09T12:43:56Z</time></trkpt><trkpt lat="42.46717275473405" lon="2.6545810249643704"><ele>250.0</ele><time>2026-04-09T12:43:57Z</time></trkpt><trkpt lat="42.46720886052791" lon="2.654749321202539"><ele>249.25</ele><time>2026-04-09T12:43:58Z</time></trkpt><trkpt lat="42.46724224861233" lon="2.6549132357979794"><ele>248.5</ele><time>2026-04-09T12:43:59Z</time></trkpt><trkpt lat="42.46727714036932" lon="2.6550830353996098"><ele>247.75</ele><time>2026-04-09T12:44:00Z</time></trkpt><trkpt lat="42.467313003817125" lon="2.6552525807165477"><ele>247.0</ele><time>2026-04-09T12:44:01Z</time></trkpt><trkpt lat="42.46734840574232" lon="2.6554203871083173"><ele>247.0</ele><time>2026-04-09T12:44:02Z</time></trkpt><trkpt lat="42.467384871251916" lon="2.6555860471707384"><ele>247.0</ele><time>2026-04-09T12:44:03Z</time></trkpt><trkpt lat="42.467420914480314" lon="2.655752321083106"><ele>247.0</ele><time>2026-04-09T12:44:04Z</time></trkpt><trkpt lat="42.46745607051" lon="2.655918543195615"><ele>247.0</ele><time>2026-04-09T12:44:05Z</time></trkpt><trkpt lat="42.4674910703992" lon="2.656086826923243"><ele>247.25</ele><time>2026-04-09T12:44:06Z</time></trkpt><trkpt lat="42.4675252934468" lon="2.6562532128776843"><ele>247.5</ele><time>2026-04-09T12:44:07Z</time></trkpt><trkpt lat="42.46755898317327" lon="2.6564158073504958"><ele>247.75</ele><time>2026-04-09T12:44:08Z</time></trkpt><trkpt lat="42.467592870674544" lon="2.6565738646394537"><ele>248.0</ele><time>2026-04-09T12:44:09Z</time></trkpt><trkpt lat="42.467625231688935" lon="2.6567280750629676"><ele>248.0</ele><time>2026-04-09T12:44:10Z</time></trkpt><trkpt lat="42.467658335474816" lon="2.656877577939517"><ele>248.0</ele><time>2026-04-09T12:44:11Z</time></trkpt><trkpt lat="42.467689491022504" lon="2.657028327092812"><ele>248.0</ele><time>2026-04-09T12:44:12Z</time></trkpt><trkpt lat="42.46772338450168" lon="2.6571761284704003"><ele>248.0</ele><time>2026-04-09T12:44:13Z</time></trkpt><trkpt lat="42.46775697023415" lon="2.6573263833185385"><ele>247.75</ele><time>2026-04-09T12:44:14Z</time></trkpt><trkpt lat="42.4677908835445" lon="2.6574801638663366"><ele>247.5</ele><time>2026-04-09T12:44:15Z</time></trkpt><trkpt lat="42.467826142651525" lon="2.657638949157446"><ele>247.25</ele><time>2026-04-09T12:44:16Z</time></trkpt><trkpt lat="42.467860728767754" lon="2.657801183405799"><ele>247.0</ele><time>2026-04-09T12:44:17Z</time></trkpt><trkpt lat="42.467895474757356" lon="2.65796373815463"><ele>246.25</ele><time>2026-04-09T12:44:18Z</time></trkpt><trkpt lat="42.46793058617682" lon="2.658127274266284"><ele>245.5</ele><time>2026-04-09T12:44:19Z</time></trkpt><trkpt lat="42.46796677198755" lon="2.6582897578808784"><ele>244.75</ele><time>2026-04-09T12:44:20Z</time></trkpt><trkpt lat="42.46800490897502" lon="2.6584545862696247"><ele>244.0</ele><time>2026-04-09T12:44:21Z</time></trkpt><trkpt lat="42.46805158779644" lon="2.658618293237073"><ele>244.0</ele><time>2026-04-09T12:44:22Z</time></trkpt><trkpt lat="42.468107447467624" lon="2.6587824661523327"><ele>244.0</ele><time>2026-04-09T12:44:23Z</time></trkpt><trkpt lat="42.468172042961974" lon="2.6589411836020806"><ele>244.0</ele><time>2026-04-09T12:44:24Z</time></trkpt><trkpt lat="42.46824337607151" lon="2.65909539730515"><ele>244.0</ele><time>2026-04-09T12:44:25Z</time></trkpt><trkpt lat="42.46831816196619" lon="2.6592461548818966"><ele>244.0</ele><time>2026-04-09T12:44:26Z</time></trkpt><trkpt lat="42.46839688130981" lon="2.6593967362431212"><ele>244.0</ele><time>2026-04-09T12:44:27Z</time></trkpt><trkpt lat="42.46847514209137" lon="2.6595488862632926"><ele>244.0</ele><time>2026-04-09T12:44:28Z</time></trkpt><trkpt lat="42.468555221609996" lon="2.659698914297073"><ele>244.0</ele><time>2026-04-09T12:44:29Z</time></trkpt><trkpt lat="42.46863695309463" lon="2.659848253182082"><ele>243.5</ele><time>2026-04-09T12:44:30Z</time></trkpt><trkpt lat="42.46871895015918" lon="2.6599965836108335"><ele>243.0</ele><time>2026-04-09T12:44:31Z</time></trkpt><trkpt lat="42.468795646138084" lon="2.660145839906829"><ele>242.5</ele><time>2026-04-09T12:44:32Z</time></trkpt><trkpt lat="42.46886396476931" lon="2.660298912525298"><ele>242.0</ele><time>2026-04-09T12:44:33Z</time></trkpt><trkpt lat="42.46892255451726" lon="2.6604668096799755"><ele>242.0</ele><time>2026-04-09T12:44:34Z</time></trkpt><trkpt lat="42.468972284786176" lon="2.660646654803421"><ele>242.0</ele><time>2026-04-09T12:44:35Z</time></trkpt><trkpt lat="42.46902297207158" lon="2.66082774467789"><ele>242.0</ele><time>2026-04-09T12:44:36Z</time></trkpt><trkpt lat="42.46908290431548" lon="2.6609975611910333"><ele>242.0</ele><time>2026-04-09T12:44:37Z</time></trkpt><trkpt lat="42.469170658154624" lon="2.661150546440794"><ele>247.33333333333334</ele><time>2026-04-09T12:44:38Z</time></trkpt><trkpt lat="42.46927450138876" lon="2.6612937147764213"><ele>252.66666666666669</ele><time>2026-04-09T12:44:39Z</time></trkpt><trkpt lat="42.46937878907727" lon="2.661447372270694"><ele>258.0</ele><time>2026-04-09T12:44:40Z</time></trkpt><trkpt lat="42.469483151317235" lon="2.66160029094875"><ele>258.0</ele><time>2026-04-09T12:44:41Z</time></trkpt><trkpt lat="42.469588121711396" lon="2.661748625807243"><ele>258.0</ele><time>2026-04-09T12:44:42Z</time></trkpt><trkpt lat="42.469702980516836" lon="2.6618848001808706"><ele>258.0</ele><time>2026-04-09T12:44:43Z</time></trkpt><trkpt lat="42.469833035734126" lon="2.6620017753725955"><ele>259.0</ele><time>2026-04-09T12:44:44Z</time></trkpt><trkpt lat="42.46997236437587" lon="2.66211149958762"><ele>260.0</ele><time>2026-04-09T12:44:45Z</time></trkpt><trkpt lat="42.47012125957695" lon="2.6622096825297965"><ele>261.0</ele><time>2026-04-09T12:44:46Z</time></trkpt><trkpt lat="42.47027077784605" lon="2.6622999132444285"><ele>261.0</ele><time>2026-04-09T12:44:47Z</time></trkpt><trkpt lat="42.47041788483465" lon="2.662382467188793"><ele>261.0</ele><time>2026-04-09T12:44:48Z</time></trkpt><trkpt lat="42.470562928044316" lon="2.6624668775680913"><ele>261.0</ele><time>2026-04-09T12:44:49Z</time></trkpt><trkpt lat="42.47070609853008" lon="2.662548624898617"><ele>256.75</ele><time>2026-04-09T12:44:50Z</time></trkpt><trkpt lat="42.47084337208073" lon="2.6626190484852805"><ele>252.5</ele><time>2026-04-09T12:44:51Z</time></trkpt><trkpt lat="42.470984610759885" lon="2.6626557866812917"><ele>248.25</ele><time>2026-04-09T12:44:52Z</time></trkpt><trkpt lat="42.471122750685964" lon="2.662651972680559"><ele>244.0</ele><time>2026-04-09T12:44:53Z</time></trkpt><trkpt lat="42.47125656281786" lon="2.662620003441766"><ele>245.5</ele><time>2026-04-09T12:44:54Z</time></trkpt><trkpt lat="42.4713831295688" lon="2.6625879434392488"><ele>247.0</ele><time>2026-04-09T12:44:55Z</time></trkpt><trkpt lat="42.471503136184516" lon="2.662556825068055"><ele>248.5</ele><time>2026-04-09T12:44:56Z</time></trkpt><trkpt lat="42.47161551065549" lon="2.662535144773063"><ele>250.0</ele><time>2026-04-09T12:44:57Z</time></trkpt><trkpt lat="42.471716281308844" lon="2.6625218948419356"><ele>249.99999999999997</ele><time>2026-04-09T12:44:58Z</time></trkpt><trkpt lat="42.47181172527688" lon="2.6625055613060393"><ele>250.0</ele><time>2026-04-09T12:44:59Z</time></trkpt><trkpt lat="42.4719001636109" lon="2.662504104910293"><ele>250.0</ele><time>2026-04-09T12:45:00Z</time></trkpt><trkpt lat="42.471987920437776" lon="2.6625269571068637"><ele>250.0</ele><time>2026-04-09T12:45:01Z</time></trkpt><trkpt lat="42.47207470653717" lon="2.6625589763961686"><ele>249.99999999999997</ele><time>2026-04-09T12:45:02Z</time></trkpt><trkpt lat="42.47215398077008" lon="2.662579508881958"><ele>250.0</ele><time>2026-04-09T12:45:03Z</time></trkpt><trkpt lat="42.472234228948224" lon="2.6625901340443066"><ele>248.49999999999997</ele><time>2026-04-09T12:45:04Z</time></trkpt><trkpt lat="42.472311026311985" lon="2.6625970523455402"><ele>247.0</ele><time>2026-04-09T12:45:05Z</time></trkpt><trkpt lat="42.472385610348894" lon="2.662620311540465"><ele>245.5</ele><time>2026-04-09T12:45:06Z</time></trkpt><trkpt lat="42.47245203646638" lon="2.662650561030883"><ele>244.0</ele><time>2026-04-09T12:45:07Z</time></trkpt><trkpt lat="42.47251403268843" lon="2.6626937006854154"><ele>242.49999999999997</ele><time>2026-04-09T12:45:08Z</time></trkpt><trkpt lat="42.47262030761527" lon="2.6627904394134934"><ele>241.0</ele><time>2026-04-09T12:45:10Z</time></trkpt><trkpt lat="42.472675701067764" lon="2.6628435120811798"><ele>241.49999999999997</ele><time>2026-04-09T12:45:11Z</time></trkpt><trkpt lat="42.47273690531757" lon="2.6628992303592107"><ele>242.0</ele><time>2026-04-09T12:45:12Z</time></trkpt><trkpt lat="42.4727980852414" lon="2.6629539202217427"><ele>242.5</ele><time>2026-04-09T12:45:13Z</time></trkpt><trkpt lat="42.472861100474375" lon="2.6630115839633914"><ele>243.0</ele><time>2026-04-09T12:45:14Z</time></trkpt><trkpt lat="42.47293208540162" lon="2.6630980800416726"><ele>243.49999999999997</ele><time>2026-04-09T12:45:16Z</time></trkpt><trkpt lat="42.4730129663138" lon="2.663155902806371"><ele>244.0</ele><time>2026-04-09T12:45:21Z</time></trkpt><trkpt lat="42.47309550237944" lon="2.6632251797061133"><ele>243.99999999999997</ele><time>2026-04-09T12:45:23Z</time></trkpt><trkpt lat="42.47318673485581" lon="2.663314959125523"><ele>244.0</ele><time>2026-04-09T12:45:25Z</time></trkpt><trkpt lat="42.47324446994643" lon="2.6633671250740707"><ele>244.0</ele><time>2026-04-09T12:45:26Z</time></trkpt><trkpt lat="42.47330887204386" lon="2.663422327650116"><ele>244.0</ele><time>2026-04-09T12:45:27Z</time></trkpt><trkpt lat="42.473373831661256" lon="2.6634774990035703"><ele>243.99999999999997</ele><time>2026-04-09T12:45:28Z</time></trkpt><trkpt lat="42.473430602431854" lon="2.663545523492582"><ele>244.0</ele><time>2026-04-09T12:45:29Z</time></trkpt><trkpt lat="42.47347164486402" lon="2.663630746528138"><ele>247.33333333333331</ele><time>2026-04-09T12:45:30Z</time></trkpt><trkpt lat="42.47349419606859" lon="2.6637315481437103"><ele>250.66666666666666</ele><time>2026-04-09T12:45:31Z</time></trkpt><trkpt lat="42.47350175683064" lon="2.6638444993561574"><ele>254.0</ele><time>2026-04-09T12:45:32Z</time></trkpt><trkpt lat="42.473517256120864" lon="2.6639606358208923"><ele>257.3333333333333</ele><time>2026-04-09T12:45:33Z</time></trkpt><trkpt lat="42.47354581981337" lon="2.6640697905607262"><ele>260.6666666666667</ele><time>2026-04-09T12:45:34Z</time></trkpt><trkpt lat="42.47357801640203" lon="2.664171830715183"><ele>264.0</ele><time>2026-04-09T12:45:35Z</time></trkpt><trkpt lat="42.47361111696688" lon="2.664274500622381"><ele>264.0</ele><time>2026-04-09T12:45:36Z</time></trkpt><trkpt lat="42.47363430050218" lon="2.664383748969559"><ele>264.0</ele><time>2026-04-09T12:45:37Z</time></trkpt><trkpt lat="42.47364636972171" lon="2.664498517567151"><ele>264.0</ele><time>2026-04-09T12:45:38Z</time></trkpt><trkpt lat="42.473654143917614" lon="2.6646069935788526"><ele>264.0</ele><time>2026-04-09T12:45:39Z</time></trkpt><trkpt lat="42.47366310234904" lon="2.664712214715169"><ele>264.0</ele><time>2026-04-09T12:45:40Z</time></trkpt><trkpt lat="42.47366335416046" lon="2.664809585580368"><ele>264.0</ele><time>2026-04-09T12:45:41Z</time></trkpt><trkpt lat="42.47366724377245" lon="2.664903609004263"><ele>264.0</ele><time>2026-04-09T12:45:42Z</time></trkpt><trkpt lat="42.47366204924107" lon="2.6649998955045215"><ele>264.0</ele><time>2026-04-09T12:45:43Z</time></trkpt><trkpt lat="42.473642397456544" lon="2.665096361861917"><ele>264.0</ele><time>2026-04-09T12:45:44Z</time></trkpt><trkpt lat="42.47361286722953" lon="2.6651863383172527"><ele>264.0</ele><time>2026-04-09T12:45:45Z</time></trkpt><trkpt lat="42.47356948888966" lon="2.6652760208888213"><ele>264.0</ele><time>2026-04-09T12:45:46Z</time></trkpt><trkpt lat="42.473522562096875" lon="2.665354805845634"><ele>264.0</ele><time>2026-04-09T12:45:47Z</time></trkpt><trkpt lat="42.473472719750454" lon="2.6654307871996923"><ele>264.0</ele><time>2026-04-09T12:45:48Z</time></trkpt><trkpt lat="42.47342818466675" lon="2.6654996427461755"><ele>262.8</ele><time>2026-04-09T12:45:49Z</time></trkpt><trkpt lat="42.47338798938109" lon="2.6655691368815027"><ele>261.59999999999997</ele><time>2026-04-09T12:45:50Z</time></trkpt><trkpt lat="42.4733274366908" lon="2.665701874016037"><ele>260.4</ele><time>2026-04-09T12:45:52Z</time></trkpt><trkpt lat="42.47328157876786" lon="2.66585116266402"><ele>259.2</ele><time>2026-04-09T12:45:54Z</time></trkpt><trkpt lat="42.47322028034239" lon="2.6659935052192685"><ele>258.0</ele><time>2026-04-09T12:45:56Z</time></trkpt><trkpt lat="42.47317101405262" lon="2.6660496004329675"><ele>258.0</ele><time>2026-04-09T12:45:57Z</time></trkpt><trkpt lat="42.47311059203308" lon="2.666093884341265"><ele>258.0</ele><time>2026-04-09T12:45:58Z</time></trkpt><trkpt lat="42.47304402192225" lon="2.6661134214333697"><ele>258.0</ele><time>2026-04-09T12:45:59Z</time></trkpt><trkpt lat="42.4729744625257" lon="2.666122600785245"><ele>258.0</ele><time>2026-04-09T12:46:00Z</time></trkpt><trkpt lat="42.47290991510583" lon="2.666116281076538"><ele>258.0</ele><time>2026-04-09T12:46:01Z</time></trkpt><trkpt lat="42.472796864531844" lon="2.6661135709947024"><ele>258.0</ele><time>2026-04-09T12:46:03Z</time></trkpt><trkpt lat="42.47269740904927" lon="2.6661558681368596"><ele>259.6666666666667</ele><time>2026-04-09T12:46:05Z</time></trkpt><trkpt lat="42.47263742852317" lon="2.6662654741857525"><ele>261.3333333333333</ele><time>2026-04-09T12:46:07Z</time></trkpt><trkpt lat="42.47262332865579" lon="2.6663919764479735"><ele>263.0</ele><time>2026-04-09T12:46:09Z</time></trkpt><trkpt lat="42.47261076460626" lon="2.6662986976731964"><ele>264.66666666666663</ele><time>2026-04-09T12:46:26Z</time></trkpt><trkpt lat="42.47266305700255" lon="2.666231999494835"><ele>266.3333333333333</ele><time>2026-04-09T12:46:31Z</time></trkpt><trkpt lat="42.47272771685263" lon="2.6661671483107465"><ele>268.0</ele><time>2026-04-09T12:46:33Z</time></trkpt><trkpt lat="42.472835761785966" lon="2.666140980136592"><ele>268.0</ele><time>2026-04-09T12:46:35Z</time></trkpt><trkpt lat="42.472900104480146" lon="2.6661457808814615"><ele>268.0</ele><time>2026-04-09T12:46:36Z</time></trkpt><trkpt lat="42.47296556427574" lon="2.6661478613705807"><ele>268.0</ele><time>2026-04-09T12:46:37Z</time></trkpt><trkpt lat="42.473029262947996" lon="2.666143535049862"><ele>268.0</ele><time>2026-04-09T12:46:38Z</time></trkpt><trkpt lat="42.47309409817826" lon="2.666126699692587"><ele>268.0</ele><time>2026-04-09T12:46:39Z</time></trkpt><trkpt lat="42.47315427047618" lon="2.6660982444451653"><ele>268.0</ele><time>2026-04-09T12:46:40Z</time></trkpt><trkpt lat="42.473247761787555" lon="2.6659865122957815"><ele>268.0</ele><time>2026-04-09T12:46:42Z</time></trkpt><trkpt lat="42.47329946831961" lon="2.6658260983285555"><ele>267.2</ele><time>2026-04-09T12:46:44Z</time></trkpt><trkpt lat="42.47332212076169" lon="2.6657437003532074"><ele>266.4</ele><time>2026-04-09T12:46:45Z</time></trkpt><trkpt lat="42.47337705969922" lon="2.665598243604447"><ele>265.59999999999997</ele><time>2026-04-09T12:46:47Z</time></trkpt><trkpt lat="42.47344962403417" lon="2.665466726178083"><ele>264.8</ele><time>2026-04-09T12:46:49Z</time></trkpt><trkpt lat="42.47351711282358" lon="2.6653664502106023"><ele>264.0</ele><time>2026-04-09T12:46:51Z</time></trkpt><trkpt lat="42.47357912878903" lon="2.6652645676504094"><ele>264.0</ele><time>2026-04-09T12:46:54Z</time></trkpt><trkpt lat="42.47362512385182" lon="2.665157863478752"><ele>264.0</ele><time>2026-04-09T12:46:56Z</time></trkpt><trkpt lat="42.47366048898792" lon="2.665039174292019"><ele>264.0</ele><time>2026-04-09T12:46:58Z</time></trkpt><trkpt lat="42.47365841100384" lon="2.6649528489192744"><ele>264.0</ele><time>2026-04-09T12:47:05Z</time></trkpt><trkpt lat="42.473642663975866" lon="2.6648287252667924"><ele>264.0</ele><time>2026-04-09T12:47:08Z</time></trkpt><trkpt lat="42.473641892298986" lon="2.6646865026873203"><ele>264.0</ele><time>2026-04-09T12:47:10Z</time></trkpt><trkpt lat="42.47363909077186" lon="2.6645281059947634"><ele>264.0</ele><time>2026-04-09T12:47:12Z</time></trkpt><trkpt lat="42.47363422859479" lon="2.6644356452793767"><ele>264.0</ele><time>2026-04-09T12:47:13Z</time></trkpt><trkpt lat="42.473618825869465" lon="2.664347115283501"><ele>264.0</ele><time>2026-04-09T12:47:14Z</time></trkpt><trkpt lat="42.47359242998748" lon="2.6642574635110643"><ele>264.0</ele><time>2026-04-09T12:47:15Z</time></trkpt><trkpt lat="42.473562053202805" lon="2.66417289675206"><ele>264.0</ele><time>2026-04-09T12:47:16Z</time></trkpt><trkpt lat="42.473532282775736" lon="2.6640878344809904"><ele>264.0</ele><time>2026-04-09T12:47:17Z</time></trkpt><trkpt lat="42.47350606953066" lon="2.663997140225427"><ele>264.0</ele><time>2026-04-09T12:47:18Z</time></trkpt><trkpt lat="42.47349935141229" lon="2.663901639087848"><ele>264.0</ele><time>2026-04-09T12:47:19Z</time></trkpt><trkpt lat="42.47349684143618" lon="2.6638075938657493"><ele>264.0</ele><time>2026-04-09T12:47:20Z</time></trkpt><trkpt lat="42.47348514519116" lon="2.6637083679495865"><ele>264.0</ele><time>2026-04-09T12:47:21Z</time></trkpt><trkpt lat="42.47345318335737" lon="2.663619700705169"><ele>264.0</ele><time>2026-04-09T12:47:22Z</time></trkpt><trkpt lat="42.47339982165868" lon="2.663547099346076"><ele>264.0</ele><time>2026-04-09T12:47:23Z</time></trkpt><trkpt lat="42.47333796286348" lon="2.663482295895001"><ele>264.0</ele><time>2026-04-09T12:47:24Z</time></trkpt><trkpt lat="42.47327188172398" lon="2.6634211390045053"><ele>265.0</ele><time>2026-04-09T12:47:25Z</time></trkpt><trkpt lat="42.47320235061454" lon="2.6633568663942526"><ele>266.0</ele><time>2026-04-09T12:47:26Z</time></trkpt><trkpt lat="42.47313113249018" lon="2.6632929543686497"><ele>267.0</ele><time>2026-04-09T12:47:27Z</time></trkpt><trkpt lat="42.47305886926907" lon="2.6632256347586383"><ele>268.0</ele><time>2026-04-09T12:47:28Z</time></trkpt><trkpt lat="42.47298469353453" lon="2.6631573467329095"><ele>269.0</ele><time>2026-04-09T12:47:29Z</time></trkpt><trkpt lat="42.472909404190574" lon="2.663087474748332"><ele>270.0</ele><time>2026-04-09T12:47:30Z</time></trkpt><trkpt lat="42.47283312851836" lon="2.6630137386261756"><ele>270.0</ele><time>2026-04-09T12:47:31Z</time></trkpt><trkpt lat="42.47275590124464" lon="2.662941063913842"><ele>270.0</ele><time>2026-04-09T12:47:32Z</time></trkpt><trkpt lat="42.47268297310928" lon="2.66287279747903"><ele>270.0</ele><time>2026-04-09T12:47:33Z</time></trkpt><trkpt lat="42.47261201159023" lon="2.662805347554718"><ele>270.0</ele><time>2026-04-09T12:47:34Z</time></trkpt><trkpt lat="42.47254438841479" lon="2.662743463705679"><ele>270.0</ele><time>2026-04-09T12:47:35Z</time></trkpt><trkpt lat="42.47247740628285" lon="2.66268480399378"><ele>270.0</ele><time>2026-04-09T12:47:36Z</time></trkpt><trkpt lat="42.47240868601648" lon="2.662639250613333"><ele>266.6666666666667</ele><time>2026-04-09T12:47:37Z</time></trkpt><trkpt lat="42.4723363824966" lon="2.66260746017167"><ele>263.3333333333333</ele><time>2026-04-09T12:47:38Z</time></trkpt><trkpt lat="42.472264801804556" lon="2.6625887330480413"><ele>260.0</ele><time>2026-04-09T12:47:39Z</time></trkpt><trkpt lat="42.472197451490175" lon="2.6625818815117266"><ele>256.66666666666663</ele><time>2026-04-09T12:47:40Z</time></trkpt><trkpt lat="42.472087490294854" lon="2.66258801791026"><ele>253.33333333333331</ele><time>2026-04-09T12:47:42Z</time></trkpt><trkpt lat="42.47202459481841" lon="2.662580314457374"><ele>250.0</ele><time>2026-04-09T12:47:44Z</time></trkpt><trkpt lat="42.47201710714993" lon="2.6624852012454676"><ele>248.49999999999997</ele><time>2026-04-09T12:47:52Z</time></trkpt><trkpt lat="42.47211408189723" lon="2.662439742798889"><ele>247.0</ele><time>2026-04-09T12:47:54Z</time></trkpt><trkpt lat="42.472180540978606" lon="2.6624485878843163"><ele>245.5</ele><time>2026-04-09T12:47:55Z</time></trkpt><trkpt lat="42.47225751878298" lon="2.6624585189115892"><ele>244.0</ele><time>2026-04-09T12:47:56Z</time></trkpt><trkpt lat="42.47235430274494" lon="2.662472893670035"><ele>242.49999999999997</ele><time>2026-04-09T12:47:57Z</time></trkpt><trkpt lat="42.47245671097039" lon="2.6625033317641305"><ele>241.0</ele><time>2026-04-09T12:47:58Z</time></trkpt><trkpt lat="42.47255548909956" lon="2.6625574335429296"><ele>241.0</ele><time>2026-04-09T12:47:59Z</time></trkpt><trkpt lat="42.47265553813398" lon="2.6626251968816383"><ele>241.00000000000003</ele><time>2026-04-09T12:48:00Z</time></trkpt><trkpt lat="42.47275242582894" lon="2.662692604175862"><ele>241.00000000000003</ele><time>2026-04-09T12:48:01Z</time></trkpt><trkpt lat="42.47284658803602" lon="2.6627579218420148"><ele>241.0</ele><time>2026-04-09T12:48:02Z</time></trkpt><trkpt lat="42.47293446808575" lon="2.6628192855714614"><ele>241.0</ele><time>2026-04-09T12:48:03Z</time></trkpt><trkpt lat="42.473021440098655" lon="2.6628798289743156"><ele>241.60000000000002</ele><time>2026-04-09T12:48:04Z</time></trkpt><trkpt lat="42.47310784983748" lon="2.6629401685730456"><ele>242.20000000000002</ele><time>2026-04-09T12:48:05Z</time></trkpt><trkpt lat="42.47319094301099" lon="2.662995390121353"><ele>242.79999999999998</ele><time>2026-04-09T12:48:06Z</time></trkpt><trkpt lat="42.47326421597999" lon="2.663044378663509"><ele>243.39999999999998</ele><time>2026-04-09T12:48:07Z</time></trkpt><trkpt lat="42.47333056296845" lon="2.663087535569742"><ele>244.0</ele><time>2026-04-09T12:48:08Z</time></trkpt><trkpt lat="42.47343261889316" lon="2.6631455125436534"><ele>244.0</ele><time>2026-04-09T12:48:10Z</time></trkpt><trkpt lat="42.47351151805972" lon="2.6632024092420803"><ele>243.99999999999997</ele><time>2026-04-09T12:48:12Z</time></trkpt><trkpt lat="42.47359717143973" lon="2.6632823270089174"><ele>243.99999999999997</ele><time>2026-04-09T12:48:14Z</time></trkpt><trkpt lat="42.47367048544819" lon="2.663394175460097"><ele>244.0</ele><time>2026-04-09T12:48:16Z</time></trkpt><trkpt lat="42.47372518460088" lon="2.663496157857015"><ele>244.0</ele><time>2026-04-09T12:48:18Z</time></trkpt><trkpt lat="42.47377550172937" lon="2.663584840757931"><ele>242.49999999999997</ele><time>2026-04-09T12:48:20Z</time></trkpt><trkpt lat="42.473820641911175" lon="2.663666669200794"><ele>241.0</ele><time>2026-04-09T12:48:22Z</time></trkpt><trkpt lat="42.4738632903142" lon="2.663764671152078"><ele>239.5</ele><time>2026-04-09T12:48:24Z</time></trkpt><trkpt lat="42.47389666942693" lon="2.663872029002527"><ele>238.0</ele><time>2026-04-09T12:48:26Z</time></trkpt><trkpt lat="42.473927463737176" lon="2.663992367110958"><ele>236.49999999999997</ele><time>2026-04-09T12:48:28Z</time></trkpt><trkpt lat="42.47396037937547" lon="2.6641106167856945"><ele>235.0</ele><time>2026-04-09T12:48:30Z</time></trkpt><trkpt lat="42.47399240503384" lon="2.6642300572833104"><ele>235.0</ele><time>2026-04-09T12:48:32Z</time></trkpt><trkpt lat="42.47402521081125" lon="2.6643408106931434"><ele>235.0</ele><time>2026-04-09T12:48:34Z</time></trkpt><trkpt lat="42.47405216784628" lon="2.6644502940572226"><ele>235.0</ele><time>2026-04-09T12:48:36Z</time></trkpt><trkpt lat="42.47408353797524" lon="2.6645711741454714"><ele>235.0</ele><time>2026-04-09T12:48:38Z</time></trkpt><trkpt lat="42.47411477480253" lon="2.6646859591971186"><ele>235.0</ele><time>2026-04-09T12:48:40Z</time></trkpt><trkpt lat="42.47415588516954" lon="2.6647978067171185"><ele>235.2</ele><time>2026-04-09T12:48:42Z</time></trkpt><trkpt lat="42.47420598574207" lon="2.664898420531924"><ele>235.4</ele><time>2026-04-09T12:48:44Z</time></trkpt><trkpt lat="42.47423439508661" lon="2.6650277324125318"><ele>235.60000000000002</ele><time>2026-04-09T12:48:46Z</time></trkpt><trkpt lat="42.474269030676844" lon="2.6651757169053183"><ele>235.8</ele><time>2026-04-09T12:48:48Z</time></trkpt><trkpt lat="42.47429305914099" lon="2.6653068499941615"><ele>236.0</ele><time>2026-04-09T12:48:50Z</time></trkpt><trkpt lat="42.47429361063189" lon="2.6654299098384056"><ele>235.71428571428572</ele><time>2026-04-09T12:48:52Z</time></trkpt><trkpt lat="42.47427582848304" lon="2.6655392415629864"><ele>235.42857142857144</ele><time>2026-04-09T12:48:54Z</time></trkpt><trkpt lat="42.4742534999893" lon="2.6656413971283137"><ele>235.14285714285717</ele><time>2026-04-09T12:48:56Z</time></trkpt><trkpt lat="42.47422778949666" lon="2.6657398365352605"><ele>234.85714285714286</ele><time>2026-04-09T12:48:58Z</time></trkpt><trkpt lat="42.47420146733323" lon="2.6658344943426795"><ele>234.5714285714286</ele><time>2026-04-09T12:49:00Z</time></trkpt><trkpt lat="42.47417758799195" lon="2.6659211142387433"><ele>234.2857142857143</ele><time>2026-04-09T12:49:02Z</time></trkpt><trkpt lat="42.47415434073849" lon="2.666002171929657"><ele>234.0</ele><time>2026-04-09T12:49:04Z</time></trkpt><trkpt lat="42.47413075610797" lon="2.666093376822289"><ele>233.5</ele><time>2026-04-09T12:49:06Z</time></trkpt><trkpt lat="42.474105111223494" lon="2.6661901713496174"><ele>233.0</ele><time>2026-04-09T12:49:08Z</time></trkpt><trkpt lat="42.474074825804145" lon="2.6662777459872533"><ele>232.5</ele><time>2026-04-09T12:49:10Z</time></trkpt><trkpt lat="42.474049861980184" lon="2.666362514993619"><ele>232.0</ele><time>2026-04-09T12:49:12Z</time></trkpt><trkpt lat="42.47402641106556" lon="2.6664739627715925"><ele>231.5</ele><time>2026-04-09T12:49:14Z</time></trkpt><trkpt lat="42.47399257219665" lon="2.666566061255773"><ele>231.0</ele><time>2026-04-09T12:49:16Z</time></trkpt><trkpt lat="42.4739638776185" lon="2.666671697203008"><ele>231.0</ele><time>2026-04-09T12:49:18Z</time></trkpt><trkpt lat="42.47393930538479" lon="2.666772989193799"><ele>231.0</ele><time>2026-04-09T12:49:20Z</time></trkpt><trkpt lat="42.473912249967185" lon="2.666863019971117"><ele>231.0</ele><time>2026-04-09T12:49:22Z</time></trkpt><trkpt lat="42.473893110218874" lon="2.6669539842878023"><ele>231.0</ele><time>2026-04-09T12:49:24Z</time></trkpt><trkpt lat="42.473871663772755" lon="2.667059247956795"><ele>231.0</ele><time>2026-04-09T12:49:26Z</time></trkpt><trkpt lat="42.473847160193934" lon="2.667163292102291"><ele>231.0</ele><time>2026-04-09T12:49:28Z</time></trkpt><trkpt lat="42.473823137124135" lon="2.6672768283377626"><ele>231.20000000000002</ele><time>2026-04-09T12:49:30Z</time></trkpt><trkpt lat="42.4737907935094" lon="2.6673897167104275"><ele>231.40000000000003</ele><time>2026-04-09T12:49:32Z</time></trkpt><trkpt lat="42.47376223972616" lon="2.6675113078437973"><ele>231.6</ele><time>2026-04-09T12:49:34Z</time></trkpt><trkpt lat="42.47372963942132" lon="2.667614633237145"><ele>231.8</ele><time>2026-04-09T12:49:36Z</time></trkpt><trkpt lat="42.473691520344175" lon="2.667735287237271"><ele>232.0</ele><time>2026-04-09T12:49:38Z</time></trkpt><trkpt lat="42.4736582853761" lon="2.667852542052946"><ele>232.8</ele><time>2026-04-09T12:49:40Z</time></trkpt><trkpt lat="42.473626689766455" lon="2.6679677648411393"><ele>233.6</ele><time>2026-04-09T12:49:42Z</time></trkpt><trkpt lat="42.47358998124142" lon="2.668094479012608"><ele>234.40000000000003</ele><time>2026-04-09T12:49:44Z</time></trkpt><trkpt lat="42.47355318460185" lon="2.66821995924949"><ele>235.20000000000002</ele><time>2026-04-09T12:49:46Z</time></trkpt><trkpt lat="42.47351411009555" lon="2.668352197870794"><ele>236.0</ele><time>2026-04-09T12:49:48Z</time></trkpt><trkpt lat="42.47348156049593" lon="2.668462572726799"><ele>236.00000000000003</ele><time>2026-04-09T12:49:50Z</time></trkpt><trkpt lat="42.47345535014033" lon="2.668560681104312"><ele>236.0</ele><time>2026-04-09T12:49:52Z</time></trkpt><trkpt lat="42.473429764390474" lon="2.6686473972854174"><ele>236.0</ele><time>2026-04-09T12:49:54Z</time></trkpt><trkpt lat="42.47339716362993" lon="2.6687608801245486"><ele>236.0</ele><time>2026-04-09T12:49:57Z</time></trkpt><trkpt lat="42.473364776490705" lon="2.6688703857939142"><ele>236.00000000000003</ele><time>2026-04-09T12:50:00Z</time></trkpt><trkpt lat="42.47332562116233" lon="2.6689811950348314"><ele>236.0</ele><time>2026-04-09T12:50:03Z</time></trkpt><trkpt lat="42.473298780748934" lon="2.6690862984672115"><ele>235.16666666666669</ele><time>2026-04-09T12:50:07Z</time></trkpt><trkpt lat="42.473272390542114" lon="2.66918445157831"><ele>234.33333333333334</ele><time>2026-04-09T12:50:10Z</time></trkpt><trkpt lat="42.473233380868095" lon="2.6693010433903"><ele>233.5</ele><time>2026-04-09T12:50:13Z</time></trkpt><trkpt lat="42.47320544110096" lon="2.669381405440901"><ele>232.66666666666669</ele><time>2026-04-09T12:50:15Z</time></trkpt><trkpt lat="42.47317927219769" lon="2.66946963042546"><ele>231.83333333333334</ele><time>2026-04-09T12:50:17Z</time></trkpt><trkpt lat="42.473149307044245" lon="2.6695893197778777"><ele>231.0</ele><time>2026-04-09T12:50:20Z</time></trkpt><trkpt lat="42.47311029063542" lon="2.6696805748399504"><ele>230.16666666666666</ele><time>2026-04-09T12:50:23Z</time></trkpt><trkpt lat="42.47309705914366" lon="2.669782451888103"><ele>229.33333333333331</ele><time>2026-04-09T12:50:26Z</time></trkpt><trkpt lat="42.473094812671214" lon="2.66987609954814"><ele>228.5</ele><time>2026-04-09T12:50:29Z</time></trkpt><trkpt lat="42.47307371344698" lon="2.669970639352809"><ele>227.66666666666666</ele><time>2026-04-09T12:50:32Z</time></trkpt><trkpt lat="42.47305157179783" lon="2.6700602310923"><ele>226.83333333333331</ele><time>2026-04-09T12:50:34Z</time></trkpt><trkpt lat="42.47302763910083" lon="2.6701562889276174"><ele>226.0</ele><time>2026-04-09T12:50:36Z</time></trkpt><trkpt lat="42.47299699570017" lon="2.67026774946049"><ele>226.57142857142858</ele><time>2026-04-09T12:50:39Z</time></trkpt><trkpt lat="42.47295481283506" lon="2.6703322169671564"><ele>227.1428571428571</ele><time>2026-04-09T12:50:41Z</time></trkpt><trkpt lat="42.472904595107494" lon="2.6704162980467876"><ele>227.7142857142857</ele><time>2026-04-09T12:50:44Z</time></trkpt><trkpt lat="42.472847357039925" lon="2.6704787393310556"><ele>228.28571428571428</ele><time>2026-04-09T12:50:47Z</time></trkpt><trkpt lat="42.47277931249639" lon="2.670566626764071"><ele>228.85714285714283</ele><time>2026-04-09T12:50:50Z</time></trkpt><trkpt lat="42.47273687166" lon="2.6706444545718333"><ele>229.4285714285714</ele><time>2026-04-09T12:50:52Z</time></trkpt><trkpt lat="42.47269041798967" lon="2.67070501989735"><ele>229.99999999999997</ele><time>2026-04-09T12:50:54Z</time></trkpt><trkpt lat="42.47262881999939" lon="2.6707780373709045"><ele>230.00000000000003</ele><time>2026-04-09T12:50:57Z</time></trkpt><trkpt lat="42.47261446509619" lon="2.6708659385714473"><ele>230.0</ele><time>2026-04-09T12:50:59Z</time></trkpt><trkpt lat="42.472631669662256" lon="2.670977948770667"><ele>230.0</ele><time>2026-04-09T12:51:02Z</time></trkpt><trkpt lat="42.47264791494378" lon="2.6710850649859963"><ele>230.0</ele><time>2026-04-09T12:51:06Z</time></trkpt><trkpt lat="42.472669659761316" lon="2.6712252103365297"><ele>230.00000000000003</ele><time>2026-04-09T12:51:09Z</time></trkpt><trkpt lat="42.472690162027384" lon="2.671369981093443"><ele>230.0</ele><time>2026-04-09T12:51:11Z</time></trkpt><trkpt lat="42.472708213800765" lon="2.6714964646560593"><ele>230.0</ele><time>2026-04-09T12:51:13Z</time></trkpt><trkpt lat="42.4727248100141" lon="2.671615645428859"><ele>230.0</ele><time>2026-04-09T12:51:15Z</time></trkpt><trkpt lat="42.472741942600216" lon="2.6717459202231373"><ele>230.0</ele><time>2026-04-09T12:51:17Z</time></trkpt><trkpt lat="42.47275505028719" lon="2.671883275615104"><ele>230.0</ele><time>2026-04-09T12:51:19Z</time></trkpt><trkpt lat="42.47277418987552" lon="2.6720370688175907"><ele>230.0</ele><time>2026-04-09T12:51:21Z</time></trkpt><trkpt lat="42.47279176677541" lon="2.6721780329309737"><ele>230.4</ele><time>2026-04-09T12:51:23Z</time></trkpt><trkpt lat="42.47280811672223" lon="2.672304308824035"><ele>230.8</ele><time>2026-04-09T12:51:25Z</time></trkpt><trkpt lat="42.47281976970517" lon="2.6724328127782733"><ele>231.2</ele><time>2026-04-09T12:51:27Z</time></trkpt><trkpt lat="42.47283632053107" lon="2.6725815807121087"><ele>231.6</ele><time>2026-04-09T12:51:29Z</time></trkpt><trkpt lat="42.47285614705201" lon="2.6727391894969825"><ele>232.0</ele><time>2026-04-09T12:51:31Z</time></trkpt><trkpt lat="42.47287552524339" lon="2.6728801891818463"><ele>233.16666666666666</ele><time>2026-04-09T12:51:33Z</time></trkpt><trkpt lat="42.472893814985056" lon="2.6729973468704427"><ele>234.33333333333331</ele><time>2026-04-09T12:51:35Z</time></trkpt><trkpt lat="42.47290928405223" lon="2.6730992288712287"><ele>235.5</ele><time>2026-04-09T12:51:37Z</time></trkpt><trkpt lat="42.472922474940354" lon="2.6732146371565815"><ele>236.66666666666669</ele><time>2026-04-09T12:51:39Z</time></trkpt><trkpt lat="42.4729332589644" lon="2.6733339529233584"><ele>237.83333333333334</ele><time>2026-04-09T12:51:41Z</time></trkpt><trkpt lat="42.47295225587716" lon="2.6734248473167215"><ele>239.0</ele><time>2026-04-09T12:51:43Z</time></trkpt><trkpt lat="42.473007447416634" lon="2.6735300674484272"><ele>236.16666666666669</ele><time>2026-04-09T12:51:46Z</time></trkpt><trkpt lat="42.473067124988546" lon="2.6736089065398256"><ele>233.33333333333334</ele><time>2026-04-09T12:51:48Z</time></trkpt><trkpt lat="42.47312896759172" lon="2.673677594276042"><ele>230.5</ele><time>2026-04-09T12:51:50Z</time></trkpt><trkpt lat="42.47319309626689" lon="2.6737544341617943"><ele>227.66666666666669</ele><time>2026-04-09T12:51:52Z</time></trkpt><trkpt lat="42.473259675365654" lon="2.6738615541243957"><ele>224.83333333333334</ele><time>2026-04-09T12:51:54Z</time></trkpt><trkpt lat="42.47330990016821" lon="2.6739596960255363"><ele>222.0</ele><time>2026-04-09T12:51:56Z</time></trkpt><trkpt lat="42.473378876687924" lon="2.6740613543746816"><ele>222.0</ele><time>2026-04-09T12:51:58Z</time></trkpt><trkpt lat="42.47342059443783" lon="2.67413520368016"><ele>222.0</ele><time>2026-04-09T12:51:59Z</time></trkpt><trkpt lat="42.47346707246125" lon="2.674222123717753"><ele>222.0</ele><time>2026-04-09T12:52:00Z</time></trkpt><trkpt lat="42.473520174656684" lon="2.6743129510548918"><ele>222.0</ele><time>2026-04-09T12:52:01Z</time></trkpt><trkpt lat="42.47357632914044" lon="2.6744062212840505"><ele>222.0</ele><time>2026-04-09T12:52:02Z</time></trkpt><trkpt lat="42.47363182979281" lon="2.674496561621902"><ele>222.0</ele><time>2026-04-09T12:52:03Z</time></trkpt><trkpt lat="42.473693461323016" lon="2.674595499663003"><ele>220.39999999999998</ele><time>2026-04-09T12:52:04Z</time></trkpt><trkpt lat="42.47375568960001" lon="2.674694939811627"><ele>218.79999999999998</ele><time>2026-04-09T12:52:05Z</time></trkpt><trkpt lat="42.4738166840179" lon="2.674793645881501"><ele>217.2</ele><time>2026-04-09T12:52:06Z</time></trkpt><trkpt lat="42.47387523831893" lon="2.6748908107042886"><ele>215.6</ele><time>2026-04-09T12:52:07Z</time></trkpt><trkpt lat="42.47393692246427" lon="2.67498907627291"><ele>214.0</ele><time>2026-04-09T12:52:08Z</time></trkpt><trkpt lat="42.474000090987296" lon="2.6750903044372856"><ele>214.0</ele><time>2026-04-09T12:52:09Z</time></trkpt><trkpt lat="42.47406673345202" lon="2.6751836540474496"><ele>213.99999999999997</ele><time>2026-04-09T12:52:10Z</time></trkpt><trkpt lat="42.47414241929173" lon="2.6752552432633867"><ele>213.99999999999997</ele><time>2026-04-09T12:52:11Z</time></trkpt><trkpt lat="42.474220549735165" lon="2.67531595787892"><ele>214.0</ele><time>2026-04-09T12:52:12Z</time></trkpt><trkpt lat="42.47430417641668" lon="2.6753631626898953"><ele>214.0</ele><time>2026-04-09T12:52:13Z</time></trkpt><trkpt lat="42.47439316240773" lon="2.6753917298394443"><ele>221.0</ele><time>2026-04-09T12:52:14Z</time></trkpt><trkpt lat="42.474487639470226" lon="2.675408773029426"><ele>227.99999999999997</ele><time>2026-04-09T12:52:15Z</time></trkpt><trkpt lat="42.47458971307737" lon="2.675425389413725"><ele>234.99999999999997</ele><time>2026-04-09T12:52:16Z</time></trkpt><trkpt lat="42.47468997536015" lon="2.675438913483182"><ele>242.0</ele><time>2026-04-09T12:52:17Z</time></trkpt><trkpt lat="42.47478677683776" lon="2.6754501124507484"><ele>249.0</ele><time>2026-04-09T12:52:18Z</time></trkpt><trkpt lat="42.474884441364715" lon="2.675460191786535"><ele>249.0</ele><time>2026-04-09T12:52:19Z</time></trkpt><trkpt lat="42.474974804202645" lon="2.6754205398987865"><ele>248.99999999999997</ele><time>2026-04-09T12:52:20Z</time></trkpt><trkpt lat="42.475063558246234" lon="2.6753581844234344"><ele>248.99999999999997</ele><time>2026-04-09T12:52:21Z</time></trkpt><trkpt lat="42.47516243410142" lon="2.675296744167541"><ele>249.0</ele><time>2026-04-09T12:52:22Z</time></trkpt><trkpt lat="42.47526317870065" lon="2.6752349050551825"><ele>249.0</ele><time>2026-04-09T12:52:23Z</time></trkpt><trkpt lat="42.47536702813136" lon="2.6751772713136335"><ele>243.0</ele><time>2026-04-09T12:52:24Z</time></trkpt><trkpt lat="42.47546985208702" lon="2.675121472954179"><ele>236.99999999999997</ele><time>2026-04-09T12:52:25Z</time></trkpt><trkpt lat="42.47556985578547" lon="2.675065592033846"><ele>230.99999999999997</ele><time>2026-04-09T12:52:26Z</time></trkpt><trkpt lat="42.4756735078645" lon="2.6750091727145024"><ele>225.0</ele><time>2026-04-09T12:52:27Z</time></trkpt><trkpt lat="42.475771592194974" lon="2.6749582737613076"><ele>219.0</ele><time>2026-04-09T12:52:28Z</time></trkpt><trkpt lat="42.475847946787944" lon="2.674921280024912"><ele>219.0</ele><time>2026-04-09T12:52:29Z</time></trkpt><trkpt lat="42.47596533787163" lon="2.6748626191317078"><ele>219.0</ele><time>2026-04-09T12:52:31Z</time></trkpt><trkpt lat="42.47603275035648" lon="2.674827200118824"><ele>219.0</ele><time>2026-04-09T12:52:32Z</time></trkpt><trkpt lat="42.47610643980206" lon="2.6747870431336325"><ele>219.0</ele><time>2026-04-09T12:52:33Z</time></trkpt><trkpt lat="42.47618536130005" lon="2.674743680829668"><ele>219.0</ele><time>2026-04-09T12:52:34Z</time></trkpt><trkpt lat="42.47626386121057" lon="2.674702058617116"><ele>219.0</ele><time>2026-04-09T12:52:35Z</time></trkpt><trkpt lat="42.47634422704539" lon="2.6746602457060265"><ele>217.6</ele><time>2026-04-09T12:52:36Z</time></trkpt><trkpt lat="42.476426161917345" lon="2.6746179941523014"><ele>216.2</ele><time>2026-04-09T12:52:37Z</time></trkpt><trkpt lat="42.47650809677361" lon="2.674564800090696"><ele>214.79999999999998</ele><time>2026-04-09T12:52:38Z</time></trkpt><trkpt lat="42.476588399834455" lon="2.6745001264037254"><ele>213.39999999999998</ele><time>2026-04-09T12:52:39Z</time></trkpt><trkpt lat="42.47667220123836" lon="2.6744308935208885"><ele>212.0</ele><time>2026-04-09T12:52:40Z</time></trkpt><trkpt lat="42.47675569185148" lon="2.6743589959221983"><ele>212.0</ele><time>2026-04-09T12:52:41Z</time></trkpt><trkpt lat="42.47684330525399" lon="2.6742930059610197"><ele>212.0</ele><time>2026-04-09T12:52:42Z</time></trkpt><trkpt lat="42.476934311156946" lon="2.6742438929286885"><ele>212.0</ele><time>2026-04-09T12:52:43Z</time></trkpt><trkpt lat="42.47702790329289" lon="2.67420914609659"><ele>212.0</ele><time>2026-04-09T12:52:44Z</time></trkpt><trkpt lat="42.47712971088949" lon="2.6741674950279504"><ele>212.0</ele><time>2026-04-09T12:52:45Z</time></trkpt><trkpt lat="42.47722992771866" lon="2.6741179615449147"><ele>212.39999999999998</ele><time>2026-04-09T12:52:46Z</time></trkpt><trkpt lat="42.47732786218104" lon="2.674058920975911"><ele>212.79999999999998</ele><time>2026-04-09T12:52:47Z</time></trkpt><trkpt lat="42.47742612210536" lon="2.673998444286852"><ele>213.2</ele><time>2026-04-09T12:52:48Z</time></trkpt><trkpt lat="42.47752103084407" lon="2.6739386866303563"><ele>213.6</ele><time>2026-04-09T12:52:49Z</time></trkpt><trkpt lat="42.47761465100392" lon="2.673882609214243"><ele>214.0</ele><time>2026-04-09T12:52:50Z</time></trkpt><trkpt lat="42.477708180283" lon="2.6738279684965893"><ele>214.0</ele><time>2026-04-09T12:52:51Z</time></trkpt><trkpt lat="42.47780434504729" lon="2.673780117844183"><ele>213.99999999999997</ele><time>2026-04-09T12:52:52Z</time></trkpt><trkpt lat="42.47790288183772" lon="2.673753232473283"><ele>213.99999999999997</ele><time>2026-04-09T12:52:53Z</time></trkpt><trkpt lat="42.4780051537676" lon="2.6737569578280587"><ele>214.0</ele><time>2026-04-09T12:52:54Z</time></trkpt><trkpt lat="42.47810218433778" lon="2.6737906192380403"><ele>214.0</ele><time>2026-04-09T12:52:55Z</time></trkpt><trkpt lat="42.47819957823012" lon="2.6738424618197816"><ele>213.79999999999998</ele><time>2026-04-09T12:52:56Z</time></trkpt><trkpt lat="42.47829432676355" lon="2.6739062037631713"><ele>213.59999999999997</ele><time>2026-04-09T12:52:57Z</time></trkpt><trkpt lat="42.47838301263546" lon="2.673968904732477"><ele>213.4</ele><time>2026-04-09T12:52:58Z</time></trkpt><trkpt lat="42.478466252496574" lon="2.6740295073417517"><ele>213.2</ele><time>2026-04-09T12:52:59Z</time></trkpt><trkpt lat="42.47854607492684" lon="2.6740874845569675"><ele>213.0</ele><time>2026-04-09T12:53:00Z</time></trkpt><trkpt lat="42.47861762050722" lon="2.674135398816577"><ele>213.0</ele><time>2026-04-09T12:53:01Z</time></trkpt><trkpt lat="42.47867647743121" lon="2.674174567738111"><ele>213.0</ele><time>2026-04-09T12:53:02Z</time></trkpt><trkpt lat="42.47873969319211" lon="2.6742222206353703"><ele>213.0</ele><time>2026-04-09T12:53:03Z</time></trkpt><trkpt lat="42.478808175229474" lon="2.6742762203007593"><ele>213.0</ele><time>2026-04-09T12:53:04Z</time></trkpt><trkpt lat="42.47888159868415" lon="2.6743317911826376"><ele>213.0</ele><time>2026-04-09T12:53:05Z</time></trkpt><trkpt lat="42.47895926816008" lon="2.67438888913413"><ele>213.0</ele><time>2026-04-09T12:53:06Z</time></trkpt><trkpt lat="42.479038630187254" lon="2.6744439420194377"><ele>213.8</ele><time>2026-04-09T12:53:07Z</time></trkpt><trkpt lat="42.479124475084284" lon="2.6745066129705877"><ele>214.60000000000002</ele><time>2026-04-09T12:53:08Z</time></trkpt><trkpt lat="42.47921338861297" lon="2.6745716573695453"><ele>215.39999999999998</ele><time>2026-04-09T12:53:09Z</time></trkpt><trkpt lat="42.47930243922122" lon="2.6746335637386456"><ele>216.2</ele><time>2026-04-09T12:53:10Z</time></trkpt><trkpt lat="42.47938837750949" lon="2.6746950333767336"><ele>217.0</ele><time>2026-04-09T12:53:11Z</time></trkpt><trkpt lat="42.47946953543168" lon="2.674756365725401"><ele>217.0</ele><time>2026-04-09T12:53:12Z</time></trkpt><trkpt lat="42.47955395623209" lon="2.674817280671622"><ele>217.0</ele><time>2026-04-09T12:53:13Z</time></trkpt><trkpt lat="42.47963029105645" lon="2.6748762799485544"><ele>217.0</ele><time>2026-04-09T12:53:14Z</time></trkpt><trkpt lat="42.479709118225045" lon="2.6749333608021937"><ele>217.0</ele><time>2026-04-09T12:53:15Z</time></trkpt><trkpt lat="42.47978625176108" lon="2.674991285147814"><ele>217.0</ele><time>2026-04-09T12:53:16Z</time></trkpt><trkpt lat="42.47986328772231" lon="2.6750515867162385"><ele>217.16666666666666</ele><time>2026-04-09T12:53:17Z</time></trkpt><trkpt lat="42.479931615810266" lon="2.675121091730988"><ele>217.33333333333331</ele><time>2026-04-09T12:53:18Z</time></trkpt><trkpt lat="42.47999471244144" lon="2.675203228857758"><ele>217.5</ele><time>2026-04-09T12:53:19Z</time></trkpt><trkpt lat="42.48005119138916" lon="2.675293066175047"><ele>217.66666666666669</ele><time>2026-04-09T12:53:20Z</time></trkpt><trkpt lat="42.48010365607269" lon="2.675385761329387"><ele>217.83333333333334</ele><time>2026-04-09T12:53:21Z</time></trkpt><trkpt lat="42.48015302281164" lon="2.6754704082355656"><ele>218.0</ele><time>2026-04-09T12:53:22Z</time></trkpt><trkpt lat="42.48020370179844" lon="2.6755552338896824"><ele>218.0</ele><time>2026-04-09T12:53:23.001Z</time></trkpt><trkpt lat="42.48025891571607" lon="2.675647058421082"><ele>218.0</ele><time>2026-04-09T12:53:24.001Z</time></trkpt><trkpt lat="42.48031791682056" lon="2.6757462544009463"><ele>218.0</ele><time>2026-04-09T12:53:25.001Z</time></trkpt><trkpt lat="42.48037998968173" lon="2.675852314049762"><ele>218.0</ele><time>2026-04-09T12:53:26.001Z</time></trkpt><trkpt lat="42.48044374549708" lon="2.6759660706223576"><ele>218.0</ele><time>2026-04-09T12:53:27.001Z</time></trkpt><trkpt lat="42.48050885176654" lon="2.676082612060817"><ele>216.60000000000002</ele><time>2026-04-09T12:53:28.001Z</time></trkpt><trkpt lat="42.48057503294719" lon="2.676196782231244"><ele>215.20000000000002</ele><time>2026-04-09T12:53:29.001Z</time></trkpt><trkpt lat="42.480644080881305" lon="2.6763095389942073"><ele>213.8</ele><time>2026-04-09T12:53:30.001Z</time></trkpt><trkpt lat="42.480711094512706" lon="2.6764163363676245"><ele>212.4</ele><time>2026-04-09T12:53:31.001Z</time></trkpt><trkpt lat="42.480772595964375" lon="2.676522891645559"><ele>211.0</ele><time>2026-04-09T12:53:32.001Z</time></trkpt><trkpt lat="42.48083307398537" lon="2.676631872733448"><ele>211.0</ele><time>2026-04-09T12:53:33.001Z</time></trkpt><trkpt lat="42.48088163163359" lon="2.676747732264446"><ele>211.0</ele><time>2026-04-09T12:53:34.001Z</time></trkpt><trkpt lat="42.48092043532558" lon="2.6768696112246078"><ele>211.0</ele><time>2026-04-09T12:53:35.001Z</time></trkpt><trkpt lat="42.480954691762534" lon="2.6769934606654147"><ele>211.0</ele><time>2026-04-09T12:53:36.001Z</time></trkpt><trkpt lat="42.480987153693434" lon="2.677116588793383"><ele>211.0</ele><time>2026-04-09T12:53:37.001Z</time></trkpt><trkpt lat="42.48101698903429" lon="2.6772414469458456"><ele>211.60000000000002</ele><time>2026-04-09T12:53:38.001Z</time></trkpt><trkpt lat="42.48104492188912" lon="2.6773775688686214"><ele>212.2</ele><time>2026-04-09T12:53:39.001Z</time></trkpt><trkpt lat="42.48107078483036" lon="2.677510706285815"><ele>212.79999999999998</ele><time>2026-04-09T12:53:40.001Z</time></trkpt><trkpt lat="42.4810957298915" lon="2.6776414311981585"><ele>213.39999999999998</ele><time>2026-04-09T12:53:41.001Z</time></trkpt><trkpt lat="42.48111732157318" lon="2.6777650545899787"><ele>214.0</ele><time>2026-04-09T12:53:42.001Z</time></trkpt><trkpt lat="42.48113555948323" lon="2.6778781774716087"><ele>214.33333333333331</ele><time>2026-04-09T12:53:43.001Z</time></trkpt><trkpt lat="42.48115336712967" lon="2.6779768869247538"><ele>214.66666666666666</ele><time>2026-04-09T12:53:44.001Z</time></trkpt><trkpt lat="42.48116245079914" lon="2.6780614261305598"><ele>215.0</ele><time>2026-04-09T12:53:45.001Z</time></trkpt><trkpt lat="42.48115901303084" lon="2.6782146783227345"><ele>215.33333333333331</ele><time>2026-04-09T12:53:47.001Z</time></trkpt><trkpt lat="42.48121870145535" lon="2.678345541685232"><ele>215.66666666666666</ele><time>2026-04-09T12:53:49.001Z</time></trkpt><trkpt lat="42.4812598500167" lon="2.678412805693322"><ele>216.0</ele><time>2026-04-09T12:53:50.001Z</time></trkpt><trkpt lat="42.48129322497994" lon="2.6785005224725835"><ele>214.60000000000002</ele><time>2026-04-09T12:53:51.001Z</time></trkpt><trkpt lat="42.481328053891836" lon="2.67859813593639"><ele>213.20000000000002</ele><time>2026-04-09T12:53:52.001Z</time></trkpt><trkpt lat="42.481364595367864" lon="2.6787066447033476"><ele>211.8</ele><time>2026-04-09T12:53:53.001Z</time></trkpt><trkpt lat="42.48140543529216" lon="2.678827350562075"><ele>210.39999999999998</ele><time>2026-04-09T12:53:54.001Z</time></trkpt><trkpt lat="42.48145008158296" lon="2.67895970585559"><ele>209.0</ele><time>2026-04-09T12:53:55.001Z</time></trkpt><trkpt lat="42.48149946589352" lon="2.679101939854307"><ele>209.0</ele><time>2026-04-09T12:53:56.001Z</time></trkpt><trkpt lat="42.48154978683577" lon="2.679253996521119"><ele>209.0</ele><time>2026-04-09T12:53:57.001Z</time></trkpt><trkpt lat="42.481599812514" lon="2.6794181832889605"><ele>209.0</ele><time>2026-04-09T12:53:58.001Z</time></trkpt><trkpt lat="42.481646667277964" lon="2.6795803936561966"><ele>209.0</ele><time>2026-04-09T12:53:59.001Z</time></trkpt><trkpt lat="42.48169044108893" lon="2.6797441254020304"><ele>208.75</ele><time>2026-04-09T12:54:00.001Z</time></trkpt><trkpt lat="42.481732707414025" lon="2.6799040096416022"><ele>208.5</ele><time>2026-04-09T12:54:01.001Z</time></trkpt><trkpt lat="42.48177765253134" lon="2.6800615605402998"><ele>208.25</ele><time>2026-04-09T12:54:02.001Z</time></trkpt><trkpt lat="42.48182488212393" lon="2.680218651105096"><ele>208.0</ele><time>2026-04-09T12:54:03.001Z</time></trkpt><trkpt lat="42.481870988932904" lon="2.680376919426978"><ele>208.0</ele><time>2026-04-09T12:54:04.001Z</time></trkpt><trkpt lat="42.481913773572046" lon="2.6805296753159014"><ele>208.0</ele><time>2026-04-09T12:54:05.001Z</time></trkpt><trkpt lat="42.48195395380331" lon="2.6806768901704654"><ele>208.0</ele><time>2026-04-09T12:54:06.001Z</time></trkpt><trkpt lat="42.48199777814379" lon="2.6808263299771022"><ele>208.0</ele><time>2026-04-09T12:54:07.001Z</time></trkpt><trkpt lat="42.4820401981293" lon="2.6809787008891095"><ele>208.5</ele><time>2026-04-09T12:54:08.001Z</time></trkpt><trkpt lat="42.48208131411547" lon="2.6811317264023478"><ele>209.0</ele><time>2026-04-09T12:54:09.001Z</time></trkpt><trkpt lat="42.482123255043774" lon="2.681280106175272"><ele>209.5</ele><time>2026-04-09T12:54:10.001Z</time></trkpt><trkpt lat="42.48215701826816" lon="2.6814294422208556"><ele>210.0</ele><time>2026-04-09T12:54:11.001Z</time></trkpt><trkpt lat="42.482175640521355" lon="2.681580362378816"><ele>208.0</ele><time>2026-04-09T12:54:12.001Z</time></trkpt><trkpt lat="42.48218007118944" lon="2.681731346119087"><ele>206.0</ele><time>2026-04-09T12:54:13.001Z</time></trkpt><trkpt lat="42.482167113450195" lon="2.681882369124018"><ele>204.0</ele><time>2026-04-09T12:54:14.001Z</time></trkpt><trkpt lat="42.48214867301539" lon="2.6820352532140923"><ele>202.0</ele><time>2026-04-09T12:54:15.001Z</time></trkpt><trkpt lat="42.482130819311905" lon="2.6821904199409934"><ele>201.5</ele><time>2026-04-09T12:54:16.001Z</time></trkpt><trkpt lat="42.48211611655774" lon="2.6823442932335024"><ele>201.0</ele><time>2026-04-09T12:54:17.001Z</time></trkpt><trkpt lat="42.48209946092024" lon="2.6824930830111273"><ele>200.5</ele><time>2026-04-09T12:54:18.001Z</time></trkpt><trkpt lat="42.482086360462795" lon="2.68264431513174"><ele>200.0</ele><time>2026-04-09T12:54:19.001Z</time></trkpt><trkpt lat="42.48207298404311" lon="2.6827969132645997"><ele>202.5</ele><time>2026-04-09T12:54:20.001Z</time></trkpt><trkpt lat="42.48205843884399" lon="2.682951458737572"><ele>205.0</ele><time>2026-04-09T12:54:21.001Z</time></trkpt><trkpt lat="42.48204409371393" lon="2.6831051553705523"><ele>207.5</ele><time>2026-04-09T12:54:22.001Z</time></trkpt><trkpt lat="42.48203175464252" lon="2.683264102963848"><ele>210.0</ele><time>2026-04-09T12:54:23.001Z</time></trkpt><trkpt lat="42.482008699784565" lon="2.6834218537297123"><ele>210.0</ele><time>2026-04-09T12:54:24.001Z</time></trkpt><trkpt lat="42.48198985132305" lon="2.6835902666518865"><ele>210.0</ele><time>2026-04-09T12:54:25.001Z</time></trkpt><trkpt lat="42.48196774586761" lon="2.6837585475483623"><ele>210.0</ele><time>2026-04-09T12:54:26.001Z</time></trkpt><trkpt lat="42.48194678322424" lon="2.6839217027956583"><ele>210.0</ele><time>2026-04-09T12:54:27.001Z</time></trkpt><trkpt lat="42.48192626627057" lon="2.6840794646992783"><ele>209.75</ele><time>2026-04-09T12:54:28.001Z</time></trkpt><trkpt lat="42.4819071311804" lon="2.6842393423554034"><ele>209.5</ele><time>2026-04-09T12:54:29.001Z</time></trkpt><trkpt lat="42.481894269081884" lon="2.6843995418524655"><ele>209.25</ele><time>2026-04-09T12:54:30.001Z</time></trkpt><trkpt lat="42.48189896635397" lon="2.6845652581840285"><ele>209.0</ele><time>2026-04-09T12:54:31.001Z</time></trkpt><trkpt lat="42.48192979418894" lon="2.6847258127708233"><ele>208.75</ele><time>2026-04-09T12:54:32.001Z</time></trkpt><trkpt lat="42.48197536723659" lon="2.684878901269141"><ele>208.5</ele><time>2026-04-09T12:54:33.001Z</time></trkpt><trkpt lat="42.48202020627621" lon="2.6850322484947835"><ele>208.25</ele><time>2026-04-09T12:54:34.001Z</time></trkpt><trkpt lat="42.48206416065383" lon="2.685187252618137"><ele>208.0</ele><time>2026-04-09T12:54:35.001Z</time></trkpt><trkpt lat="42.482106528074446" lon="2.6853445762025263"><ele>204.5</ele><time>2026-04-09T12:54:36.001Z</time></trkpt><trkpt lat="42.482149086743185" lon="2.6854990582592926"><ele>201.0</ele><time>2026-04-09T12:54:37.001Z</time></trkpt><trkpt lat="42.48219171689067" lon="2.6856556877860362"><ele>197.5</ele><time>2026-04-09T12:54:38.001Z</time></trkpt><trkpt lat="42.4822323138222" lon="2.685810660291638"><ele>194.0</ele><time>2026-04-09T12:54:39.001Z</time></trkpt><trkpt lat="42.48227611177048" lon="2.6859657185004244"><ele>193.79999999999998</ele><time>2026-04-09T12:54:40.001Z</time></trkpt><trkpt lat="42.48231859750534" lon="2.6861205593122817"><ele>193.6</ele><time>2026-04-09T12:54:41.001Z</time></trkpt><trkpt lat="42.48235835393774" lon="2.686263859414601"><ele>193.4</ele><time>2026-04-09T12:54:42.001Z</time></trkpt><trkpt lat="42.48239368203802" lon="2.6863936591291466"><ele>193.2</ele><time>2026-04-09T12:54:43.001Z</time></trkpt><trkpt lat="42.48242543300616" lon="2.686515664092231"><ele>193.0</ele><time>2026-04-09T12:54:44.001Z</time></trkpt><trkpt lat="42.48244915128558" lon="2.686633830586635"><ele>192.99999999999997</ele><time>2026-04-09T12:54:45.001Z</time></trkpt><trkpt lat="42.482470433226034" lon="2.6867434475728245"><ele>193.0</ele><time>2026-04-09T12:54:46.001Z</time></trkpt><trkpt lat="42.48248984001837" lon="2.68683887139685"><ele>193.0</ele><time>2026-04-09T12:54:47.001Z</time></trkpt><trkpt lat="42.48250622795524" lon="2.6869274514818033"><ele>193.0</ele><time>2026-04-09T12:54:48.001Z</time></trkpt><trkpt lat="42.48252008882855" lon="2.687011981235944"><ele>192.99999999999997</ele><time>2026-04-09T12:54:49.001Z</time></trkpt><trkpt lat="42.48250132991104" lon="2.6871637061533478"><ele>193.0</ele><time>2026-04-09T12:54:51.001Z</time></trkpt><trkpt lat="42.48254184702933" lon="2.6872932317338547"><ele>194.2</ele><time>2026-04-09T12:54:53.001Z</time></trkpt><trkpt lat="42.482603481346416" lon="2.6873464751400924"><ele>195.4</ele><time>2026-04-09T12:54:54.001Z</time></trkpt><trkpt lat="42.482663387056675" lon="2.6874103530700757"><ele>196.6</ele><time>2026-04-09T12:54:55.001Z</time></trkpt><trkpt lat="42.48272792069022" lon="2.687491795602898"><ele>197.79999999999998</ele><time>2026-04-09T12:54:56.001Z</time></trkpt><trkpt lat="42.482800188684884" lon="2.687589405946733"><ele>199.0</ele><time>2026-04-09T12:54:57.001Z</time></trkpt><trkpt lat="42.482875909041574" lon="2.68770155892483"><ele>197.25</ele><time>2026-04-09T12:54:58.001Z</time></trkpt><trkpt lat="42.48295557054186" lon="2.687826037882537"><ele>195.5</ele><time>2026-04-09T12:54:59.001Z</time></trkpt><trkpt lat="42.483034157143635" lon="2.687954317781733"><ele>193.75</ele><time>2026-04-09T12:55:00.001Z</time></trkpt><trkpt lat="42.48311602978496" lon="2.6880883532529434"><ele>192.0</ele><time>2026-04-09T12:55:01.001Z</time></trkpt><trkpt lat="42.483195735095784" lon="2.688225756834562"><ele>192.0</ele><time>2026-04-09T12:55:02.001Z</time></trkpt><trkpt lat="42.48327546232604" lon="2.6883642590363763"><ele>192.0</ele><time>2026-04-09T12:55:03.001Z</time></trkpt><trkpt lat="42.48334742683889" lon="2.6885055603967163"><ele>192.0</ele><time>2026-04-09T12:55:04.001Z</time></trkpt><trkpt lat="42.48340186226832" lon="2.6886585698727243"><ele>192.0</ele><time>2026-04-09T12:55:05.001Z</time></trkpt><trkpt lat="42.483441892485885" lon="2.6888131675729836"><ele>193.0</ele><time>2026-04-09T12:55:06.001Z</time></trkpt><trkpt lat="42.483470958969015" lon="2.688967881248775"><ele>194.0</ele><time>2026-04-09T12:55:07.001Z</time></trkpt><trkpt lat="42.48349797676686" lon="2.6891267558622864"><ele>195.0</ele><time>2026-04-09T12:55:08.001Z</time></trkpt><trkpt lat="42.483522744538185" lon="2.689287702778206"><ele>196.0</ele><time>2026-04-09T12:55:09.001Z</time></trkpt><trkpt lat="42.48355639335973" lon="2.6894434877341484"><ele>196.20000000000002</ele><time>2026-04-09T12:55:10.001Z</time></trkpt><trkpt lat="42.48358605605759" lon="2.689598284651515"><ele>196.4</ele><time>2026-04-09T12:55:11.001Z</time></trkpt><trkpt lat="42.483617253563914" lon="2.6897461086567107"><ele>196.6</ele><time>2026-04-09T12:55:12.001Z</time></trkpt><trkpt lat="42.4836491566854" lon="2.6898853229834234"><ele>196.8</ele><time>2026-04-09T12:55:13.001Z</time></trkpt><trkpt lat="42.483676407201294" lon="2.690012371286262"><ele>197.0</ele><time>2026-04-09T12:55:14.001Z</time></trkpt><trkpt lat="42.48369814513124" lon="2.69012751391629"><ele>197.00000000000003</ele><time>2026-04-09T12:55:15.001Z</time></trkpt><trkpt lat="42.48371836727445" lon="2.690231601780869"><ele>197.0</ele><time>2026-04-09T12:55:16.001Z</time></trkpt><trkpt lat="42.483735676913334" lon="2.69033060814386"><ele>197.0</ele><time>2026-04-09T12:55:17.001Z</time></trkpt><trkpt lat="42.483750995203636" lon="2.690420339787024"><ele>197.0</ele><time>2026-04-09T12:55:18.001Z</time></trkpt><trkpt lat="42.48377567450066" lon="2.6905659384268565"><ele>197.00000000000003</ele><time>2026-04-09T12:55:20.001Z</time></trkpt><trkpt lat="42.48379620772094" lon="2.690690303070223"><ele>197.0</ele><time>2026-04-09T12:55:22.001Z</time></trkpt><trkpt lat="42.483813509259825" lon="2.6908162411898524"><ele>195.00000000000003</ele><time>2026-04-09T12:55:24.001Z</time></trkpt><trkpt lat="42.48383508503404" lon="2.6909659222847653"><ele>193.0</ele><time>2026-04-09T12:55:26.001Z</time></trkpt><trkpt lat="42.48384896191681" lon="2.6910595068471657"><ele>191.0</ele><time>2026-04-09T12:55:27.001Z</time></trkpt><trkpt lat="42.48386498287066" lon="2.6911641864834372"><ele>189.0</ele><time>2026-04-09T12:55:28.001Z</time></trkpt><trkpt lat="42.48388232511106" lon="2.691276656967676"><ele>187.0</ele><time>2026-04-09T12:55:29.001Z</time></trkpt><trkpt lat="42.48390218405063" lon="2.6913989319386022"><ele>185.0</ele><time>2026-04-09T12:55:30.001Z</time></trkpt><trkpt lat="42.483924612443616" lon="2.6915244273843393"><ele>185.0</ele><time>2026-04-09T12:55:31.001Z</time></trkpt><trkpt lat="42.48394526097214" lon="2.6916502270522926"><ele>185.0</ele><time>2026-04-09T12:55:32.001Z</time></trkpt><trkpt lat="42.48396526604569" lon="2.6917750359464923"><ele>185.0</ele><time>2026-04-09T12:55:33.001Z</time></trkpt><trkpt lat="42.48398323301802" lon="2.6918938930695457"><ele>185.0</ele><time>2026-04-09T12:55:34.001Z</time></trkpt><trkpt lat="42.48400213297455" lon="2.6920120015682043"><ele>185.0</ele><time>2026-04-09T12:55:35.001Z</time></trkpt><trkpt lat="42.484018721808006" lon="2.6921355813511516"><ele>184.8</ele><time>2026-04-09T12:55:36.001Z</time></trkpt><trkpt lat="42.484037039093636" lon="2.6922538333200676"><ele>184.6</ele><time>2026-04-09T12:55:37.001Z</time></trkpt><trkpt lat="42.48405458582505" lon="2.692377967654625"><ele>184.39999999999998</ele><time>2026-04-09T12:55:38.001Z</time></trkpt><trkpt lat="42.484071692845255" lon="2.6925070316821063"><ele>184.2</ele><time>2026-04-09T12:55:39.001Z</time></trkpt><trkpt lat="42.48408672545741" lon="2.6926318453941516"><ele>184.0</ele><time>2026-04-09T12:55:40.001Z</time></trkpt><trkpt lat="42.48410160366646" lon="2.6927562518417587"><ele>183.79999999999998</ele><time>2026-04-09T12:55:41.001Z</time></trkpt><trkpt lat="42.48411284622205" lon="2.6928812163415516"><ele>183.6</ele><time>2026-04-09T12:55:42.001Z</time></trkpt><trkpt lat="42.48412419757466" lon="2.693006829368648"><ele>183.4</ele><time>2026-04-09T12:55:43.001Z</time></trkpt><trkpt lat="42.484133268832416" lon="2.6931307577350085"><ele>183.2</ele><time>2026-04-09T12:55:44.001Z</time></trkpt><trkpt lat="42.484141835257745" lon="2.6932479028819456"><ele>183.0</ele><time>2026-04-09T12:55:45.001Z</time></trkpt><trkpt lat="42.4841490235039" lon="2.6933645781714928"><ele>183.0</ele><time>2026-04-09T12:55:46.001Z</time></trkpt><trkpt lat="42.4841561441097" lon="2.6934765774974565"><ele>183.0</ele><time>2026-04-09T12:55:47.001Z</time></trkpt><trkpt lat="42.484160987268744" lon="2.693595149271613"><ele>183.0</ele><time>2026-04-09T12:55:48.001Z</time></trkpt><trkpt lat="42.4841666976442" lon="2.6937230415484676"><ele>183.0</ele><time>2026-04-09T12:55:49.001Z</time></trkpt><trkpt lat="42.48417284185957" lon="2.6938562010578164"><ele>183.0</ele><time>2026-04-09T12:55:50.001Z</time></trkpt><trkpt lat="42.484179785979066" lon="2.6939956624228043"><ele>183.0</ele><time>2026-04-09T12:55:51.001Z</time></trkpt><trkpt lat="42.48418668591538" lon="2.6941404942127343"><ele>183.0</ele><time>2026-04-09T12:55:52.001Z</time></trkpt><trkpt lat="42.484193576963925" lon="2.694290580816524"><ele>183.0</ele><time>2026-04-09T12:55:53.001Z</time></trkpt><trkpt lat="42.4842013454555" lon="2.6944432059797414"><ele>183.0</ele><time>2026-04-09T12:55:54.001Z</time></trkpt><trkpt lat="42.484207910589284" lon="2.694592938219406"><ele>183.0</ele><time>2026-04-09T12:55:55.001Z</time></trkpt><trkpt lat="42.48421593545612" lon="2.6947404433804443"><ele>183.0</ele><time>2026-04-09T12:55:56.001Z</time></trkpt><trkpt lat="42.48422238025351" lon="2.694880740985654"><ele>183.0</ele><time>2026-04-09T12:55:57.001Z</time></trkpt><trkpt lat="42.48422875245666" lon="2.6950133691979263"><ele>183.0</ele><time>2026-04-09T12:55:58.001Z</time></trkpt><trkpt lat="42.4842345479419" lon="2.695143782190429"><ele>183.0</ele><time>2026-04-09T12:55:59.001Z</time></trkpt><trkpt lat="42.48424192528523" lon="2.6952757108527496"><ele>183.0</ele><time>2026-04-09T12:56:00.001Z</time></trkpt><trkpt lat="42.484249747960476" lon="2.695410932996964"><ele>182.8</ele><time>2026-04-09T12:56:01.001Z</time></trkpt><trkpt lat="42.48425782580791" lon="2.6955532897118974"><ele>182.60000000000002</ele><time>2026-04-09T12:56:02.001Z</time></trkpt><trkpt lat="42.48426808819898" lon="2.6956996855526034"><ele>182.39999999999998</ele><time>2026-04-09T12:56:03.001Z</time></trkpt><trkpt lat="42.4842753721553" lon="2.695849986890551"><ele>182.2</ele><time>2026-04-09T12:56:04.001Z</time></trkpt><trkpt lat="42.484280448950834" lon="2.6959977841366425"><ele>182.0</ele><time>2026-04-09T12:56:05.001Z</time></trkpt><trkpt lat="42.484289123269754" lon="2.696141686606956"><ele>181.39999999999998</ele><time>2026-04-09T12:56:06.001Z</time></trkpt><trkpt lat="42.48429411249785" lon="2.696285882733198"><ele>180.79999999999998</ele><time>2026-04-09T12:56:07.001Z</time></trkpt><trkpt lat="42.48429777140401" lon="2.6964337409611643"><ele>180.2</ele><time>2026-04-09T12:56:08.001Z</time></trkpt><trkpt lat="42.48430787510311" lon="2.6965834353648557"><ele>179.6</ele><time>2026-04-09T12:56:09.001Z</time></trkpt><trkpt lat="42.48433301473594" lon="2.6967354466780593"><ele>179.0</ele><time>2026-04-09T12:56:10.001Z</time></trkpt><trkpt lat="42.484376545696435" lon="2.696882768608117"><ele>179.0</ele><time>2026-04-09T12:56:11.001Z</time></trkpt><trkpt lat="42.484433898505664" lon="2.6970170456579328"><ele>179.0</ele><time>2026-04-09T12:56:12.001Z</time></trkpt><trkpt lat="42.48450869732159" lon="2.697143918665112"><ele>179.0</ele><time>2026-04-09T12:56:13Z</time></trkpt><trkpt lat="42.48458442902457" lon="2.6972619727655265"><ele>179.0</ele><time>2026-04-09T12:56:14Z</time></trkpt><trkpt lat="42.48465482920482" lon="2.6973789150024428"><ele>179.0</ele><time>2026-04-09T12:56:15Z</time></trkpt><trkpt lat="42.484725634042555" lon="2.6974901244721625"><ele>179.0</ele><time>2026-04-09T12:56:16Z</time></trkpt><trkpt lat="42.48479591882709" lon="2.6975950563350235"><ele>179.0</ele><time>2026-04-09T12:56:17Z</time></trkpt><trkpt lat="42.484860571225774" lon="2.6976975441324313"><ele>179.0</ele><time>2026-04-09T12:56:18Z</time></trkpt><trkpt lat="42.48491983060917" lon="2.6977885170770683"><ele>179.0</ele><time>2026-04-09T12:56:19Z</time></trkpt><trkpt lat="42.484973686947285" lon="2.6978691257807035"><ele>179.14285714285717</ele><time>2026-04-09T12:56:20Z</time></trkpt><trkpt lat="42.485022007544416" lon="2.6979413627595425"><ele>179.28571428571428</ele><time>2026-04-09T12:56:21Z</time></trkpt><trkpt lat="42.48506973622113" lon="2.6980076448042722"><ele>179.42857142857144</ele><time>2026-04-09T12:56:22Z</time></trkpt><trkpt lat="42.485121332260576" lon="2.6980806363578917"><ele>179.57142857142858</ele><time>2026-04-09T12:56:23Z</time></trkpt><trkpt lat="42.48517229744524" lon="2.6981502401744004"><ele>179.71428571428572</ele><time>2026-04-09T12:56:24Z</time></trkpt><trkpt lat="42.48522662357222" lon="2.698221243156733"><ele>179.85714285714286</ele><time>2026-04-09T12:56:25Z</time></trkpt><trkpt lat="42.48528604335951" lon="2.6982967375367863"><ele>180.0</ele><time>2026-04-09T12:56:26Z</time></trkpt><trkpt lat="42.48534864990276" lon="2.698375512574671"><ele>180.0</ele><time>2026-04-09T12:56:27Z</time></trkpt><trkpt lat="42.48541776882785" lon="2.6984603019958247"><ele>180.0</ele><time>2026-04-09T12:56:28Z</time></trkpt><trkpt lat="42.48548841901966" lon="2.698549390706986"><ele>180.0</ele><time>2026-04-09T12:56:29Z</time></trkpt><trkpt lat="42.48556105458494" lon="2.6986420421252917"><ele>180.0</ele><time>2026-04-09T12:56:30Z</time></trkpt><trkpt lat="42.4856343863996" lon="2.698738756241354"><ele>180.0</ele><time>2026-04-09T12:56:31Z</time></trkpt><trkpt lat="42.48571095785128" lon="2.698838139810016"><ele>179.8</ele><time>2026-04-09T12:56:32Z</time></trkpt><trkpt lat="42.48578600206477" lon="2.698932049140747"><ele>179.6</ele><time>2026-04-09T12:56:33Z</time></trkpt><trkpt lat="42.48585877699183" lon="2.6990280065178314"><ele>179.39999999999998</ele><time>2026-04-09T12:56:34Z</time></trkpt><trkpt lat="42.48593219616941" lon="2.699120793859287"><ele>179.2</ele><time>2026-04-09T12:56:35Z</time></trkpt><trkpt lat="42.486009358086704" lon="2.6992148222587073"><ele>179.0</ele><time>2026-04-09T12:56:36Z</time></trkpt><trkpt lat="42.48609431092026" lon="2.699304096905991"><ele>179.0</ele><time>2026-04-09T12:56:37Z</time></trkpt><trkpt lat="42.48618918051544" lon="2.699387590716834"><ele>179.0</ele><time>2026-04-09T12:56:38Z</time></trkpt><trkpt lat="42.48629024852984" lon="2.699467504504101"><ele>179.0</ele><time>2026-04-09T12:56:39Z</time></trkpt><trkpt lat="42.48639443136536" lon="2.699546215484937"><ele>179.0</ele><time>2026-04-09T12:56:40Z</time></trkpt><trkpt lat="42.486499451000796" lon="2.6996295575568596"><ele>179.0</ele><time>2026-04-09T12:56:41Z</time></trkpt><trkpt lat="42.48660182648451" lon="2.699708604041087"><ele>179.0</ele><time>2026-04-09T12:56:42Z</time></trkpt><trkpt lat="42.486699029701875" lon="2.6997903740475824"><ele>179.0</ele><time>2026-04-09T12:56:43Z</time></trkpt><trkpt lat="42.4867940414091" lon="2.699875657201626"><ele>179.0</ele><time>2026-04-09T12:56:44Z</time></trkpt><trkpt lat="42.48688885907977" lon="2.6999636797587114"><ele>179.0</ele><time>2026-04-09T12:56:45Z</time></trkpt><trkpt lat="42.48697722612985" lon="2.7000541460840184"><ele>179.0</ele><time>2026-04-09T12:56:46Z</time></trkpt><trkpt lat="42.487060908137906" lon="2.700144798074175"><ele>179.0</ele><time>2026-04-09T12:56:47Z</time></trkpt><trkpt lat="42.487142896582064" lon="2.700236442550679"><ele>179.0</ele><time>2026-04-09T12:56:48Z</time></trkpt><trkpt lat="42.48722646398952" lon="2.70032759323938"><ele>179.0</ele><time>2026-04-09T12:56:49Z</time></trkpt><trkpt lat="42.48731674136121" lon="2.7004207759273964"><ele>179.0</ele><time>2026-04-09T12:56:50Z</time></trkpt><trkpt lat="42.48741587526516" lon="2.7005166816278545"><ele>179.0</ele><time>2026-04-09T12:56:51Z</time></trkpt><trkpt lat="42.487519510996954" lon="2.7006206962429453"><ele>179.0</ele><time>2026-04-09T12:56:52Z</time></trkpt><trkpt lat="42.487625933943974" lon="2.7007310722778204"><ele>179.0</ele><time>2026-04-09T12:56:53Z</time></trkpt><trkpt lat="42.4877364048564" lon="2.7008467582335007"><ele>179.0</ele><time>2026-04-09T12:56:54Z</time></trkpt><trkpt lat="42.48785372458889" lon="2.7009746659204215"><ele>179.0</ele><time>2026-04-09T12:56:55Z</time></trkpt><trkpt lat="42.487971605796865" lon="2.7011048117992886"><ele>179.0</ele><time>2026-04-09T12:56:56Z</time></trkpt><trkpt lat="42.48808731542194" lon="2.7012341924792387"><ele>178.5</ele><time>2026-04-09T12:56:57Z</time></trkpt><trkpt lat="42.488203223409585" lon="2.7013590660795797"><ele>178.0</ele><time>2026-04-09T12:56:58Z</time></trkpt><trkpt lat="42.48831642528812" lon="2.7014858514106788"><ele>177.5</ele><time>2026-04-09T12:56:59Z</time></trkpt><trkpt lat="42.48842853198541" lon="2.701609011462999"><ele>177.0</ele><time>2026-04-09T12:57:00Z</time></trkpt><trkpt lat="42.488539652007695" lon="2.7017321309623874"><ele>177.0</ele><time>2026-04-09T12:57:01Z</time></trkpt><trkpt lat="42.48865152169974" lon="2.701856701545946"><ele>177.0</ele><time>2026-04-09T12:57:02Z</time></trkpt><trkpt lat="42.48875987134737" lon="2.701980232601228"><ele>177.0</ele><time>2026-04-09T12:57:03Z</time></trkpt><trkpt lat="42.488866760249394" lon="2.702099285163414"><ele>177.0</ele><time>2026-04-09T12:57:04Z</time></trkpt><trkpt lat="42.48897521356313" lon="2.7022196801066243"><ele>177.5</ele><time>2026-04-09T12:57:05Z</time></trkpt><trkpt lat="42.48907879293603" lon="2.702335081196123"><ele>178.0</ele><time>2026-04-09T12:57:06Z</time></trkpt><trkpt lat="42.48918344577836" lon="2.702450532747824"><ele>178.5</ele><time>2026-04-09T12:57:07Z</time></trkpt><trkpt lat="42.489289873878704" lon="2.702564168318182"><ele>179.0</ele><time>2026-04-09T12:57:08Z</time></trkpt><trkpt lat="42.48939444465888" lon="2.702684763791336"><ele>180.5</ele><time>2026-04-09T12:57:09Z</time></trkpt><trkpt lat="42.48950483032284" lon="2.7028046495890385"><ele>182.0</ele><time>2026-04-09T12:57:10Z</time></trkpt><trkpt lat="42.48961456188978" lon="2.7029268376017983"><ele>183.5</ele><time>2026-04-09T12:57:11Z</time></trkpt><trkpt lat="42.48972770913513" lon="2.7030482339041315"><ele>185.0</ele><time>2026-04-09T12:57:12Z</time></trkpt><trkpt lat="42.48983664622328" lon="2.7031742894382993"><ele>185.0</ele><time>2026-04-09T12:57:13Z</time></trkpt><trkpt lat="42.48995529336459" lon="2.7032996250695946"><ele>185.0</ele><time>2026-04-09T12:57:14Z</time></trkpt><trkpt lat="42.490082984476224" lon="2.703425673151131"><ele>185.0</ele><time>2026-04-09T12:57:15Z</time></trkpt><trkpt lat="42.49021341188378" lon="2.7035474459844204"><ele>186.33333333333331</ele><time>2026-04-09T12:57:16Z</time></trkpt><trkpt lat="42.490343774669384" lon="2.703669364216737"><ele>187.66666666666666</ele><time>2026-04-09T12:57:17Z</time></trkpt><trkpt lat="42.490472716949235" lon="2.703786509461326"><ele>189.0</ele><time>2026-04-09T12:57:18Z</time></trkpt><trkpt lat="42.49059736801289" lon="2.7038990810038626"><ele>189.0</ele><time>2026-04-09T12:57:19Z</time></trkpt><trkpt lat="42.49071770229014" lon="2.704012132548763"><ele>189.0</ele><time>2026-04-09T12:57:20Z</time></trkpt><trkpt lat="42.49083783746415" lon="2.704120753002386"><ele>189.0</ele><time>2026-04-09T12:57:21Z</time></trkpt><trkpt lat="42.49095908373327" lon="2.70424255191219"><ele>189.0</ele><time>2026-04-09T12:57:22Z</time></trkpt><trkpt lat="42.491061549940184" lon="2.7043733155770138"><ele>187.75</ele><time>2026-04-09T12:57:23Z</time></trkpt><trkpt lat="42.491177580616814" lon="2.7044967790184113"><ele>186.5</ele><time>2026-04-09T12:57:24Z</time></trkpt><trkpt lat="42.49130414846994" lon="2.7045978275917686"><ele>185.25</ele><time>2026-04-09T12:57:25Z</time></trkpt><trkpt lat="42.49143233492142" lon="2.7046901288952085"><ele>184.0</ele><time>2026-04-09T12:57:26Z</time></trkpt><trkpt lat="42.491544568056725" lon="2.7048018400708904"><ele>184.0</ele><time>2026-04-09T12:57:27Z</time></trkpt><trkpt lat="42.491634391664675" lon="2.704944878908074"><ele>184.0</ele><time>2026-04-09T12:57:28Z</time></trkpt><trkpt lat="42.49172430282302" lon="2.705094179826628"><ele>184.0</ele><time>2026-04-09T12:57:29Z</time></trkpt><trkpt lat="42.491830305670156" lon="2.70522995230679"><ele>184.0</ele><time>2026-04-09T12:57:30Z</time></trkpt><trkpt lat="42.491952463359375" lon="2.7053261478829347"><ele>189.0</ele><time>2026-04-09T12:57:31Z</time></trkpt><trkpt lat="42.492078713479806" lon="2.7054036867194466"><ele>194.0</ele><time>2026-04-09T12:57:32Z</time></trkpt><trkpt lat="42.492193662213275" lon="2.7054772416062263"><ele>199.0</ele><time>2026-04-09T12:57:33Z</time></trkpt><trkpt lat="42.49231744571982" lon="2.7055372153845827"><ele>204.0</ele><time>2026-04-09T12:57:34Z</time></trkpt><trkpt lat="42.4924448586101" lon="2.7055555627513144"><ele>204.0</ele><time>2026-04-09T12:57:35Z</time></trkpt><trkpt lat="42.49258055236901" lon="2.7055399260256783"><ele>204.0</ele><time>2026-04-09T12:57:36Z</time></trkpt><trkpt lat="42.49271734874383" lon="2.7055166966200854"><ele>204.0</ele><time>2026-04-09T12:57:37Z</time></trkpt><trkpt lat="42.492865297640364" lon="2.7054913922676573"><ele>204.0</ele><time>2026-04-09T12:57:38Z</time></trkpt><trkpt lat="42.49300814526507" lon="2.7054656390657086"><ele>203.0</ele><time>2026-04-09T12:57:39Z</time></trkpt><trkpt lat="42.49314920952208" lon="2.7054420044241994"><ele>202.0</ele><time>2026-04-09T12:57:40Z</time></trkpt><trkpt lat="42.493289072799016" lon="2.7054121144264114"><ele>201.0</ele><time>2026-04-09T12:57:41Z</time></trkpt><trkpt lat="42.49343442278003" lon="2.705385091602058"><ele>200.0</ele><time>2026-04-09T12:57:42Z</time></trkpt><trkpt lat="42.493583478530304" lon="2.7053520194743768"><ele>200.0</ele><time>2026-04-09T12:57:43Z</time></trkpt><trkpt lat="42.493733422700785" lon="2.7053223700786257"><ele>200.0</ele><time>2026-04-09T12:57:44Z</time></trkpt><trkpt lat="42.49388278389806" lon="2.705285763506364"><ele>200.0</ele><time>2026-04-09T12:57:45Z</time></trkpt><trkpt lat="42.494029722103754" lon="2.7052561902004744"><ele>195.25</ele><time>2026-04-09T12:57:46Z</time></trkpt><trkpt lat="42.49417277004134" lon="2.7052192016481893"><ele>190.5</ele><time>2026-04-09T12:57:47Z</time></trkpt><trkpt lat="42.494318313914825" lon="2.705201814450001"><ele>185.75</ele><time>2026-04-09T12:57:48Z</time></trkpt><trkpt lat="42.49446614446753" lon="2.7052200654919636"><ele>181.0</ele><time>2026-04-09T12:57:49Z</time></trkpt><trkpt lat="42.49461386300151" lon="2.705257885025787"><ele>181.0</ele><time>2026-04-09T12:57:50Z</time></trkpt><trkpt lat="42.494760184882175" lon="2.7053136908223148"><ele>181.0</ele><time>2026-04-09T12:57:51Z</time></trkpt><trkpt lat="42.49490283253328" lon="2.7053821087218908"><ele>181.0</ele><time>2026-04-09T12:57:52Z</time></trkpt><trkpt lat="42.49504309927675" lon="2.7054551053221685"><ele>181.0</ele><time>2026-04-09T12:57:53Z</time></trkpt><trkpt lat="42.495182763381926" lon="2.7055365662786177"><ele>181.0</ele><time>2026-04-09T12:57:54Z</time></trkpt><trkpt lat="42.49531942465081" lon="2.7056331712691883"><ele>181.0</ele><time>2026-04-09T12:57:55Z</time></trkpt><trkpt lat="42.49545135789953" lon="2.7057417944559297"><ele>180.66666666666669</ele><time>2026-04-09T12:57:56Z</time></trkpt><trkpt lat="42.49557804366269" lon="2.7058719172467427"><ele>180.33333333333334</ele><time>2026-04-09T12:57:57Z</time></trkpt><trkpt lat="42.49569495512376" lon="2.7060248206613675"><ele>180.0</ele><time>2026-04-09T12:57:58Z</time></trkpt><trkpt lat="42.495793045698186" lon="2.706197095474986"><ele>180.0</ele><time>2026-04-09T12:57:59Z</time></trkpt><trkpt lat="42.49587332856136" lon="2.70638187858217"><ele>180.0</ele><time>2026-04-09T12:58:00Z</time></trkpt><trkpt lat="42.49592998325003" lon="2.7065805806052943"><ele>180.0</ele><time>2026-04-09T12:58:01Z</time></trkpt><trkpt lat="42.495962823146925" lon="2.706793227430778"><ele>179.66666666666666</ele><time>2026-04-09T12:58:02Z</time></trkpt><trkpt lat="42.49596964003432" lon="2.7070143271364024"><ele>179.33333333333331</ele><time>2026-04-09T12:58:03Z</time></trkpt><trkpt lat="42.49595594357828" lon="2.7072389647338886"><ele>179.0</ele><time>2026-04-09T12:58:04Z</time></trkpt><trkpt lat="42.49592357882811" lon="2.7074712637134453"><ele>179.0</ele><time>2026-04-09T12:58:05Z</time></trkpt><trkpt lat="42.495871592122505" lon="2.7077030640263793"><ele>179.0</ele><time>2026-04-09T12:58:06Z</time></trkpt><trkpt lat="42.49581907006508" lon="2.707934659343135"><ele>179.0</ele><time>2026-04-09T12:58:07Z</time></trkpt><trkpt lat="42.49576086282816" lon="2.70816972600173"><ele>177.33333333333331</ele><time>2026-04-09T12:58:08Z</time></trkpt><trkpt lat="42.49570314771211" lon="2.7083969389723883"><ele>175.66666666666666</ele><time>2026-04-09T12:58:09Z</time></trkpt><trkpt lat="42.495644971560814" lon="2.708627304057048"><ele>174.0</ele><time>2026-04-09T12:58:10Z</time></trkpt><trkpt lat="42.49558367872605" lon="2.7088551605647297"><ele>172.0</ele><time>2026-04-09T12:58:11Z</time></trkpt><trkpt lat="42.495523607922166" lon="2.7090857394380365"><ele>170.0</ele><time>2026-04-09T12:58:12Z</time></trkpt><trkpt lat="42.49546424513954" lon="2.709313355268665"><ele>168.0</ele><time>2026-04-09T12:58:13Z</time></trkpt><trkpt lat="42.49540409700809" lon="2.709545072931977"><ele>173.33333333333334</ele><time>2026-04-09T12:58:14Z</time></trkpt><trkpt lat="42.495343834220876" lon="2.7097734064670935"><ele>178.66666666666669</ele><time>2026-04-09T12:58:15Z</time></trkpt><trkpt lat="42.495286231778586" lon="2.709994535646002"><ele>184.0</ele><time>2026-04-09T12:58:16Z</time></trkpt><trkpt lat="42.495224612292894" lon="2.710218968627801"><ele>180.0</ele><time>2026-04-09T12:58:17Z</time></trkpt><trkpt lat="42.49515975413831" lon="2.710443404925936"><ele>176.0</ele><time>2026-04-09T12:58:18Z</time></trkpt><trkpt lat="42.49509619849859" lon="2.7106639561871004"><ele>172.0</ele><time>2026-04-09T12:58:19Z</time></trkpt><trkpt lat="42.495034484653196" lon="2.7108749020127427"><ele>170.0</ele><time>2026-04-09T12:58:20Z</time></trkpt><trkpt lat="42.49497431985751" lon="2.71108758434651"><ele>168.0</ele><time>2026-04-09T12:58:21Z</time></trkpt><trkpt lat="42.494913226156676" lon="2.711298954876664"><ele>166.0</ele><time>2026-04-09T12:58:22Z</time></trkpt><trkpt lat="42.494860695955694" lon="2.7115019740708757"><ele>166.0</ele><time>2026-04-09T12:58:23Z</time></trkpt><trkpt lat="42.494819556227476" lon="2.711713592433049"><ele>166.0</ele><time>2026-04-09T12:58:24Z</time></trkpt><trkpt lat="42.494797538401684" lon="2.711925602415586"><ele>166.0</ele><time>2026-04-09T12:58:25Z</time></trkpt><trkpt lat="42.49478956687928" lon="2.712141629496991"><ele>166.0</ele><time>2026-04-09T12:58:26Z</time></trkpt><trkpt lat="42.49478919052572" lon="2.7123479964948602"><ele>166.0</ele><time>2026-04-09T12:58:27Z</time></trkpt><trkpt lat="42.494800647678474" lon="2.71254693429963"><ele>166.0</ele><time>2026-04-09T12:58:28Z</time></trkpt><trkpt lat="42.49482156336051" lon="2.71273909398196"><ele>166.0</ele><time>2026-04-09T12:58:29Z</time></trkpt><trkpt lat="42.49483981306237" lon="2.7129193788099757"><ele>166.0</ele><time>2026-04-09T12:58:30Z</time></trkpt><trkpt lat="42.494854932261696" lon="2.713091794399027"><ele>166.0</ele><time>2026-04-09T12:58:31Z</time></trkpt><trkpt lat="42.49486932451131" lon="2.7132584756047176"><ele>166.0</ele><time>2026-04-09T12:58:32Z</time></trkpt><trkpt lat="42.49488167189512" lon="2.713416304181368"><ele>166.0</ele><time>2026-04-09T12:58:33Z</time></trkpt><trkpt lat="42.49489325535009" lon="2.7135722756026786"><ele>165.8</ele><time>2026-04-09T12:58:34Z</time></trkpt><trkpt lat="42.494907008687335" lon="2.7137216962753152"><ele>165.60000000000002</ele><time>2026-04-09T12:58:35Z</time></trkpt><trkpt lat="42.494920129195386" lon="2.713868634870653"><ele>165.4</ele><time>2026-04-09T12:58:36Z</time></trkpt><trkpt lat="42.494928282327635" lon="2.714014726029845"><ele>165.2</ele><time>2026-04-09T12:58:37Z</time></trkpt><trkpt lat="42.49492741287495" lon="2.7141518061352423"><ele>165.0</ele><time>2026-04-09T12:58:38Z</time></trkpt><trkpt lat="42.494918321548326" lon="2.714286108433674"><ele>164.0</ele><time>2026-04-09T12:58:39Z</time></trkpt><trkpt lat="42.494903398791074" lon="2.714413739535404"><ele>163.0</ele><time>2026-04-09T12:58:40Z</time></trkpt><trkpt lat="42.494878636327535" lon="2.7145379422158693"><ele>162.0</ele><time>2026-04-09T12:58:41Z</time></trkpt><trkpt lat="42.49485425640789" lon="2.714657662418248"><ele>161.0</ele><time>2026-04-09T12:58:42Z</time></trkpt><trkpt lat="42.49482833102787" lon="2.714776372956566"><ele>160.0</ele><time>2026-04-09T12:58:43Z</time></trkpt><trkpt lat="42.494803884874514" lon="2.7148917558329067"><ele>160.0</ele><time>2026-04-09T12:58:44Z</time></trkpt><trkpt lat="42.49477952188402" lon="2.7150043119302434"><ele>160.0</ele><time>2026-04-09T12:58:45Z</time></trkpt><trkpt lat="42.494757244323054" lon="2.715108206366102"><ele>160.0</ele><time>2026-04-09T12:58:46Z</time></trkpt><trkpt lat="42.494736009017224" lon="2.715212305505548"><ele>160.0</ele><time>2026-04-09T12:58:47Z</time></trkpt><trkpt lat="42.49471406145191" lon="2.715318087363365"><ele>160.0</ele><time>2026-04-09T12:58:48Z</time></trkpt><trkpt lat="42.494690871758564" lon="2.71542440555444"><ele>160.0</ele><time>2026-04-09T12:58:49Z</time></trkpt><trkpt lat="42.49466957289909" lon="2.715529595626762"><ele>160.33333333333334</ele><time>2026-04-09T12:58:50Z</time></trkpt><trkpt lat="42.49464608912299" lon="2.715638042800577"><ele>160.66666666666669</ele><time>2026-04-09T12:58:51Z</time></trkpt><trkpt lat="42.49462162043176" lon="2.7157523713719027"><ele>161.0</ele><time>2026-04-09T12:58:52Z</time></trkpt><trkpt lat="42.494597978706324" lon="2.7158644456145247"><ele>161.33333333333334</ele><time>2026-04-09T12:58:53Z</time></trkpt><trkpt lat="42.49457286815055" lon="2.7159842716068456"><ele>161.66666666666666</ele><time>2026-04-09T12:58:54Z</time></trkpt><trkpt lat="42.494545708575124" lon="2.716113888723712"><ele>162.0</ele><time>2026-04-09T12:58:55Z</time></trkpt><trkpt lat="42.49451799319551" lon="2.7162447682301396"><ele>162.0</ele><time>2026-04-09T12:58:56Z</time></trkpt><trkpt lat="42.49448888224731" lon="2.7163781176941373"><ele>162.0</ele><time>2026-04-09T12:58:57Z</time></trkpt><trkpt lat="42.494461091138746" lon="2.7165067725850265"><ele>162.0</ele><time>2026-04-09T12:58:58Z</time></trkpt><trkpt lat="42.49443532590846" lon="2.7166347237380126"><ele>162.0</ele><time>2026-04-09T12:58:59Z</time></trkpt><trkpt lat="42.4944045301811" lon="2.716762177923217"><ele>162.0</ele><time>2026-04-09T12:59:00Z</time></trkpt><trkpt lat="42.494372159274654" lon="2.7168908429223975"><ele>162.39999999999998</ele><time>2026-04-09T12:59:01Z</time></trkpt><trkpt lat="42.49433462507676" lon="2.7170132080705542"><ele>162.79999999999998</ele><time>2026-04-09T12:59:02Z</time></trkpt><trkpt lat="42.49429934394034" lon="2.717134259734121"><ele>163.2</ele><time>2026-04-09T12:59:03Z</time></trkpt><trkpt lat="42.49426337231792" lon="2.7172510632794746"><ele>163.6</ele><time>2026-04-09T12:59:04Z</time></trkpt><trkpt lat="42.49424862290281" lon="2.717373205710178"><ele>164.0</ele><time>2026-04-09T12:59:05Z</time></trkpt><trkpt lat="42.494291608219676" lon="2.7175084692065705"><ele>164.0</ele><time>2026-04-09T12:59:06Z</time></trkpt><trkpt lat="42.49432795642781" lon="2.717588873170102"><ele>164.0</ele><time>2026-04-09T12:59:07Z</time></trkpt><trkpt lat="42.49438069837534" lon="2.7176659791090967"><ele>164.0</ele><time>2026-04-09T12:59:08Z</time></trkpt><trkpt lat="42.49441884251913" lon="2.717765525345823"><ele>164.0</ele><time>2026-04-09T12:59:09Z</time></trkpt><trkpt lat="42.49444511578388" lon="2.7178737239172"><ele>164.0</ele><time>2026-04-09T12:59:10Z</time></trkpt><trkpt lat="42.494451662549935" lon="2.717997507408221"><ele>164.0</ele><time>2026-04-09T12:59:11Z</time></trkpt><trkpt lat="42.494444519875316" lon="2.718129262454513"><ele>166.79999999999998</ele><time>2026-04-09T12:59:12Z</time></trkpt><trkpt lat="42.4944365411353" lon="2.7182680959154553"><ele>169.6</ele><time>2026-04-09T12:59:13Z</time></trkpt><trkpt lat="42.4944270892481" lon="2.7184094488028006"><ele>172.4</ele><time>2026-04-09T12:59:14Z</time></trkpt><trkpt lat="42.49441121706994" lon="2.718551542487355"><ele>175.2</ele><time>2026-04-09T12:59:15Z</time></trkpt><trkpt lat="42.49437663176514" lon="2.7186972602563655"><ele>178.0</ele><time>2026-04-09T12:59:16Z</time></trkpt><trkpt lat="42.494324674130084" lon="2.7188393707225753"><ele>178.0</ele><time>2026-04-09T12:59:17Z</time></trkpt><trkpt lat="42.494271046500316" lon="2.7189864478707193"><ele>178.0</ele><time>2026-04-09T12:59:18Z</time></trkpt><trkpt lat="42.49422120834634" lon="2.719139169133469"><ele>178.0</ele><time>2026-04-09T12:59:19Z</time></trkpt><trkpt lat="42.4941735272554" lon="2.7192922271858757"><ele>178.0</ele><time>2026-04-09T12:59:20Z</time></trkpt><trkpt lat="42.494128193613946" lon="2.7194446713634943"><ele>174.5</ele><time>2026-04-09T12:59:21Z</time></trkpt><trkpt lat="42.49408419892453" lon="2.719597917630581"><ele>171.0</ele><time>2026-04-09T12:59:22Z</time></trkpt><trkpt lat="42.494043755078884" lon="2.719760167800565"><ele>167.5</ele><time>2026-04-09T12:59:23Z</time></trkpt><trkpt lat="42.49400845020909" lon="2.7199324018852846"><ele>164.0</ele><time>2026-04-09T12:59:24Z</time></trkpt><trkpt lat="42.49397889245815" lon="2.720111442893043"><ele>161.75</ele><time>2026-04-09T12:59:25Z</time></trkpt><trkpt lat="42.493954713560264" lon="2.720294851140477"><ele>159.5</ele><time>2026-04-09T12:59:26Z</time></trkpt><trkpt lat="42.493934379523424" lon="2.7204887181840336"><ele>157.25</ele><time>2026-04-09T12:59:27Z</time></trkpt><trkpt lat="42.493914454277856" lon="2.7206952234854467"><ele>155.0</ele><time>2026-04-09T12:59:28Z</time></trkpt><trkpt lat="42.49390021532541" lon="2.720899632032579"><ele>155.0</ele><time>2026-04-09T12:59:29Z</time></trkpt><trkpt lat="42.49388813070801" lon="2.721103431920323"><ele>155.0</ele><time>2026-04-09T12:59:30Z</time></trkpt><trkpt lat="42.493895093013485" lon="2.7213022051002675"><ele>155.0</ele><time>2026-04-09T12:59:31Z</time></trkpt><trkpt lat="42.49392089928863" lon="2.721492757125238"><ele>155.0</ele><time>2026-04-09T12:59:32Z</time></trkpt><trkpt lat="42.49395947400806" lon="2.7216747152624614"><ele>155.0</ele><time>2026-04-09T12:59:33Z</time></trkpt><trkpt lat="42.49398630350543" lon="2.721851312475548"><ele>155.0</ele><time>2026-04-09T12:59:34Z</time></trkpt><trkpt lat="42.49399945735511" lon="2.7220276442458395"><ele>155.0</ele><time>2026-04-09T12:59:35Z</time></trkpt><trkpt lat="42.49399976616949" lon="2.7222011034638958"><ele>155.0</ele><time>2026-04-09T12:59:36Z</time></trkpt><trkpt lat="42.493985489756646" lon="2.722363630462869"><ele>154.8</ele><time>2026-04-09T12:59:37Z</time></trkpt><trkpt lat="42.49396745520625" lon="2.7225154949055113"><ele>154.6</ele><time>2026-04-09T12:59:38Z</time></trkpt><trkpt lat="42.49395467886341" lon="2.722664092499001"><ele>154.4</ele><time>2026-04-09T12:59:39Z</time></trkpt><trkpt lat="42.4939492072133" lon="2.7228005081617415"><ele>154.2</ele><time>2026-04-09T12:59:40Z</time></trkpt><trkpt lat="42.49396079756481" lon="2.722932628451921"><ele>154.0</ele><time>2026-04-09T12:59:41Z</time></trkpt><trkpt lat="42.49398144080181" lon="2.7230626054762963"><ele>154.6</ele><time>2026-04-09T12:59:42Z</time></trkpt><trkpt lat="42.494015199378005" lon="2.7231906852349814"><ele>155.2</ele><time>2026-04-09T12:59:43Z</time></trkpt><trkpt lat="42.49405613884158" lon="2.723316130435612"><ele>155.79999999999998</ele><time>2026-04-09T12:59:44Z</time></trkpt><trkpt lat="42.49409547366823" lon="2.7234446245887756"><ele>156.4</ele><time>2026-04-09T12:59:45Z</time></trkpt><trkpt lat="42.49413551845844" lon="2.723570215300329"><ele>157.0</ele><time>2026-04-09T12:59:46Z</time></trkpt><trkpt lat="42.49417273633595" lon="2.723696685749805"><ele>157.0</ele><time>2026-04-09T12:59:47Z</time></trkpt><trkpt lat="42.49420755468754" lon="2.723820416679653"><ele>157.0</ele><time>2026-04-09T12:59:48Z</time></trkpt><trkpt lat="42.49423954916013" lon="2.7239417937128825"><ele>157.0</ele><time>2026-04-09T12:59:49Z</time></trkpt><trkpt lat="42.49426473305016" lon="2.724066332444032"><ele>157.0</ele><time>2026-04-09T12:59:50Z</time></trkpt><trkpt lat="42.4942827469678" lon="2.7241918757215844"><ele>157.0</ele><time>2026-04-09T12:59:51Z</time></trkpt><trkpt lat="42.494294925283235" lon="2.7243175672311946"><ele>157.5</ele><time>2026-04-09T12:59:52Z</time></trkpt><trkpt lat="42.4943005143297" lon="2.7244421500226417"><ele>158.0</ele><time>2026-04-09T12:59:53Z</time></trkpt><trkpt lat="42.4943012188291" lon="2.724568581314277"><ele>158.5</ele><time>2026-04-09T12:59:54Z</time></trkpt><trkpt lat="42.4943013511557" lon="2.724689716513692"><ele>159.0</ele><time>2026-04-09T12:59:55Z</time></trkpt><trkpt lat="42.49430364593654" lon="2.7248097790564447"><ele>159.5</ele><time>2026-04-09T12:59:56Z</time></trkpt><trkpt lat="42.49430903259025" lon="2.7249233463910705"><ele>160.0</ele><time>2026-04-09T12:59:57Z</time></trkpt><trkpt lat="42.494318916845906" lon="2.7250251668583454"><ele>160.0</ele><time>2026-04-09T12:59:58Z</time></trkpt><trkpt lat="42.49433726700734" lon="2.7251161035539244"><ele>160.0</ele><time>2026-04-09T12:59:59Z</time></trkpt><trkpt lat="42.49435044736052" lon="2.7252039514838295"><ele>160.0</ele><time>2026-04-09T13:00:00Z</time></trkpt><trkpt lat="42.49435561477775" lon="2.7252915190653124"><ele>160.0</ele><time>2026-04-09T13:00:01Z</time></trkpt><trkpt lat="42.49437590305551" lon="2.725382870022233"><ele>160.0</ele><time>2026-04-09T13:00:02Z</time></trkpt><trkpt lat="42.49441640889875" lon="2.725463801515673"><ele>160.0</ele><time>2026-04-09T13:00:03Z</time></trkpt><trkpt lat="42.49446683343723" lon="2.7255423975186384"><ele>160.0</ele><time>2026-04-09T13:00:04Z</time></trkpt><trkpt lat="42.49449697820383" lon="2.7256432729360864"><ele>159.4</ele><time>2026-04-09T13:00:05Z</time></trkpt><trkpt lat="42.49453155081928" lon="2.725754058252444"><ele>158.8</ele><time>2026-04-09T13:00:06Z</time></trkpt><trkpt lat="42.494586895892276" lon="2.725864540693968"><ele>158.2</ele><time>2026-04-09T13:00:07Z</time></trkpt><trkpt lat="42.4946501177123" lon="2.7259767647231024"><ele>157.6</ele><time>2026-04-09T13:00:08Z</time></trkpt><trkpt lat="42.494716052107734" lon="2.7260944205404503"><ele>157.0</ele><time>2026-04-09T13:00:09Z</time></trkpt><trkpt lat="42.49478023804448" lon="2.726206910193249"><ele>157.0</ele><time>2026-04-09T13:00:10Z</time></trkpt><trkpt lat="42.49483926054545" lon="2.726326243769894"><ele>157.0</ele><time>2026-04-09T13:00:11Z</time></trkpt><trkpt lat="42.49489345155461" lon="2.726458473186727"><ele>157.0</ele><time>2026-04-09T13:00:12Z</time></trkpt><trkpt lat="42.49494355029151" lon="2.7266027904596535"><ele>157.0</ele><time>2026-04-09T13:00:13Z</time></trkpt><trkpt lat="42.49498217215298" lon="2.726756308444949"><ele>157.25</ele><time>2026-04-09T13:00:14Z</time></trkpt><trkpt lat="42.495011986600154" lon="2.726913989608862"><ele>157.5</ele><time>2026-04-09T13:00:15Z</time></trkpt><trkpt lat="42.49503636671698" lon="2.7270699770905225"><ele>157.75</ele><time>2026-04-09T13:00:16Z</time></trkpt><trkpt lat="42.49505553078686" lon="2.727224647269766"><ele>158.0</ele><time>2026-04-09T13:00:17Z</time></trkpt><trkpt lat="42.4950683017915" lon="2.7273798471719415"><ele>158.0</ele><time>2026-04-09T13:00:18Z</time></trkpt><trkpt lat="42.49507798380946" lon="2.7275397973407096"><ele>158.0</ele><time>2026-04-09T13:00:19Z</time></trkpt><trkpt lat="42.495093104813314" lon="2.7277093300338695"><ele>158.0</ele><time>2026-04-09T13:00:20Z</time></trkpt><trkpt lat="42.49510901732354" lon="2.727874995407673"><ele>158.0</ele><time>2026-04-09T13:00:21Z</time></trkpt><trkpt lat="42.4951285202936" lon="2.7280427100743934"><ele>157.75</ele><time>2026-04-09T13:00:22Z</time></trkpt><trkpt lat="42.49514846118827" lon="2.7282143508446763"><ele>157.5</ele><time>2026-04-09T13:00:23Z</time></trkpt><trkpt lat="42.495170597266856" lon="2.72839005887919"><ele>157.25</ele><time>2026-04-09T13:00:24Z</time></trkpt><trkpt lat="42.49519335568693" lon="2.7285675952499857"><ele>157.0</ele><time>2026-04-09T13:00:25Z</time></trkpt><trkpt lat="42.495214534022686" lon="2.728741963857513"><ele>156.75</ele><time>2026-04-09T13:00:26Z</time></trkpt><trkpt lat="42.49523460217684" lon="2.728916347907395"><ele>156.5</ele><time>2026-04-09T13:00:27Z</time></trkpt><trkpt lat="42.49525769028265" lon="2.7290837147278277"><ele>156.25</ele><time>2026-04-09T13:00:28Z</time></trkpt><trkpt lat="42.49527813717576" lon="2.7292513492854438"><ele>156.0</ele><time>2026-04-09T13:00:29Z</time></trkpt><trkpt lat="42.49529963001564" lon="2.7294168716091267"><ele>155.75</ele><time>2026-04-09T13:00:30Z</time></trkpt><trkpt lat="42.49531332951542" lon="2.7295781599122777"><ele>155.5</ele><time>2026-04-09T13:00:31Z</time></trkpt><trkpt lat="42.495318899421925" lon="2.7297396922763824"><ele>155.25</ele><time>2026-04-09T13:00:32Z</time></trkpt><trkpt lat="42.49532270239517" lon="2.7298965557776165"><ele>155.0</ele><time>2026-04-09T13:00:33Z</time></trkpt><trkpt lat="42.49532281981852" lon="2.730052916185066"><ele>155.0</ele><time>2026-04-09T13:00:34Z</time></trkpt><trkpt lat="42.49531411706101" lon="2.7302048090056594"><ele>155.0</ele><time>2026-04-09T13:00:35Z</time></trkpt><trkpt lat="42.495298093150936" lon="2.730350570985351"><ele>155.0</ele><time>2026-04-09T13:00:36Z</time></trkpt><trkpt lat="42.49527469171379" lon="2.730493937757359"><ele>155.0</ele><time>2026-04-09T13:00:37Z</time></trkpt><trkpt lat="42.49524885069283" lon="2.7306311805569154"><ele>155.0</ele><time>2026-04-09T13:00:38Z</time></trkpt><trkpt lat="42.49522247423341" lon="2.730765204447525"><ele>154.6</ele><time>2026-04-09T13:00:39Z</time></trkpt><trkpt lat="42.49519490036628" lon="2.730895895457029"><ele>154.2</ele><time>2026-04-09T13:00:40Z</time></trkpt><trkpt lat="42.49517204134797" lon="2.731012462383615"><ele>153.8</ele><time>2026-04-09T13:00:41Z</time></trkpt><trkpt lat="42.49515138839732" lon="2.7311177826770985"><ele>153.4</ele><time>2026-04-09T13:00:42Z</time></trkpt><trkpt lat="42.495131074236554" lon="2.7312116400294344"><ele>153.0</ele><time>2026-04-09T13:00:43Z</time></trkpt><trkpt lat="42.495076414055994" lon="2.7313452697027936"><ele>153.0</ele><time>2026-04-09T13:00:45Z</time></trkpt><trkpt lat="42.4950075177816" lon="2.731408529192383"><ele>153.0</ele><time>2026-04-09T13:00:47Z</time></trkpt><trkpt lat="42.49492619829119" lon="2.731425721016515"><ele>153.0</ele><time>2026-04-09T13:00:49Z</time></trkpt><trkpt lat="42.49483119357072" lon="2.7314264969885906"><ele>153.0</ele><time>2026-04-09T13:00:51Z</time></trkpt><trkpt lat="42.4947289003541" lon="2.7314487098325695"><ele>153.0</ele><time>2026-04-09T13:00:53Z</time></trkpt><trkpt lat="42.49463350735173" lon="2.7315383809236713"><ele>153.0</ele><time>2026-04-09T13:00:55Z</time></trkpt><trkpt lat="42.49459372491199" lon="2.7316152420684747"><ele>153.0</ele><time>2026-04-09T13:00:56Z</time></trkpt><trkpt lat="42.49456141643642" lon="2.7317061952579773"><ele>153.0</ele><time>2026-04-09T13:00:57Z</time></trkpt><trkpt lat="42.49453923925489" lon="2.73180971289583"><ele>153.0</ele><time>2026-04-09T13:00:58Z</time></trkpt><trkpt lat="42.49452181331639" lon="2.7319238340978345"><ele>153.0</ele><time>2026-04-09T13:00:59Z</time></trkpt><trkpt lat="42.49450451595141" lon="2.732039440123192"><ele>153.0</ele><time>2026-04-09T13:01:00Z</time></trkpt><trkpt lat="42.49449193438485" lon="2.7321573129889614"><ele>153.83333333333334</ele><time>2026-04-09T13:01:01Z</time></trkpt><trkpt lat="42.49447856609055" lon="2.7322708660045487"><ele>154.66666666666666</ele><time>2026-04-09T13:01:02Z</time></trkpt><trkpt lat="42.49446390893109" lon="2.7323796250303776"><ele>155.5</ele><time>2026-04-09T13:01:03Z</time></trkpt><trkpt lat="42.494448332763646" lon="2.7324840824109"><ele>156.33333333333331</ele><time>2026-04-09T13:01:04Z</time></trkpt><trkpt lat="42.49442764359391" lon="2.7325789828848324"><ele>157.16666666666666</ele><time>2026-04-09T13:01:05Z</time></trkpt><trkpt lat="42.49440944416442" lon="2.732675449827949"><ele>158.0</ele><time>2026-04-09T13:01:06Z</time></trkpt><trkpt lat="42.49438710908381" lon="2.7327613104395487"><ele>158.16666666666666</ele><time>2026-04-09T13:01:07Z</time></trkpt><trkpt lat="42.494366256127336" lon="2.7328440588363936"><ele>158.33333333333331</ele><time>2026-04-09T13:01:08Z</time></trkpt><trkpt lat="42.49433431713861" lon="2.7329651395321575"><ele>158.5</ele><time>2026-04-09T13:01:10Z</time></trkpt><trkpt lat="42.494283086553814" lon="2.7330944180622376"><ele>158.66666666666666</ele><time>2026-04-09T13:01:12Z</time></trkpt><trkpt lat="42.49424537846267" lon="2.7332058404491053"><ele>158.83333333333334</ele><time>2026-04-09T13:01:13Z</time></trkpt><trkpt lat="42.49420894039266" lon="2.7332947192459605"><ele>159.0</ele><time>2026-04-09T13:01:14Z</time></trkpt><trkpt lat="42.4941738748706" lon="2.7333845967313715"><ele>159.0</ele><time>2026-04-09T13:01:15Z</time></trkpt><trkpt lat="42.494142724033544" lon="2.7334755010860414"><ele>159.0</ele><time>2026-04-09T13:01:16Z</time></trkpt><trkpt lat="42.49411371099726" lon="2.7335645107421866"><ele>159.0</ele><time>2026-04-09T13:01:17Z</time></trkpt><trkpt lat="42.494084267261066" lon="2.733653755710209"><ele>159.0</ele><time>2026-04-09T13:01:18Z</time></trkpt><trkpt lat="42.49406137541154" lon="2.7337468281974573"><ele>159.0</ele><time>2026-04-09T13:01:19Z</time></trkpt><trkpt lat="42.49403853284708" lon="2.733842391345766"><ele>159.0</ele><time>2026-04-09T13:01:20Z</time></trkpt><trkpt lat="42.49401855660095" lon="2.7339389570800963"><ele>159.0</ele><time>2026-04-09T13:01:21Z</time></trkpt><trkpt lat="42.49400226970704" lon="2.7340307927096905"><ele>159.16666666666666</ele><time>2026-04-09T13:01:22Z</time></trkpt><trkpt lat="42.493990277791426" lon="2.73412068919564"><ele>159.33333333333334</ele><time>2026-04-09T13:01:23Z</time></trkpt><trkpt lat="42.493980967596514" lon="2.7342692726059243"><ele>159.5</ele><time>2026-04-09T13:01:25Z</time></trkpt><trkpt lat="42.49396608071045" lon="2.7344096900642136"><ele>159.66666666666669</ele><time>2026-04-09T13:01:27Z</time></trkpt><trkpt lat="42.49395610120405" lon="2.7345121226168096"><ele>159.83333333333334</ele><time>2026-04-09T13:01:30Z</time></trkpt><trkpt lat="42.493946961762774" lon="2.7346139415654283"><ele>160.0</ele><time>2026-04-09T13:01:33Z</time></trkpt><trkpt lat="42.493939240042764" lon="2.7347080537554755"><ele>160.0</ele><time>2026-04-09T13:01:36Z</time></trkpt><trkpt lat="42.4939310063185" lon="2.7348057419241365"><ele>160.0</ele><time>2026-04-09T13:01:41Z</time></trkpt><trkpt lat="42.49389516851424" lon="2.7349141765490823"><ele>160.0</ele><time>2026-04-09T13:01:44Z</time></trkpt><trkpt lat="42.49381582323972" lon="2.734960111575825"><ele>160.0</ele><time>2026-04-09T13:01:46Z</time></trkpt><trkpt lat="42.493721129884655" lon="2.7350346062922744"><ele>160.0</ele><time>2026-04-09T13:01:48Z</time></trkpt><trkpt lat="42.49361721845049" lon="2.7351051542043363"><ele>159.75</ele><time>2026-04-09T13:01:50Z</time></trkpt><trkpt lat="42.49351418070415" lon="2.7351739256302343"><ele>159.5</ele><time>2026-04-09T13:01:52Z</time></trkpt><trkpt lat="42.49341289658072" lon="2.7352409834753186"><ele>159.25</ele><time>2026-04-09T13:01:54Z</time></trkpt><trkpt lat="42.49332268811822" lon="2.7353403731137518"><ele>159.0</ele><time>2026-04-09T13:01:56Z</time></trkpt><trkpt lat="42.49325132798906" lon="2.735481567474276"><ele>159.0</ele><time>2026-04-09T13:01:58Z</time></trkpt><trkpt lat="42.493211378354204" lon="2.7355581191050757"><ele>159.0</ele><time>2026-04-09T13:01:59Z</time></trkpt><trkpt lat="42.49316316878571" lon="2.7356564633347698"><ele>159.0</ele><time>2026-04-09T13:02:00Z</time></trkpt><trkpt lat="42.49311155179056" lon="2.735765354795205"><ele>159.0</ele><time>2026-04-09T13:02:01Z</time></trkpt><trkpt lat="42.49306127877445" lon="2.735874422908017"><ele>159.0</ele><time>2026-04-09T13:02:02Z</time></trkpt><trkpt lat="42.49300435674953" lon="2.735994153329411"><ele>159.0</ele><time>2026-04-09T13:02:03Z</time></trkpt><trkpt lat="42.492943839017784" lon="2.736123627691143"><ele>159.0</ele><time>2026-04-09T13:02:04Z</time></trkpt><trkpt lat="42.492884840624875" lon="2.7362493210404115"><ele>159.0</ele><time>2026-04-09T13:02:05Z</time></trkpt><trkpt lat="42.492827633659815" lon="2.7363728885823897"><ele>159.0</ele><time>2026-04-09T13:02:06Z</time></trkpt><trkpt lat="42.492774246645986" lon="2.736492502261247"><ele>159.0</ele><time>2026-04-09T13:02:07Z</time></trkpt><trkpt lat="42.49267883356838" lon="2.736702586443447"><ele>159.0</ele><time>2026-04-09T13:02:09Z</time></trkpt><trkpt lat="42.49264355431204" lon="2.7367807045527317"><ele>159.0</ele><time>2026-04-09T13:02:10Z</time></trkpt><trkpt lat="42.492609853896155" lon="2.7368571160429664"><ele>159.0</ele><time>2026-04-09T13:02:11Z</time></trkpt><trkpt lat="42.4925481633451" lon="2.73700092805154"><ele>159.0</ele><time>2026-04-09T13:02:13Z</time></trkpt><trkpt lat="42.49247149307285" lon="2.737193833991613"><ele>159.0</ele><time>2026-04-09T13:02:15Z</time></trkpt><trkpt lat="42.49243081482467" lon="2.7372935774387637"><ele>159.0</ele><time>2026-04-09T13:02:16Z</time></trkpt><trkpt lat="42.49239104517635" lon="2.7373904071074042"><ele>159.0</ele><time>2026-04-09T13:02:17Z</time></trkpt><trkpt lat="42.492350937989976" lon="2.7374898137386823"><ele>159.0</ele><time>2026-04-09T13:02:18Z</time></trkpt><trkpt lat="42.49231315426989" lon="2.7375785727093715"><ele>159.0</ele><time>2026-04-09T13:02:19Z</time></trkpt><trkpt lat="42.49227669105645" lon="2.737663993501745"><ele>159.0</ele><time>2026-04-09T13:02:20Z</time></trkpt><trkpt lat="42.49223979841612" lon="2.7377454586936065"><ele>159.0</ele><time>2026-04-09T13:02:21Z</time></trkpt><trkpt lat="42.49220114090849" lon="2.737827587225536"><ele>158.83333333333334</ele><time>2026-04-09T13:02:22Z</time></trkpt><trkpt lat="42.492163330800246" lon="2.737908654400907"><ele>158.66666666666666</ele><time>2026-04-09T13:02:23Z</time></trkpt><trkpt lat="42.49212645353823" lon="2.73799103995177"><ele>158.5</ele><time>2026-04-09T13:02:24Z</time></trkpt><trkpt lat="42.492093726213085" lon="2.738083109227239"><ele>158.33333333333331</ele><time>2026-04-09T13:02:25Z</time></trkpt><trkpt lat="42.49206361311335" lon="2.738186188536259"><ele>158.16666666666666</ele><time>2026-04-09T13:02:26Z</time></trkpt><trkpt lat="42.49203611790107" lon="2.738302375841427"><ele>158.0</ele><time>2026-04-09T13:02:27Z</time></trkpt><trkpt lat="42.49200801557581" lon="2.73841933683365"><ele>158.0</ele><time>2026-04-09T13:02:28Z</time></trkpt><trkpt lat="42.49197663719566" lon="2.738532368000457"><ele>158.0</ele><time>2026-04-09T13:02:29Z</time></trkpt><trkpt lat="42.491943051447564" lon="2.738639250654608"><ele>158.0</ele><time>2026-04-09T13:02:30Z</time></trkpt><trkpt lat="42.4919068593744" lon="2.7387414895748057"><ele>158.0</ele><time>2026-04-09T13:02:31Z</time></trkpt><trkpt lat="42.49186928787888" lon="2.738840921076145"><ele>158.0</ele><time>2026-04-09T13:02:32Z</time></trkpt><trkpt lat="42.49183227309228" lon="2.73893477168214"><ele>158.0</ele><time>2026-04-09T13:02:33Z</time></trkpt><trkpt lat="42.49179451200703" lon="2.7390246451156544"><ele>158.0</ele><time>2026-04-09T13:02:34Z</time></trkpt><trkpt lat="42.4917528676587" lon="2.7391230983153605"><ele>158.0</ele><time>2026-04-09T13:02:35Z</time></trkpt><trkpt lat="42.49171235388416" lon="2.739221428939796"><ele>158.0</ele><time>2026-04-09T13:02:36Z</time></trkpt><trkpt lat="42.49166997686878" lon="2.7393230167622975"><ele>158.0</ele><time>2026-04-09T13:02:37Z</time></trkpt><trkpt lat="42.49162923801431" lon="2.7394224308289505"><ele>158.0</ele><time>2026-04-09T13:02:38Z</time></trkpt><trkpt lat="42.49159012935788" lon="2.7395189150598447"><ele>158.0</ele><time>2026-04-09T13:02:39Z</time></trkpt><trkpt lat="42.49155322808557" lon="2.73961155602989"><ele>157.83333333333331</ele><time>2026-04-09T13:02:40Z</time></trkpt><trkpt lat="42.49151634615374" lon="2.7397030816978214"><ele>157.66666666666666</ele><time>2026-04-09T13:02:41Z</time></trkpt><trkpt lat="42.49148171268247" lon="2.7397903347505044"><ele>157.5</ele><time>2026-04-09T13:02:42Z</time></trkpt><trkpt lat="42.491448800460944" lon="2.7398742658186337"><ele>157.33333333333334</ele><time>2026-04-09T13:02:43Z</time></trkpt><trkpt lat="42.491418627942636" lon="2.7399511698921346"><ele>157.16666666666669</ele><time>2026-04-09T13:02:44Z</time></trkpt><trkpt lat="42.49135976083838" lon="2.7401021813456503"><ele>157.0</ele><time>2026-04-09T13:02:46Z</time></trkpt><trkpt lat="42.49130991117817" lon="2.7402257932019753"><ele>157.2</ele><time>2026-04-09T13:02:48Z</time></trkpt><trkpt lat="42.491250410677544" lon="2.740359812620106"><ele>157.39999999999998</ele><time>2026-04-09T13:02:50Z</time></trkpt><trkpt lat="42.491165179119385" lon="2.7404387320296277"><ele>157.60000000000002</ele><time>2026-04-09T13:02:52Z</time></trkpt><trkpt lat="42.49108085654989" lon="2.7405085740047195"><ele>157.8</ele><time>2026-04-09T13:02:54Z</time></trkpt><trkpt lat="42.49107821615529" lon="2.7406416169614802"><ele>158.0</ele><time>2026-04-09T13:02:56Z</time></trkpt><trkpt lat="42.49118929642564" lon="2.7407086370904508"><ele>157.66666666666666</ele><time>2026-04-09T13:02:58Z</time></trkpt><trkpt lat="42.491259987345444" lon="2.740718395601844"><ele>157.33333333333331</ele><time>2026-04-09T13:02:59Z</time></trkpt><trkpt lat="42.4913255480654" lon="2.7407514514187996"><ele>157.0</ele><time>2026-04-09T13:03:00Z</time></trkpt><trkpt lat="42.49139281254046" lon="2.7408027096854966"><ele>156.66666666666666</ele><time>2026-04-09T13:03:01Z</time></trkpt><trkpt lat="42.49146715999329" lon="2.7408620498444503"><ele>156.33333333333334</ele><time>2026-04-09T13:03:02Z</time></trkpt><trkpt lat="42.491547214477585" lon="2.740924349503112"><ele>156.0</ele><time>2026-04-09T13:03:03Z</time></trkpt><trkpt lat="42.491627053960215" lon="2.7409877040785813"><ele>156.0</ele><time>2026-04-09T13:03:04Z</time></trkpt><trkpt lat="42.491704947016004" lon="2.7410517985215734"><ele>156.0</ele><time>2026-04-09T13:03:05Z</time></trkpt><trkpt lat="42.49178252124558" lon="2.74112254664231"><ele>156.0</ele><time>2026-04-09T13:03:06Z</time></trkpt><trkpt lat="42.491852132225354" lon="2.741199254302715"><ele>156.0</ele><time>2026-04-09T13:03:07Z</time></trkpt><trkpt lat="42.491916597251375" lon="2.741277981433612"><ele>156.0</ele><time>2026-04-09T13:03:08Z</time></trkpt><trkpt lat="42.49197627290089" lon="2.7413519685784"><ele>156.0</ele><time>2026-04-09T13:03:09Z</time></trkpt><trkpt lat="42.49203124140241" lon="2.7414195230140543"><ele>155.83333333333334</ele><time>2026-04-09T13:03:10Z</time></trkpt><trkpt lat="42.49211525444845" lon="2.741523854840616"><ele>155.66666666666666</ele><time>2026-04-09T13:03:12Z</time></trkpt><trkpt lat="42.49217572116492" lon="2.741602723688933"><ele>155.5</ele><time>2026-04-09T13:03:14Z</time></trkpt><trkpt lat="42.49222411027784" lon="2.741662184722237"><ele>155.33333333333331</ele><time>2026-04-09T13:03:16Z</time></trkpt><trkpt lat="42.492272868247845" lon="2.74172197993347"><ele>155.16666666666666</ele><time>2026-04-09T13:03:18Z</time></trkpt><trkpt lat="42.492331231299396" lon="2.7417924943675143"><ele>155.0</ele><time>2026-04-09T13:03:20Z</time></trkpt><trkpt lat="42.492386849482195" lon="2.741862811550102"><ele>155.0</ele><time>2026-04-09T13:03:22Z</time></trkpt><trkpt lat="42.49243447285735" lon="2.7419205677724996"><ele>155.0</ele><time>2026-04-09T13:03:25Z</time></trkpt><trkpt lat="42.492486764179226" lon="2.741984443089948"><ele>155.0</ele><time>2026-04-09T13:03:28Z</time></trkpt><trkpt lat="42.49256048288243" lon="2.7420718887475295"><ele>155.0</ele><time>2026-04-09T13:03:31Z</time></trkpt><trkpt lat="42.49262273213411" lon="2.742144604332299"><ele>155.0</ele><time>2026-04-09T13:03:33Z</time></trkpt><trkpt lat="42.49268361026563" lon="2.7422118150406805"><ele>155.0</ele><time>2026-04-09T13:03:35Z</time></trkpt><trkpt lat="42.492746858151925" lon="2.7422716446680973"><ele>155.0</ele><time>2026-04-09T13:03:37Z</time></trkpt><trkpt lat="42.49281348599904" lon="2.742322116068761"><ele>155.0</ele><time>2026-04-09T13:03:39Z</time></trkpt><trkpt lat="42.49287546743511" lon="2.7423772273502323"><ele>155.0</ele><time>2026-04-09T13:03:41Z</time></trkpt><trkpt lat="42.49291366989366" lon="2.7424519434378776"><ele>155.0</ele><time>2026-04-09T13:03:43Z</time></trkpt><trkpt lat="42.49289050451614" lon="2.7425683966159906"><ele>155.0</ele><time>2026-04-09T13:03:52Z</time></trkpt><trkpt lat="42.4928343367634" lon="2.7426719135065"><ele>155.0</ele><time>2026-04-09T13:03:54Z</time></trkpt><trkpt lat="42.49276396595774" lon="2.742800526841584"><ele>154.66666666666666</ele><time>2026-04-09T13:03:56Z</time></trkpt><trkpt lat="42.492723178375535" lon="2.7428757036638984"><ele>154.33333333333331</ele><time>2026-04-09T13:03:57Z</time></trkpt><trkpt lat="42.492684470421025" lon="2.7429442573486695"><ele>154.0</ele><time>2026-04-09T13:03:58Z</time></trkpt><trkpt lat="42.49262752304678" lon="2.7430395745543343"><ele>153.66666666666666</ele><time>2026-04-09T13:04:00Z</time></trkpt><trkpt lat="42.492587285474734" lon="2.7431056501788063"><ele>153.33333333333334</ele><time>2026-04-09T13:04:02Z</time></trkpt><trkpt lat="42.49261428456931" lon="2.743223200571752"><ele>153.0</ele><time>2026-04-09T13:04:22Z</time></trkpt><trkpt lat="42.49269450675025" lon="2.7432443592902653"><ele>153.0</ele><time>2026-04-09T13:04:24Z</time></trkpt><trkpt lat="42.49278053567956" lon="2.7432425521478376"><ele>153.0</ele><time>2026-04-09T13:04:26Z</time></trkpt><trkpt lat="42.49290218005257" lon="2.7432471609901845"><ele>153.0</ele><time>2026-04-09T13:04:28Z</time></trkpt><trkpt lat="42.49297825568244" lon="2.7432465471819265"><ele>153.0</ele><time>2026-04-09T13:04:29Z</time></trkpt><trkpt lat="42.493057794311774" lon="2.7432470916791805"><ele>153.0</ele><time>2026-04-09T13:04:30Z</time></trkpt><trkpt lat="42.49313883592059" lon="2.7432452303259693"><ele>153.0</ele><time>2026-04-09T13:04:31Z</time></trkpt><trkpt lat="42.493223681739344" lon="2.7432392201410436"><ele>152.5</ele><time>2026-04-09T13:04:32Z</time></trkpt><trkpt lat="42.49330285635121" lon="2.7432380091912907"><ele>152.0</ele><time>2026-04-09T13:04:33Z</time></trkpt><trkpt lat="42.4933818236077" lon="2.7432381147030305"><ele>151.5</ele><time>2026-04-09T13:04:34Z</time></trkpt><trkpt lat="42.49346133761443" lon="2.7432375191020246"><ele>151.0</ele><time>2026-04-09T13:04:35Z</time></trkpt><trkpt lat="42.49353703161037" lon="2.7432381862327437"><ele>150.5</ele><time>2026-04-09T13:04:36Z</time></trkpt><trkpt lat="42.49360938691786" lon="2.743238344724929"><ele>150.0</ele><time>2026-04-09T13:04:37Z</time></trkpt><trkpt lat="42.493683590810605" lon="2.743237877159792"><ele>149.85714285714283</ele><time>2026-04-09T13:04:38Z</time></trkpt><trkpt lat="42.4937633949226" lon="2.743236173056692"><ele>149.71428571428572</ele><time>2026-04-09T13:04:39Z</time></trkpt><trkpt lat="42.49383998709133" lon="2.7432352530750035"><ele>149.57142857142856</ele><time>2026-04-09T13:04:40Z</time></trkpt><trkpt lat="42.493917463252004" lon="2.7432349614998426"><ele>149.42857142857142</ele><time>2026-04-09T13:04:41Z</time></trkpt><trkpt lat="42.493992167292014" lon="2.7432338999165604"><ele>149.28571428571428</ele><time>2026-04-09T13:04:42Z</time></trkpt><trkpt lat="42.49406414556203" lon="2.743230158927585"><ele>149.14285714285714</ele><time>2026-04-09T13:04:43Z</time></trkpt><trkpt lat="42.494131059630554" lon="2.743229630188603"><ele>149.0</ele><time>2026-04-09T13:04:44Z</time></trkpt><trkpt lat="42.49423194418272" lon="2.7432237533379937"><ele>149.0</ele><time>2026-04-09T13:04:46Z</time></trkpt><trkpt lat="42.49433737748561" lon="2.7432496604959122"><ele>149.0</ele><time>2026-04-09T13:04:48Z</time></trkpt><trkpt lat="42.49444356484925" lon="2.743346495696554"><ele>149.0</ele><time>2026-04-09T13:04:50Z</time></trkpt><trkpt lat="42.494532936136416" lon="2.743469053031976"><ele>149.0</ele><time>2026-04-09T13:04:52Z</time></trkpt><trkpt lat="42.49458048581168" lon="2.7435308703854004"><ele>149.0</ele><time>2026-04-09T13:04:53Z</time></trkpt><trkpt lat="42.494627615253265" lon="2.74358845157229"><ele>146.6</ele><time>2026-04-09T13:04:54Z</time></trkpt><trkpt lat="42.494729180497764" lon="2.7436960605252234"><ele>144.2</ele><time>2026-04-09T13:04:56Z</time></trkpt><trkpt lat="42.49481600103026" lon="2.743787715572013"><ele>141.79999999999998</ele><time>2026-04-09T13:04:58Z</time></trkpt><trkpt lat="42.49489564336853" lon="2.7438313833270858"><ele>139.4</ele><time>2026-04-09T13:05:00Z</time></trkpt><trkpt lat="42.494966238303036" lon="2.7437927221760665"><ele>137.0</ele><time>2026-04-09T13:05:02Z</time></trkpt><trkpt lat="42.49500263676711" lon="2.743702246862854"><ele>137.00000000000003</ele><time>2026-04-09T13:05:04Z</time></trkpt><trkpt lat="42.494987217937286" lon="2.743609757492104"><ele>137.0</ele><time>2026-04-09T13:05:07Z</time></trkpt><trkpt lat="42.494971742824156" lon="2.743522861447894"><ele>137.0</ele><time>2026-04-09T13:05:11Z</time></trkpt><trkpt lat="42.49498642547622" lon="2.743425536253217"><ele>137.0</ele><time>2026-04-09T13:05:18Z</time></trkpt><trkpt lat="42.49501036428731" lon="2.743344039304876"><ele>137.0</ele><time>2026-04-09T13:05:22Z</time></trkpt><trkpt lat="42.49508569152862" lon="2.7433078951004894"><ele>137.00000000000003</ele><time>2026-04-09T13:05:26Z</time></trkpt><trkpt lat="42.49515678192263" lon="2.743339336094637"><ele>137.0</ele><time>2026-04-09T13:05:32Z</time></trkpt><trkpt lat="42.495216881268355" lon="2.7434095509685776"><ele>137.0</ele><time>2026-04-09T13:05:34Z</time></trkpt><trkpt lat="42.49528336630876" lon="2.7435193293333526"><ele>137.0</ele><time>2026-04-09T13:05:36Z</time></trkpt><trkpt lat="42.49533479419202" lon="2.7436011179297046"><ele>137.0</ele><time>2026-04-09T13:05:37Z</time></trkpt><trkpt lat="42.495390234933666" lon="2.743699818043292"><ele>137.0</ele><time>2026-04-09T13:05:38Z</time></trkpt><trkpt lat="42.49545238821857" lon="2.743805343124756"><ele>137.0</ele><time>2026-04-09T13:05:39Z</time></trkpt><trkpt lat="42.49551089477334" lon="2.7439103159109677"><ele>137.0</ele><time>2026-04-09T13:05:40Z</time></trkpt><trkpt lat="42.495575463582284" lon="2.744023724903665"><ele>137.0</ele><time>2026-04-09T13:05:41Z</time></trkpt><trkpt lat="42.49564117646938" lon="2.7441373738129933"><ele>137.0</ele><time>2026-04-09T13:05:42Z</time></trkpt><trkpt lat="42.495703177388165" lon="2.7442498074006587"><ele>137.0</ele><time>2026-04-09T13:05:43Z</time></trkpt><trkpt lat="42.49576308334208" lon="2.7443601394684465"><ele>137.0</ele><time>2026-04-09T13:05:44Z</time></trkpt><trkpt lat="42.49581429648107" lon="2.744473944297124"><ele>137.0</ele><time>2026-04-09T13:05:45Z</time></trkpt><trkpt lat="42.49585732183599" lon="2.74458698789637"><ele>137.0</ele><time>2026-04-09T13:05:46Z</time></trkpt><trkpt lat="42.495899944490596" lon="2.744696573111408"><ele>137.0</ele><time>2026-04-09T13:05:47Z</time></trkpt><trkpt lat="42.495952115148626" lon="2.7448018142947648"><ele>137.0</ele><time>2026-04-09T13:05:48Z</time></trkpt><trkpt lat="42.49600875064786" lon="2.7449053139433697"><ele>137.0</ele><time>2026-04-09T13:05:49Z</time></trkpt><trkpt lat="42.49606131510816" lon="2.745010520763968"><ele>137.0</ele><time>2026-04-09T13:05:50Z</time></trkpt><trkpt lat="42.49611253356003" lon="2.745118407481476"><ele>137.0</ele><time>2026-04-09T13:05:51Z</time></trkpt><trkpt lat="42.496157966338714" lon="2.74522699973478"><ele>137.0</ele><time>2026-04-09T13:05:52Z</time></trkpt><trkpt lat="42.49620954496619" lon="2.7453441670754133"><ele>137.0</ele><time>2026-04-09T13:05:53Z</time></trkpt><trkpt lat="42.49626041810074" lon="2.745460734081484"><ele>137.0</ele><time>2026-04-09T13:05:54Z</time></trkpt><trkpt lat="42.49631185194406" lon="2.745578077673341"><ele>138.79999999999998</ele><time>2026-04-09T13:05:55Z</time></trkpt><trkpt lat="42.49636393733947" lon="2.745694367438176"><ele>140.6</ele><time>2026-04-09T13:05:56Z</time></trkpt><trkpt lat="42.49641548324725" lon="2.7458104279339453"><ele>142.39999999999998</ele><time>2026-04-09T13:05:57Z</time></trkpt><trkpt lat="42.49646838008778" lon="2.7459260006738275"><ele>144.2</ele><time>2026-04-09T13:05:58Z</time></trkpt><trkpt lat="42.496521844436295" lon="2.7460420969413346"><ele>146.0</ele><time>2026-04-09T13:05:59Z</time></trkpt><trkpt lat="42.49657588588393" lon="2.746161286324805"><ele>146.4</ele><time>2026-04-09T13:06:00Z</time></trkpt><trkpt lat="42.49662716301807" lon="2.7462737561611514"><ele>146.8</ele><time>2026-04-09T13:06:01Z</time></trkpt><trkpt lat="42.49667906065355" lon="2.7463834630412305"><ele>147.20000000000002</ele><time>2026-04-09T13:06:02Z</time></trkpt><trkpt lat="42.49672750480538" lon="2.746488628756962"><ele>147.6</ele><time>2026-04-09T13:06:03Z</time></trkpt><trkpt lat="42.49677636831109" lon="2.7465945048739244"><ele>148.0</ele><time>2026-04-09T13:06:04Z</time></trkpt><trkpt lat="42.496824685979426" lon="2.746701175961072"><ele>148.0</ele><time>2026-04-09T13:06:05Z</time></trkpt><trkpt lat="42.496876423280845" lon="2.746812012229669"><ele>148.0</ele><time>2026-04-09T13:06:06Z</time></trkpt><trkpt lat="42.496927827737416" lon="2.746928213649406"><ele>148.0</ele><time>2026-04-09T13:06:07Z</time></trkpt><trkpt lat="42.49698113146944" lon="2.74704635695451"><ele>148.0</ele><time>2026-04-09T13:06:08Z</time></trkpt><trkpt lat="42.49703270100335" lon="2.7471649385207892"><ele>148.0</ele><time>2026-04-09T13:06:09Z</time></trkpt><trkpt lat="42.49708631936456" lon="2.7472842950983347"><ele>147.6</ele><time>2026-04-09T13:06:10Z</time></trkpt><trkpt lat="42.49714051370322" lon="2.7474044163473192"><ele>147.20000000000002</ele><time>2026-04-09T13:06:11Z</time></trkpt><trkpt lat="42.49719544444332" lon="2.7475248374459866"><ele>146.8</ele><time>2026-04-09T13:06:12Z</time></trkpt><trkpt lat="42.497249180749904" lon="2.7476444991253945"><ele>146.4</ele><time>2026-04-09T13:06:13Z</time></trkpt><trkpt lat="42.49730305949548" lon="2.7477665883382785"><ele>146.0</ele><time>2026-04-09T13:06:14Z</time></trkpt><trkpt lat="42.4973573250214" lon="2.7478880146395332"><ele>145.6</ele><time>2026-04-09T13:06:15Z</time></trkpt><trkpt lat="42.49741058631545" lon="2.7480113297620092"><ele>145.2</ele><time>2026-04-09T13:06:16Z</time></trkpt><trkpt lat="42.497464985693306" lon="2.74813147539869"><ele>144.8</ele><time>2026-04-09T13:06:17Z</time></trkpt><trkpt lat="42.497520269420825" lon="2.7482525965440465"><ele>144.4</ele><time>2026-04-09T13:06:18Z</time></trkpt><trkpt lat="42.49757704780869" lon="2.748379190921248"><ele>144.0</ele><time>2026-04-09T13:06:19Z</time></trkpt><trkpt lat="42.49763360563842" lon="2.7485046856665254"><ele>142.4</ele><time>2026-04-09T13:06:20Z</time></trkpt><trkpt lat="42.497689916905074" lon="2.7486325464289303"><ele>140.8</ele><time>2026-04-09T13:06:21Z</time></trkpt><trkpt lat="42.49774529626501" lon="2.7487563556977888"><ele>139.2</ele><time>2026-04-09T13:06:22Z</time></trkpt><trkpt lat="42.497799612046464" lon="2.748877817261996"><ele>137.6</ele><time>2026-04-09T13:06:23Z</time></trkpt><trkpt lat="42.49785300717376" lon="2.7489979483344458"><ele>136.0</ele><time>2026-04-09T13:06:24Z</time></trkpt><trkpt lat="42.49790538642215" lon="2.749116140059971"><ele>135.8</ele><time>2026-04-09T13:06:25Z</time></trkpt><trkpt lat="42.49795583908824" lon="2.7492356660206427"><ele>135.6</ele><time>2026-04-09T13:06:26Z</time></trkpt><trkpt lat="42.49800532180416" lon="2.7493571108425123"><ele>135.4</ele><time>2026-04-09T13:06:27Z</time></trkpt><trkpt lat="42.498064865085624" lon="2.7494719037469766"><ele>135.2</ele><time>2026-04-09T13:06:28Z</time></trkpt><trkpt lat="42.498137002934634" lon="2.749592849994503"><ele>135.0</ele><time>2026-04-09T13:06:29Z</time></trkpt><trkpt lat="42.498214729642804" lon="2.7497252106708663"><ele>135.0</ele><time>2026-04-09T13:06:30Z</time></trkpt><trkpt lat="42.49830122803834" lon="2.749868328273799"><ele>135.0</ele><time>2026-04-09T13:06:31Z</time></trkpt><trkpt lat="42.49838614664636" lon="2.750005896555277"><ele>135.0</ele><time>2026-04-09T13:06:32Z</time></trkpt><trkpt lat="42.498473148006276" lon="2.750141191809427"><ele>135.0</ele><time>2026-04-09T13:06:33Z</time></trkpt><trkpt lat="42.49856095667816" lon="2.7502781843882316"><ele>136.25</ele><time>2026-04-09T13:06:34Z</time></trkpt><trkpt lat="42.49864676313465" lon="2.7504151319548074"><ele>137.5</ele><time>2026-04-09T13:06:35Z</time></trkpt><trkpt lat="42.49873231859336" lon="2.750554172657643"><ele>138.75</ele><time>2026-04-09T13:06:36Z</time></trkpt><trkpt lat="42.49881866982338" lon="2.750692911874508"><ele>140.0</ele><time>2026-04-09T13:06:37Z</time></trkpt><trkpt lat="42.4989028063435" lon="2.7508329784177232"><ele>140.0</ele><time>2026-04-09T13:06:38Z</time></trkpt><trkpt lat="42.49898312207449" lon="2.750975122115864"><ele>140.0</ele><time>2026-04-09T13:06:39Z</time></trkpt><trkpt lat="42.499054320550975" lon="2.7511258647152874"><ele>140.0</ele><time>2026-04-09T13:06:40Z</time></trkpt><trkpt lat="42.49912126338178" lon="2.7512778236503617"><ele>140.0</ele><time>2026-04-09T13:06:41Z</time></trkpt><trkpt lat="42.49917975634512" lon="2.7514355899938194"><ele>139.25</ele><time>2026-04-09T13:06:42Z</time></trkpt><trkpt lat="42.499229480574506" lon="2.7515952528236522"><ele>138.5</ele><time>2026-04-09T13:06:43Z</time></trkpt><trkpt lat="42.499275210627694" lon="2.7517584414470004"><ele>137.75</ele><time>2026-04-09T13:06:44Z</time></trkpt><trkpt lat="42.49931473447909" lon="2.7519220907958313"><ele>137.0</ele><time>2026-04-09T13:06:45Z</time></trkpt><trkpt lat="42.499352174395106" lon="2.752084136519775"><ele>135.25</ele><time>2026-04-09T13:06:46Z</time></trkpt><trkpt lat="42.4993867582657" lon="2.752247925198835"><ele>133.5</ele><time>2026-04-09T13:06:47Z</time></trkpt><trkpt lat="42.49942573083978" lon="2.7524108219471137"><ele>131.75</ele><time>2026-04-09T13:06:48Z</time></trkpt><trkpt lat="42.499478443497004" lon="2.752575829793574"><ele>130.0</ele><time>2026-04-09T13:06:49Z</time></trkpt><trkpt lat="42.49954315854688" lon="2.7527383615303878"><ele>132.25</ele><time>2026-04-09T13:06:50Z</time></trkpt><trkpt lat="42.49961796565754" lon="2.7529043861469327"><ele>134.5</ele><time>2026-04-09T13:06:51Z</time></trkpt><trkpt lat="42.49969269827349" lon="2.7530750492088774"><ele>136.75</ele><time>2026-04-09T13:06:52Z</time></trkpt><trkpt lat="42.49976958418459" lon="2.753253492113411"><ele>139.0</ele><time>2026-04-09T13:06:53Z</time></trkpt><trkpt lat="42.49984559157644" lon="2.753438026099832"><ele>139.0</ele><time>2026-04-09T13:06:54Z</time></trkpt><trkpt lat="42.49992414063612" lon="2.7536190088743786"><ele>139.0</ele><time>2026-04-09T13:06:55Z</time></trkpt><trkpt lat="42.5000000084005" lon="2.753795455541215"><ele>139.0</ele><time>2026-04-09T13:06:56Z</time></trkpt><trkpt lat="42.500073815546465" lon="2.7539675996009256"><ele>139.0</ele><time>2026-04-09T13:06:57Z</time></trkpt><trkpt lat="42.500145523345985" lon="2.7541357760986065"><ele>139.0</ele><time>2026-04-09T13:06:58Z</time></trkpt><trkpt lat="42.50021786085493" lon="2.7543041023216857"><ele>139.0</ele><time>2026-04-09T13:06:59Z</time></trkpt><trkpt lat="42.50029195704069" lon="2.7544759995563055"><ele>139.0</ele><time>2026-04-09T13:07:00Z</time></trkpt><trkpt lat="42.5003661555766" lon="2.754651831598653"><ele>138.33333333333334</ele><time>2026-04-09T13:07:01Z</time></trkpt><trkpt lat="42.50044324177928" lon="2.7548275980067873"><ele>137.66666666666666</ele><time>2026-04-09T13:07:02Z</time></trkpt><trkpt lat="42.50052073451851" lon="2.7550072860441834"><ele>137.0</ele><time>2026-04-09T13:07:03Z</time></trkpt><trkpt lat="42.500598116840415" lon="2.7551817053248815"><ele>136.75</ele><time>2026-04-09T13:07:04Z</time></trkpt><trkpt lat="42.500672490114276" lon="2.755349553428654"><ele>136.5</ele><time>2026-04-09T13:07:05Z</time></trkpt><trkpt lat="42.500745117567725" lon="2.7555130708122495"><ele>136.25</ele><time>2026-04-09T13:07:06Z</time></trkpt><trkpt lat="42.50081487734616" lon="2.7556745221720322"><ele>136.0</ele><time>2026-04-09T13:07:07Z</time></trkpt><trkpt lat="42.50088221634573" lon="2.755835871828937"><ele>136.0</ele><time>2026-04-09T13:07:08Z</time></trkpt><trkpt lat="42.5009533408704" lon="2.755993506686679"><ele>136.0</ele><time>2026-04-09T13:07:09Z</time></trkpt><trkpt lat="42.50102644102374" lon="2.756150427777234"><ele>136.0</ele><time>2026-04-09T13:07:10Z</time></trkpt><trkpt lat="42.5010998149334" lon="2.7563067299616275"><ele>136.0</ele><time>2026-04-09T13:07:11Z</time></trkpt><trkpt lat="42.50117286166691" lon="2.75646481900295"><ele>136.0</ele><time>2026-04-09T13:07:12Z</time></trkpt><trkpt lat="42.501244302106585" lon="2.7566242113902453"><ele>136.0</ele><time>2026-04-09T13:07:13Z</time></trkpt><trkpt lat="42.50131660763779" lon="2.7567819157730993"><ele>136.0</ele><time>2026-04-09T13:07:14Z</time></trkpt><trkpt lat="42.50138788019676" lon="2.7569442310517123"><ele>136.0</ele><time>2026-04-09T13:07:15Z</time></trkpt><trkpt lat="42.50146227970369" lon="2.7571068028817436"><ele>136.0</ele><time>2026-04-09T13:07:16Z</time></trkpt><trkpt lat="42.501536614442436" lon="2.7572699485382257"><ele>136.0</ele><time>2026-04-09T13:07:17Z</time></trkpt><trkpt lat="42.501605932726534" lon="2.75742833482333"><ele>136.0</ele><time>2026-04-09T13:07:18Z</time></trkpt><trkpt lat="42.5016745140746" lon="2.757589613504468"><ele>136.0</ele><time>2026-04-09T13:07:19Z</time></trkpt><trkpt lat="42.501740741860836" lon="2.7577498520785895"><ele>135.8</ele><time>2026-04-09T13:07:20Z</time></trkpt><trkpt lat="42.50180099002021" lon="2.757895956711622"><ele>135.6</ele><time>2026-04-09T13:07:21Z</time></trkpt><trkpt lat="42.50185535250765" lon="2.758023036158032"><ele>135.4</ele><time>2026-04-09T13:07:22Z</time></trkpt><trkpt lat="42.501899480584974" lon="2.758131859934921"><ele>135.2</ele><time>2026-04-09T13:07:23Z</time></trkpt><trkpt lat="42.501940122770456" lon="2.7582365757249914"><ele>135.0</ele><time>2026-04-09T13:07:24Z</time></trkpt><trkpt lat="42.50196988545227" lon="2.7583243112333005"><ele>135.0</ele><time>2026-04-09T13:07:25Z</time></trkpt><trkpt lat="42.50201444656573" lon="2.7584794494899953"><ele>135.0</ele><time>2026-04-09T13:07:27Z</time></trkpt><trkpt lat="42.50204485506221" lon="2.758623931100249"><ele>135.0</ele><time>2026-04-09T13:07:29Z</time></trkpt><trkpt lat="42.502060587942914" lon="2.7587674798848645"><ele>135.0</ele><time>2026-04-09T13:07:31Z</time></trkpt><trkpt lat="42.502023247466816" lon="2.7589161351568023"><ele>134.8</ele><time>2026-04-09T13:07:33Z</time></trkpt><trkpt lat="42.5019791229475" lon="2.7590755648606473"><ele>134.6</ele><time>2026-04-09T13:07:35Z</time></trkpt><trkpt lat="42.50198980898874" lon="2.759165917439337"><ele>134.4</ele><time>2026-04-09T13:07:36Z</time></trkpt><trkpt lat="42.502026677055106" lon="2.7592447032022336"><ele>134.2</ele><time>2026-04-09T13:07:37Z</time></trkpt><trkpt lat="42.50216683025616" lon="2.7593253066892833"><ele>134.0</ele><time>2026-04-09T13:07:39Z</time></trkpt><trkpt lat="42.502246405393635" lon="2.759345791690433"><ele>134.0</ele><time>2026-04-09T13:07:40Z</time></trkpt><trkpt lat="42.502318518066375" lon="2.759393470282701"><ele>134.0</ele><time>2026-04-09T13:07:41Z</time></trkpt><trkpt lat="42.50238745743636" lon="2.759463322136067"><ele>134.0</ele><time>2026-04-09T13:07:42Z</time></trkpt><trkpt lat="42.502456767749244" lon="2.7595488466877085"><ele>134.0</ele><time>2026-04-09T13:07:43Z</time></trkpt><trkpt lat="42.50253246401562" lon="2.7596438427859526"><ele>134.0</ele><time>2026-04-09T13:07:44Z</time></trkpt><trkpt lat="42.502604594974414" lon="2.7597508425058455"><ele>134.0</ele><time>2026-04-09T13:07:45Z</time></trkpt><trkpt lat="42.50267479962102" lon="2.759875141364821"><ele>134.0</ele><time>2026-04-09T13:07:46Z</time></trkpt><trkpt lat="42.50274531539286" lon="2.760016023402753"><ele>134.0</ele><time>2026-04-09T13:07:47Z</time></trkpt><trkpt lat="42.50281527817225" lon="2.7601531474081384"><ele>134.0</ele><time>2026-04-09T13:07:48Z</time></trkpt><trkpt lat="42.502886627036666" lon="2.760297839134604"><ele>133.5</ele><time>2026-04-09T13:07:49Z</time></trkpt><trkpt lat="42.502960216994055" lon="2.7604482879118506"><ele>133.0</ele><time>2026-04-09T13:07:50Z</time></trkpt><trkpt lat="42.50303015891861" lon="2.760601591450149"><ele>132.5</ele><time>2026-04-09T13:07:51Z</time></trkpt><trkpt lat="42.5030994019895" lon="2.760757348010089"><ele>132.0</ele><time>2026-04-09T13:07:52Z</time></trkpt><trkpt lat="42.50316963432658" lon="2.7609145064329206"><ele>131.75</ele><time>2026-04-09T13:07:53Z</time></trkpt><trkpt lat="42.503240052919935" lon="2.761075282157701"><ele>131.5</ele><time>2026-04-09T13:07:54Z</time></trkpt><trkpt lat="42.50331371623633" lon="2.7612409948384045"><ele>131.25</ele><time>2026-04-09T13:07:55Z</time></trkpt><trkpt lat="42.503389105024894" lon="2.7614102105598435"><ele>131.0</ele><time>2026-04-09T13:07:56Z</time></trkpt><trkpt lat="42.50346547923814" lon="2.7615860229907168"><ele>131.0</ele><time>2026-04-09T13:07:57Z</time></trkpt><trkpt lat="42.50354623433716" lon="2.761764438740433"><ele>131.0</ele><time>2026-04-09T13:07:58Z</time></trkpt><trkpt lat="42.50362909601079" lon="2.761947254948632"><ele>131.0</ele><time>2026-04-09T13:07:59Z</time></trkpt><trkpt lat="42.50371261474739" lon="2.762128945217879"><ele>130.66666666666666</ele><time>2026-04-09T13:08:00Z</time></trkpt><trkpt lat="42.50379573603775" lon="2.7623151409388806"><ele>130.33333333333334</ele><time>2026-04-09T13:08:01Z</time></trkpt><trkpt lat="42.50388263959245" lon="2.7625094435716826"><ele>130.0</ele><time>2026-04-09T13:08:02Z</time></trkpt><trkpt lat="42.5039717341757" lon="2.7627085313962"><ele>130.0</ele><time>2026-04-09T13:08:03Z</time></trkpt><trkpt lat="42.50406516952354" lon="2.7629134968697704"><ele>130.0</ele><time>2026-04-09T13:08:04Z</time></trkpt><trkpt lat="42.504156526567954" lon="2.763113436111463"><ele>130.0</ele><time>2026-04-09T13:08:05Z</time></trkpt><trkpt lat="42.504249828957555" lon="2.7633214129690082"><ele>130.0</ele><time>2026-04-09T13:08:06Z</time></trkpt><trkpt lat="42.50434476571933" lon="2.7635220710561215"><ele>130.0</ele><time>2026-04-09T13:08:07Z</time></trkpt><trkpt lat="42.504437614919844" lon="2.7637277406778757"><ele>130.0</ele><time>2026-04-09T13:08:08Z</time></trkpt><trkpt lat="42.50453051598735" lon="2.7639279306655733"><ele>130.33333333333334</ele><time>2026-04-09T13:08:09Z</time></trkpt><trkpt lat="42.50461916373326" lon="2.7641243325134948"><ele>130.66666666666666</ele><time>2026-04-09T13:08:10Z</time></trkpt><trkpt lat="42.50470458733903" lon="2.764315554513477"><ele>131.0</ele><time>2026-04-09T13:08:11Z</time></trkpt><trkpt lat="42.504792232275584" lon="2.764504195278622"><ele>131.0</ele><time>2026-04-09T13:08:12Z</time></trkpt><trkpt lat="42.50487649575914" lon="2.7646915434145396"><ele>131.0</ele><time>2026-04-09T13:08:13Z</time></trkpt><trkpt lat="42.504958111306685" lon="2.7648727026342823"><ele>131.0</ele><time>2026-04-09T13:08:14Z</time></trkpt><trkpt lat="42.505038523411116" lon="2.765057630885185"><ele>130.33333333333331</ele><time>2026-04-09T13:08:15Z</time></trkpt><trkpt lat="42.50511708174945" lon="2.7652359693962683"><ele>129.66666666666666</ele><time>2026-04-09T13:08:16Z</time></trkpt><trkpt lat="42.50519426220327" lon="2.765414504993059"><ele>129.0</ele><time>2026-04-09T13:08:17Z</time></trkpt><trkpt lat="42.50527264751782" lon="2.765586048677285"><ele>129.0</ele><time>2026-04-09T13:08:18Z</time></trkpt><trkpt lat="42.50534747889487" lon="2.765753268905047"><ele>129.0</ele><time>2026-04-09T13:08:19Z</time></trkpt><trkpt lat="42.50542029655304" lon="2.765917613096474"><ele>129.0</ele><time>2026-04-09T13:08:20Z</time></trkpt><trkpt lat="42.50549295389859" lon="2.766083135059599"><ele>129.0</ele><time>2026-04-09T13:08:21Z</time></trkpt><trkpt lat="42.50556886805789" lon="2.766252469789642"><ele>128.66666666666666</ele><time>2026-04-09T13:08:22Z</time></trkpt><trkpt lat="42.50564654653309" lon="2.7664260731893373"><ele>128.33333333333331</ele><time>2026-04-09T13:08:23Z</time></trkpt><trkpt lat="42.50572629854453" lon="2.7666042520089342"><ele>128.0</ele><time>2026-04-09T13:08:24Z</time></trkpt><trkpt lat="42.505809686833835" lon="2.76678932817843"><ele>127.66666666666666</ele><time>2026-04-09T13:08:25Z</time></trkpt><trkpt lat="42.505894270497066" lon="2.7669796474773447"><ele>127.33333333333334</ele><time>2026-04-09T13:08:26Z</time></trkpt><trkpt lat="42.50597998064454" lon="2.767172496628852"><ele>127.0</ele><time>2026-04-09T13:08:27Z</time></trkpt><trkpt lat="42.50606565543887" lon="2.7673653925266075"><ele>127.0</ele><time>2026-04-09T13:08:28Z</time></trkpt><trkpt lat="42.50615360136834" lon="2.7675604152647546"><ele>127.0</ele><time>2026-04-09T13:08:29Z</time></trkpt><trkpt lat="42.5062420741973" lon="2.7677563452828533"><ele>127.0</ele><time>2026-04-09T13:08:30Z</time></trkpt><trkpt lat="42.50632963039016" lon="2.7679541759282404"><ele>127.33333333333334</ele><time>2026-04-09T13:08:31Z</time></trkpt><trkpt lat="42.50641768216018" lon="2.768150717181488"><ele>127.66666666666666</ele><time>2026-04-09T13:08:32Z</time></trkpt><trkpt lat="42.506505861874224" lon="2.7683457105479286"><ele>128.0</ele><time>2026-04-09T13:08:33Z</time></trkpt><trkpt lat="42.50659483549796" lon="2.7685416931104347"><ele>127.33333333333333</ele><time>2026-04-09T13:08:34Z</time></trkpt><trkpt lat="42.50668273928276" lon="2.7687400728983516"><ele>126.66666666666666</ele><time>2026-04-09T13:08:35Z</time></trkpt><trkpt lat="42.5067701193349" lon="2.7689376743232876"><ele>126.0</ele><time>2026-04-09T13:08:36Z</time></trkpt><trkpt lat="42.50685804826238" lon="2.7691319187543373"><ele>126.0</ele><time>2026-04-09T13:08:37Z</time></trkpt><trkpt lat="42.50694385806997" lon="2.7693252560921913"><ele>126.0</ele><time>2026-04-09T13:08:38Z</time></trkpt><trkpt lat="42.507029643411485" lon="2.769519146864105"><ele>126.0</ele><time>2026-04-09T13:08:39Z</time></trkpt><trkpt lat="42.507115472591735" lon="2.7697108031069235"><ele>125.66666666666666</ele><time>2026-04-09T13:08:40Z</time></trkpt><trkpt lat="42.50720305923881" lon="2.7699001783829416"><ele>125.33333333333333</ele><time>2026-04-09T13:08:41Z</time></trkpt><trkpt lat="42.50728891773669" lon="2.7700888425572536"><ele>125.0</ele><time>2026-04-09T13:08:42Z</time></trkpt><trkpt lat="42.507373830570074" lon="2.770280352723886"><ele>125.0</ele><time>2026-04-09T13:08:43Z</time></trkpt><trkpt lat="42.50746022362219" lon="2.770476663693036"><ele>125.0</ele><time>2026-04-09T13:08:44Z</time></trkpt><trkpt lat="42.507546528298825" lon="2.7706717434572337"><ele>125.0</ele><time>2026-04-09T13:08:45Z</time></trkpt><trkpt lat="42.50763514045133" lon="2.7708693564235"><ele>124.66666666666666</ele><time>2026-04-09T13:08:46Z</time></trkpt><trkpt lat="42.50772470034233" lon="2.7710664475106483"><ele>124.33333333333334</ele><time>2026-04-09T13:08:47Z</time></trkpt><trkpt lat="42.5078141870268" lon="2.7712679721390674"><ele>124.0</ele><time>2026-04-09T13:08:48Z</time></trkpt><trkpt lat="42.50790567765001" lon="2.7714705875976375"><ele>124.0</ele><time>2026-04-09T13:08:49Z</time></trkpt><trkpt lat="42.50799624759731" lon="2.7716725190334732"><ele>124.0</ele><time>2026-04-09T13:08:50Z</time></trkpt><trkpt lat="42.50808696745282" lon="2.7718776763182116"><ele>124.0</ele><time>2026-04-09T13:08:51Z</time></trkpt><trkpt lat="42.5081794793592" lon="2.772083194610233"><ele>124.0</ele><time>2026-04-09T13:08:52Z</time></trkpt><trkpt lat="42.50827062622808" lon="2.7722889703920672"><ele>124.0</ele><time>2026-04-09T13:08:53Z</time></trkpt><trkpt lat="42.508362269794645" lon="2.772493860961432"><ele>124.0</ele><time>2026-04-09T13:08:54Z</time></trkpt><trkpt lat="42.50845369064292" lon="2.7726980217809154"><ele>123.33333333333334</ele><time>2026-04-09T13:08:55Z</time></trkpt><trkpt lat="42.50854444348615" lon="2.772900416273413"><ele>122.66666666666666</ele><time>2026-04-09T13:08:56Z</time></trkpt><trkpt lat="42.508635219613225" lon="2.77309914834072"><ele>122.0</ele><time>2026-04-09T13:08:57Z</time></trkpt><trkpt lat="42.50872484460056" lon="2.773295555525419"><ele>122.0</ele><time>2026-04-09T13:08:58Z</time></trkpt><trkpt lat="42.508812078512705" lon="2.773491971239778"><ele>122.0</ele><time>2026-04-09T13:08:59Z</time></trkpt><trkpt lat="42.5088981968827" lon="2.773690129656806"><ele>122.0</ele><time>2026-04-09T13:09:00Z</time></trkpt><trkpt lat="42.50898335907991" lon="2.773886170172511"><ele>122.0</ele><time>2026-04-09T13:09:01Z</time></trkpt><trkpt lat="42.50906551507761" lon="2.774085126046763"><ele>122.0</ele><time>2026-04-09T13:09:02Z</time></trkpt><trkpt lat="42.509140646663816" lon="2.7742857194252193"><ele>122.0</ele><time>2026-04-09T13:09:03Z</time></trkpt><trkpt lat="42.50922084661448" lon="2.7744817108140785"><ele>122.0</ele><time>2026-04-09T13:09:04Z</time></trkpt><trkpt lat="42.50930083117905" lon="2.774675713373457"><ele>122.0</ele><time>2026-04-09T13:09:05Z</time></trkpt><trkpt lat="42.50938596613961" lon="2.774862964822756"><ele>122.0</ele><time>2026-04-09T13:09:06Z</time></trkpt><trkpt lat="42.50946960043591" lon="2.775047633330029"><ele>122.0</ele><time>2026-04-09T13:09:07Z</time></trkpt><trkpt lat="42.50955487924071" lon="2.7752314721563827"><ele>122.0</ele><time>2026-04-09T13:09:08Z</time></trkpt><trkpt lat="42.50964322642437" lon="2.775411945897486"><ele>122.0</ele><time>2026-04-09T13:09:09Z</time></trkpt><trkpt lat="42.50973384994418" lon="2.7755879825753893"><ele>121.33333333333333</ele><time>2026-04-09T13:09:10Z</time></trkpt><trkpt lat="42.50982545435325" lon="2.775763173283473"><ele>120.66666666666666</ele><time>2026-04-09T13:09:11Z</time></trkpt><trkpt lat="42.50991173398341" lon="2.7759428412791918"><ele>120.0</ele><time>2026-04-09T13:09:12Z</time></trkpt><trkpt lat="42.509996542262236" lon="2.7761269950961096"><ele>119.66666666666666</ele><time>2026-04-09T13:09:13Z</time></trkpt><trkpt lat="42.51008307359774" lon="2.7763174600748517"><ele>119.33333333333333</ele><time>2026-04-09T13:09:14Z</time></trkpt><trkpt lat="42.51017189282369" lon="2.776513160708108"><ele>119.0</ele><time>2026-04-09T13:09:15Z</time></trkpt><trkpt lat="42.510260546242264" lon="2.776708485843784"><ele>118.66666666666666</ele><time>2026-04-09T13:09:16Z</time></trkpt><trkpt lat="42.51035161861566" lon="2.7769073233325003"><ele>118.33333333333334</ele><time>2026-04-09T13:09:17Z</time></trkpt><trkpt lat="42.51044401173244" lon="2.77710708666739"><ele>118.0</ele><time>2026-04-09T13:09:18Z</time></trkpt><trkpt lat="42.51053643051445" lon="2.7773090950175705"><ele>117.0</ele><time>2026-04-09T13:09:19Z</time></trkpt><trkpt lat="42.51062920451411" lon="2.7775117315620976"><ele>116.0</ele><time>2026-04-09T13:09:20Z</time></trkpt><trkpt lat="42.51072182421532" lon="2.7777171360436888"><ele>115.0</ele><time>2026-04-09T13:09:21Z</time></trkpt><trkpt lat="42.51081481328176" lon="2.7779278099658007"><ele>115.0</ele><time>2026-04-09T13:09:22Z</time></trkpt><trkpt lat="42.51090554789415" lon="2.778139270518911"><ele>115.0</ele><time>2026-04-09T13:09:23Z</time></trkpt><trkpt lat="42.51099509411475" lon="2.778346214403763"><ele>115.0</ele><time>2026-04-09T13:09:24Z</time></trkpt><trkpt lat="42.51108314646617" lon="2.7785479906293244"><ele>115.0</ele><time>2026-04-09T13:09:25Z</time></trkpt><trkpt lat="42.51116929583612" lon="2.778743815034546"><ele>115.0</ele><time>2026-04-09T13:09:26Z</time></trkpt><trkpt lat="42.51125504092455" lon="2.7789328198097882"><ele>115.0</ele><time>2026-04-09T13:09:27Z</time></trkpt><trkpt lat="42.51133977479363" lon="2.7791132275711092"><ele>115.66666666666667</ele><time>2026-04-09T13:09:28Z</time></trkpt><trkpt lat="42.51142179632794" lon="2.7792916407612083"><ele>116.33333333333334</ele><time>2026-04-09T13:09:29Z</time></trkpt><trkpt lat="42.51150298834796" lon="2.7794698819085006"><ele>117.0</ele><time>2026-04-09T13:09:30Z</time></trkpt><trkpt lat="42.511580911143355" lon="2.7796468703851387"><ele>117.0</ele><time>2026-04-09T13:09:31Z</time></trkpt><trkpt lat="42.511654653430774" lon="2.779823535229344"><ele>117.0</ele><time>2026-04-09T13:09:32Z</time></trkpt><trkpt lat="42.511727023404994" lon="2.779998138905264"><ele>117.0</ele><time>2026-04-09T13:09:33Z</time></trkpt><trkpt lat="42.511798300905134" lon="2.7801741864675824"><ele>117.0</ele><time>2026-04-09T13:09:34Z</time></trkpt><trkpt lat="42.51187067372033" lon="2.7803486495699814"><ele>117.25</ele><time>2026-04-09T13:09:35Z</time></trkpt><trkpt lat="42.51194403244541" lon="2.780520915276964"><ele>117.5</ele><time>2026-04-09T13:09:36Z</time></trkpt><trkpt lat="42.51201714299819" lon="2.780691559120135"><ele>117.75</ele><time>2026-04-09T13:09:37Z</time></trkpt><trkpt lat="42.512091156408815" lon="2.7808618552069273"><ele>118.0</ele><time>2026-04-09T13:09:38Z</time></trkpt><trkpt lat="42.51216518302315" lon="2.781029862743007"><ele>118.0</ele><time>2026-04-09T13:09:39Z</time></trkpt><trkpt lat="42.51223839513149" lon="2.781194875103565"><ele>118.0</ele><time>2026-04-09T13:09:40Z</time></trkpt><trkpt lat="42.512309508986874" lon="2.781356589442511"><ele>118.0</ele><time>2026-04-09T13:09:41Z</time></trkpt><trkpt lat="42.51237923124743" lon="2.781518249989705"><ele>118.0</ele><time>2026-04-09T13:09:42Z</time></trkpt><trkpt lat="42.51244534693307" lon="2.7816784263089005"><ele>118.0</ele><time>2026-04-09T13:09:43Z</time></trkpt><trkpt lat="42.51250760285783" lon="2.781838862475398"><ele>118.0</ele><time>2026-04-09T13:09:44Z</time></trkpt><trkpt lat="42.51256645866725" lon="2.781997522960678"><ele>118.0</ele><time>2026-04-09T13:09:45Z</time></trkpt><trkpt lat="42.512620598913045" lon="2.782159263094665"><ele>118.0</ele><time>2026-04-09T13:09:46Z</time></trkpt><trkpt lat="42.51266645685809" lon="2.782320946136426"><ele>118.0</ele><time>2026-04-09T13:09:47Z</time></trkpt><trkpt lat="42.512701993731625" lon="2.7824855046655252"><ele>118.0</ele><time>2026-04-09T13:09:48Z</time></trkpt><trkpt lat="42.51273272323143" lon="2.782650413468205"><ele>118.0</ele><time>2026-04-09T13:09:49Z</time></trkpt><trkpt lat="42.51276184512428" lon="2.7828129792924985"><ele>118.0</ele><time>2026-04-09T13:09:50Z</time></trkpt><trkpt lat="42.51279261239758" lon="2.7829709188387817"><ele>117.75</ele><time>2026-04-09T13:09:51Z</time></trkpt><trkpt lat="42.51282573371774" lon="2.783127843984713"><ele>117.5</ele><time>2026-04-09T13:09:52Z</time></trkpt><trkpt lat="42.51286144852201" lon="2.7832805611689597"><ele>117.25</ele><time>2026-04-09T13:09:53Z</time></trkpt><trkpt lat="42.5129002015875" lon="2.7834278204951772"><ele>117.0</ele><time>2026-04-09T13:09:54Z</time></trkpt><trkpt lat="42.51294843456081" lon="2.7835668296062144"><ele>117.0</ele><time>2026-04-09T13:09:55Z</time></trkpt><trkpt lat="42.51300247958677" lon="2.783700198992951"><ele>116.99999999999999</ele><time>2026-04-09T13:09:56Z</time></trkpt><trkpt lat="42.5130593708965" lon="2.7838277453665903"><ele>116.99999999999999</ele><time>2026-04-09T13:09:57Z</time></trkpt><trkpt lat="42.5131151325983" lon="2.7839531722931854"><ele>117.0</ele><time>2026-04-09T13:09:58Z</time></trkpt><trkpt lat="42.51317064902465" lon="2.7840751062584843"><ele>117.0</ele><time>2026-04-09T13:09:59Z</time></trkpt><trkpt lat="42.513224880360674" lon="2.784195696829466"><ele>117.0</ele><time>2026-04-09T13:10:00Z</time></trkpt><trkpt lat="42.51327935306806" lon="2.7843215171246776"><ele>116.99999999999999</ele><time>2026-04-09T13:10:01Z</time></trkpt><trkpt lat="42.51333636918358" lon="2.784451302036904"><ele>116.99999999999999</ele><time>2026-04-09T13:10:02Z</time></trkpt><trkpt lat="42.513391689006596" lon="2.7845779632995655"><ele>117.0</ele><time>2026-04-09T13:10:03Z</time></trkpt><trkpt lat="42.51344287068625" lon="2.784701926364626"><ele>117.0</ele><time>2026-04-09T13:10:04Z</time></trkpt><trkpt lat="42.513498053267405" lon="2.7848228099614394"><ele>116.8</ele><time>2026-04-09T13:10:05Z</time></trkpt><trkpt lat="42.51355174977265" lon="2.7849423102838733"><ele>116.6</ele><time>2026-04-09T13:10:06Z</time></trkpt><trkpt lat="42.51360521114761" lon="2.7850595155569087"><ele>116.39999999999999</ele><time>2026-04-09T13:10:07Z</time></trkpt><trkpt lat="42.513656286792624" lon="2.785173529036171"><ele>116.19999999999999</ele><time>2026-04-09T13:10:08Z</time></trkpt><trkpt lat="42.51370739996215" lon="2.7852860905948194"><ele>116.0</ele><time>2026-04-09T13:10:09Z</time></trkpt><trkpt lat="42.51375743787462" lon="2.7853958297038206"><ele>115.83333333333333</ele><time>2026-04-09T13:10:10Z</time></trkpt><trkpt lat="42.5138088462347" lon="2.785503137003562"><ele>115.66666666666666</ele><time>2026-04-09T13:10:11Z</time></trkpt><trkpt lat="42.513861153897125" lon="2.7856045522842816"><ele>115.5</ele><time>2026-04-09T13:10:12Z</time></trkpt><trkpt lat="42.513916352427735" lon="2.7856999190033713"><ele>115.33333333333334</ele><time>2026-04-09T13:10:13Z</time></trkpt><trkpt lat="42.51397164842693" lon="2.7857900883723983"><ele>115.16666666666667</ele><time>2026-04-09T13:10:14Z</time></trkpt><trkpt lat="42.51402867288326" lon="2.785874459517691"><ele>115.0</ele><time>2026-04-09T13:10:15Z</time></trkpt><trkpt lat="42.514084990937874" lon="2.78595547464268"><ele>115.16666666666667</ele><time>2026-04-09T13:10:16Z</time></trkpt><trkpt lat="42.51414137347821" lon="2.7860339715585267"><ele>115.33333333333334</ele><time>2026-04-09T13:10:17Z</time></trkpt><trkpt lat="42.514200942470296" lon="2.786112385407109"><ele>115.5</ele><time>2026-04-09T13:10:18Z</time></trkpt><trkpt lat="42.514259974374724" lon="2.786189691162871"><ele>115.66666666666666</ele><time>2026-04-09T13:10:19Z</time></trkpt><trkpt lat="42.51431850078917" lon="2.78626576295879"><ele>115.83333333333333</ele><time>2026-04-09T13:10:20Z</time></trkpt><trkpt lat="42.51437579108261" lon="2.7863386833953507"><ele>116.0</ele><time>2026-04-09T13:10:21Z</time></trkpt><trkpt lat="42.51442960698004" lon="2.786405974107359"><ele>116.0</ele><time>2026-04-09T13:10:22Z</time></trkpt><trkpt lat="42.51447689121883" lon="2.7864660515862063"><ele>116.0</ele><time>2026-04-09T13:10:23Z</time></trkpt><trkpt lat="42.514548033022066" lon="2.786589038603172"><ele>116.0</ele><time>2026-04-09T13:10:25Z</time></trkpt><trkpt lat="42.514590596134724" lon="2.7867290577288464"><ele>116.0</ele><time>2026-04-09T13:10:27Z</time></trkpt><trkpt lat="42.51457310298938" lon="2.7868866643255017"><ele>116.0</ele><time>2026-04-09T13:10:29Z</time></trkpt><trkpt lat="42.51454948721477" lon="2.7870369336773995"><ele>115.8</ele><time>2026-04-09T13:10:31Z</time></trkpt><trkpt lat="42.514613866989954" lon="2.7871739929922033"><ele>115.6</ele><time>2026-04-09T13:10:33Z</time></trkpt><trkpt lat="42.5146735538103" lon="2.787206038327895"><ele>115.4</ele><time>2026-04-09T13:10:34Z</time></trkpt><trkpt lat="42.51473757266257" lon="2.787209632357211"><ele>115.2</ele><time>2026-04-09T13:10:35Z</time></trkpt><trkpt lat="42.51485648066748" lon="2.7872137780837"><ele>115.0</ele><time>2026-04-09T13:10:37Z</time></trkpt><trkpt lat="42.514958495304626" lon="2.7872905955648277"><ele>115.0</ele><time>2026-04-09T13:10:39Z</time></trkpt><trkpt lat="42.51504736526142" lon="2.7874174431858982"><ele>115.0</ele><time>2026-04-09T13:10:41Z</time></trkpt><trkpt lat="42.51509000891545" lon="2.787495104403455"><ele>115.0</ele><time>2026-04-09T13:10:42Z</time></trkpt><trkpt lat="42.51513200685523" lon="2.7875858465140704"><ele>115.0</ele><time>2026-04-09T13:10:43Z</time></trkpt><trkpt lat="42.51517507955946" lon="2.7876862172534786"><ele>115.0</ele><time>2026-04-09T13:10:44Z</time></trkpt><trkpt lat="42.515224534346466" lon="2.78779479287695"><ele>115.0</ele><time>2026-04-09T13:10:45Z</time></trkpt><trkpt lat="42.515278717934166" lon="2.787912621634878"><ele>115.0</ele><time>2026-04-09T13:10:46Z</time></trkpt><trkpt lat="42.515338101932144" lon="2.788046235078437"><ele>115.0</ele><time>2026-04-09T13:10:47Z</time></trkpt><trkpt lat="42.51540314611867" lon="2.7881913493415524"><ele>115.0</ele><time>2026-04-09T13:10:48Z</time></trkpt><trkpt lat="42.515468943878766" lon="2.7883320264711284"><ele>115.0</ele><time>2026-04-09T13:10:49Z</time></trkpt><trkpt lat="42.51553808102182" lon="2.7884836944302895"><ele>115.0</ele><time>2026-04-09T13:10:50Z</time></trkpt><trkpt lat="42.51560894855063" lon="2.788648073979023"><ele>115.0</ele><time>2026-04-09T13:10:51Z</time></trkpt><trkpt lat="42.51568447580752" lon="2.7888207626389367"><ele>115.0</ele><time>2026-04-09T13:10:52Z</time></trkpt><trkpt lat="42.51576000522392" lon="2.788994420261463"><ele>114.75</ele><time>2026-04-09T13:10:53Z</time></trkpt><trkpt lat="42.51583960371358" lon="2.7891671130912274"><ele>114.5</ele><time>2026-04-09T13:10:54Z</time></trkpt><trkpt lat="42.51591957284794" lon="2.7893374841691827"><ele>114.25</ele><time>2026-04-09T13:10:55Z</time></trkpt><trkpt lat="42.515997377852905" lon="2.789508456961834"><ele>114.0</ele><time>2026-04-09T13:10:56Z</time></trkpt><trkpt lat="42.516074869927984" lon="2.7896789641599025"><ele>113.5</ele><time>2026-04-09T13:10:57Z</time></trkpt><trkpt lat="42.51615664837141" lon="2.789843932015172"><ele>113.0</ele><time>2026-04-09T13:10:58Z</time></trkpt><trkpt lat="42.51624499118326" lon="2.790001152612844"><ele>112.5</ele><time>2026-04-09T13:10:59Z</time></trkpt><trkpt lat="42.51633873099808" lon="2.790152726818065"><ele>112.0</ele><time>2026-04-09T13:11:00Z</time></trkpt><trkpt lat="42.516435202362835" lon="2.790298162792458"><ele>110.75</ele><time>2026-04-09T13:11:01Z</time></trkpt><trkpt lat="42.51653361763465" lon="2.7904412618239713"><ele>109.5</ele><time>2026-04-09T13:11:02Z</time></trkpt><trkpt lat="42.51663128071938" lon="2.7905865176942597"><ele>108.25</ele><time>2026-04-09T13:11:03Z</time></trkpt><trkpt lat="42.51672389345271" lon="2.790732503184201"><ele>107.0</ele><time>2026-04-09T13:11:04Z</time></trkpt><trkpt lat="42.516811776397155" lon="2.7908872885012044"><ele>107.0</ele><time>2026-04-09T13:11:05Z</time></trkpt><trkpt lat="42.516892048040575" lon="2.791048839961019"><ele>107.0</ele><time>2026-04-09T13:11:06Z</time></trkpt><trkpt lat="42.516959766376196" lon="2.7912190708392477"><ele>107.0</ele><time>2026-04-09T13:11:07Z</time></trkpt><trkpt lat="42.51701927270015" lon="2.791393211494586"><ele>107.0</ele><time>2026-04-09T13:11:08Z</time></trkpt><trkpt lat="42.517072717885114" lon="2.7915734344004175"><ele>107.0</ele><time>2026-04-09T13:11:09Z</time></trkpt><trkpt lat="42.517124754820586" lon="2.7917579466738953"><ele>107.0</ele><time>2026-04-09T13:11:10Z</time></trkpt><trkpt lat="42.51717641742489" lon="2.791945081897655"><ele>107.0</ele><time>2026-04-09T13:11:11Z</time></trkpt><trkpt lat="42.517228870485" lon="2.7921315412604826"><ele>107.0</ele><time>2026-04-09T13:11:12Z</time></trkpt><trkpt lat="42.517280773015884" lon="2.7923170909112076"><ele>106.0</ele><time>2026-04-09T13:11:13Z</time></trkpt><trkpt lat="42.51733205623082" lon="2.79250094005856"><ele>105.0</ele><time>2026-04-09T13:11:14Z</time></trkpt><trkpt lat="42.51738352835843" lon="2.792686079024733"><ele>104.0</ele><time>2026-04-09T13:11:15Z</time></trkpt><trkpt lat="42.51743777670675" lon="2.7928777784568846"><ele>103.0</ele><time>2026-04-09T13:11:16Z</time></trkpt><trkpt lat="42.5174948274393" lon="2.7930746861634606"><ele>101.66666666666667</ele><time>2026-04-09T13:11:17Z</time></trkpt><trkpt lat="42.51755269372462" lon="2.793272114601742"><ele>100.33333333333334</ele><time>2026-04-09T13:11:18Z</time></trkpt><trkpt lat="42.51761062089041" lon="2.7934732803027615"><ele>99.0</ele><time>2026-04-09T13:11:19Z</time></trkpt><trkpt lat="42.51766763855818" lon="2.7936735806415647"><ele>97.0</ele><time>2026-04-09T13:11:20Z</time></trkpt><trkpt lat="42.5177241880882" lon="2.7938746745001164"><ele>95.0</ele><time>2026-04-09T13:11:21Z</time></trkpt><trkpt lat="42.517781035114474" lon="2.7940773061383393"><ele>93.0</ele><time>2026-04-09T13:11:22Z</time></trkpt><trkpt lat="42.51783997099019" lon="2.794282087977203"><ele>93.33333333333333</ele><time>2026-04-09T13:11:23Z</time></trkpt><trkpt lat="42.51789771856848" lon="2.794489302492081"><ele>93.66666666666666</ele><time>2026-04-09T13:11:24Z</time></trkpt><trkpt lat="42.517954302146904" lon="2.79469635646965"><ele>94.0</ele><time>2026-04-09T13:11:25Z</time></trkpt><trkpt lat="42.51801143690702" lon="2.794905265886744"><ele>95.0</ele><time>2026-04-09T13:11:26Z</time></trkpt><trkpt lat="42.51806908889547" lon="2.7951116103068068"><ele>96.0</ele><time>2026-04-09T13:11:27Z</time></trkpt><trkpt lat="42.51812734558819" lon="2.7953180918049325"><ele>97.0</ele><time>2026-04-09T13:11:28Z</time></trkpt><trkpt lat="42.51818518922786" lon="2.7955254571125137"><ele>97.0</ele><time>2026-04-09T13:11:29Z</time></trkpt><trkpt lat="42.5182446349315" lon="2.795734983260907"><ele>97.0</ele><time>2026-04-09T13:11:30Z</time></trkpt><trkpt lat="42.51830416165327" lon="2.795947120074016"><ele>97.0</ele><time>2026-04-09T13:11:31Z</time></trkpt><trkpt lat="42.51836133141885" lon="2.7961581068933934"><ele>95.66666666666667</ele><time>2026-04-09T13:11:32Z</time></trkpt><trkpt lat="42.518418984705214" lon="2.796368851419701"><ele>94.33333333333334</ele><time>2026-04-09T13:11:33Z</time></trkpt><trkpt lat="42.51847852757768" lon="2.7965747181188445"><ele>93.0</ele><time>2026-04-09T13:11:34Z</time></trkpt><trkpt lat="42.518537645604475" lon="2.796783376443938"><ele>93.0</ele><time>2026-04-09T13:11:35Z</time></trkpt><trkpt lat="42.51859530382451" lon="2.796989427537013"><ele>93.0</ele><time>2026-04-09T13:11:36Z</time></trkpt><trkpt lat="42.51865299542032" lon="2.7971969919989528"><ele>93.0</ele><time>2026-04-09T13:11:37Z</time></trkpt><trkpt lat="42.518712613091495" lon="2.7974022889491885"><ele>93.33333333333333</ele><time>2026-04-09T13:11:38Z</time></trkpt><trkpt lat="42.51877017582861" lon="2.7976052757346497"><ele>93.66666666666666</ele><time>2026-04-09T13:11:39Z</time></trkpt><trkpt lat="42.51882746257761" lon="2.797806099805859"><ele>94.0</ele><time>2026-04-09T13:11:40Z</time></trkpt><trkpt lat="42.51888596567723" lon="2.7980055787619955"><ele>94.33333333333333</ele><time>2026-04-09T13:11:41Z</time></trkpt><trkpt lat="42.51894135048104" lon="2.7982052720733606"><ele>94.66666666666667</ele><time>2026-04-09T13:11:42Z</time></trkpt><trkpt lat="42.51899650008183" lon="2.7984039851342715"><ele>95.0</ele><time>2026-04-09T13:11:43Z</time></trkpt><trkpt lat="42.51905214822633" lon="2.7986035757608847"><ele>94.0</ele><time>2026-04-09T13:11:44Z</time></trkpt><trkpt lat="42.51910680329717" lon="2.798801729934136"><ele>93.0</ele><time>2026-04-09T13:11:45Z</time></trkpt><trkpt lat="42.51916167251271" lon="2.7989998840353025"><ele>92.0</ele><time>2026-04-09T13:11:46Z</time></trkpt><trkpt lat="42.51921771185269" lon="2.799195771167761"><ele>91.66666666666667</ele><time>2026-04-09T13:11:47Z</time></trkpt><trkpt lat="42.519275127222805" lon="2.7993914543382816"><ele>91.33333333333333</ele><time>2026-04-09T13:11:48Z</time></trkpt><trkpt lat="42.519331218206304" lon="2.7995887578408483"><ele>91.0</ele><time>2026-04-09T13:11:49Z</time></trkpt><trkpt lat="42.519386663300125" lon="2.799786708214798"><ele>91.0</ele><time>2026-04-09T13:11:50Z</time></trkpt><trkpt lat="42.51944053234867" lon="2.799985962965592"><ele>91.0</ele><time>2026-04-09T13:11:51Z</time></trkpt><trkpt lat="42.5194948317948" lon="2.8001847442936736"><ele>91.0</ele><time>2026-04-09T13:11:52Z</time></trkpt><trkpt lat="42.51955134221179" lon="2.8003906247543258"><ele>90.66666666666666</ele><time>2026-04-09T13:11:53Z</time></trkpt><trkpt lat="42.519608064767716" lon="2.8005957929596144"><ele>90.33333333333333</ele><time>2026-04-09T13:11:54Z</time></trkpt><trkpt lat="42.51966445030083" lon="2.800802433406622"><ele>90.0</ele><time>2026-04-09T13:11:55Z</time></trkpt><trkpt lat="42.51972049815788" lon="2.8010086892915025"><ele>89.66666666666667</ele><time>2026-04-09T13:11:56Z</time></trkpt><trkpt lat="42.51977905855222" lon="2.8012152041603335"><ele>89.33333333333334</ele><time>2026-04-09T13:11:57Z</time></trkpt><trkpt lat="42.519837419141545" lon="2.801425833866192"><ele>89.0</ele><time>2026-04-09T13:11:58Z</time></trkpt><trkpt lat="42.51989583603838" lon="2.8016373902825795"><ele>89.0</ele><time>2026-04-09T13:11:59Z</time></trkpt><trkpt lat="42.51995171165582" lon="2.801851330323587"><ele>89.0</ele><time>2026-04-09T13:12:00Z</time></trkpt><trkpt lat="42.520008722602846" lon="2.802064418394847"><ele>89.0</ele><time>2026-04-09T13:12:01Z</time></trkpt><trkpt lat="42.52006434089769" lon="2.8022715574021064"><ele>89.0</ele><time>2026-04-09T13:12:02Z</time></trkpt><trkpt lat="42.52012002532355" lon="2.8024766019990643"><ele>89.0</ele><time>2026-04-09T13:12:03Z</time></trkpt><trkpt lat="42.52017519413396" lon="2.80267784232062"><ele>89.0</ele><time>2026-04-09T13:12:04Z</time></trkpt><trkpt lat="42.520229642423125" lon="2.802880706444625"><ele>89.0</ele><time>2026-04-09T13:12:05Z</time></trkpt><trkpt lat="42.520285199606406" lon="2.8030807968104727"><ele>89.0</ele><time>2026-04-09T13:12:06Z</time></trkpt><trkpt lat="42.52033878611959" lon="2.8032750494506997"><ele>89.0</ele><time>2026-04-09T13:12:07Z</time></trkpt><trkpt lat="42.52038896309121" lon="2.8034691504731724"><ele>89.25</ele><time>2026-04-09T13:12:08Z</time></trkpt><trkpt lat="42.52043608924074" lon="2.803662977738807"><ele>89.5</ele><time>2026-04-09T13:12:09Z</time></trkpt><trkpt lat="42.52048123801427" lon="2.8038508213991165"><ele>89.75</ele><time>2026-04-09T13:12:10Z</time></trkpt><trkpt lat="42.52052503982884" lon="2.804035869846499"><ele>90.0</ele><time>2026-04-09T13:12:11Z</time></trkpt><trkpt lat="42.52056787549993" lon="2.8042145876046343"><ele>90.0</ele><time>2026-04-09T13:12:12Z</time></trkpt><trkpt lat="42.52060969217506" lon="2.804385254000324"><ele>90.0</ele><time>2026-04-09T13:12:13Z</time></trkpt><trkpt lat="42.52064517250721" lon="2.8045449482756517"><ele>90.0</ele><time>2026-04-09T13:12:14Z</time></trkpt><trkpt lat="42.520668461869725" lon="2.8046867459360945"><ele>90.0</ele><time>2026-04-09T13:12:15Z</time></trkpt><trkpt lat="42.5206857035378" lon="2.8048202371686735"><ele>90.0</ele><time>2026-04-09T13:12:16Z</time></trkpt><trkpt lat="42.520690760257665" lon="2.8049500647673145"><ele>90.0</ele><time>2026-04-09T13:12:17Z</time></trkpt><trkpt lat="42.520688176738425" lon="2.8050737438114552"><ele>90.0</ele><time>2026-04-09T13:12:18Z</time></trkpt><trkpt lat="42.52068189494276" lon="2.8051993896956593"><ele>90.0</ele><time>2026-04-09T13:12:19Z</time></trkpt><trkpt lat="42.52067288703854" lon="2.8053177963344287"><ele>90.0</ele><time>2026-04-09T13:12:20Z</time></trkpt><trkpt lat="42.52066272760596" lon="2.8054373029571193"><ele>90.33333333333333</ele><time>2026-04-09T13:12:21Z</time></trkpt><trkpt lat="42.52065193336428" lon="2.8055509080515697"><ele>90.66666666666667</ele><time>2026-04-09T13:12:22Z</time></trkpt><trkpt lat="42.52063639815748" lon="2.8056568774905988"><ele>91.0</ele><time>2026-04-09T13:12:23Z</time></trkpt><trkpt lat="42.52060668521835" lon="2.8057480342586754"><ele>91.33333333333334</ele><time>2026-04-09T13:12:24Z</time></trkpt><trkpt lat="42.52054943725377" lon="2.805814382862932"><ele>91.66666666666667</ele><time>2026-04-09T13:12:25Z</time></trkpt><trkpt lat="42.5204826892933" lon="2.8058667015695704"><ele>92.0</ele><time>2026-04-09T13:12:26Z</time></trkpt><trkpt lat="42.520422781409486" lon="2.8059251866709913"><ele>91.66666666666667</ele><time>2026-04-09T13:12:27Z</time></trkpt><trkpt lat="42.520380654017984" lon="2.8060054351371453"><ele>91.33333333333334</ele><time>2026-04-09T13:12:28Z</time></trkpt><trkpt lat="42.52035500959742" lon="2.8061054355439503"><ele>91.0</ele><time>2026-04-09T13:12:29Z</time></trkpt><trkpt lat="42.52035102739325" lon="2.80621048968316"><ele>90.66666666666667</ele><time>2026-04-09T13:12:30Z</time></trkpt><trkpt lat="42.52036633045353" lon="2.8063155959386705"><ele>90.33333333333333</ele><time>2026-04-09T13:12:31Z</time></trkpt><trkpt lat="42.52040593444408" lon="2.806401031853309"><ele>90.0</ele><time>2026-04-09T13:12:32Z</time></trkpt><trkpt lat="42.520461727985" lon="2.806471977755942"><ele>90.0</ele><time>2026-04-09T13:12:33Z</time></trkpt><trkpt lat="42.520529868178954" lon="2.8065206842683765"><ele>90.0</ele><time>2026-04-09T13:12:34Z</time></trkpt><trkpt lat="42.520601791931014" lon="2.8065479968248455"><ele>90.0</ele><time>2026-04-09T13:12:35Z</time></trkpt><trkpt lat="42.52067472712534" lon="2.8065667320085628"><ele>90.0</ele><time>2026-04-09T13:12:36Z</time></trkpt><trkpt lat="42.52074182680534" lon="2.806615333389028"><ele>90.0</ele><time>2026-04-09T13:12:37Z</time></trkpt><trkpt lat="42.52080234234353" lon="2.8066989308097177"><ele>90.0</ele><time>2026-04-09T13:12:38Z</time></trkpt><trkpt lat="42.5208564527283" lon="2.806807145114579"><ele>89.5</ele><time>2026-04-09T13:12:39Z</time></trkpt><trkpt lat="42.520911767953955" lon="2.8069241507229186"><ele>89.0</ele><time>2026-04-09T13:12:40Z</time></trkpt><trkpt lat="42.52097317374842" lon="2.8070560997411773"><ele>88.5</ele><time>2026-04-09T13:12:41Z</time></trkpt><trkpt lat="42.521038649699875" lon="2.8072028198042407"><ele>88.0</ele><time>2026-04-09T13:12:42Z</time></trkpt><trkpt lat="42.52110284688001" lon="2.8073500768626496"><ele>88.0</ele><time>2026-04-09T13:12:43Z</time></trkpt><trkpt lat="42.52116993079664" lon="2.8075057111606316"><ele>88.0</ele><time>2026-04-09T13:12:44Z</time></trkpt><trkpt lat="42.52123850015971" lon="2.8076630784244148"><ele>88.0</ele><time>2026-04-09T13:12:45Z</time></trkpt><trkpt lat="42.52130973045565" lon="2.8078288280308232"><ele>88.0</ele><time>2026-04-09T13:12:46Z</time></trkpt><trkpt lat="42.52138374253112" lon="2.80799874986412"><ele>88.33333333333333</ele><time>2026-04-09T13:12:47Z</time></trkpt><trkpt lat="42.52145766391984" lon="2.8081725375223963"><ele>88.66666666666667</ele><time>2026-04-09T13:12:48Z</time></trkpt><trkpt lat="42.521531894089954" lon="2.808348149754825"><ele>89.0</ele><time>2026-04-09T13:12:49Z</time></trkpt><trkpt lat="42.5216089754891" lon="2.8085270805213276"><ele>88.33333333333334</ele><time>2026-04-09T13:12:50Z</time></trkpt><trkpt lat="42.52168465192157" lon="2.8087039436857433"><ele>87.66666666666667</ele><time>2026-04-09T13:12:51Z</time></trkpt><trkpt lat="42.521759898640866" lon="2.8088806477271553"><ele>87.0</ele><time>2026-04-09T13:12:52Z</time></trkpt><trkpt lat="42.521833370469224" lon="2.809058524364514"><ele>87.0</ele><time>2026-04-09T13:12:53Z</time></trkpt><trkpt lat="42.52190388529435" lon="2.809235342701571"><ele>87.0</ele><time>2026-04-09T13:12:54Z</time></trkpt><trkpt lat="42.52197064426316" lon="2.809413361564748"><ele>87.0</ele><time>2026-04-09T13:12:55Z</time></trkpt><trkpt lat="42.522032044450675" lon="2.809588164155913"><ele>87.0</ele><time>2026-04-09T13:12:56Z</time></trkpt><trkpt lat="42.52208448076226" lon="2.809753055192327"><ele>88.25</ele><time>2026-04-09T13:12:57Z</time></trkpt><trkpt lat="42.52212916943161" lon="2.8099077011851725"><ele>89.5</ele><time>2026-04-09T13:12:58Z</time></trkpt><trkpt lat="42.522168386619505" lon="2.8100616510544776"><ele>90.75</ele><time>2026-04-09T13:12:59Z</time></trkpt><trkpt lat="42.522204040251" lon="2.810214962477096"><ele>92.0</ele><time>2026-04-09T13:13:00Z</time></trkpt><trkpt lat="42.52223580176476" lon="2.810366805039575"><ele>92.0</ele><time>2026-04-09T13:13:01Z</time></trkpt><trkpt lat="42.522265728684765" lon="2.810519042465743"><ele>92.0</ele><time>2026-04-09T13:13:02Z</time></trkpt><trkpt lat="42.5222948514019" lon="2.810679831750079"><ele>92.0</ele><time>2026-04-09T13:13:03Z</time></trkpt><trkpt lat="42.52232374188549" lon="2.810848501780498"><ele>92.0</ele><time>2026-04-09T13:13:04Z</time></trkpt><trkpt lat="42.52235001801939" lon="2.8110217923503216"><ele>92.0</ele><time>2026-04-09T13:13:05Z</time></trkpt><trkpt lat="42.522373975114775" lon="2.8112041537620955"><ele>92.0</ele><time>2026-04-09T13:13:06Z</time></trkpt><trkpt lat="42.5223947427016" lon="2.811395185819727"><ele>92.0</ele><time>2026-04-09T13:13:07Z</time></trkpt><trkpt lat="42.52241024110144" lon="2.8115881412031327"><ele>92.0</ele><time>2026-04-09T13:13:08Z</time></trkpt><trkpt lat="42.52242152868588" lon="2.811780394365168"><ele>91.75</ele><time>2026-04-09T13:13:09Z</time></trkpt><trkpt lat="42.52242831303928" lon="2.811968221535813"><ele>91.5</ele><time>2026-04-09T13:13:10Z</time></trkpt><trkpt lat="42.52243279732644" lon="2.812156646528245"><ele>91.25</ele><time>2026-04-09T13:13:11Z</time></trkpt><trkpt lat="42.52243460771721" lon="2.812346885307142"><ele>91.0</ele><time>2026-04-09T13:13:12Z</time></trkpt><trkpt lat="42.52243259430894" lon="2.8125366175895143"><ele>91.25</ele><time>2026-04-09T13:13:13Z</time></trkpt><trkpt lat="42.52242484097642" lon="2.812722055338615"><ele>91.5</ele><time>2026-04-09T13:13:14Z</time></trkpt><trkpt lat="42.522410133327625" lon="2.812906389971201"><ele>91.75</ele><time>2026-04-09T13:13:15Z</time></trkpt><trkpt lat="42.522383812816585" lon="2.8130876873269854"><ele>92.0</ele><time>2026-04-09T13:13:16Z</time></trkpt><trkpt lat="42.522367124021194" lon="2.813268470115615"><ele>92.0</ele><time>2026-04-09T13:13:17Z</time></trkpt><trkpt lat="42.52234377796226" lon="2.8134513170868933"><ele>92.0</ele><time>2026-04-09T13:13:18Z</time></trkpt><trkpt lat="42.52231690090503" lon="2.8136311295190555"><ele>92.0</ele><time>2026-04-09T13:13:19Z</time></trkpt><trkpt lat="42.52228868063435" lon="2.813802952279673"><ele>92.0</ele><time>2026-04-09T13:13:20Z</time></trkpt><trkpt lat="42.52225566826058" lon="2.813967088373924"><ele>92.25</ele><time>2026-04-09T13:13:21Z</time></trkpt><trkpt lat="42.52222034139267" lon="2.814129396583584"><ele>92.5</ele><time>2026-04-09T13:13:22Z</time></trkpt><trkpt lat="42.522183554553386" lon="2.814288073099207"><ele>92.75</ele><time>2026-04-09T13:13:23Z</time></trkpt><trkpt lat="42.52214629930436" lon="2.814444029068751"><ele>93.0</ele><time>2026-04-09T13:13:24Z</time></trkpt><trkpt lat="42.52210735996778" lon="2.8146043875147484"><ele>93.25</ele><time>2026-04-09T13:13:25Z</time></trkpt><trkpt lat="42.52206887807793" lon="2.814762448636958"><ele>93.5</ele><time>2026-04-09T13:13:26Z</time></trkpt><trkpt lat="42.52202689732447" lon="2.814919611767987"><ele>93.75</ele><time>2026-04-09T13:13:27Z</time></trkpt><trkpt lat="42.52198320353793" lon="2.8150736183335496"><ele>94.0</ele><time>2026-04-09T13:13:28Z</time></trkpt><trkpt lat="42.52193937764919" lon="2.815223439485407"><ele>91.5</ele><time>2026-04-09T13:13:29Z</time></trkpt><trkpt lat="42.52189577813783" lon="2.815367642718027"><ele>89.0</ele><time>2026-04-09T13:13:30Z</time></trkpt><trkpt lat="42.5218507178699" lon="2.8155107560138903"><ele>86.5</ele><time>2026-04-09T13:13:31Z</time></trkpt><trkpt lat="42.521804805588005" lon="2.8156511399908837"><ele>84.0</ele><time>2026-04-09T13:13:32Z</time></trkpt><trkpt lat="42.52176055109123" lon="2.815788938038307"><ele>84.0</ele><time>2026-04-09T13:13:33Z</time></trkpt><trkpt lat="42.52172102832672" lon="2.8159192275390215"><ele>84.0</ele><time>2026-04-09T13:13:34Z</time></trkpt><trkpt lat="42.521688248176396" lon="2.816033194203898"><ele>84.0</ele><time>2026-04-09T13:13:35Z</time></trkpt><trkpt lat="42.52166044964657" lon="2.8161288405782723"><ele>84.0</ele><time>2026-04-09T13:13:36Z</time></trkpt><trkpt lat="42.521623445226815" lon="2.816260214588332"><ele>84.0</ele><time>2026-04-09T13:13:38Z</time></trkpt><trkpt lat="42.521599222878045" lon="2.816346930481938"><ele>84.0</ele><time>2026-04-09T13:13:40Z</time></trkpt><trkpt lat="42.52157577001254" lon="2.816429644038542"><ele>85.33333333333333</ele><time>2026-04-09T13:13:42Z</time></trkpt><trkpt lat="42.5215502254615" lon="2.816520985606033"><ele>86.66666666666667</ele><time>2026-04-09T13:13:44Z</time></trkpt><trkpt lat="42.52152599717267" lon="2.81660492425671"><ele>88.0</ele><time>2026-04-09T13:13:46Z</time></trkpt><trkpt lat="42.52147902686111" lon="2.816722397014151"><ele>89.33333333333334</ele><time>2026-04-09T13:13:48Z</time></trkpt><trkpt lat="42.52137468848562" lon="2.816794534808071"><ele>90.66666666666667</ele><time>2026-04-09T13:13:50Z</time></trkpt><trkpt lat="42.52131027861414" lon="2.8168279974449892"><ele>92.0</ele><time>2026-04-09T13:13:51Z</time></trkpt><trkpt lat="42.52125578806394" lon="2.8168947882254973"><ele>92.42857142857143</ele><time>2026-04-09T13:13:52Z</time></trkpt><trkpt lat="42.52121558501924" lon="2.8169754896481694"><ele>92.85714285714285</ele><time>2026-04-09T13:13:53Z</time></trkpt><trkpt lat="42.521191674439486" lon="2.817067242063277"><ele>93.28571428571428</ele><time>2026-04-09T13:13:54Z</time></trkpt><trkpt lat="42.5211869600337" lon="2.8171612812879494"><ele>93.71428571428572</ele><time>2026-04-09T13:13:55Z</time></trkpt><trkpt lat="42.52119987099214" lon="2.81725250337579"><ele>94.14285714285714</ele><time>2026-04-09T13:13:56Z</time></trkpt><trkpt lat="42.5212252637952" lon="2.8173380018538836"><ele>94.57142857142857</ele><time>2026-04-09T13:13:57Z</time></trkpt><trkpt lat="42.52124186864608" lon="2.817433652002436"><ele>95.0</ele><time>2026-04-09T13:13:58Z</time></trkpt><trkpt lat="42.52123488566553" lon="2.8175408748585222"><ele>93.8</ele><time>2026-04-09T13:13:59Z</time></trkpt><trkpt lat="42.5212140811314" lon="2.817651934667509"><ele>92.6</ele><time>2026-04-09T13:14:00Z</time></trkpt><trkpt lat="42.52118801290233" lon="2.8177741468987234"><ele>91.4</ele><time>2026-04-09T13:14:01Z</time></trkpt><trkpt lat="42.52116117426192" lon="2.8179056667024382"><ele>90.2</ele><time>2026-04-09T13:14:02Z</time></trkpt><trkpt lat="42.521131037487514" lon="2.8180466886640634"><ele>89.0</ele><time>2026-04-09T13:14:03Z</time></trkpt><trkpt lat="42.52109698602209" lon="2.8181932320552154"><ele>89.0</ele><time>2026-04-09T13:14:04Z</time></trkpt><trkpt lat="42.52105875781352" lon="2.818347862552885"><ele>89.0</ele><time>2026-04-09T13:14:05Z</time></trkpt><trkpt lat="42.52101805909703" lon="2.818513626489884"><ele>89.0</ele><time>2026-04-09T13:14:06Z</time></trkpt><trkpt lat="42.52097466958497" lon="2.8186790681701135"><ele>89.0</ele><time>2026-04-09T13:14:07Z</time></trkpt><trkpt lat="42.520930959348384" lon="2.8188435328301504"><ele>89.75</ele><time>2026-04-09T13:14:08Z</time></trkpt><trkpt lat="42.52088322504123" lon="2.81900930135019"><ele>90.5</ele><time>2026-04-09T13:14:09Z</time></trkpt><trkpt lat="42.520836328897666" lon="2.819178457849628"><ele>91.25</ele><time>2026-04-09T13:14:10Z</time></trkpt><trkpt lat="42.52079082250733" lon="2.819346298345314"><ele>92.0</ele><time>2026-04-09T13:14:11Z</time></trkpt><trkpt lat="42.52074517985049" lon="2.8195146546826213"><ele>92.5</ele><time>2026-04-09T13:14:12Z</time></trkpt><trkpt lat="42.520700456059664" lon="2.8196784889026096"><ele>93.0</ele><time>2026-04-09T13:14:13Z</time></trkpt><trkpt lat="42.520656805880584" lon="2.8198542177434858"><ele>93.5</ele><time>2026-04-09T13:14:14Z</time></trkpt><trkpt lat="42.52061637357499" lon="2.8200397722284336"><ele>94.0</ele><time>2026-04-09T13:14:15Z</time></trkpt><trkpt lat="42.52057942009287" lon="2.820233565247495"><ele>94.0</ele><time>2026-04-09T13:14:16Z</time></trkpt><trkpt lat="42.520554179398935" lon="2.8204359612879775"><ele>94.0</ele><time>2026-04-09T13:14:17Z</time></trkpt><trkpt lat="42.52053907668322" lon="2.820644006307196"><ele>94.0</ele><time>2026-04-09T13:14:18Z</time></trkpt><trkpt lat="42.52053667645644" lon="2.8208525762833245"><ele>93.75</ele><time>2026-04-09T13:14:19Z</time></trkpt><trkpt lat="42.52055219248746" lon="2.8210502130406767"><ele>93.5</ele><time>2026-04-09T13:14:20Z</time></trkpt><trkpt lat="42.52058399222499" lon="2.821229379248511"><ele>93.25</ele><time>2026-04-09T13:14:21Z</time></trkpt><trkpt lat="42.5206335385295" lon="2.8213840649903164"><ele>93.0</ele><time>2026-04-09T13:14:22Z</time></trkpt><trkpt lat="42.52069233211119" lon="2.821509816890328"><ele>93.0</ele><time>2026-04-09T13:14:23Z</time></trkpt><trkpt lat="42.520747276754356" lon="2.821614146480039"><ele>93.0</ele><time>2026-04-09T13:14:24Z</time></trkpt><trkpt lat="42.52079263112896" lon="2.821707667293774"><ele>93.0</ele><time>2026-04-09T13:14:25Z</time></trkpt><trkpt lat="42.520820133412094" lon="2.821787671470476"><ele>93.0</ele><time>2026-04-09T13:14:26Z</time></trkpt><trkpt lat="42.52083240774134" lon="2.8218902065230336"><ele>93.0</ele><time>2026-04-09T13:14:28Z</time></trkpt><trkpt lat="42.52081764568469" lon="2.822012000879264"><ele>93.0</ele><time>2026-04-09T13:14:32Z</time></trkpt><trkpt lat="42.520781968589" lon="2.822087124547966"><ele>93.00000000000001</ele><time>2026-04-09T13:14:33Z</time></trkpt><trkpt lat="42.52074990184832" lon="2.822164078670461"><ele>93.0</ele><time>2026-04-09T13:14:34Z</time></trkpt><trkpt lat="42.52072980597593" lon="2.822252013764688"><ele>93.0</ele><time>2026-04-09T13:14:35Z</time></trkpt><trkpt lat="42.52073255299112" lon="2.8223461354617276"><ele>93.0</ele><time>2026-04-09T13:14:36Z</time></trkpt><trkpt lat="42.52075508577043" lon="2.8224380765693318"><ele>93.0</ele><time>2026-04-09T13:14:37Z</time></trkpt><trkpt lat="42.52079798828936" lon="2.8225172664681955"><ele>93.00000000000001</ele><time>2026-04-09T13:14:38Z</time></trkpt><trkpt lat="42.52085873490213" lon="2.8225768892585172"><ele>93.0</ele><time>2026-04-09T13:14:39Z</time></trkpt><trkpt lat="42.520930674541226" lon="2.822612410859729"><ele>93.0</ele><time>2026-04-09T13:14:40Z</time></trkpt><trkpt lat="42.52100666363286" lon="2.8226116018689895"><ele>93.0</ele><time>2026-04-09T13:14:41Z</time></trkpt><trkpt lat="42.521077625568076" lon="2.8225851209594586"><ele>93.0</ele><time>2026-04-09T13:14:42Z</time></trkpt><trkpt lat="42.52113675448403" lon="2.8225312852863986"><ele>93.0</ele><time>2026-04-09T13:14:43Z</time></trkpt><trkpt lat="42.52120059907008" lon="2.8224753662095683"><ele>93.0</ele><time>2026-04-09T13:14:44Z</time></trkpt><trkpt lat="42.52127448799122" lon="2.822437316529852"><ele>93.0</ele><time>2026-04-09T13:14:45Z</time></trkpt><trkpt lat="42.521363144429024" lon="2.822421226070781"><ele>93.2</ele><time>2026-04-09T13:14:46Z</time></trkpt><trkpt lat="42.521458668135075" lon="2.822427025838103"><ele>93.4</ele><time>2026-04-09T13:14:47Z</time></trkpt><trkpt lat="42.52154616906437" lon="2.8224254778826645"><ele>93.60000000000001</ele><time>2026-04-09T13:14:48Z</time></trkpt><trkpt lat="42.52164164398128" lon="2.8224171687210817"><ele>93.80000000000001</ele><time>2026-04-09T13:14:49Z</time></trkpt><trkpt lat="42.52173816507835" lon="2.822399981517351"><ele>94.0</ele><time>2026-04-09T13:14:50Z</time></trkpt><trkpt lat="42.52183991772516" lon="2.822370387150067"><ele>94.0</ele><time>2026-04-09T13:14:51Z</time></trkpt><trkpt lat="42.52194162997067" lon="2.822338900290725"><ele>94.0</ele><time>2026-04-09T13:14:52Z</time></trkpt><trkpt lat="42.52204939967127" lon="2.822312196546159"><ele>94.0</ele><time>2026-04-09T13:14:53Z</time></trkpt><trkpt lat="42.52215997738852" lon="2.822295105846028"><ele>94.0</ele><time>2026-04-09T13:14:54Z</time></trkpt><trkpt lat="42.52227508845147" lon="2.8222833722300162"><ele>94.0</ele><time>2026-04-09T13:14:55Z</time></trkpt><trkpt lat="42.52239168956148" lon="2.8222723621263968"><ele>93.75</ele><time>2026-04-09T13:14:56Z</time></trkpt><trkpt lat="42.52250605717029" lon="2.822260935449651"><ele>93.5</ele><time>2026-04-09T13:14:57Z</time></trkpt><trkpt lat="42.52262049094401" lon="2.8222539245970024"><ele>93.25</ele><time>2026-04-09T13:14:58Z</time></trkpt><trkpt lat="42.52273144620086" lon="2.8222492021456094"><ele>93.0</ele><time>2026-04-09T13:14:59Z</time></trkpt><trkpt lat="42.5228432822222" lon="2.8222535967308833"><ele>92.60000000000001</ele><time>2026-04-09T13:15:00Z</time></trkpt><trkpt lat="42.522950776604524" lon="2.8222740224859297"><ele>92.2</ele><time>2026-04-09T13:15:01Z</time></trkpt><trkpt lat="42.52305053481363" lon="2.822309774525872"><ele>91.8</ele><time>2026-04-09T13:15:02Z</time></trkpt><trkpt lat="42.523135150251846" lon="2.8223688136505847"><ele>91.4</ele><time>2026-04-09T13:15:03Z</time></trkpt><trkpt lat="42.52320884444021" lon="2.822440992520995"><ele>91.0</ele><time>2026-04-09T13:15:04Z</time></trkpt><trkpt lat="42.52327587959978" lon="2.822526083785389"><ele>91.0</ele><time>2026-04-09T13:15:05Z</time></trkpt><trkpt lat="42.52333401809154" lon="2.822626084517863"><ele>91.0</ele><time>2026-04-09T13:15:06Z</time></trkpt><trkpt lat="42.52338111001122" lon="2.8227339762013757"><ele>91.0</ele><time>2026-04-09T13:15:07Z</time></trkpt><trkpt lat="42.5234137865026" lon="2.8228490841636966"><ele>91.0</ele><time>2026-04-09T13:15:08Z</time></trkpt><trkpt lat="42.52343622212922" lon="2.8229667345621605"><ele>91.0</ele><time>2026-04-09T13:15:09Z</time></trkpt><trkpt lat="42.52345725751758" lon="2.823076232376189"><ele>91.0</ele><time>2026-04-09T13:15:10Z</time></trkpt><trkpt lat="42.52347974283472" lon="2.8231886721690316"><ele>91.0</ele><time>2026-04-09T13:15:11Z</time></trkpt><trkpt lat="42.52350039300753" lon="2.8233024695289624"><ele>91.0</ele><time>2026-04-09T13:15:12Z</time></trkpt><trkpt lat="42.52352174859435" lon="2.823413001764765"><ele>91.0</ele><time>2026-04-09T13:15:13Z</time></trkpt><trkpt lat="42.523544277191654" lon="2.8235280392326954"><ele>91.0</ele><time>2026-04-09T13:15:14Z</time></trkpt><trkpt lat="42.52356907647992" lon="2.8236413202968023"><ele>91.0</ele><time>2026-04-09T13:15:15Z</time></trkpt><trkpt lat="42.523592466979295" lon="2.8237483505418535"><ele>91.0</ele><time>2026-04-09T13:15:16Z</time></trkpt><trkpt lat="42.52361940916825" lon="2.82385666740524"><ele>91.0</ele><time>2026-04-09T13:15:17Z</time></trkpt><trkpt lat="42.52365399258557" lon="2.8239608566653014"><ele>91.0</ele><time>2026-04-09T13:15:18Z</time></trkpt><trkpt lat="42.52369338427059" lon="2.824058559093339"><ele>91.0</ele><time>2026-04-09T13:15:19Z</time></trkpt><trkpt lat="42.52373585564256" lon="2.824157255978889"><ele>91.0</ele><time>2026-04-09T13:15:20Z</time></trkpt><trkpt lat="42.52377160181572" lon="2.8242552116225927"><ele>91.0</ele><time>2026-04-09T13:15:21Z</time></trkpt><trkpt lat="42.523798164491545" lon="2.8243514593919055"><ele>90.83333333333333</ele><time>2026-04-09T13:15:22Z</time></trkpt><trkpt lat="42.52380514610574" lon="2.8244541701397825"><ele>90.66666666666666</ele><time>2026-04-09T13:15:23Z</time></trkpt><trkpt lat="42.523796922425376" lon="2.8245660024280714"><ele>90.5</ele><time>2026-04-09T13:15:24Z</time></trkpt><trkpt lat="42.52378616856889" lon="2.824680371189988"><ele>90.33333333333333</ele><time>2026-04-09T13:15:25Z</time></trkpt><trkpt lat="42.52378790261297" lon="2.8247988642998036"><ele>90.16666666666667</ele><time>2026-04-09T13:15:26Z</time></trkpt><trkpt lat="42.523802549385145" lon="2.824918642565855"><ele>90.0</ele><time>2026-04-09T13:15:27Z</time></trkpt><trkpt lat="42.52382393326388" lon="2.825037844226344"><ele>90.16666666666667</ele><time>2026-04-09T13:15:28Z</time></trkpt><trkpt lat="42.523844169871104" lon="2.8251558884932892"><ele>90.33333333333333</ele><time>2026-04-09T13:15:29Z</time></trkpt><trkpt lat="42.523865530557" lon="2.825273657189761"><ele>90.5</ele><time>2026-04-09T13:15:30Z</time></trkpt><trkpt lat="42.52388681183502" lon="2.825387251535319"><ele>90.66666666666666</ele><time>2026-04-09T13:15:31Z</time></trkpt><trkpt lat="42.523909031044596" lon="2.8255002394431403"><ele>90.83333333333333</ele><time>2026-04-09T13:15:32Z</time></trkpt><trkpt lat="42.523933299303735" lon="2.8256135429916127"><ele>91.0</ele><time>2026-04-09T13:15:33Z</time></trkpt><trkpt lat="42.52396569245382" lon="2.8257212658706283"><ele>91.0</ele><time>2026-04-09T13:15:34Z</time></trkpt><trkpt lat="42.52399648286194" lon="2.825829467536872"><ele>91.0</ele><time>2026-04-09T13:15:35Z</time></trkpt><trkpt lat="42.52401965850733" lon="2.825941211479705"><ele>91.0</ele><time>2026-04-09T13:15:36Z</time></trkpt><trkpt lat="42.52404309848319" lon="2.826049213862236"><ele>91.0</ele><time>2026-04-09T13:15:37Z</time></trkpt><trkpt lat="42.52406251533782" lon="2.8261550475435318"><ele>91.0</ele><time>2026-04-09T13:15:38Z</time></trkpt><trkpt lat="42.52408384632506" lon="2.8262594209418768"><ele>91.0</ele><time>2026-04-09T13:15:39Z</time></trkpt><trkpt lat="42.524103288975695" lon="2.826357428179405"><ele>91.0</ele><time>2026-04-09T13:15:40Z</time></trkpt><trkpt lat="42.524114027669526" lon="2.826457486041863"><ele>91.0</ele><time>2026-04-09T13:15:41Z</time></trkpt><trkpt lat="42.524121763037115" lon="2.8265637159718007"><ele>91.0</ele><time>2026-04-09T13:15:42Z</time></trkpt><trkpt lat="42.52413753136009" lon="2.826669622880768"><ele>91.0</ele><time>2026-04-09T13:15:43Z</time></trkpt><trkpt lat="42.524157351314685" lon="2.8267834352527053"><ele>91.0</ele><time>2026-04-09T13:15:44Z</time></trkpt><trkpt lat="42.524178230443596" lon="2.826897824809514"><ele>91.0</ele><time>2026-04-09T13:15:45Z</time></trkpt><trkpt lat="42.524197331946745" lon="2.827012705843406"><ele>90.83333333333333</ele><time>2026-04-09T13:15:46Z</time></trkpt><trkpt lat="42.52421863166475" lon="2.8271273717459824"><ele>90.66666666666666</ele><time>2026-04-09T13:15:47Z</time></trkpt><trkpt lat="42.524241868411835" lon="2.827237160041988"><ele>90.5</ele><time>2026-04-09T13:15:48Z</time></trkpt><trkpt lat="42.52426221440139" lon="2.827347359189415"><ele>90.33333333333333</ele><time>2026-04-09T13:15:49Z</time></trkpt><trkpt lat="42.52428243502774" lon="2.82745825743288"><ele>90.16666666666667</ele><time>2026-04-09T13:15:50Z</time></trkpt><trkpt lat="42.52430208991295" lon="2.8275676439296666"><ele>90.0</ele><time>2026-04-09T13:15:51Z</time></trkpt><trkpt lat="42.524322221008795" lon="2.8276827656458905"><ele>89.83333333333333</ele><time>2026-04-09T13:15:52Z</time></trkpt><trkpt lat="42.52434456901254" lon="2.8277924958881404"><ele>89.66666666666667</ele><time>2026-04-09T13:15:53Z</time></trkpt><trkpt lat="42.524359320219936" lon="2.827905574055989"><ele>89.5</ele><time>2026-04-09T13:15:54Z</time></trkpt><trkpt lat="42.52438130402414" lon="2.828020555682613"><ele>89.33333333333334</ele><time>2026-04-09T13:15:55Z</time></trkpt><trkpt lat="42.524399723954744" lon="2.8281360096518444"><ele>89.16666666666667</ele><time>2026-04-09T13:15:56Z</time></trkpt><trkpt lat="42.52441929180806" lon="2.828243261899607"><ele>89.0</ele><time>2026-04-09T13:15:57Z</time></trkpt><trkpt lat="42.52443188884774" lon="2.828352378012718"><ele>89.0</ele><time>2026-04-09T13:15:58Z</time></trkpt><trkpt lat="42.52445243236747" lon="2.828460259696123"><ele>89.0</ele><time>2026-04-09T13:15:59Z</time></trkpt><trkpt lat="42.52447440460213" lon="2.8285632529779705"><ele>89.0</ele><time>2026-04-09T13:16:00Z</time></trkpt><trkpt lat="42.52449236069821" lon="2.828666078074676"><ele>89.0</ele><time>2026-04-09T13:16:01Z</time></trkpt><trkpt lat="42.52451308773086" lon="2.8287708421144715"><ele>89.0</ele><time>2026-04-09T13:16:02Z</time></trkpt><trkpt lat="42.52453603727831" lon="2.8288748249825315"><ele>89.0</ele><time>2026-04-09T13:16:03Z</time></trkpt><trkpt lat="42.52456242658503" lon="2.828978020449242"><ele>89.0</ele><time>2026-04-09T13:16:04Z</time></trkpt><trkpt lat="42.52458246884871" lon="2.8290814960145396"><ele>89.0</ele><time>2026-04-09T13:16:05Z</time></trkpt><trkpt lat="42.524604988493344" lon="2.829183250833765"><ele>89.0</ele><time>2026-04-09T13:16:06Z</time></trkpt><trkpt lat="42.52462454925067" lon="2.8292838788200245"><ele>89.0</ele><time>2026-04-09T13:16:07Z</time></trkpt><trkpt lat="42.52464196961137" lon="2.829375805464949"><ele>89.0</ele><time>2026-04-09T13:16:08Z</time></trkpt><trkpt lat="42.52466449347076" lon="2.829522254370686"><ele>89.0</ele><time>2026-04-09T13:16:10Z</time></trkpt><trkpt lat="42.524660543209116" lon="2.8296806673251607"><ele>89.0</ele><time>2026-04-09T13:16:12Z</time></trkpt><trkpt lat="42.52463971673112" lon="2.8298244495488114"><ele>89.0</ele><time>2026-04-09T13:16:14Z</time></trkpt><trkpt lat="42.52469127323507" lon="2.829944179080793"><ele>89.0</ele><time>2026-04-09T13:16:16Z</time></trkpt><trkpt lat="42.52476184688499" lon="2.8300737706435997"><ele>89.0</ele><time>2026-04-09T13:16:18Z</time></trkpt><trkpt lat="42.52480301178035" lon="2.830248422062922"><ele>88.85714285714285</ele><time>2026-04-09T13:16:20Z</time></trkpt><trkpt lat="42.52482028817568" lon="2.830347938762157"><ele>88.71428571428571</ele><time>2026-04-09T13:16:21Z</time></trkpt><trkpt lat="42.52483581581089" lon="2.8304461923490396"><ele>88.57142857142857</ele><time>2026-04-09T13:16:22Z</time></trkpt><trkpt lat="42.524846991102706" lon="2.830547866945949"><ele>88.42857142857142</ele><time>2026-04-09T13:16:23Z</time></trkpt><trkpt lat="42.52485944650801" lon="2.8306486464711047"><ele>88.28571428571428</ele><time>2026-04-09T13:16:24Z</time></trkpt><trkpt lat="42.52487628528396" lon="2.83074531198237"><ele>88.14285714285714</ele><time>2026-04-09T13:16:25Z</time></trkpt><trkpt lat="42.524894393414684" lon="2.830838851093127"><ele>88.0</ele><time>2026-04-09T13:16:26Z</time></trkpt><trkpt lat="42.52491036343997" lon="2.8309271573029515"><ele>88.0</ele><time>2026-04-09T13:16:27Z</time></trkpt><trkpt lat="42.524933908165266" lon="2.8310629291401104"><ele>88.0</ele><time>2026-04-09T13:16:29Z</time></trkpt><trkpt lat="42.524949535937026" lon="2.83114871893479"><ele>88.0</ele><time>2026-04-09T13:16:31Z</time></trkpt><trkpt lat="42.52497024521803" lon="2.8312521910261026"><ele>88.0</ele><time>2026-04-09T13:16:43Z</time></trkpt><trkpt lat="42.52497486768772" lon="2.8313388264637815"><ele>88.0</ele><time>2026-04-09T13:16:52Z</time></trkpt><trkpt lat="42.524998598435296" lon="2.831474069136177"><ele>88.0</ele><time>2026-04-09T13:16:55Z</time></trkpt><trkpt lat="42.525023446432485" lon="2.8316192603996813"><ele>88.0</ele><time>2026-04-09T13:16:57Z</time></trkpt><trkpt lat="42.5250386652442" lon="2.831704349369656"><ele>88.0</ele><time>2026-04-09T13:16:58Z</time></trkpt><trkpt lat="42.525053331841164" lon="2.831788628895753"><ele>88.0</ele><time>2026-04-09T13:16:59Z</time></trkpt><trkpt lat="42.525069120867315" lon="2.831873464076547"><ele>88.0</ele><time>2026-04-09T13:17:00Z</time></trkpt><trkpt lat="42.52508506509587" lon="2.8319603687149546"><ele>88.0</ele><time>2026-04-09T13:17:01Z</time></trkpt><trkpt lat="42.52510411499617" lon="2.8320461790348306"><ele>88.0</ele><time>2026-04-09T13:17:02Z</time></trkpt><trkpt lat="42.52512016973193" lon="2.8321350662666536"><ele>88.0</ele><time>2026-04-09T13:17:03Z</time></trkpt><trkpt lat="42.525129931898434" lon="2.8322217761687956"><ele>88.2</ele><time>2026-04-09T13:17:04Z</time></trkpt><trkpt lat="42.525146269597045" lon="2.832304931685134"><ele>88.4</ele><time>2026-04-09T13:17:05Z</time></trkpt><trkpt lat="42.52516911887351" lon="2.8324528077088846"><ele>88.60000000000001</ele><time>2026-04-09T13:17:07Z</time></trkpt><trkpt lat="42.525199435709105" lon="2.8325936083921963"><ele>88.80000000000001</ele><time>2026-04-09T13:17:09Z</time></trkpt><trkpt lat="42.52522652575841" lon="2.832736699826791"><ele>89.0</ele><time>2026-04-09T13:17:11Z</time></trkpt><trkpt lat="42.52526175576432" lon="2.8328832627965626"><ele>89.0</ele><time>2026-04-09T13:17:13Z</time></trkpt><trkpt lat="42.525294726747106" lon="2.833028933886767"><ele>89.0</ele><time>2026-04-09T13:17:15Z</time></trkpt><trkpt lat="42.52533174301935" lon="2.8331624811281886"><ele>89.0</ele><time>2026-04-09T13:17:17Z</time></trkpt><trkpt lat="42.5253826987817" lon="2.8332935822748517"><ele>89.0</ele><time>2026-04-09T13:17:19Z</time></trkpt><trkpt lat="42.52541680609626" lon="2.833366470163876"><ele>89.0</ele><time>2026-04-09T13:17:20Z</time></trkpt><trkpt lat="42.52545409207388" lon="2.8334364780787578"><ele>88.85714285714285</ele><time>2026-04-09T13:17:21Z</time></trkpt><trkpt lat="42.52550103419164" lon="2.8334979833529843"><ele>88.71428571428571</ele><time>2026-04-09T13:17:22Z</time></trkpt><trkpt lat="42.52555233085326" lon="2.833555154995589"><ele>88.57142857142857</ele><time>2026-04-09T13:17:23Z</time></trkpt><trkpt lat="42.52560814308338" lon="2.833604170977652"><ele>88.42857142857142</ele><time>2026-04-09T13:17:24Z</time></trkpt><trkpt lat="42.525663699662346" lon="2.8336480257649717"><ele>88.28571428571428</ele><time>2026-04-09T13:17:25Z</time></trkpt><trkpt lat="42.52571581638906" lon="2.833700194417933"><ele>88.14285714285714</ele><time>2026-04-09T13:17:26Z</time></trkpt><trkpt lat="42.52576894825027" lon="2.833748897975568"><ele>88.0</ele><time>2026-04-09T13:17:27Z</time></trkpt><trkpt lat="42.52586456610356" lon="2.8338430700936104"><ele>88.0</ele><time>2026-04-09T13:17:29Z</time></trkpt><trkpt lat="42.52595627620024" lon="2.83392749201874"><ele>88.0</ele><time>2026-04-09T13:17:31Z</time></trkpt><trkpt lat="42.52604408923956" lon="2.8340060543335115"><ele>88.0</ele><time>2026-04-09T13:17:33Z</time></trkpt><trkpt lat="42.52612520190434" lon="2.834076668995963"><ele>88.0</ele><time>2026-04-09T13:17:35Z</time></trkpt><trkpt lat="42.526207868786464" lon="2.834148592767103"><ele>88.0</ele><time>2026-04-09T13:17:37Z</time></trkpt><trkpt lat="42.52629054433653" lon="2.83421064014301"><ele>87.5</ele><time>2026-04-09T13:17:39Z</time></trkpt><trkpt lat="42.52636261972297" lon="2.8342789937579047"><ele>87.0</ele><time>2026-04-09T13:17:41Z</time></trkpt><trkpt lat="42.52642460769296" lon="2.8343421873953587"><ele>86.5</ele><time>2026-04-09T13:17:43Z</time></trkpt><trkpt lat="42.52648148124109" lon="2.8343939478342297"><ele>86.0</ele><time>2026-04-09T13:17:46Z</time></trkpt><trkpt lat="42.52653669030507" lon="2.8344429374037627"><ele>85.5</ele><time>2026-04-09T13:17:52Z</time></trkpt><trkpt lat="42.52661837144113" lon="2.8345300326864797"><ele>85.0</ele><time>2026-04-09T13:17:55Z</time></trkpt><trkpt lat="42.5267127247191" lon="2.834625306892448"><ele>85.0</ele><time>2026-04-09T13:17:57Z</time></trkpt><trkpt lat="42.52678276524909" lon="2.8346951221592254"><ele>85.0</ele><time>2026-04-09T13:17:58Z</time></trkpt><trkpt lat="42.52685037264679" lon="2.834763965267156"><ele>85.0</ele><time>2026-04-09T13:17:59Z</time></trkpt><trkpt lat="42.52692010024241" lon="2.8348353228825665"><ele>85.0</ele><time>2026-04-09T13:18:00Z</time></trkpt><trkpt lat="42.526993044262355" lon="2.8349114398642734"><ele>85.0</ele><time>2026-04-09T13:18:01Z</time></trkpt><trkpt lat="42.52706756071773" lon="2.8349892600593383"><ele>85.0</ele><time>2026-04-09T13:18:02Z</time></trkpt><trkpt lat="42.5271417507569" lon="2.835064511314457"><ele>84.4</ele><time>2026-04-09T13:18:03Z</time></trkpt><trkpt lat="42.5272176730254" lon="2.8351410173436116"><ele>83.8</ele><time>2026-04-09T13:18:04Z</time></trkpt><trkpt lat="42.52729753864649" lon="2.8352136715801284"><ele>83.19999999999999</ele><time>2026-04-09T13:18:05Z</time></trkpt><trkpt lat="42.52738383357019" lon="2.8352956359412063"><ele>82.6</ele><time>2026-04-09T13:18:06Z</time></trkpt><trkpt lat="42.52747644674677" lon="2.8353847199266347"><ele>82.0</ele><time>2026-04-09T13:18:07Z</time></trkpt><trkpt lat="42.52757831012278" lon="2.835479436158671"><ele>82.0</ele><time>2026-04-09T13:18:08Z</time></trkpt><trkpt lat="42.527681201323105" lon="2.835574534675921"><ele>82.0</ele><time>2026-04-09T13:18:09Z</time></trkpt><trkpt lat="42.527786540558544" lon="2.8356712470692713"><ele>82.0</ele><time>2026-04-09T13:18:10Z</time></trkpt><trkpt lat="42.527892889418574" lon="2.8357700991567434"><ele>82.0</ele><time>2026-04-09T13:18:11Z</time></trkpt><trkpt lat="42.528000386227475" lon="2.8358703567023125"><ele>79.75</ele><time>2026-04-09T13:18:12Z</time></trkpt><trkpt lat="42.52810647726251" lon="2.8359713024116924"><ele>77.5</ele><time>2026-04-09T13:18:13Z</time></trkpt><trkpt lat="42.52821419885502" lon="2.836072647177802"><ele>75.25</ele><time>2026-04-09T13:18:14Z</time></trkpt><trkpt lat="42.52832206164933" lon="2.8361735802844303"><ele>73.0</ele><time>2026-04-09T13:18:15Z</time></trkpt><trkpt lat="42.52843256522151" lon="2.8362759235666886"><ele>73.0</ele><time>2026-04-09T13:18:16Z</time></trkpt><trkpt lat="42.52854764443636" lon="2.836383951096817"><ele>73.0</ele><time>2026-04-09T13:18:17Z</time></trkpt><trkpt lat="42.52866506663209" lon="2.8364933703484634"><ele>73.0</ele><time>2026-04-09T13:18:18Z</time></trkpt><trkpt lat="42.528783874054064" lon="2.8366024376782613"><ele>73.0</ele><time>2026-04-09T13:18:19Z</time></trkpt><trkpt lat="42.52890264416328" lon="2.8367121497265413"><ele>73.5</ele><time>2026-04-09T13:18:20Z</time></trkpt><trkpt lat="42.52901942002244" lon="2.8368171591218516"><ele>74.0</ele><time>2026-04-09T13:18:21Z</time></trkpt><trkpt lat="42.529131396974165" lon="2.8369228382540626"><ele>74.5</ele><time>2026-04-09T13:18:22Z</time></trkpt><trkpt lat="42.52923956832436" lon="2.837022520137799"><ele>75.0</ele><time>2026-04-09T13:18:23Z</time></trkpt><trkpt lat="42.52934575761572" lon="2.8371245167440073"><ele>75.0</ele><time>2026-04-09T13:18:24Z</time></trkpt><trkpt lat="42.529454426757894" lon="2.8372272265446226"><ele>75.0</ele><time>2026-04-09T13:18:25Z</time></trkpt><trkpt lat="42.52956426711151" lon="2.837328473741852"><ele>75.0</ele><time>2026-04-09T13:18:26Z</time></trkpt><trkpt lat="42.529674291391686" lon="2.837431466694964"><ele>75.0</ele><time>2026-04-09T13:18:27Z</time></trkpt><trkpt lat="42.529784244932024" lon="2.8375351679157728"><ele>77.0</ele><time>2026-04-09T13:18:28Z</time></trkpt><trkpt lat="42.52989513192963" lon="2.837641366101267"><ele>79.0</ele><time>2026-04-09T13:18:29Z</time></trkpt><trkpt lat="42.53000781083616" lon="2.837750764559873"><ele>81.0</ele><time>2026-04-09T13:18:30Z</time></trkpt><trkpt lat="42.53012064937882" lon="2.837859401678615"><ele>83.0</ele><time>2026-04-09T13:18:31Z</time></trkpt><trkpt lat="42.53023514031205" lon="2.8379705527187857"><ele>83.0</ele><time>2026-04-09T13:18:32Z</time></trkpt><trkpt lat="42.53035005456981" lon="2.838081568058637"><ele>83.0</ele><time>2026-04-09T13:18:33Z</time></trkpt><trkpt lat="42.53046638111003" lon="2.8381910249785056"><ele>83.0</ele><time>2026-04-09T13:18:34Z</time></trkpt><trkpt lat="42.53058494802886" lon="2.838303181698536"><ele>83.0</ele><time>2026-04-09T13:18:35Z</time></trkpt><trkpt lat="42.5306994737877" lon="2.838413106097981"><ele>82.75</ele><time>2026-04-09T13:18:36Z</time></trkpt><trkpt lat="42.53081326272524" lon="2.838523320391006"><ele>82.5</ele><time>2026-04-09T13:18:37Z</time></trkpt><trkpt lat="42.53092524549581" lon="2.838628390286286"><ele>82.25</ele><time>2026-04-09T13:18:38Z</time></trkpt><trkpt lat="42.531032267140226" lon="2.8387320274598893"><ele>82.0</ele><time>2026-04-09T13:18:39Z</time></trkpt><trkpt lat="42.53113907263145" lon="2.8388356906407837"><ele>82.25</ele><time>2026-04-09T13:18:40Z</time></trkpt><trkpt lat="42.531243520758515" lon="2.838939476033362"><ele>82.5</ele><time>2026-04-09T13:18:41Z</time></trkpt><trkpt lat="42.531346335668104" lon="2.8390438300415077"><ele>82.75</ele><time>2026-04-09T13:18:42Z</time></trkpt><trkpt lat="42.53144746398546" lon="2.8391486031018043"><ele>83.0</ele><time>2026-04-09T13:18:43Z</time></trkpt><trkpt lat="42.53154684413192" lon="2.839252368770834"><ele>82.75</ele><time>2026-04-09T13:18:44Z</time></trkpt><trkpt lat="42.53164199586509" lon="2.8393553456566574"><ele>82.5</ele><time>2026-04-09T13:18:45Z</time></trkpt><trkpt lat="42.53173654447691" lon="2.839454389350389"><ele>82.25</ele><time>2026-04-09T13:18:46Z</time></trkpt><trkpt lat="42.53182970477091" lon="2.8395522793972963"><ele>82.0</ele><time>2026-04-09T13:18:47Z</time></trkpt><trkpt lat="42.531923532431634" lon="2.8396438352353637"><ele>82.0</ele><time>2026-04-09T13:18:48Z</time></trkpt><trkpt lat="42.532016952324945" lon="2.839728678010997"><ele>82.0</ele><time>2026-04-09T13:18:49Z</time></trkpt><trkpt lat="42.532108046404524" lon="2.8398097145160035"><ele>82.0</ele><time>2026-04-09T13:18:50Z</time></trkpt><trkpt lat="42.53219092967498" lon="2.839879741577743"><ele>82.0</ele><time>2026-04-09T13:18:51Z</time></trkpt><trkpt lat="42.53226321342485" lon="2.83994376294395"><ele>82.0</ele><time>2026-04-09T13:18:52Z</time></trkpt><trkpt lat="42.53232586269618" lon="2.8400052495294785"><ele>82.33333333333333</ele><time>2026-04-09T13:18:53Z</time></trkpt><trkpt lat="42.532372981647974" lon="2.840081987460551"><ele>82.66666666666666</ele><time>2026-04-09T13:18:54Z</time></trkpt><trkpt lat="42.532399186576534" lon="2.8401770803269293"><ele>83.0</ele><time>2026-04-09T13:18:55Z</time></trkpt><trkpt lat="42.53240240523845" lon="2.840280834496199"><ele>83.33333333333333</ele><time>2026-04-09T13:18:56Z</time></trkpt><trkpt lat="42.532412811886815" lon="2.8403826378277617"><ele>83.66666666666667</ele><time>2026-04-09T13:18:57Z</time></trkpt><trkpt lat="42.53249429844287" lon="2.840533995403828"><ele>84.0</ele><time>2026-04-09T13:18:59Z</time></trkpt><trkpt lat="42.532555779893855" lon="2.8405736606432725"><ele>84.0</ele><time>2026-04-09T13:19:00Z</time></trkpt><trkpt lat="42.532622108828896" lon="2.840584223013348"><ele>84.0</ele><time>2026-04-09T13:19:01Z</time></trkpt><trkpt lat="42.53268749021989" lon="2.840573067904352"><ele>84.0</ele><time>2026-04-09T13:19:02Z</time></trkpt><trkpt lat="42.53281004919398" lon="2.840534645362418"><ele>84.0</ele><time>2026-04-09T13:19:04Z</time></trkpt><trkpt lat="42.532875722460965" lon="2.840534904090457"><ele>84.0</ele><time>2026-04-09T13:19:05Z</time></trkpt><trkpt lat="42.532945672653284" lon="2.8405592613980737"><ele>84.0</ele><time>2026-04-09T13:19:06Z</time></trkpt><trkpt lat="42.53301518923671" lon="2.840605557031649"><ele>83.80000000000001</ele><time>2026-04-09T13:19:07Z</time></trkpt><trkpt lat="42.533085625197835" lon="2.8406719237112386"><ele>83.60000000000001</ele><time>2026-04-09T13:19:08Z</time></trkpt><trkpt lat="42.533162808708155" lon="2.8407467192266416"><ele>83.4</ele><time>2026-04-09T13:19:09Z</time></trkpt><trkpt lat="42.533245070639424" lon="2.8408253587039662"><ele>83.2</ele><time>2026-04-09T13:19:10Z</time></trkpt><trkpt lat="42.53333713288493" lon="2.840908532883225"><ele>83.0</ele><time>2026-04-09T13:19:11Z</time></trkpt><trkpt lat="42.53343811969791" lon="2.841004179423459"><ele>83.0</ele><time>2026-04-09T13:19:12Z</time></trkpt><trkpt lat="42.53353593077004" lon="2.8410959844096793"><ele>83.0</ele><time>2026-04-09T13:19:13Z</time></trkpt><trkpt lat="42.53364008545148" lon="2.841194187740051"><ele>83.0</ele><time>2026-04-09T13:19:14Z</time></trkpt><trkpt lat="42.53374703082463" lon="2.841294392284335"><ele>83.0</ele><time>2026-04-09T13:19:15Z</time></trkpt><trkpt lat="42.53385489537825" lon="2.84139296761616"><ele>83.0</ele><time>2026-04-09T13:19:16Z</time></trkpt><trkpt lat="42.533966353970534" lon="2.8414999505211327"><ele>83.0</ele><time>2026-04-09T13:19:17Z</time></trkpt><trkpt lat="42.534080903930686" lon="2.8416087262270726"><ele>83.0</ele><time>2026-04-09T13:19:18Z</time></trkpt><trkpt lat="42.53419885974141" lon="2.84172351165954"><ele>83.0</ele><time>2026-04-09T13:19:19Z</time></trkpt><trkpt lat="42.53432069127672" lon="2.8418408546358296"><ele>83.0</ele><time>2026-04-09T13:19:20Z</time></trkpt><trkpt lat="42.53444758217565" lon="2.841958522882371"><ele>83.0</ele><time>2026-04-09T13:19:21Z</time></trkpt><trkpt lat="42.53457264405906" lon="2.8420761414429094"><ele>83.0</ele><time>2026-04-09T13:19:22Z</time></trkpt><trkpt lat="42.53469879671916" lon="2.842193805120159"><ele>83.66666666666667</ele><time>2026-04-09T13:19:23Z</time></trkpt><trkpt lat="42.53482740939755" lon="2.8423147481222713"><ele>84.33333333333333</ele><time>2026-04-09T13:19:24Z</time></trkpt><trkpt lat="42.534957438584804" lon="2.8424367116148743"><ele>85.0</ele><time>2026-04-09T13:19:25Z</time></trkpt><trkpt lat="42.53508821477284" lon="2.8425618797716385"><ele>85.33333333333333</ele><time>2026-04-09T13:19:26Z</time></trkpt><trkpt lat="42.53521986918132" lon="2.8426875562248832"><ele>85.66666666666667</ele><time>2026-04-09T13:19:27Z</time></trkpt><trkpt lat="42.53535245446684" lon="2.8428157341913587"><ele>86.0</ele><time>2026-04-09T13:19:28Z</time></trkpt><trkpt lat="42.53548484824319" lon="2.842941804239635"><ele>86.0</ele><time>2026-04-09T13:19:29Z</time></trkpt><trkpt lat="42.53561667367162" lon="2.8430682573090555"><ele>86.0</ele><time>2026-04-09T13:19:30Z</time></trkpt><trkpt lat="42.53574898137689" lon="2.8431931056521806"><ele>86.0</ele><time>2026-04-09T13:19:31Z</time></trkpt><trkpt lat="42.53588031726259" lon="2.8433162966340197"><ele>86.0</ele><time>2026-04-09T13:19:32Z</time></trkpt><trkpt lat="42.53601053373879" lon="2.843439561591406"><ele>86.0</ele><time>2026-04-09T13:19:33Z</time></trkpt><trkpt lat="42.536143104513194" lon="2.843565377716195"><ele>86.0</ele><time>2026-04-09T13:19:34Z</time></trkpt><trkpt lat="42.53641377395666" lon="2.843823623744967"><ele>86.0</ele><time>2026-04-09T13:19:36Z</time></trkpt><trkpt lat="42.53654872497749" lon="2.8439507925012038"><ele>86.0</ele><time>2026-04-09T13:19:37Z</time></trkpt><trkpt lat="42.53668438441066" lon="2.844077253565811"><ele>86.0</ele><time>2026-04-09T13:19:38Z</time></trkpt><trkpt lat="42.53682025122853" lon="2.844206312363493"><ele>84.66666666666667</ele><time>2026-04-09T13:19:39Z</time></trkpt><trkpt lat="42.53695974791097" lon="2.8443390252754934"><ele>83.33333333333333</ele><time>2026-04-09T13:19:40Z</time></trkpt><trkpt lat="42.53710207441319" lon="2.844471391818992"><ele>82.0</ele><time>2026-04-09T13:19:41Z</time></trkpt><trkpt lat="42.53724562703135" lon="2.8446053605211428"><ele>82.0</ele><time>2026-04-09T13:19:42Z</time></trkpt><trkpt lat="42.5373892199958" lon="2.8447395018381014"><ele>82.0</ele><time>2026-04-09T13:19:43Z</time></trkpt><trkpt lat="42.53753082676031" lon="2.8448726220802394"><ele>82.0</ele><time>2026-04-09T13:19:44Z</time></trkpt><trkpt lat="42.53767048817459" lon="2.84500544264858"><ele>82.0</ele><time>2026-04-09T13:19:45Z</time></trkpt><trkpt lat="42.537808696445836" lon="2.84513237489761"><ele>82.0</ele><time>2026-04-09T13:19:46Z</time></trkpt><trkpt lat="42.537947317594025" lon="2.84526324095499"><ele>82.0</ele><time>2026-04-09T13:19:47Z</time></trkpt><trkpt lat="42.5380844788107" lon="2.845392278012154"><ele>82.0</ele><time>2026-04-09T13:19:48Z</time></trkpt><trkpt lat="42.538219170705354" lon="2.8455203853258224"><ele>82.0</ele><time>2026-04-09T13:19:49Z</time></trkpt><trkpt lat="42.53835160875124" lon="2.845647573567084"><ele>82.0</ele><time>2026-04-09T13:19:50Z</time></trkpt><trkpt lat="42.53848564708835" lon="2.845772605995576"><ele>82.0</ele><time>2026-04-09T13:19:51Z</time></trkpt><trkpt lat="42.53862070554651" lon="2.8458991841336783"><ele>82.0</ele><time>2026-04-09T13:19:52Z</time></trkpt><trkpt lat="42.53875556522206" lon="2.8460266643484413"><ele>82.0</ele><time>2026-04-09T13:19:53Z</time></trkpt><trkpt lat="42.53888982123834" lon="2.846151109061971"><ele>82.33333333333333</ele><time>2026-04-09T13:19:54Z</time></trkpt><trkpt lat="42.53902011701398" lon="2.846276591125135"><ele>82.66666666666667</ele><time>2026-04-09T13:19:55Z</time></trkpt><trkpt lat="42.53914685104437" lon="2.8463939482239153"><ele>83.0</ele><time>2026-04-09T13:19:56Z</time></trkpt><trkpt lat="42.5392688669896" lon="2.8465093826726044"><ele>83.0</ele><time>2026-04-09T13:19:57Z</time></trkpt><trkpt lat="42.539387468363735" lon="2.8466234271559627"><ele>83.0</ele><time>2026-04-09T13:19:58Z</time></trkpt><trkpt lat="42.539499310115886" lon="2.8467303614472237"><ele>83.0</ele><time>2026-04-09T13:19:59Z</time></trkpt><trkpt lat="42.53960730952394" lon="2.8468354050037115"><ele>83.0</ele><time>2026-04-09T13:20:00Z</time></trkpt><trkpt lat="42.53971433234469" lon="2.8469386492018067"><ele>83.25</ele><time>2026-04-09T13:20:01Z</time></trkpt><trkpt lat="42.539825369210284" lon="2.847046312900884"><ele>83.5</ele><time>2026-04-09T13:20:02Z</time></trkpt><trkpt lat="42.539938310641496" lon="2.847155094385928"><ele>83.75</ele><time>2026-04-09T13:20:03Z</time></trkpt><trkpt lat="42.54005389762192" lon="2.8472657408441386"><ele>84.0</ele><time>2026-04-09T13:20:04Z</time></trkpt><trkpt lat="42.54017074747088" lon="2.8473764136420954"><ele>84.0</ele><time>2026-04-09T13:20:05Z</time></trkpt><trkpt lat="42.54028841362412" lon="2.8474864810890197"><ele>84.0</ele><time>2026-04-09T13:20:06Z</time></trkpt><trkpt lat="42.540402569927615" lon="2.84759559974628"><ele>84.0</ele><time>2026-04-09T13:20:07Z</time></trkpt><trkpt lat="42.54051915740928" lon="2.8477050223794866"><ele>84.0</ele><time>2026-04-09T13:20:08Z</time></trkpt><trkpt lat="42.54063586072081" lon="2.8478141639691694"><ele>83.5</ele><time>2026-04-09T13:20:09Z</time></trkpt><trkpt lat="42.540752779785365" lon="2.847923453443508"><ele>83.0</ele><time>2026-04-09T13:20:10Z</time></trkpt><trkpt lat="42.54086958031684" lon="2.8480326292979945"><ele>82.5</ele><time>2026-04-09T13:20:11Z</time></trkpt><trkpt lat="42.540985633984185" lon="2.8481431145221445"><ele>82.0</ele><time>2026-04-09T13:20:12Z</time></trkpt><trkpt lat="42.54110279585009" lon="2.8482550226050445"><ele>82.25</ele><time>2026-04-09T13:20:13Z</time></trkpt><trkpt lat="42.541217559563385" lon="2.848364247115442"><ele>82.5</ele><time>2026-04-09T13:20:14Z</time></trkpt><trkpt lat="42.54132886926686" lon="2.8484672768782247"><ele>82.75</ele><time>2026-04-09T13:20:15Z</time></trkpt><trkpt lat="42.54144043533505" lon="2.8485660072327645"><ele>83.0</ele><time>2026-04-09T13:20:16Z</time></trkpt><trkpt lat="42.54155665503374" lon="2.8486568831110337"><ele>82.5</ele><time>2026-04-09T13:20:17Z</time></trkpt><trkpt lat="42.54167425548296" lon="2.8487399081840765"><ele>82.0</ele><time>2026-04-09T13:20:18Z</time></trkpt><trkpt lat="42.54179080791321" lon="2.848816187566085"><ele>81.5</ele><time>2026-04-09T13:20:19Z</time></trkpt><trkpt lat="42.54190564799228" lon="2.848885677042025"><ele>81.0</ele><time>2026-04-09T13:20:20Z</time></trkpt><trkpt lat="42.542022716819396" lon="2.8489563752291063"><ele>81.25</ele><time>2026-04-09T13:20:21Z</time></trkpt><trkpt lat="42.54214179858074" lon="2.849031190354444"><ele>81.5</ele><time>2026-04-09T13:20:22Z</time></trkpt><trkpt lat="42.54226001414909" lon="2.8491165324668013"><ele>81.75</ele><time>2026-04-09T13:20:23Z</time></trkpt><trkpt lat="42.54237808018344" lon="2.8492115647339973"><ele>82.0</ele><time>2026-04-09T13:20:24Z</time></trkpt><trkpt lat="42.54249548176646" lon="2.8493209365838155"><ele>81.33333333333333</ele><time>2026-04-09T13:20:25Z</time></trkpt><trkpt lat="42.54261247566913" lon="2.8494433466618028"><ele>80.66666666666667</ele><time>2026-04-09T13:20:26Z</time></trkpt><trkpt lat="42.542728064106186" lon="2.8495774315928775"><ele>80.0</ele><time>2026-04-09T13:20:27Z</time></trkpt><trkpt lat="42.542841308144965" lon="2.849721714395773"><ele>80.25</ele><time>2026-04-09T13:20:28Z</time></trkpt><trkpt lat="42.542950839728505" lon="2.849864217572084"><ele>80.5</ele><time>2026-04-09T13:20:29Z</time></trkpt><trkpt lat="42.54305454686863" lon="2.8500055833838136"><ele>80.75</ele><time>2026-04-09T13:20:30Z</time></trkpt><trkpt lat="42.543160275463684" lon="2.850145754821649"><ele>81.0</ele><time>2026-04-09T13:20:31Z</time></trkpt><trkpt lat="42.54327070874913" lon="2.8502765375962835"><ele>81.0</ele><time>2026-04-09T13:20:32Z</time></trkpt><trkpt lat="42.54338210798028" lon="2.8504009430478123"><ele>81.0</ele><time>2026-04-09T13:20:33Z</time></trkpt><trkpt lat="42.54349394043222" lon="2.8505153303496353"><ele>81.0</ele><time>2026-04-09T13:20:34Z</time></trkpt><trkpt lat="42.54360782496876" lon="2.8506179588618052"><ele>81.0</ele><time>2026-04-09T13:20:35Z</time></trkpt><trkpt lat="42.54372586086924" lon="2.850703342162535"><ele>81.0</ele><time>2026-04-09T13:20:36Z</time></trkpt><trkpt lat="42.54384319115924" lon="2.8507625796658607"><ele>81.0</ele><time>2026-04-09T13:20:37Z</time></trkpt><trkpt lat="42.54395359921043" lon="2.8507944608137263"><ele>81.0</ele><time>2026-04-09T13:20:38Z</time></trkpt><trkpt lat="42.54405704355303" lon="2.850806708715893"><ele>81.0</ele><time>2026-04-09T13:20:39Z</time></trkpt><trkpt lat="42.544142279937184" lon="2.850812126527321"><ele>81.0</ele><time>2026-04-09T13:20:40Z</time></trkpt><trkpt lat="42.544221883031554" lon="2.850820128012947"><ele>81.0</ele><time>2026-04-09T13:20:41Z</time></trkpt><trkpt lat="42.54429434734785" lon="2.8508394477306043"><ele>81.0</ele><time>2026-04-09T13:20:42Z</time></trkpt><trkpt lat="42.54436105070933" lon="2.850892769469412"><ele>81.0</ele><time>2026-04-09T13:20:43Z</time></trkpt><trkpt lat="42.54441993070363" lon="2.8509701935317264"><ele>81.0</ele><time>2026-04-09T13:20:44Z</time></trkpt><trkpt lat="42.54448894393378" lon="2.8510390406597588"><ele>81.0</ele><time>2026-04-09T13:20:45Z</time></trkpt><trkpt lat="42.54457226951673" lon="2.8510680110642306"><ele>81.0</ele><time>2026-04-09T13:20:46Z</time></trkpt><trkpt lat="42.54465993257433" lon="2.8510798658804446"><ele>80.8</ele><time>2026-04-09T13:20:47Z</time></trkpt><trkpt lat="42.5447504426465" lon="2.8510630735392453"><ele>80.6</ele><time>2026-04-09T13:20:48Z</time></trkpt><trkpt lat="42.544844992992466" lon="2.851101085731135"><ele>80.4</ele><time>2026-04-09T13:20:49Z</time></trkpt><trkpt lat="42.544932634369516" lon="2.8511821872225096"><ele>80.2</ele><time>2026-04-09T13:20:50Z</time></trkpt><trkpt lat="42.54501313576556" lon="2.851296353088734"><ele>80.0</ele><time>2026-04-09T13:20:51Z</time></trkpt><trkpt lat="42.545101846022845" lon="2.851409661407232"><ele>80.0</ele><time>2026-04-09T13:20:52Z</time></trkpt><trkpt lat="42.545198080774064" lon="2.8515293676477795"><ele>80.0</ele><time>2026-04-09T13:20:53Z</time></trkpt><trkpt lat="42.54530075882066" lon="2.8516560219567997"><ele>80.0</ele><time>2026-04-09T13:20:54Z</time></trkpt><trkpt lat="42.545409303371606" lon="2.8517903715574975"><ele>80.0</ele><time>2026-04-09T13:20:55Z</time></trkpt><trkpt lat="42.54552300406011" lon="2.851931540632492"><ele>79.66666666666667</ele><time>2026-04-09T13:20:56Z</time></trkpt><trkpt lat="42.54564515211957" lon="2.8520824064416903"><ele>79.33333333333333</ele><time>2026-04-09T13:20:57Z</time></trkpt><trkpt lat="42.54577246297038" lon="2.852239958400995"><ele>79.0</ele><time>2026-04-09T13:20:58Z</time></trkpt><trkpt lat="42.54590748181821" lon="2.8524083422913686"><ele>79.0</ele><time>2026-04-09T13:20:59Z</time></trkpt><trkpt lat="42.54604293424528" lon="2.852576800762896"><ele>79.0</ele><time>2026-04-09T13:21:00Z</time></trkpt><trkpt lat="42.54617564816771" lon="2.8527477894657727"><ele>79.0</ele><time>2026-04-09T13:21:01Z</time></trkpt><trkpt lat="42.54631329801917" lon="2.8529219460711275"><ele>78.66666666666666</ele><time>2026-04-09T13:21:02Z</time></trkpt><trkpt lat="42.54645213839006" lon="2.853095464784609"><ele>78.33333333333333</ele><time>2026-04-09T13:21:03Z</time></trkpt><trkpt lat="42.54659176407325" lon="2.8532688853120316"><ele>78.0</ele><time>2026-04-09T13:21:04Z</time></trkpt><trkpt lat="42.546728501701686" lon="2.853442771823318"><ele>78.33333333333333</ele><time>2026-04-09T13:21:05Z</time></trkpt><trkpt lat="42.54686553839681" lon="2.8536104132886337"><ele>78.66666666666666</ele><time>2026-04-09T13:21:06Z</time></trkpt><trkpt lat="42.54700636648477" lon="2.8537786943531205"><ele>79.0</ele><time>2026-04-09T13:21:07Z</time></trkpt><trkpt lat="42.54715471053499" lon="2.8539392065536515"><ele>79.0</ele><time>2026-04-09T13:21:08Z</time></trkpt><trkpt lat="42.547303286443515" lon="2.8541016015333973"><ele>79.0</ele><time>2026-04-09T13:21:09Z</time></trkpt><trkpt lat="42.54745646567897" lon="2.8542588437486773"><ele>79.0</ele><time>2026-04-09T13:21:10Z</time></trkpt><trkpt lat="42.54761176241131" lon="2.8544125384520953"><ele>78.66666666666666</ele><time>2026-04-09T13:21:11Z</time></trkpt><trkpt lat="42.54777216728914" lon="2.8545625207568315"><ele>78.33333333333333</ele><time>2026-04-09T13:21:12Z</time></trkpt><trkpt lat="42.547935820321456" lon="2.8547133766097224"><ele>78.0</ele><time>2026-04-09T13:21:13Z</time></trkpt><trkpt lat="42.54809688558721" lon="2.854866554071532"><ele>78.0</ele><time>2026-04-09T13:21:14Z</time></trkpt><trkpt lat="42.54825549666724" lon="2.855016508456861"><ele>78.0</ele><time>2026-04-09T13:21:15Z</time></trkpt><trkpt lat="42.548414920018516" lon="2.8551655252601242"><ele>78.0</ele><time>2026-04-09T13:21:16Z</time></trkpt><trkpt lat="42.548574086693584" lon="2.855315205442793"><ele>77.66666666666667</ele><time>2026-04-09T13:21:17Z</time></trkpt><trkpt lat="42.548733926627" lon="2.8554638262732537"><ele>77.33333333333334</ele><time>2026-04-09T13:21:18Z</time></trkpt><trkpt lat="42.548894947919024" lon="2.8556134641629023"><ele>77.0</ele><time>2026-04-09T13:21:19Z</time></trkpt><trkpt lat="42.549058994645684" lon="2.8557693505286146"><ele>77.0</ele><time>2026-04-09T13:21:20Z</time></trkpt><trkpt lat="42.549222867444925" lon="2.8559279337494985"><ele>77.0</ele><time>2026-04-09T13:21:21Z</time></trkpt><trkpt lat="42.54938697127781" lon="2.856084998378623"><ele>77.0</ele><time>2026-04-09T13:21:22Z</time></trkpt><trkpt lat="42.54955212098521" lon="2.8562413091787766"><ele>77.0</ele><time>2026-04-09T13:21:23Z</time></trkpt><trkpt lat="42.54971475944441" lon="2.8563943069016737"><ele>77.0</ele><time>2026-04-09T13:21:24Z</time></trkpt><trkpt lat="42.54987352453593" lon="2.8565451759203992"><ele>77.0</ele><time>2026-04-09T13:21:25Z</time></trkpt><trkpt lat="42.55003211512103" lon="2.8566965069834525"><ele>77.0</ele><time>2026-04-09T13:21:26Z</time></trkpt><trkpt lat="42.55019389460188" lon="2.856849609489294"><ele>77.0</ele><time>2026-04-09T13:21:27Z</time></trkpt><trkpt lat="42.550354596694994" lon="2.8570034648976566"><ele>77.0</ele><time>2026-04-09T13:21:28Z</time></trkpt><trkpt lat="42.550512292489096" lon="2.8571519177986375"><ele>77.0</ele><time>2026-04-09T13:21:29Z</time></trkpt><trkpt lat="42.55066822393488" lon="2.857297256919804"><ele>77.0</ele><time>2026-04-09T13:21:30Z</time></trkpt><trkpt lat="42.550822264426195" lon="2.8574404476680417"><ele>77.0</ele><time>2026-04-09T13:21:31Z</time></trkpt><trkpt lat="42.55097587602916" lon="2.8575840096135052"><ele>76.66666666666667</ele><time>2026-04-09T13:21:32Z</time></trkpt><trkpt lat="42.55113058208631" lon="2.8577295733868486"><ele>76.33333333333333</ele><time>2026-04-09T13:21:33Z</time></trkpt><trkpt lat="42.55128578318394" lon="2.8578764371172034"><ele>76.0</ele><time>2026-04-09T13:21:34Z</time></trkpt><trkpt lat="42.55144596767264" lon="2.858027243706143"><ele>76.0</ele><time>2026-04-09T13:21:35Z</time></trkpt><trkpt lat="42.55160483361682" lon="2.858177801926834"><ele>76.0</ele><time>2026-04-09T13:21:36Z</time></trkpt><trkpt lat="42.55176093169391" lon="2.858329032292938"><ele>76.0</ele><time>2026-04-09T13:21:37Z</time></trkpt><trkpt lat="42.551917240482204" lon="2.8584774154968504"><ele>77.0</ele><time>2026-04-09T13:21:38Z</time></trkpt><trkpt lat="42.55207265253984" lon="2.858621553413406"><ele>78.0</ele><time>2026-04-09T13:21:39Z</time></trkpt><trkpt lat="42.552230374954604" lon="2.8587560576241224"><ele>79.0</ele><time>2026-04-09T13:21:40Z</time></trkpt><trkpt lat="42.552397264946215" lon="2.8588779397425785"><ele>79.0</ele><time>2026-04-09T13:21:41Z</time></trkpt><trkpt lat="42.552572230012174" lon="2.8589847921163947"><ele>79.0</ele><time>2026-04-09T13:21:42Z</time></trkpt><trkpt lat="42.5527535115461" lon="2.859075094898911"><ele>79.0</ele><time>2026-04-09T13:21:43Z</time></trkpt><trkpt lat="42.55294104685958" lon="2.859145869383448"><ele>79.66666666666666</ele><time>2026-04-09T13:21:44Z</time></trkpt><trkpt lat="42.553130768986655" lon="2.859192176803459"><ele>80.33333333333333</ele><time>2026-04-09T13:21:45Z</time></trkpt><trkpt lat="42.55332080123795" lon="2.859216956753511"><ele>81.0</ele><time>2026-04-09T13:21:46Z</time></trkpt><trkpt lat="42.553509404734065" lon="2.8592189033257593"><ele>81.0</ele><time>2026-04-09T13:21:47Z</time></trkpt><trkpt lat="42.55369612078558" lon="2.859201069898406"><ele>81.0</ele><time>2026-04-09T13:21:48Z</time></trkpt><trkpt lat="42.55387810105666" lon="2.8591615887944393"><ele>81.0</ele><time>2026-04-09T13:21:49Z</time></trkpt><trkpt lat="42.55405845409671" lon="2.8591028122203364"><ele>80.66666666666667</ele><time>2026-04-09T13:21:50Z</time></trkpt><trkpt lat="42.554234565991656" lon="2.8590251401733764"><ele>80.33333333333334</ele><time>2026-04-09T13:21:51Z</time></trkpt><trkpt lat="42.554408112713865" lon="2.8589288267111743"><ele>80.0</ele><time>2026-04-09T13:21:52Z</time></trkpt><trkpt lat="42.554576992243184" lon="2.858810636679965"><ele>80.0</ele><time>2026-04-09T13:21:53Z</time></trkpt><trkpt lat="42.554744288748886" lon="2.8586773465789235"><ele>80.0</ele><time>2026-04-09T13:21:54Z</time></trkpt><trkpt lat="42.55490912422759" lon="2.8585348491726745"><ele>80.0</ele><time>2026-04-09T13:21:55Z</time></trkpt><trkpt lat="42.55507440737861" lon="2.858383880566148"><ele>80.0</ele><time>2026-04-09T13:21:56Z</time></trkpt><trkpt lat="42.555242760233355" lon="2.8582287744509043"><ele>80.0</ele><time>2026-04-09T13:21:57Z</time></trkpt><trkpt lat="42.55541341504276" lon="2.858069000881552"><ele>80.0</ele><time>2026-04-09T13:21:58Z</time></trkpt><trkpt lat="42.5555814666877" lon="2.8579100713414887"><ele>79.0</ele><time>2026-04-09T13:21:59Z</time></trkpt><trkpt lat="42.55575040479201" lon="2.8577507699334044"><ele>78.0</ele><time>2026-04-09T13:22:00Z</time></trkpt><trkpt lat="42.55591946033832" lon="2.8575910110659266"><ele>77.0</ele><time>2026-04-09T13:22:01Z</time></trkpt><trkpt lat="42.556086136354686" lon="2.857435381067642"><ele>79.0</ele><time>2026-04-09T13:22:02Z</time></trkpt><trkpt lat="42.55625076823169" lon="2.857282214633118"><ele>81.0</ele><time>2026-04-09T13:22:03Z</time></trkpt><trkpt lat="42.55641327005409" lon="2.857130455844742"><ele>83.0</ele><time>2026-04-09T13:22:04Z</time></trkpt><trkpt lat="42.55657377736162" lon="2.856978265368366"><ele>83.0</ele><time>2026-04-09T13:22:05Z</time></trkpt><trkpt lat="42.55673633048129" lon="2.8568255854417184"><ele>83.0</ele><time>2026-04-09T13:22:06Z</time></trkpt><trkpt lat="42.55689470031962" lon="2.8566765985123994"><ele>83.0</ele><time>2026-04-09T13:22:07Z</time></trkpt><trkpt lat="42.55705074219533" lon="2.8565279785764743"><ele>84.33333333333334</ele><time>2026-04-09T13:22:08Z</time></trkpt><trkpt lat="42.5572096553196" lon="2.8563782200752925"><ele>85.66666666666667</ele><time>2026-04-09T13:22:09Z</time></trkpt><trkpt lat="42.55737120867649" lon="2.8562257111850795"><ele>87.0</ele><time>2026-04-09T13:22:10Z</time></trkpt><trkpt lat="42.5575336333093" lon="2.8560709521834777"><ele>87.33333333333333</ele><time>2026-04-09T13:22:11Z</time></trkpt><trkpt lat="42.55769822169993" lon="2.855914887944095"><ele>87.66666666666666</ele><time>2026-04-09T13:22:12Z</time></trkpt><trkpt lat="42.557865244376025" lon="2.8557577611892473"><ele>88.0</ele><time>2026-04-09T13:22:13Z</time></trkpt><trkpt lat="42.55803175909637" lon="2.8555996275532416"><ele>88.0</ele><time>2026-04-09T13:22:14Z</time></trkpt><trkpt lat="42.558197258813664" lon="2.855442181548238"><ele>88.0</ele><time>2026-04-09T13:22:15Z</time></trkpt><trkpt lat="42.55836058246173" lon="2.855286416502743"><ele>88.0</ele><time>2026-04-09T13:22:16Z</time></trkpt><trkpt lat="42.55852189633785" lon="2.855128963750544"><ele>87.33333333333333</ele><time>2026-04-09T13:22:17Z</time></trkpt><trkpt lat="42.558679665642686" lon="2.8549691415634517"><ele>86.66666666666667</ele><time>2026-04-09T13:22:18Z</time></trkpt><trkpt lat="42.558831368426624" lon="2.854799888891453"><ele>86.0</ele><time>2026-04-09T13:22:19Z</time></trkpt><trkpt lat="42.5589770794938" lon="2.8546230332834486"><ele>86.0</ele><time>2026-04-09T13:22:20Z</time></trkpt><trkpt lat="42.55911307665921" lon="2.854438767913324"><ele>86.0</ele><time>2026-04-09T13:22:21Z</time></trkpt><trkpt lat="42.559241077094626" lon="2.8542495104689176"><ele>86.0</ele><time>2026-04-09T13:22:22Z</time></trkpt><trkpt lat="42.559359504304496" lon="2.8540585431156233"><ele>84.66666666666667</ele><time>2026-04-09T13:22:23Z</time></trkpt><trkpt lat="42.55947805350077" lon="2.853871503645981"><ele>83.33333333333333</ele><time>2026-04-09T13:22:24Z</time></trkpt><trkpt lat="42.55959652308591" lon="2.8536874500535068"><ele>82.0</ele><time>2026-04-09T13:22:25Z</time></trkpt><trkpt lat="42.55971470113235" lon="2.8535030215126898"><ele>83.33333333333333</ele><time>2026-04-09T13:22:26Z</time></trkpt><trkpt lat="42.55983513393728" lon="2.853322211863094"><ele>84.66666666666667</ele><time>2026-04-09T13:22:27Z</time></trkpt><trkpt lat="42.559958270909924" lon="2.8531501547829086"><ele>86.0</ele><time>2026-04-09T13:22:28Z</time></trkpt><trkpt lat="42.5600844375061" lon="2.8529857216739236"><ele>86.0</ele><time>2026-04-09T13:22:29Z</time></trkpt><trkpt lat="42.56021661815526" lon="2.8528341421820835"><ele>86.0</ele><time>2026-04-09T13:22:30Z</time></trkpt><trkpt lat="42.56035445915916" lon="2.8526955194659505"><ele>86.0</ele><time>2026-04-09T13:22:31Z</time></trkpt><trkpt lat="42.560496995524474" lon="2.852568343226011"><ele>86.33333333333334</ele><time>2026-04-09T13:22:32Z</time></trkpt><trkpt lat="42.560641273411036" lon="2.8524519313804455"><ele>86.66666666666667</ele><time>2026-04-09T13:22:33Z</time></trkpt><trkpt lat="42.560787318491045" lon="2.852345151098682"><ele>87.0</ele><time>2026-04-09T13:22:34Z</time></trkpt><trkpt lat="42.560940486284736" lon="2.852249508620552"><ele>87.0</ele><time>2026-04-09T13:22:35Z</time></trkpt><trkpt lat="42.56109997353214" lon="2.85216272590942"><ele>87.0</ele><time>2026-04-09T13:22:36Z</time></trkpt><trkpt lat="42.561266779946344" lon="2.85208870703126"><ele>87.0</ele><time>2026-04-09T13:22:37Z</time></trkpt><trkpt lat="42.56143893049409" lon="2.8520260916900044"><ele>85.33333333333333</ele><time>2026-04-09T13:22:38Z</time></trkpt><trkpt lat="42.5616151369707" lon="2.8519769799749843"><ele>83.66666666666666</ele><time>2026-04-09T13:22:39Z</time></trkpt><trkpt lat="42.56179861865014" lon="2.8519408719083987"><ele>82.0</ele><time>2026-04-09T13:22:40Z</time></trkpt><trkpt lat="42.5619833926009" lon="2.8519197100683447"><ele>81.33333333333333</ele><time>2026-04-09T13:22:41Z</time></trkpt><trkpt lat="42.56216568789286" lon="2.8519025927888864"><ele>80.66666666666667</ele><time>2026-04-09T13:22:42Z</time></trkpt><trkpt lat="42.56235066893168" lon="2.8518850766150154"><ele>80.0</ele><time>2026-04-09T13:22:43Z</time></trkpt><trkpt lat="42.56253743828118" lon="2.851866318093268"><ele>80.0</ele><time>2026-04-09T13:22:44Z</time></trkpt><trkpt lat="42.56272428779621" lon="2.851847065434465"><ele>80.0</ele><time>2026-04-09T13:22:45Z</time></trkpt><trkpt lat="42.56291328946348" lon="2.85182657492163"><ele>80.0</ele><time>2026-04-09T13:22:46Z</time></trkpt><trkpt lat="42.56310390002116" lon="2.851808290055194"><ele>82.66666666666667</ele><time>2026-04-09T13:22:47Z</time></trkpt><trkpt lat="42.56329519098094" lon="2.851790190972878"><ele>85.33333333333333</ele><time>2026-04-09T13:22:48Z</time></trkpt><trkpt lat="42.563492776446694" lon="2.851769730366107"><ele>88.0</ele><time>2026-04-09T13:22:49Z</time></trkpt><trkpt lat="42.56369147184486" lon="2.851750732957451"><ele>89.0</ele><time>2026-04-09T13:22:50Z</time></trkpt><trkpt lat="42.56388809335623" lon="2.851728384618028"><ele>90.0</ele><time>2026-04-09T13:22:51Z</time></trkpt><trkpt lat="42.564089521068986" lon="2.85170845479734"><ele>91.0</ele><time>2026-04-09T13:22:52Z</time></trkpt><trkpt lat="42.56428955168503" lon="2.851689358365853"><ele>91.0</ele><time>2026-04-09T13:22:53Z</time></trkpt><trkpt lat="42.56448818790252" lon="2.851669458307834"><ele>91.0</ele><time>2026-04-09T13:22:54Z</time></trkpt><trkpt lat="42.56468585045982" lon="2.8516469205773145"><ele>91.0</ele><time>2026-04-09T13:22:55Z</time></trkpt><trkpt lat="42.56488394748233" lon="2.8516267855346853"><ele>91.66666666666666</ele><time>2026-04-09T13:22:56Z</time></trkpt><trkpt lat="42.56508277823514" lon="2.8516071259072557"><ele>92.33333333333333</ele><time>2026-04-09T13:22:57Z</time></trkpt><trkpt lat="42.56528047322299" lon="2.851587680020386"><ele>93.0</ele><time>2026-04-09T13:22:58Z</time></trkpt><trkpt lat="42.56547612900143" lon="2.8515682809129275"><ele>93.0</ele><time>2026-04-09T13:22:59Z</time></trkpt><trkpt lat="42.56567040696892" lon="2.8515481400700384"><ele>93.0</ele><time>2026-04-09T13:23:00Z</time></trkpt><trkpt lat="42.56585943513927" lon="2.8515292306302675"><ele>93.0</ele><time>2026-04-09T13:23:01Z</time></trkpt><trkpt lat="42.56604629040102" lon="2.8515101664906197"><ele>93.33333333333333</ele><time>2026-04-09T13:23:02Z</time></trkpt><trkpt lat="42.566231177672364" lon="2.8514895613893256"><ele>93.66666666666666</ele><time>2026-04-09T13:23:03Z</time></trkpt><trkpt lat="42.56641218320454" lon="2.851469963875865"><ele>94.0</ele><time>2026-04-09T13:23:04Z</time></trkpt><trkpt lat="42.56659699097455" lon="2.85144979896346"><ele>94.0</ele><time>2026-04-09T13:23:05Z</time></trkpt><trkpt lat="42.5667863181" lon="2.851432481027631"><ele>94.0</ele><time>2026-04-09T13:23:06Z</time></trkpt><trkpt lat="42.566974537192806" lon="2.851415485618437"><ele>94.0</ele><time>2026-04-09T13:23:07Z</time></trkpt><trkpt lat="42.56716052197993" lon="2.8513953746824683"><ele>94.66666666666666</ele><time>2026-04-09T13:23:08Z</time></trkpt><trkpt lat="42.56734505903478" lon="2.851375679491088"><ele>95.33333333333333</ele><time>2026-04-09T13:23:09Z</time></trkpt><trkpt lat="42.56752856330512" lon="2.8513571045136574"><ele>96.0</ele><time>2026-04-09T13:23:10Z</time></trkpt><trkpt lat="42.56770837315305" lon="2.851339097555595"><ele>95.66666666666667</ele><time>2026-04-09T13:23:11Z</time></trkpt><trkpt lat="42.5678875442439" lon="2.851320599279231"><ele>95.33333333333334</ele><time>2026-04-09T13:23:12Z</time></trkpt><trkpt lat="42.568064022929555" lon="2.8513035659295527"><ele>95.0</ele><time>2026-04-09T13:23:13Z</time></trkpt><trkpt lat="42.568236079813545" lon="2.8512849465844687"><ele>95.0</ele><time>2026-04-09T13:23:14Z</time></trkpt><trkpt lat="42.56840217517385" lon="2.851268026525292"><ele>95.0</ele><time>2026-04-09T13:23:15Z</time></trkpt><trkpt lat="42.568568101700876" lon="2.8512504498229143"><ele>95.0</ele><time>2026-04-09T13:23:16Z</time></trkpt><trkpt lat="42.56873489128387" lon="2.8512333391990703"><ele>95.0</ele><time>2026-04-09T13:23:17Z</time></trkpt><trkpt lat="42.56889778157457" lon="2.851217970601327"><ele>95.0</ele><time>2026-04-09T13:23:18Z</time></trkpt><trkpt lat="42.56906376372336" lon="2.8512034136470925"><ele>95.0</ele><time>2026-04-09T13:23:19Z</time></trkpt><trkpt lat="42.569231298829266" lon="2.8511914466395445"><ele>95.0</ele><time>2026-04-09T13:23:20Z</time></trkpt><trkpt lat="42.56940015942446" lon="2.8511757884797806"><ele>95.0</ele><time>2026-04-09T13:23:21Z</time></trkpt><trkpt lat="42.56957144614395" lon="2.8511590347157187"><ele>95.0</ele><time>2026-04-09T13:23:22Z</time></trkpt><trkpt lat="42.569742801082306" lon="2.85113983742608"><ele>96.0</ele><time>2026-04-09T13:23:23Z</time></trkpt><trkpt lat="42.569916001884174" lon="2.8511214177025606"><ele>97.0</ele><time>2026-04-09T13:23:24Z</time></trkpt><trkpt lat="42.57008965756558" lon="2.851103265106279"><ele>98.0</ele><time>2026-04-09T13:23:25Z</time></trkpt><trkpt lat="42.57026270322961" lon="2.8510870310290133"><ele>97.66666666666666</ele><time>2026-04-09T13:23:26Z</time></trkpt><trkpt lat="42.57043543310364" lon="2.8510724146047495"><ele>97.33333333333334</ele><time>2026-04-09T13:23:27Z</time></trkpt><trkpt lat="42.570606056182044" lon="2.8510556957430953"><ele>97.0</ele><time>2026-04-09T13:23:28Z</time></trkpt><trkpt lat="42.57077731770508" lon="2.851037214066063"><ele>97.0</ele><time>2026-04-09T13:23:29Z</time></trkpt><trkpt lat="42.57095007616839" lon="2.851019298583853"><ele>97.0</ele><time>2026-04-09T13:23:30Z</time></trkpt><trkpt lat="42.57112084184272" lon="2.851001637525717"><ele>97.0</ele><time>2026-04-09T13:23:31Z</time></trkpt><trkpt lat="42.571287929546074" lon="2.8509845086907766"><ele>97.0</ele><time>2026-04-09T13:23:32Z</time></trkpt><trkpt lat="42.57145003996203" lon="2.8509696771559137"><ele>97.0</ele><time>2026-04-09T13:23:33Z</time></trkpt><trkpt lat="42.57160979574689" lon="2.8509534106334753"><ele>97.0</ele><time>2026-04-09T13:23:34Z</time></trkpt><trkpt lat="42.57175890331824" lon="2.850939925548066"><ele>97.5</ele><time>2026-04-09T13:23:35Z</time></trkpt><trkpt lat="42.571902332296496" lon="2.8509253085356545"><ele>98.0</ele><time>2026-04-09T13:23:36Z</time></trkpt><trkpt lat="42.57203911753759" lon="2.850910286271686"><ele>98.5</ele><time>2026-04-09T13:23:37Z</time></trkpt><trkpt lat="42.572165033259495" lon="2.8508981191152567"><ele>99.0</ele><time>2026-04-09T13:23:38Z</time></trkpt><trkpt lat="42.57228125065288" lon="2.8508869305972504"><ele>99.0</ele><time>2026-04-09T13:23:39Z</time></trkpt><trkpt lat="42.57238704645903" lon="2.8508766983729275"><ele>99.0</ele><time>2026-04-09T13:23:40Z</time></trkpt><trkpt lat="42.57248810072561" lon="2.850864978207212"><ele>99.0</ele><time>2026-04-09T13:23:41Z</time></trkpt><trkpt lat="42.57258265277002" lon="2.8508570410667127"><ele>99.0</ele><time>2026-04-09T13:23:42Z</time></trkpt><trkpt lat="42.5726689921662" lon="2.850855993030087"><ele>99.0</ele><time>2026-04-09T13:23:43Z</time></trkpt><trkpt lat="42.57275415025161" lon="2.8508622110393262"><ele>99.0</ele><time>2026-04-09T13:23:44Z</time></trkpt><trkpt lat="42.572828612606145" lon="2.8508886105156543"><ele>99.0</ele><time>2026-04-09T13:23:45Z</time></trkpt><trkpt lat="42.57289430518838" lon="2.850942407874312"><ele>99.0</ele><time>2026-04-09T13:23:46Z</time></trkpt><trkpt lat="42.57295439051437" lon="2.8510100365770037"><ele>99.0</ele><time>2026-04-09T13:23:47Z</time></trkpt><trkpt lat="42.57302349181571" lon="2.851047045669866"><ele>99.0</ele><time>2026-04-09T13:23:48Z</time></trkpt><trkpt lat="42.57309650726842" lon="2.851044130761802"><ele>99.0</ele><time>2026-04-09T13:23:49Z</time></trkpt><trkpt lat="42.573164374569956" lon="2.850987804896757"><ele>99.4</ele><time>2026-04-09T13:23:50Z</time></trkpt><trkpt lat="42.573227654536666" lon="2.850906568993908"><ele>99.80000000000001</ele><time>2026-04-09T13:23:51Z</time></trkpt><trkpt lat="42.57330524755292" lon="2.8508340182386456"><ele>100.19999999999999</ele><time>2026-04-09T13:23:52Z</time></trkpt><trkpt lat="42.573406489556376" lon="2.8507914994214945"><ele>100.6</ele><time>2026-04-09T13:23:53Z</time></trkpt><trkpt lat="42.57352435289327" lon="2.8507764284373525"><ele>101.0</ele><time>2026-04-09T13:23:54Z</time></trkpt><trkpt lat="42.57364459621309" lon="2.8507665559625845"><ele>101.25</ele><time>2026-04-09T13:23:55Z</time></trkpt><trkpt lat="42.573777550455084" lon="2.8507543769767145"><ele>101.5</ele><time>2026-04-09T13:23:56Z</time></trkpt><trkpt lat="42.57391521993973" lon="2.8507429560055653"><ele>101.75</ele><time>2026-04-09T13:23:57Z</time></trkpt><trkpt lat="42.57404788999224" lon="2.8507317859510315"><ele>102.0</ele><time>2026-04-09T13:23:58Z</time></trkpt><trkpt lat="42.574175201355665" lon="2.850720504582849"><ele>102.0</ele><time>2026-04-09T13:23:59Z</time></trkpt><trkpt lat="42.57429618166075" lon="2.8507090214867117"><ele>102.0</ele><time>2026-04-09T13:24:00Z</time></trkpt><trkpt lat="42.57441391316841" lon="2.850695819818295"><ele>102.0</ele><time>2026-04-09T13:24:01Z</time></trkpt><trkpt lat="42.57453517543208" lon="2.8506850319022248"><ele>102.0</ele><time>2026-04-09T13:24:02Z</time></trkpt><trkpt lat="42.57466567876258" lon="2.850673252420902"><ele>101.25</ele><time>2026-04-09T13:24:03Z</time></trkpt><trkpt lat="42.574802566046465" lon="2.850659433989754"><ele>100.5</ele><time>2026-04-09T13:24:04Z</time></trkpt><trkpt lat="42.57494651115031" lon="2.850645527927628"><ele>99.75</ele><time>2026-04-09T13:24:05Z</time></trkpt><trkpt lat="42.57509880301883" lon="2.8506309747463168"><ele>99.0</ele><time>2026-04-09T13:24:06Z</time></trkpt><trkpt lat="42.575257099178536" lon="2.8506146206962657"><ele>99.33333333333334</ele><time>2026-04-09T13:24:07Z</time></trkpt><trkpt lat="42.57541697945713" lon="2.8506002008212046"><ele>99.66666666666667</ele><time>2026-04-09T13:24:08Z</time></trkpt><trkpt lat="42.575576311898594" lon="2.8505874402811355"><ele>100.0</ele><time>2026-04-09T13:24:09Z</time></trkpt><trkpt lat="42.575739477934945" lon="2.8505758478513674"><ele>100.0</ele><time>2026-04-09T13:24:10Z</time></trkpt><trkpt lat="42.57590727910123" lon="2.8505632766661817"><ele>100.0</ele><time>2026-04-09T13:24:11Z</time></trkpt><trkpt lat="42.5760764832593" lon="2.8505482228664003"><ele>100.0</ele><time>2026-04-09T13:24:12Z</time></trkpt><trkpt lat="42.5762477404208" lon="2.850538369248985"><ele>100.0</ele><time>2026-04-09T13:24:13Z</time></trkpt><trkpt lat="42.576423268767904" lon="2.850532608651018"><ele>100.0</ele><time>2026-04-09T13:24:14Z</time></trkpt><trkpt lat="42.57660407340331" lon="2.8505297587801364"><ele>100.0</ele><time>2026-04-09T13:24:15Z</time></trkpt><trkpt lat="42.57678752099628" lon="2.850527862852377"><ele>100.0</ele><time>2026-04-09T13:24:16Z</time></trkpt><trkpt lat="42.57697123228965" lon="2.8505259637537543"><ele>100.0</ele><time>2026-04-09T13:24:17Z</time></trkpt><trkpt lat="42.57715709867683" lon="2.8505220894295284"><ele>100.0</ele><time>2026-04-09T13:24:18Z</time></trkpt><trkpt lat="42.577343396518835" lon="2.850517388363509"><ele>99.0</ele><time>2026-04-09T13:24:19Z</time></trkpt><trkpt lat="42.577534185536145" lon="2.8505139572726974"><ele>98.0</ele><time>2026-04-09T13:24:20Z</time></trkpt><trkpt lat="42.577731013793645" lon="2.8505113190039295"><ele>97.0</ele><time>2026-04-09T13:24:21Z</time></trkpt><trkpt lat="42.577927336728514" lon="2.850507573185396"><ele>96.0</ele><time>2026-04-09T13:24:22Z</time></trkpt><trkpt lat="42.578127487962846" lon="2.8505050833855643"><ele>95.0</ele><time>2026-04-09T13:24:23Z</time></trkpt><trkpt lat="42.578329375286756" lon="2.8505030239661506"><ele>94.0</ele><time>2026-04-09T13:24:24Z</time></trkpt><trkpt lat="42.5785299719631" lon="2.8504984483849563"><ele>92.66666666666666</ele><time>2026-04-09T13:24:25Z</time></trkpt><trkpt lat="42.57873546810727" lon="2.8504959198851214"><ele>91.33333333333333</ele><time>2026-04-09T13:24:26Z</time></trkpt><trkpt lat="42.578940129970626" lon="2.850486985866542"><ele>90.0</ele><time>2026-04-09T13:24:27Z</time></trkpt><trkpt lat="42.579140737856626" lon="2.8504780857327976"><ele>90.0</ele><time>2026-04-09T13:24:28Z</time></trkpt><trkpt lat="42.57934816605231" lon="2.850472450084748"><ele>90.0</ele><time>2026-04-09T13:24:29Z</time></trkpt><trkpt lat="42.57955562788883" lon="2.850467786599842"><ele>90.0</ele><time>2026-04-09T13:24:30Z</time></trkpt><trkpt lat="42.57976735317469" lon="2.850464243553067"><ele>89.33333333333333</ele><time>2026-04-09T13:24:31Z</time></trkpt><trkpt lat="42.57997804583893" lon="2.850459991524966"><ele>88.66666666666666</ele><time>2026-04-09T13:24:32Z</time></trkpt><trkpt lat="42.58018451032582" lon="2.850457441711842"><ele>88.0</ele><time>2026-04-09T13:24:33Z</time></trkpt><trkpt lat="42.58038625724182" lon="2.850450805885978"><ele>88.0</ele><time>2026-04-09T13:24:34Z</time></trkpt><trkpt lat="42.58059642153354" lon="2.8504448285401165"><ele>88.0</ele><time>2026-04-09T13:24:35Z</time></trkpt><trkpt lat="42.58080572621379" lon="2.8504380747007327"><ele>88.0</ele><time>2026-04-09T13:24:36Z</time></trkpt><trkpt lat="42.58102000012173" lon="2.8504341792651915"><ele>88.0</ele><time>2026-04-09T13:24:37Z</time></trkpt><trkpt lat="42.58123704923278" lon="2.850433913734984"><ele>88.0</ele><time>2026-04-09T13:24:38Z</time></trkpt><trkpt lat="42.581455820321224" lon="2.8504307505877784"><ele>88.0</ele><time>2026-04-09T13:24:39Z</time></trkpt><trkpt lat="42.58167357158537" lon="2.8504266430243996"><ele>88.0</ele><time>2026-04-09T13:24:40Z</time></trkpt><trkpt lat="42.58188947343713" lon="2.8504238833218105"><ele>88.0</ele><time>2026-04-09T13:24:41Z</time></trkpt><trkpt lat="42.58210574357243" lon="2.850419895461051"><ele>88.0</ele><time>2026-04-09T13:24:42Z</time></trkpt><trkpt lat="42.58232051329925" lon="2.8504156379141907"><ele>88.33333333333333</ele><time>2026-04-09T13:24:43Z</time></trkpt><trkpt lat="42.5825362299335" lon="2.8504126985203277"><ele>88.66666666666667</ele><time>2026-04-09T13:24:44Z</time></trkpt><trkpt lat="42.58275132863818" lon="2.8504094431901406"><ele>89.0</ele><time>2026-04-09T13:24:45Z</time></trkpt><trkpt lat="42.58296846983966" lon="2.850406341640107"><ele>89.33333333333334</ele><time>2026-04-09T13:24:46Z</time></trkpt><trkpt lat="42.583184254112005" lon="2.8504004454125513"><ele>89.66666666666667</ele><time>2026-04-09T13:24:47Z</time></trkpt><trkpt lat="42.58339493707266" lon="2.8503949154337556"><ele>90.0</ele><time>2026-04-09T13:24:48Z</time></trkpt><trkpt lat="42.58359969442116" lon="2.850389079312629"><ele>91.0</ele><time>2026-04-09T13:24:49Z</time></trkpt><trkpt lat="42.583798211516" lon="2.8503849852692156"><ele>92.0</ele><time>2026-04-09T13:24:50Z</time></trkpt><trkpt lat="42.58399168509463" lon="2.850382423719317"><ele>93.0</ele><time>2026-04-09T13:24:51Z</time></trkpt><trkpt lat="42.58418289335184" lon="2.8503778752525797"><ele>93.0</ele><time>2026-04-09T13:24:52Z</time></trkpt><trkpt lat="42.58437403507768" lon="2.850373674926449"><ele>93.0</ele><time>2026-04-09T13:24:53Z</time></trkpt><trkpt lat="42.58456683489975" lon="2.850368845109986"><ele>93.0</ele><time>2026-04-09T13:24:54Z</time></trkpt><trkpt lat="42.58476136719969" lon="2.8503684310759425"><ele>93.66666666666667</ele><time>2026-04-09T13:24:55Z</time></trkpt><trkpt lat="42.584953771977055" lon="2.8503734126053413"><ele>94.33333333333334</ele><time>2026-04-09T13:24:56Z</time></trkpt><trkpt lat="42.58514446201044" lon="2.8503865325430535"><ele>95.0</ele><time>2026-04-09T13:24:57Z</time></trkpt><trkpt lat="42.58533591157851" lon="2.850406980680398"><ele>93.33333333333334</ele><time>2026-04-09T13:24:58Z</time></trkpt><trkpt lat="42.58552537176709" lon="2.8504381094310864"><ele>91.66666666666667</ele><time>2026-04-09T13:24:59Z</time></trkpt><trkpt lat="42.58571287871798" lon="2.8504827117372806"><ele>90.0</ele><time>2026-04-09T13:25:00Z</time></trkpt><trkpt lat="42.58589792021393" lon="2.850538559917314"><ele>90.0</ele><time>2026-04-09T13:25:01Z</time></trkpt><trkpt lat="42.58607976287135" lon="2.850607811034268"><ele>90.0</ele><time>2026-04-09T13:25:02Z</time></trkpt><trkpt lat="42.58626012687537" lon="2.8506817747316746"><ele>90.0</ele><time>2026-04-09T13:25:03Z</time></trkpt><trkpt lat="42.58644040224564" lon="2.85075508968649"><ele>88.66666666666667</ele><time>2026-04-09T13:25:04Z</time></trkpt><trkpt lat="42.586613089182045" lon="2.8508267971833843"><ele>87.33333333333334</ele><time>2026-04-09T13:25:05Z</time></trkpt><trkpt lat="42.58678199686697" lon="2.8508977174595804"><ele>86.0</ele><time>2026-04-09T13:25:06Z</time></trkpt><trkpt lat="42.586948109213246" lon="2.8509669784599887"><ele>84.66666666666667</ele><time>2026-04-09T13:25:07Z</time></trkpt><trkpt lat="42.58710985309881" lon="2.851033891805921"><ele>83.33333333333333</ele><time>2026-04-09T13:25:08Z</time></trkpt><trkpt lat="42.587268743928746" lon="2.851100205097685"><ele>82.0</ele><time>2026-04-09T13:25:09Z</time></trkpt><trkpt lat="42.58742541948858" lon="2.851165879120213"><ele>82.0</ele><time>2026-04-09T13:25:10Z</time></trkpt><trkpt lat="42.58758103058118" lon="2.851231112229904"><ele>82.0</ele><time>2026-04-09T13:25:11Z</time></trkpt><trkpt lat="42.58773424505763" lon="2.8512965469679363"><ele>82.0</ele><time>2026-04-09T13:25:12Z</time></trkpt><trkpt lat="42.58787976318187" lon="2.8513577715731175"><ele>82.0</ele><time>2026-04-09T13:25:13Z</time></trkpt><trkpt lat="42.58802428639424" lon="2.8514170958809926"><ele>82.0</ele><time>2026-04-09T13:25:14Z</time></trkpt><trkpt lat="42.58816631105147" lon="2.8514767044694413"><ele>82.0</ele><time>2026-04-09T13:25:15Z</time></trkpt><trkpt lat="42.588305635079564" lon="2.851535917549029"><ele>82.0</ele><time>2026-04-09T13:25:16Z</time></trkpt><trkpt lat="42.58843907908099" lon="2.851590891059867"><ele>82.0</ele><time>2026-04-09T13:25:17Z</time></trkpt><trkpt lat="42.588565132206085" lon="2.8516428510029495"><ele>82.0</ele><time>2026-04-09T13:25:18Z</time></trkpt><trkpt lat="42.58868567249428" lon="2.851691197004146"><ele>82.0</ele><time>2026-04-09T13:25:19Z</time></trkpt><trkpt lat="42.588794080785995" lon="2.851733829368702"><ele>82.0</ele><time>2026-04-09T13:25:20Z</time></trkpt><trkpt lat="42.588891159657535" lon="2.8517718789253723"><ele>81.8</ele><time>2026-04-09T13:25:21Z</time></trkpt><trkpt lat="42.5889810242188" lon="2.8518081600469167"><ele>81.6</ele><time>2026-04-09T13:25:22Z</time></trkpt><trkpt lat="42.589059693460825" lon="2.8518407007442903"><ele>81.39999999999999</ele><time>2026-04-09T13:25:23Z</time></trkpt><trkpt lat="42.589125030568404" lon="2.8518718060779067"><ele>81.19999999999999</ele><time>2026-04-09T13:25:24Z</time></trkpt><trkpt lat="42.58922270245928" lon="2.851931097218536"><ele>81.0</ele><time>2026-04-09T13:25:26Z</time></trkpt><trkpt lat="42.5893008250625" lon="2.8520375078271076"><ele>81.0</ele><time>2026-04-09T13:25:28Z</time></trkpt><trkpt lat="42.589375557939846" lon="2.852175445245532"><ele>81.0</ele><time>2026-04-09T13:25:30Z</time></trkpt><trkpt lat="42.589433416422004" lon="2.8522201192621512"><ele>81.0</ele><time>2026-04-09T13:25:31Z</time></trkpt><trkpt lat="42.58949758960832" lon="2.85223881303782"><ele>81.0</ele><time>2026-04-09T13:25:32Z</time></trkpt><trkpt lat="42.589560777349256" lon="2.8522230120400724"><ele>81.0</ele><time>2026-04-09T13:25:33Z</time></trkpt><trkpt lat="42.589623012864536" lon="2.8521940651319593"><ele>81.0</ele><time>2026-04-09T13:25:34Z</time></trkpt><trkpt lat="42.589689994321056" lon="2.8521714866064283"><ele>81.16666666666667</ele><time>2026-04-09T13:25:35Z</time></trkpt><trkpt lat="42.589761135554355" lon="2.8521684352320755"><ele>81.33333333333333</ele><time>2026-04-09T13:25:36Z</time></trkpt><trkpt lat="42.58983406524811" lon="2.8521838161388873"><ele>81.5</ele><time>2026-04-09T13:25:37Z</time></trkpt><trkpt lat="42.58991013205148" lon="2.852208080227651"><ele>81.66666666666666</ele><time>2026-04-09T13:25:38Z</time></trkpt><trkpt lat="42.58999019738701" lon="2.852241242328581"><ele>81.83333333333333</ele><time>2026-04-09T13:25:39Z</time></trkpt><trkpt lat="42.590079801867034" lon="2.8522804445412184"><ele>82.0</ele><time>2026-04-09T13:25:40Z</time></trkpt><trkpt lat="42.59017812512913" lon="2.8523253190798084"><ele>82.0</ele><time>2026-04-09T13:25:41Z</time></trkpt><trkpt lat="42.59028466923668" lon="2.8523722313084208"><ele>82.0</ele><time>2026-04-09T13:25:42Z</time></trkpt><trkpt lat="42.59039445644531" lon="2.8524201369486963"><ele>82.0</ele><time>2026-04-09T13:25:43Z</time></trkpt><trkpt lat="42.590504810752236" lon="2.8524684536077656"><ele>82.0</ele><time>2026-04-09T13:25:44Z</time></trkpt><trkpt lat="42.59061762838274" lon="2.8525179355257553"><ele>81.25</ele><time>2026-04-09T13:25:45Z</time></trkpt><trkpt lat="42.59073724021743" lon="2.852570682279576"><ele>80.5</ele><time>2026-04-09T13:25:46Z</time></trkpt><trkpt lat="42.5908625475287" lon="2.852628405204526"><ele>79.75</ele><time>2026-04-09T13:25:47Z</time></trkpt><trkpt lat="42.59099453622184" lon="2.8526865647864352"><ele>79.0</ele><time>2026-04-09T13:25:48Z</time></trkpt><trkpt lat="42.59113233080969" lon="2.8527483758261365"><ele>77.66666666666666</ele><time>2026-04-09T13:25:49Z</time></trkpt><trkpt lat="42.591279274214735" lon="2.852813430353027"><ele>76.33333333333333</ele><time>2026-04-09T13:25:50Z</time></trkpt><trkpt lat="42.591431593888075" lon="2.852879976032021"><ele>75.0</ele><time>2026-04-09T13:25:51Z</time></trkpt><trkpt lat="42.59158251087956" lon="2.8529478034539184"><ele>75.0</ele><time>2026-04-09T13:25:52Z</time></trkpt><trkpt lat="42.59173351230233" lon="2.853015718948719"><ele>75.0</ele><time>2026-04-09T13:25:53Z</time></trkpt><trkpt lat="42.591883402537974" lon="2.8530804683046607"><ele>75.0</ele><time>2026-04-09T13:25:54Z</time></trkpt><trkpt lat="42.5920334833755" lon="2.853145606647786"><ele>74.33333333333333</ele><time>2026-04-09T13:25:55Z</time></trkpt><trkpt lat="42.59218684562586" lon="2.8532141629913124"><ele>73.66666666666666</ele><time>2026-04-09T13:25:56Z</time></trkpt><trkpt lat="42.592343483607436" lon="2.8532856769079973"><ele>73.0</ele><time>2026-04-09T13:25:57Z</time></trkpt><trkpt lat="42.592509122099564" lon="2.853359739600974"><ele>73.0</ele><time>2026-04-09T13:25:58Z</time></trkpt><trkpt lat="42.59267527941123" lon="2.8534343020963253"><ele>73.0</ele><time>2026-04-09T13:25:59Z</time></trkpt><trkpt lat="42.59284467578659" lon="2.8535090254213484"><ele>73.0</ele><time>2026-04-09T13:26:00Z</time></trkpt><trkpt lat="42.593017020195084" lon="2.8535863003599995"><ele>72.33333333333333</ele><time>2026-04-09T13:26:01Z</time></trkpt><trkpt lat="42.59319081085701" lon="2.8536618743544664"><ele>71.66666666666667</ele><time>2026-04-09T13:26:02Z</time></trkpt><trkpt lat="42.59336363405561" lon="2.853738654498594"><ele>71.0</ele><time>2026-04-09T13:26:03Z</time></trkpt><trkpt lat="42.59353829712648" lon="2.853819142252155"><ele>70.0</ele><time>2026-04-09T13:26:04Z</time></trkpt><trkpt lat="42.59371598221609" lon="2.8539011171386814"><ele>69.0</ele><time>2026-04-09T13:26:05Z</time></trkpt><trkpt lat="42.59389170809076" lon="2.8539824256234803"><ele>68.0</ele><time>2026-04-09T13:26:06Z</time></trkpt><trkpt lat="42.594067014890854" lon="2.854064478691406"><ele>68.0</ele><time>2026-04-09T13:26:07Z</time></trkpt><trkpt lat="42.59424200311635" lon="2.854145140983464"><ele>68.0</ele><time>2026-04-09T13:26:08Z</time></trkpt><trkpt lat="42.59441938426447" lon="2.8542254947409433"><ele>68.0</ele><time>2026-04-09T13:26:09Z</time></trkpt><trkpt lat="42.59459875717115" lon="2.854306771975581"><ele>67.66666666666667</ele><time>2026-04-09T13:26:10Z</time></trkpt><trkpt lat="42.594781630294236" lon="2.854390870790493"><ele>67.33333333333333</ele><time>2026-04-09T13:26:11Z</time></trkpt><trkpt lat="42.594962367020486" lon="2.8544740930970525"><ele>67.0</ele><time>2026-04-09T13:26:12Z</time></trkpt><trkpt lat="42.59514344641972" lon="2.854555081947629"><ele>67.0</ele><time>2026-04-09T13:26:13Z</time></trkpt><trkpt lat="42.59532515770076" lon="2.854637922569198"><ele>67.0</ele><time>2026-04-09T13:26:14Z</time></trkpt><trkpt lat="42.59550800217133" lon="2.854724180475309"><ele>67.0</ele><time>2026-04-09T13:26:15Z</time></trkpt><trkpt lat="42.59568787321696" lon="2.8548114854528457"><ele>67.0</ele><time>2026-04-09T13:26:16Z</time></trkpt><trkpt lat="42.59587230274776" lon="2.854906484806994"><ele>67.0</ele><time>2026-04-09T13:26:17Z</time></trkpt><trkpt lat="42.59606093937387" lon="2.8550029936465053"><ele>67.0</ele><time>2026-04-09T13:26:18Z</time></trkpt><trkpt lat="42.596255209879246" lon="2.8551022100593295"><ele>67.33333333333333</ele><time>2026-04-09T13:26:19Z</time></trkpt><trkpt lat="42.59645453681577" lon="2.8551994655818036"><ele>67.66666666666667</ele><time>2026-04-09T13:26:20Z</time></trkpt><trkpt lat="42.59665249287793" lon="2.855299342132662"><ele>68.0</ele><time>2026-04-09T13:26:21Z</time></trkpt><trkpt lat="42.59685188850172" lon="2.855401333316923"><ele>67.33333333333334</ele><time>2026-04-09T13:26:22Z</time></trkpt><trkpt lat="42.597053658307516" lon="2.8555015772653443"><ele>66.66666666666667</ele><time>2026-04-09T13:26:23Z</time></trkpt><trkpt lat="42.59725699685279" lon="2.855599770807314"><ele>66.0</ele><time>2026-04-09T13:26:24Z</time></trkpt><trkpt lat="42.59746134215241" lon="2.855696653006592"><ele>66.0</ele><time>2026-04-09T13:26:25Z</time></trkpt><trkpt lat="42.59766544286968" lon="2.855793226201545"><ele>66.0</ele><time>2026-04-09T13:26:26Z</time></trkpt><trkpt lat="42.597870544387526" lon="2.8558887978053145"><ele>66.0</ele><time>2026-04-09T13:26:27Z</time></trkpt><trkpt lat="42.598074790487615" lon="2.855982843907931"><ele>65.0</ele><time>2026-04-09T13:26:28Z</time></trkpt><trkpt lat="42.59827925083559" lon="2.856077838846901"><ele>64.0</ele><time>2026-04-09T13:26:29Z</time></trkpt><trkpt lat="42.59848213900503" lon="2.8561763417237684"><ele>63.0</ele><time>2026-04-09T13:26:30Z</time></trkpt><trkpt lat="42.59868439684391" lon="2.8562825144587634"><ele>63.0</ele><time>2026-04-09T13:26:31Z</time></trkpt><trkpt lat="42.59888601524553" lon="2.8563854414668675"><ele>63.0</ele><time>2026-04-09T13:26:32Z</time></trkpt><trkpt lat="42.59908716013729" lon="2.856483028105801"><ele>63.0</ele><time>2026-04-09T13:26:33Z</time></trkpt><trkpt lat="42.59928575700722" lon="2.8565783935887894"><ele>63.0</ele><time>2026-04-09T13:26:34Z</time></trkpt><trkpt lat="42.59948596327909" lon="2.8566725359108003"><ele>63.0</ele><time>2026-04-09T13:26:35Z</time></trkpt><trkpt lat="42.59968759319927" lon="2.856764933121768"><ele>63.0</ele><time>2026-04-09T13:26:36Z</time></trkpt><trkpt lat="42.59988899448256" lon="2.8568573490104874"><ele>63.0</ele><time>2026-04-09T13:26:37Z</time></trkpt><trkpt lat="42.60008879781582" lon="2.8569494664113573"><ele>63.0</ele><time>2026-04-09T13:26:38Z</time></trkpt><trkpt lat="42.60028832207166" lon="2.857041921996365"><ele>63.0</ele><time>2026-04-09T13:26:39Z</time></trkpt><trkpt lat="42.600486769502204" lon="2.8571330185775037"><ele>63.0</ele><time>2026-04-09T13:26:40Z</time></trkpt><trkpt lat="42.600686403085476" lon="2.857224082826165"><ele>63.0</ele><time>2026-04-09T13:26:41Z</time></trkpt><trkpt lat="42.6008863420976" lon="2.8573102658020733"><ele>63.0</ele><time>2026-04-09T13:26:42Z</time></trkpt><trkpt lat="42.60108525040457" lon="2.857393806167821"><ele>63.0</ele><time>2026-04-09T13:26:43Z</time></trkpt><trkpt lat="42.601284747321714" lon="2.857474414152843"><ele>63.0</ele><time>2026-04-09T13:26:44Z</time></trkpt><trkpt lat="42.60148456911072" lon="2.8575494465209763"><ele>63.0</ele><time>2026-04-09T13:26:45Z</time></trkpt><trkpt lat="42.60168718170329" lon="2.8576160535411828"><ele>63.0</ele><time>2026-04-09T13:26:46Z</time></trkpt><trkpt lat="42.6018902032009" lon="2.8576766486168514"><ele>63.0</ele><time>2026-04-09T13:26:47Z</time></trkpt><trkpt lat="42.602094908665826" lon="2.857734022884287"><ele>63.0</ele><time>2026-04-09T13:26:48Z</time></trkpt><trkpt lat="42.60229680372133" lon="2.8577853909290516"><ele>63.33333333333333</ele><time>2026-04-09T13:26:49Z</time></trkpt><trkpt lat="42.60249611045226" lon="2.857831892698915"><ele>63.666666666666664</ele><time>2026-04-09T13:26:50Z</time></trkpt><trkpt lat="42.60269291216959" lon="2.857878186752267"><ele>64.0</ele><time>2026-04-09T13:26:51Z</time></trkpt><trkpt lat="42.602888558018954" lon="2.857923914064204"><ele>66.0</ele><time>2026-04-09T13:26:52Z</time></trkpt><trkpt lat="42.60308032295513" lon="2.8579684673330457"><ele>68.0</ele><time>2026-04-09T13:26:53Z</time></trkpt><trkpt lat="42.60326870556202" lon="2.858016910753336"><ele>70.0</ele><time>2026-04-09T13:26:54Z</time></trkpt><trkpt lat="42.60345267896664" lon="2.858069714243398"><ele>70.0</ele><time>2026-04-09T13:26:55Z</time></trkpt><trkpt lat="42.60363172421525" lon="2.8581298086659466"><ele>70.0</ele><time>2026-04-09T13:26:56Z</time></trkpt><trkpt lat="42.60380414831228" lon="2.8581964816313374"><ele>70.0</ele><time>2026-04-09T13:26:57Z</time></trkpt><trkpt lat="42.6039704192449" lon="2.8582743597452818"><ele>70.0</ele><time>2026-04-09T13:26:58Z</time></trkpt><trkpt lat="42.60413352789727" lon="2.85836482565672"><ele>70.0</ele><time>2026-04-09T13:26:59Z</time></trkpt><trkpt lat="42.60428858533501" lon="2.8584632776962082"><ele>70.0</ele><time>2026-04-09T13:27:00Z</time></trkpt><trkpt lat="42.60443882367033" lon="2.8585619629697625"><ele>68.33333333333333</ele><time>2026-04-09T13:27:01Z</time></trkpt><trkpt lat="42.60459119148349" lon="2.858656360332791"><ele>66.66666666666667</ele><time>2026-04-09T13:27:02Z</time></trkpt><trkpt lat="42.60474118005669" lon="2.85875026847126"><ele>65.0</ele><time>2026-04-09T13:27:03Z</time></trkpt><trkpt lat="42.6048915848388" lon="2.8588387083875197"><ele>65.0</ele><time>2026-04-09T13:27:04Z</time></trkpt><trkpt lat="42.605041944507285" lon="2.8589256163196533"><ele>65.0</ele><time>2026-04-09T13:27:05Z</time></trkpt><trkpt lat="42.605190502176164" lon="2.8590147649001274"><ele>65.0</ele><time>2026-04-09T13:27:06Z</time></trkpt><trkpt lat="42.605337826386965" lon="2.859102508598658"><ele>65.33333333333334</ele><time>2026-04-09T13:27:07Z</time></trkpt><trkpt lat="42.60548417677644" lon="2.85918825653675"><ele>65.66666666666667</ele><time>2026-04-09T13:27:08Z</time></trkpt><trkpt lat="42.605629391281695" lon="2.859275498098242"><ele>66.0</ele><time>2026-04-09T13:27:09Z</time></trkpt><trkpt lat="42.60577501392466" lon="2.859362561075894"><ele>66.0</ele><time>2026-04-09T13:27:10Z</time></trkpt><trkpt lat="42.60591959548384" lon="2.859450598795434"><ele>66.0</ele><time>2026-04-09T13:27:11Z</time></trkpt><trkpt lat="42.60606461312059" lon="2.8595376347638264"><ele>66.0</ele><time>2026-04-09T13:27:12Z</time></trkpt><trkpt lat="42.6062097903505" lon="2.8596217713501075"><ele>65.33333333333333</ele><time>2026-04-09T13:27:13Z</time></trkpt><trkpt lat="42.606352484409896" lon="2.8597042589325627"><ele>64.66666666666666</ele><time>2026-04-09T13:27:14Z</time></trkpt><trkpt lat="42.60649461156857" lon="2.8597873227586574"><ele>64.0</ele><time>2026-04-09T13:27:15Z</time></trkpt><trkpt lat="42.606632783516126" lon="2.859871651553068"><ele>64.0</ele><time>2026-04-09T13:27:16Z</time></trkpt><trkpt lat="42.60676800499852" lon="2.8599552402183277"><ele>64.0</ele><time>2026-04-09T13:27:17Z</time></trkpt><trkpt lat="42.606900932236435" lon="2.860036138131495"><ele>64.0</ele><time>2026-04-09T13:27:18Z</time></trkpt><trkpt lat="42.60703088281037" lon="2.860116235788661"><ele>64.0</ele><time>2026-04-09T13:27:19Z</time></trkpt><trkpt lat="42.60715559331432" lon="2.8601930815803276"><ele>64.5</ele><time>2026-04-09T13:27:20Z</time></trkpt><trkpt lat="42.607280582716406" lon="2.8602709803759767"><ele>65.0</ele><time>2026-04-09T13:27:21Z</time></trkpt><trkpt lat="42.60740559199504" lon="2.8603453968204504"><ele>65.5</ele><time>2026-04-09T13:27:22Z</time></trkpt><trkpt lat="42.60753096695434" lon="2.860415790582713"><ele>66.0</ele><time>2026-04-09T13:27:23Z</time></trkpt><trkpt lat="42.60765857626822" lon="2.8604821279360766"><ele>66.0</ele><time>2026-04-09T13:27:24Z</time></trkpt><trkpt lat="42.60778734144659" lon="2.8605450930224894"><ele>66.0</ele><time>2026-04-09T13:27:25Z</time></trkpt><trkpt lat="42.6079160544436" lon="2.8606068264761313"><ele>66.0</ele><time>2026-04-09T13:27:26Z</time></trkpt><trkpt lat="42.608043972066085" lon="2.8606686419861505"><ele>66.0</ele><time>2026-04-09T13:27:27Z</time></trkpt><trkpt lat="42.60817008204056" lon="2.8607275179702536"><ele>65.5</ele><time>2026-04-09T13:27:28Z</time></trkpt><trkpt lat="42.60829801328554" lon="2.8607846921017344"><ele>65.0</ele><time>2026-04-09T13:27:29Z</time></trkpt><trkpt lat="42.60843069709568" lon="2.8608445844969266"><ele>64.5</ele><time>2026-04-09T13:27:30Z</time></trkpt><trkpt lat="42.608566035600994" lon="2.860905328393161"><ele>64.0</ele><time>2026-04-09T13:27:31Z</time></trkpt><trkpt lat="42.608707014957126" lon="2.8609681051936864"><ele>63.666666666666664</ele><time>2026-04-09T13:27:32Z</time></trkpt><trkpt lat="42.6088528075161" lon="2.8610354643901434"><ele>63.33333333333333</ele><time>2026-04-09T13:27:33Z</time></trkpt><trkpt lat="42.60900289160019" lon="2.8611044708345417"><ele>63.0</ele><time>2026-04-09T13:27:34Z</time></trkpt><trkpt lat="42.609160081992734" lon="2.861175602126888"><ele>63.0</ele><time>2026-04-09T13:27:35Z</time></trkpt><trkpt lat="42.609325804691444" lon="2.8612489258279314"><ele>63.0</ele><time>2026-04-09T13:27:36Z</time></trkpt><trkpt lat="42.60949306007281" lon="2.8613232448997334"><ele>63.0</ele><time>2026-04-09T13:27:37Z</time></trkpt><trkpt lat="42.60966404646223" lon="2.86139931491803"><ele>62.33333333333333</ele><time>2026-04-09T13:27:38Z</time></trkpt><trkpt lat="42.6098401478345" lon="2.8614788865908585"><ele>61.666666666666664</ele><time>2026-04-09T13:27:39Z</time></trkpt><trkpt lat="42.61001996886634" lon="2.861561477945706"><ele>61.0</ele><time>2026-04-09T13:27:40Z</time></trkpt><trkpt lat="42.61020428045452" lon="2.8616456646073476"><ele>60.666666666666664</ele><time>2026-04-09T13:27:41Z</time></trkpt><trkpt lat="42.61039288838492" lon="2.8617330852184177"><ele>60.33333333333333</ele><time>2026-04-09T13:27:42Z</time></trkpt><trkpt lat="42.61058523723078" lon="2.8618209115104354"><ele>60.0</ele><time>2026-04-09T13:27:43Z</time></trkpt><trkpt lat="42.61078277151165" lon="2.8619071730197927"><ele>60.0</ele><time>2026-04-09T13:27:44Z</time></trkpt><trkpt lat="42.61098418548402" lon="2.861996650446108"><ele>60.0</ele><time>2026-04-09T13:27:45Z</time></trkpt><trkpt lat="42.61118883110005" lon="2.8620877277218333"><ele>60.0</ele><time>2026-04-09T13:27:46Z</time></trkpt><trkpt lat="42.6113982424679" lon="2.8621815972303235"><ele>59.66666666666667</ele><time>2026-04-09T13:27:47Z</time></trkpt><trkpt lat="42.61160931538195" lon="2.86227806993876"><ele>59.333333333333336</ele><time>2026-04-09T13:27:48Z</time></trkpt><trkpt lat="42.61181992135468" lon="2.862372858784491"><ele>59.0</ele><time>2026-04-09T13:27:49Z</time></trkpt><trkpt lat="42.61202277256404" lon="2.862466046986166"><ele>59.0</ele><time>2026-04-09T13:27:50Z</time></trkpt><trkpt lat="42.612223048891444" lon="2.86255606425714"><ele>59.0</ele><time>2026-04-09T13:27:51Z</time></trkpt><trkpt lat="42.6124200861759" lon="2.862647532548775"><ele>59.0</ele><time>2026-04-09T13:27:52Z</time></trkpt><trkpt lat="42.61261687776396" lon="2.8627392586106977"><ele>59.0</ele><time>2026-04-09T13:27:53Z</time></trkpt><trkpt lat="42.612814804476166" lon="2.8628288994413706"><ele>59.0</ele><time>2026-04-09T13:27:54Z</time></trkpt><trkpt lat="42.61301258674598" lon="2.8629180669935215"><ele>59.0</ele><time>2026-04-09T13:27:55Z</time></trkpt><trkpt lat="42.61320880364827" lon="2.8630069916755376"><ele>59.333333333333336</ele><time>2026-04-09T13:27:56Z</time></trkpt><trkpt lat="42.61340870593849" lon="2.8630988467918743"><ele>59.66666666666667</ele><time>2026-04-09T13:27:57Z</time></trkpt><trkpt lat="42.61360316284317" lon="2.863191809164958"><ele>60.0</ele><time>2026-04-09T13:27:58Z</time></trkpt><trkpt lat="42.613796899279876" lon="2.863283589496707"><ele>60.33333333333333</ele><time>2026-04-09T13:27:59Z</time></trkpt><trkpt lat="42.613992536538206" lon="2.863374804042319"><ele>60.666666666666664</ele><time>2026-04-09T13:28:00Z</time></trkpt><trkpt lat="42.61418685618363" lon="2.8634630164869654"><ele>61.0</ele><time>2026-04-09T13:28:01Z</time></trkpt><trkpt lat="42.61438184499202" lon="2.8635521349440887"><ele>60.0</ele><time>2026-04-09T13:28:02Z</time></trkpt><trkpt lat="42.61457660501433" lon="2.8636429026219012"><ele>59.0</ele><time>2026-04-09T13:28:03Z</time></trkpt><trkpt lat="42.61477259645976" lon="2.8637322784801436"><ele>58.0</ele><time>2026-04-09T13:28:04Z</time></trkpt><trkpt lat="42.61497091360126" lon="2.8638226124763366"><ele>58.0</ele><time>2026-04-09T13:28:05Z</time></trkpt><trkpt lat="42.615167456247505" lon="2.863912791505567"><ele>58.0</ele><time>2026-04-09T13:28:06Z</time></trkpt><trkpt lat="42.61536369536926" lon="2.864001517242364"><ele>58.0</ele><time>2026-04-09T13:28:07Z</time></trkpt><trkpt lat="42.615558892040184" lon="2.86408787829688"><ele>57.666666666666664</ele><time>2026-04-09T13:28:08Z</time></trkpt><trkpt lat="42.61575253559298" lon="2.86417555467314"><ele>57.33333333333333</ele><time>2026-04-09T13:28:09Z</time></trkpt><trkpt lat="42.615946186292305" lon="2.8642648057442432"><ele>57.0</ele><time>2026-04-09T13:28:10Z</time></trkpt><trkpt lat="42.61614300956991" lon="2.8643554931849065"><ele>56.0</ele><time>2026-04-09T13:28:11Z</time></trkpt><trkpt lat="42.61634001723392" lon="2.8644448030889915"><ele>55.0</ele><time>2026-04-09T13:28:12Z</time></trkpt><trkpt lat="42.616536171108876" lon="2.8645350582978306"><ele>54.0</ele><time>2026-04-09T13:28:13Z</time></trkpt><trkpt lat="42.61673129638376" lon="2.86462480333698"><ele>54.0</ele><time>2026-04-09T13:28:14Z</time></trkpt><trkpt lat="42.61692883944648" lon="2.864713108172503"><ele>54.0</ele><time>2026-04-09T13:28:15Z</time></trkpt><trkpt lat="42.61712522655967" lon="2.8648017693563292"><ele>54.0</ele><time>2026-04-09T13:28:16Z</time></trkpt><trkpt lat="42.61732051684109" lon="2.8648907383385334"><ele>54.0</ele><time>2026-04-09T13:28:17Z</time></trkpt><trkpt lat="42.6175142469622" lon="2.864977901665375"><ele>54.0</ele><time>2026-04-09T13:28:18Z</time></trkpt><trkpt lat="42.61770486365369" lon="2.8650636028406082"><ele>54.0</ele><time>2026-04-09T13:28:19Z</time></trkpt><trkpt lat="42.61789599229654" lon="2.86514718125841"><ele>52.66666666666667</ele><time>2026-04-09T13:28:20Z</time></trkpt><trkpt lat="42.61808638958651" lon="2.8652349923036082"><ele>51.333333333333336</ele><time>2026-04-09T13:28:21Z</time></trkpt><trkpt lat="42.618276741851794" lon="2.865319907597166"><ele>50.0</ele><time>2026-04-09T13:28:22Z</time></trkpt><trkpt lat="42.61846589640053" lon="2.865406381679294"><ele>50.333333333333336</ele><time>2026-04-09T13:28:23Z</time></trkpt><trkpt lat="42.61865497106001" lon="2.8654944387251735"><ele>50.66666666666667</ele><time>2026-04-09T13:28:24Z</time></trkpt><trkpt lat="42.618844504825255" lon="2.8655793656303596"><ele>51.0</ele><time>2026-04-09T13:28:25Z</time></trkpt><trkpt lat="42.61903469228213" lon="2.865665408667071"><ele>51.0</ele><time>2026-04-09T13:28:26Z</time></trkpt><trkpt lat="42.61922425205138" lon="2.865752975020451"><ele>51.0</ele><time>2026-04-09T13:28:27Z</time></trkpt><trkpt lat="42.61941341027216" lon="2.865838508719933"><ele>51.0</ele><time>2026-04-09T13:28:28Z</time></trkpt><trkpt lat="42.619600232173305" lon="2.8659245234843045"><ele>50.66666666666667</ele><time>2026-04-09T13:28:29Z</time></trkpt><trkpt lat="42.61978635154983" lon="2.866009087123994"><ele>50.333333333333336</ele><time>2026-04-09T13:28:30Z</time></trkpt><trkpt lat="42.619972934704755" lon="2.866093898725216"><ele>50.0</ele><time>2026-04-09T13:28:31Z</time></trkpt><trkpt lat="42.620156934303495" lon="2.866178623794649"><ele>50.0</ele><time>2026-04-09T13:28:32Z</time></trkpt><trkpt lat="42.62033947002782" lon="2.866261274754089"><ele>50.0</ele><time>2026-04-09T13:28:33Z</time></trkpt><trkpt lat="42.620519619531564" lon="2.8663423459596875"><ele>50.0</ele><time>2026-04-09T13:28:34Z</time></trkpt><trkpt lat="42.62069792922949" lon="2.8664227225620267"><ele>50.0</ele><time>2026-04-09T13:28:35Z</time></trkpt><trkpt lat="42.62087028422852" lon="2.866501281757322"><ele>50.0</ele><time>2026-04-09T13:28:36Z</time></trkpt><trkpt lat="42.62104225797525" lon="2.866580391367811"><ele>50.0</ele><time>2026-04-09T13:28:37Z</time></trkpt><trkpt lat="42.621215183834195" lon="2.86665967645336"><ele>49.66666666666667</ele><time>2026-04-09T13:28:38Z</time></trkpt><trkpt lat="42.621391960918345" lon="2.8667400774805802"><ele>49.33333333333333</ele><time>2026-04-09T13:28:39Z</time></trkpt><trkpt lat="42.62157011332755" lon="2.866818425096723"><ele>49.0</ele><time>2026-04-09T13:28:40Z</time></trkpt><trkpt lat="42.62174699979553" lon="2.86689946891532"><ele>49.0</ele><time>2026-04-09T13:28:41Z</time></trkpt><trkpt lat="42.6219240413245" lon="2.8669807603557325"><ele>49.0</ele><time>2026-04-09T13:28:42Z</time></trkpt><trkpt lat="42.622101720346286" lon="2.867061123448057"><ele>49.0</ele><time>2026-04-09T13:28:43Z</time></trkpt><trkpt lat="42.62227994750205" lon="2.867141139739437"><ele>50.0</ele><time>2026-04-09T13:28:44Z</time></trkpt><trkpt lat="42.62246009181876" lon="2.867222395079327"><ele>51.0</ele><time>2026-04-09T13:28:45Z</time></trkpt><trkpt lat="42.62264183148078" lon="2.8673043361909034"><ele>52.0</ele><time>2026-04-09T13:28:46Z</time></trkpt><trkpt lat="42.622823963139204" lon="2.8673872611227122"><ele>52.0</ele><time>2026-04-09T13:28:47Z</time></trkpt><trkpt lat="42.623006036007915" lon="2.8674690409088783"><ele>52.0</ele><time>2026-04-09T13:28:48Z</time></trkpt><trkpt lat="42.62318839899827" lon="2.867551364385128"><ele>52.0</ele><time>2026-04-09T13:28:49Z</time></trkpt><trkpt lat="42.623371167141165" lon="2.8676331204982155"><ele>51.33333333333333</ele><time>2026-04-09T13:28:50Z</time></trkpt><trkpt lat="42.623553827707276" lon="2.8677151668813"><ele>50.66666666666667</ele><time>2026-04-09T13:28:51Z</time></trkpt><trkpt lat="42.6237359998677" lon="2.8677947979842076"><ele>50.0</ele><time>2026-04-09T13:28:52Z</time></trkpt><trkpt lat="42.62391488471958" lon="2.86787697199955"><ele>50.0</ele><time>2026-04-09T13:28:53Z</time></trkpt><trkpt lat="42.62409374098728" lon="2.8679608952483746"><ele>50.0</ele><time>2026-04-09T13:28:54Z</time></trkpt><trkpt lat="42.624270814124145" lon="2.8680425174809177"><ele>50.0</ele><time>2026-04-09T13:28:55Z</time></trkpt><trkpt lat="42.62444745707405" lon="2.8681258024072362"><ele>50.66666666666667</ele><time>2026-04-09T13:28:56Z</time></trkpt><trkpt lat="42.62462460548212" lon="2.8682063310594703"><ele>51.33333333333333</ele><time>2026-04-09T13:28:57Z</time></trkpt><trkpt lat="42.62479948262055" lon="2.8682877041593673"><ele>52.0</ele><time>2026-04-09T13:28:58Z</time></trkpt><trkpt lat="42.62497384909807" lon="2.8683680821262"><ele>52.0</ele><time>2026-04-09T13:28:59Z</time></trkpt><trkpt lat="42.62514814634071" lon="2.8684490099277076"><ele>52.0</ele><time>2026-04-09T13:29:00Z</time></trkpt><trkpt lat="42.625323291808265" lon="2.8685279926106637"><ele>52.0</ele><time>2026-04-09T13:29:01Z</time></trkpt><trkpt lat="42.625495734903296" lon="2.8686081519198687"><ele>52.0</ele><time>2026-04-09T13:29:02Z</time></trkpt><trkpt lat="42.62566725712166" lon="2.8686857477812766"><ele>52.0</ele><time>2026-04-09T13:29:03Z</time></trkpt><trkpt lat="42.625837571048635" lon="2.8687635822751063"><ele>52.0</ele><time>2026-04-09T13:29:04Z</time></trkpt><trkpt lat="42.626004511668484" lon="2.8688416182786063"><ele>51.666666666666664</ele><time>2026-04-09T13:29:05Z</time></trkpt><trkpt lat="42.626171956607266" lon="2.8689172193893295"><ele>51.33333333333333</ele><time>2026-04-09T13:29:06Z</time></trkpt><trkpt lat="42.626340330130226" lon="2.8689940664782143"><ele>51.0</ele><time>2026-04-09T13:29:07Z</time></trkpt><trkpt lat="42.626508619255574" lon="2.86907096104709"><ele>51.0</ele><time>2026-04-09T13:29:08Z</time></trkpt><trkpt lat="42.626679225683034" lon="2.869148313545242"><ele>51.0</ele><time>2026-04-09T13:29:09Z</time></trkpt><trkpt lat="42.62684886986137" lon="2.8692269881753423"><ele>51.0</ele><time>2026-04-09T13:29:10Z</time></trkpt><trkpt lat="42.62701801996036" lon="2.8693066909976315"><ele>50.0</ele><time>2026-04-09T13:29:11Z</time></trkpt><trkpt lat="42.627186656175105" lon="2.86938510477258"><ele>49.0</ele><time>2026-04-09T13:29:12Z</time></trkpt><trkpt lat="42.627354721581675" lon="2.869463571991192"><ele>48.0</ele><time>2026-04-09T13:29:13Z</time></trkpt><trkpt lat="42.62752228531532" lon="2.8695433369063257"><ele>48.0</ele><time>2026-04-09T13:29:14Z</time></trkpt><trkpt lat="42.627692207387604" lon="2.869621374894731"><ele>48.0</ele><time>2026-04-09T13:29:15Z</time></trkpt><trkpt lat="42.62785948249193" lon="2.8696961279739304"><ele>48.0</ele><time>2026-04-09T13:29:16Z</time></trkpt><trkpt lat="42.62802341389717" lon="2.8697707019514334"><ele>48.33333333333333</ele><time>2026-04-09T13:29:17Z</time></trkpt><trkpt lat="42.62818593967817" lon="2.8698455202253137"><ele>48.666666666666664</ele><time>2026-04-09T13:29:18Z</time></trkpt><trkpt lat="42.62834451709216" lon="2.869917248598642"><ele>49.0</ele><time>2026-04-09T13:29:19Z</time></trkpt><trkpt lat="42.62850058718198" lon="2.8699885848406175"><ele>49.0</ele><time>2026-04-09T13:29:20Z</time></trkpt><trkpt lat="42.62865274908092" lon="2.8700589602205335"><ele>49.0</ele><time>2026-04-09T13:29:21Z</time></trkpt><trkpt lat="42.628800491695664" lon="2.8701276239266553"><ele>49.0</ele><time>2026-04-09T13:29:22Z</time></trkpt><trkpt lat="42.628945859701204" lon="2.8701971836013165"><ele>49.0</ele><time>2026-04-09T13:29:23Z</time></trkpt><trkpt lat="42.62908645421534" lon="2.870265218310064"><ele>49.0</ele><time>2026-04-09T13:29:24Z</time></trkpt><trkpt lat="42.62922536989986" lon="2.8703350673787"><ele>49.0</ele><time>2026-04-09T13:29:25Z</time></trkpt><trkpt lat="42.62935981742953" lon="2.870404944298002"><ele>49.0</ele><time>2026-04-09T13:29:26Z</time></trkpt><trkpt lat="42.62948693062358" lon="2.8704726430941334"><ele>49.0</ele><time>2026-04-09T13:29:27Z</time></trkpt><trkpt lat="42.62961019543238" lon="2.870537050044322"><ele>49.0</ele><time>2026-04-09T13:29:28Z</time></trkpt><trkpt lat="42.62972764890354" lon="2.870599278261176"><ele>49.0</ele><time>2026-04-09T13:29:29Z</time></trkpt><trkpt lat="42.62984264262834" lon="2.870651669888802"><ele>49.0</ele><time>2026-04-09T13:29:30Z</time></trkpt><trkpt lat="42.62995117868242" lon="2.8706989696168654"><ele>48.99999999999999</ele><time>2026-04-09T13:29:31Z</time></trkpt><trkpt lat="42.63004953181792" lon="2.870740550568035"><ele>49.0</ele><time>2026-04-09T13:29:32Z</time></trkpt><trkpt lat="42.630141221466566" lon="2.870782961694501"><ele>49.0</ele><time>2026-04-09T13:29:33Z</time></trkpt><trkpt lat="42.630221892597696" lon="2.870824497757282"><ele>49.0</ele><time>2026-04-09T13:29:34Z</time></trkpt><trkpt lat="42.63029101609026" lon="2.8708683009575093"><ele>48.99999999999999</ele><time>2026-04-09T13:29:35Z</time></trkpt><trkpt lat="42.630348536102886" lon="2.8709171107381914"><ele>49.0</ele><time>2026-04-09T13:29:36Z</time></trkpt><trkpt lat="42.63039906127115" lon="2.8709869305262936"><ele>48.666666666666664</ele><time>2026-04-09T13:29:37Z</time></trkpt><trkpt lat="42.63044328653281" lon="2.871071946020338"><ele>48.33333333333333</ele><time>2026-04-09T13:29:38Z</time></trkpt><trkpt lat="42.63049932622113" lon="2.871138178259417"><ele>48.0</ele><time>2026-04-09T13:29:39Z</time></trkpt><trkpt lat="42.63057710902876" lon="2.87119078957637"><ele>47.666666666666664</ele><time>2026-04-09T13:29:40Z</time></trkpt><trkpt lat="42.63064850019054" lon="2.871160919013526"><ele>47.33333333333333</ele><time>2026-04-09T13:29:41Z</time></trkpt><trkpt lat="42.63073182525196" lon="2.871123445750133"><ele>47.0</ele><time>2026-04-09T13:29:42Z</time></trkpt><trkpt lat="42.63082263822779" lon="2.871108853057013"><ele>47.0</ele><time>2026-04-09T13:29:43Z</time></trkpt><trkpt lat="42.630921221601255" lon="2.871134540385011"><ele>47.0</ele><time>2026-04-09T13:29:44Z</time></trkpt><trkpt lat="42.63102479717449" lon="2.8711811834776295"><ele>47.0</ele><time>2026-04-09T13:29:45Z</time></trkpt><trkpt lat="42.631136456591946" lon="2.8712331931680395"><ele>47.0</ele><time>2026-04-09T13:29:46Z</time></trkpt><trkpt lat="42.63126036547314" lon="2.871287217445746"><ele>46.5</ele><time>2026-04-09T13:29:47Z</time></trkpt><trkpt lat="42.63139398739308" lon="2.8713438578710373"><ele>46.0</ele><time>2026-04-09T13:29:48Z</time></trkpt><trkpt lat="42.631525965158794" lon="2.871399923934291"><ele>45.5</ele><time>2026-04-09T13:29:49Z</time></trkpt><trkpt lat="42.6316596549664" lon="2.871455241238491"><ele>45.0</ele><time>2026-04-09T13:29:50Z</time></trkpt><trkpt lat="42.63179136696261" lon="2.8715104411133368"><ele>45.0</ele><time>2026-04-09T13:29:51Z</time></trkpt><trkpt lat="42.631918825158785" lon="2.87156423962124"><ele>45.0</ele><time>2026-04-09T13:29:52Z</time></trkpt><trkpt lat="42.63204638647014" lon="2.8716199010288723"><ele>45.0</ele><time>2026-04-09T13:29:53Z</time></trkpt><trkpt lat="42.63217484318454" lon="2.8716789975231096"><ele>45.0</ele><time>2026-04-09T13:29:54Z</time></trkpt><trkpt lat="42.632307624626364" lon="2.8717365838192035"><ele>45.25</ele><time>2026-04-09T13:29:55Z</time></trkpt><trkpt lat="42.63244346678744" lon="2.8717973640175436"><ele>45.5</ele><time>2026-04-09T13:29:56Z</time></trkpt><trkpt lat="42.63258140931418" lon="2.871860335054612"><ele>45.75</ele><time>2026-04-09T13:29:57Z</time></trkpt><trkpt lat="42.6327242631592" lon="2.871924330063582"><ele>46.0</ele><time>2026-04-09T13:29:58Z</time></trkpt><trkpt lat="42.63287199169664" lon="2.87199113421374"><ele>46.333333333333336</ele><time>2026-04-09T13:29:59Z</time></trkpt><trkpt lat="42.633020213128084" lon="2.872055648886224"><ele>46.666666666666664</ele><time>2026-04-09T13:30:00Z</time></trkpt><trkpt lat="42.63317022208535" lon="2.8721240426011163"><ele>47.0</ele><time>2026-04-09T13:30:01Z</time></trkpt><trkpt lat="42.633319528165394" lon="2.872192935511936"><ele>47.0</ele><time>2026-04-09T13:30:02Z</time></trkpt><trkpt lat="42.63347141922874" lon="2.8722624210639034"><ele>47.0</ele><time>2026-04-09T13:30:03Z</time></trkpt><trkpt lat="42.63362566967588" lon="2.872331815983791"><ele>47.0</ele><time>2026-04-09T13:30:04Z</time></trkpt><trkpt lat="42.63377883736792" lon="2.872401811151509"><ele>46.666666666666664</ele><time>2026-04-09T13:30:05Z</time></trkpt><trkpt lat="42.633932763793084" lon="2.872472758363098"><ele>46.333333333333336</ele><time>2026-04-09T13:30:06Z</time></trkpt><trkpt lat="42.63408603341255" lon="2.872543089635892"><ele>46.0</ele><time>2026-04-09T13:30:07Z</time></trkpt><trkpt lat="42.63423778585433" lon="2.872613309578389"><ele>46.0</ele><time>2026-04-09T13:30:08Z</time></trkpt><trkpt lat="42.63438833955779" lon="2.872684066074252"><ele>46.0</ele><time>2026-04-09T13:30:09Z</time></trkpt><trkpt lat="42.63453904481307" lon="2.872754470567453"><ele>46.0</ele><time>2026-04-09T13:30:10Z</time></trkpt><trkpt lat="42.63468866422733" lon="2.87282290512341"><ele>46.333333333333336</ele><time>2026-04-09T13:30:11Z</time></trkpt><trkpt lat="42.63484037216792" lon="2.8728916379535305"><ele>46.666666666666664</ele><time>2026-04-09T13:30:12Z</time></trkpt><trkpt lat="42.6349944798159" lon="2.8729603271132236"><ele>47.0</ele><time>2026-04-09T13:30:13Z</time></trkpt><trkpt lat="42.6351479998193" lon="2.8730310502909586"><ele>47.0</ele><time>2026-04-09T13:30:14Z</time></trkpt><trkpt lat="42.635300649881295" lon="2.8731033542186504"><ele>47.0</ele><time>2026-04-09T13:30:15Z</time></trkpt><trkpt lat="42.63545127455528" lon="2.8731732736264974"><ele>47.0</ele><time>2026-04-09T13:30:16Z</time></trkpt><trkpt lat="42.63560315850326" lon="2.8732452082987194"><ele>47.33333333333333</ele><time>2026-04-09T13:30:17Z</time></trkpt><trkpt lat="42.63575329186028" lon="2.873316108616077"><ele>47.666666666666664</ele><time>2026-04-09T13:30:18Z</time></trkpt><trkpt lat="42.635903283503474" lon="2.8733890049772093"><ele>48.0</ele><time>2026-04-09T13:30:19Z</time></trkpt><trkpt lat="42.636052384274166" lon="2.8734615465003133"><ele>46.666666666666664</ele><time>2026-04-09T13:30:20Z</time></trkpt><trkpt lat="42.636201887189465" lon="2.8735354579416774"><ele>45.33333333333333</ele><time>2026-04-09T13:30:21Z</time></trkpt><trkpt lat="42.6363526252354" lon="2.8736106392260945"><ele>44.0</ele><time>2026-04-09T13:30:22Z</time></trkpt><trkpt lat="42.63650326626121" lon="2.8736869985374227"><ele>44.0</ele><time>2026-04-09T13:30:23Z</time></trkpt><trkpt lat="42.636654174289745" lon="2.8737622280264064"><ele>44.0</ele><time>2026-04-09T13:30:24Z</time></trkpt><trkpt lat="42.63680621584682" lon="2.8738390635824786"><ele>44.0</ele><time>2026-04-09T13:30:25Z</time></trkpt><trkpt lat="42.63695671988115" lon="2.8739140164012777"><ele>43.666666666666664</ele><time>2026-04-09T13:30:26Z</time></trkpt><trkpt lat="42.63710607828139" lon="2.8739880607416795"><ele>43.333333333333336</ele><time>2026-04-09T13:30:27Z</time></trkpt><trkpt lat="42.63725074411408" lon="2.8740614002925016"><ele>43.0</ele><time>2026-04-09T13:30:28Z</time></trkpt><trkpt lat="42.6373951557463" lon="2.8741338866558763"><ele>43.0</ele><time>2026-04-09T13:30:29Z</time></trkpt><trkpt lat="42.63754005085601" lon="2.874203574708548"><ele>43.0</ele><time>2026-04-09T13:30:30Z</time></trkpt><trkpt lat="42.637684913265545" lon="2.874272335733561"><ele>43.0</ele><time>2026-04-09T13:30:31Z</time></trkpt><trkpt lat="42.63782775796037" lon="2.8743380502518106"><ele>42.66666666666667</ele><time>2026-04-09T13:30:32Z</time></trkpt><trkpt lat="42.63797124025775" lon="2.8744035980382727"><ele>42.333333333333336</ele><time>2026-04-09T13:30:33Z</time></trkpt><trkpt lat="42.63811316924647" lon="2.874466026470621"><ele>42.0</ele><time>2026-04-09T13:30:34Z</time></trkpt><trkpt lat="42.638255090866416" lon="2.8745301872725983"><ele>42.0</ele><time>2026-04-09T13:30:35Z</time></trkpt><trkpt lat="42.63839675989381" lon="2.8745943961821943"><ele>42.0</ele><time>2026-04-09T13:30:36Z</time></trkpt><trkpt lat="42.63853755451873" lon="2.874658564325926"><ele>42.0</ele><time>2026-04-09T13:30:37Z</time></trkpt><trkpt lat="42.63867507005531" lon="2.874721739768698"><ele>42.0</ele><time>2026-04-09T13:30:38Z</time></trkpt><trkpt lat="42.63881227803335" lon="2.8747834884921244"><ele>42.25</ele><time>2026-04-09T13:30:39Z</time></trkpt><trkpt lat="42.63894801840502" lon="2.8748470275187237"><ele>42.5</ele><time>2026-04-09T13:30:40Z</time></trkpt><trkpt lat="42.639085257" lon="2.874907763035851"><ele>42.75</ele><time>2026-04-09T13:30:41Z</time></trkpt><trkpt lat="42.639222338436056" lon="2.874968724525438"><ele>43.0</ele><time>2026-04-09T13:30:42Z</time></trkpt><trkpt lat="42.63936018341039" lon="2.8750288784507503"><ele>42.0</ele><time>2026-04-09T13:30:43Z</time></trkpt><trkpt lat="42.63949501653477" lon="2.8750909103518567"><ele>41.0</ele><time>2026-04-09T13:30:44Z</time></trkpt><trkpt lat="42.63962751963611" lon="2.8751524405005853"><ele>40.0</ele><time>2026-04-09T13:30:45Z</time></trkpt><trkpt lat="42.63975917015234" lon="2.8752131850951756"><ele>39.0</ele><time>2026-04-09T13:30:46Z</time></trkpt><trkpt lat="42.6398843073201" lon="2.8752701460099748"><ele>39.0</ele><time>2026-04-09T13:30:47Z</time></trkpt><trkpt lat="42.64000288077496" lon="2.875325740176946"><ele>39.0</ele><time>2026-04-09T13:30:48Z</time></trkpt><trkpt lat="42.6401171086774" lon="2.875380449900512"><ele>39.0</ele><time>2026-04-09T13:30:49Z</time></trkpt><trkpt lat="42.64022624258184" lon="2.8754334251676434"><ele>39.0</ele><time>2026-04-09T13:30:50Z</time></trkpt><trkpt lat="42.640333348131094" lon="2.87549014586825"><ele>39.6</ele><time>2026-04-09T13:30:51Z</time></trkpt><trkpt lat="42.64044104600856" lon="2.8755482880146235"><ele>40.2</ele><time>2026-04-09T13:30:52Z</time></trkpt><trkpt lat="42.640546401520815" lon="2.875603517027505"><ele>40.800000000000004</ele><time>2026-04-09T13:30:53Z</time></trkpt><trkpt lat="42.64064695071417" lon="2.8756565333867696"><ele>41.4</ele><time>2026-04-09T13:30:54Z</time></trkpt><trkpt lat="42.64074331315629" lon="2.8757070719321867"><ele>42.0</ele><time>2026-04-09T13:30:55Z</time></trkpt><trkpt lat="42.64083768416529" lon="2.8757551177434584"><ele>42.0</ele><time>2026-04-09T13:30:56Z</time></trkpt><trkpt lat="42.6409260292468" lon="2.875800004259832"><ele>42.0</ele><time>2026-04-09T13:30:57Z</time></trkpt><trkpt lat="42.64100914849566" lon="2.875839489677981"><ele>42.0</ele><time>2026-04-09T13:30:58Z</time></trkpt><trkpt lat="42.641088074603765" lon="2.8758794859314603"><ele>42.0</ele><time>2026-04-09T13:30:59Z</time></trkpt><trkpt lat="42.641158876191774" lon="2.875928360031538"><ele>42.0</ele><time>2026-04-09T13:31:00Z</time></trkpt><trkpt lat="42.64121743157049" lon="2.8760094915456915"><ele>42.0</ele><time>2026-04-09T13:31:01Z</time></trkpt><trkpt lat="42.641260370204776" lon="2.876111162891356"><ele>41.833333333333336</ele><time>2026-04-09T13:31:02Z</time></trkpt><trkpt lat="42.64130579047626" lon="2.8762067484608558"><ele>41.666666666666664</ele><time>2026-04-09T13:31:03Z</time></trkpt><trkpt lat="42.641366644039636" lon="2.876276251120759"><ele>41.5</ele><time>2026-04-09T13:31:04Z</time></trkpt><trkpt lat="42.641442356072595" lon="2.8763144868476878"><ele>41.33333333333333</ele><time>2026-04-09T13:31:05Z</time></trkpt><trkpt lat="42.641526622521766" lon="2.876317582798134"><ele>41.166666666666664</ele><time>2026-04-09T13:31:06Z</time></trkpt><trkpt lat="42.64161609448524" lon="2.876287198092058"><ele>41.0</ele><time>2026-04-09T13:31:07Z</time></trkpt><trkpt lat="42.64170858051471" lon="2.876232409187867"><ele>41.0</ele><time>2026-04-09T13:31:08Z</time></trkpt><trkpt lat="42.641809312423455" lon="2.8762007165475185"><ele>41.0</ele><time>2026-04-09T13:31:09Z</time></trkpt><trkpt lat="42.64191538735859" lon="2.876205726290561"><ele>41.0</ele><time>2026-04-09T13:31:10Z</time></trkpt><trkpt lat="42.6420262380061" lon="2.8762491457136266"><ele>41.0</ele><time>2026-04-09T13:31:11Z</time></trkpt><trkpt lat="42.64214574920037" lon="2.8763053713608944"><ele>41.25</ele><time>2026-04-09T13:31:12Z</time></trkpt><trkpt lat="42.64227578472312" lon="2.8763653162122615"><ele>41.5</ele><time>2026-04-09T13:31:13Z</time></trkpt><trkpt lat="42.64241742958283" lon="2.876431836336648"><ele>41.75</ele><time>2026-04-09T13:31:14Z</time></trkpt><trkpt lat="42.64256984201448" lon="2.8765022813822245"><ele>42.0</ele><time>2026-04-09T13:31:15Z</time></trkpt><trkpt lat="42.642718344486426" lon="2.876571810464079"><ele>42.666666666666664</ele><time>2026-04-09T13:31:16Z</time></trkpt><trkpt lat="42.6428722581511" lon="2.8766428346420256"><ele>43.33333333333333</ele><time>2026-04-09T13:31:17Z</time></trkpt><trkpt lat="42.64303076520187" lon="2.876717002090232"><ele>44.0</ele><time>2026-04-09T13:31:18Z</time></trkpt><trkpt lat="42.643193206011496" lon="2.8767921839143"><ele>44.0</ele><time>2026-04-09T13:31:19Z</time></trkpt><trkpt lat="42.64335848263488" lon="2.8768669676409364"><ele>44.0</ele><time>2026-04-09T13:31:20Z</time></trkpt><trkpt lat="42.643525645458794" lon="2.876943691015433"><ele>44.0</ele><time>2026-04-09T13:31:21Z</time></trkpt><trkpt lat="42.64369528299461" lon="2.877023642213206"><ele>45.33333333333333</ele><time>2026-04-09T13:31:22Z</time></trkpt><trkpt lat="42.64386931157448" lon="2.8771033578301766"><ele>46.666666666666664</ele><time>2026-04-09T13:31:23Z</time></trkpt><trkpt lat="42.64404640440557" lon="2.8771844430264863"><ele>48.0</ele><time>2026-04-09T13:31:24Z</time></trkpt><trkpt lat="42.64422762081311" lon="2.8772692377563245"><ele>48.0</ele><time>2026-04-09T13:31:25Z</time></trkpt><trkpt lat="42.64441223683653" lon="2.8773553186300576"><ele>48.0</ele><time>2026-04-09T13:31:26Z</time></trkpt><trkpt lat="42.644595786431054" lon="2.877439512417976"><ele>48.0</ele><time>2026-04-09T13:31:27Z</time></trkpt><trkpt lat="42.64478111206419" lon="2.8775239681019342"><ele>47.0</ele><time>2026-04-09T13:31:28Z</time></trkpt><trkpt lat="42.644965562982364" lon="2.8776103616364996"><ele>46.0</ele><time>2026-04-09T13:31:29Z</time></trkpt><trkpt lat="42.64514908902442" lon="2.877697604509561"><ele>45.0</ele><time>2026-04-09T13:31:30Z</time></trkpt><trkpt lat="42.645333129274505" lon="2.8777791708818214"><ele>45.0</ele><time>2026-04-09T13:31:31Z</time></trkpt><trkpt lat="42.64551684555096" lon="2.877858563027489"><ele>45.0</ele><time>2026-04-09T13:31:32Z</time></trkpt><trkpt lat="42.645702491062565" lon="2.8779385034403058"><ele>45.0</ele><time>2026-04-09T13:31:33Z</time></trkpt><trkpt lat="42.6458905606827" lon="2.8780173855242666"><ele>45.0</ele><time>2026-04-09T13:31:34Z</time></trkpt><trkpt lat="42.64607994503737" lon="2.878096386960979"><ele>45.0</ele><time>2026-04-09T13:31:35Z</time></trkpt><trkpt lat="42.6462703220127" lon="2.878175006029151"><ele>45.0</ele><time>2026-04-09T13:31:36Z</time></trkpt><trkpt lat="42.646461627168264" lon="2.8782518943037756"><ele>45.333333333333336</ele><time>2026-04-09T13:31:37Z</time></trkpt><trkpt lat="42.64664959926006" lon="2.8783300221107413"><ele>45.66666666666667</ele><time>2026-04-09T13:31:38Z</time></trkpt><trkpt lat="42.64683791268332" lon="2.878407934196616"><ele>46.0</ele><time>2026-04-09T13:31:39Z</time></trkpt><trkpt lat="42.64702695660608" lon="2.8784847328788"><ele>46.333333333333336</ele><time>2026-04-09T13:31:40Z</time></trkpt><trkpt lat="42.64721448557465" lon="2.878564479237017"><ele>46.666666666666664</ele><time>2026-04-09T13:31:41Z</time></trkpt><trkpt lat="42.647402475154536" lon="2.878644162398077"><ele>47.0</ele><time>2026-04-09T13:31:42Z</time></trkpt><trkpt lat="42.64758975765062" lon="2.8787279999856343"><ele>47.0</ele><time>2026-04-09T13:31:43Z</time></trkpt><trkpt lat="42.64777941136867" lon="2.8788144091525547"><ele>47.0</ele><time>2026-04-09T13:31:44Z</time></trkpt><trkpt lat="42.647968924895665" lon="2.8788991697675455"><ele>47.0</ele><time>2026-04-09T13:31:45Z</time></trkpt><trkpt lat="42.648159721381816" lon="2.8789871462168444"><ele>47.666666666666664</ele><time>2026-04-09T13:31:46Z</time></trkpt><trkpt lat="42.64835250642669" lon="2.8790749272183933"><ele>48.33333333333333</ele><time>2026-04-09T13:31:47Z</time></trkpt><trkpt lat="42.64854883339908" lon="2.879162697990997"><ele>49.0</ele><time>2026-04-09T13:31:48Z</time></trkpt><trkpt lat="42.64874504548491" lon="2.8792541658646447"><ele>49.5</ele><time>2026-04-09T13:31:49Z</time></trkpt><trkpt lat="42.648943261074336" lon="2.8793443704450428"><ele>50.0</ele><time>2026-04-09T13:31:50Z</time></trkpt><trkpt lat="42.649344225415206" lon="2.879529973032894"><ele>50.333333333333336</ele><time>2026-04-09T13:31:52Z</time></trkpt><trkpt lat="42.64954460088205" lon="2.879622191076515"><ele>50.66666666666667</ele><time>2026-04-09T13:31:53Z</time></trkpt><trkpt lat="42.64974726264823" lon="2.879714775074291"><ele>51.0</ele><time>2026-04-09T13:31:54Z</time></trkpt><trkpt lat="42.649949568390504" lon="2.879809469025388"><ele>51.0</ele><time>2026-04-09T13:31:55Z</time></trkpt><trkpt lat="42.650151128546604" lon="2.8799031323697104"><ele>51.0</ele><time>2026-04-09T13:31:56Z</time></trkpt><trkpt lat="42.65035147732569" lon="2.879992376387847"><ele>51.0</ele><time>2026-04-09T13:31:57Z</time></trkpt><trkpt lat="42.65054580678911" lon="2.880078253790083"><ele>52.0</ele><time>2026-04-09T13:31:58Z</time></trkpt><trkpt lat="42.650736547095775" lon="2.8801647295988873"><ele>53.0</ele><time>2026-04-09T13:31:59Z</time></trkpt><trkpt lat="42.65091952916" lon="2.880256480189719"><ele>54.0</ele><time>2026-04-09T13:32:00Z</time></trkpt><trkpt lat="42.651092944561604" lon="2.8803524498819795"><ele>53.66666666666667</ele><time>2026-04-09T13:32:01Z</time></trkpt><trkpt lat="42.65126101598191" lon="2.880444569597237"><ele>53.333333333333336</ele><time>2026-04-09T13:32:02Z</time></trkpt><trkpt lat="42.65142743614511" lon="2.880526396132289"><ele>53.0</ele><time>2026-04-09T13:32:03Z</time></trkpt><trkpt lat="42.65158953711046" lon="2.88060597000093"><ele>53.0</ele><time>2026-04-09T13:32:04Z</time></trkpt><trkpt lat="42.65174015983515" lon="2.880684906907594"><ele>53.0</ele><time>2026-04-09T13:32:05Z</time></trkpt><trkpt lat="42.65187530715784" lon="2.880765135244609"><ele>53.0</ele><time>2026-04-09T13:32:06Z</time></trkpt><trkpt lat="42.651995941639825" lon="2.880847703683914"><ele>53.0</ele><time>2026-04-09T13:32:07Z</time></trkpt><trkpt lat="42.65209548685798" lon="2.880928139336359"><ele>53.00000000000001</ele><time>2026-04-09T13:32:08Z</time></trkpt><trkpt lat="42.65217769556637" lon="2.8810130892118844"><ele>53.0</ele><time>2026-04-09T13:32:09Z</time></trkpt><trkpt lat="42.65224484228765" lon="2.8810992205937414"><ele>53.0</ele><time>2026-04-09T13:32:10Z</time></trkpt><trkpt lat="42.65229252367389" lon="2.8811788499660853"><ele>53.0</ele><time>2026-04-09T13:32:11Z</time></trkpt><trkpt lat="42.652326019373746" lon="2.881251384710419"><ele>53.00000000000001</ele><time>2026-04-09T13:32:12Z</time></trkpt><trkpt lat="42.65236336360636" lon="2.881341702914716"><ele>53.0</ele><time>2026-04-09T13:32:14Z</time></trkpt><trkpt lat="42.65241060879557" lon="2.881423922188817"><ele>53.0</ele><time>2026-04-09T13:32:17Z</time></trkpt><trkpt lat="42.65252359789785" lon="2.881436621087899"><ele>53.0</ele><time>2026-04-09T13:32:19Z</time></trkpt><trkpt lat="42.65259855458765" lon="2.8814352671254735"><ele>53.0</ele><time>2026-04-09T13:32:20Z</time></trkpt><trkpt lat="42.65268708403072" lon="2.8814581530110734"><ele>53.0</ele><time>2026-04-09T13:32:21Z</time></trkpt><trkpt lat="42.65278858781191" lon="2.881495085267413"><ele>53.0</ele><time>2026-04-09T13:32:22Z</time></trkpt><trkpt lat="42.652889999281165" lon="2.881540528455315"><ele>53.0</ele><time>2026-04-09T13:32:23Z</time></trkpt><trkpt lat="42.65299297228406" lon="2.881601713378014"><ele>53.0</ele><time>2026-04-09T13:32:24Z</time></trkpt><trkpt lat="42.65310598280815" lon="2.8816726821583565"><ele>53.0</ele><time>2026-04-09T13:32:25Z</time></trkpt><trkpt lat="42.65323259584676" lon="2.881745887145742"><ele>53.0</ele><time>2026-04-09T13:32:26Z</time></trkpt><trkpt lat="42.65336723570733" lon="2.8818276487441485"><ele>53.333333333333336</ele><time>2026-04-09T13:32:27Z</time></trkpt><trkpt lat="42.65350742172366" lon="2.8819115039063616"><ele>53.66666666666667</ele><time>2026-04-09T13:32:28Z</time></trkpt><trkpt lat="42.653647256608636" lon="2.881993200691625"><ele>54.0</ele><time>2026-04-09T13:32:29Z</time></trkpt><trkpt lat="42.65378916683576" lon="2.8820821226533235"><ele>54.33333333333333</ele><time>2026-04-09T13:32:30Z</time></trkpt><trkpt lat="42.65393593355447" lon="2.8821689689442738"><ele>54.666666666666664</ele><time>2026-04-09T13:32:31Z</time></trkpt><trkpt lat="42.654083573955496" lon="2.882253678972977"><ele>55.0</ele><time>2026-04-09T13:32:32Z</time></trkpt><trkpt lat="42.65423834899464" lon="2.8823334902311633"><ele>55.0</ele><time>2026-04-09T13:32:33Z</time></trkpt><trkpt lat="42.65439671475667" lon="2.8824066034718117"><ele>55.0</ele><time>2026-04-09T13:32:34Z</time></trkpt><trkpt lat="42.654558833813745" lon="2.882470224786727"><ele>55.0</ele><time>2026-04-09T13:32:35Z</time></trkpt><trkpt lat="42.65472598449954" lon="2.882519265058298"><ele>53.666666666666664</ele><time>2026-04-09T13:32:36Z</time></trkpt><trkpt lat="42.65489770495666" lon="2.8825620603234876"><ele>52.33333333333333</ele><time>2026-04-09T13:32:37Z</time></trkpt><trkpt lat="42.655071006987015" lon="2.8825921518212034"><ele>51.0</ele><time>2026-04-09T13:32:38Z</time></trkpt><trkpt lat="42.6552449206449" lon="2.8826223038295815"><ele>50.33333333333333</ele><time>2026-04-09T13:32:39Z</time></trkpt><trkpt lat="42.655419443021536" lon="2.882647667763272"><ele>49.666666666666664</ele><time>2026-04-09T13:32:40Z</time></trkpt><trkpt lat="42.65559412473814" lon="2.882674469712443"><ele>49.0</ele><time>2026-04-09T13:32:41Z</time></trkpt><trkpt lat="42.655766456490866" lon="2.8826995456929825"><ele>49.0</ele><time>2026-04-09T13:32:42Z</time></trkpt><trkpt lat="42.655937077902024" lon="2.8827256897617706"><ele>49.0</ele><time>2026-04-09T13:32:43Z</time></trkpt><trkpt lat="42.656105060187336" lon="2.8827512035792164"><ele>49.0</ele><time>2026-04-09T13:32:44Z</time></trkpt><trkpt lat="42.65626970153413" lon="2.8827760014297765"><ele>48.0</ele><time>2026-04-09T13:32:45Z</time></trkpt><trkpt lat="42.65642593149425" lon="2.8827991519403757"><ele>47.0</ele><time>2026-04-09T13:32:46Z</time></trkpt><trkpt lat="42.65657709409928" lon="2.88282634815531"><ele>46.0</ele><time>2026-04-09T13:32:47Z</time></trkpt><trkpt lat="42.65672099949751" lon="2.8828709987388965"><ele>46.0</ele><time>2026-04-09T13:32:48Z</time></trkpt><trkpt lat="42.65685830262745" lon="2.8829338393619843"><ele>46.0</ele><time>2026-04-09T13:32:49Z</time></trkpt><trkpt lat="42.65698553164082" lon="2.8830213050649336"><ele>46.0</ele><time>2026-04-09T13:32:50Z</time></trkpt><trkpt lat="42.657096626584895" lon="2.8831312183035673"><ele>46.0</ele><time>2026-04-09T13:32:51Z</time></trkpt><trkpt lat="42.6571950841703" lon="2.8832646223341287"><ele>46.25</ele><time>2026-04-09T13:32:52Z</time></trkpt><trkpt lat="42.65727874255331" lon="2.8834216610315293"><ele>46.5</ele><time>2026-04-09T13:32:53Z</time></trkpt><trkpt lat="42.65734329733666" lon="2.8835900268003387"><ele>46.75</ele><time>2026-04-09T13:32:54Z</time></trkpt><trkpt lat="42.657401138076374" lon="2.8837639017595396"><ele>47.0</ele><time>2026-04-09T13:32:55Z</time></trkpt><trkpt lat="42.65745257954523" lon="2.883938662828826"><ele>47.0</ele><time>2026-04-09T13:32:56Z</time></trkpt><trkpt lat="42.65750132201904" lon="2.8841077507321775"><ele>47.0</ele><time>2026-04-09T13:32:57Z</time></trkpt><trkpt lat="42.65754503768673" lon="2.8842687323470746"><ele>47.0</ele><time>2026-04-09T13:32:58Z</time></trkpt><trkpt lat="42.65758965421536" lon="2.8844211959901696"><ele>47.0</ele><time>2026-04-09T13:32:59Z</time></trkpt><trkpt lat="42.657636363403334" lon="2.884555820664068"><ele>46.400000000000006</ele><time>2026-04-09T13:33:00Z</time></trkpt><trkpt lat="42.65769843503924" lon="2.8846724654022946"><ele>45.800000000000004</ele><time>2026-04-09T13:33:01Z</time></trkpt><trkpt lat="42.65777685489095" lon="2.884767072418357"><ele>45.2</ele><time>2026-04-09T13:33:02Z</time></trkpt><trkpt lat="42.65786914576489" lon="2.884831612364954"><ele>44.6</ele><time>2026-04-09T13:33:03Z</time></trkpt><trkpt lat="42.65796979489726" lon="2.884858874761176"><ele>44.0</ele><time>2026-04-09T13:33:04Z</time></trkpt><trkpt lat="42.65807203068568" lon="2.8848459277014005"><ele>44.0</ele><time>2026-04-09T13:33:05Z</time></trkpt><trkpt lat="42.658163306773815" lon="2.884803479853362"><ele>44.0</ele><time>2026-04-09T13:33:06Z</time></trkpt><trkpt lat="42.658225052694355" lon="2.8847767412926038"><ele>44.0</ele><time>2026-04-09T13:33:07Z</time></trkpt><trkpt lat="42.65832843883527" lon="2.8847734225787924"><ele>44.0</ele><time>2026-04-09T13:33:10Z</time></trkpt><trkpt lat="42.65840151688131" lon="2.8848992416748067"><ele>44.0</ele><time>2026-04-09T13:33:12Z</time></trkpt><trkpt lat="42.65841216311436" lon="2.8850124259719054"><ele>43.75</ele><time>2026-04-09T13:33:13Z</time></trkpt><trkpt lat="42.65841995270353" lon="2.8851529587568256"><ele>43.5</ele><time>2026-04-09T13:33:14Z</time></trkpt><trkpt lat="42.6584334144879" lon="2.8853007154639196"><ele>43.25</ele><time>2026-04-09T13:33:15Z</time></trkpt><trkpt lat="42.658446456324796" lon="2.8854539395089462"><ele>43.0</ele><time>2026-04-09T13:33:16Z</time></trkpt><trkpt lat="42.65846353302056" lon="2.8856309731965646"><ele>43.0</ele><time>2026-04-09T13:33:17Z</time></trkpt><trkpt lat="42.65848069011761" lon="2.885825019148203"><ele>43.0</ele><time>2026-04-09T13:33:18Z</time></trkpt><trkpt lat="42.65849965448688" lon="2.8860369321540444"><ele>43.0</ele><time>2026-04-09T13:33:19Z</time></trkpt><trkpt lat="42.658520749542255" lon="2.8862544150542875"><ele>43.0</ele><time>2026-04-09T13:33:20Z</time></trkpt><trkpt lat="42.65854090046534" lon="2.8864660741052632"><ele>43.0</ele><time>2026-04-09T13:33:21Z</time></trkpt><trkpt lat="42.65855862386779" lon="2.8866885517493577"><ele>43.0</ele><time>2026-04-09T13:33:22Z</time></trkpt><trkpt lat="42.65857770849633" lon="2.886911639133337"><ele>43.0</ele><time>2026-04-09T13:33:23Z</time></trkpt><trkpt lat="42.65859843631437" lon="2.887132825779821"><ele>43.0</ele><time>2026-04-09T13:33:24Z</time></trkpt><trkpt lat="42.6586195730396" lon="2.8873526820025535"><ele>43.0</ele><time>2026-04-09T13:33:25Z</time></trkpt><trkpt lat="42.65864306806373" lon="2.887569531391443"><ele>43.333333333333336</ele><time>2026-04-09T13:33:26Z</time></trkpt><trkpt lat="42.65867651621998" lon="2.887782354238475"><ele>43.666666666666664</ele><time>2026-04-09T13:33:27Z</time></trkpt><trkpt lat="42.65872181940118" lon="2.887991722958939"><ele>44.0</ele><time>2026-04-09T13:33:28Z</time></trkpt><trkpt lat="42.65877842514818" lon="2.8881966621069552"><ele>44.0</ele><time>2026-04-09T13:33:29Z</time></trkpt><trkpt lat="42.658844985149884" lon="2.8883983713966224"><ele>44.0</ele><time>2026-04-09T13:33:30Z</time></trkpt><trkpt lat="42.658919163750085" lon="2.8885956266498067"><ele>44.0</ele><time>2026-04-09T13:33:31Z</time></trkpt><trkpt lat="42.65900415859919" lon="2.888786135420355"><ele>44.0</ele><time>2026-04-09T13:33:32Z</time></trkpt><trkpt lat="42.65910765938812" lon="2.888958247397525"><ele>44.0</ele><time>2026-04-09T13:33:33Z</time></trkpt><trkpt lat="42.65921877566588" lon="2.8891248958163294"><ele>44.0</ele><time>2026-04-09T13:33:34Z</time></trkpt><trkpt lat="42.659330906816024" lon="2.8892917171633896"><ele>44.0</ele><time>2026-04-09T13:33:35Z</time></trkpt><trkpt lat="42.659442517776554" lon="2.889459176164188"><ele>44.0</ele><time>2026-04-09T13:33:36Z</time></trkpt><trkpt lat="42.65955273730934" lon="2.8896227014934808"><ele>44.0</ele><time>2026-04-09T13:33:37Z</time></trkpt><trkpt lat="42.65966019940311" lon="2.889784288941304"><ele>44.0</ele><time>2026-04-09T13:33:38Z</time></trkpt><trkpt lat="42.659770848832004" lon="2.8899490757713324"><ele>44.0</ele><time>2026-04-09T13:33:39Z</time></trkpt><trkpt lat="42.659885038528785" lon="2.890122279657281"><ele>44.0</ele><time>2026-04-09T13:33:40Z</time></trkpt><trkpt lat="42.65999757518362" lon="2.890291198100757"><ele>44.0</ele><time>2026-04-09T13:33:41Z</time></trkpt><trkpt lat="42.66010919603409" lon="2.8904578421607274"><ele>44.0</ele><time>2026-04-09T13:33:42Z</time></trkpt><trkpt lat="42.6602196221495" lon="2.890626148950812"><ele>44.0</ele><time>2026-04-09T13:33:43Z</time></trkpt><trkpt lat="42.66032891346498" lon="2.8907919963318958"><ele>44.666666666666664</ele><time>2026-04-09T13:33:44Z</time></trkpt><trkpt lat="42.66043777288652" lon="2.8909562632788672"><ele>45.333333333333336</ele><time>2026-04-09T13:33:45Z</time></trkpt><trkpt lat="42.66054718127686" lon="2.8911184294406755"><ele>46.0</ele><time>2026-04-09T13:33:46Z</time></trkpt><trkpt lat="42.66065451287152" lon="2.8912820146280773"><ele>46.0</ele><time>2026-04-09T13:33:47Z</time></trkpt><trkpt lat="42.66076396199872" lon="2.8914441249510365"><ele>46.0</ele><time>2026-04-09T13:33:48Z</time></trkpt><trkpt lat="42.66087263409214" lon="2.891607116849371"><ele>46.0</ele><time>2026-04-09T13:33:49Z</time></trkpt><trkpt lat="42.660980530056214" lon="2.8917699740147933"><ele>46.0</ele><time>2026-04-09T13:33:50Z</time></trkpt><trkpt lat="42.661087184415145" lon="2.8919341170995883"><ele>46.0</ele><time>2026-04-09T13:33:51Z</time></trkpt><trkpt lat="42.661194990410166" lon="2.8920989667127786"><ele>46.0</ele><time>2026-04-09T13:33:52Z</time></trkpt><trkpt lat="42.66130402496985" lon="2.892263760023434"><ele>46.333333333333336</ele><time>2026-04-09T13:33:53Z</time></trkpt><trkpt lat="42.66141399320543" lon="2.8924298066612355"><ele>46.666666666666664</ele><time>2026-04-09T13:33:54Z</time></trkpt><trkpt lat="42.661526290040015" lon="2.8925926740644066"><ele>47.0</ele><time>2026-04-09T13:33:55Z</time></trkpt><trkpt lat="42.66163642923108" lon="2.8927628565966446"><ele>47.0</ele><time>2026-04-09T13:33:56Z</time></trkpt><trkpt lat="42.66174868182377" lon="2.892936166904962"><ele>47.0</ele><time>2026-04-09T13:33:57Z</time></trkpt><trkpt lat="42.661861274009475" lon="2.8931061324814595"><ele>47.0</ele><time>2026-04-09T13:33:58Z</time></trkpt><trkpt lat="42.66197442836006" lon="2.893277223799694"><ele>48.666666666666664</ele><time>2026-04-09T13:33:59Z</time></trkpt><trkpt lat="42.66208680754252" lon="2.8934448747150188"><ele>50.33333333333333</ele><time>2026-04-09T13:34:00Z</time></trkpt><trkpt lat="42.66219581057272" lon="2.893608011732536"><ele>52.0</ele><time>2026-04-09T13:34:01Z</time></trkpt><trkpt lat="42.662303019292786" lon="2.893769348656828"><ele>52.0</ele><time>2026-04-09T13:34:02Z</time></trkpt><trkpt lat="42.662407447623025" lon="2.893927955757854"><ele>52.0</ele><time>2026-04-09T13:34:03Z</time></trkpt><trkpt lat="42.66250796964184" lon="2.8940809556534477"><ele>52.0</ele><time>2026-04-09T13:34:04Z</time></trkpt><trkpt lat="42.662604354156606" lon="2.89422531760322"><ele>51.75</ele><time>2026-04-09T13:34:05Z</time></trkpt><trkpt lat="42.66269793527584" lon="2.8943660250280288"><ele>51.5</ele><time>2026-04-09T13:34:06Z</time></trkpt><trkpt lat="42.66279097170091" lon="2.894506205829972"><ele>51.25</ele><time>2026-04-09T13:34:07Z</time></trkpt><trkpt lat="42.662881005842536" lon="2.894640012762827"><ele>51.0</ele><time>2026-04-09T13:34:08Z</time></trkpt><trkpt lat="42.66296527304211" lon="2.894764866462096"><ele>51.833333333333336</ele><time>2026-04-09T13:34:09Z</time></trkpt><trkpt lat="42.663039206544894" lon="2.8948731849186355"><ele>52.66666666666667</ele><time>2026-04-09T13:34:10Z</time></trkpt><trkpt lat="42.6631024721891" lon="2.894967082434634"><ele>53.5</ele><time>2026-04-09T13:34:11Z</time></trkpt><trkpt lat="42.66315448930856" lon="2.895045984818697"><ele>54.333333333333336</ele><time>2026-04-09T13:34:12Z</time></trkpt><trkpt lat="42.66319791884963" lon="2.895117988502482"><ele>55.16666666666667</ele><time>2026-04-09T13:34:13Z</time></trkpt><trkpt lat="42.663224701501306" lon="2.8952018968317277"><ele>56.0</ele><time>2026-04-09T13:34:14Z</time></trkpt><trkpt lat="42.66323421530607" lon="2.8953068392031924"><ele>56.0</ele><time>2026-04-09T13:34:15Z</time></trkpt><trkpt lat="42.66324344558062" lon="2.895405774089255"><ele>56.0</ele><time>2026-04-09T13:34:16Z</time></trkpt><trkpt lat="42.66327359071638" lon="2.8954879854796016"><ele>56.0</ele><time>2026-04-09T13:34:17Z</time></trkpt><trkpt lat="42.66332917522619" lon="2.895545040976615"><ele>56.0</ele><time>2026-04-09T13:34:18Z</time></trkpt><trkpt lat="42.66339938491811" lon="2.8955647043663664"><ele>56.0</ele><time>2026-04-09T13:34:19Z</time></trkpt><trkpt lat="42.66347291746606" lon="2.895549414137359"><ele>56.0</ele><time>2026-04-09T13:34:20Z</time></trkpt><trkpt lat="42.66353849345771" lon="2.8955022083298063"><ele>56.0</ele><time>2026-04-09T13:34:21Z</time></trkpt><trkpt lat="42.66359066098543" lon="2.8954239140851428"><ele>56.833333333333336</ele><time>2026-04-09T13:34:22Z</time></trkpt><trkpt lat="42.66364021763472" lon="2.8953423634316473"><ele>57.66666666666667</ele><time>2026-04-09T13:34:23Z</time></trkpt><trkpt lat="42.66371082307183" lon="2.895283608772026"><ele>58.5</ele><time>2026-04-09T13:34:24Z</time></trkpt><trkpt lat="42.663794881960875" lon="2.8952584148344824"><ele>59.33333333333333</ele><time>2026-04-09T13:34:25Z</time></trkpt><trkpt lat="42.66388615108412" lon="2.8952481948258817"><ele>60.166666666666664</ele><time>2026-04-09T13:34:26Z</time></trkpt><trkpt lat="42.66398794892373" lon="2.895235343113278"><ele>61.0</ele><time>2026-04-09T13:34:27Z</time></trkpt><trkpt lat="42.66409729243628" lon="2.895220072931735"><ele>61.0</ele><time>2026-04-09T13:34:28Z</time></trkpt><trkpt lat="42.66421395501745" lon="2.8952042193478373"><ele>61.0</ele><time>2026-04-09T13:34:29Z</time></trkpt><trkpt lat="42.66434044174866" lon="2.8951859483831814"><ele>61.0</ele><time>2026-04-09T13:34:30Z</time></trkpt><trkpt lat="42.66446619826486" lon="2.8951656850256877"><ele>61.0</ele><time>2026-04-09T13:34:31Z</time></trkpt><trkpt lat="42.66459405180453" lon="2.895145668599661"><ele>60.25</ele><time>2026-04-09T13:34:32Z</time></trkpt><trkpt lat="42.664722541851205" lon="2.8951261151074337"><ele>59.5</ele><time>2026-04-09T13:34:33Z</time></trkpt><trkpt lat="42.66484404070436" lon="2.895106891670155"><ele>58.75</ele><time>2026-04-09T13:34:34Z</time></trkpt><trkpt lat="42.66496123388929" lon="2.8950889219668894"><ele>58.0</ele><time>2026-04-09T13:34:35Z</time></trkpt><trkpt lat="42.665075464603866" lon="2.895068932967548"><ele>57.8</ele><time>2026-04-09T13:34:36Z</time></trkpt><trkpt lat="42.665188267707116" lon="2.895047662971135"><ele>57.599999999999994</ele><time>2026-04-09T13:34:37Z</time></trkpt><trkpt lat="42.66530021259724" lon="2.8950267659194613"><ele>57.400000000000006</ele><time>2026-04-09T13:34:38Z</time></trkpt><trkpt lat="42.665407427355504" lon="2.8950059258348624"><ele>57.2</ele><time>2026-04-09T13:34:39Z</time></trkpt><trkpt lat="42.66551118716672" lon="2.894985887547993"><ele>57.0</ele><time>2026-04-09T13:34:40Z</time></trkpt><trkpt lat="42.665612784316075" lon="2.8949654373400633"><ele>56.833333333333336</ele><time>2026-04-09T13:34:41Z</time></trkpt><trkpt lat="42.66570885818175" lon="2.8949459928838497"><ele>56.66666666666667</ele><time>2026-04-09T13:34:42Z</time></trkpt><trkpt lat="42.66580052138755" lon="2.8949275967086487"><ele>56.5</ele><time>2026-04-09T13:34:43Z</time></trkpt><trkpt lat="42.665886002428046" lon="2.894910567611668"><ele>56.333333333333336</ele><time>2026-04-09T13:34:44Z</time></trkpt><trkpt lat="42.66597014866581" lon="2.8948913957049967"><ele>56.16666666666667</ele><time>2026-04-09T13:34:45Z</time></trkpt><trkpt lat="42.666049815001465" lon="2.8948750832681114"><ele>56.0</ele><time>2026-04-09T13:34:46Z</time></trkpt><trkpt lat="42.66612608146202" lon="2.8948551114881016"><ele>56.00000000000001</ele><time>2026-04-09T13:34:47Z</time></trkpt><trkpt lat="42.66618930613998" lon="2.8948308208142497"><ele>56.0</ele><time>2026-04-09T13:34:48Z</time></trkpt><trkpt lat="42.66626298978837" lon="2.8947985454980065"><ele>56.0</ele><time>2026-04-09T13:34:50Z</time></trkpt><trkpt lat="42.66633236615463" lon="2.894775073507441"><ele>56.0</ele><time>2026-04-09T13:34:52Z</time></trkpt><trkpt lat="42.66643653993781" lon="2.894795040505198"><ele>56.00000000000001</ele><time>2026-04-09T13:34:54Z</time></trkpt><trkpt lat="42.66650281591061" lon="2.89480923552639"><ele>56.0</ele><time>2026-04-09T13:34:55Z</time></trkpt><trkpt lat="42.666626484806656" lon="2.894823021746693"><ele>56.00000000000001</ele><time>2026-04-09T13:34:57Z</time></trkpt><trkpt lat="42.6666858890327" lon="2.894853764529212"><ele>56.0</ele><time>2026-04-09T13:34:58Z</time></trkpt><trkpt lat="42.66674434681284" lon="2.8949045215408247"><ele>56.0</ele><time>2026-04-09T13:34:59Z</time></trkpt><trkpt lat="42.66679844875473" lon="2.894967454197448"><ele>56.0</ele><time>2026-04-09T13:35:00Z</time></trkpt><trkpt lat="42.666851783498934" lon="2.895033513859311"><ele>56.00000000000001</ele><time>2026-04-09T13:35:01Z</time></trkpt><trkpt lat="42.66693423547384" lon="2.8951420392601412"><ele>56.0</ele><time>2026-04-09T13:35:03Z</time></trkpt><trkpt lat="42.66698193989468" lon="2.8952104884339036"><ele>55.8</ele><time>2026-04-09T13:35:04Z</time></trkpt><trkpt lat="42.66703576379211" lon="2.8952923363811327"><ele>55.599999999999994</ele><time>2026-04-09T13:35:05Z</time></trkpt><trkpt lat="42.6670957375881" lon="2.895383145511588"><ele>55.4</ele><time>2026-04-09T13:35:06Z</time></trkpt><trkpt lat="42.66716261251583" lon="2.895482674739457"><ele>55.2</ele><time>2026-04-09T13:35:07Z</time></trkpt><trkpt lat="42.66723701369118" lon="2.8955900206941836"><ele>55.0</ele><time>2026-04-09T13:35:08Z</time></trkpt><trkpt lat="42.66731546001066" lon="2.895703312012044"><ele>55.0</ele><time>2026-04-09T13:35:09Z</time></trkpt><trkpt lat="42.667395682958045" lon="2.895818096953487"><ele>55.0</ele><time>2026-04-09T13:35:10Z</time></trkpt><trkpt lat="42.66747770871487" lon="2.8959283828880436"><ele>55.0</ele><time>2026-04-09T13:35:11Z</time></trkpt><trkpt lat="42.667561152196356" lon="2.896030874329352"><ele>55.0</ele><time>2026-04-09T13:35:12Z</time></trkpt><trkpt lat="42.66764575507426" lon="2.8961253365163895"><ele>54.4</ele><time>2026-04-09T13:35:13Z</time></trkpt><trkpt lat="42.66773122958594" lon="2.8962163843762374"><ele>53.8</ele><time>2026-04-09T13:35:14Z</time></trkpt><trkpt lat="42.66781441961886" lon="2.8962940092979776"><ele>53.2</ele><time>2026-04-09T13:35:15Z</time></trkpt><trkpt lat="42.66788957210055" lon="2.8963547067315862"><ele>52.6</ele><time>2026-04-09T13:35:16Z</time></trkpt><trkpt lat="42.66796216678305" lon="2.896412056218574"><ele>52.0</ele><time>2026-04-09T13:35:17Z</time></trkpt><trkpt lat="42.66802902745386" lon="2.8964691382549246"><ele>51.83333333333333</ele><time>2026-04-09T13:35:18Z</time></trkpt><trkpt lat="42.668094761933204" lon="2.8965241191394795"><ele>51.666666666666664</ele><time>2026-04-09T13:35:19Z</time></trkpt><trkpt lat="42.6681562182253" lon="2.8965747240465785"><ele>51.5</ele><time>2026-04-09T13:35:20Z</time></trkpt><trkpt lat="42.66821787542067" lon="2.8966240911895755"><ele>51.33333333333333</ele><time>2026-04-09T13:35:21Z</time></trkpt><trkpt lat="42.66827907029178" lon="2.8966834633498144"><ele>51.166666666666664</ele><time>2026-04-09T13:35:22Z</time></trkpt><trkpt lat="42.668333501390656" lon="2.8967414426429188"><ele>51.0</ele><time>2026-04-09T13:35:23Z</time></trkpt><trkpt lat="42.66841954761122" lon="2.8968371152773873"><ele>50.599999999999994</ele><time>2026-04-09T13:35:25Z</time></trkpt><trkpt lat="42.66847684189987" lon="2.8969307096439"><ele>50.2</ele><time>2026-04-09T13:35:27Z</time></trkpt><trkpt lat="42.66848885902752" lon="2.8970332726345536"><ele>49.8</ele><time>2026-04-09T13:35:44Z</time></trkpt><trkpt lat="42.668450729573756" lon="2.8971529738473873"><ele>49.400000000000006</ele><time>2026-04-09T13:35:46Z</time></trkpt><trkpt lat="42.668406672857046" lon="2.897307338408795"><ele>49.0</ele><time>2026-04-09T13:35:48Z</time></trkpt><trkpt lat="42.668405949388706" lon="2.897398656757831"><ele>48.99999999999999</ele><time>2026-04-09T13:35:49Z</time></trkpt><trkpt lat="42.66845859682185" lon="2.897555290534713"><ele>49.0</ele><time>2026-04-09T13:35:51Z</time></trkpt><trkpt lat="42.66850704515896" lon="2.8976191360925543"><ele>49.0</ele><time>2026-04-09T13:35:52Z</time></trkpt><trkpt lat="42.668564473122075" lon="2.8976671868402897"><ele>49.0</ele><time>2026-04-09T13:35:53Z</time></trkpt><trkpt lat="42.66862318284708" lon="2.897711202348935"><ele>48.99999999999999</ele><time>2026-04-09T13:35:54Z</time></trkpt><trkpt lat="42.668681229839464" lon="2.8977741459106925"><ele>49.0</ele><time>2026-04-09T13:35:55Z</time></trkpt><trkpt lat="42.66873242976533" lon="2.8978533891066003"><ele>48.666666666666664</ele><time>2026-04-09T13:35:56Z</time></trkpt><trkpt lat="42.66877295997954" lon="2.897941531488545"><ele>48.33333333333333</ele><time>2026-04-09T13:35:57Z</time></trkpt><trkpt lat="42.668812698836255" lon="2.8980264119747217"><ele>48.0</ele><time>2026-04-09T13:35:58Z</time></trkpt><trkpt lat="42.66885347403501" lon="2.8981082728198735"><ele>47.666666666666664</ele><time>2026-04-09T13:35:59Z</time></trkpt><trkpt lat="42.668893153156176" lon="2.8981885544110924"><ele>47.33333333333333</ele><time>2026-04-09T13:36:00Z</time></trkpt><trkpt lat="42.66892879276564" lon="2.8982635829210435"><ele>47.0</ele><time>2026-04-09T13:36:01Z</time></trkpt><trkpt lat="42.668984851368705" lon="2.8983966885346013"><ele>46.6</ele><time>2026-04-09T13:36:03Z</time></trkpt><trkpt lat="42.668984838797385" lon="2.8985570728532997"><ele>46.2</ele><time>2026-04-09T13:36:05Z</time></trkpt><trkpt lat="42.668992828692595" lon="2.8987052535126145"><ele>45.8</ele><time>2026-04-09T13:36:07Z</time></trkpt><trkpt lat="42.66897435409299" lon="2.8988632558713294"><ele>45.4</ele><time>2026-04-09T13:36:09Z</time></trkpt><trkpt lat="42.66893761551711" lon="2.898938115131739"><ele>45.0</ele><time>2026-04-09T13:36:10Z</time></trkpt><trkpt lat="42.668888110285316" lon="2.899007853061746"><ele>45.0</ele><time>2026-04-09T13:36:11Z</time></trkpt><trkpt lat="42.66883811993657" lon="2.899083446639867"><ele>45.0</ele><time>2026-04-09T13:36:12Z</time></trkpt><trkpt lat="42.66878331366416" lon="2.8991677882876092"><ele>45.0</ele><time>2026-04-09T13:36:13Z</time></trkpt><trkpt lat="42.66872445417133" lon="2.899254646084898"><ele>45.0</ele><time>2026-04-09T13:36:14Z</time></trkpt><trkpt lat="42.668660325732816" lon="2.8993481770069054"><ele>45.0</ele><time>2026-04-09T13:36:15Z</time></trkpt><trkpt lat="42.66859697150283" lon="2.8994405349659234"><ele>45.0</ele><time>2026-04-09T13:36:16Z</time></trkpt><trkpt lat="42.66853749600564" lon="2.8995313965713705"><ele>45.2</ele><time>2026-04-09T13:36:17Z</time></trkpt><trkpt lat="42.668490825826744" lon="2.8996361150269077"><ele>45.4</ele><time>2026-04-09T13:36:18Z</time></trkpt><trkpt lat="42.66845619918228" lon="2.8997544164846403"><ele>45.599999999999994</ele><time>2026-04-09T13:36:19Z</time></trkpt><trkpt lat="42.668427063996745" lon="2.899885306563874"><ele>45.8</ele><time>2026-04-09T13:36:20Z</time></trkpt><trkpt lat="42.66839885576391" lon="2.9000220438555515"><ele>46.0</ele><time>2026-04-09T13:36:21Z</time></trkpt><trkpt lat="42.668369591740834" lon="2.900159052181878"><ele>46.16666666666667</ele><time>2026-04-09T13:36:22Z</time></trkpt><trkpt lat="42.6683405341587" lon="2.9002928804854697"><ele>46.333333333333336</ele><time>2026-04-09T13:36:23Z</time></trkpt><trkpt lat="42.668314022036995" lon="2.9004203259826484"><ele>46.5</ele><time>2026-04-09T13:36:24Z</time></trkpt><trkpt lat="42.668292882037484" lon="2.9005421962831233"><ele>46.666666666666664</ele><time>2026-04-09T13:36:25Z</time></trkpt><trkpt lat="42.66828082363948" lon="2.9006547013163924"><ele>46.83333333333333</ele><time>2026-04-09T13:36:26Z</time></trkpt><trkpt lat="42.66827820876118" lon="2.9007479632974684"><ele>47.0</ele><time>2026-04-09T13:36:27Z</time></trkpt><trkpt lat="42.66827774883905" lon="2.900837553891453"><ele>46.75</ele><time>2026-04-09T13:36:28Z</time></trkpt><trkpt lat="42.66827393296809" lon="2.900993585950381"><ele>46.5</ele><time>2026-04-09T13:36:30Z</time></trkpt><trkpt lat="42.66827289920987" lon="2.9010793874403706"><ele>46.25</ele><time>2026-04-09T13:36:31Z</time></trkpt><trkpt lat="42.66832122964116" lon="2.901253588468064"><ele>46.0</ele><time>2026-04-09T13:36:33Z</time></trkpt><trkpt lat="42.66838706247304" lon="2.9015021460620876"><ele>46.0</ele><time>2026-04-09T13:36:35Z</time></trkpt><trkpt lat="42.66843624260069" lon="2.901631180731071"><ele>46.0</ele><time>2026-04-09T13:36:36Z</time></trkpt><trkpt lat="42.668495182572904" lon="2.9017490122730063"><ele>46.0</ele><time>2026-04-09T13:36:37Z</time></trkpt><trkpt lat="42.66855848812076" lon="2.9018604116883555"><ele>46.0</ele><time>2026-04-09T13:36:38Z</time></trkpt><trkpt lat="42.66862239274114" lon="2.9019715060921225"><ele>46.0</ele><time>2026-04-09T13:36:39Z</time></trkpt><trkpt lat="42.6686859030739" lon="2.9020877820568822"><ele>45.8</ele><time>2026-04-09T13:36:40Z</time></trkpt><trkpt lat="42.66875047173013" lon="2.9022011782270773"><ele>45.599999999999994</ele><time>2026-04-09T13:36:41Z</time></trkpt><trkpt lat="42.668814169612084" lon="2.9023071213279517"><ele>45.4</ele><time>2026-04-09T13:36:42Z</time></trkpt><trkpt lat="42.668874148754924" lon="2.9024079208542046"><ele>45.2</ele><time>2026-04-09T13:36:43Z</time></trkpt><trkpt lat="42.6689328045295" lon="2.9025053993584082"><ele>45.0</ele><time>2026-04-09T13:36:44Z</time></trkpt><trkpt lat="42.66898962101254" lon="2.902603241998971"><ele>45.333333333333336</ele><time>2026-04-09T13:36:45Z</time></trkpt><trkpt lat="42.669042581510816" lon="2.9026935355571126"><ele>45.666666666666664</ele><time>2026-04-09T13:36:46Z</time></trkpt><trkpt lat="42.66909077992513" lon="2.9027767200723114"><ele>46.0</ele><time>2026-04-09T13:36:47Z</time></trkpt><trkpt lat="42.66916140804939" lon="2.9028982073953675"><ele>46.33333333333333</ele><time>2026-04-09T13:36:49Z</time></trkpt><trkpt lat="42.66922646898412" lon="2.903009060667297"><ele>46.666666666666664</ele><time>2026-04-09T13:36:51Z</time></trkpt><trkpt lat="42.669265554572114" lon="2.903078775736746"><ele>47.0</ele><time>2026-04-09T13:36:52Z</time></trkpt><trkpt lat="42.66930898823785" lon="2.9031539178538583"><ele>47.0</ele><time>2026-04-09T13:36:53Z</time></trkpt><trkpt lat="42.66935656568292" lon="2.9032378724359735"><ele>47.0</ele><time>2026-04-09T13:36:54Z</time></trkpt><trkpt lat="42.669407630403974" lon="2.903325609412743"><ele>47.0</ele><time>2026-04-09T13:36:55Z</time></trkpt><trkpt lat="42.66946281611514" lon="2.9034236679811505"><ele>47.0</ele><time>2026-04-09T13:36:56Z</time></trkpt><trkpt lat="42.66951984681552" lon="2.9035252434682572"><ele>47.0</ele><time>2026-04-09T13:36:57Z</time></trkpt><trkpt lat="42.66957858466518" lon="2.903626301305528"><ele>47.0</ele><time>2026-04-09T13:36:58Z</time></trkpt><trkpt lat="42.6696380526543" lon="2.9037337023928727"><ele>46.2</ele><time>2026-04-09T13:36:59Z</time></trkpt><trkpt lat="42.66969659923493" lon="2.903841054037205"><ele>45.400000000000006</ele><time>2026-04-09T13:37:00Z</time></trkpt><trkpt lat="42.669752859012746" lon="2.9039501506520073"><ele>44.599999999999994</ele><time>2026-04-09T13:37:01Z</time></trkpt><trkpt lat="42.66980840388162" lon="2.9040600322041445"><ele>43.8</ele><time>2026-04-09T13:37:02Z</time></trkpt><trkpt lat="42.66986128947444" lon="2.9041666764265592"><ele>43.0</ele><time>2026-04-09T13:37:03Z</time></trkpt><trkpt lat="42.669908636305365" lon="2.9042752442484625"><ele>43.0</ele><time>2026-04-09T13:37:04Z</time></trkpt><trkpt lat="42.66994249259369" lon="2.9043905268052104"><ele>43.0</ele><time>2026-04-09T13:37:05Z</time></trkpt><trkpt lat="42.669965771038825" lon="2.9045070269140445"><ele>43.0</ele><time>2026-04-09T13:37:06Z</time></trkpt><trkpt lat="42.66997787225225" lon="2.904618165779539"><ele>43.0</ele><time>2026-04-09T13:37:07Z</time></trkpt><trkpt lat="42.66998132655735" lon="2.904709138820982"><ele>43.0</ele><time>2026-04-09T13:37:08Z</time></trkpt><trkpt lat="42.66998098897107" lon="2.9048496084604745"><ele>43.0</ele><time>2026-04-09T13:37:10Z</time></trkpt><trkpt lat="42.66996788555114" lon="2.904939353462929"><ele>43.0</ele><time>2026-04-09T13:37:13Z</time></trkpt><trkpt lat="42.66993126830954" lon="2.9050452723269693"><ele>43.0</ele><time>2026-04-09T13:37:15Z</time></trkpt><trkpt lat="42.669951664871945" lon="2.905140697767511"><ele>43.0</ele><time>2026-04-09T13:37:17Z</time></trkpt><trkpt lat="42.670051860138294" lon="2.905123606364596"><ele>43.0</ele><time>2026-04-09T13:37:19Z</time></trkpt><trkpt lat="42.67011320371719" lon="2.905089488405375"><ele>43.0</ele><time>2026-04-09T13:37:20Z</time></trkpt><trkpt lat="42.67018697921394" lon="2.9050795553346633"><ele>43.0</ele><time>2026-04-09T13:37:21Z</time></trkpt><trkpt lat="42.67027881389232" lon="2.905075553437276"><ele>42.4</ele><time>2026-04-09T13:37:22Z</time></trkpt><trkpt lat="42.67037529280481" lon="2.905072082435515"><ele>41.8</ele><time>2026-04-09T13:37:23Z</time></trkpt><trkpt lat="42.670468851834634" lon="2.9050703277841547"><ele>41.2</ele><time>2026-04-09T13:37:24Z</time></trkpt><trkpt lat="42.67057270969119" lon="2.9050678590992747"><ele>40.6</ele><time>2026-04-09T13:37:25Z</time></trkpt><trkpt lat="42.67068011864419" lon="2.905063084721346"><ele>40.0</ele><time>2026-04-09T13:37:26Z</time></trkpt><trkpt lat="42.67079164773889" lon="2.9050573109484423"><ele>40.0</ele><time>2026-04-09T13:37:27Z</time></trkpt><trkpt lat="42.670905349659186" lon="2.90505033994833"><ele>40.0</ele><time>2026-04-09T13:37:28Z</time></trkpt><trkpt lat="42.67101566821494" lon="2.9050466609034684"><ele>40.0</ele><time>2026-04-09T13:37:29Z</time></trkpt><trkpt lat="42.671123498585885" lon="2.9050396133552523"><ele>40.0</ele><time>2026-04-09T13:37:30Z</time></trkpt><trkpt lat="42.671233399229266" lon="2.905030882109708"><ele>40.0</ele><time>2026-04-09T13:37:31Z</time></trkpt><trkpt lat="42.6713426258877" lon="2.9050195653935034"><ele>40.0</ele><time>2026-04-09T13:37:32Z</time></trkpt><trkpt lat="42.671451144777066" lon="2.905011975728555"><ele>40.0</ele><time>2026-04-09T13:37:33Z</time></trkpt><trkpt lat="42.67154976429186" lon="2.905003313293051"><ele>40.0</ele><time>2026-04-09T13:37:34Z</time></trkpt><trkpt lat="42.671638967075566" lon="2.9049942522501024"><ele>40.0</ele><time>2026-04-09T13:37:35Z</time></trkpt><trkpt lat="42.671723913161756" lon="2.9049832197671894"><ele>40.0</ele><time>2026-04-09T13:37:36Z</time></trkpt><trkpt lat="42.67179991338402" lon="2.9049720355892172"><ele>40.0</ele><time>2026-04-09T13:37:37Z</time></trkpt><trkpt lat="42.67186480841621" lon="2.904961579650097"><ele>40.0</ele><time>2026-04-09T13:37:38Z</time></trkpt><trkpt lat="42.671966054822434" lon="2.9049455326214533"><ele>40.0</ele><time>2026-04-09T13:37:40Z</time></trkpt><trkpt lat="42.67202551127543" lon="2.905039462912844"><ele>40.0</ele><time>2026-04-09T13:37:42Z</time></trkpt><trkpt lat="42.67200707238993" lon="2.905196067779105"><ele>40.0</ele><time>2026-04-09T13:37:44Z</time></trkpt><trkpt lat="42.671966100242436" lon="2.9052631248850176"><ele>40.0</ele><time>2026-04-09T13:37:45Z</time></trkpt><trkpt lat="42.671903541281516" lon="2.905310475724569"><ele>40.16666666666667</ele><time>2026-04-09T13:37:46Z</time></trkpt><trkpt lat="42.67184135088365" lon="2.9053657956757326"><ele>40.333333333333336</ele><time>2026-04-09T13:37:47Z</time></trkpt><trkpt lat="42.671776597379484" lon="2.9054341234401937"><ele>40.5</ele><time>2026-04-09T13:37:48Z</time></trkpt><trkpt lat="42.67170890968672" lon="2.9055038264304596"><ele>40.666666666666664</ele><time>2026-04-09T13:37:49Z</time></trkpt><trkpt lat="42.67163381397469" lon="2.905579262747895"><ele>40.83333333333333</ele><time>2026-04-09T13:37:50Z</time></trkpt><trkpt lat="42.67155325388554" lon="2.9056600678418354"><ele>41.0</ele><time>2026-04-09T13:37:51Z</time></trkpt><trkpt lat="42.6714666289126" lon="2.9057402814496363"><ele>41.0</ele><time>2026-04-09T13:37:52Z</time></trkpt><trkpt lat="42.67137313099286" lon="2.905825750132648"><ele>41.0</ele><time>2026-04-09T13:37:53Z</time></trkpt><trkpt lat="42.67127539882734" lon="2.9059168857478914"><ele>41.0</ele><time>2026-04-09T13:37:54Z</time></trkpt><trkpt lat="42.67117195493366" lon="2.906011887807752"><ele>41.0</ele><time>2026-04-09T13:37:55Z</time></trkpt><trkpt lat="42.67106439688973" lon="2.9061099794423946"><ele>40.25</ele><time>2026-04-09T13:37:56Z</time></trkpt><trkpt lat="42.67095379762226" lon="2.9062126995056996"><ele>39.5</ele><time>2026-04-09T13:37:57Z</time></trkpt><trkpt lat="42.67084122272737" lon="2.9063152898028695"><ele>38.75</ele><time>2026-04-09T13:37:58Z</time></trkpt><trkpt lat="42.67072950394713" lon="2.9064169724167286"><ele>38.0</ele><time>2026-04-09T13:37:59Z</time></trkpt><trkpt lat="42.67062281424918" lon="2.90652121616246"><ele>38.0</ele><time>2026-04-09T13:38:00Z</time></trkpt><trkpt lat="42.670518546368044" lon="2.906621620694551"><ele>38.0</ele><time>2026-04-09T13:38:01Z</time></trkpt><trkpt lat="42.67042118138512" lon="2.9067285525548203"><ele>38.0</ele><time>2026-04-09T13:38:02Z</time></trkpt><trkpt lat="42.67033677711188" lon="2.9068453330145405"><ele>38.0</ele><time>2026-04-09T13:38:03Z</time></trkpt><trkpt lat="42.67026044847324" lon="2.9069769610315097"><ele>38.0</ele><time>2026-04-09T13:38:04Z</time></trkpt><trkpt lat="42.67019037366207" lon="2.90712683479454"><ele>38.0</ele><time>2026-04-09T13:38:05Z</time></trkpt><trkpt lat="42.670129075426004" lon="2.9072900561715684"><ele>38.0</ele><time>2026-04-09T13:38:06Z</time></trkpt><trkpt lat="42.67007211255409" lon="2.907460465625104"><ele>38.0</ele><time>2026-04-09T13:38:07Z</time></trkpt><trkpt lat="42.670015948706414" lon="2.907632192323919"><ele>37.75</ele><time>2026-04-09T13:38:08Z</time></trkpt><trkpt lat="42.66995568330241" lon="2.907800989931772"><ele>37.5</ele><time>2026-04-09T13:38:09Z</time></trkpt><trkpt lat="42.669899261509016" lon="2.9079691014170836"><ele>37.25</ele><time>2026-04-09T13:38:10Z</time></trkpt><trkpt lat="42.66985006567958" lon="2.908143980963582"><ele>37.0</ele><time>2026-04-09T13:38:11Z</time></trkpt><trkpt lat="42.66980021418779" lon="2.908318682187669"><ele>37.0</ele><time>2026-04-09T13:38:12Z</time></trkpt><trkpt lat="42.669750349685145" lon="2.9084952439146385"><ele>37.0</ele><time>2026-04-09T13:38:13Z</time></trkpt><trkpt lat="42.66970628502874" lon="2.908674347150489"><ele>37.0</ele><time>2026-04-09T13:38:14Z</time></trkpt><trkpt lat="42.66967112331254" lon="2.9088556454506125"><ele>37.0</ele><time>2026-04-09T13:38:15Z</time></trkpt><trkpt lat="42.66964380487709" lon="2.9090367816506824"><ele>37.0</ele><time>2026-04-09T13:38:16Z</time></trkpt><trkpt lat="42.66961979156734" lon="2.909214618867739"><ele>37.0</ele><time>2026-04-09T13:38:17Z</time></trkpt><trkpt lat="42.66957894694206" lon="2.909382032782963"><ele>37.0</ele><time>2026-04-09T13:38:18Z</time></trkpt><trkpt lat="42.669516761902095" lon="2.9095403719091335"><ele>37.0</ele><time>2026-04-09T13:38:19Z</time></trkpt><trkpt lat="42.66945198030739" lon="2.909701307984619"><ele>36.25</ele><time>2026-04-09T13:38:20Z</time></trkpt><trkpt lat="42.66938825133693" lon="2.9098678340643023"><ele>35.5</ele><time>2026-04-09T13:38:21Z</time></trkpt><trkpt lat="42.669325440207466" lon="2.910036581328373"><ele>34.75</ele><time>2026-04-09T13:38:22Z</time></trkpt><trkpt lat="42.669262263161436" lon="2.9102080503933188"><ele>34.0</ele><time>2026-04-09T13:38:23Z</time></trkpt><trkpt lat="42.669199846106295" lon="2.910382741366978"><ele>34.0</ele><time>2026-04-09T13:38:24Z</time></trkpt><trkpt lat="42.66913757420067" lon="2.9105614898099774"><ele>34.0</ele><time>2026-04-09T13:38:25Z</time></trkpt><trkpt lat="42.66907626214066" lon="2.9107402755548675"><ele>34.0</ele><time>2026-04-09T13:38:26Z</time></trkpt><trkpt lat="42.66901678939268" lon="2.910915084639868"><ele>34.0</ele><time>2026-04-09T13:38:27Z</time></trkpt><trkpt lat="42.66895945769774" lon="2.911086231729099"><ele>34.0</ele><time>2026-04-09T13:38:28Z</time></trkpt><trkpt lat="42.668900396321455" lon="2.911252283277599"><ele>34.0</ele><time>2026-04-09T13:38:29Z</time></trkpt><trkpt lat="42.66884190484659" lon="2.9114142274483577"><ele>34.0</ele><time>2026-04-09T13:38:30Z</time></trkpt><trkpt lat="42.66878586919085" lon="2.911571791803187"><ele>34.0</ele><time>2026-04-09T13:38:31Z</time></trkpt><trkpt lat="42.66872896178203" lon="2.911724623318909"><ele>34.0</ele><time>2026-04-09T13:38:32Z</time></trkpt><trkpt lat="42.6686715540317" lon="2.911875475838564"><ele>34.0</ele><time>2026-04-09T13:38:33Z</time></trkpt><trkpt lat="42.668616183390796" lon="2.9120180975898142"><ele>34.0</ele><time>2026-04-09T13:38:34Z</time></trkpt><trkpt lat="42.668563719737904" lon="2.9121487616408284"><ele>34.0</ele><time>2026-04-09T13:38:35Z</time></trkpt><trkpt lat="42.668515071952946" lon="2.9122639253351537"><ele>34.16666666666667</ele><time>2026-04-09T13:38:36Z</time></trkpt><trkpt lat="42.668472850539764" lon="2.912365373217002"><ele>34.333333333333336</ele><time>2026-04-09T13:38:37Z</time></trkpt><trkpt lat="42.6684428098386" lon="2.912469516281126"><ele>34.5</ele><time>2026-04-09T13:38:38Z</time></trkpt><trkpt lat="42.66844987611569" lon="2.912614242772524"><ele>34.666666666666664</ele><time>2026-04-09T13:38:39Z</time></trkpt><trkpt lat="42.66847332307466" lon="2.9126939107245113"><ele>34.83333333333333</ele><time>2026-04-09T13:38:42Z</time></trkpt><trkpt lat="42.66850550770495" lon="2.9128134851007705"><ele>35.0</ele><time>2026-04-09T13:38:47Z</time></trkpt><trkpt lat="42.66850429275475" lon="2.912968243106216"><ele>35.0</ele><time>2026-04-09T13:38:49Z</time></trkpt><trkpt lat="42.668507135575936" lon="2.9130776451473297"><ele>35.0</ele><time>2026-04-09T13:38:50Z</time></trkpt><trkpt lat="42.66851036314197" lon="2.9132068697143536"><ele>35.0</ele><time>2026-04-09T13:38:51Z</time></trkpt><trkpt lat="42.66851726716245" lon="2.9133259005435024"><ele>35.0</ele><time>2026-04-09T13:38:52Z</time></trkpt><trkpt lat="42.66852371532968" lon="2.913443006840462"><ele>35.0</ele><time>2026-04-09T13:38:53Z</time></trkpt><trkpt lat="42.66852882683125" lon="2.9135461378265144"><ele>35.0</ele><time>2026-04-09T13:38:54Z</time></trkpt><trkpt lat="42.66852730190614" lon="2.913644965655704"><ele>35.0</ele><time>2026-04-09T13:38:56Z</time></trkpt><trkpt lat="42.66851892513873" lon="2.913730865495075"><ele>35.0</ele><time>2026-04-09T13:38:58Z</time></trkpt><trkpt lat="42.66852312084882" lon="2.9138282546439"><ele>35.0</ele><time>2026-04-09T13:39:00Z</time></trkpt><trkpt lat="42.66855991475639" lon="2.913943307879186"><ele>35.0</ele><time>2026-04-09T13:39:02Z</time></trkpt><trkpt lat="42.66862840900566" lon="2.9140345969474737"><ele>35.0</ele><time>2026-04-09T13:39:04Z</time></trkpt><trkpt lat="42.668709140059455" lon="2.9141703461074964"><ele>35.0</ele><time>2026-04-09T13:39:06Z</time></trkpt><trkpt lat="42.668757000751086" lon="2.9142540657551295"><ele>35.0</ele><time>2026-04-09T13:39:07Z</time></trkpt><trkpt lat="42.66881053187222" lon="2.914346718586443"><ele>35.0</ele><time>2026-04-09T13:39:08Z</time></trkpt><trkpt lat="42.66887138427773" lon="2.9144512462253673"><ele>35.0</ele><time>2026-04-09T13:39:09Z</time></trkpt><trkpt lat="42.66893892555565" lon="2.9145663136359032"><ele>35.0</ele><time>2026-04-09T13:39:10Z</time></trkpt><trkpt lat="42.669008065755634" lon="2.9146847737975325"><ele>35.0</ele><time>2026-04-09T13:39:11Z</time></trkpt><trkpt lat="42.66907509098136" lon="2.914801137085585"><ele>35.0</ele><time>2026-04-09T13:39:12Z</time></trkpt><trkpt lat="42.66914027551258" lon="2.914915423793069"><ele>35.0</ele><time>2026-04-09T13:39:13Z</time></trkpt><trkpt lat="42.669204385241216" lon="2.9150231070617183"><ele>35.0</ele><time>2026-04-09T13:39:14Z</time></trkpt><trkpt lat="42.669261478587195" lon="2.9151188454603"><ele>35.0</ele><time>2026-04-09T13:39:15Z</time></trkpt><trkpt lat="42.669312879481964" lon="2.9151989233678384"><ele>34.8</ele><time>2026-04-09T13:39:16Z</time></trkpt><trkpt lat="42.66935480396847" lon="2.9152776514097183"><ele>34.6</ele><time>2026-04-09T13:39:17Z</time></trkpt><trkpt lat="42.66937371682583" lon="2.915360926425701"><ele>34.4</ele><time>2026-04-09T13:39:18Z</time></trkpt><trkpt lat="42.66936219911675" lon="2.9155120515480837"><ele>34.2</ele><time>2026-04-09T13:39:20Z</time></trkpt><trkpt lat="42.669270168187964" lon="2.9156341330316624"><ele>34.0</ele><time>2026-04-09T13:39:22Z</time></trkpt><trkpt lat="42.6691961252406" lon="2.9156717661617497"><ele>34.0</ele><time>2026-04-09T13:39:23Z</time></trkpt><trkpt lat="42.669116410913574" lon="2.915720348718958"><ele>34.0</ele><time>2026-04-09T13:39:24Z</time></trkpt><trkpt lat="42.66902513861632" lon="2.9157760482397035"><ele>34.0</ele><time>2026-04-09T13:39:25Z</time></trkpt><trkpt lat="42.668926873678785" lon="2.9158372269837853"><ele>34.0</ele><time>2026-04-09T13:39:26Z</time></trkpt><trkpt lat="42.66882626274423" lon="2.9158958327224576"><ele>34.0</ele><time>2026-04-09T13:39:27Z</time></trkpt><trkpt lat="42.66872425713825" lon="2.915959914048381"><ele>33.6</ele><time>2026-04-09T13:39:28Z</time></trkpt><trkpt lat="42.66862147688606" lon="2.91601993283131"><ele>33.2</ele><time>2026-04-09T13:39:29Z</time></trkpt><trkpt lat="42.668520704261454" lon="2.9160810543074747"><ele>32.800000000000004</ele><time>2026-04-09T13:39:30Z</time></trkpt><trkpt lat="42.668420669812434" lon="2.916138168917321"><ele>32.4</ele><time>2026-04-09T13:39:31Z</time></trkpt><trkpt lat="42.6683194993991" lon="2.9161929534577333"><ele>32.0</ele><time>2026-04-09T13:39:32Z</time></trkpt><trkpt lat="42.66822203906582" lon="2.9162487065820333"><ele>31.999999999999996</ele><time>2026-04-09T13:39:33Z</time></trkpt><trkpt lat="42.66813055732763" lon="2.91629956184425"><ele>32.0</ele><time>2026-04-09T13:39:34Z</time></trkpt><trkpt lat="42.668042844606695" lon="2.91635018563671"><ele>32.0</ele><time>2026-04-09T13:39:35Z</time></trkpt><trkpt lat="42.66796044773286" lon="2.9163980917763594"><ele>32.0</ele><time>2026-04-09T13:39:36Z</time></trkpt><trkpt lat="42.6678822967293" lon="2.9164424622444622"><ele>31.999999999999996</ele><time>2026-04-09T13:39:37Z</time></trkpt><trkpt lat="42.667814157354826" lon="2.9164800944367153"><ele>32.0</ele><time>2026-04-09T13:39:38Z</time></trkpt><trkpt lat="42.66772348429373" lon="2.916526896207226"><ele>31.999999999999996</ele><time>2026-04-09T13:39:40Z</time></trkpt><trkpt lat="42.66764834136004" lon="2.916561481108561"><ele>32.0</ele><time>2026-04-09T13:39:42Z</time></trkpt><trkpt lat="42.66758469395764" lon="2.9166201256069604"><ele>32.0</ele><time>2026-04-09T13:39:44Z</time></trkpt><trkpt lat="42.66758545924715" lon="2.9167141629368327"><ele>32.0</ele><time>2026-04-09T13:39:46Z</time></trkpt><trkpt lat="42.66764799566563" lon="2.9168173474767367"><ele>31.999999999999996</ele><time>2026-04-09T13:39:48Z</time></trkpt><trkpt lat="42.66769523454846" lon="2.9169651679908317"><ele>32.0</ele><time>2026-04-09T13:39:50Z</time></trkpt><trkpt lat="42.66772003287708" lon="2.917046041300628"><ele>31.833333333333332</ele><time>2026-04-09T13:39:51Z</time></trkpt><trkpt lat="42.66776248847576" lon="2.917191383377218"><ele>31.666666666666664</ele><time>2026-04-09T13:39:53Z</time></trkpt><trkpt lat="42.66779234679372" lon="2.9172920690732447"><ele>31.5</ele><time>2026-04-09T13:39:55Z</time></trkpt><trkpt lat="42.66783313844544" lon="2.917384377848911"><ele>31.333333333333336</ele><time>2026-04-09T13:39:57Z</time></trkpt><trkpt lat="42.667905469995866" lon="2.9174109839354365"><ele>31.166666666666668</ele><time>2026-04-09T13:39:59Z</time></trkpt><trkpt lat="42.667987588373215" lon="2.917357196712079"><ele>31.0</ele><time>2026-04-09T13:40:01Z</time></trkpt><trkpt lat="42.66807267916965" lon="2.917310684445159"><ele>30.8</ele><time>2026-04-09T13:40:03Z</time></trkpt><trkpt lat="42.668167786313155" lon="2.917258618783235"><ele>30.6</ele><time>2026-04-09T13:40:05Z</time></trkpt><trkpt lat="42.66825745671953" lon="2.917204088078827"><ele>30.4</ele><time>2026-04-09T13:40:07Z</time></trkpt><trkpt lat="42.66834181115421" lon="2.917155737645678"><ele>30.2</ele><time>2026-04-09T13:40:09Z</time></trkpt><trkpt lat="42.668412922055346" lon="2.9171118655713397"><ele>30.0</ele><time>2026-04-09T13:40:11Z</time></trkpt><trkpt lat="42.668479619908645" lon="2.9170489552051166"><ele>30.0</ele><time>2026-04-09T13:40:16Z</time></trkpt><trkpt lat="42.66845648003867" lon="2.9169454456287336"><ele>30.0</ele><time>2026-04-09T13:40:19Z</time></trkpt></trkseg><trkseg><trkpt lat="42.6684352304125" lon="2.9169272325791553"><ele>30.0</ele><time>2026-04-09T14:08:05Z</time></trkpt><trkpt lat="42.668499412676994" lon="2.916980097271924"><ele>30.0</ele><time>2026-04-09T14:08:17Z</time></trkpt><trkpt lat="42.668572713469054" lon="2.9169323730855123"><ele>30.0</ele><time>2026-04-09T14:08:19Z</time></trkpt><trkpt lat="42.66866318304678" lon="2.9168891731506372"><ele>30.0</ele><time>2026-04-09T14:08:22Z</time></trkpt><trkpt lat="42.66873230657184" lon="2.9168565543292697"><ele>30.0</ele><time>2026-04-09T14:08:24Z</time></trkpt><trkpt lat="42.66879963765903" lon="2.916820249895047"><ele>30.0</ele><time>2026-04-09T14:08:26Z</time></trkpt><trkpt lat="42.6688674027603" lon="2.9167851978773904"><ele>30.0</ele><time>2026-04-09T14:08:28Z</time></trkpt><trkpt lat="42.66892824294216" lon="2.916752869425418"><ele>30.0</ele><time>2026-04-09T14:08:30Z</time></trkpt><trkpt lat="42.6689884448722" lon="2.916720661217818"><ele>30.0</ele><time>2026-04-09T14:08:32Z</time></trkpt><trkpt lat="42.669052930697916" lon="2.916686791943096"><ele>30.0</ele><time>2026-04-09T14:08:34Z</time></trkpt><trkpt lat="42.66911521732433" lon="2.9166533858493477"><ele>30.0</ele><time>2026-04-09T14:08:36Z</time></trkpt><trkpt lat="42.669194170458276" lon="2.9166034221621913"><ele>30.0</ele><time>2026-04-09T14:08:39Z</time></trkpt><trkpt lat="42.66924489655623" lon="2.9165217578675873"><ele>30.0</ele><time>2026-04-09T14:08:42Z</time></trkpt><trkpt lat="42.6693274152922" lon="2.9164603180339763"><ele>30.333333333333332</ele><time>2026-04-09T14:08:45Z</time></trkpt><trkpt lat="42.6694096338814" lon="2.916411866137746"><ele>30.666666666666664</ele><time>2026-04-09T14:08:48Z</time></trkpt><trkpt lat="42.66949075652562" lon="2.9163589208531593"><ele>31.0</ele><time>2026-04-09T14:08:51Z</time></trkpt><trkpt lat="42.66947290664301" lon="2.916237433027984"><ele>31.333333333333332</ele><time>2026-04-09T14:08:54Z</time></trkpt><trkpt lat="42.669439111982996" lon="2.916155569223435"><ele>31.666666666666664</ele><time>2026-04-09T14:08:56Z</time></trkpt><trkpt lat="42.66940682815024" lon="2.916067855912908"><ele>32.0</ele><time>2026-04-09T14:08:58Z</time></trkpt><trkpt lat="42.66937667716744" lon="2.9159845535157394"><ele>32.33333333333333</ele><time>2026-04-09T14:09:00Z</time></trkpt><trkpt lat="42.66933539434575" lon="2.9158796846431563"><ele>32.666666666666664</ele><time>2026-04-09T14:09:03Z</time></trkpt><trkpt lat="42.66929544644742" lon="2.9157951825743753"><ele>33.0</ele><time>2026-04-09T14:09:06Z</time></trkpt><trkpt lat="42.66936819131308" lon="2.915737065906832"><ele>33.333333333333336</ele><time>2026-04-09T14:09:10Z</time></trkpt><trkpt lat="42.669432736068984" lon="2.9157570955074"><ele>33.66666666666667</ele><time>2026-04-09T14:09:12Z</time></trkpt><trkpt lat="42.66948725064118" lon="2.9158084121719345"><ele>34.0</ele><time>2026-04-09T14:09:14Z</time></trkpt><trkpt lat="42.66951083816767" lon="2.9159005608860142"><ele>34.0</ele><time>2026-04-09T14:09:16Z</time></trkpt><trkpt lat="42.669533288071605" lon="2.9159943468248146"><ele>34.0</ele><time>2026-04-09T14:09:18Z</time></trkpt><trkpt lat="42.66955983324266" lon="2.9160933107424913"><ele>34.0</ele><time>2026-04-09T14:09:21Z</time></trkpt><trkpt lat="42.66959130334619" lon="2.9162022443225113"><ele>34.0</ele><time>2026-04-09T14:09:31Z</time></trkpt><trkpt lat="42.669584131454926" lon="2.916305742830272"><ele>34.0</ele><time>2026-04-09T14:09:33Z</time></trkpt><trkpt lat="42.6695147204755" lon="2.916373103589892"><ele>34.0</ele><time>2026-04-09T14:09:35Z</time></trkpt><trkpt lat="42.66942849611379" lon="2.916413214702125"><ele>33.66666666666667</ele><time>2026-04-09T14:09:37Z</time></trkpt><trkpt lat="42.66936294140277" lon="2.916435402307921"><ele>33.333333333333336</ele><time>2026-04-09T14:09:39Z</time></trkpt><trkpt lat="42.66927888777304" lon="2.916487427518699"><ele>33.0</ele><time>2026-04-09T14:09:42Z</time></trkpt><trkpt lat="42.66922745858648" lon="2.916590369467096"><ele>32.666666666666664</ele><time>2026-04-09T14:09:45Z</time></trkpt><trkpt lat="42.66916866133556" lon="2.9166442475848506"><ele>32.33333333333333</ele><time>2026-04-09T14:09:47Z</time></trkpt><trkpt lat="42.66908677895584" lon="2.916685143306396"><ele>32.0</ele><time>2026-04-09T14:09:49Z</time></trkpt><trkpt lat="42.66900021749849" lon="2.9167273388839754"><ele>31.6</ele><time>2026-04-09T14:09:51Z</time></trkpt><trkpt lat="42.66890987219791" lon="2.916769298365163"><ele>31.200000000000003</ele><time>2026-04-09T14:09:53Z</time></trkpt><trkpt lat="42.66881695767302" lon="2.916817577704166"><ele>30.8</ele><time>2026-04-09T14:09:55Z</time></trkpt><trkpt lat="42.66872366358549" lon="2.9168648513446653"><ele>30.4</ele><time>2026-04-09T14:09:57Z</time></trkpt><trkpt lat="42.66865322456133" lon="2.916899579047623"><ele>30.0</ele><time>2026-04-09T14:09:59Z</time></trkpt><trkpt lat="42.66857907538339" lon="2.916954592334887"><ele>30.0</ele><time>2026-04-09T14:10:11Z</time></trkpt><trkpt lat="42.66849902514612" lon="2.916993628189991"><ele>30.0</ele><time>2026-04-09T14:10:13Z</time></trkpt><trkpt lat="42.668396198130225" lon="2.917045176112247"><ele>30.0</ele><time>2026-04-09T14:10:15Z</time></trkpt><trkpt lat="42.66828770106578" lon="2.9170968775380244"><ele>30.0</ele><time>2026-04-09T14:10:17Z</time></trkpt><trkpt lat="42.66818684945125" lon="2.917176450502421"><ele>30.0</ele><time>2026-04-09T14:10:19Z</time></trkpt><trkpt lat="42.66807894541202" lon="2.917236006015758"><ele>30.0</ele><time>2026-04-09T14:10:21Z</time></trkpt><trkpt lat="42.66798308654488" lon="2.917289508155537"><ele>30.0</ele><time>2026-04-09T14:10:23Z</time></trkpt><trkpt lat="42.66790008337141" lon="2.917335932516722"><ele>30.0</ele><time>2026-04-09T14:10:25Z</time></trkpt><trkpt lat="42.66783542189004" lon="2.9173693753035868"><ele>30.0</ele><time>2026-04-09T14:10:27Z</time></trkpt><trkpt lat="42.6678399812957" lon="2.9172186570837044"><ele>30.0</ele><time>2026-04-09T14:10:29Z</time></trkpt><trkpt lat="42.667807729430045" lon="2.91711334092741"><ele>30.166666666666668</ele><time>2026-04-09T14:10:31Z</time></trkpt><trkpt lat="42.667772926288926" lon="2.9169996938186413"><ele>30.333333333333336</ele><time>2026-04-09T14:10:33Z</time></trkpt><trkpt lat="42.66773849468438" lon="2.9168859564199714"><ele>30.5</ele><time>2026-04-09T14:10:35Z</time></trkpt><trkpt lat="42.66771454714294" lon="2.9168066700791604"><ele>30.666666666666668</ele><time>2026-04-09T14:10:37Z</time></trkpt><trkpt lat="42.66771007970063" lon="2.916713239519482"><ele>30.833333333333336</ele><time>2026-04-09T14:10:51Z</time></trkpt><trkpt lat="42.66772114584767" lon="2.9166096361986087"><ele>31.0</ele><time>2026-04-09T14:10:55Z</time></trkpt><trkpt lat="42.6677839710911" lon="2.9165118169290096"><ele>31.0</ele><time>2026-04-09T14:10:58Z</time></trkpt><trkpt lat="42.667862953859455" lon="2.916474532547385"><ele>31.0</ele><time>2026-04-09T14:11:00Z</time></trkpt><trkpt lat="42.667943933630816" lon="2.9164332030332383"><ele>31.0</ele><time>2026-04-09T14:11:02Z</time></trkpt><trkpt lat="42.66803863981682" lon="2.91638442020614"><ele>31.0</ele><time>2026-04-09T14:11:04Z</time></trkpt><trkpt lat="42.6681361940158" lon="2.916334197627046"><ele>31.0</ele><time>2026-04-09T14:11:06Z</time></trkpt><trkpt lat="42.66823446024119" lon="2.9162811211713757"><ele>31.0</ele><time>2026-04-09T14:11:08Z</time></trkpt><trkpt lat="42.668341805776606" lon="2.916222501817092"><ele>31.0</ele><time>2026-04-09T14:11:10Z</time></trkpt><trkpt lat="42.66844832059467" lon="2.9161657819840756"><ele>31.0</ele><time>2026-04-09T14:11:12Z</time></trkpt><trkpt lat="42.66855410569675" lon="2.9161059048358986"><ele>31.0</ele><time>2026-04-09T14:11:14Z</time></trkpt><trkpt lat="42.66865984948657" lon="2.9160481610288813"><ele>31.166666666666668</ele><time>2026-04-09T14:11:16Z</time></trkpt><trkpt lat="42.66876462951366" lon="2.915995759597567"><ele>31.333333333333336</ele><time>2026-04-09T14:11:18Z</time></trkpt><trkpt lat="42.66887798041425" lon="2.9159359094357287"><ele>31.5</ele><time>2026-04-09T14:11:20Z</time></trkpt><trkpt lat="42.66893718251577" lon="2.915903450624593"><ele>31.666666666666664</ele><time>2026-04-09T14:11:21Z</time></trkpt><trkpt lat="42.66899838341588" lon="2.9158695948811193"><ele>31.833333333333332</ele><time>2026-04-09T14:11:22Z</time></trkpt><trkpt lat="42.66906035214952" lon="2.915835165886005"><ele>32.0</ele><time>2026-04-09T14:11:23Z</time></trkpt><trkpt lat="42.66912374244775" lon="2.9158036916258596"><ele>32.4</ele><time>2026-04-09T14:11:24Z</time></trkpt><trkpt lat="42.66918487180165" lon="2.915769353275424"><ele>32.800000000000004</ele><time>2026-04-09T14:11:25Z</time></trkpt><trkpt lat="42.66924466659012" lon="2.9157389942759115"><ele>33.2</ele><time>2026-04-09T14:11:26Z</time></trkpt><trkpt lat="42.66935504488219" lon="2.915675242238983"><ele>33.6</ele><time>2026-04-09T14:11:28Z</time></trkpt><trkpt lat="42.66945786993041" lon="2.915640312254555"><ele>34.0</ele><time>2026-04-09T14:11:30Z</time></trkpt><trkpt lat="42.66955935033875" lon="2.915673250486413"><ele>34.0</ele><time>2026-04-09T14:11:32Z</time></trkpt><trkpt lat="42.6696478692851" lon="2.9157548890941074"><ele>34.0</ele><time>2026-04-09T14:11:34Z</time></trkpt><trkpt lat="42.669714423079036" lon="2.9158666922104652"><ele>34.0</ele><time>2026-04-09T14:11:36Z</time></trkpt><trkpt lat="42.66975853230619" lon="2.9159453724417275"><ele>34.0</ele><time>2026-04-09T14:11:38Z</time></trkpt><trkpt lat="42.66981316772208" lon="2.916026310890606"><ele>34.0</ele><time>2026-04-09T14:12:12Z</time></trkpt><trkpt lat="42.66986133756971" lon="2.9160839474296796"><ele>34.0</ele><time>2026-04-09T14:12:14Z</time></trkpt><trkpt lat="42.66990660359835" lon="2.9161762003578957"><ele>34.0</ele><time>2026-04-09T14:12:18Z</time></trkpt><trkpt lat="42.66992620006731" lon="2.9162687482960985"><ele>34.0</ele><time>2026-04-09T14:12:21Z</time></trkpt><trkpt lat="42.6699175515111" lon="2.916414990696636"><ele>34.0</ele><time>2026-04-09T14:12:23Z</time></trkpt><trkpt lat="42.66992141588031" lon="2.916503156807448"><ele>34.0</ele><time>2026-04-09T14:12:24Z</time></trkpt><trkpt lat="42.66995578527642" lon="2.9165940039613107"><ele>34.0</ele><time>2026-04-09T14:12:25Z</time></trkpt><trkpt lat="42.67000206804329" lon="2.9166647823405425"><ele>34.0</ele><time>2026-04-09T14:12:26Z</time></trkpt><trkpt lat="42.67006229082392" lon="2.916718043327159"><ele>33.833333333333336</ele><time>2026-04-09T14:12:27Z</time></trkpt><trkpt lat="42.670135152744734" lon="2.9167454481841406"><ele>33.66666666666667</ele><time>2026-04-09T14:12:28Z</time></trkpt><trkpt lat="42.670212384711085" lon="2.9167385769671164"><ele>33.5</ele><time>2026-04-09T14:12:29Z</time></trkpt><trkpt lat="42.67028731439592" lon="2.916697496008711"><ele>33.333333333333336</ele><time>2026-04-09T14:12:30Z</time></trkpt><trkpt lat="42.670353276905495" lon="2.9166231542463734"><ele>33.166666666666664</ele><time>2026-04-09T14:12:31Z</time></trkpt><trkpt lat="42.67041285163219" lon="2.9165361166595227"><ele>33.0</ele><time>2026-04-09T14:12:32Z</time></trkpt><trkpt lat="42.670479699770354" lon="2.9164510063151985"><ele>34.4</ele><time>2026-04-09T14:12:33Z</time></trkpt><trkpt lat="42.67056856864006" lon="2.9163906115341405"><ele>35.8</ele><time>2026-04-09T14:12:34Z</time></trkpt><trkpt lat="42.67066917270716" lon="2.916342226030056"><ele>37.2</ele><time>2026-04-09T14:12:35Z</time></trkpt><trkpt lat="42.67077727822517" lon="2.916293291516451"><ele>38.6</ele><time>2026-04-09T14:12:36Z</time></trkpt><trkpt lat="42.67089405743816" lon="2.91624280221823"><ele>40.0</ele><time>2026-04-09T14:12:37Z</time></trkpt><trkpt lat="42.671023411154394" lon="2.916190079613446"><ele>39.5</ele><time>2026-04-09T14:12:38Z</time></trkpt><trkpt lat="42.67115970037687" lon="2.9161319135138513"><ele>39.0</ele><time>2026-04-09T14:12:39Z</time></trkpt><trkpt lat="42.671294608353186" lon="2.9160700043887577"><ele>38.5</ele><time>2026-04-09T14:12:40Z</time></trkpt><trkpt lat="42.67143213282194" lon="2.916005865981062"><ele>38.0</ele><time>2026-04-09T14:12:41Z</time></trkpt><trkpt lat="42.671573611810786" lon="2.9159347562488906"><ele>38.0</ele><time>2026-04-09T14:12:42Z</time></trkpt><trkpt lat="42.67171849615151" lon="2.9158555601196228"><ele>38.0</ele><time>2026-04-09T14:12:43Z</time></trkpt><trkpt lat="42.67187067391121" lon="2.9157708992820406"><ele>38.0</ele><time>2026-04-09T14:12:44Z</time></trkpt><trkpt lat="42.67202784235899" lon="2.9156869061192485"><ele>38.666666666666664</ele><time>2026-04-09T14:12:45Z</time></trkpt><trkpt lat="42.67218430140641" lon="2.915600039077836"><ele>39.333333333333336</ele><time>2026-04-09T14:12:46Z</time></trkpt><trkpt lat="42.67233759773036" lon="2.915514349431194"><ele>40.0</ele><time>2026-04-09T14:12:47Z</time></trkpt><trkpt lat="42.67249499411029" lon="2.915427023770145"><ele>40.0</ele><time>2026-04-09T14:12:48Z</time></trkpt><trkpt lat="42.67264868272499" lon="2.915342176737226"><ele>40.0</ele><time>2026-04-09T14:12:49Z</time></trkpt><trkpt lat="42.67280281992754" lon="2.9152567280278765"><ele>40.0</ele><time>2026-04-09T14:12:50Z</time></trkpt><trkpt lat="42.672957173310515" lon="2.9151731645245538"><ele>40.0</ele><time>2026-04-09T14:12:51Z</time></trkpt><trkpt lat="42.67310843245489" lon="2.915088830045378"><ele>40.0</ele><time>2026-04-09T14:12:52Z</time></trkpt><trkpt lat="42.67325807216193" lon="2.9150058510278334"><ele>40.0</ele><time>2026-04-09T14:12:53Z</time></trkpt><trkpt lat="42.67340909963463" lon="2.9149217407823436"><ele>40.333333333333336</ele><time>2026-04-09T14:12:54Z</time></trkpt><trkpt lat="42.67356183877166" lon="2.9148372850696855"><ele>40.666666666666664</ele><time>2026-04-09T14:12:55Z</time></trkpt><trkpt lat="42.673716002538875" lon="2.9147535523081705"><ele>41.0</ele><time>2026-04-09T14:12:56Z</time></trkpt><trkpt lat="42.67386837925956" lon="2.9146714543274013"><ele>41.0</ele><time>2026-04-09T14:12:57Z</time></trkpt><trkpt lat="42.67402108936988" lon="2.914589272728996"><ele>41.0</ele><time>2026-04-09T14:12:58Z</time></trkpt><trkpt lat="42.67417252859283" lon="2.9145067381523586"><ele>41.0</ele><time>2026-04-09T14:12:59Z</time></trkpt><trkpt lat="42.674322178427765" lon="2.91442369672487"><ele>41.666666666666664</ele><time>2026-04-09T14:13:00Z</time></trkpt><trkpt lat="42.67447045882892" lon="2.9143410132977103"><ele>42.333333333333336</ele><time>2026-04-09T14:13:01Z</time></trkpt><trkpt lat="42.6746189114465" lon="2.914260466796155"><ele>43.0</ele><time>2026-04-09T14:13:02Z</time></trkpt><trkpt lat="42.67476833866534" lon="2.9141789291995814"><ele>43.0</ele><time>2026-04-09T14:13:03Z</time></trkpt><trkpt lat="42.67491827430975" lon="2.914095448339278"><ele>43.0</ele><time>2026-04-09T14:13:04Z</time></trkpt><trkpt lat="42.6750694655122" lon="2.914010773984533"><ele>43.0</ele><time>2026-04-09T14:13:05Z</time></trkpt><trkpt lat="42.67522093139178" lon="2.91392633006"><ele>43.0</ele><time>2026-04-09T14:13:06Z</time></trkpt><trkpt lat="42.675369707635596" lon="2.9138446450463684"><ele>43.0</ele><time>2026-04-09T14:13:07Z</time></trkpt><trkpt lat="42.67551997267315" lon="2.9137674736773125"><ele>43.0</ele><time>2026-04-09T14:13:08Z</time></trkpt><trkpt lat="42.675668573871754" lon="2.913693126107107"><ele>43.0</ele><time>2026-04-09T14:13:09Z</time></trkpt><trkpt lat="42.67581321427397" lon="2.9136219880889866"><ele>43.0</ele><time>2026-04-09T14:13:10Z</time></trkpt><trkpt lat="42.67595702162263" lon="2.9135543430591673"><ele>43.0</ele><time>2026-04-09T14:13:11Z</time></trkpt><trkpt lat="42.67609520644605" lon="2.9134906236503064"><ele>43.0</ele><time>2026-04-09T14:13:12Z</time></trkpt><trkpt lat="42.676232215339525" lon="2.913431827154908"><ele>43.0</ele><time>2026-04-09T14:13:13Z</time></trkpt><trkpt lat="42.67636706936485" lon="2.9133850539489665"><ele>43.0</ele><time>2026-04-09T14:13:14Z</time></trkpt><trkpt lat="42.67649705834184" lon="2.913348802080842"><ele>43.0</ele><time>2026-04-09T14:13:15Z</time></trkpt><trkpt lat="42.67662196191622" lon="2.913316722821268"><ele>43.16666666666667</ele><time>2026-04-09T14:13:16Z</time></trkpt><trkpt lat="42.676736394303425" lon="2.913287489878791"><ele>43.333333333333336</ele><time>2026-04-09T14:13:17Z</time></trkpt><trkpt lat="42.67683893143765" lon="2.9132642097053068"><ele>43.5</ele><time>2026-04-09T14:13:18Z</time></trkpt><trkpt lat="42.67692438504648" lon="2.913244071667052"><ele>43.666666666666664</ele><time>2026-04-09T14:13:19Z</time></trkpt><trkpt lat="42.676995418515254" lon="2.913229652828069"><ele>43.83333333333333</ele><time>2026-04-09T14:13:20Z</time></trkpt><trkpt lat="42.67705937604199" lon="2.9132174573389658"><ele>44.0</ele><time>2026-04-09T14:13:21Z</time></trkpt><trkpt lat="42.67717411021752" lon="2.913203243162374"><ele>43.5</ele><time>2026-04-09T14:13:23Z</time></trkpt><trkpt lat="42.67726109515462" lon="2.9131973421626376"><ele>43.0</ele><time>2026-04-09T14:13:25Z</time></trkpt><trkpt lat="42.67732700927576" lon="2.913195308362022"><ele>42.5</ele><time>2026-04-09T14:13:27Z</time></trkpt><trkpt lat="42.6774189352388" lon="2.9131760794209534"><ele>42.0</ele><time>2026-04-09T14:13:30Z</time></trkpt><trkpt lat="42.67750863810261" lon="2.9131708841604707"><ele>41.5</ele><time>2026-04-09T14:13:32Z</time></trkpt><trkpt lat="42.67760582602455" lon="2.913223044367584"><ele>41.0</ele><time>2026-04-09T14:13:34Z</time></trkpt><trkpt lat="42.677660714328" lon="2.9132895966946815"><ele>41.0</ele><time>2026-04-09T14:13:35Z</time></trkpt><trkpt lat="42.67772837959244" lon="2.9133481468216864"><ele>41.0</ele><time>2026-04-09T14:13:36Z</time></trkpt><trkpt lat="42.67779931660703" lon="2.913387688063219"><ele>41.0</ele><time>2026-04-09T14:13:37Z</time></trkpt><trkpt lat="42.67786589713924" lon="2.9134421126512335"><ele>41.0</ele><time>2026-04-09T14:13:38Z</time></trkpt><trkpt lat="42.67792127874401" lon="2.913534520699002"><ele>41.0</ele><time>2026-04-09T14:13:39Z</time></trkpt><trkpt lat="42.677962158582794" lon="2.9136589402433084"><ele>41.0</ele><time>2026-04-09T14:13:40Z</time></trkpt><trkpt lat="42.67799516789452" lon="2.913799739320901"><ele>39.5</ele><time>2026-04-09T14:13:41Z</time></trkpt><trkpt lat="42.6780290815236" lon="2.9139511833406577"><ele>38.0</ele><time>2026-04-09T14:13:42Z</time></trkpt><trkpt lat="42.678068863175156" lon="2.9141173320604006"><ele>36.5</ele><time>2026-04-09T14:13:43Z</time></trkpt><trkpt lat="42.67811461431211" lon="2.914282194940462"><ele>35.0</ele><time>2026-04-09T14:13:44Z</time></trkpt><trkpt lat="42.67816546959573" lon="2.9144515430819533"><ele>35.0</ele><time>2026-04-09T14:13:45Z</time></trkpt><trkpt lat="42.67822168807507" lon="2.9146297693998946"><ele>35.0</ele><time>2026-04-09T14:13:46Z</time></trkpt><trkpt lat="42.678282882221495" lon="2.9148176799130554"><ele>35.0</ele><time>2026-04-09T14:13:47Z</time></trkpt><trkpt lat="42.678349071433246" lon="2.9150142031645436"><ele>35.0</ele><time>2026-04-09T14:13:48Z</time></trkpt><trkpt lat="42.67842280963624" lon="2.915212971543489"><ele>35.0</ele><time>2026-04-09T14:13:49Z</time></trkpt><trkpt lat="42.67850336481838" lon="2.9154088577851596"><ele>35.0</ele><time>2026-04-09T14:13:50Z</time></trkpt><trkpt lat="42.67858741744745" lon="2.91559775283384"><ele>35.0</ele><time>2026-04-09T14:13:51Z</time></trkpt><trkpt lat="42.678674617931414" lon="2.9157840321084607"><ele>35.0</ele><time>2026-04-09T14:13:52Z</time></trkpt><trkpt lat="42.67876398285451" lon="2.915963361048565"><ele>35.0</ele><time>2026-04-09T14:13:53Z</time></trkpt><trkpt lat="42.678853976632176" lon="2.9161332880694926"><ele>35.0</ele><time>2026-04-09T14:13:54Z</time></trkpt><trkpt lat="42.67894489722576" lon="2.916295340102531"><ele>35.0</ele><time>2026-04-09T14:13:55Z</time></trkpt><trkpt lat="42.67903570014629" lon="2.9164459932146913"><ele>35.0</ele><time>2026-04-09T14:13:56Z</time></trkpt><trkpt lat="42.67911364593293" lon="2.9166035517753235"><ele>35.0</ele><time>2026-04-09T14:13:57Z</time></trkpt><trkpt lat="42.679201587144284" lon="2.9167367564911286"><ele>35.25</ele><time>2026-04-09T14:13:58Z</time></trkpt><trkpt lat="42.67928845853687" lon="2.9168632408378588"><ele>35.5</ele><time>2026-04-09T14:13:59Z</time></trkpt><trkpt lat="42.679371398553585" lon="2.916976573611905"><ele>35.75</ele><time>2026-04-09T14:14:00Z</time></trkpt><trkpt lat="42.67944930825162" lon="2.9170839790297256"><ele>36.0</ele><time>2026-04-09T14:14:01Z</time></trkpt><trkpt lat="42.67951548899282" lon="2.9171807867750394"><ele>36.0</ele><time>2026-04-09T14:14:02Z</time></trkpt><trkpt lat="42.67957090786832" lon="2.9172714771231885"><ele>36.0</ele><time>2026-04-09T14:14:03Z</time></trkpt><trkpt lat="42.679612076139975" lon="2.91734823273923"><ele>36.0</ele><time>2026-04-09T14:14:04Z</time></trkpt><trkpt lat="42.67966809477405" lon="2.9174323916838834"><ele>36.0</ele><time>2026-04-09T14:14:08Z</time></trkpt><trkpt lat="42.67972147319766" lon="2.917567694788761"><ele>36.0</ele><time>2026-04-09T14:14:10Z</time></trkpt><trkpt lat="42.679745398159625" lon="2.917723253580433"><ele>36.0</ele><time>2026-04-09T14:14:12Z</time></trkpt><trkpt lat="42.67978040035033" lon="2.917803553425787"><ele>36.0</ele><time>2026-04-09T14:14:13Z</time></trkpt><trkpt lat="42.679889670174" lon="2.9178563948521683"><ele>36.0</ele><time>2026-04-09T14:14:15Z</time></trkpt><trkpt lat="42.67996457999407" lon="2.917853897869159"><ele>36.0</ele><time>2026-04-09T14:14:16Z</time></trkpt><trkpt lat="42.68005136426419" lon="2.9178261288812113"><ele>36.0</ele><time>2026-04-09T14:14:17Z</time></trkpt><trkpt lat="42.68016726619856" lon="2.9179761420439974"><ele>36.0</ele><time>2026-04-09T14:14:18Z</time></trkpt><trkpt lat="42.68026602894028" lon="2.9180588421824543"><ele>36.0</ele><time>2026-04-09T14:14:19Z</time></trkpt><trkpt lat="42.68036276185399" lon="2.9181692615135173"><ele>36.0</ele><time>2026-04-09T14:14:20Z</time></trkpt><trkpt lat="42.68046326146391" lon="2.9182940768432903"><ele>36.0</ele><time>2026-04-09T14:14:21Z</time></trkpt><trkpt lat="42.680572711710745" lon="2.918423418947964"><ele>35.666666666666664</ele><time>2026-04-09T14:14:22Z</time></trkpt><trkpt lat="42.68069536491741" lon="2.9185521517998043"><ele>35.33333333333333</ele><time>2026-04-09T14:14:23Z</time></trkpt><trkpt lat="42.68082659487268" lon="2.9186731070578924"><ele>35.0</ele><time>2026-04-09T14:14:24Z</time></trkpt><trkpt lat="42.68096086188385" lon="2.9187841866405253"><ele>34.33333333333333</ele><time>2026-04-09T14:14:25Z</time></trkpt><trkpt lat="42.68111061804044" lon="2.918889958946287"><ele>33.666666666666664</ele><time>2026-04-09T14:14:26Z</time></trkpt><trkpt lat="42.6812715527944" lon="2.918985598487758"><ele>33.0</ele><time>2026-04-09T14:14:27Z</time></trkpt><trkpt lat="42.6814403690294" lon="2.9190694336489784"><ele>33.0</ele><time>2026-04-09T14:14:28Z</time></trkpt><trkpt lat="42.681614367107365" lon="2.919138024704229"><ele>33.0</ele><time>2026-04-09T14:14:29Z</time></trkpt><trkpt lat="42.681789199098006" lon="2.91918835079573"><ele>33.0</ele><time>2026-04-09T14:14:30Z</time></trkpt><trkpt lat="42.681964766174566" lon="2.919228309510677"><ele>33.666666666666664</ele><time>2026-04-09T14:14:31Z</time></trkpt><trkpt lat="42.68214055220816" lon="2.9192553216281074"><ele>34.33333333333333</ele><time>2026-04-09T14:14:32Z</time></trkpt><trkpt lat="42.682314793739465" lon="2.9192639216337195"><ele>35.0</ele><time>2026-04-09T14:14:33Z</time></trkpt><trkpt lat="42.682487519697695" lon="2.919265584938186"><ele>35.0</ele><time>2026-04-09T14:14:34Z</time></trkpt><trkpt lat="42.682655023564834" lon="2.9192658815033856"><ele>35.0</ele><time>2026-04-09T14:14:35Z</time></trkpt><trkpt lat="42.682817763373976" lon="2.9192658505704756"><ele>35.0</ele><time>2026-04-09T14:14:36Z</time></trkpt><trkpt lat="42.682972771041435" lon="2.9192660785670204"><ele>34.5</ele><time>2026-04-09T14:14:37Z</time></trkpt><trkpt lat="42.68312338316757" lon="2.9192662565455616"><ele>34.0</ele><time>2026-04-09T14:14:38Z</time></trkpt><trkpt lat="42.68326678303785" lon="2.919267019735676"><ele>33.5</ele><time>2026-04-09T14:14:39Z</time></trkpt><trkpt lat="42.68340340929516" lon="2.919268115351504"><ele>33.0</ele><time>2026-04-09T14:14:40Z</time></trkpt><trkpt lat="42.68353523322273" lon="2.919268540437273"><ele>33.5</ele><time>2026-04-09T14:14:41Z</time></trkpt><trkpt lat="42.68367042826975" lon="2.9192695655003535"><ele>34.0</ele><time>2026-04-09T14:14:42Z</time></trkpt><trkpt lat="42.68380439240224" lon="2.9192697100559744"><ele>34.5</ele><time>2026-04-09T14:14:43Z</time></trkpt><trkpt lat="42.68393625244564" lon="2.919268997306093"><ele>35.0</ele><time>2026-04-09T14:14:44Z</time></trkpt><trkpt lat="42.684061271970805" lon="2.9192687257579832"><ele>35.0</ele><time>2026-04-09T14:14:45Z</time></trkpt><trkpt lat="42.68418750431066" lon="2.9192707922245003"><ele>35.0</ele><time>2026-04-09T14:14:46Z</time></trkpt><trkpt lat="42.68431563218158" lon="2.9192749968579292"><ele>35.0</ele><time>2026-04-09T14:14:47Z</time></trkpt><trkpt lat="42.68444399786948" lon="2.919282218989293"><ele>35.0</ele><time>2026-04-09T14:14:48Z</time></trkpt><trkpt lat="42.68456857129823" lon="2.9192954749671074"><ele>35.5</ele><time>2026-04-09T14:14:49Z</time></trkpt><trkpt lat="42.684690554980314" lon="2.9193143850637897"><ele>36.0</ele><time>2026-04-09T14:14:50Z</time></trkpt><trkpt lat="42.68481196514027" lon="2.9193366599512984"><ele>36.5</ele><time>2026-04-09T14:14:51Z</time></trkpt><trkpt lat="42.68493476670966" lon="2.919363881361084"><ele>37.0</ele><time>2026-04-09T14:14:52Z</time></trkpt><trkpt lat="42.685055789945864" lon="2.9193980110196844"><ele>37.0</ele><time>2026-04-09T14:14:53Z</time></trkpt><trkpt lat="42.685173242949844" lon="2.9194376067899652"><ele>37.0</ele><time>2026-04-09T14:14:54Z</time></trkpt><trkpt lat="42.68528483289355" lon="2.919480332748885"><ele>37.0</ele><time>2026-04-09T14:14:55Z</time></trkpt><trkpt lat="42.685389713225746" lon="2.919526647596068"><ele>37.0</ele><time>2026-04-09T14:14:56Z</time></trkpt><trkpt lat="42.68548342214066" lon="2.9195712434830092"><ele>37.0</ele><time>2026-04-09T14:14:57Z</time></trkpt><trkpt lat="42.68556990854177" lon="2.919615544640317"><ele>37.5</ele><time>2026-04-09T14:14:58Z</time></trkpt><trkpt lat="42.685648705353074" lon="2.9196589876962595"><ele>38.0</ele><time>2026-04-09T14:14:59Z</time></trkpt><trkpt lat="42.68571901642686" lon="2.9197011044541394"><ele>38.5</ele><time>2026-04-09T14:15:00Z</time></trkpt><trkpt lat="42.68577760555779" lon="2.9197380245994706"><ele>39.0</ele><time>2026-04-09T14:15:01Z</time></trkpt><trkpt lat="42.68587312715553" lon="2.919803313520197"><ele>39.5</ele><time>2026-04-09T14:15:03Z</time></trkpt><trkpt lat="42.685956689166495" lon="2.9198654754263287"><ele>40.0</ele><time>2026-04-09T14:15:05Z</time></trkpt><trkpt lat="42.6860390221454" lon="2.919975304503719"><ele>40.0</ele><time>2026-04-09T14:15:07Z</time></trkpt><trkpt lat="42.68607076993326" lon="2.9200626723855025"><ele>40.0</ele><time>2026-04-09T14:15:08Z</time></trkpt><trkpt lat="42.6861090793745" lon="2.9201520392072"><ele>40.0</ele><time>2026-04-09T14:15:09Z</time></trkpt><trkpt lat="42.686158783542645" lon="2.9202194023767416"><ele>40.0</ele><time>2026-04-09T14:15:10Z</time></trkpt><trkpt lat="42.68621594451721" lon="2.9202663851707564"><ele>40.0</ele><time>2026-04-09T14:15:11Z</time></trkpt><trkpt lat="42.686276271864386" lon="2.9202929166280107"><ele>40.0</ele><time>2026-04-09T14:15:12Z</time></trkpt><trkpt lat="42.68633988780081" lon="2.920303866948357"><ele>40.0</ele><time>2026-04-09T14:15:13Z</time></trkpt><trkpt lat="42.686401818226464" lon="2.9202811587980184"><ele>40.0</ele><time>2026-04-09T14:15:14Z</time></trkpt><trkpt lat="42.6864768398443" lon="2.9203741890126"><ele>40.0</ele><time>2026-04-09T14:15:15Z</time></trkpt><trkpt lat="42.6865436876319" lon="2.9204514558693426"><ele>40.0</ele><time>2026-04-09T14:15:16Z</time></trkpt><trkpt lat="42.686613577917456" lon="2.9205483188329437"><ele>40.0</ele><time>2026-04-09T14:15:17Z</time></trkpt><trkpt lat="42.68668858623585" lon="2.9206568825904933"><ele>40.0</ele><time>2026-04-09T14:15:18Z</time></trkpt><trkpt lat="42.686770386696395" lon="2.92077599171685"><ele>40.0</ele><time>2026-04-09T14:15:19Z</time></trkpt><trkpt lat="42.68685762232426" lon="2.9209096331604774"><ele>40.0</ele><time>2026-04-09T14:15:20Z</time></trkpt><trkpt lat="42.68694390008864" lon="2.9210407770255498"><ele>40.0</ele><time>2026-04-09T14:15:21Z</time></trkpt><trkpt lat="42.687031750314105" lon="2.9211816140379843"><ele>40.0</ele><time>2026-04-09T14:15:22Z</time></trkpt><trkpt lat="42.687120546078575" lon="2.9213261519065785"><ele>40.5</ele><time>2026-04-09T14:15:23Z</time></trkpt><trkpt lat="42.687207621867046" lon="2.921470042311647"><ele>41.0</ele><time>2026-04-09T14:15:24Z</time></trkpt><trkpt lat="42.68729376603351" lon="2.9216117410721223"><ele>41.5</ele><time>2026-04-09T14:15:25Z</time></trkpt><trkpt lat="42.68737990666534" lon="2.9217529953523504"><ele>42.0</ele><time>2026-04-09T14:15:26Z</time></trkpt><trkpt lat="42.687464920366196" lon="2.921891623861739"><ele>42.0</ele><time>2026-04-09T14:15:27Z</time></trkpt><trkpt lat="42.68755184220368" lon="2.922029612803659"><ele>42.0</ele><time>2026-04-09T14:15:28Z</time></trkpt><trkpt lat="42.687635378984815" lon="2.922167769674341"><ele>42.0</ele><time>2026-04-09T14:15:29Z</time></trkpt><trkpt lat="42.687719708009" lon="2.9223022117041357"><ele>42.0</ele><time>2026-04-09T14:15:30Z</time></trkpt><trkpt lat="42.68780065185159" lon="2.9224366682227014"><ele>41.75</ele><time>2026-04-09T14:15:31Z</time></trkpt><trkpt lat="42.68788381582377" lon="2.9225713900473878"><ele>41.5</ele><time>2026-04-09T14:15:32Z</time></trkpt><trkpt lat="42.68796448700161" lon="2.9227051568047386"><ele>41.25</ele><time>2026-04-09T14:15:33Z</time></trkpt><trkpt lat="42.68804778130471" lon="2.9228387288405204"><ele>41.0</ele><time>2026-04-09T14:15:34Z</time></trkpt><trkpt lat="42.68813184437071" lon="2.922972528813093"><ele>41.0</ele><time>2026-04-09T14:15:35Z</time></trkpt><trkpt lat="42.688212199889605" lon="2.9231026343852116"><ele>41.0</ele><time>2026-04-09T14:15:36Z</time></trkpt><trkpt lat="42.68829004358579" lon="2.9232290757003474"><ele>41.0</ele><time>2026-04-09T14:15:37Z</time></trkpt><trkpt lat="42.68836414679942" lon="2.9233490082759945"><ele>41.0</ele><time>2026-04-09T14:15:38Z</time></trkpt><trkpt lat="42.68843543958889" lon="2.9234645650131146"><ele>40.8</ele><time>2026-04-09T14:15:39Z</time></trkpt><trkpt lat="42.688505446995734" lon="2.9235758823237843"><ele>40.599999999999994</ele><time>2026-04-09T14:15:40Z</time></trkpt><trkpt lat="42.688571235458454" lon="2.9236796176233737"><ele>40.4</ele><time>2026-04-09T14:15:41Z</time></trkpt><trkpt lat="42.68863312199609" lon="2.9237770229490874"><ele>40.2</ele><time>2026-04-09T14:15:42Z</time></trkpt><trkpt lat="42.68868348296553" lon="2.9238588148563682"><ele>40.0</ele><time>2026-04-09T14:15:43Z</time></trkpt><trkpt lat="42.68872806783926" lon="2.9239342343807366"><ele>40.0</ele><time>2026-04-09T14:15:44Z</time></trkpt><trkpt lat="42.688767538911364" lon="2.9240052940547496"><ele>40.0</ele><time>2026-04-09T14:15:45Z</time></trkpt><trkpt lat="42.68881909963453" lon="2.92414921931986"><ele>40.0</ele><time>2026-04-09T14:15:47Z</time></trkpt><trkpt lat="42.68880402677934" lon="2.924237659620219"><ele>40.0</ele><time>2026-04-09T14:15:48Z</time></trkpt><trkpt lat="42.68880601490632" lon="2.924328934939732"><ele>40.0</ele><time>2026-04-09T14:15:49Z</time></trkpt><trkpt lat="42.6888422651907" lon="2.9244030110884642"><ele>40.0</ele><time>2026-04-09T14:15:50Z</time></trkpt><trkpt lat="42.68894043313522" lon="2.9245122980333043"><ele>39.6</ele><time>2026-04-09T14:15:52Z</time></trkpt><trkpt lat="42.689011972226105" lon="2.924529394317635"><ele>39.2</ele><time>2026-04-09T14:15:53Z</time></trkpt><trkpt lat="42.68909448111849" lon="2.92450985549111"><ele>38.8</ele><time>2026-04-09T14:15:54Z</time></trkpt><trkpt lat="42.68918136020311" lon="2.9245869443865313"><ele>38.4</ele><time>2026-04-09T14:15:55Z</time></trkpt><trkpt lat="42.689270064624296" lon="2.924658727198108"><ele>38.0</ele><time>2026-04-09T14:15:56Z</time></trkpt><trkpt lat="42.689365447573536" lon="2.9247403947978396"><ele>38.33333333333333</ele><time>2026-04-09T14:15:57Z</time></trkpt><trkpt lat="42.68946715831021" lon="2.924833130348602"><ele>38.666666666666664</ele><time>2026-04-09T14:15:58Z</time></trkpt><trkpt lat="42.6896910799377" lon="2.925042639008442"><ele>39.0</ele><time>2026-04-09T14:16:00Z</time></trkpt><trkpt lat="42.689815472771116" lon="2.925153475235424"><ele>39.333333333333336</ele><time>2026-04-09T14:16:01Z</time></trkpt><trkpt lat="42.689945058005236" lon="2.925262959165809"><ele>39.66666666666667</ele><time>2026-04-09T14:16:02Z</time></trkpt><trkpt lat="42.690074063741065" lon="2.9253658709626182"><ele>40.0</ele><time>2026-04-09T14:16:03Z</time></trkpt><trkpt lat="42.69020724664547" lon="2.9254709959167173"><ele>40.333333333333336</ele><time>2026-04-09T14:16:04Z</time></trkpt><trkpt lat="42.69034710683347" lon="2.925578427833497"><ele>40.666666666666664</ele><time>2026-04-09T14:16:05Z</time></trkpt><trkpt lat="42.69048892489813" lon="2.9256889652220956"><ele>41.0</ele><time>2026-04-09T14:16:06Z</time></trkpt><trkpt lat="42.69063182114641" lon="2.92579927960616"><ele>41.33333333333333</ele><time>2026-04-09T14:16:07Z</time></trkpt><trkpt lat="42.690775411651344" lon="2.9259111251438767"><ele>41.666666666666664</ele><time>2026-04-09T14:16:08Z</time></trkpt><trkpt lat="42.69091938386771" lon="2.9260261823038296"><ele>42.0</ele><time>2026-04-09T14:16:09Z</time></trkpt><trkpt lat="42.69105975661578" lon="2.926150414114992"><ele>42.0</ele><time>2026-04-09T14:16:10Z</time></trkpt><trkpt lat="42.69119861386548" lon="2.9262769662967223"><ele>42.0</ele><time>2026-04-09T14:16:11Z</time></trkpt><trkpt lat="42.69133891893974" lon="2.926416563565315"><ele>42.0</ele><time>2026-04-09T14:16:12Z</time></trkpt><trkpt lat="42.69147967031289" lon="2.92656351144934"><ele>42.0</ele><time>2026-04-09T14:16:13Z</time></trkpt><trkpt lat="42.6916162082788" lon="2.926714545130894"><ele>42.0</ele><time>2026-04-09T14:16:14Z</time></trkpt><trkpt lat="42.69175038810355" lon="2.9268755596146208"><ele>42.0</ele><time>2026-04-09T14:16:15Z</time></trkpt><trkpt lat="42.69188012926607" lon="2.9270443271097246"><ele>41.666666666666664</ele><time>2026-04-09T14:16:16Z</time></trkpt><trkpt lat="42.69201012350865" lon="2.927218674709146"><ele>41.33333333333333</ele><time>2026-04-09T14:16:17Z</time></trkpt><trkpt lat="42.692135863701786" lon="2.927398816952489"><ele>41.0</ele><time>2026-04-09T14:16:18Z</time></trkpt><trkpt lat="42.69226002296974" lon="2.9275858354503974"><ele>40.666666666666664</ele><time>2026-04-09T14:16:19Z</time></trkpt><trkpt lat="42.69237681969077" lon="2.9277728871151982"><ele>40.333333333333336</ele><time>2026-04-09T14:16:20Z</time></trkpt><trkpt lat="42.69249064549811" lon="2.927962532354924"><ele>40.0</ele><time>2026-04-09T14:16:21Z</time></trkpt><trkpt lat="42.69259879816304" lon="2.9281487653878386"><ele>40.0</ele><time>2026-04-09T14:16:22Z</time></trkpt><trkpt lat="42.69269732775696" lon="2.9283356785653774"><ele>40.0</ele><time>2026-04-09T14:16:23Z</time></trkpt><trkpt lat="42.69278331789323" lon="2.9285246897428325"><ele>40.0</ele><time>2026-04-09T14:16:24Z</time></trkpt><trkpt lat="42.692859951285385" lon="2.928719849102741"><ele>40.0</ele><time>2026-04-09T14:16:25Z</time></trkpt><trkpt lat="42.692925604062694" lon="2.9289207812903117"><ele>40.0</ele><time>2026-04-09T14:16:26Z</time></trkpt><trkpt lat="42.69298197401529" lon="2.9291239463662992"><ele>40.0</ele><time>2026-04-09T14:16:27Z</time></trkpt><trkpt lat="42.693028128248216" lon="2.9293264641561194"><ele>40.0</ele><time>2026-04-09T14:16:28Z</time></trkpt><trkpt lat="42.693067081402" lon="2.929526935275668"><ele>40.0</ele><time>2026-04-09T14:16:29Z</time></trkpt><trkpt lat="42.693096158765314" lon="2.9297255855592677"><ele>40.0</ele><time>2026-04-09T14:16:30Z</time></trkpt><trkpt lat="42.69311845283862" lon="2.9299237299385927"><ele>40.0</ele><time>2026-04-09T14:16:31Z</time></trkpt><trkpt lat="42.69313863530061" lon="2.9301195755732694"><ele>40.0</ele><time>2026-04-09T14:16:32Z</time></trkpt><trkpt lat="42.69315754233294" lon="2.930303805683036"><ele>40.0</ele><time>2026-04-09T14:16:33Z</time></trkpt><trkpt lat="42.693174931041405" lon="2.930467644563699"><ele>40.0</ele><time>2026-04-09T14:16:34Z</time></trkpt><trkpt lat="42.69319132767888" lon="2.9306122021471372"><ele>40.0</ele><time>2026-04-09T14:16:35Z</time></trkpt><trkpt lat="42.69320563214182" lon="2.9307435119761025"><ele>40.0</ele><time>2026-04-09T14:16:36Z</time></trkpt><trkpt lat="42.693217383284896" lon="2.9308674355410225"><ele>40.0</ele><time>2026-04-09T14:16:37Z</time></trkpt><trkpt lat="42.69322492014029" lon="2.930983795340151"><ele>40.0</ele><time>2026-04-09T14:16:38Z</time></trkpt><trkpt lat="42.69323038017586" lon="2.9310891409069226"><ele>40.0</ele><time>2026-04-09T14:16:39Z</time></trkpt><trkpt lat="42.69323173543583" lon="2.9311864395253826"><ele>40.0</ele><time>2026-04-09T14:16:40Z</time></trkpt><trkpt lat="42.693231020085854" lon="2.931276362574841"><ele>40.0</ele><time>2026-04-09T14:16:41Z</time></trkpt><trkpt lat="42.69322320190133" lon="2.931388182764219"><ele>39.6</ele><time>2026-04-09T14:16:43Z</time></trkpt><trkpt lat="42.69316444412872" lon="2.931532230947037"><ele>39.2</ele><time>2026-04-09T14:16:48Z</time></trkpt><trkpt lat="42.69310008023644" lon="2.9316831247249926"><ele>38.8</ele><time>2026-04-09T14:16:50Z</time></trkpt><trkpt lat="42.69309326539661" lon="2.931777023525056"><ele>38.4</ele><time>2026-04-09T14:16:51Z</time></trkpt><trkpt lat="42.69310604877496" lon="2.9318708246349554"><ele>38.0</ele><time>2026-04-09T14:16:52Z</time></trkpt><trkpt lat="42.69314433965427" lon="2.9319530880026874"><ele>37.666666666666664</ele><time>2026-04-09T14:16:53Z</time></trkpt><trkpt lat="42.69320118189044" lon="2.932023474987921"><ele>37.33333333333333</ele><time>2026-04-09T14:16:54Z</time></trkpt><trkpt lat="42.693259542803354" lon="2.932086528988325"><ele>37.0</ele><time>2026-04-09T14:16:55Z</time></trkpt><trkpt lat="42.69331122263454" lon="2.9321720530526187"><ele>36.666666666666664</ele><time>2026-04-09T14:16:56Z</time></trkpt><trkpt lat="42.693344564720206" lon="2.9322861169652703"><ele>36.333333333333336</ele><time>2026-04-09T14:16:57Z</time></trkpt><trkpt lat="42.6933562411862" lon="2.932415942814654"><ele>36.0</ele><time>2026-04-09T14:16:58Z</time></trkpt><trkpt lat="42.69336812092565" lon="2.93256228602648"><ele>35.5</ele><time>2026-04-09T14:16:59Z</time></trkpt><trkpt lat="42.693380748485126" lon="2.932713744898305"><ele>35.0</ele><time>2026-04-09T14:17:00Z</time></trkpt><trkpt lat="42.6933934015643" lon="2.932880017350422"><ele>34.5</ele><time>2026-04-09T14:17:01Z</time></trkpt><trkpt lat="42.69340975206681" lon="2.9330628875595512"><ele>34.0</ele><time>2026-04-09T14:17:02Z</time></trkpt><trkpt lat="42.69342681080843" lon="2.933257107684646"><ele>33.75</ele><time>2026-04-09T14:17:03Z</time></trkpt><trkpt lat="42.69344592805355" lon="2.9334477086963506"><ele>33.5</ele><time>2026-04-09T14:17:04Z</time></trkpt><trkpt lat="42.6934656030922" lon="2.9336466076369967"><ele>33.25</ele><time>2026-04-09T14:17:05Z</time></trkpt><trkpt lat="42.693485006852114" lon="2.9338466587572434"><ele>33.0</ele><time>2026-04-09T14:17:06Z</time></trkpt><trkpt lat="42.69350507892194" lon="2.9340465178712765"><ele>33.25</ele><time>2026-04-09T14:17:07Z</time></trkpt><trkpt lat="42.69352492384301" lon="2.9342435149723367"><ele>33.5</ele><time>2026-04-09T14:17:08Z</time></trkpt><trkpt lat="42.693543307722486" lon="2.9344369821021794"><ele>33.75</ele><time>2026-04-09T14:17:09Z</time></trkpt><trkpt lat="42.69356144287923" lon="2.934624958626875"><ele>34.0</ele><time>2026-04-09T14:17:10Z</time></trkpt><trkpt lat="42.69357855093891" lon="2.93480657348366"><ele>34.5</ele><time>2026-04-09T14:17:11Z</time></trkpt><trkpt lat="42.693596051865754" lon="2.9349835320055755"><ele>35.0</ele><time>2026-04-09T14:17:12Z</time></trkpt><trkpt lat="42.69361203455376" lon="2.9351442114804107"><ele>35.5</ele><time>2026-04-09T14:17:13Z</time></trkpt><trkpt lat="42.69362598548247" lon="2.93528797115452"><ele>36.0</ele><time>2026-04-09T14:17:14Z</time></trkpt><trkpt lat="42.693637583518054" lon="2.9354139141167668"><ele>36.0</ele><time>2026-04-09T14:17:15Z</time></trkpt><trkpt lat="42.693645999895686" lon="2.9355156996739606"><ele>36.0</ele><time>2026-04-09T14:17:16Z</time></trkpt><trkpt lat="42.69364557997247" lon="2.935633271646914"><ele>36.0</ele><time>2026-04-09T14:17:18Z</time></trkpt><trkpt lat="42.693612910677" lon="2.9357501787153453"><ele>36.0</ele><time>2026-04-09T14:17:24Z</time></trkpt><trkpt lat="42.69354974421234" lon="2.9358701909446783"><ele>36.0</ele><time>2026-04-09T14:17:26Z</time></trkpt><trkpt lat="42.693522498284835" lon="2.935948423194925"><ele>36.0</ele><time>2026-04-09T14:17:27Z</time></trkpt><trkpt lat="42.69352530886225" lon="2.9361273728230506"><ele>36.0</ele><time>2026-04-09T14:17:29Z</time></trkpt><trkpt lat="42.693549431593574" lon="2.9362115514683595"><ele>36.0</ele><time>2026-04-09T14:17:30Z</time></trkpt><trkpt lat="42.693643315579045" lon="2.936316708600096"><ele>36.0</ele><time>2026-04-09T14:17:32Z</time></trkpt><trkpt lat="42.693705466407415" lon="2.936338306370028"><ele>36.0</ele><time>2026-04-09T14:17:33Z</time></trkpt><trkpt lat="42.693770773277365" lon="2.9363330158907064"><ele>36.0</ele><time>2026-04-09T14:17:34Z</time></trkpt><trkpt lat="42.693831387874255" lon="2.936295108718295"><ele>36.0</ele><time>2026-04-09T14:17:35Z</time></trkpt><trkpt lat="42.69388457256101" lon="2.9362323046194674"><ele>36.2</ele><time>2026-04-09T14:17:36Z</time></trkpt><trkpt lat="42.69393796722069" lon="2.9361600241698604"><ele>36.400000000000006</ele><time>2026-04-09T14:17:37Z</time></trkpt><trkpt lat="42.6940068609628" lon="2.936096469716419"><ele>36.6</ele><time>2026-04-09T14:17:38Z</time></trkpt><trkpt lat="42.69410109702508" lon="2.9360554405951373"><ele>36.800000000000004</ele><time>2026-04-09T14:17:39Z</time></trkpt><trkpt lat="42.69420428990089" lon="2.9360457321790707"><ele>37.0</ele><time>2026-04-09T14:17:40Z</time></trkpt><trkpt lat="42.6943141681366" lon="2.9360434585847566"><ele>37.0</ele><time>2026-04-09T14:17:41Z</time></trkpt><trkpt lat="42.69442180378179" lon="2.9360388053649755"><ele>37.0</ele><time>2026-04-09T14:17:42Z</time></trkpt><trkpt lat="42.69454006695533" lon="2.9360345302591435"><ele>37.0</ele><time>2026-04-09T14:17:43Z</time></trkpt><trkpt lat="42.694667795399056" lon="2.936029895783351"><ele>37.0</ele><time>2026-04-09T14:17:44Z</time></trkpt><trkpt lat="42.694804908686294" lon="2.936020289474768"><ele>37.0</ele><time>2026-04-09T14:17:45Z</time></trkpt><trkpt lat="42.694949748805264" lon="2.936010966602131"><ele>37.0</ele><time>2026-04-09T14:17:46Z</time></trkpt><trkpt lat="42.69509901517079" lon="2.9360057683491187"><ele>37.0</ele><time>2026-04-09T14:17:47Z</time></trkpt><trkpt lat="42.695248428350865" lon="2.9359959202170764"><ele>37.0</ele><time>2026-04-09T14:17:48Z</time></trkpt><trkpt lat="42.695404000265285" lon="2.9359886432491997"><ele>37.333333333333336</ele><time>2026-04-09T14:17:49Z</time></trkpt><trkpt lat="42.69556577423838" lon="2.935980655331437"><ele>37.666666666666664</ele><time>2026-04-09T14:17:50Z</time></trkpt><trkpt lat="42.69572854160684" lon="2.9359690875265314"><ele>38.0</ele><time>2026-04-09T14:17:51Z</time></trkpt><trkpt lat="42.69589077574214" lon="2.9359603303715893"><ele>38.0</ele><time>2026-04-09T14:17:52Z</time></trkpt><trkpt lat="42.69605421864271" lon="2.935953702266181"><ele>38.0</ele><time>2026-04-09T14:17:53Z</time></trkpt><trkpt lat="42.69621742636422" lon="2.935949382163865"><ele>38.0</ele><time>2026-04-09T14:17:54Z</time></trkpt><trkpt lat="42.696379844122305" lon="2.935949484058116"><ele>37.666666666666664</ele><time>2026-04-09T14:17:55Z</time></trkpt><trkpt lat="42.69653879785989" lon="2.9359537970727496"><ele>37.333333333333336</ele><time>2026-04-09T14:17:56Z</time></trkpt><trkpt lat="42.69669496166941" lon="2.9359610313298474"><ele>37.0</ele><time>2026-04-09T14:17:57Z</time></trkpt><trkpt lat="42.696851397150475" lon="2.9359712543890493"><ele>37.0</ele><time>2026-04-09T14:17:58Z</time></trkpt><trkpt lat="42.69700701924853" lon="2.9359845182246596"><ele>37.0</ele><time>2026-04-09T14:17:59Z</time></trkpt><trkpt lat="42.697154791904566" lon="2.9359985033703446"><ele>37.0</ele><time>2026-04-09T14:18:00Z</time></trkpt><trkpt lat="42.697291408350594" lon="2.9360125307358347"><ele>37.0</ele><time>2026-04-09T14:18:01Z</time></trkpt><trkpt lat="42.69741720170307" lon="2.9360260517783874"><ele>37.0</ele><time>2026-04-09T14:18:02Z</time></trkpt><trkpt lat="42.69753356306888" lon="2.9360390591067524"><ele>37.0</ele><time>2026-04-09T14:18:03Z</time></trkpt><trkpt lat="42.69763575626379" lon="2.936050332345298"><ele>37.0</ele><time>2026-04-09T14:18:04Z</time></trkpt><trkpt lat="42.69772806051713" lon="2.936061670835079"><ele>37.0</ele><time>2026-04-09T14:18:05Z</time></trkpt><trkpt lat="42.697810692258926" lon="2.93607909893908"><ele>37.0</ele><time>2026-04-09T14:18:06Z</time></trkpt><trkpt lat="42.69788789296551" lon="2.9361224232215197"><ele>36.6</ele><time>2026-04-09T14:18:07Z</time></trkpt><trkpt lat="42.69795168233809" lon="2.9361944671122724"><ele>36.2</ele><time>2026-04-09T14:18:08Z</time></trkpt><trkpt lat="42.698005504364104" lon="2.9362858206143176"><ele>35.8</ele><time>2026-04-09T14:18:09Z</time></trkpt><trkpt lat="42.69806517236716" lon="2.9363615945986306"><ele>35.4</ele><time>2026-04-09T14:18:10Z</time></trkpt><trkpt lat="42.698154424650355" lon="2.9364245914800953"><ele>35.0</ele><time>2026-04-09T14:18:11Z</time></trkpt><trkpt lat="42.69828620970405" lon="2.9363751223319365"><ele>35.0</ele><time>2026-04-09T14:18:13Z</time></trkpt><trkpt lat="42.698346238883055" lon="2.9363074927865314"><ele>35.0</ele><time>2026-04-09T14:18:14Z</time></trkpt><trkpt lat="42.69839108816813" lon="2.9362189399084624"><ele>35.0</ele><time>2026-04-09T14:18:15Z</time></trkpt><trkpt lat="42.69841462918558" lon="2.936110580267802"><ele>35.0</ele><time>2026-04-09T14:18:16Z</time></trkpt><trkpt lat="42.69843751633182" lon="2.9359914587864315"><ele>35.0</ele><time>2026-04-09T14:18:17Z</time></trkpt><trkpt lat="42.69848401637782" lon="2.9358815130463625"><ele>35.0</ele><time>2026-04-09T14:18:18Z</time></trkpt><trkpt lat="42.6985536489755" lon="2.9357776038783694"><ele>35.0</ele><time>2026-04-09T14:18:19Z</time></trkpt><trkpt lat="42.6986311290153" lon="2.9356732296265293"><ele>35.0</ele><time>2026-04-09T14:18:20Z</time></trkpt><trkpt lat="42.698715841836275" lon="2.9355586003160643"><ele>35.0</ele><time>2026-04-09T14:18:21Z</time></trkpt><trkpt lat="42.69880068820449" lon="2.935439191651639"><ele>35.0</ele><time>2026-04-09T14:18:22Z</time></trkpt><trkpt lat="42.69888291883161" lon="2.935321996939705"><ele>35.0</ele><time>2026-04-09T14:18:23Z</time></trkpt><trkpt lat="42.6989623809657" lon="2.9352102477595543"><ele>35.0</ele><time>2026-04-09T14:18:24Z</time></trkpt><trkpt lat="42.69904067813338" lon="2.9350995316943256"><ele>35.0</ele><time>2026-04-09T14:18:25Z</time></trkpt><trkpt lat="42.69911620760612" lon="2.934991274388983"><ele>35.0</ele><time>2026-04-09T14:18:26Z</time></trkpt><trkpt lat="42.699188915427015" lon="2.9348849633547665"><ele>35.0</ele><time>2026-04-09T14:18:27Z</time></trkpt><trkpt lat="42.699259392119984" lon="2.93478439239393"><ele>35.166666666666664</ele><time>2026-04-09T14:18:28Z</time></trkpt><trkpt lat="42.699328463271044" lon="2.934688018896397"><ele>35.33333333333333</ele><time>2026-04-09T14:18:29Z</time></trkpt><trkpt lat="42.69939030430423" lon="2.9346051631228574"><ele>35.5</ele><time>2026-04-09T14:18:30Z</time></trkpt><trkpt lat="42.69943869438578" lon="2.9345381944877222"><ele>35.666666666666664</ele><time>2026-04-09T14:18:31Z</time></trkpt><trkpt lat="42.69949884627116" lon="2.934472833464709"><ele>35.833333333333336</ele><time>2026-04-09T14:18:33Z</time></trkpt><trkpt lat="42.699559576967765" lon="2.9344223724237386"><ele>36.0</ele><time>2026-04-09T14:18:45Z</time></trkpt><trkpt lat="42.69963139354532" lon="2.93439139022097"><ele>36.166666666666664</ele><time>2026-04-09T14:18:47Z</time></trkpt><trkpt lat="42.6997447323684" lon="2.93441320426201"><ele>36.333333333333336</ele><time>2026-04-09T14:18:49Z</time></trkpt><trkpt lat="42.69982423310051" lon="2.9344290147365375"><ele>36.5</ele><time>2026-04-09T14:18:50Z</time></trkpt><trkpt lat="42.69989643292473" lon="2.9344654510101824"><ele>36.66666666666667</ele><time>2026-04-09T14:18:51Z</time></trkpt><trkpt lat="42.699960613011875" lon="2.9345365789238924"><ele>36.833333333333336</ele><time>2026-04-09T14:18:52Z</time></trkpt><trkpt lat="42.70002020491577" lon="2.9346339792890364"><ele>37.0</ele><time>2026-04-09T14:18:53Z</time></trkpt><trkpt lat="42.70007654929554" lon="2.9347427528766628"><ele>37.0</ele><time>2026-04-09T14:18:54Z</time></trkpt><trkpt lat="42.700137392944" lon="2.934857193259079"><ele>37.0</ele><time>2026-04-09T14:18:55Z</time></trkpt><trkpt lat="42.700202225463485" lon="2.934977472740113"><ele>37.0</ele><time>2026-04-09T14:18:56Z</time></trkpt><trkpt lat="42.7002731762369" lon="2.93510580234351"><ele>37.0</ele><time>2026-04-09T14:18:57Z</time></trkpt><trkpt lat="42.70035104623505" lon="2.9352419773538396"><ele>37.0</ele><time>2026-04-09T14:18:58Z</time></trkpt><trkpt lat="42.700434709730814" lon="2.935387481502268"><ele>37.0</ele><time>2026-04-09T14:18:59Z</time></trkpt><trkpt lat="42.700517023757996" lon="2.9355474883726087"><ele>37.0</ele><time>2026-04-09T14:19:00Z</time></trkpt><trkpt lat="42.70059968110075" lon="2.935723325836022"><ele>37.0</ele><time>2026-04-09T14:19:01Z</time></trkpt><trkpt lat="42.70068055460673" lon="2.9359115514849465"><ele>37.0</ele><time>2026-04-09T14:19:02Z</time></trkpt><trkpt lat="42.70077805425647" lon="2.936086492636494"><ele>37.0</ele><time>2026-04-09T14:19:03Z</time></trkpt><trkpt lat="42.70084151396328" lon="2.9362935290568872"><ele>37.0</ele><time>2026-04-09T14:19:04Z</time></trkpt><trkpt lat="42.700917916444055" lon="2.936499613898259"><ele>37.0</ele><time>2026-04-09T14:19:05Z</time></trkpt><trkpt lat="42.70098270670484" lon="2.9367157022384767"><ele>37.0</ele><time>2026-04-09T14:19:06Z</time></trkpt><trkpt lat="42.70103282007682" lon="2.9369379903881416"><ele>37.0</ele><time>2026-04-09T14:19:07Z</time></trkpt><trkpt lat="42.701075993674195" lon="2.9371597254267514"><ele>37.0</ele><time>2026-04-09T14:19:08Z</time></trkpt><trkpt lat="42.70112230213389" lon="2.937381454937925"><ele>37.0</ele><time>2026-04-09T14:19:09Z</time></trkpt><trkpt lat="42.70117018053833" lon="2.9376021945786475"><ele>37.0</ele><time>2026-04-09T14:19:10Z</time></trkpt><trkpt lat="42.7012198070522" lon="2.9378199725008423"><ele>37.0</ele><time>2026-04-09T14:19:11Z</time></trkpt><trkpt lat="42.70126788904552" lon="2.938031178920405"><ele>37.0</ele><time>2026-04-09T14:19:12Z</time></trkpt><trkpt lat="42.701323108134716" lon="2.9382388386725475"><ele>37.0</ele><time>2026-04-09T14:19:13Z</time></trkpt><trkpt lat="42.70138994351554" lon="2.938443750472633"><ele>37.0</ele><time>2026-04-09T14:19:14Z</time></trkpt><trkpt lat="42.70147088036147" lon="2.9386431694165123"><ele>37.0</ele><time>2026-04-09T14:19:15Z</time></trkpt><trkpt lat="42.701564396495" lon="2.9388328567082986"><ele>37.0</ele><time>2026-04-09T14:19:16Z</time></trkpt><trkpt lat="42.70166849985065" lon="2.9390162869963254"><ele>37.0</ele><time>2026-04-09T14:19:17Z</time></trkpt><trkpt lat="42.70177614709809" lon="2.9392027029152765"><ele>37.0</ele><time>2026-04-09T14:19:18Z</time></trkpt><trkpt lat="42.70188666415388" lon="2.9393904550708765"><ele>37.0</ele><time>2026-04-09T14:19:19Z</time></trkpt><trkpt lat="42.70199652220725" lon="2.9395756745969583"><ele>38.333333333333336</ele><time>2026-04-09T14:19:20Z</time></trkpt><trkpt lat="42.702102221448214" lon="2.9397581280589877"><ele>39.666666666666664</ele><time>2026-04-09T14:19:21Z</time></trkpt><trkpt lat="42.70220686912776" lon="2.939938668356535"><ele>41.0</ele><time>2026-04-09T14:19:22Z</time></trkpt><trkpt lat="42.70230883924177" lon="2.9401158161360077"><ele>41.0</ele><time>2026-04-09T14:19:23Z</time></trkpt><trkpt lat="42.70240937375078" lon="2.940290984246635"><ele>41.0</ele><time>2026-04-09T14:19:24Z</time></trkpt><trkpt lat="42.70251039405419" lon="2.940470273316224"><ele>41.0</ele><time>2026-04-09T14:19:25Z</time></trkpt><trkpt lat="42.70260923527497" lon="2.940656978051875"><ele>41.0</ele><time>2026-04-09T14:19:26Z</time></trkpt><trkpt lat="42.70270479262437" lon="2.9408534350259563"><ele>41.0</ele><time>2026-04-09T14:19:27Z</time></trkpt><trkpt lat="42.70280011236013" lon="2.9410556691423184"><ele>41.0</ele><time>2026-04-09T14:19:28Z</time></trkpt><trkpt lat="42.70288893547665" lon="2.9412598032447295"><ele>41.33333333333333</ele><time>2026-04-09T14:19:29Z</time></trkpt><trkpt lat="42.702971268954755" lon="2.941467409027908"><ele>41.666666666666664</ele><time>2026-04-09T14:19:30Z</time></trkpt><trkpt lat="42.70304954930037" lon="2.9416783075868933"><ele>42.0</ele><time>2026-04-09T14:19:31Z</time></trkpt><trkpt lat="42.70312295975855" lon="2.9418963725038907"><ele>42.0</ele><time>2026-04-09T14:19:32Z</time></trkpt><trkpt lat="42.70319380756323" lon="2.9421216995294057"><ele>42.0</ele><time>2026-04-09T14:19:33Z</time></trkpt><trkpt lat="42.70326728409669" lon="2.942352830444436"><ele>42.0</ele><time>2026-04-09T14:19:34Z</time></trkpt><trkpt lat="42.70334015288443" lon="2.942587270273716"><ele>41.666666666666664</ele><time>2026-04-09T14:19:35Z</time></trkpt><trkpt lat="42.7034139901028" lon="2.942821268426532"><ele>41.33333333333333</ele><time>2026-04-09T14:19:36Z</time></trkpt><trkpt lat="42.70348975103729" lon="2.943058012344104"><ele>41.0</ele><time>2026-04-09T14:19:37Z</time></trkpt><trkpt lat="42.70356283331486" lon="2.9432908018103388"><ele>40.5</ele><time>2026-04-09T14:19:38Z</time></trkpt><trkpt lat="42.703708649202405" lon="2.9437694296133428"><ele>40.0</ele><time>2026-04-09T14:19:40Z</time></trkpt><trkpt lat="42.70378251688305" lon="2.944011907125917"><ele>40.66666666666667</ele><time>2026-04-09T14:19:41Z</time></trkpt><trkpt lat="42.70385600321847" lon="2.9442552120048084"><ele>41.333333333333336</ele><time>2026-04-09T14:19:42Z</time></trkpt><trkpt lat="42.70392982578814" lon="2.944499240479904"><ele>42.0</ele><time>2026-04-09T14:19:43Z</time></trkpt><trkpt lat="42.704003225497985" lon="2.944744953993844"><ele>42.0</ele><time>2026-04-09T14:19:44Z</time></trkpt><trkpt lat="42.704077765345815" lon="2.9449911509555653"><ele>42.0</ele><time>2026-04-09T14:19:45Z</time></trkpt><trkpt lat="42.704151290851584" lon="2.9452346917466934"><ele>42.0</ele><time>2026-04-09T14:19:46Z</time></trkpt><trkpt lat="42.704222449217674" lon="2.945481577392978"><ele>42.0</ele><time>2026-04-09T14:19:47Z</time></trkpt><trkpt lat="42.704292066201106" lon="2.945731786964977"><ele>42.0</ele><time>2026-04-09T14:19:48Z</time></trkpt><trkpt lat="42.70435860548043" lon="2.9459845229398827"><ele>42.0</ele><time>2026-04-09T14:19:49Z</time></trkpt><trkpt lat="42.7044239263566" lon="2.946240977203492"><ele>41.333333333333336</ele><time>2026-04-09T14:19:50Z</time></trkpt><trkpt lat="42.70448833523464" lon="2.946499622988318"><ele>40.66666666666667</ele><time>2026-04-09T14:19:51Z</time></trkpt><trkpt lat="42.70455356621401" lon="2.9467582971034045"><ele>40.0</ele><time>2026-04-09T14:19:52Z</time></trkpt><trkpt lat="42.704619981008726" lon="2.947018679556469"><ele>41.0</ele><time>2026-04-09T14:19:53Z</time></trkpt><trkpt lat="42.704685644545734" lon="2.947283476886269"><ele>42.0</ele><time>2026-04-09T14:19:54Z</time></trkpt><trkpt lat="42.704753684092935" lon="2.9475448031266667"><ele>43.0</ele><time>2026-04-09T14:19:55Z</time></trkpt><trkpt lat="42.70481539506855" lon="2.947806729701096"><ele>43.0</ele><time>2026-04-09T14:19:56Z</time></trkpt><trkpt lat="42.704874587252775" lon="2.9480653564305928"><ele>43.0</ele><time>2026-04-09T14:19:57Z</time></trkpt><trkpt lat="42.704933502963655" lon="2.9483200735093096"><ele>43.0</ele><time>2026-04-09T14:19:58Z</time></trkpt><trkpt lat="42.7049890714386" lon="2.9485733926732585"><ele>42.66666666666667</ele><time>2026-04-09T14:19:59Z</time></trkpt><trkpt lat="42.70504863438146" lon="2.948829477018386"><ele>42.333333333333336</ele><time>2026-04-09T14:20:00Z</time></trkpt><trkpt lat="42.70511141317932" lon="2.949084171093526"><ele>42.0</ele><time>2026-04-09T14:20:01Z</time></trkpt><trkpt lat="42.70517861603123" lon="2.949335727521637"><ele>41.333333333333336</ele><time>2026-04-09T14:20:02Z</time></trkpt><trkpt lat="42.705245162097704" lon="2.949587230386691"><ele>40.66666666666667</ele><time>2026-04-09T14:20:03Z</time></trkpt><trkpt lat="42.70531327877906" lon="2.949834061691511"><ele>40.0</ele><time>2026-04-09T14:20:04Z</time></trkpt><trkpt lat="42.70538043944189" lon="2.950077686021704"><ele>40.0</ele><time>2026-04-09T14:20:05Z</time></trkpt><trkpt lat="42.70544832197108" lon="2.950320921717841"><ele>40.0</ele><time>2026-04-09T14:20:06Z</time></trkpt><trkpt lat="42.705514660597835" lon="2.9505655260357337"><ele>40.0</ele><time>2026-04-09T14:20:07Z</time></trkpt><trkpt lat="42.70557853466683" lon="2.9508072790950437"><ele>40.0</ele><time>2026-04-09T14:20:08Z</time></trkpt><trkpt lat="42.70564252505153" lon="2.951043681410843"><ele>40.0</ele><time>2026-04-09T14:20:09Z</time></trkpt><trkpt lat="42.70570587877766" lon="2.9512782867071636"><ele>40.0</ele><time>2026-04-09T14:20:10Z</time></trkpt><trkpt lat="42.705768174931194" lon="2.9515070975438915"><ele>39.66666666666667</ele><time>2026-04-09T14:20:11Z</time></trkpt><trkpt lat="42.70583139013389" lon="2.9517304076778417"><ele>39.333333333333336</ele><time>2026-04-09T14:20:12Z</time></trkpt><trkpt lat="42.705896104931426" lon="2.951948128402927"><ele>39.0</ele><time>2026-04-09T14:20:13Z</time></trkpt><trkpt lat="42.705963020052984" lon="2.952158149153143"><ele>39.0</ele><time>2026-04-09T14:20:14Z</time></trkpt><trkpt lat="42.70603161362311" lon="2.952356616351109"><ele>39.0</ele><time>2026-04-09T14:20:15Z</time></trkpt><trkpt lat="42.706096366042864" lon="2.9525443816755277"><ele>39.0</ele><time>2026-04-09T14:20:16Z</time></trkpt><trkpt lat="42.70615004592641" lon="2.9527313531674735"><ele>38.5</ele><time>2026-04-09T14:20:17Z</time></trkpt><trkpt lat="42.7061943704884" lon="2.952909567730034"><ele>38.0</ele><time>2026-04-09T14:20:18Z</time></trkpt><trkpt lat="42.70623460544938" lon="2.9530783457255496"><ele>37.5</ele><time>2026-04-09T14:20:19Z</time></trkpt><trkpt lat="42.70626957789501" lon="2.9532299089316933"><ele>37.0</ele><time>2026-04-09T14:20:20Z</time></trkpt><trkpt lat="42.70630146438641" lon="2.953368847258655"><ele>37.0</ele><time>2026-04-09T14:20:21Z</time></trkpt><trkpt lat="42.706329485745705" lon="2.9534947168466466"><ele>37.0</ele><time>2026-04-09T14:20:22Z</time></trkpt><trkpt lat="42.706336299564754" lon="2.953616881013929"><ele>37.0</ele><time>2026-04-09T14:20:23Z</time></trkpt><trkpt lat="42.70631080661612" lon="2.9537582411372507"><ele>37.0</ele><time>2026-04-09T14:20:24Z</time></trkpt><trkpt lat="42.7062788344877" lon="2.953843903431051"><ele>37.0</ele><time>2026-04-09T14:20:25Z</time></trkpt><trkpt lat="42.706278175171626" lon="2.9539565465797613"><ele>37.0</ele><time>2026-04-09T14:20:26Z</time></trkpt><trkpt lat="42.70630878203366" lon="2.954060521052155"><ele>37.0</ele><time>2026-04-09T14:20:27Z</time></trkpt><trkpt lat="42.706364667403236" lon="2.954148604168888"><ele>37.0</ele><time>2026-04-09T14:20:28Z</time></trkpt><trkpt lat="42.70643993131658" lon="2.9542162962843865"><ele>37.0</ele><time>2026-04-09T14:20:29Z</time></trkpt><trkpt lat="42.706528337111" lon="2.9542594049189868"><ele>37.0</ele><time>2026-04-09T14:20:30Z</time></trkpt><trkpt lat="42.70661255091467" lon="2.954312999481279"><ele>37.0</ele><time>2026-04-09T14:20:31Z</time></trkpt><trkpt lat="42.70668327625583" lon="2.954411584378224"><ele>37.0</ele><time>2026-04-09T14:20:32Z</time></trkpt><trkpt lat="42.70672786237287" lon="2.954548543128274"><ele>37.0</ele><time>2026-04-09T14:20:33Z</time></trkpt><trkpt lat="42.70676889648971" lon="2.9546936801735253"><ele>37.0</ele><time>2026-04-09T14:20:34Z</time></trkpt><trkpt lat="42.70681507240389" lon="2.9548464476043383"><ele>37.0</ele><time>2026-04-09T14:20:35Z</time></trkpt><trkpt lat="42.70686346076469" lon="2.955006258387671"><ele>37.0</ele><time>2026-04-09T14:20:36Z</time></trkpt><trkpt lat="42.706913598502226" lon="2.9551760235614237"><ele>37.0</ele><time>2026-04-09T14:20:37Z</time></trkpt><trkpt lat="42.706965189077806" lon="2.9553552449863294"><ele>37.0</ele><time>2026-04-09T14:20:38Z</time></trkpt><trkpt lat="42.707016076789415" lon="2.9555451546690357"><ele>37.0</ele><time>2026-04-09T14:20:39Z</time></trkpt><trkpt lat="42.707066573236844" lon="2.9557455374284793"><ele>36.66666666666667</ele><time>2026-04-09T14:20:40Z</time></trkpt><trkpt lat="42.70711770149184" lon="2.9559558502822467"><ele>36.333333333333336</ele><time>2026-04-09T14:20:41Z</time></trkpt><trkpt lat="42.70717557279611" lon="2.956173194160071"><ele>36.0</ele><time>2026-04-09T14:20:42Z</time></trkpt><trkpt lat="42.70722566366864" lon="2.956404095825379"><ele>36.0</ele><time>2026-04-09T14:20:43Z</time></trkpt><trkpt lat="42.707279504214924" lon="2.9566280078020837"><ele>36.0</ele><time>2026-04-09T14:20:44Z</time></trkpt><trkpt lat="42.7073313414121" lon="2.956861531216283"><ele>36.0</ele><time>2026-04-09T14:20:45Z</time></trkpt><trkpt lat="42.70737711507425" lon="2.957104002336502"><ele>35.666666666666664</ele><time>2026-04-09T14:20:46Z</time></trkpt><trkpt lat="42.707414690675016" lon="2.9573501883692512"><ele>35.33333333333333</ele><time>2026-04-09T14:20:47Z</time></trkpt><trkpt lat="42.707448449434686" lon="2.957597123596825"><ele>35.0</ele><time>2026-04-09T14:20:48Z</time></trkpt><trkpt lat="42.70748363977004" lon="2.957844533254871"><ele>34.0</ele><time>2026-04-09T14:20:49Z</time></trkpt><trkpt lat="42.70752287070344" lon="2.9580927753568096"><ele>33.0</ele><time>2026-04-09T14:20:50Z</time></trkpt><trkpt lat="42.70756629603204" lon="2.958340858698722"><ele>32.0</ele><time>2026-04-09T14:20:51Z</time></trkpt><trkpt lat="42.70761716111117" lon="2.958587849580317"><ele>31.333333333333332</ele><time>2026-04-09T14:20:52Z</time></trkpt><trkpt lat="42.70767892232303" lon="2.9588336865619214"><ele>30.666666666666664</ele><time>2026-04-09T14:20:53Z</time></trkpt><trkpt lat="42.70774844299273" lon="2.9590761322484327"><ele>30.0</ele><time>2026-04-09T14:20:54Z</time></trkpt><trkpt lat="42.70783034133702" lon="2.959313109167766"><ele>28.666666666666664</ele><time>2026-04-09T14:20:55Z</time></trkpt><trkpt lat="42.70792072679255" lon="2.9595505129367603"><ele>27.333333333333332</ele><time>2026-04-09T14:20:56Z</time></trkpt><trkpt lat="42.70802305287722" lon="2.9597787740891843"><ele>26.0</ele><time>2026-04-09T14:20:57Z</time></trkpt><trkpt lat="42.70813660846917" lon="2.9599993091501924"><ele>25.666666666666664</ele><time>2026-04-09T14:20:58Z</time></trkpt><trkpt lat="42.70825916667934" lon="2.9602112713023643"><ele>25.333333333333336</ele><time>2026-04-09T14:20:59Z</time></trkpt><trkpt lat="42.708384260053336" lon="2.960418016021394"><ele>25.0</ele><time>2026-04-09T14:21:00Z</time></trkpt><trkpt lat="42.70850920099056" lon="2.9606223702484495"><ele>25.666666666666668</ele><time>2026-04-09T14:21:01Z</time></trkpt><trkpt lat="42.708628094310214" lon="2.9608312012838587"><ele>26.333333333333336</ele><time>2026-04-09T14:21:02Z</time></trkpt><trkpt lat="42.70874298251234" lon="2.9610431130276105"><ele>27.0</ele><time>2026-04-09T14:21:03Z</time></trkpt><trkpt lat="42.70885003026312" lon="2.9612617524973195"><ele>27.333333333333336</ele><time>2026-04-09T14:21:04Z</time></trkpt><trkpt lat="42.70895107049528" lon="2.9614896793052643"><ele>27.666666666666668</ele><time>2026-04-09T14:21:05Z</time></trkpt><trkpt lat="42.70903968724155" lon="2.9617268146657425"><ele>28.0</ele><time>2026-04-09T14:21:06Z</time></trkpt><trkpt lat="42.709117231689476" lon="2.9619727742465134"><ele>27.333333333333336</ele><time>2026-04-09T14:21:07Z</time></trkpt><trkpt lat="42.7091845786513" lon="2.9622229575649848"><ele>26.666666666666664</ele><time>2026-04-09T14:21:08Z</time></trkpt><trkpt lat="42.709241022267825" lon="2.962480757354476"><ele>26.0</ele><time>2026-04-09T14:21:09Z</time></trkpt><trkpt lat="42.70928636844013" lon="2.9627430934416887"><ele>25.666666666666664</ele><time>2026-04-09T14:21:10Z</time></trkpt><trkpt lat="42.7093182268643" lon="2.9630087322841003"><ele>25.333333333333336</ele><time>2026-04-09T14:21:11Z</time></trkpt><trkpt lat="42.70934007556552" lon="2.963277792620392"><ele>25.0</ele><time>2026-04-09T14:21:12Z</time></trkpt><trkpt lat="42.70935133716833" lon="2.96354451672407"><ele>25.333333333333336</ele><time>2026-04-09T14:21:13Z</time></trkpt><trkpt lat="42.709354533600084" lon="2.963808746243962"><ele>25.666666666666664</ele><time>2026-04-09T14:21:14Z</time></trkpt><trkpt lat="42.70935213476024" lon="2.964072211325755"><ele>26.0</ele><time>2026-04-09T14:21:15Z</time></trkpt><trkpt lat="42.709347425065516" lon="2.9643290650658463"><ele>26.0</ele><time>2026-04-09T14:21:16Z</time></trkpt><trkpt lat="42.70933925148236" lon="2.964579913757238"><ele>26.0</ele><time>2026-04-09T14:21:17Z</time></trkpt><trkpt lat="42.70933179523423" lon="2.9648242949902524"><ele>26.0</ele><time>2026-04-09T14:21:18Z</time></trkpt><trkpt lat="42.70932623877486" lon="2.9650638001349297"><ele>26.333333333333332</ele><time>2026-04-09T14:21:19Z</time></trkpt><trkpt lat="42.70932009227422" lon="2.9653040754680022"><ele>26.666666666666664</ele><time>2026-04-09T14:21:20Z</time></trkpt><trkpt lat="42.709320287782305" lon="2.9655447150234293"><ele>27.0</ele><time>2026-04-09T14:21:21Z</time></trkpt><trkpt lat="42.709325999762264" lon="2.9657810742306085"><ele>26.666666666666664</ele><time>2026-04-09T14:21:22Z</time></trkpt><trkpt lat="42.7093362854491" lon="2.9660171656289926"><ele>26.333333333333332</ele><time>2026-04-09T14:21:23Z</time></trkpt><trkpt lat="42.70935328432554" lon="2.96625885542364"><ele>26.0</ele><time>2026-04-09T14:21:24Z</time></trkpt><trkpt lat="42.70937230088617" lon="2.9665046190803572"><ele>25.666666666666664</ele><time>2026-04-09T14:21:25Z</time></trkpt><trkpt lat="42.709391227809895" lon="2.9667509704823622"><ele>25.333333333333336</ele><time>2026-04-09T14:21:26Z</time></trkpt><trkpt lat="42.70940475961994" lon="2.966999216443159"><ele>25.0</ele><time>2026-04-09T14:21:27Z</time></trkpt><trkpt lat="42.70941327989877" lon="2.9672469450112944"><ele>25.333333333333336</ele><time>2026-04-09T14:21:28Z</time></trkpt><trkpt lat="42.70941313769786" lon="2.967499087096075"><ele>25.666666666666664</ele><time>2026-04-09T14:21:29Z</time></trkpt><trkpt lat="42.709406061709494" lon="2.967749558944514"><ele>26.0</ele><time>2026-04-09T14:21:30Z</time></trkpt><trkpt lat="42.709397848069145" lon="2.968002549924137"><ele>26.0</ele><time>2026-04-09T14:21:31Z</time></trkpt><trkpt lat="42.70938840323109" lon="2.9682553009664523"><ele>26.0</ele><time>2026-04-09T14:21:32Z</time></trkpt><trkpt lat="42.70938012839582" lon="2.968507330764633"><ele>26.0</ele><time>2026-04-09T14:21:33Z</time></trkpt><trkpt lat="42.70937656206204" lon="2.968756248818951"><ele>26.0</ele><time>2026-04-09T14:21:34Z</time></trkpt><trkpt lat="42.70938159908361" lon="2.9690045058458705"><ele>26.0</ele><time>2026-04-09T14:21:35Z</time></trkpt><trkpt lat="42.70939017890748" lon="2.9692499172234497"><ele>26.0</ele><time>2026-04-09T14:21:36Z</time></trkpt><trkpt lat="42.7093999942743" lon="2.9694897414136343"><ele>27.666666666666664</ele><time>2026-04-09T14:21:37Z</time></trkpt><trkpt lat="42.709410242313524" lon="2.9697225291901286"><ele>29.333333333333336</ele><time>2026-04-09T14:21:38Z</time></trkpt><trkpt lat="42.70942120014517" lon="2.96993760880833"><ele>31.0</ele><time>2026-04-09T14:21:39Z</time></trkpt><trkpt lat="42.70943063087367" lon="2.970145111920846"><ele>31.0</ele><time>2026-04-09T14:21:40Z</time></trkpt><trkpt lat="42.70943916432446" lon="2.9703376307877187"><ele>31.0</ele><time>2026-04-09T14:21:41Z</time></trkpt><trkpt lat="42.709446603088544" lon="2.970520474126423"><ele>31.0</ele><time>2026-04-09T14:21:42Z</time></trkpt><trkpt lat="42.7094490820258" lon="2.9706942461108268"><ele>31.0</ele><time>2026-04-09T14:21:43Z</time></trkpt><trkpt lat="42.70944980393718" lon="2.9708549028918236"><ele>30.8</ele><time>2026-04-09T14:21:44Z</time></trkpt><trkpt lat="42.709448188663536" lon="2.9710022879721567"><ele>30.6</ele><time>2026-04-09T14:21:45Z</time></trkpt><trkpt lat="42.70944659545325" lon="2.9711361059801487"><ele>30.4</ele><time>2026-04-09T14:21:46Z</time></trkpt><trkpt lat="42.709441987680904" lon="2.971260543395741"><ele>30.2</ele><time>2026-04-09T14:21:47Z</time></trkpt><trkpt lat="42.709434376276484" lon="2.971374627608596"><ele>30.0</ele><time>2026-04-09T14:21:48Z</time></trkpt><trkpt lat="42.70941273021283" lon="2.971481845608298"><ele>29.666666666666668</ele><time>2026-04-09T14:21:49Z</time></trkpt><trkpt lat="42.70937744921714" lon="2.9715815956484266"><ele>29.333333333333336</ele><time>2026-04-09T14:21:50Z</time></trkpt><trkpt lat="42.709363173084654" lon="2.9716863966928773"><ele>29.0</ele><time>2026-04-09T14:21:51Z</time></trkpt><trkpt lat="42.70938574933828" lon="2.9718080218745584"><ele>28.666666666666668</ele><time>2026-04-09T14:21:52Z</time></trkpt><trkpt lat="42.709430320747025" lon="2.971888308920005"><ele>28.333333333333336</ele><time>2026-04-09T14:21:53Z</time></trkpt><trkpt lat="42.70947634521998" lon="2.9719893529858603"><ele>28.0</ele><time>2026-04-09T14:21:54Z</time></trkpt><trkpt lat="42.70948727823802" lon="2.972120175830958"><ele>28.0</ele><time>2026-04-09T14:21:55Z</time></trkpt><trkpt lat="42.70947169410444" lon="2.9722649286866036"><ele>28.0</ele><time>2026-04-09T14:21:56Z</time></trkpt><trkpt lat="42.70945122512533" lon="2.9724147094125613"><ele>28.0</ele><time>2026-04-09T14:21:57Z</time></trkpt><trkpt lat="42.70942692315972" lon="2.972577019449878"><ele>28.0</ele><time>2026-04-09T14:21:58Z</time></trkpt><trkpt lat="42.70939974208214" lon="2.972754001393211"><ele>28.0</ele><time>2026-04-09T14:21:59Z</time></trkpt><trkpt lat="42.709370733433886" lon="2.9729431877956416"><ele>28.0</ele><time>2026-04-09T14:22:00Z</time></trkpt><trkpt lat="42.70933550422783" lon="2.9731452749213703"><ele>28.0</ele><time>2026-04-09T14:22:01Z</time></trkpt><trkpt lat="42.709296782549664" lon="2.973361396258849"><ele>28.0</ele><time>2026-04-09T14:22:02Z</time></trkpt><trkpt lat="42.70926137886622" lon="2.973587153903131"><ele>28.0</ele><time>2026-04-09T14:22:03Z</time></trkpt><trkpt lat="42.709225170552706" lon="2.9738043496921294"><ele>28.0</ele><time>2026-04-09T14:22:04Z</time></trkpt><trkpt lat="42.70918724259373" lon="2.9740295997396484"><ele>27.666666666666668</ele><time>2026-04-09T14:22:05Z</time></trkpt><trkpt lat="42.709146968423454" lon="2.974261044862074"><ele>27.333333333333336</ele><time>2026-04-09T14:22:06Z</time></trkpt><trkpt lat="42.70910288975797" lon="2.9744936374363524"><ele>27.0</ele><time>2026-04-09T14:22:07Z</time></trkpt><trkpt lat="42.70905517019947" lon="2.9747314770097466"><ele>27.0</ele><time>2026-04-09T14:22:08Z</time></trkpt><trkpt lat="42.70900333602868" lon="2.9749772105610637"><ele>27.0</ele><time>2026-04-09T14:22:09Z</time></trkpt><trkpt lat="42.708947970554114" lon="2.9752289967243244"><ele>27.0</ele><time>2026-04-09T14:22:10Z</time></trkpt><trkpt lat="42.70889232641187" lon="2.975480720520225"><ele>27.666666666666664</ele><time>2026-04-09T14:22:11Z</time></trkpt><trkpt lat="42.708830489159965" lon="2.9757384531694377"><ele>28.333333333333332</ele><time>2026-04-09T14:22:12Z</time></trkpt><trkpt lat="42.70876201261507" lon="2.976005006052042"><ele>29.0</ele><time>2026-04-09T14:22:13Z</time></trkpt><trkpt lat="42.708689421340004" lon="2.976274460062699"><ele>29.0</ele><time>2026-04-09T14:22:14Z</time></trkpt><trkpt lat="42.70861071980325" lon="2.9765422510929365"><ele>29.0</ele><time>2026-04-09T14:22:15Z</time></trkpt><trkpt lat="42.708530497877064" lon="2.9768088982441143"><ele>29.0</ele><time>2026-04-09T14:22:16Z</time></trkpt><trkpt lat="42.70845028548385" lon="2.9770722525351085"><ele>29.0</ele><time>2026-04-09T14:22:17Z</time></trkpt><trkpt lat="42.708367865372544" lon="2.9773332434364272"><ele>29.0</ele><time>2026-04-09T14:22:18Z</time></trkpt><trkpt lat="42.708280127726944" lon="2.97759445128567"><ele>29.0</ele><time>2026-04-09T14:22:19Z</time></trkpt><trkpt lat="42.7081905655319" lon="2.977854601903285"><ele>29.333333333333332</ele><time>2026-04-09T14:22:20Z</time></trkpt><trkpt lat="42.708104808591855" lon="2.978117396260152"><ele>29.666666666666664</ele><time>2026-04-09T14:22:21Z</time></trkpt><trkpt lat="42.70802837577257" lon="2.97838641490503"><ele>30.0</ele><time>2026-04-09T14:22:22Z</time></trkpt><trkpt lat="42.707956942081466" lon="2.9786584697994236"><ele>30.0</ele><time>2026-04-09T14:22:23Z</time></trkpt><trkpt lat="42.7078844431341" lon="2.978933444995955"><ele>30.0</ele><time>2026-04-09T14:22:24Z</time></trkpt><trkpt lat="42.70780956320269" lon="2.979208875776514"><ele>30.0</ele><time>2026-04-09T14:22:25Z</time></trkpt><trkpt lat="42.707735399620795" lon="2.9794890442589446"><ele>29.666666666666664</ele><time>2026-04-09T14:22:26Z</time></trkpt><trkpt lat="42.707666357654794" lon="2.9797743780618933"><ele>29.333333333333332</ele><time>2026-04-09T14:22:27Z</time></trkpt><trkpt lat="42.707599208353045" lon="2.980059823557822"><ele>29.0</ele><time>2026-04-09T14:22:28Z</time></trkpt><trkpt lat="42.70753411742338" lon="2.9803460802332125"><ele>29.0</ele><time>2026-04-09T14:22:29Z</time></trkpt><trkpt lat="42.70747409601474" lon="2.980631817029368"><ele>29.0</ele><time>2026-04-09T14:22:30Z</time></trkpt><trkpt lat="42.70741822269001" lon="2.9809173231653796"><ele>29.0</ele><time>2026-04-09T14:22:31Z</time></trkpt><trkpt lat="42.707366156688735" lon="2.9812085488201965"><ele>28.333333333333332</ele><time>2026-04-09T14:22:32Z</time></trkpt><trkpt lat="42.707316733722706" lon="2.9815028750910804"><ele>27.666666666666664</ele><time>2026-04-09T14:22:33Z</time></trkpt><trkpt lat="42.70727109524942" lon="2.9817963778681613"><ele>27.0</ele><time>2026-04-09T14:22:34Z</time></trkpt><trkpt lat="42.70722731964258" lon="2.982087727856645"><ele>27.0</ele><time>2026-04-09T14:22:35Z</time></trkpt><trkpt lat="42.70718579192137" lon="2.9823789692635643"><ele>27.0</ele><time>2026-04-09T14:22:36Z</time></trkpt><trkpt lat="42.70714798347396" lon="2.9826700163011632"><ele>27.0</ele><time>2026-04-09T14:22:37Z</time></trkpt><trkpt lat="42.707113139635595" lon="2.9829628879355408"><ele>26.666666666666664</ele><time>2026-04-09T14:22:38Z</time></trkpt><trkpt lat="42.707081359072106" lon="2.98325538547721"><ele>26.333333333333332</ele><time>2026-04-09T14:22:39Z</time></trkpt><trkpt lat="42.70704869126319" lon="2.983547272023811"><ele>26.0</ele><time>2026-04-09T14:22:40Z</time></trkpt><trkpt lat="42.70701748316447" lon="2.9838381326705554"><ele>26.0</ele><time>2026-04-09T14:22:41Z</time></trkpt><trkpt lat="42.70698553051054" lon="2.9841270023326465"><ele>26.0</ele><time>2026-04-09T14:22:42Z</time></trkpt><trkpt lat="42.706953835108855" lon="2.984416075653771"><ele>26.0</ele><time>2026-04-09T14:22:43Z</time></trkpt><trkpt lat="42.7069229208572" lon="2.984700256588012"><ele>26.0</ele><time>2026-04-09T14:22:44Z</time></trkpt><trkpt lat="42.70689416843752" lon="2.9849860677959064"><ele>26.0</ele><time>2026-04-09T14:22:45Z</time></trkpt><trkpt lat="42.70686547112925" lon="2.985266316470593"><ele>26.0</ele><time>2026-04-09T14:22:46Z</time></trkpt><trkpt lat="42.70683688952198" lon="2.985544441855168"><ele>26.0</ele><time>2026-04-09T14:22:47Z</time></trkpt><trkpt lat="42.70680487987321" lon="2.9858206593559022"><ele>26.0</ele><time>2026-04-09T14:22:48Z</time></trkpt><trkpt lat="42.70677420833267" lon="2.9860936973959173"><ele>26.0</ele><time>2026-04-09T14:22:49Z</time></trkpt><trkpt lat="42.706744006977566" lon="2.9863650726584345"><ele>25.333333333333332</ele><time>2026-04-09T14:22:50Z</time></trkpt><trkpt lat="42.70671356680968" lon="2.9866367364431503"><ele>24.666666666666664</ele><time>2026-04-09T14:22:51Z</time></trkpt><trkpt lat="42.70668237560503" lon="2.9869083805047785"><ele>24.0</ele><time>2026-04-09T14:22:52Z</time></trkpt><trkpt lat="42.70665181717382" lon="2.987182872712877"><ele>24.0</ele><time>2026-04-09T14:22:53Z</time></trkpt><trkpt lat="42.70662108633125" lon="2.987458139109668"><ele>24.0</ele><time>2026-04-09T14:22:54Z</time></trkpt><trkpt lat="42.70658916881261" lon="2.987734960008408"><ele>24.0</ele><time>2026-04-09T14:22:55Z</time></trkpt><trkpt lat="42.70655528437308" lon="2.988011187203221"><ele>24.666666666666664</ele><time>2026-04-09T14:22:56Z</time></trkpt><trkpt lat="42.70651848565026" lon="2.9882919086535686"><ele>25.333333333333332</ele><time>2026-04-09T14:22:57Z</time></trkpt><trkpt lat="42.70648218099008" lon="2.9885724705970746"><ele>26.0</ele><time>2026-04-09T14:22:58Z</time></trkpt><trkpt lat="42.706444165080434" lon="2.988855264245832"><ele>26.0</ele><time>2026-04-09T14:22:59Z</time></trkpt><trkpt lat="42.7064051006435" lon="2.9891387930943827"><ele>26.0</ele><time>2026-04-09T14:23:00Z</time></trkpt><trkpt lat="42.70636392453693" lon="2.98942519911231"><ele>26.0</ele><time>2026-04-09T14:23:01Z</time></trkpt><trkpt lat="42.70632333498131" lon="2.989711727945101"><ele>26.0</ele><time>2026-04-09T14:23:02Z</time></trkpt><trkpt lat="42.706281618574195" lon="2.9900000117784327"><ele>26.0</ele><time>2026-04-09T14:23:03Z</time></trkpt><trkpt lat="42.706237889359166" lon="2.9902898094994375"><ele>26.0</ele><time>2026-04-09T14:23:04Z</time></trkpt><trkpt lat="42.70619229952266" lon="2.990580392271706"><ele>26.0</ele><time>2026-04-09T14:23:05Z</time></trkpt><trkpt lat="42.706144031436374" lon="2.9908682741290282"><ele>26.0</ele><time>2026-04-09T14:23:06Z</time></trkpt><trkpt lat="42.706094468787846" lon="2.991155079132927"><ele>26.0</ele><time>2026-04-09T14:23:07Z</time></trkpt><trkpt lat="42.70604099655059" lon="2.991441415370329"><ele>25.333333333333332</ele><time>2026-04-09T14:23:08Z</time></trkpt><trkpt lat="42.70598446267396" lon="2.9917268618644517"><ele>24.666666666666664</ele><time>2026-04-09T14:23:09Z</time></trkpt><trkpt lat="42.70592261946754" lon="2.992009213157379"><ele>24.0</ele><time>2026-04-09T14:23:10Z</time></trkpt><trkpt lat="42.70585795223939" lon="2.992289563078438"><ele>24.0</ele><time>2026-04-09T14:23:11Z</time></trkpt><trkpt lat="42.70579063858973" lon="2.9925663230060873"><ele>24.0</ele><time>2026-04-09T14:23:12Z</time></trkpt><trkpt lat="42.70572152306917" lon="2.992844151403803"><ele>24.0</ele><time>2026-04-09T14:23:13Z</time></trkpt><trkpt lat="42.70564865917845" lon="2.9931199107410853"><ele>24.333333333333336</ele><time>2026-04-09T14:23:14Z</time></trkpt><trkpt lat="42.7055761538934" lon="2.9933897116404737"><ele>24.666666666666668</ele><time>2026-04-09T14:23:15Z</time></trkpt><trkpt lat="42.705499471044" lon="2.9936527467913066"><ele>25.0</ele><time>2026-04-09T14:23:16Z</time></trkpt><trkpt lat="42.705421851670565" lon="2.993911109592687"><ele>25.0</ele><time>2026-04-09T14:23:17Z</time></trkpt><trkpt lat="42.705338525339805" lon="2.9941691052892008"><ele>25.0</ele><time>2026-04-09T14:23:18Z</time></trkpt><trkpt lat="42.705254636368636" lon="2.99442447136345"><ele>25.0</ele><time>2026-04-09T14:23:19Z</time></trkpt><trkpt lat="42.7051662592642" lon="2.994680071600012"><ele>24.333333333333336</ele><time>2026-04-09T14:23:20Z</time></trkpt><trkpt lat="42.70507623548881" lon="2.9949321570393463"><ele>23.666666666666668</ele><time>2026-04-09T14:23:21Z</time></trkpt><trkpt lat="42.70498498330955" lon="2.995185197446099"><ele>23.0</ele><time>2026-04-09T14:23:22Z</time></trkpt><trkpt lat="42.70489069661831" lon="2.9954340531878025"><ele>23.0</ele><time>2026-04-09T14:23:23Z</time></trkpt><trkpt lat="42.704794243780476" lon="2.995683763084429"><ele>23.0</ele><time>2026-04-09T14:23:24Z</time></trkpt><trkpt lat="42.7046971775371" lon="2.9959328484996424"><ele>23.0</ele><time>2026-04-09T14:23:25Z</time></trkpt><trkpt lat="42.70459985898336" lon="2.996181117908629"><ele>23.333333333333336</ele><time>2026-04-09T14:23:26Z</time></trkpt><trkpt lat="42.70450115870467" lon="2.9964269510808865"><ele>23.666666666666668</ele><time>2026-04-09T14:23:27Z</time></trkpt><trkpt lat="42.70440197242183" lon="2.996676249475087"><ele>24.0</ele><time>2026-04-09T14:23:28Z</time></trkpt><trkpt lat="42.70430229374244" lon="2.996924637715834"><ele>23.666666666666668</ele><time>2026-04-09T14:23:29Z</time></trkpt><trkpt lat="42.70420229649676" lon="2.99717430627018"><ele>23.333333333333336</ele><time>2026-04-09T14:23:30Z</time></trkpt><trkpt lat="42.704103054076" lon="2.997424692708922"><ele>23.0</ele><time>2026-04-09T14:23:31Z</time></trkpt><trkpt lat="42.70400847080984" lon="2.9976719846886053"><ele>23.0</ele><time>2026-04-09T14:23:32Z</time></trkpt><trkpt lat="42.703913980577084" lon="2.9979212493924234"><ele>23.0</ele><time>2026-04-09T14:23:33Z</time></trkpt><trkpt lat="42.70381927343146" lon="2.9981694777855292"><ele>23.0</ele><time>2026-04-09T14:23:34Z</time></trkpt><trkpt lat="42.7037247025345" lon="2.9984148750860156"><ele>22.666666666666668</ele><time>2026-04-09T14:23:35Z</time></trkpt><trkpt lat="42.70363159185794" lon="2.9986591763633554"><ele>22.333333333333332</ele><time>2026-04-09T14:23:36Z</time></trkpt><trkpt lat="42.70353935292811" lon="2.998904551871464"><ele>22.0</ele><time>2026-04-09T14:23:37Z</time></trkpt><trkpt lat="42.70345328550934" lon="2.999151095401987"><ele>21.666666666666664</ele><time>2026-04-09T14:23:38Z</time></trkpt><trkpt lat="42.703366312188734" lon="2.9993979932408754"><ele>21.333333333333332</ele><time>2026-04-09T14:23:39Z</time></trkpt><trkpt lat="42.70328203118609" lon="2.999645798917976"><ele>21.0</ele><time>2026-04-09T14:23:40Z</time></trkpt><trkpt lat="42.70319954145529" lon="2.9998935096289485"><ele>21.0</ele><time>2026-04-09T14:23:41Z</time></trkpt><trkpt lat="42.70312134906191" lon="3.000141063750693"><ele>21.0</ele><time>2026-04-09T14:23:42Z</time></trkpt><trkpt lat="42.70304632126831" lon="3.0003872672556198"><ele>21.0</ele><time>2026-04-09T14:23:43Z</time></trkpt><trkpt lat="42.70297366228827" lon="3.0006373265437154"><ele>20.666666666666668</ele><time>2026-04-09T14:23:44Z</time></trkpt><trkpt lat="42.702903658027246" lon="3.000887549660773"><ele>20.333333333333336</ele><time>2026-04-09T14:23:45Z</time></trkpt><trkpt lat="42.702837402826006" lon="3.001137152076818"><ele>20.0</ele><time>2026-04-09T14:23:46Z</time></trkpt><trkpt lat="42.70277319406706" lon="3.0013855236243097"><ele>19.0</ele><time>2026-04-09T14:23:47Z</time></trkpt><trkpt lat="42.702713011399865" lon="3.0016324672197086"><ele>18.0</ele><time>2026-04-09T14:23:48Z</time></trkpt><trkpt lat="42.702656463389374" lon="3.001877363148655"><ele>17.0</ele><time>2026-04-09T14:23:49Z</time></trkpt><trkpt lat="42.70260524158659" lon="3.002119606317596"><ele>17.0</ele><time>2026-04-09T14:23:50Z</time></trkpt><trkpt lat="42.702554505643064" lon="3.0023650913639575"><ele>17.0</ele><time>2026-04-09T14:23:51Z</time></trkpt><trkpt lat="42.70250492976872" lon="3.002612509303428"><ele>17.0</ele><time>2026-04-09T14:23:52Z</time></trkpt><trkpt lat="42.702458993912" lon="3.002858297227082"><ele>17.0</ele><time>2026-04-09T14:23:53Z</time></trkpt><trkpt lat="42.7024148439585" lon="3.003107266719294"><ele>17.0</ele><time>2026-04-09T14:23:54Z</time></trkpt><trkpt lat="42.702374861187955" lon="3.003357255487154"><ele>17.0</ele><time>2026-04-09T14:23:55Z</time></trkpt><trkpt lat="42.702334669600184" lon="3.0036063010940284"><ele>17.666666666666668</ele><time>2026-04-09T14:23:56Z</time></trkpt><trkpt lat="42.70229697779205" lon="3.0038521246873406"><ele>18.333333333333332</ele><time>2026-04-09T14:23:57Z</time></trkpt><trkpt lat="42.70226326770105" lon="3.0040959277315875"><ele>19.0</ele><time>2026-04-09T14:23:58Z</time></trkpt><trkpt lat="42.70223352106278" lon="3.0043394877115004"><ele>19.0</ele><time>2026-04-09T14:23:59Z</time></trkpt><trkpt lat="42.70220690884323" lon="3.0045813197268227"><ele>19.0</ele><time>2026-04-09T14:24:00Z</time></trkpt><trkpt lat="42.7021824991155" lon="3.004821384006364"><ele>19.0</ele><time>2026-04-09T14:24:01Z</time></trkpt><trkpt lat="42.702159080070665" lon="3.0050615182705736"><ele>19.0</ele><time>2026-04-09T14:24:02Z</time></trkpt><trkpt lat="42.70213836810934" lon="3.005299196670164"><ele>19.0</ele><time>2026-04-09T14:24:03Z</time></trkpt><trkpt lat="42.70211987567707" lon="3.005536220373209"><ele>19.0</ele><time>2026-04-09T14:24:04Z</time></trkpt><trkpt lat="42.70210241275312" lon="3.0057751264333232"><ele>19.0</ele><time>2026-04-09T14:24:05Z</time></trkpt><trkpt lat="42.702090059439705" lon="3.0060179754055554"><ele>19.0</ele><time>2026-04-09T14:24:06Z</time></trkpt><trkpt lat="42.70207930264623" lon="3.006262847191834"><ele>19.0</ele><time>2026-04-09T14:24:07Z</time></trkpt><trkpt lat="42.702068757230656" lon="3.006511039907425"><ele>19.0</ele><time>2026-04-09T14:24:08Z</time></trkpt><trkpt lat="42.70206177421663" lon="3.0067590695896875"><ele>19.0</ele><time>2026-04-09T14:24:09Z</time></trkpt><trkpt lat="42.702057438280846" lon="3.0070039870598215"><ele>19.0</ele><time>2026-04-09T14:24:10Z</time></trkpt><trkpt lat="42.70205607927288" lon="3.007251500119742"><ele>18.666666666666664</ele><time>2026-04-09T14:24:11Z</time></trkpt><trkpt lat="42.70205657644155" lon="3.0074980138211242"><ele>18.333333333333332</ele><time>2026-04-09T14:24:12Z</time></trkpt><trkpt lat="42.70206133678988" lon="3.0077429434814476"><ele>18.0</ele><time>2026-04-09T14:24:13Z</time></trkpt><trkpt lat="42.70206755755713" lon="3.0079833097086843"><ele>18.0</ele><time>2026-04-09T14:24:14Z</time></trkpt><trkpt lat="42.70207497421036" lon="3.008221918455102"><ele>18.0</ele><time>2026-04-09T14:24:15Z</time></trkpt><trkpt lat="42.70208629781482" lon="3.008458538228872"><ele>18.0</ele><time>2026-04-09T14:24:16Z</time></trkpt><trkpt lat="42.70209658310328" lon="3.008696541226157"><ele>18.0</ele><time>2026-04-09T14:24:17Z</time></trkpt><trkpt lat="42.70210974768456" lon="3.008930558410207"><ele>18.0</ele><time>2026-04-09T14:24:18Z</time></trkpt><trkpt lat="42.70212497191959" lon="3.009160612561786"><ele>18.0</ele><time>2026-04-09T14:24:19Z</time></trkpt><trkpt lat="42.70214032325491" lon="3.0093888334061383"><ele>17.666666666666668</ele><time>2026-04-09T14:24:20Z</time></trkpt><trkpt lat="42.7021609928682" lon="3.00961539855671"><ele>17.333333333333336</ele><time>2026-04-09T14:24:21Z</time></trkpt><trkpt lat="42.70218158674946" lon="3.0098361946283374"><ele>17.0</ele><time>2026-04-09T14:24:22Z</time></trkpt><trkpt lat="42.70220144572895" lon="3.0100531618718858"><ele>16.333333333333336</ele><time>2026-04-09T14:24:23Z</time></trkpt><trkpt lat="42.702224365442945" lon="3.0102691134374164"><ele>15.666666666666668</ele><time>2026-04-09T14:24:24Z</time></trkpt><trkpt lat="42.702247137735796" lon="3.010490014777312"><ele>15.0</ele><time>2026-04-09T14:24:25Z</time></trkpt><trkpt lat="42.702269746935144" lon="3.0107069012721674"><ele>15.333333333333332</ele><time>2026-04-09T14:24:26Z</time></trkpt><trkpt lat="42.70229206896213" lon="3.0109188147319603"><ele>15.666666666666666</ele><time>2026-04-09T14:24:27Z</time></trkpt><trkpt lat="42.70231420797324" lon="3.0111307297515606"><ele>16.0</ele><time>2026-04-09T14:24:28Z</time></trkpt><trkpt lat="42.70233861081838" lon="3.0113421097106903"><ele>16.0</ele><time>2026-04-09T14:24:29Z</time></trkpt><trkpt lat="42.702364950038096" lon="3.0115544709835773"><ele>16.0</ele><time>2026-04-09T14:24:30Z</time></trkpt><trkpt lat="42.702385807108236" lon="3.0117679824333496"><ele>16.0</ele><time>2026-04-09T14:24:31Z</time></trkpt><trkpt lat="42.70240781212918" lon="3.0119765946309838"><ele>15.75</ele><time>2026-04-09T14:24:32Z</time></trkpt><trkpt lat="42.702427691145" lon="3.012182062340038"><ele>15.5</ele><time>2026-04-09T14:24:33Z</time></trkpt><trkpt lat="42.70244551624202" lon="3.0123833274203013"><ele>15.25</ele><time>2026-04-09T14:24:34Z</time></trkpt><trkpt lat="42.70246119868244" lon="3.0125820067260274"><ele>15.0</ele><time>2026-04-09T14:24:35Z</time></trkpt><trkpt lat="42.70247641786175" lon="3.0127749175992795"><ele>14.5</ele><time>2026-04-09T14:24:36Z</time></trkpt><trkpt lat="42.70249132476745" lon="3.012962396145135"><ele>14.0</ele><time>2026-04-09T14:24:37Z</time></trkpt><trkpt lat="42.702501642332734" lon="3.0131460137960517"><ele>13.5</ele><time>2026-04-09T14:24:38Z</time></trkpt><trkpt lat="42.70251213611033" lon="3.01332389360058"><ele>13.0</ele><time>2026-04-09T14:24:39Z</time></trkpt><trkpt lat="42.702545366989405" lon="3.0134950405489884"><ele>12.5</ele><time>2026-04-09T14:24:40Z</time></trkpt><trkpt lat="42.7025299965682" lon="3.0136762107851545"><ele>12.0</ele><time>2026-04-09T14:24:41Z</time></trkpt><trkpt lat="42.702536449592856" lon="3.013849370077608"><ele>11.5</ele><time>2026-04-09T14:24:42Z</time></trkpt><trkpt lat="42.70254332706374" lon="3.014025350868705"><ele>11.0</ele><time>2026-04-09T14:24:43Z</time></trkpt><trkpt lat="42.70254889470289" lon="3.014190319214923"><ele>10.600000000000001</ele><time>2026-04-09T14:24:44Z</time></trkpt><trkpt lat="42.70255494301048" lon="3.0143476778915574"><ele>10.200000000000001</ele><time>2026-04-09T14:24:45Z</time></trkpt><trkpt lat="42.702557565472404" lon="3.0144874591674906"><ele>9.8</ele><time>2026-04-09T14:24:46Z</time></trkpt><trkpt lat="42.70256010533909" lon="3.014614507064474"><ele>9.4</ele><time>2026-04-09T14:24:47Z</time></trkpt><trkpt lat="42.70256090769746" lon="3.0147178202411955"><ele>9.0</ele><time>2026-04-09T14:24:48Z</time></trkpt><trkpt lat="42.70256407165035" lon="3.0148653882373844"><ele>9.0</ele><time>2026-04-09T14:24:50Z</time></trkpt><trkpt lat="42.702530562568676" lon="3.015014727978013"><ele>9.0</ele><time>2026-04-09T14:24:52Z</time></trkpt><trkpt lat="42.70247676375552" lon="3.015084660466506"><ele>9.0</ele><time>2026-04-09T14:24:53Z</time></trkpt><trkpt lat="42.702416831776446" lon="3.0151541721460235"><ele>9.0</ele><time>2026-04-09T14:24:54Z</time></trkpt><trkpt lat="42.702371817911065" lon="3.0152381261075756"><ele>9.0</ele><time>2026-04-09T14:24:55Z</time></trkpt><trkpt lat="42.70233707190598" lon="3.01533058637733"><ele>9.0</ele><time>2026-04-09T14:24:56Z</time></trkpt><trkpt lat="42.70231188823712" lon="3.015430432610108"><ele>9.0</ele><time>2026-04-09T14:24:57Z</time></trkpt><trkpt lat="42.70230046962053" lon="3.0155379436523826"><ele>9.0</ele><time>2026-04-09T14:24:58Z</time></trkpt><trkpt lat="42.702303815435535" lon="3.0156481724993993"><ele>9.0</ele><time>2026-04-09T14:24:59Z</time></trkpt><trkpt lat="42.70232254008647" lon="3.015758922265602"><ele>9.0</ele><time>2026-04-09T14:25:00Z</time></trkpt><trkpt lat="42.70235447580876" lon="3.015864761866917"><ele>9.0</ele><time>2026-04-09T14:25:01Z</time></trkpt><trkpt lat="42.70240041142042" lon="3.0159642102207624"><ele>9.0</ele><time>2026-04-09T14:25:02Z</time></trkpt><trkpt lat="42.7024607563119" lon="3.0160470485197592"><ele>9.0</ele><time>2026-04-09T14:25:03Z</time></trkpt><trkpt lat="42.70253119843501" lon="3.0161083323824287"><ele>9.0</ele><time>2026-04-09T14:25:04Z</time></trkpt><trkpt lat="42.70260275957593" lon="3.0161509338130417"><ele>9.0</ele><time>2026-04-09T14:25:05Z</time></trkpt><trkpt lat="42.70268137666218" lon="3.0161825318355646"><ele>9.0</ele><time>2026-04-09T14:25:06Z</time></trkpt><trkpt lat="42.70276182119872" lon="3.0161921908578475"><ele>9.0</ele><time>2026-04-09T14:25:07Z</time></trkpt><trkpt lat="42.702841153885835" lon="3.0161819770374216"><ele>9.0</ele><time>2026-04-09T14:25:08Z</time></trkpt><trkpt lat="42.70291665661372" lon="3.0161544217330456"><ele>9.0</ele><time>2026-04-09T14:25:09Z</time></trkpt><trkpt lat="42.70299188383398" lon="3.016117615089148"><ele>9.0</ele><time>2026-04-09T14:25:10Z</time></trkpt><trkpt lat="42.70307383297647" lon="3.016087376665454"><ele>9.0</ele><time>2026-04-09T14:25:11Z</time></trkpt><trkpt lat="42.70316339299521" lon="3.016082415871352"><ele>9.0</ele><time>2026-04-09T14:25:12Z</time></trkpt><trkpt lat="42.70325561089397" lon="3.016114575262636"><ele>9.0</ele><time>2026-04-09T14:25:13Z</time></trkpt><trkpt lat="42.70334568038999" lon="3.0161733086924603"><ele>9.0</ele><time>2026-04-09T14:25:14Z</time></trkpt><trkpt lat="42.70344347377487" lon="3.0162398468391"><ele>9.0</ele><time>2026-04-09T14:25:15Z</time></trkpt><trkpt lat="42.7035464347379" lon="3.0163127204173916"><ele>9.0</ele><time>2026-04-09T14:25:16Z</time></trkpt><trkpt lat="42.70365716110573" lon="3.0163946057849134"><ele>9.0</ele><time>2026-04-09T14:25:17Z</time></trkpt><trkpt lat="42.70377832061298" lon="3.0164870192219353"><ele>9.666666666666666</ele><time>2026-04-09T14:25:18Z</time></trkpt><trkpt lat="42.70390530711765" lon="3.016590647029903"><ele>10.333333333333332</ele><time>2026-04-09T14:25:19Z</time></trkpt><trkpt lat="42.70404167464088" lon="3.0167043612376427"><ele>11.0</ele><time>2026-04-09T14:25:20Z</time></trkpt><trkpt lat="42.704179527278036" lon="3.0168184901278674"><ele>11.333333333333332</ele><time>2026-04-09T14:25:21Z</time></trkpt><trkpt lat="42.704316644446834" lon="3.0169325571111547"><ele>11.666666666666666</ele><time>2026-04-09T14:25:22Z</time></trkpt><trkpt lat="42.70445910702736" lon="3.0170553627250736"><ele>12.0</ele><time>2026-04-09T14:25:23Z</time></trkpt><trkpt lat="42.704610446820865" lon="3.017178632681139"><ele>10.666666666666666</ele><time>2026-04-09T14:25:24Z</time></trkpt><trkpt lat="42.70476782569707" lon="3.017304914464729"><ele>9.333333333333332</ele><time>2026-04-09T14:25:25Z</time></trkpt><trkpt lat="42.70492398592339" lon="3.017421251426894"><ele>8.0</ele><time>2026-04-09T14:25:26Z</time></trkpt><trkpt lat="42.705079955849484" lon="3.017541582818272"><ele>7.666666666666666</ele><time>2026-04-09T14:25:27Z</time></trkpt><trkpt lat="42.70523634137661" lon="3.0176673498025766"><ele>7.333333333333334</ele><time>2026-04-09T14:25:28Z</time></trkpt><trkpt lat="42.7053933950107" lon="3.0177921978652393"><ele>7.0</ele><time>2026-04-09T14:25:29Z</time></trkpt><trkpt lat="42.70554809607286" lon="3.017917841967957"><ele>6.333333333333334</ele><time>2026-04-09T14:25:30Z</time></trkpt><trkpt lat="42.705701482809836" lon="3.0180464797971243"><ele>5.666666666666667</ele><time>2026-04-09T14:25:31Z</time></trkpt><trkpt lat="42.70585800601894" lon="3.018178172905569"><ele>5.0</ele><time>2026-04-09T14:25:32Z</time></trkpt><trkpt lat="42.70601284250745" lon="3.018313702277489"><ele>4.666666666666667</ele><time>2026-04-09T14:25:33Z</time></trkpt><trkpt lat="42.7061655082258" lon="3.018454140935305"><ele>4.333333333333333</ele><time>2026-04-09T14:25:34Z</time></trkpt><trkpt lat="42.7063181141276" lon="3.018598970316209"><ele>4.0</ele><time>2026-04-09T14:25:35Z</time></trkpt><trkpt lat="42.706470845037266" lon="3.018750872365522"><ele>4.0</ele><time>2026-04-09T14:25:36Z</time></trkpt><trkpt lat="42.70662573559641" lon="3.0189017815498826"><ele>4.0</ele><time>2026-04-09T14:25:37Z</time></trkpt><trkpt lat="42.70678079193072" lon="3.019052423561383"><ele>4.0</ele><time>2026-04-09T14:25:38Z</time></trkpt><trkpt lat="42.706936339033895" lon="3.0192049030237578"><ele>4.333333333333333</ele><time>2026-04-09T14:25:39Z</time></trkpt><trkpt lat="42.70709323581857" lon="3.01935722673657"><ele>4.666666666666667</ele><time>2026-04-09T14:25:40Z</time></trkpt><trkpt lat="42.70724907150991" lon="3.0195090944483525"><ele>5.0</ele><time>2026-04-09T14:25:41Z</time></trkpt><trkpt lat="42.70740623172709" lon="3.019660890706825"><ele>5.0</ele><time>2026-04-09T14:25:42Z</time></trkpt><trkpt lat="42.707562826978034" lon="3.0198133535108167"><ele>5.0</ele><time>2026-04-09T14:25:43Z</time></trkpt><trkpt lat="42.70771973467279" lon="3.019964168644831"><ele>5.0</ele><time>2026-04-09T14:25:44Z</time></trkpt><trkpt lat="42.7078753702488" lon="3.0201148463754435"><ele>4.666666666666667</ele><time>2026-04-09T14:25:45Z</time></trkpt><trkpt lat="42.708030817047224" lon="3.0202670243284406"><ele>4.333333333333333</ele><time>2026-04-09T14:25:46Z</time></trkpt><trkpt lat="42.70818535004133" lon="3.020418783249312"><ele>4.0</ele><time>2026-04-09T14:25:47Z</time></trkpt><trkpt lat="42.708341142562716" lon="3.020569226871088"><ele>4.0</ele><time>2026-04-09T14:25:48Z</time></trkpt><trkpt lat="42.70849431975028" lon="3.020721666396628"><ele>4.0</ele><time>2026-04-09T14:25:49Z</time></trkpt><trkpt lat="42.70864908482061" lon="3.020872517201186"><ele>4.0</ele><time>2026-04-09T14:25:50Z</time></trkpt><trkpt lat="42.70880508460052" lon="3.0210224587461614"><ele>3.6666666666666665</ele><time>2026-04-09T14:25:51Z</time></trkpt><trkpt lat="42.70895878492268" lon="3.021172291362577"><ele>3.333333333333333</ele><time>2026-04-09T14:25:52Z</time></trkpt><trkpt lat="42.70911042479353" lon="3.0213208176857007"><ele>3.0</ele><time>2026-04-09T14:25:53Z</time></trkpt><trkpt lat="42.709261019673846" lon="3.02146741170844"><ele>3.0</ele><time>2026-04-09T14:25:54Z</time></trkpt><trkpt lat="42.70940807276319" lon="3.021611292410197"><ele>3.0</ele><time>2026-04-09T14:25:55Z</time></trkpt><trkpt lat="42.709552828567766" lon="3.02175316945724"><ele>3.0</ele><time>2026-04-09T14:25:56Z</time></trkpt><trkpt lat="42.70969461370999" lon="3.0218910432088246"><ele>3.666666666666667</ele><time>2026-04-09T14:25:57Z</time></trkpt><trkpt lat="42.70983667458007" lon="3.0220318753540325"><ele>4.333333333333334</ele><time>2026-04-09T14:25:58Z</time></trkpt><trkpt lat="42.70997862900056" lon="3.022172176367045"><ele>5.0</ele><time>2026-04-09T14:25:59Z</time></trkpt><trkpt lat="42.71012457780133" lon="3.0223141119825714"><ele>4.666666666666667</ele><time>2026-04-09T14:26:00Z</time></trkpt><trkpt lat="42.710270494206085" lon="3.0224558166008855"><ele>4.333333333333333</ele><time>2026-04-09T14:26:01Z</time></trkpt><trkpt lat="42.71041755930244" lon="3.022599513884721"><ele>4.0</ele><time>2026-04-09T14:26:02Z</time></trkpt><trkpt lat="42.71056654132847" lon="3.022744083627559"><ele>3.333333333333333</ele><time>2026-04-09T14:26:03Z</time></trkpt><trkpt lat="42.71071695463947" lon="3.022887232800861"><ele>2.6666666666666665</ele><time>2026-04-09T14:26:04Z</time></trkpt><trkpt lat="42.71086917511569" lon="3.023033558804633"><ele>2.0</ele><time>2026-04-09T14:26:05Z</time></trkpt><trkpt lat="42.71102335915873" lon="3.0231825304634876"><ele>2.6666666666666665</ele><time>2026-04-09T14:26:06Z</time></trkpt><trkpt lat="42.71117727742644" lon="3.023332736770204"><ele>3.333333333333333</ele><time>2026-04-09T14:26:07Z</time></trkpt><trkpt lat="42.71133167119079" lon="3.023482484723754"><ele>4.0</ele><time>2026-04-09T14:26:08Z</time></trkpt><trkpt lat="42.71148732384333" lon="3.023633891374669"><ele>4.0</ele><time>2026-04-09T14:26:09Z</time></trkpt><trkpt lat="42.71164349076903" lon="3.0237866299711116"><ele>4.0</ele><time>2026-04-09T14:26:10Z</time></trkpt><trkpt lat="42.71179937090769" lon="3.0239373407012784"><ele>4.0</ele><time>2026-04-09T14:26:11Z</time></trkpt><trkpt lat="42.71195442124893" lon="3.024087723155476"><ele>4.0</ele><time>2026-04-09T14:26:12Z</time></trkpt><trkpt lat="42.71210955168647" lon="3.024235748822397"><ele>4.0</ele><time>2026-04-09T14:26:13Z</time></trkpt><trkpt lat="42.71226367177511" lon="3.024384454185693"><ele>4.0</ele><time>2026-04-09T14:26:14Z</time></trkpt><trkpt lat="42.71241747049638" lon="3.0245347513598113"><ele>4.0</ele><time>2026-04-09T14:26:15Z</time></trkpt><trkpt lat="42.71257161470527" lon="3.024686449924505"><ele>4.0</ele><time>2026-04-09T14:26:16Z</time></trkpt><trkpt lat="42.71272575538401" lon="3.024838140541191"><ele>4.0</ele><time>2026-04-09T14:26:17Z</time></trkpt><trkpt lat="42.71287964459866" lon="3.0249893574317914"><ele>3.6666666666666665</ele><time>2026-04-09T14:26:18Z</time></trkpt><trkpt lat="42.71303462554865" lon="3.0251401960535307"><ele>3.333333333333333</ele><time>2026-04-09T14:26:19Z</time></trkpt><trkpt lat="42.71318774316383" lon="3.025291296919519"><ele>3.0</ele><time>2026-04-09T14:26:20Z</time></trkpt><trkpt lat="42.71334214995873" lon="3.0254430917929085"><ele>3.0</ele><time>2026-04-09T14:26:21Z</time></trkpt><trkpt lat="42.713498671201386" lon="3.0255927100364177"><ele>3.0</ele><time>2026-04-09T14:26:22Z</time></trkpt><trkpt lat="42.713654236754934" lon="3.025742309379151"><ele>3.0</ele><time>2026-04-09T14:26:23Z</time></trkpt><trkpt lat="42.71381010543293" lon="3.0258914819555076"><ele>2.6666666666666665</ele><time>2026-04-09T14:26:24Z</time></trkpt><trkpt lat="42.7139678816132" lon="3.0260388081573923"><ele>2.333333333333333</ele><time>2026-04-09T14:26:25Z</time></trkpt><trkpt lat="42.714125867990276" lon="3.0261836934504127"><ele>2.0</ele><time>2026-04-09T14:26:26Z</time></trkpt><trkpt lat="42.71428394854446" lon="3.026326383898029"><ele>2.0</ele><time>2026-04-09T14:26:27Z</time></trkpt><trkpt lat="42.71444234748764" lon="3.02646829286028"><ele>2.0</ele><time>2026-04-09T14:26:28Z</time></trkpt><trkpt lat="42.714602145828906" lon="3.026609021790657"><ele>2.0</ele><time>2026-04-09T14:26:29Z</time></trkpt><trkpt lat="42.71476342305095" lon="3.0267488016172965"><ele>2.0</ele><time>2026-04-09T14:26:30Z</time></trkpt><trkpt lat="42.71492508030008" lon="3.02688614555141"><ele>2.0</ele><time>2026-04-09T14:26:31Z</time></trkpt><trkpt lat="42.71508908920378" lon="3.0270212140026587"><ele>2.0</ele><time>2026-04-09T14:26:32Z</time></trkpt><trkpt lat="42.71525289443168" lon="3.027152363794526"><ele>2.0</ele><time>2026-04-09T14:26:33Z</time></trkpt><trkpt lat="42.71541713204285" lon="3.0272804290686373"><ele>2.0</ele><time>2026-04-09T14:26:34Z</time></trkpt><trkpt lat="42.71558307048172" lon="3.027406448432352"><ele>2.0</ele><time>2026-04-09T14:26:35Z</time></trkpt><trkpt lat="42.71574923717497" lon="3.0275246591516445"><ele>1.6666666666666665</ele><time>2026-04-09T14:26:36Z</time></trkpt><trkpt lat="42.71591812333636" lon="3.0276421856346705"><ele>1.3333333333333333</ele><time>2026-04-09T14:26:37Z</time></trkpt><trkpt lat="42.71608619840445" lon="3.027756172100052"><ele>1.0</ele><time>2026-04-09T14:26:38Z</time></trkpt><trkpt lat="42.71625536868135" lon="3.0278681688154134"><ele>1.0</ele><time>2026-04-09T14:26:39Z</time></trkpt><trkpt lat="42.71642421116255" lon="3.0279772625557806"><ele>1.0</ele><time>2026-04-09T14:26:40Z</time></trkpt><trkpt lat="42.716592418377" lon="3.0280825639576454"><ele>1.0</ele><time>2026-04-09T14:26:41Z</time></trkpt><trkpt lat="42.716763096029524" lon="3.0281866669245794"><ele>1.0</ele><time>2026-04-09T14:26:42Z</time></trkpt><trkpt lat="42.71693552300892" lon="3.028286142193798"><ele>1.0</ele><time>2026-04-09T14:26:43Z</time></trkpt><trkpt lat="42.71710953499564" lon="3.0283844004552636"><ele>1.0</ele><time>2026-04-09T14:26:44Z</time></trkpt><trkpt lat="42.717286183983674" lon="3.0284789855231318"><ele>1.0</ele><time>2026-04-09T14:26:45Z</time></trkpt><trkpt lat="42.71746132692789" lon="3.0285712526598525"><ele>1.0</ele><time>2026-04-09T14:26:46Z</time></trkpt><trkpt lat="42.717635569957054" lon="3.028658990885089"><ele>1.0</ele><time>2026-04-09T14:26:47Z</time></trkpt><trkpt lat="42.7178098815333" lon="3.0287453319592275"><ele>1.0</ele><time>2026-04-09T14:26:48Z</time></trkpt><trkpt lat="42.717982215713555" lon="3.028827247988296"><ele>1.0</ele><time>2026-04-09T14:26:49Z</time></trkpt><trkpt lat="42.71815265742223" lon="3.0289050587434683"><ele>1.0</ele><time>2026-04-09T14:26:50Z</time></trkpt><trkpt lat="42.71832037970841" lon="3.0289774862965992"><ele>1.0</ele><time>2026-04-09T14:26:51Z</time></trkpt><trkpt lat="42.71848484471215" lon="3.029042220182671"><ele>1.0</ele><time>2026-04-09T14:26:52Z</time></trkpt><trkpt lat="42.7186471690765" lon="3.0291050785909346"><ele>1.0</ele><time>2026-04-09T14:26:53Z</time></trkpt><trkpt lat="42.718806727959596" lon="3.0291663569199234"><ele>1.3333333333333333</ele><time>2026-04-09T14:26:54Z</time></trkpt><trkpt lat="42.71896266156175" lon="3.029221983178318"><ele>1.6666666666666665</ele><time>2026-04-09T14:26:55Z</time></trkpt><trkpt lat="42.719116647973316" lon="3.0292751688957305"><ele>2.0</ele><time>2026-04-09T14:26:56Z</time></trkpt><trkpt lat="42.71926883368202" lon="3.02932574021703"><ele>1.6666666666666665</ele><time>2026-04-09T14:26:57Z</time></trkpt><trkpt lat="42.719419737664275" lon="3.029376033615104"><ele>1.3333333333333333</ele><time>2026-04-09T14:26:58Z</time></trkpt><trkpt lat="42.71957447225581" lon="3.0294233645730384"><ele>1.0</ele><time>2026-04-09T14:26:59Z</time></trkpt><trkpt lat="42.71973324519812" lon="3.029470767167136"><ele>1.0</ele><time>2026-04-09T14:27:00Z</time></trkpt><trkpt lat="42.719896087806816" lon="3.0295159144738157"><ele>1.0</ele><time>2026-04-09T14:27:01Z</time></trkpt><trkpt lat="42.720061885424855" lon="3.029558562097718"><ele>1.0</ele><time>2026-04-09T14:27:02Z</time></trkpt><trkpt lat="42.72022820815091" lon="3.0295979628075145"><ele>0.6666666666666666</ele><time>2026-04-09T14:27:03Z</time></trkpt><trkpt lat="42.72039869633653" lon="3.0296338380939036"><ele>0.3333333333333333</ele><time>2026-04-09T14:27:04Z</time></trkpt><trkpt lat="42.720569305359085" lon="3.0296700639469862"><ele>0.0</ele><time>2026-04-09T14:27:05Z</time></trkpt><trkpt lat="42.720740607515886" lon="3.029703652511125"><ele>0.0</ele><time>2026-04-09T14:27:06Z</time></trkpt><trkpt lat="42.720914241993896" lon="3.029734786593608"><ele>0.0</ele><time>2026-04-09T14:27:07Z</time></trkpt><trkpt lat="42.72108870312849" lon="3.029766218158255"><ele>0.0</ele><time>2026-04-09T14:27:08Z</time></trkpt><trkpt lat="42.72126430449736" lon="3.0297923394232598"><ele>0.3333333333333333</ele><time>2026-04-09T14:27:09Z</time></trkpt><trkpt lat="42.72144081488877" lon="3.0298170363436254"><ele>0.6666666666666666</ele><time>2026-04-09T14:27:10Z</time></trkpt><trkpt lat="42.72161745299209" lon="3.0298387356603502"><ele>1.0</ele><time>2026-04-09T14:27:11Z</time></trkpt><trkpt lat="42.72179490494784" lon="3.0298565511013185"><ele>1.0</ele><time>2026-04-09T14:27:12Z</time></trkpt><trkpt lat="42.72197280833488" lon="3.0298708540760924"><ele>1.0</ele><time>2026-04-09T14:27:13Z</time></trkpt><trkpt lat="42.722150142759425" lon="3.029881522996444"><ele>1.0</ele><time>2026-04-09T14:27:14Z</time></trkpt><trkpt lat="42.72232654511179" lon="3.029888114283216"><ele>1.0</ele><time>2026-04-09T14:27:15Z</time></trkpt><trkpt lat="42.722501710514514" lon="3.0298917638784992"><ele>1.0</ele><time>2026-04-09T14:27:16Z</time></trkpt><trkpt lat="42.7226758701127" lon="3.029892089092818"><ele>1.0</ele><time>2026-04-09T14:27:17Z</time></trkpt><trkpt lat="42.722849633330654" lon="3.029890484582415"><ele>1.0</ele><time>2026-04-09T14:27:18Z</time></trkpt><trkpt lat="42.72302363393635" lon="3.0298866795459927"><ele>1.0</ele><time>2026-04-09T14:27:19Z</time></trkpt><trkpt lat="42.72319780421616" lon="3.0298830906398653"><ele>1.0</ele><time>2026-04-09T14:27:20Z</time></trkpt><trkpt lat="42.723370509660775" lon="3.0298773693665964"><ele>1.0</ele><time>2026-04-09T14:27:21Z</time></trkpt><trkpt lat="42.72354379245318" lon="3.029868748057054"><ele>1.0</ele><time>2026-04-09T14:27:22Z</time></trkpt><trkpt lat="42.72371590349747" lon="3.0298557027098605"><ele>1.0</ele><time>2026-04-09T14:27:23Z</time></trkpt><trkpt lat="42.72388714659007" lon="3.029840357240187"><ele>1.0</ele><time>2026-04-09T14:27:24Z</time></trkpt><trkpt lat="42.72405877658158" lon="3.029821342086463"><ele>1.0</ele><time>2026-04-09T14:27:25Z</time></trkpt><trkpt lat="42.72423108214808" lon="3.029802307964172"><ele>1.0</ele><time>2026-04-09T14:27:26Z</time></trkpt><trkpt lat="42.7244056576546" lon="3.0297809502489206"><ele>1.0</ele><time>2026-04-09T14:27:27Z</time></trkpt><trkpt lat="42.7245814529701" lon="3.029755229337428"><ele>1.0</ele><time>2026-04-09T14:27:28Z</time></trkpt><trkpt lat="42.7247582804094" lon="3.0297265653458862"><ele>1.0</ele><time>2026-04-09T14:27:29Z</time></trkpt><trkpt lat="42.72493559542274" lon="3.029695109542311"><ele>1.0</ele><time>2026-04-09T14:27:30Z</time></trkpt><trkpt lat="42.72511265849146" lon="3.0296597344706235"><ele>1.0</ele><time>2026-04-09T14:27:31Z</time></trkpt><trkpt lat="42.72529166061359" lon="3.0296213506918312"><ele>1.0</ele><time>2026-04-09T14:27:32Z</time></trkpt><trkpt lat="42.72547175723013" lon="3.0295819202016263"><ele>1.0</ele><time>2026-04-09T14:27:33Z</time></trkpt><trkpt lat="42.72565199557289" lon="3.029540416194989"><ele>1.0</ele><time>2026-04-09T14:27:34Z</time></trkpt><trkpt lat="42.725833942792164" lon="3.029493101384294"><ele>1.0</ele><time>2026-04-09T14:27:35Z</time></trkpt><trkpt lat="42.726015893829896" lon="3.0294437899459346"><ele>1.3333333333333333</ele><time>2026-04-09T14:27:36Z</time></trkpt><trkpt lat="42.72619840166091" lon="3.0293911665562727"><ele>1.6666666666666665</ele><time>2026-04-09T14:27:37Z</time></trkpt><trkpt lat="42.726380952982" lon="3.0293345022272917"><ele>2.0</ele><time>2026-04-09T14:27:38Z</time></trkpt><trkpt lat="42.726562885621505" lon="3.0292774193585217"><ele>2.0</ele><time>2026-04-09T14:27:39Z</time></trkpt><trkpt lat="42.72674365152672" lon="3.02921525027705"><ele>2.0</ele><time>2026-04-09T14:27:40Z</time></trkpt><trkpt lat="42.72692596964215" lon="3.029150382107669"><ele>2.0</ele><time>2026-04-09T14:27:41Z</time></trkpt><trkpt lat="42.72710663795092" lon="3.0290815972835534"><ele>1.6666666666666665</ele><time>2026-04-09T14:27:42Z</time></trkpt><trkpt lat="42.72728385269787" lon="3.029011268954304"><ele>1.3333333333333333</ele><time>2026-04-09T14:27:43Z</time></trkpt><trkpt lat="42.72746261159001" lon="3.0289377885623656"><ele>1.0</ele><time>2026-04-09T14:27:44Z</time></trkpt><trkpt lat="42.72763985577449" lon="3.028860985667127"><ele>1.3333333333333333</ele><time>2026-04-09T14:27:45Z</time></trkpt><trkpt lat="42.72781503210702" lon="3.028781781739182"><ele>1.6666666666666665</ele><time>2026-04-09T14:27:46Z</time></trkpt><trkpt lat="42.72798825827971" lon="3.028700087329916"><ele>2.0</ele><time>2026-04-09T14:27:47Z</time></trkpt><trkpt lat="42.728161802497645" lon="3.0286165834208347"><ele>2.0</ele><time>2026-04-09T14:27:48Z</time></trkpt><trkpt lat="42.728334549782616" lon="3.0285292846083953"><ele>2.0</ele><time>2026-04-09T14:27:49Z</time></trkpt><trkpt lat="42.7285022754913" lon="3.028440613770304"><ele>2.0</ele><time>2026-04-09T14:27:50Z</time></trkpt><trkpt lat="42.728669053353165" lon="3.028349168489207"><ele>2.0</ele><time>2026-04-09T14:27:51Z</time></trkpt><trkpt lat="42.72883502004792" lon="3.0282568336375997"><ele>2.0</ele><time>2026-04-09T14:27:52Z</time></trkpt><trkpt lat="42.728999650296664" lon="3.028161780321155"><ele>2.0</ele><time>2026-04-09T14:27:53Z</time></trkpt><trkpt lat="42.72916406797392" lon="3.028067209929292"><ele>2.0</ele><time>2026-04-09T14:27:54Z</time></trkpt><trkpt lat="42.729327368144595" lon="3.027969059538462"><ele>2.0</ele><time>2026-04-09T14:27:55Z</time></trkpt><trkpt lat="42.72948994583515" lon="3.027870141122998"><ele>2.0</ele><time>2026-04-09T14:27:56Z</time></trkpt><trkpt lat="42.729651221038964" lon="3.0277709699877593"><ele>2.333333333333333</ele><time>2026-04-09T14:27:57Z</time></trkpt><trkpt lat="42.72980947782362" lon="3.027670031257852"><ele>2.6666666666666665</ele><time>2026-04-09T14:27:58Z</time></trkpt><trkpt lat="42.7299676383725" lon="3.027571955435387"><ele>3.0</ele><time>2026-04-09T14:27:59Z</time></trkpt><trkpt lat="42.73012503257581" lon="3.0274774730951415"><ele>2.3333333333333335</ele><time>2026-04-09T14:28:00Z</time></trkpt><trkpt lat="42.730283536730596" lon="3.027386847562387"><ele>1.6666666666666665</ele><time>2026-04-09T14:28:01Z</time></trkpt><trkpt lat="42.73043731018293" lon="3.0273005084848963"><ele>1.0</ele><time>2026-04-09T14:28:02Z</time></trkpt><trkpt lat="42.73058997380709" lon="3.027218559693921"><ele>1.0</ele><time>2026-04-09T14:28:03Z</time></trkpt><trkpt lat="42.73073646704167" lon="3.0271387123376687"><ele>1.0</ele><time>2026-04-09T14:28:04Z</time></trkpt><trkpt lat="42.73087938968822" lon="3.0270608380510122"><ele>1.0</ele><time>2026-04-09T14:28:05Z</time></trkpt><trkpt lat="42.73101276291698" lon="3.0269891761107286"><ele>1.25</ele><time>2026-04-09T14:28:06Z</time></trkpt><trkpt lat="42.73113575484392" lon="3.0269222443322796"><ele>1.5</ele><time>2026-04-09T14:28:07Z</time></trkpt><trkpt lat="42.731249914073274" lon="3.0268599583361433"><ele>1.75</ele><time>2026-04-09T14:28:08Z</time></trkpt><trkpt lat="42.73135932600582" lon="3.0267998435330394"><ele>2.0</ele><time>2026-04-09T14:28:09Z</time></trkpt><trkpt lat="42.73146260162789" lon="3.0267416501238307"><ele>1.9999999999999998</ele><time>2026-04-09T14:28:10Z</time></trkpt><trkpt lat="42.73155686782404" lon="3.026692640169816"><ele>2.0</ele><time>2026-04-09T14:28:11Z</time></trkpt><trkpt lat="42.731648093728566" lon="3.026644190262927"><ele>2.0</ele><time>2026-04-09T14:28:12Z</time></trkpt><trkpt lat="42.73173258230249" lon="3.0266051376399816"><ele>2.0</ele><time>2026-04-09T14:28:13Z</time></trkpt><trkpt lat="42.731808136649" lon="3.026570177149284"><ele>1.9999999999999998</ele><time>2026-04-09T14:28:14Z</time></trkpt><trkpt lat="42.73188276276122" lon="3.026539661542004"><ele>2.0</ele><time>2026-04-09T14:28:15Z</time></trkpt><trkpt lat="42.731960376237815" lon="3.026526933556243"><ele>2.1666666666666665</ele><time>2026-04-09T14:28:16Z</time></trkpt><trkpt lat="42.73203565295023" lon="3.0265464244597013"><ele>2.333333333333333</ele><time>2026-04-09T14:28:17Z</time></trkpt><trkpt lat="42.732110308817965" lon="3.026603140988356"><ele>2.5</ele><time>2026-04-09T14:28:18Z</time></trkpt><trkpt lat="42.732187489585684" lon="3.026656719987681"><ele>2.6666666666666665</ele><time>2026-04-09T14:28:19Z</time></trkpt><trkpt lat="42.73226928238926" lon="3.0266783032198217"><ele>2.8333333333333335</ele><time>2026-04-09T14:28:20Z</time></trkpt><trkpt lat="42.73235299343373" lon="3.0266674282916686"><ele>3.0</ele><time>2026-04-09T14:28:21Z</time></trkpt><trkpt lat="42.73242938804442" lon="3.0266243429488533"><ele>3.0</ele><time>2026-04-09T14:28:22Z</time></trkpt><trkpt lat="42.732493628362036" lon="3.0265498063246277"><ele>3.0</ele><time>2026-04-09T14:28:23Z</time></trkpt><trkpt lat="42.73254219365463" lon="3.0264532947407456"><ele>3.0</ele><time>2026-04-09T14:28:24Z</time></trkpt><trkpt lat="42.732574716477856" lon="3.0263441622192424"><ele>3.0</ele><time>2026-04-09T14:28:25Z</time></trkpt><trkpt lat="42.732622434264464" lon="3.0262383704912033"><ele>3.0</ele><time>2026-04-09T14:28:26Z</time></trkpt><trkpt lat="42.732698243986775" lon="3.0261509760011807"><ele>3.0</ele><time>2026-04-09T14:28:27Z</time></trkpt><trkpt lat="42.73279355146125" lon="3.0260898982375917"><ele>3.0</ele><time>2026-04-09T14:28:28Z</time></trkpt><trkpt lat="42.732900783443405" lon="3.0260478728195395"><ele>3.0</ele><time>2026-04-09T14:28:29Z</time></trkpt><trkpt lat="42.733016581284055" lon="3.0260073801328655"><ele>3.0</ele><time>2026-04-09T14:28:30Z</time></trkpt><trkpt lat="42.733141622527114" lon="3.025962801967969"><ele>3.0</ele><time>2026-04-09T14:28:31Z</time></trkpt><trkpt lat="42.73327072641976" lon="3.025912464172947"><ele>3.0</ele><time>2026-04-09T14:28:32Z</time></trkpt><trkpt lat="42.73340848294525" lon="3.0258598182636294"><ele>3.0</ele><time>2026-04-09T14:28:33Z</time></trkpt><trkpt lat="42.733554191549096" lon="3.0258042400374707"><ele>3.0</ele><time>2026-04-09T14:28:34Z</time></trkpt><trkpt lat="42.73370759439988" lon="3.025745904593273"><ele>2.6666666666666665</ele><time>2026-04-09T14:28:35Z</time></trkpt><trkpt lat="42.73386891943753" lon="3.0256845728768247"><ele>2.333333333333333</ele><time>2026-04-09T14:28:36Z</time></trkpt><trkpt lat="42.73404046354459" lon="3.025623232397247"><ele>2.0</ele><time>2026-04-09T14:28:37Z</time></trkpt><trkpt lat="42.734210291932314" lon="3.0255613167605016"><ele>2.0</ele><time>2026-04-09T14:28:38Z</time></trkpt><trkpt lat="42.73438058226069" lon="3.025500188968271"><ele>2.0</ele><time>2026-04-09T14:28:39Z</time></trkpt><trkpt lat="42.73455694724691" lon="3.025439328654102"><ele>2.0</ele><time>2026-04-09T14:28:40Z</time></trkpt><trkpt lat="42.734738859700336" lon="3.0253808774211186"><ele>1.6666666666666665</ele><time>2026-04-09T14:28:41Z</time></trkpt><trkpt lat="42.73492373768064" lon="3.025327177598554"><ele>1.3333333333333333</ele><time>2026-04-09T14:28:42Z</time></trkpt><trkpt lat="42.73511278297017" lon="3.025278779985006"><ele>1.0</ele><time>2026-04-09T14:28:43Z</time></trkpt><trkpt lat="42.73530611001245" lon="3.0252349528200635"><ele>1.0</ele><time>2026-04-09T14:28:44Z</time></trkpt><trkpt lat="42.735500485585256" lon="3.0251918599212604"><ele>1.0</ele><time>2026-04-09T14:28:45Z</time></trkpt><trkpt lat="42.73569447770832" lon="3.025149299264561"><ele>1.0</ele><time>2026-04-09T14:28:46Z</time></trkpt><trkpt lat="42.73588764586608" lon="3.025104888600297"><ele>1.0</ele><time>2026-04-09T14:28:47Z</time></trkpt><trkpt lat="42.73607852768976" lon="3.025060449534985"><ele>1.0</ele><time>2026-04-09T14:28:48Z</time></trkpt><trkpt lat="42.736270796089386" lon="3.0250149573845033"><ele>1.0</ele><time>2026-04-09T14:28:49Z</time></trkpt><trkpt lat="42.73646369398445" lon="3.0249713170864703"><ele>0.6666666666666666</ele><time>2026-04-09T14:28:50Z</time></trkpt><trkpt lat="42.73665553206441" lon="3.0249286665993536"><ele>0.3333333333333333</ele><time>2026-04-09T14:28:51Z</time></trkpt><trkpt lat="42.73684802610708" lon="3.0248876730297085"><ele>0.0</ele><time>2026-04-09T14:28:52Z</time></trkpt><trkpt lat="42.73704010229279" lon="3.0248454681594485"><ele>-0.3333333333333333</ele><time>2026-04-09T14:28:53Z</time></trkpt><trkpt lat="42.73723264659454" lon="3.024803733782423"><ele>-0.6666666666666666</ele><time>2026-04-09T14:28:54Z</time></trkpt><trkpt lat="42.73742507219711" lon="3.024760982941204"><ele>-1.0</ele><time>2026-04-09T14:28:55Z</time></trkpt><trkpt lat="42.73761801194723" lon="3.0247173288522036"><ele>-0.3333333333333333</ele><time>2026-04-09T14:28:56Z</time></trkpt><trkpt lat="42.73781202209475" lon="3.0246745008430045"><ele>0.3333333333333333</ele><time>2026-04-09T14:28:57Z</time></trkpt><trkpt lat="42.73800532623006" lon="3.0246310079398913"><ele>1.0</ele><time>2026-04-09T14:28:58Z</time></trkpt><trkpt lat="42.738198240885545" lon="3.024589447816902"><ele>1.0</ele><time>2026-04-09T14:28:59Z</time></trkpt><trkpt lat="42.73839347119248" lon="3.024547528552428"><ele>1.0</ele><time>2026-04-09T14:29:00Z</time></trkpt><trkpt lat="42.73858817119852" lon="3.0245025979699416"><ele>1.0</ele><time>2026-04-09T14:29:01Z</time></trkpt><trkpt lat="42.73878331541371" lon="3.024460802299195"><ele>1.0</ele><time>2026-04-09T14:29:02Z</time></trkpt><trkpt lat="42.738976698040176" lon="3.0244184688423386"><ele>1.0</ele><time>2026-04-09T14:29:03Z</time></trkpt><trkpt lat="42.73916841474955" lon="3.0243769589813096"><ele>1.0</ele><time>2026-04-09T14:29:04Z</time></trkpt><trkpt lat="42.739357900345276" lon="3.0243343461110768"><ele>1.3333333333333333</ele><time>2026-04-09T14:29:05Z</time></trkpt><trkpt lat="42.73954426938004" lon="3.0242923385284275"><ele>1.6666666666666665</ele><time>2026-04-09T14:29:06Z</time></trkpt><trkpt lat="42.73973073989911" lon="3.024250895179151"><ele>2.0</ele><time>2026-04-09T14:29:07Z</time></trkpt><trkpt lat="42.739917040206386" lon="3.024208492033903"><ele>2.0</ele><time>2026-04-09T14:29:08Z</time></trkpt><trkpt lat="42.74010212466704" lon="3.024168590684677"><ele>2.0</ele><time>2026-04-09T14:29:09Z</time></trkpt><trkpt lat="42.74028907252365" lon="3.0241269604590797"><ele>2.0</ele><time>2026-04-09T14:29:10Z</time></trkpt><trkpt lat="42.74047573277313" lon="3.024085146821444"><ele>1.6666666666666665</ele><time>2026-04-09T14:29:11Z</time></trkpt><trkpt lat="42.74066313036871" lon="3.024044570490847"><ele>1.3333333333333333</ele><time>2026-04-09T14:29:12Z</time></trkpt><trkpt lat="42.7408519933878" lon="3.0240032507375663"><ele>1.0</ele><time>2026-04-09T14:29:13Z</time></trkpt><trkpt lat="42.74104322671544" lon="3.023960697170174"><ele>0.3333333333333333</ele><time>2026-04-09T14:29:14Z</time></trkpt><trkpt lat="42.74123577515816" lon="3.0239182054227705"><ele>-0.3333333333333333</ele><time>2026-04-09T14:29:15Z</time></trkpt><trkpt lat="42.74142750487372" lon="3.0238765946318678"><ele>-1.0</ele><time>2026-04-09T14:29:16Z</time></trkpt><trkpt lat="42.741618571577206" lon="3.0238349596966128"><ele>-1.0</ele><time>2026-04-09T14:29:17Z</time></trkpt><trkpt lat="42.74180941494684" lon="3.0237935905611413"><ele>-1.0</ele><time>2026-04-09T14:29:18Z</time></trkpt><trkpt lat="42.742000856889746" lon="3.023750436345835"><ele>-1.0</ele><time>2026-04-09T14:29:19Z</time></trkpt><trkpt lat="42.74219070091146" lon="3.0237084614104432"><ele>-0.3333333333333333</ele><time>2026-04-09T14:29:20Z</time></trkpt><trkpt lat="42.74237656323269" lon="3.023666517348858"><ele>0.3333333333333333</ele><time>2026-04-09T14:29:21Z</time></trkpt><trkpt lat="42.74255948606536" lon="3.0236268572478027"><ele>1.0</ele><time>2026-04-09T14:29:22Z</time></trkpt><trkpt lat="42.742741221815045" lon="3.023587320611528"><ele>1.0</ele><time>2026-04-09T14:29:23Z</time></trkpt><trkpt lat="42.74292430927937" lon="3.0235467529551996"><ele>1.0</ele><time>2026-04-09T14:29:24Z</time></trkpt><trkpt lat="42.74311009712953" lon="3.023507307504701"><ele>1.0</ele><time>2026-04-09T14:29:25Z</time></trkpt><trkpt lat="42.743294736799285" lon="3.023465528060554"><ele>1.0</ele><time>2026-04-09T14:29:26Z</time></trkpt><trkpt lat="42.74347993553165" lon="3.0234245028277766"><ele>1.0</ele><time>2026-04-09T14:29:27Z</time></trkpt><trkpt lat="42.74366545985966" lon="3.0233826969040627"><ele>1.0</ele><time>2026-04-09T14:29:28Z</time></trkpt><trkpt lat="42.743853283832884" lon="3.023341138164629"><ele>1.0</ele><time>2026-04-09T14:29:29Z</time></trkpt><trkpt lat="42.74404234356376" lon="3.023300370995514"><ele>1.0</ele><time>2026-04-09T14:29:30Z</time></trkpt><trkpt lat="42.74423118586325" lon="3.0232603218230936"><ele>1.0</ele><time>2026-04-09T14:29:31Z</time></trkpt><trkpt lat="42.744419530209576" lon="3.023218767105073"><ele>1.3333333333333333</ele><time>2026-04-09T14:29:32Z</time></trkpt><trkpt lat="42.74461098840165" lon="3.0231780440562113"><ele>1.6666666666666665</ele><time>2026-04-09T14:29:33Z</time></trkpt><trkpt lat="42.74480295603695" lon="3.023138339144906"><ele>2.0</ele><time>2026-04-09T14:29:34Z</time></trkpt><trkpt lat="42.7449927233808" lon="3.0230966436492057"><ele>2.0</ele><time>2026-04-09T14:29:35Z</time></trkpt><trkpt lat="42.74518220095049" lon="3.0230562299245816"><ele>2.0</ele><time>2026-04-09T14:29:36Z</time></trkpt><trkpt lat="42.74537146353608" lon="3.023014607576471"><ele>2.0</ele><time>2026-04-09T14:29:37Z</time></trkpt><trkpt lat="42.74556216052983" lon="3.0229718350219885"><ele>1.6666666666666665</ele><time>2026-04-09T14:29:38Z</time></trkpt><trkpt lat="42.745751546903065" lon="3.022929195075136"><ele>1.3333333333333333</ele><time>2026-04-09T14:29:39Z</time></trkpt><trkpt lat="42.74594198190571" lon="3.0228863818919938"><ele>1.0</ele><time>2026-04-09T14:29:40Z</time></trkpt><trkpt lat="42.746132397786454" lon="3.0228445604632577"><ele>0.6666666666666666</ele><time>2026-04-09T14:29:41Z</time></trkpt><trkpt lat="42.746324054592726" lon="3.022802927459837"><ele>0.3333333333333333</ele><time>2026-04-09T14:29:42Z</time></trkpt><trkpt lat="42.7465169030016" lon="3.0227625288006674"><ele>0.0</ele><time>2026-04-09T14:29:43Z</time></trkpt><trkpt lat="42.74670759690199" lon="3.0227201628916402"><ele>0.3333333333333333</ele><time>2026-04-09T14:29:44Z</time></trkpt><trkpt lat="42.74689990940601" lon="3.0226755868204216"><ele>0.6666666666666666</ele><time>2026-04-09T14:29:45Z</time></trkpt><trkpt lat="42.74709429372996" lon="3.0226329022664338"><ele>1.0</ele><time>2026-04-09T14:29:46Z</time></trkpt><trkpt lat="42.74728750271642" lon="3.022590348088348"><ele>1.0</ele><time>2026-04-09T14:29:47Z</time></trkpt><trkpt lat="42.7474798945889" lon="3.022549011042512"><ele>1.0</ele><time>2026-04-09T14:29:48Z</time></trkpt><trkpt lat="42.747673491698784" lon="3.0225065279834036"><ele>1.0</ele><time>2026-04-09T14:29:49Z</time></trkpt><trkpt lat="42.74786744442633" lon="3.0224640840424826"><ele>1.0</ele><time>2026-04-09T14:29:50Z</time></trkpt><trkpt lat="42.74805970273155" lon="3.0224204738405476"><ele>1.0</ele><time>2026-04-09T14:29:51Z</time></trkpt><trkpt lat="42.748253225008135" lon="3.0223780628081536"><ele>1.0</ele><time>2026-04-09T14:29:52Z</time></trkpt><trkpt lat="42.74844400936518" lon="3.022334136158502"><ele>1.3333333333333333</ele><time>2026-04-09T14:29:53Z</time></trkpt><trkpt lat="42.74863430245397" lon="3.0222903949647146"><ele>1.6666666666666665</ele><time>2026-04-09T14:29:54Z</time></trkpt><trkpt lat="42.7488233698374" lon="3.0222485875946514"><ele>2.0</ele><time>2026-04-09T14:29:55Z</time></trkpt><trkpt lat="42.749013370451515" lon="3.0222063140193893"><ele>2.0</ele><time>2026-04-09T14:29:56Z</time></trkpt><trkpt lat="42.749204365869176" lon="3.02216487773665"><ele>2.0</ele><time>2026-04-09T14:29:57Z</time></trkpt><trkpt lat="42.74939716190114" lon="3.0221234807419677"><ele>2.0</ele><time>2026-04-09T14:29:58Z</time></trkpt><trkpt lat="42.74958959494025" lon="3.022082517839139"><ele>2.333333333333333</ele><time>2026-04-09T14:29:59Z</time></trkpt><trkpt lat="42.749781852369516" lon="3.0220409487015174"><ele>2.6666666666666665</ele><time>2026-04-09T14:30:00Z</time></trkpt><trkpt lat="42.749974114649184" lon="3.021999147981227"><ele>3.0</ele><time>2026-04-09T14:30:01Z</time></trkpt><trkpt lat="42.75016494914382" lon="3.0219567055895444"><ele>3.0</ele><time>2026-04-09T14:30:02Z</time></trkpt><trkpt lat="42.75035500485242" lon="3.0219156548724535"><ele>3.0</ele><time>2026-04-09T14:30:03Z</time></trkpt><trkpt lat="42.750543779009696" lon="3.0218737171374186"><ele>3.0</ele><time>2026-04-09T14:30:04Z</time></trkpt><trkpt lat="42.750732080111426" lon="3.0218310435498834"><ele>3.0</ele><time>2026-04-09T14:30:05Z</time></trkpt><trkpt lat="42.750919392217" lon="3.0217904475322475"><ele>3.0</ele><time>2026-04-09T14:30:06Z</time></trkpt><trkpt lat="42.75110456726682" lon="3.0217497731994203"><ele>3.0</ele><time>2026-04-09T14:30:07Z</time></trkpt><trkpt lat="42.75128933128765" lon="3.0217091433471435"><ele>2.3333333333333335</ele><time>2026-04-09T14:30:08Z</time></trkpt><trkpt lat="42.75147468771948" lon="3.0216670154183287"><ele>1.6666666666666665</ele><time>2026-04-09T14:30:09Z</time></trkpt><trkpt lat="42.75166125000239" lon="3.021626282590817"><ele>1.0</ele><time>2026-04-09T14:30:10Z</time></trkpt><trkpt lat="42.751842479555144" lon="3.021586326295373"><ele>0.3333333333333333</ele><time>2026-04-09T14:30:11Z</time></trkpt><trkpt lat="42.75202302293706" lon="3.021545876779437"><ele>-0.3333333333333333</ele><time>2026-04-09T14:30:12Z</time></trkpt><trkpt lat="42.75220420233536" lon="3.0215075944214194"><ele>-1.0</ele><time>2026-04-09T14:30:13Z</time></trkpt><trkpt lat="42.75238484376602" lon="3.021466094658607"><ele>-1.0</ele><time>2026-04-09T14:30:14Z</time></trkpt><trkpt lat="42.75256609054811" lon="3.0214255603554325"><ele>-1.0</ele><time>2026-04-09T14:30:15Z</time></trkpt><trkpt lat="42.75274741184159" lon="3.021386573844122"><ele>-1.0</ele><time>2026-04-09T14:30:16Z</time></trkpt><trkpt lat="42.75292664241952" lon="3.0213492529165844"><ele>-0.6666666666666666</ele><time>2026-04-09T14:30:17Z</time></trkpt><trkpt lat="42.75310655477152" lon="3.0213102336734043"><ele>-0.3333333333333333</ele><time>2026-04-09T14:30:18Z</time></trkpt><trkpt lat="42.753286650291535" lon="3.021270087597622"><ele>0.0</ele><time>2026-04-09T14:30:19Z</time></trkpt><trkpt lat="42.753468122808904" lon="3.021230767535808"><ele>0.0</ele><time>2026-04-09T14:30:20Z</time></trkpt><trkpt lat="42.753652354019735" lon="3.0211893847730042"><ele>0.0</ele><time>2026-04-09T14:30:21Z</time></trkpt><trkpt lat="42.75383869116887" lon="3.021148241644514"><ele>0.0</ele><time>2026-04-09T14:30:22Z</time></trkpt><trkpt lat="42.75402395173523" lon="3.021107515963863"><ele>0.0</ele><time>2026-04-09T14:30:23Z</time></trkpt><trkpt lat="42.75420899081226" lon="3.0210649694295686"><ele>0.0</ele><time>2026-04-09T14:30:24Z</time></trkpt><trkpt lat="42.75439409782053" lon="3.021022982864722"><ele>0.0</ele><time>2026-04-09T14:30:25Z</time></trkpt><trkpt lat="42.75457866332846" lon="3.020982000798608"><ele>0.3333333333333333</ele><time>2026-04-09T14:30:26Z</time></trkpt><trkpt lat="42.75476335895608" lon="3.0209420018940127"><ele>0.6666666666666666</ele><time>2026-04-09T14:30:27Z</time></trkpt><trkpt lat="42.75494928268783" lon="3.0209022016870923"><ele>1.0</ele><time>2026-04-09T14:30:28Z</time></trkpt><trkpt lat="42.75513573298774" lon="3.0208610681965253"><ele>1.0</ele><time>2026-04-09T14:30:29Z</time></trkpt><trkpt lat="42.75532188994443" lon="3.0208199744322948"><ele>1.0</ele><time>2026-04-09T14:30:30Z</time></trkpt><trkpt lat="42.75550875226966" lon="3.020779250621311"><ele>1.0</ele><time>2026-04-09T14:30:31Z</time></trkpt><trkpt lat="42.75569335304174" lon="3.0207377733692606"><ele>1.0</ele><time>2026-04-09T14:30:32Z</time></trkpt><trkpt lat="42.75587773954255" lon="3.020695077454736"><ele>1.0</ele><time>2026-04-09T14:30:33Z</time></trkpt><trkpt lat="42.756062742170315" lon="3.0206547581144356"><ele>1.0</ele><time>2026-04-09T14:30:34Z</time></trkpt><trkpt lat="42.756247913647556" lon="3.0206158784878685"><ele>1.0</ele><time>2026-04-09T14:30:35Z</time></trkpt><trkpt lat="42.75643298015762" lon="3.0205746569077774"><ele>1.0</ele><time>2026-04-09T14:30:36Z</time></trkpt><trkpt lat="42.75661740448086" lon="3.020535005215794"><ele>1.0</ele><time>2026-04-09T14:30:37Z</time></trkpt><trkpt lat="42.75680249914401" lon="3.020494864419755"><ele>0.6666666666666666</ele><time>2026-04-09T14:30:38Z</time></trkpt><trkpt lat="42.75698767837213" lon="3.0204532082301077"><ele>0.3333333333333333</ele><time>2026-04-09T14:30:39Z</time></trkpt><trkpt lat="42.75717256476166" lon="3.02041152971301"><ele>0.0</ele><time>2026-04-09T14:30:40Z</time></trkpt><trkpt lat="42.757355916033625" lon="3.020370539339296"><ele>0.0</ele><time>2026-04-09T14:30:41Z</time></trkpt><trkpt lat="42.75753852620199" lon="3.0203299200565272"><ele>0.0</ele><time>2026-04-09T14:30:42Z</time></trkpt><trkpt lat="42.7577224137262" lon="3.020289526107058"><ele>0.0</ele><time>2026-04-09T14:30:43Z</time></trkpt><trkpt lat="42.7579064409142" lon="3.020249846085439"><ele>0.3333333333333333</ele><time>2026-04-09T14:30:44Z</time></trkpt><trkpt lat="42.75808897561463" lon="3.020209219470207"><ele>0.6666666666666666</ele><time>2026-04-09T14:30:45Z</time></trkpt><trkpt lat="42.75827186163118" lon="3.020169840485428"><ele>1.0</ele><time>2026-04-09T14:30:46Z</time></trkpt><trkpt lat="42.758455742973766" lon="3.0201300393759825"><ele>0.6666666666666666</ele><time>2026-04-09T14:30:47Z</time></trkpt><trkpt lat="42.758641063386634" lon="3.0200895804702284"><ele>0.3333333333333333</ele><time>2026-04-09T14:30:48Z</time></trkpt><trkpt lat="42.758826074547386" lon="3.0200481006229687"><ele>0.0</ele><time>2026-04-09T14:30:49Z</time></trkpt><trkpt lat="42.75900902652942" lon="3.0200061759077057"><ele>0.0</ele><time>2026-04-09T14:30:50Z</time></trkpt><trkpt lat="42.759188056716965" lon="3.0199672653801692"><ele>0.0</ele><time>2026-04-09T14:30:51Z</time></trkpt><trkpt lat="42.7593643674562" lon="3.0199292408360208"><ele>0.0</ele><time>2026-04-09T14:30:52Z</time></trkpt><trkpt lat="42.759537757523454" lon="3.019892935122984"><ele>0.6666666666666666</ele><time>2026-04-09T14:30:53Z</time></trkpt><trkpt lat="42.75970787600425" lon="3.019859325992087"><ele>1.3333333333333333</ele><time>2026-04-09T14:30:54Z</time></trkpt><trkpt lat="42.75987681222229" lon="3.019830900392447"><ele>2.0</ele><time>2026-04-09T14:30:55Z</time></trkpt><trkpt lat="42.760041031752806" lon="3.0198028874347873"><ele>2.0</ele><time>2026-04-09T14:30:56Z</time></trkpt><trkpt lat="42.76020444260811" lon="3.0197763530305513"><ele>2.0</ele><time>2026-04-09T14:30:57Z</time></trkpt><trkpt lat="42.760364755523995" lon="3.019749459558541"><ele>2.0</ele><time>2026-04-09T14:30:58Z</time></trkpt><trkpt lat="42.76051969166426" lon="3.0197235142051118"><ele>2.0</ele><time>2026-04-09T14:30:59Z</time></trkpt><trkpt lat="42.760670727381076" lon="3.0196978547320534"><ele>2.0</ele><time>2026-04-09T14:31:00Z</time></trkpt><trkpt lat="42.76081841800972" lon="3.0196721839126877"><ele>2.0</ele><time>2026-04-09T14:31:01Z</time></trkpt><trkpt lat="42.760960929156326" lon="3.0196478140590823"><ele>2.0</ele><time>2026-04-09T14:31:02Z</time></trkpt><trkpt lat="42.76109670759643" lon="3.019624788859505"><ele>2.0</ele><time>2026-04-09T14:31:03Z</time></trkpt><trkpt lat="42.7612223003348" lon="3.019602548657299"><ele>2.0</ele><time>2026-04-09T14:31:04Z</time></trkpt><trkpt lat="42.7613398832778" lon="3.019580209741054"><ele>2.0</ele><time>2026-04-09T14:31:05Z</time></trkpt><trkpt lat="42.761449845167036" lon="3.019560117758979"><ele>2.0</ele><time>2026-04-09T14:31:06Z</time></trkpt><trkpt lat="42.76154787445506" lon="3.019544869740616"><ele>1.9999999999999998</ele><time>2026-04-09T14:31:07Z</time></trkpt><trkpt lat="42.76162876665497" lon="3.0195366355358164"><ele>2.0</ele><time>2026-04-09T14:31:08Z</time></trkpt><trkpt lat="42.761720483570144" lon="3.019542518477141"><ele>2.0</ele><time>2026-04-09T14:31:10Z</time></trkpt><trkpt lat="42.76179002946841" lon="3.0195611575515837"><ele>2.0</ele><time>2026-04-09T14:31:13Z</time></trkpt><trkpt lat="42.7618853680276" lon="3.019641524134052"><ele>1.9999999999999998</ele><time>2026-04-09T14:31:15Z</time></trkpt><trkpt lat="42.761932558068764" lon="3.019702956233546"><ele>2.0</ele><time>2026-04-09T14:31:16Z</time></trkpt><trkpt lat="42.762001112367535" lon="3.0197552596321633"><ele>1.8333333333333333</ele><time>2026-04-09T14:31:17Z</time></trkpt><trkpt lat="42.76207842051664" lon="3.0197776986301963"><ele>1.6666666666666665</ele><time>2026-04-09T14:31:18Z</time></trkpt><trkpt lat="42.76215742834082" lon="3.0197732892187172"><ele>1.5</ele><time>2026-04-09T14:31:19Z</time></trkpt><trkpt lat="42.76223749672186" lon="3.019739309806724"><ele>1.3333333333333333</ele><time>2026-04-09T14:31:20Z</time></trkpt><trkpt lat="42.76230544735291" lon="3.0196728445156307"><ele>1.1666666666666665</ele><time>2026-04-09T14:31:21Z</time></trkpt><trkpt lat="42.76235876863929" lon="3.019582671133286"><ele>1.0</ele><time>2026-04-09T14:31:22Z</time></trkpt><trkpt lat="42.762408150699535" lon="3.019484072103777"><ele>1.0</ele><time>2026-04-09T14:31:23Z</time></trkpt><trkpt lat="42.76247847450494" lon="3.0193936270896597"><ele>1.0</ele><time>2026-04-09T14:31:24Z</time></trkpt><trkpt lat="42.76257108135776" lon="3.0193284259624726"><ele>1.0</ele><time>2026-04-09T14:31:25Z</time></trkpt><trkpt lat="42.76268341562128" lon="3.0192941875121813"><ele>1.0</ele><time>2026-04-09T14:31:26Z</time></trkpt><trkpt lat="42.76280638009446" lon="3.0192718761187964"><ele>1.0</ele><time>2026-04-09T14:31:27Z</time></trkpt><trkpt lat="42.7629418563744" lon="3.0192401431233558"><ele>1.0</ele><time>2026-04-09T14:31:28Z</time></trkpt><trkpt lat="42.76308744707496" lon="3.019203770539808"><ele>1.0</ele><time>2026-04-09T14:31:29Z</time></trkpt><trkpt lat="42.763243001406835" lon="3.019158164247023"><ele>1.0</ele><time>2026-04-09T14:31:30Z</time></trkpt><trkpt lat="42.763400183362734" lon="3.019113642433299"><ele>0.6666666666666666</ele><time>2026-04-09T14:31:31Z</time></trkpt><trkpt lat="42.76355868348548" lon="3.0190681226492706"><ele>0.3333333333333333</ele><time>2026-04-09T14:31:32Z</time></trkpt><trkpt lat="42.763724057207924" lon="3.01902342334675"><ele>0.0</ele><time>2026-04-09T14:31:33Z</time></trkpt><trkpt lat="42.76389565377965" lon="3.0189766551587662"><ele>0.0</ele><time>2026-04-09T14:31:34Z</time></trkpt><trkpt lat="42.76407219019912" lon="3.018928332394028"><ele>0.0</ele><time>2026-04-09T14:31:35Z</time></trkpt><trkpt lat="42.764256604422314" lon="3.0188771530287632"><ele>0.0</ele><time>2026-04-09T14:31:36Z</time></trkpt><trkpt lat="42.76443662529896" lon="3.0188279134458167"><ele>0.0</ele><time>2026-04-09T14:31:37Z</time></trkpt><trkpt lat="42.76462045728891" lon="3.0187806934082597"><ele>0.0</ele><time>2026-04-09T14:31:38Z</time></trkpt><trkpt lat="42.76480963856425" lon="3.018733018298321"><ele>0.0</ele><time>2026-04-09T14:31:39Z</time></trkpt><trkpt lat="42.76500216861397" lon="3.0186889467556544"><ele>0.6666666666666666</ele><time>2026-04-09T14:31:40Z</time></trkpt><trkpt lat="42.76519685883896" lon="3.0186433280936065"><ele>1.3333333333333333</ele><time>2026-04-09T14:31:41Z</time></trkpt><trkpt lat="42.76539435944303" lon="3.0186008391631733"><ele>2.0</ele><time>2026-04-09T14:31:42Z</time></trkpt><trkpt lat="42.765593074301464" lon="3.0185565759327604"><ele>2.0</ele><time>2026-04-09T14:31:43Z</time></trkpt><trkpt lat="42.765790730712055" lon="3.0185113073079757"><ele>2.0</ele><time>2026-04-09T14:31:44Z</time></trkpt><trkpt lat="42.76599093180048" lon="3.018468561609419"><ele>2.0</ele><time>2026-04-09T14:31:45Z</time></trkpt><trkpt lat="42.766190381327306" lon="3.0184252425656846"><ele>2.0</ele><time>2026-04-09T14:31:46Z</time></trkpt><trkpt lat="42.766389211643826" lon="3.018383044142449"><ele>2.0</ele><time>2026-04-09T14:31:47Z</time></trkpt><trkpt lat="42.76658726315017" lon="3.018339291018932"><ele>2.0</ele><time>2026-04-09T14:31:48Z</time></trkpt><trkpt lat="42.76678492876218" lon="3.018295728225289"><ele>1.6666666666666665</ele><time>2026-04-09T14:31:49Z</time></trkpt><trkpt lat="42.76698282414157" lon="3.0182510137701186"><ele>1.3333333333333333</ele><time>2026-04-09T14:31:50Z</time></trkpt><trkpt lat="42.76718007171251" lon="3.018206298524156"><ele>1.0</ele><time>2026-04-09T14:31:51Z</time></trkpt><trkpt lat="42.767376718215544" lon="3.018161459037975"><ele>1.0</ele><time>2026-04-09T14:31:52Z</time></trkpt><trkpt lat="42.767572429631784" lon="3.018117033324372"><ele>1.0</ele><time>2026-04-09T14:31:53Z</time></trkpt><trkpt lat="42.7677680437489" lon="3.0180737151991273"><ele>1.0</ele><time>2026-04-09T14:31:54Z</time></trkpt><trkpt lat="42.76796260676307" lon="3.0180305977526487"><ele>1.0</ele><time>2026-04-09T14:31:55Z</time></trkpt><trkpt lat="42.7681569520493" lon="3.017988880159153"><ele>1.0</ele><time>2026-04-09T14:31:56Z</time></trkpt><trkpt lat="42.768349274401544" lon="3.0179466418953416"><ele>1.0</ele><time>2026-04-09T14:31:57Z</time></trkpt><trkpt lat="42.76854316007309" lon="3.017904061966511"><ele>1.6666666666666665</ele><time>2026-04-09T14:31:58Z</time></trkpt><trkpt lat="42.76873518023626" lon="3.0178594459682375"><ele>2.3333333333333335</ele><time>2026-04-09T14:31:59Z</time></trkpt><trkpt lat="42.76892768565845" lon="3.017814904107736"><ele>3.0</ele><time>2026-04-09T14:32:00Z</time></trkpt><trkpt lat="42.7691201169328" lon="3.0177709608084125"><ele>3.0</ele><time>2026-04-09T14:32:01Z</time></trkpt><trkpt lat="42.76931275900895" lon="3.0177272963829362"><ele>3.0</ele><time>2026-04-09T14:32:02Z</time></trkpt><trkpt lat="42.769506456510015" lon="3.017684079990798"><ele>3.0</ele><time>2026-04-09T14:32:03Z</time></trkpt><trkpt lat="42.76969847303592" lon="3.01764280028184"><ele>3.0</ele><time>2026-04-09T14:32:04Z</time></trkpt><trkpt lat="42.769888745866915" lon="3.017601563972578"><ele>3.0</ele><time>2026-04-09T14:32:05Z</time></trkpt><trkpt lat="42.77007909054683" lon="3.017561212433757"><ele>3.0</ele><time>2026-04-09T14:32:06Z</time></trkpt><trkpt lat="42.77026643828638" lon="3.0175201255506385"><ele>2.6666666666666665</ele><time>2026-04-09T14:32:07Z</time></trkpt><trkpt lat="42.77045223105768" lon="3.017478895744384"><ele>2.333333333333333</ele><time>2026-04-09T14:32:08Z</time></trkpt><trkpt lat="42.7706377435111" lon="3.017439019726509"><ele>2.0</ele><time>2026-04-09T14:32:09Z</time></trkpt><trkpt lat="42.77082156381814" lon="3.0173993806548927"><ele>2.0</ele><time>2026-04-09T14:32:10Z</time></trkpt><trkpt lat="42.77100308270352" lon="3.0173595399858084"><ele>2.0</ele><time>2026-04-09T14:32:11Z</time></trkpt><trkpt lat="42.77118365952532" lon="3.0173199757750497"><ele>2.0</ele><time>2026-04-09T14:32:12Z</time></trkpt><trkpt lat="42.771363123566736" lon="3.0172815076975694"><ele>2.333333333333333</ele><time>2026-04-09T14:32:13Z</time></trkpt><trkpt lat="42.77154252226868" lon="3.01724059274289"><ele>2.6666666666666665</ele><time>2026-04-09T14:32:14Z</time></trkpt><trkpt lat="42.77172166153539" lon="3.017199758291112"><ele>3.0</ele><time>2026-04-09T14:32:15Z</time></trkpt><trkpt lat="42.77190021709487" lon="3.017159857377638"><ele>3.0</ele><time>2026-04-09T14:32:16Z</time></trkpt><trkpt lat="42.7720789807189" lon="3.0171199684382017"><ele>3.0</ele><time>2026-04-09T14:32:17Z</time></trkpt><trkpt lat="42.77225800282404" lon="3.017081674379703"><ele>3.0</ele><time>2026-04-09T14:32:18Z</time></trkpt><trkpt lat="42.7724376521415" lon="3.0170421108193874"><ele>3.0</ele><time>2026-04-09T14:32:19Z</time></trkpt><trkpt lat="42.77261700515111" lon="3.01700331776586"><ele>3.0</ele><time>2026-04-09T14:32:20Z</time></trkpt><trkpt lat="42.7727974826653" lon="3.0169631665097247"><ele>3.0</ele><time>2026-04-09T14:32:21Z</time></trkpt><trkpt lat="42.772978834176286" lon="3.0169234655753394"><ele>3.0</ele><time>2026-04-09T14:32:22Z</time></trkpt><trkpt lat="42.77315988622067" lon="3.0168829366010623"><ele>3.0</ele><time>2026-04-09T14:32:23Z</time></trkpt><trkpt lat="42.77334159042488" lon="3.016843494371669"><ele>3.0</ele><time>2026-04-09T14:32:24Z</time></trkpt><trkpt lat="42.773522555577514" lon="3.016804188443876"><ele>2.6666666666666665</ele><time>2026-04-09T14:32:25Z</time></trkpt><trkpt lat="42.77370400609236" lon="3.016764780526194"><ele>2.333333333333333</ele><time>2026-04-09T14:32:26Z</time></trkpt><trkpt lat="42.77388318132026" lon="3.0167263953426517"><ele>2.0</ele><time>2026-04-09T14:32:27Z</time></trkpt><trkpt lat="42.77406033936222" lon="3.016687006981729"><ele>2.0</ele><time>2026-04-09T14:32:28Z</time></trkpt><trkpt lat="42.77423684914485" lon="3.0166481375858534"><ele>2.0</ele><time>2026-04-09T14:32:29Z</time></trkpt><trkpt lat="42.77441336990332" lon="3.0166102391622363"><ele>2.0</ele><time>2026-04-09T14:32:30Z</time></trkpt><trkpt lat="42.77458691027735" lon="3.016571339088613"><ele>2.0</ele><time>2026-04-09T14:32:31Z</time></trkpt><trkpt lat="42.77475987445915" lon="3.0165329437063293"><ele>2.0</ele><time>2026-04-09T14:32:32Z</time></trkpt><trkpt lat="42.77493512138113" lon="3.016493743630717"><ele>2.0</ele><time>2026-04-09T14:32:33Z</time></trkpt><trkpt lat="42.7751084153352" lon="3.016453642097949"><ele>2.0</ele><time>2026-04-09T14:32:34Z</time></trkpt><trkpt lat="42.77528178672858" lon="3.0164157862844405"><ele>2.0</ele><time>2026-04-09T14:32:35Z</time></trkpt><trkpt lat="42.7754486808308" lon="3.0163783869986824"><ele>2.0</ele><time>2026-04-09T14:32:36Z</time></trkpt><trkpt lat="42.77561144770762" lon="3.0163417367736063"><ele>2.0</ele><time>2026-04-09T14:32:37Z</time></trkpt><trkpt lat="42.77576864272044" lon="3.0163070058411976"><ele>2.0</ele><time>2026-04-09T14:32:38Z</time></trkpt><trkpt lat="42.77592669682506" lon="3.0162721224264697"><ele>2.0</ele><time>2026-04-09T14:32:39Z</time></trkpt><trkpt lat="42.776084387797454" lon="3.0162387631311143"><ele>2.333333333333333</ele><time>2026-04-09T14:32:40Z</time></trkpt><trkpt lat="42.77623716479836" lon="3.0162057638482573"><ele>2.6666666666666665</ele><time>2026-04-09T14:32:41Z</time></trkpt><trkpt lat="42.77638718911247" lon="3.016187099012607"><ele>3.0</ele><time>2026-04-09T14:32:42Z</time></trkpt><trkpt lat="42.77653983027341" lon="3.016153939253562"><ele>3.0</ele><time>2026-04-09T14:32:43Z</time></trkpt><trkpt lat="42.77669520471481" lon="3.01612040382557"><ele>3.0</ele><time>2026-04-09T14:32:44Z</time></trkpt><trkpt lat="42.77685371772787" lon="3.0160861963452126"><ele>3.0</ele><time>2026-04-09T14:32:45Z</time></trkpt><trkpt lat="42.777016384062925" lon="3.0160506218539926"><ele>3.0</ele><time>2026-04-09T14:32:46Z</time></trkpt><trkpt lat="42.77717999492232" lon="3.016015360696779"><ele>3.0</ele><time>2026-04-09T14:32:47Z</time></trkpt><trkpt lat="42.77734757059388" lon="3.015979536492668"><ele>3.0</ele><time>2026-04-09T14:32:48Z</time></trkpt><trkpt lat="42.77751414724294" lon="3.0159421427646462"><ele>3.0</ele><time>2026-04-09T14:32:49Z</time></trkpt><trkpt lat="42.77768020251798" lon="3.01590703755922"><ele>3.0</ele><time>2026-04-09T14:32:50Z</time></trkpt><trkpt lat="42.777847450145195" lon="3.0158702352702127"><ele>3.0</ele><time>2026-04-09T14:32:51Z</time></trkpt><trkpt lat="42.778012578183834" lon="3.015831552065008"><ele>2.6666666666666665</ele><time>2026-04-09T14:32:52Z</time></trkpt><trkpt lat="42.77817649864379" lon="3.0157936042842155"><ele>2.333333333333333</ele><time>2026-04-09T14:32:53Z</time></trkpt><trkpt lat="42.778338780225816" lon="3.0157578772420295"><ele>2.0</ele><time>2026-04-09T14:32:54Z</time></trkpt><trkpt lat="42.778501072160076" lon="3.015723222684168"><ele>2.333333333333333</ele><time>2026-04-09T14:32:55Z</time></trkpt><trkpt lat="42.7786638313033" lon="3.015688034804741"><ele>2.6666666666666665</ele><time>2026-04-09T14:32:56Z</time></trkpt><trkpt lat="42.778830863386716" lon="3.0156530626854194"><ele>3.0</ele><time>2026-04-09T14:32:57Z</time></trkpt><trkpt lat="42.778998357058235" lon="3.0156159037853643"><ele>3.0</ele><time>2026-04-09T14:32:58Z</time></trkpt><trkpt lat="42.77916488027862" lon="3.0155787488882706"><ele>3.0</ele><time>2026-04-09T14:32:59Z</time></trkpt><trkpt lat="42.779332875751486" lon="3.0155416373100055"><ele>3.0</ele><time>2026-04-09T14:33:00Z</time></trkpt><trkpt lat="42.77949948817778" lon="3.0155046618979537"><ele>3.0</ele><time>2026-04-09T14:33:01Z</time></trkpt><trkpt lat="42.77966625423156" lon="3.0154676615186293"><ele>3.0</ele><time>2026-04-09T14:33:02Z</time></trkpt><trkpt lat="42.779833021945045" lon="3.0154303515243925"><ele>3.0</ele><time>2026-04-09T14:33:03Z</time></trkpt><trkpt lat="42.78000370683394" lon="3.0153924012996525"><ele>3.0</ele><time>2026-04-09T14:33:04Z</time></trkpt><trkpt lat="42.780175100455686" lon="3.01535342784202"><ele>3.0</ele><time>2026-04-09T14:33:05Z</time></trkpt><trkpt lat="42.780348128471815" lon="3.015316474081852"><ele>3.0</ele><time>2026-04-09T14:33:06Z</time></trkpt><trkpt lat="42.78052335644373" lon="3.015279164374412"><ele>3.0</ele><time>2026-04-09T14:33:07Z</time></trkpt><trkpt lat="42.78070082594743" lon="3.0152417688812627"><ele>3.0</ele><time>2026-04-09T14:33:08Z</time></trkpt><trkpt lat="42.78087734552982" lon="3.015203338933612"><ele>3.0</ele><time>2026-04-09T14:33:09Z</time></trkpt><trkpt lat="42.781052433145064" lon="3.0151667040191925"><ele>2.6666666666666665</ele><time>2026-04-09T14:33:10Z</time></trkpt><trkpt lat="42.7812240085157" lon="3.0151297463303486"><ele>2.333333333333333</ele><time>2026-04-09T14:33:11Z</time></trkpt><trkpt lat="42.78139373621284" lon="3.015093796144258"><ele>2.0</ele><time>2026-04-09T14:33:12Z</time></trkpt><trkpt lat="42.78156193626627" lon="3.015057896629403"><ele>2.0</ele><time>2026-04-09T14:33:13Z</time></trkpt><trkpt lat="42.781730737443716" lon="3.015021331403415"><ele>2.0</ele><time>2026-04-09T14:33:14Z</time></trkpt><trkpt lat="42.78190126301043" lon="3.014983386858699"><ele>2.0</ele><time>2026-04-09T14:33:15Z</time></trkpt><trkpt lat="42.78207289492724" lon="3.0149495550609986"><ele>2.0</ele><time>2026-04-09T14:33:16Z</time></trkpt><trkpt lat="42.782244021684825" lon="3.014920760310912"><ele>2.0</ele><time>2026-04-09T14:33:17Z</time></trkpt><trkpt lat="42.78241596048448" lon="3.0148903136826126"><ele>2.0</ele><time>2026-04-09T14:33:18Z</time></trkpt><trkpt lat="42.78258869651072" lon="3.014855935894168"><ele>1.3333333333333333</ele><time>2026-04-09T14:33:19Z</time></trkpt><trkpt lat="42.78276288336921" lon="3.0148196668808116"><ele>0.6666666666666666</ele><time>2026-04-09T14:33:20Z</time></trkpt><trkpt lat="42.78293682164567" lon="3.0147830299656393"><ele>0.0</ele><time>2026-04-09T14:33:21Z</time></trkpt><trkpt lat="42.783109972146455" lon="3.014748025774631"><ele>0.0</ele><time>2026-04-09T14:33:22Z</time></trkpt><trkpt lat="42.78328137453443" lon="3.014714378862918"><ele>0.0</ele><time>2026-04-09T14:33:23Z</time></trkpt><trkpt lat="42.783450508811924" lon="3.0146886193553164"><ele>0.0</ele><time>2026-04-09T14:33:24Z</time></trkpt><trkpt lat="42.78361981204056" lon="3.01467568099403"><ele>0.3333333333333333</ele><time>2026-04-09T14:33:25Z</time></trkpt><trkpt lat="42.783790719456775" lon="3.0146707106284887"><ele>0.6666666666666666</ele><time>2026-04-09T14:33:26Z</time></trkpt><trkpt lat="42.78396371151716" lon="3.014679426996628"><ele>1.0</ele><time>2026-04-09T14:33:27Z</time></trkpt><trkpt lat="42.78413854716746" lon="3.0147049908188706"><ele>1.0</ele><time>2026-04-09T14:33:28Z</time></trkpt><trkpt lat="42.78431138034595" lon="3.0147588703231603"><ele>1.0</ele><time>2026-04-09T14:33:29Z</time></trkpt><trkpt lat="42.78448218037775" lon="3.014832003597263"><ele>1.0</ele><time>2026-04-09T14:33:30Z</time></trkpt><trkpt lat="42.78465122038984" lon="3.014923022721326"><ele>1.3333333333333333</ele><time>2026-04-09T14:33:31Z</time></trkpt><trkpt lat="42.78481994344667" lon="3.015023624111559"><ele>1.6666666666666665</ele><time>2026-04-09T14:33:32Z</time></trkpt><trkpt lat="42.784987306743666" lon="3.01512892225338"><ele>2.0</ele><time>2026-04-09T14:33:33Z</time></trkpt><trkpt lat="42.78515040558696" lon="3.0152421523098707"><ele>1.6666666666666665</ele><time>2026-04-09T14:33:34Z</time></trkpt><trkpt lat="42.78531019580522" lon="3.015360545502643"><ele>1.3333333333333333</ele><time>2026-04-09T14:33:35Z</time></trkpt><trkpt lat="42.78546687337985" lon="3.0154854880226662"><ele>1.0</ele><time>2026-04-09T14:33:36Z</time></trkpt><trkpt lat="42.78561845722525" lon="3.0156198570530344"><ele>1.0</ele><time>2026-04-09T14:33:37Z</time></trkpt><trkpt lat="42.78576140434281" lon="3.0157651358358795"><ele>1.0</ele><time>2026-04-09T14:33:38Z</time></trkpt><trkpt lat="42.78589833546126" lon="3.015925323799315"><ele>1.0</ele><time>2026-04-09T14:33:39Z</time></trkpt><trkpt lat="42.78602997287666" lon="3.0160991207915413"><ele>1.0</ele><time>2026-04-09T14:33:40Z</time></trkpt><trkpt lat="42.78615581458501" lon="3.0162851621538227"><ele>1.0</ele><time>2026-04-09T14:33:41Z</time></trkpt><trkpt lat="42.78627332110051" lon="3.016483107075905"><ele>1.0</ele><time>2026-04-09T14:33:42Z</time></trkpt><trkpt lat="42.78638359201751" lon="3.016691306560639"><ele>1.0</ele><time>2026-04-09T14:33:43Z</time></trkpt><trkpt lat="42.78648671202152" lon="3.016908486886572"><ele>1.0</ele><time>2026-04-09T14:33:44Z</time></trkpt><trkpt lat="42.786579521638735" lon="3.0171349160730485"><ele>1.0</ele><time>2026-04-09T14:33:45Z</time></trkpt><trkpt lat="42.786660911828385" lon="3.017369331753966"><ele>1.0</ele><time>2026-04-09T14:33:46Z</time></trkpt><trkpt lat="42.78673153058603" lon="3.017609835985349"><ele>1.0</ele><time>2026-04-09T14:33:47Z</time></trkpt><trkpt lat="42.786792358923215" lon="3.017856664510379"><ele>1.0</ele><time>2026-04-09T14:33:48Z</time></trkpt><trkpt lat="42.78685256571356" lon="3.018104040672135"><ele>1.3333333333333333</ele><time>2026-04-09T14:33:49Z</time></trkpt><trkpt lat="42.78691556821649" lon="3.0183494815476397"><ele>1.6666666666666665</ele><time>2026-04-09T14:33:50Z</time></trkpt><trkpt lat="42.78698208735703" lon="3.018593553215452"><ele>2.0</ele><time>2026-04-09T14:33:51Z</time></trkpt><trkpt lat="42.78705479096129" lon="3.0188357780801494"><ele>2.0</ele><time>2026-04-09T14:33:52Z</time></trkpt><trkpt lat="42.787136107936085" lon="3.019073317688978"><ele>2.0</ele><time>2026-04-09T14:33:53Z</time></trkpt><trkpt lat="42.78722267909622" lon="3.0193087517764448"><ele>2.0</ele><time>2026-04-09T14:33:54Z</time></trkpt><trkpt lat="42.787309119707245" lon="3.0195444455793345"><ele>2.0</ele><time>2026-04-09T14:33:55Z</time></trkpt><trkpt lat="42.78740047550727" lon="3.0197797909892716"><ele>2.0</ele><time>2026-04-09T14:33:56Z</time></trkpt><trkpt lat="42.78749433163922" lon="3.0200115246819954"><ele>2.0</ele><time>2026-04-09T14:33:57Z</time></trkpt><trkpt lat="42.78759117285216" lon="3.020238320733171"><ele>1.6666666666666665</ele><time>2026-04-09T14:33:58Z</time></trkpt><trkpt lat="42.787691342179485" lon="3.020458955917331"><ele>1.3333333333333333</ele><time>2026-04-09T14:33:59Z</time></trkpt><trkpt lat="42.78779501189559" lon="3.0206758450286846"><ele>1.0</ele><time>2026-04-09T14:34:00Z</time></trkpt><trkpt lat="42.78790264651935" lon="3.020890610364049"><ele>1.0</ele><time>2026-04-09T14:34:01Z</time></trkpt><trkpt lat="42.78801311237146" lon="3.0211026720113363"><ele>1.0</ele><time>2026-04-09T14:34:02Z</time></trkpt><trkpt lat="42.788128412394094" lon="3.021310924206137"><ele>1.0</ele><time>2026-04-09T14:34:03Z</time></trkpt><trkpt lat="42.7882471706497" lon="3.0215169698772595"><ele>1.0</ele><time>2026-04-09T14:34:04Z</time></trkpt><trkpt lat="42.78837141173837" lon="3.0217171900958077"><ele>1.0</ele><time>2026-04-09T14:34:05Z</time></trkpt><trkpt lat="42.78850052547781" lon="3.021911969434264"><ele>1.0</ele><time>2026-04-09T14:34:06Z</time></trkpt><trkpt lat="42.78863279654428" lon="3.0221024508509364"><ele>1.0</ele><time>2026-04-09T14:34:07Z</time></trkpt><trkpt lat="42.788769076427016" lon="3.022286354366569"><ele>1.0</ele><time>2026-04-09T14:34:08Z</time></trkpt><trkpt lat="42.78890897405878" lon="3.0224656443270663"><ele>1.0</ele><time>2026-04-09T14:34:09Z</time></trkpt><trkpt lat="42.78905208583041" lon="3.0226392044499337"><ele>1.6666666666666665</ele><time>2026-04-09T14:34:10Z</time></trkpt><trkpt lat="42.78919651620154" lon="3.022808704405272"><ele>2.3333333333333335</ele><time>2026-04-09T14:34:11Z</time></trkpt><trkpt lat="42.78934444783033" lon="3.02297136363772"><ele>3.0</ele><time>2026-04-09T14:34:12Z</time></trkpt><trkpt lat="42.789495066776254" lon="3.023127227632502"><ele>3.0</ele><time>2026-04-09T14:34:13Z</time></trkpt><trkpt lat="42.789647702089106" lon="3.023277374813699"><ele>3.0</ele><time>2026-04-09T14:34:14Z</time></trkpt><trkpt lat="42.789802917796536" lon="3.023423133181138"><ele>3.0</ele><time>2026-04-09T14:34:15Z</time></trkpt><trkpt lat="42.78996230893141" lon="3.023563833043227"><ele>2.6666666666666665</ele><time>2026-04-09T14:34:16Z</time></trkpt><trkpt lat="42.79012513182578" lon="3.023698748421901"><ele>2.333333333333333</ele><time>2026-04-09T14:34:17Z</time></trkpt><trkpt lat="42.79029024808892" lon="3.023828435352699"><ele>2.0</ele><time>2026-04-09T14:34:18Z</time></trkpt><trkpt lat="42.79045948070101" lon="3.0239528766776957"><ele>2.0</ele><time>2026-04-09T14:34:19Z</time></trkpt><trkpt lat="42.79063364292979" lon="3.0240712231866462"><ele>2.0</ele><time>2026-04-09T14:34:20Z</time></trkpt><trkpt lat="42.790809874306596" lon="3.024183829406783"><ele>2.0</ele><time>2026-04-09T14:34:21Z</time></trkpt><trkpt lat="42.79098907032071" lon="3.024291554563654"><ele>2.0</ele><time>2026-04-09T14:34:22Z</time></trkpt><trkpt lat="42.79117386739689" lon="3.0243967980749593"><ele>2.0</ele><time>2026-04-09T14:34:23Z</time></trkpt><trkpt lat="42.79136115143882" lon="3.0245000257562222"><ele>2.0</ele><time>2026-04-09T14:34:24Z</time></trkpt><trkpt lat="42.79155134137597" lon="3.0245969050599553"><ele>2.0</ele><time>2026-04-09T14:34:25Z</time></trkpt><trkpt lat="42.791743404957344" lon="3.024689347296978"><ele>2.0</ele><time>2026-04-09T14:34:26Z</time></trkpt><trkpt lat="42.79193580242477" lon="3.0247787579886523"><ele>2.0</ele><time>2026-04-09T14:34:27Z</time></trkpt><trkpt lat="42.792127657978995" lon="3.0248609088823217"><ele>1.6666666666666665</ele><time>2026-04-09T14:34:28Z</time></trkpt><trkpt lat="42.79232424013097" lon="3.0249449738744194"><ele>1.3333333333333333</ele><time>2026-04-09T14:34:29Z</time></trkpt><trkpt lat="42.79252374789331" lon="3.025024168971567"><ele>1.0</ele><time>2026-04-09T14:34:30Z</time></trkpt><trkpt lat="42.792724810270855" lon="3.025104147539356"><ele>1.6666666666666665</ele><time>2026-04-09T14:34:31Z</time></trkpt><trkpt lat="42.79292717186992" lon="3.025186483251032"><ele>2.3333333333333335</ele><time>2026-04-09T14:34:32Z</time></trkpt><trkpt lat="42.793130574297734" lon="3.0252679307152093"><ele>3.0</ele><time>2026-04-09T14:34:33Z</time></trkpt><trkpt lat="42.7933364196267" lon="3.025356319830916"><ele>2.3333333333333335</ele><time>2026-04-09T14:34:34Z</time></trkpt><trkpt lat="42.79354701604173" lon="3.025447090045209"><ele>1.6666666666666665</ele><time>2026-04-09T14:34:35Z</time></trkpt><trkpt lat="42.793754084715665" lon="3.025542163476471"><ele>1.0</ele><time>2026-04-09T14:34:36Z</time></trkpt><trkpt lat="42.793960766772436" lon="3.025638316743729"><ele>1.0</ele><time>2026-04-09T14:34:37Z</time></trkpt><trkpt lat="42.79416697147218" lon="3.0257393308118172"><ele>1.0</ele><time>2026-04-09T14:34:38Z</time></trkpt><trkpt lat="42.794372496241394" lon="3.025844180224515"><ele>1.0</ele><time>2026-04-09T14:34:39Z</time></trkpt><trkpt lat="42.794577193744004" lon="3.0259553108746458"><ele>1.3333333333333333</ele><time>2026-04-09T14:34:40Z</time></trkpt><trkpt lat="42.794782305232964" lon="3.0260682217323667"><ele>1.6666666666666665</ele><time>2026-04-09T14:34:41Z</time></trkpt><trkpt lat="42.7949868432248" lon="3.0261844253943497"><ele>2.0</ele><time>2026-04-09T14:34:42Z</time></trkpt><trkpt lat="42.79518906889869" lon="3.0263031815477524"><ele>2.333333333333333</ele><time>2026-04-09T14:34:43Z</time></trkpt><trkpt lat="42.795392543411786" lon="3.026424573515198"><ele>2.6666666666666665</ele><time>2026-04-09T14:34:44Z</time></trkpt><trkpt lat="42.7955928445065" lon="3.0265497991535724"><ele>3.0</ele><time>2026-04-09T14:34:45Z</time></trkpt><trkpt lat="42.79579182581733" lon="3.0266795721664757"><ele>2.3333333333333335</ele><time>2026-04-09T14:34:46Z</time></trkpt><trkpt lat="42.79598926798921" lon="3.0268129049869184"><ele>1.6666666666666665</ele><time>2026-04-09T14:34:47Z</time></trkpt><trkpt lat="42.79618413524496" lon="3.0269469803905693"><ele>1.0</ele><time>2026-04-09T14:34:48Z</time></trkpt><trkpt lat="42.79638075030893" lon="3.0270813237409104"><ele>0.6666666666666666</ele><time>2026-04-09T14:34:49Z</time></trkpt><trkpt lat="42.79657584045657" lon="3.027215382703289"><ele>0.3333333333333333</ele><time>2026-04-09T14:34:50Z</time></trkpt><trkpt lat="42.796770487688825" lon="3.0273485270708553"><ele>0.0</ele><time>2026-04-09T14:34:51Z</time></trkpt><trkpt lat="42.79696545266415" lon="3.0274826259628687"><ele>0.0</ele><time>2026-04-09T14:34:52Z</time></trkpt><trkpt lat="42.797159937368846" lon="3.0276154453148956"><ele>0.0</ele><time>2026-04-09T14:34:53Z</time></trkpt><trkpt lat="42.797351282309435" lon="3.0277467388192707"><ele>0.0</ele><time>2026-04-09T14:34:54Z</time></trkpt><trkpt lat="42.79754428725538" lon="3.0278797649273095"><ele>-0.6666666666666666</ele><time>2026-04-09T14:34:55Z</time></trkpt><trkpt lat="42.79774033326631" lon="3.0280125213274474"><ele>-1.3333333333333333</ele><time>2026-04-09T14:34:56Z</time></trkpt><trkpt lat="42.79793558882909" lon="3.0281423972846575"><ele>-2.0</ele><time>2026-04-09T14:34:57Z</time></trkpt><trkpt lat="42.79813074183421" lon="3.028272192495566"><ele>-1.0</ele><time>2026-04-09T14:34:58Z</time></trkpt><trkpt lat="42.79832590510304" lon="3.0284001667585527"><ele>0.0</ele><time>2026-04-09T14:34:59Z</time></trkpt><trkpt lat="42.79852104392041" lon="3.028526640490224"><ele>1.0</ele><time>2026-04-09T14:35:00Z</time></trkpt><trkpt lat="42.7987171242684" lon="3.0286521241526434"><ele>1.0</ele><time>2026-04-09T14:35:01Z</time></trkpt><trkpt lat="42.79891479287998" lon="3.028773131747871"><ele>1.0</ele><time>2026-04-09T14:35:02Z</time></trkpt><trkpt lat="42.79911351527294" lon="3.0288890756175912"><ele>1.0</ele><time>2026-04-09T14:35:03Z</time></trkpt><trkpt lat="42.799312832795295" lon="3.029002624690526"><ele>1.3333333333333333</ele><time>2026-04-09T14:35:04Z</time></trkpt><trkpt lat="42.79951416910178" lon="3.029114424612734"><ele>1.6666666666666665</ele><time>2026-04-09T14:35:05Z</time></trkpt><trkpt lat="42.79971523898897" lon="3.029222327842917"><ele>2.0</ele><time>2026-04-09T14:35:06Z</time></trkpt><trkpt lat="42.79991570218316" lon="3.0293271546975675"><ele>2.0</ele><time>2026-04-09T14:35:07Z</time></trkpt><trkpt lat="42.80011769896348" lon="3.0294313121419494"><ele>2.0</ele><time>2026-04-09T14:35:08Z</time></trkpt><trkpt lat="42.80032061167673" lon="3.0295335383322355"><ele>2.0</ele><time>2026-04-09T14:35:09Z</time></trkpt><trkpt lat="42.800525044609124" lon="3.0296332862982065"><ele>1.6666666666666665</ele><time>2026-04-09T14:35:10Z</time></trkpt><trkpt lat="42.800731307496214" lon="3.0297297344034493"><ele>1.3333333333333333</ele><time>2026-04-09T14:35:11Z</time></trkpt><trkpt lat="42.80093836589817" lon="3.0298221100535963"><ele>1.0</ele><time>2026-04-09T14:35:12Z</time></trkpt><trkpt lat="42.80114634388935" lon="3.0299141311011226"><ele>0.6666666666666666</ele><time>2026-04-09T14:35:13Z</time></trkpt><trkpt lat="42.8013563578545" lon="3.0300023376355267"><ele>0.3333333333333333</ele><time>2026-04-09T14:35:14Z</time></trkpt><trkpt lat="42.80156608503637" lon="3.030089079395798"><ele>0.0</ele><time>2026-04-09T14:35:15Z</time></trkpt><trkpt lat="42.801774695246415" lon="3.0301701148963933"><ele>0.6666666666666666</ele><time>2026-04-09T14:35:16Z</time></trkpt><trkpt lat="42.8019822645983" lon="3.0302474850313232"><ele>1.3333333333333333</ele><time>2026-04-09T14:35:17Z</time></trkpt><trkpt lat="42.802191437533146" lon="3.0303225060610752"><ele>2.0</ele><time>2026-04-09T14:35:18Z</time></trkpt><trkpt lat="42.80240100812728" lon="3.030396199179022"><ele>2.0</ele><time>2026-04-09T14:35:19Z</time></trkpt><trkpt lat="42.8026127063186" lon="3.030466124402674"><ele>2.0</ele><time>2026-04-09T14:35:20Z</time></trkpt><trkpt lat="42.80282402512039" lon="3.0305349846867107"><ele>2.0</ele><time>2026-04-09T14:35:21Z</time></trkpt><trkpt lat="42.803036897874236" lon="3.0306034455732545"><ele>2.0</ele><time>2026-04-09T14:35:22Z</time></trkpt><trkpt lat="42.803250368637784" lon="3.030666342465698"><ele>2.0</ele><time>2026-04-09T14:35:23Z</time></trkpt><trkpt lat="42.80346582606302" lon="3.030723232187198"><ele>2.0</ele><time>2026-04-09T14:35:24Z</time></trkpt><trkpt lat="42.80368274868983" lon="3.0307777221497094"><ele>2.0</ele><time>2026-04-09T14:35:25Z</time></trkpt><trkpt lat="42.803898744793464" lon="3.030832583667531"><ele>2.0</ele><time>2026-04-09T14:35:26Z</time></trkpt><trkpt lat="42.804113559213135" lon="3.0308825146974785"><ele>2.0</ele><time>2026-04-09T14:35:27Z</time></trkpt><trkpt lat="42.80432734097266" lon="3.03092963273215"><ele>1.6666666666666665</ele><time>2026-04-09T14:35:28Z</time></trkpt><trkpt lat="42.804540612073446" lon="3.030973687998141"><ele>1.3333333333333333</ele><time>2026-04-09T14:35:29Z</time></trkpt><trkpt lat="42.80475368854428" lon="3.0310139604693744"><ele>1.0</ele><time>2026-04-09T14:35:30Z</time></trkpt><trkpt lat="42.804968007468695" lon="3.0310515643948177"><ele>1.0</ele><time>2026-04-09T14:35:31Z</time></trkpt><trkpt lat="42.80518199825436" lon="3.03108491704079"><ele>1.0</ele><time>2026-04-09T14:35:32Z</time></trkpt><trkpt lat="42.80539750256291" lon="3.0311156046250654"><ele>1.0</ele><time>2026-04-09T14:35:33Z</time></trkpt><trkpt lat="42.8056132486566" lon="3.0311415991237416"><ele>1.0</ele><time>2026-04-09T14:35:34Z</time></trkpt><trkpt lat="42.80583124126536" lon="3.031168186693899"><ele>1.0</ele><time>2026-04-09T14:35:35Z</time></trkpt><trkpt lat="42.80605067990999" lon="3.0311935836593626"><ele>1.0</ele><time>2026-04-09T14:35:36Z</time></trkpt><trkpt lat="42.80627103662651" lon="3.0312188993359173"><ele>1.6666666666666665</ele><time>2026-04-09T14:35:37Z</time></trkpt><trkpt lat="42.80649247736509" lon="3.0312399581615965"><ele>2.3333333333333335</ele><time>2026-04-09T14:35:38Z</time></trkpt><trkpt lat="42.806714953603084" lon="3.031254615252372"><ele>3.0</ele><time>2026-04-09T14:35:39Z</time></trkpt><trkpt lat="42.806937580222325" lon="3.0312657959621756"><ele>3.0</ele><time>2026-04-09T14:35:40Z</time></trkpt><trkpt lat="42.80716116535747" lon="3.0312733229414817"><ele>3.0</ele><time>2026-04-09T14:35:41Z</time></trkpt><trkpt lat="42.807387448664485" lon="3.031277668717431"><ele>3.0</ele><time>2026-04-09T14:35:42Z</time></trkpt><trkpt lat="42.80761291121782" lon="3.031281752590429"><ele>3.0</ele><time>2026-04-09T14:35:43Z</time></trkpt><trkpt lat="42.80783824487197" lon="3.031283066414237"><ele>2.5</ele><time>2026-04-09T14:35:44Z</time></trkpt><trkpt lat="42.80806383171388" lon="3.031280917720739"><ele>2.0</ele><time>2026-04-09T14:35:45Z</time></trkpt><trkpt lat="42.8082900197152" lon="3.031272828693426"><ele>1.0</ele><time>2026-04-09T14:35:46Z</time></trkpt><trkpt lat="42.808515975761935" lon="3.0312592496967787"><ele>0.0</ele><time>2026-04-09T14:35:47Z</time></trkpt><trkpt lat="42.80874000022499" lon="3.0312437789933"><ele>0.0</ele><time>2026-04-09T14:35:48Z</time></trkpt><trkpt lat="42.80896201950513" lon="3.0312265223089145"><ele>0.0</ele><time>2026-04-09T14:35:49Z</time></trkpt><trkpt lat="42.80918146223483" lon="3.0312095227308964"><ele>0.0</ele><time>2026-04-09T14:35:50Z</time></trkpt><trkpt lat="42.80940034927415" lon="3.0311943246629864"><ele>1.3333333333333333</ele><time>2026-04-09T14:35:51Z</time></trkpt><trkpt lat="42.80961818998844" lon="3.0311794092288267"><ele>2.6666666666666665</ele><time>2026-04-09T14:35:52Z</time></trkpt><trkpt lat="42.80983503693227" lon="3.0311651716466095"><ele>4.0</ele><time>2026-04-09T14:35:53Z</time></trkpt><trkpt lat="42.810050483258316" lon="3.031150037449155"><ele>3.6666666666666665</ele><time>2026-04-09T14:35:54Z</time></trkpt><trkpt lat="42.81026505395217" lon="3.031134177685324"><ele>3.333333333333333</ele><time>2026-04-09T14:35:55Z</time></trkpt><trkpt lat="42.81047925470561" lon="3.03111888335846"><ele>3.0</ele><time>2026-04-09T14:35:56Z</time></trkpt><trkpt lat="42.81069211291875" lon="3.0311039014469734"><ele>3.0</ele><time>2026-04-09T14:35:57Z</time></trkpt><trkpt lat="42.81090471792467" lon="3.03108904155033"><ele>3.0</ele><time>2026-04-09T14:35:58Z</time></trkpt><trkpt lat="42.81111806373145" lon="3.0310769150166124"><ele>3.0</ele><time>2026-04-09T14:35:59Z</time></trkpt><trkpt lat="42.81132985778836" lon="3.031061347049022"><ele>3.0</ele><time>2026-04-09T14:36:00Z</time></trkpt><trkpt lat="42.81154219049828" lon="3.031045665908855"><ele>3.0</ele><time>2026-04-09T14:36:01Z</time></trkpt><trkpt lat="42.81175548367074" lon="3.0310306492080605"><ele>3.0</ele><time>2026-04-09T14:36:02Z</time></trkpt><trkpt lat="42.811968703098955" lon="3.031014148158703"><ele>3.0</ele><time>2026-04-09T14:36:03Z</time></trkpt><trkpt lat="42.812182145846414" lon="3.0309989337478522"><ele>3.0</ele><time>2026-04-09T14:36:04Z</time></trkpt><trkpt lat="42.8123985580069" lon="3.0309843370160037"><ele>3.0</ele><time>2026-04-09T14:36:05Z</time></trkpt><trkpt lat="42.812616272275136" lon="3.0309697305951158"><ele>3.333333333333333</ele><time>2026-04-09T14:36:06Z</time></trkpt><trkpt lat="42.8128332038221" lon="3.0309541835526317"><ele>3.6666666666666665</ele><time>2026-04-09T14:36:07Z</time></trkpt><trkpt lat="42.81305287852652" lon="3.030942290526494"><ele>4.0</ele><time>2026-04-09T14:36:08Z</time></trkpt><trkpt lat="42.813271031629256" lon="3.0309270212685795"><ele>3.6666666666666665</ele><time>2026-04-09T14:36:09Z</time></trkpt><trkpt lat="42.81348941801355" lon="3.030911034285604"><ele>3.333333333333333</ele><time>2026-04-09T14:36:10Z</time></trkpt><trkpt lat="42.81370786431067" lon="3.0308955766693724"><ele>3.0</ele><time>2026-04-09T14:36:11Z</time></trkpt><trkpt lat="42.81392616130319" lon="3.0308796009289543"><ele>3.0</ele><time>2026-04-09T14:36:12Z</time></trkpt><trkpt lat="42.814144936850646" lon="3.030864631699102"><ele>3.0</ele><time>2026-04-09T14:36:13Z</time></trkpt><trkpt lat="42.814363043860446" lon="3.0308481718730316"><ele>3.0</ele><time>2026-04-09T14:36:14Z</time></trkpt><trkpt lat="42.81457938900925" lon="3.0308315793471134"><ele>3.0</ele><time>2026-04-09T14:36:15Z</time></trkpt><trkpt lat="42.814797086504115" lon="3.0308164742011523"><ele>3.0</ele><time>2026-04-09T14:36:16Z</time></trkpt><trkpt lat="42.815015020865644" lon="3.030802154964089"><ele>3.0</ele><time>2026-04-09T14:36:17Z</time></trkpt><trkpt lat="42.81523172862862" lon="3.030788292387298"><ele>3.0</ele><time>2026-04-09T14:36:18Z</time></trkpt><trkpt lat="42.81544857126744" lon="3.0307735085124787"><ele>3.0</ele><time>2026-04-09T14:36:19Z</time></trkpt><trkpt lat="42.81566405000486" lon="3.030756763340815"><ele>3.0</ele><time>2026-04-09T14:36:20Z</time></trkpt><trkpt lat="42.81587715584363" lon="3.0307405323656664"><ele>2.6666666666666665</ele><time>2026-04-09T14:36:21Z</time></trkpt><trkpt lat="42.816091909764154" lon="3.0307254132874633"><ele>2.333333333333333</ele><time>2026-04-09T14:36:22Z</time></trkpt><trkpt lat="42.8163051779858" lon="3.0307116110577836"><ele>2.0</ele><time>2026-04-09T14:36:23Z</time></trkpt><trkpt lat="42.81651667094262" lon="3.0306936680864722"><ele>2.0</ele><time>2026-04-09T14:36:24Z</time></trkpt><trkpt lat="42.81672892913895" lon="3.030676110814081"><ele>2.0</ele><time>2026-04-09T14:36:25Z</time></trkpt><trkpt lat="42.816941593066176" lon="3.0306593580437715"><ele>2.0</ele><time>2026-04-09T14:36:26Z</time></trkpt><trkpt lat="42.81715285848232" lon="3.0306432670624135"><ele>1.6666666666666665</ele><time>2026-04-09T14:36:27Z</time></trkpt><trkpt lat="42.817365726401654" lon="3.030629154862427"><ele>1.3333333333333333</ele><time>2026-04-09T14:36:28Z</time></trkpt><trkpt lat="42.81757716855933" lon="3.030615354430246"><ele>1.0</ele><time>2026-04-09T14:36:29Z</time></trkpt><trkpt lat="42.81778986835734" lon="3.030603304570888"><ele>1.0</ele><time>2026-04-09T14:36:30Z</time></trkpt><trkpt lat="42.81800034843978" lon="3.030593021168459"><ele>1.0</ele><time>2026-04-09T14:36:31Z</time></trkpt><trkpt lat="42.818209257445524" lon="3.030589832712254"><ele>1.0</ele><time>2026-04-09T14:36:32Z</time></trkpt><trkpt lat="42.81842164040821" lon="3.030594195443169"><ele>1.3333333333333333</ele><time>2026-04-09T14:36:33Z</time></trkpt><trkpt lat="42.81863343974091" lon="3.0306029168261355"><ele>1.6666666666666665</ele><time>2026-04-09T14:36:34Z</time></trkpt><trkpt lat="42.81884519845096" lon="3.0306238264576115"><ele>2.0</ele><time>2026-04-09T14:36:35Z</time></trkpt><trkpt lat="42.81905637405186" lon="3.030648775250237"><ele>2.0</ele><time>2026-04-09T14:36:36Z</time></trkpt><trkpt lat="42.81926760972026" lon="3.030678707906786"><ele>2.0</ele><time>2026-04-09T14:36:37Z</time></trkpt><trkpt lat="42.81947849799206" lon="3.0307132979916713"><ele>2.0</ele><time>2026-04-09T14:36:38Z</time></trkpt><trkpt lat="42.81968982009624" lon="3.0307511785279244"><ele>2.0</ele><time>2026-04-09T14:36:39Z</time></trkpt><trkpt lat="42.81989835887114" lon="3.030793842209288"><ele>2.0</ele><time>2026-04-09T14:36:40Z</time></trkpt><trkpt lat="42.8201117632102" lon="3.0308424805958216"><ele>2.0</ele><time>2026-04-09T14:36:41Z</time></trkpt><trkpt lat="42.82032354460336" lon="3.030896668396378"><ele>2.6666666666666665</ele><time>2026-04-09T14:36:42Z</time></trkpt><trkpt lat="42.8205369136571" lon="3.030958884726026"><ele>3.333333333333333</ele><time>2026-04-09T14:36:43Z</time></trkpt><trkpt lat="42.820748419037876" lon="3.031032174557584"><ele>4.0</ele><time>2026-04-09T14:36:44Z</time></trkpt><trkpt lat="42.82096308218826" lon="3.031110481154267"><ele>3.0</ele><time>2026-04-09T14:36:45Z</time></trkpt><trkpt lat="42.821177783570164" lon="3.0311948317139388"><ele>2.0</ele><time>2026-04-09T14:36:46Z</time></trkpt><trkpt lat="42.821394970933085" lon="3.031286221866495"><ele>2.0</ele><time>2026-04-09T14:36:47Z</time></trkpt><trkpt lat="42.82161024536874" lon="3.0313834500677697"><ele>2.0</ele><time>2026-04-09T14:36:48Z</time></trkpt><trkpt lat="42.82182287582299" lon="3.0314869116152936"><ele>2.0</ele><time>2026-04-09T14:36:49Z</time></trkpt><trkpt lat="42.82203359608124" lon="3.031592701543135"><ele>2.0</ele><time>2026-04-09T14:36:50Z</time></trkpt><trkpt lat="42.822245376370276" lon="3.031696508246348"><ele>2.5</ele><time>2026-04-09T14:36:51Z</time></trkpt><trkpt lat="42.82245763514132" lon="3.031799631499804"><ele>3.0</ele><time>2026-04-09T14:36:52Z</time></trkpt><trkpt lat="42.8226712554942" lon="3.031903826981888"><ele>3.0</ele><time>2026-04-09T14:36:53Z</time></trkpt><trkpt lat="42.82288419427594" lon="3.0320051664002654"><ele>3.0</ele><time>2026-04-09T14:36:54Z</time></trkpt><trkpt lat="42.8230954212019" lon="3.0321054161196686"><ele>3.0</ele><time>2026-04-09T14:36:55Z</time></trkpt><trkpt lat="42.82330616631586" lon="3.0322069259402036"><ele>3.0</ele><time>2026-04-09T14:36:56Z</time></trkpt><trkpt lat="42.82351535184507" lon="3.0323086127690346"><ele>3.0</ele><time>2026-04-09T14:36:57Z</time></trkpt><trkpt lat="42.82372483049199" lon="3.032408311471694"><ele>3.0</ele><time>2026-04-09T14:36:58Z</time></trkpt><trkpt lat="42.823932553983965" lon="3.0325067132887695"><ele>3.0</ele><time>2026-04-09T14:36:59Z</time></trkpt><trkpt lat="42.82414052710207" lon="3.0326056580361773"><ele>3.0</ele><time>2026-04-09T14:37:00Z</time></trkpt><trkpt lat="42.824347013689675" lon="3.0327039601371872"><ele>3.0</ele><time>2026-04-09T14:37:01Z</time></trkpt><trkpt lat="42.82455413925939" lon="3.0328032599142634"><ele>2.6666666666666665</ele><time>2026-04-09T14:37:02Z</time></trkpt><trkpt lat="42.82476236878006" lon="3.032902344784167"><ele>2.333333333333333</ele><time>2026-04-09T14:37:03Z</time></trkpt><trkpt lat="42.82496949924828" lon="3.0330039133669144"><ele>2.0</ele><time>2026-04-09T14:37:04Z</time></trkpt><trkpt lat="42.82517841293976" lon="3.033107665300955"><ele>1.6666666666666665</ele><time>2026-04-09T14:37:05Z</time></trkpt><trkpt lat="42.82538760600537" lon="3.033210967544824"><ele>1.3333333333333333</ele><time>2026-04-09T14:37:06Z</time></trkpt><trkpt lat="42.82559886295181" lon="3.033310489348731"><ele>1.0</ele><time>2026-04-09T14:37:07Z</time></trkpt><trkpt lat="42.82580799178723" lon="3.033411730012764"><ele>1.6666666666666665</ele><time>2026-04-09T14:37:08Z</time></trkpt><trkpt lat="42.82601740958675" lon="3.033510533875269"><ele>2.3333333333333335</ele><time>2026-04-09T14:37:09Z</time></trkpt><trkpt lat="42.82622448458775" lon="3.03360934676222"><ele>3.0</ele><time>2026-04-09T14:37:10Z</time></trkpt><trkpt lat="42.826432622508996" lon="3.03370792113686"><ele>3.0</ele><time>2026-04-09T14:37:11Z</time></trkpt><trkpt lat="42.82664048847994" lon="3.0338052682230283"><ele>3.0</ele><time>2026-04-09T14:37:12Z</time></trkpt><trkpt lat="42.826846682315384" lon="3.0339038697806693"><ele>3.0</ele><time>2026-04-09T14:37:13Z</time></trkpt><trkpt lat="42.827052205172954" lon="3.0340038307841195"><ele>2.6666666666666665</ele><time>2026-04-09T14:37:14Z</time></trkpt><trkpt lat="42.82725769307988" lon="3.0341029917070066"><ele>2.333333333333333</ele><time>2026-04-09T14:37:15Z</time></trkpt><trkpt lat="42.82745835642382" lon="3.034198732866556"><ele>2.0</ele><time>2026-04-09T14:37:16Z</time></trkpt><trkpt lat="42.82765521960943" lon="3.0342917025179896"><ele>2.0</ele><time>2026-04-09T14:37:17Z</time></trkpt><trkpt lat="42.82784881406417" lon="3.0343827945011568"><ele>2.0</ele><time>2026-04-09T14:37:18Z</time></trkpt><trkpt lat="42.828037896214596" lon="3.034472240435173"><ele>2.0</ele><time>2026-04-09T14:37:19Z</time></trkpt><trkpt lat="42.828223428365014" lon="3.0345606024279648"><ele>2.0</ele><time>2026-04-09T14:37:20Z</time></trkpt><trkpt lat="42.82840543165453" lon="3.03464770592202"><ele>2.0</ele><time>2026-04-09T14:37:21Z</time></trkpt><trkpt lat="42.828582125585946" lon="3.0347331227680274"><ele>2.0</ele><time>2026-04-09T14:37:22Z</time></trkpt><trkpt lat="42.828755296907495" lon="3.034816559825791"><ele>1.6666666666666665</ele><time>2026-04-09T14:37:23Z</time></trkpt><trkpt lat="42.82892240544447" lon="3.034898367027673"><ele>1.3333333333333333</ele><time>2026-04-09T14:37:24Z</time></trkpt><trkpt lat="42.829086395171686" lon="3.0349778442852715"><ele>1.0</ele><time>2026-04-09T14:37:25Z</time></trkpt><trkpt lat="42.82924926508315" lon="3.035056428551279"><ele>1.6666666666666665</ele><time>2026-04-09T14:37:26Z</time></trkpt><trkpt lat="42.829407467368654" lon="3.0351310126927227"><ele>2.3333333333333335</ele><time>2026-04-09T14:37:27Z</time></trkpt><trkpt lat="42.82955935016728" lon="3.035205047757314"><ele>3.0</ele><time>2026-04-09T14:37:28Z</time></trkpt><trkpt lat="42.82970644417499" lon="3.0352794258798883"><ele>3.0</ele><time>2026-04-09T14:37:29Z</time></trkpt><trkpt lat="42.829847246897124" lon="3.035353582009516"><ele>3.0</ele><time>2026-04-09T14:37:30Z</time></trkpt><trkpt lat="42.82998126568604" lon="3.035424792965949"><ele>3.0</ele><time>2026-04-09T14:37:31Z</time></trkpt><trkpt lat="42.83010671876149" lon="3.035493063062714"><ele>3.0</ele><time>2026-04-09T14:37:32Z</time></trkpt><trkpt lat="42.8302267740705" lon="3.0355572103653574"><ele>2.8</ele><time>2026-04-09T14:37:33Z</time></trkpt><trkpt lat="42.83033739474541" lon="3.0356177092085823"><ele>2.5999999999999996</ele><time>2026-04-09T14:37:34Z</time></trkpt><trkpt lat="42.830439860449275" lon="3.035674604507813"><ele>2.4000000000000004</ele><time>2026-04-09T14:37:35Z</time></trkpt><trkpt lat="42.83053291572645" lon="3.035727208604773"><ele>2.2</ele><time>2026-04-09T14:37:36Z</time></trkpt><trkpt lat="42.8306192981259" lon="3.0357774610539234"><ele>2.0</ele><time>2026-04-09T14:37:37Z</time></trkpt><trkpt lat="42.8306917751254" lon="3.0358198215278414"><ele>1.857142857142857</ele><time>2026-04-09T14:37:38Z</time></trkpt><trkpt lat="42.83075693950964" lon="3.0358569857657565"><ele>1.714285714285714</ele><time>2026-04-09T14:37:39Z</time></trkpt><trkpt lat="42.83081087585455" lon="3.035910294390982"><ele>1.5714285714285714</ele><time>2026-04-09T14:37:40Z</time></trkpt><trkpt lat="42.8308473887488" lon="3.0359888156696817"><ele>1.4285714285714284</ele><time>2026-04-09T14:37:41Z</time></trkpt><trkpt lat="42.8308869009493" lon="3.0360824353581877"><ele>1.2857142857142856</ele><time>2026-04-09T14:37:42Z</time></trkpt><trkpt lat="42.83093766500104" lon="3.0361556659482996"><ele>1.1428571428571428</ele><time>2026-04-09T14:37:43Z</time></trkpt><trkpt lat="42.83100394091789" lon="3.036195188013441"><ele>1.0</ele><time>2026-04-09T14:37:44Z</time></trkpt><trkpt lat="42.83107791788481" lon="3.0362038431659"><ele>0.9999999999999999</ele><time>2026-04-09T14:37:45Z</time></trkpt><trkpt lat="42.83115469826688" lon="3.036180147731975"><ele>1.0</ele><time>2026-04-09T14:37:46Z</time></trkpt><trkpt lat="42.831226629899184" lon="3.0361358663598854"><ele>1.0</ele><time>2026-04-09T14:37:47Z</time></trkpt><trkpt lat="42.83130990785562" lon="3.0361109776176542"><ele>1.0</ele><time>2026-04-09T14:37:48Z</time></trkpt><trkpt lat="42.83140082067984" lon="3.03612585119573"><ele>0.9999999999999999</ele><time>2026-04-09T14:37:49Z</time></trkpt><trkpt lat="42.831495996787694" lon="3.0361655127516234"><ele>1.0</ele><time>2026-04-09T14:37:50Z</time></trkpt><trkpt lat="42.8315996953291" lon="3.0362118537659897"><ele>1.0</ele><time>2026-04-09T14:37:51Z</time></trkpt><trkpt lat="42.831716728264276" lon="3.0362635555609367"><ele>1.0</ele><time>2026-04-09T14:37:52Z</time></trkpt><trkpt lat="42.83184282678744" lon="3.0363175029581737"><ele>1.0</ele><time>2026-04-09T14:37:53Z</time></trkpt><trkpt lat="42.83198038129982" lon="3.0363734825269275"><ele>1.0</ele><time>2026-04-09T14:37:54Z</time></trkpt><trkpt lat="42.83212833210259" lon="3.036428701290176"><ele>1.6666666666666665</ele><time>2026-04-09T14:37:55Z</time></trkpt><trkpt lat="42.832274044851324" lon="3.036482336358798"><ele>2.3333333333333335</ele><time>2026-04-09T14:37:56Z</time></trkpt><trkpt lat="42.832419767342415" lon="3.0365358866977648"><ele>3.0</ele><time>2026-04-09T14:37:57Z</time></trkpt><trkpt lat="42.83257003055381" lon="3.036588615197348"><ele>2.6666666666666665</ele><time>2026-04-09T14:37:58Z</time></trkpt><trkpt lat="42.83272357161394" lon="3.036641639297502"><ele>2.333333333333333</ele><time>2026-04-09T14:37:59Z</time></trkpt><trkpt lat="42.83287581810949" lon="3.036695460536153"><ele>2.0</ele><time>2026-04-09T14:38:00Z</time></trkpt><trkpt lat="42.83302630255621" lon="3.0367521512986686"><ele>2.0</ele><time>2026-04-09T14:38:01Z</time></trkpt><trkpt lat="42.833176271463984" lon="3.036811673124667"><ele>2.0</ele><time>2026-04-09T14:38:02Z</time></trkpt><trkpt lat="42.83332456219614" lon="3.0368747871843507"><ele>2.0</ele><time>2026-04-09T14:38:03Z</time></trkpt><trkpt lat="42.833473898215914" lon="3.036941879497992"><ele>2.6666666666666665</ele><time>2026-04-09T14:38:04Z</time></trkpt><trkpt lat="42.833627250807226" lon="3.037007804429798"><ele>3.333333333333333</ele><time>2026-04-09T14:38:05Z</time></trkpt><trkpt lat="42.83378252441561" lon="3.0370759198003556"><ele>4.0</ele><time>2026-04-09T14:38:06Z</time></trkpt><trkpt lat="42.83393844763255" lon="3.037149279479055"><ele>4.0</ele><time>2026-04-09T14:38:07Z</time></trkpt><trkpt lat="42.83409519350612" lon="3.037224238353985"><ele>4.0</ele><time>2026-04-09T14:38:08Z</time></trkpt><trkpt lat="42.834250829611236" lon="3.0372984075583176"><ele>4.0</ele><time>2026-04-09T14:38:09Z</time></trkpt><trkpt lat="42.834411443570986" lon="3.037376669015946"><ele>3.6666666666666665</ele><time>2026-04-09T14:38:10Z</time></trkpt><trkpt lat="42.83457358251509" lon="3.037453696853115"><ele>3.333333333333333</ele><time>2026-04-09T14:38:11Z</time></trkpt><trkpt lat="42.83473573409565" lon="3.037530826091697"><ele>3.0</ele><time>2026-04-09T14:38:12Z</time></trkpt><trkpt lat="42.834899672298135" lon="3.0376091219834236"><ele>2.6666666666666665</ele><time>2026-04-09T14:38:13Z</time></trkpt><trkpt lat="42.835066490027664" lon="3.037688358543528"><ele>2.333333333333333</ele><time>2026-04-09T14:38:14Z</time></trkpt><trkpt lat="42.835235230542736" lon="3.037769338084753"><ele>2.0</ele><time>2026-04-09T14:38:15Z</time></trkpt><trkpt lat="42.83540845454498" lon="3.0378513132357448"><ele>2.0</ele><time>2026-04-09T14:38:16Z</time></trkpt><trkpt lat="42.835583607982535" lon="3.037936399217885"><ele>2.0</ele><time>2026-04-09T14:38:17Z</time></trkpt><trkpt lat="42.835756752876605" lon="3.0380198650135437"><ele>2.0</ele><time>2026-04-09T14:38:18Z</time></trkpt><trkpt lat="42.835932803461326" lon="3.03810514275213"><ele>2.333333333333333</ele><time>2026-04-09T14:38:19Z</time></trkpt><trkpt lat="42.83610980046851" lon="3.038190064935339"><ele>2.6666666666666665</ele><time>2026-04-09T14:38:20Z</time></trkpt><trkpt lat="42.836286199732534" lon="3.0382743596741366"><ele>3.0</ele><time>2026-04-09T14:38:21Z</time></trkpt><trkpt lat="42.836464885127924" lon="3.038360073013415"><ele>3.0</ele><time>2026-04-09T14:38:22Z</time></trkpt><trkpt lat="42.836646078341786" lon="3.0384467651873313"><ele>3.0</ele><time>2026-04-09T14:38:23Z</time></trkpt><trkpt lat="42.836826268165645" lon="3.038533865814972"><ele>3.0</ele><time>2026-04-09T14:38:24Z</time></trkpt><trkpt lat="42.8370073937048" lon="3.0386211522764035"><ele>2.6666666666666665</ele><time>2026-04-09T14:38:25Z</time></trkpt><trkpt lat="42.83718885410897" lon="3.038707481004224"><ele>2.333333333333333</ele><time>2026-04-09T14:38:26Z</time></trkpt><trkpt lat="42.83736951211261" lon="3.0387940083949863"><ele>2.0</ele><time>2026-04-09T14:38:27Z</time></trkpt><trkpt lat="42.83754958646789" lon="3.038880884864769"><ele>2.0</ele><time>2026-04-09T14:38:28Z</time></trkpt><trkpt lat="42.83773000246864" lon="3.0389648170623476"><ele>2.0</ele><time>2026-04-09T14:38:29Z</time></trkpt><trkpt lat="42.837911013886576" lon="3.0390450097522526"><ele>2.0</ele><time>2026-04-09T14:38:30Z</time></trkpt><trkpt lat="42.83809226466956" lon="3.039124266581377"><ele>2.0</ele><time>2026-04-09T14:38:31Z</time></trkpt><trkpt lat="42.838275311046004" lon="3.0391985124259837"><ele>2.0</ele><time>2026-04-09T14:38:32Z</time></trkpt><trkpt lat="42.83845818742959" lon="3.0392677854578785"><ele>2.0</ele><time>2026-04-09T14:38:33Z</time></trkpt><trkpt lat="42.8386429294746" lon="3.039335081607323"><ele>2.0</ele><time>2026-04-09T14:38:34Z</time></trkpt><trkpt lat="42.83882970663831" lon="3.0393985707101803"><ele>2.0</ele><time>2026-04-09T14:38:35Z</time></trkpt><trkpt lat="42.83901711689736" lon="3.0394583710470946"><ele>2.0</ele><time>2026-04-09T14:38:36Z</time></trkpt><trkpt lat="42.83920547322276" lon="3.0395173777517925"><ele>2.333333333333333</ele><time>2026-04-09T14:38:37Z</time></trkpt><trkpt lat="42.8393944919287" lon="3.0395748063236785"><ele>2.6666666666666665</ele><time>2026-04-09T14:38:38Z</time></trkpt><trkpt lat="42.83958443299336" lon="3.0396263277723423"><ele>3.0</ele><time>2026-04-09T14:38:39Z</time></trkpt><trkpt lat="42.83977480153199" lon="3.0396737713755613"><ele>3.0</ele><time>2026-04-09T14:38:40Z</time></trkpt><trkpt lat="42.83996440745535" lon="3.0397162162628475"><ele>3.0</ele><time>2026-04-09T14:38:41Z</time></trkpt><trkpt lat="42.840154653042475" lon="3.039757421409983"><ele>3.0</ele><time>2026-04-09T14:38:42Z</time></trkpt><trkpt lat="42.840344504764126" lon="3.0397966397684093"><ele>3.0</ele><time>2026-04-09T14:38:43Z</time></trkpt><trkpt lat="42.84053369432481" lon="3.0398284962063062"><ele>3.0</ele><time>2026-04-09T14:38:44Z</time></trkpt><trkpt lat="42.84072477829612" lon="3.0398570543079066"><ele>3.0</ele><time>2026-04-09T14:38:45Z</time></trkpt><trkpt lat="42.84091813974064" lon="3.0398782798327746"><ele>2.3333333333333335</ele><time>2026-04-09T14:38:46Z</time></trkpt><trkpt lat="42.84110990357861" lon="3.039899477503913"><ele>1.6666666666666665</ele><time>2026-04-09T14:38:47Z</time></trkpt><trkpt lat="42.84130250285155" lon="3.0399203866295617"><ele>1.0</ele><time>2026-04-09T14:38:48Z</time></trkpt><trkpt lat="42.84149660191015" lon="3.0399380408004686"><ele>1.0</ele><time>2026-04-09T14:38:49Z</time></trkpt><trkpt lat="42.8416914779181" lon="3.0399515469420813"><ele>1.0</ele><time>2026-04-09T14:38:50Z</time></trkpt><trkpt lat="42.84188573712639" lon="3.039953582358795"><ele>1.0</ele><time>2026-04-09T14:38:51Z</time></trkpt><trkpt lat="42.84208157468309" lon="3.039954604766771"><ele>1.3333333333333333</ele><time>2026-04-09T14:38:52Z</time></trkpt><trkpt lat="42.84227698767066" lon="3.039952655503533"><ele>1.6666666666666665</ele><time>2026-04-09T14:38:53Z</time></trkpt><trkpt lat="42.84247321768992" lon="3.039946874654783"><ele>2.0</ele><time>2026-04-09T14:38:54Z</time></trkpt><trkpt lat="42.842668715876115" lon="3.0399389625296753"><ele>2.0</ele><time>2026-04-09T14:38:55Z</time></trkpt><trkpt lat="42.84286332288788" lon="3.0399278771836955"><ele>2.0</ele><time>2026-04-09T14:38:56Z</time></trkpt><trkpt lat="42.84305745033557" lon="3.0399104415768257"><ele>2.0</ele><time>2026-04-09T14:38:57Z</time></trkpt><trkpt lat="42.84325018547529" lon="3.0398879731513078"><ele>2.0</ele><time>2026-04-09T14:38:58Z</time></trkpt><trkpt lat="42.84344097645522" lon="3.039862485451955"><ele>2.0</ele><time>2026-04-09T14:38:59Z</time></trkpt><trkpt lat="42.843632162708644" lon="3.0398346516268036"><ele>2.0</ele><time>2026-04-09T14:39:00Z</time></trkpt><trkpt lat="42.84382317136115" lon="3.0398026086893233"><ele>2.6666666666666665</ele><time>2026-04-09T14:39:01Z</time></trkpt><trkpt lat="42.84401335184937" lon="3.0397667060061164"><ele>3.333333333333333</ele><time>2026-04-09T14:39:02Z</time></trkpt><trkpt lat="42.84420402137169" lon="3.039726367591878"><ele>4.0</ele><time>2026-04-09T14:39:03Z</time></trkpt><trkpt lat="42.84439398155055" lon="3.0396830836521587"><ele>4.0</ele><time>2026-04-09T14:39:04Z</time></trkpt><trkpt lat="42.84458401000476" lon="3.0396343786652387"><ele>4.0</ele><time>2026-04-09T14:39:05Z</time></trkpt><trkpt lat="42.844773681839364" lon="3.039583592820707"><ele>4.0</ele><time>2026-04-09T14:39:06Z</time></trkpt><trkpt lat="42.84496176968402" lon="3.0395268948007557"><ele>4.0</ele><time>2026-04-09T14:39:07Z</time></trkpt><trkpt lat="42.84515083222685" lon="3.0394663174284258"><ele>4.0</ele><time>2026-04-09T14:39:08Z</time></trkpt><trkpt lat="42.84533863205104" lon="3.0394026343286162"><ele>4.0</ele><time>2026-04-09T14:39:09Z</time></trkpt><trkpt lat="42.84552498898557" lon="3.039337850969489"><ele>4.0</ele><time>2026-04-09T14:39:10Z</time></trkpt><trkpt lat="42.84571258445328" lon="3.0392693529963943"><ele>4.0</ele><time>2026-04-09T14:39:11Z</time></trkpt><trkpt lat="42.845898798850676" lon="3.0391977357369986"><ele>4.0</ele><time>2026-04-09T14:39:12Z</time></trkpt><trkpt lat="42.84608503198902" lon="3.0391240330854083"><ele>4.0</ele><time>2026-04-09T14:39:13Z</time></trkpt><trkpt lat="42.84627018789087" lon="3.0390457251404674"><ele>4.0</ele><time>2026-04-09T14:39:14Z</time></trkpt><trkpt lat="42.846454839780726" lon="3.0389634973744193"><ele>4.0</ele><time>2026-04-09T14:39:15Z</time></trkpt><trkpt lat="42.846637850337714" lon="3.038878108292452"><ele>4.666666666666666</ele><time>2026-04-09T14:39:16Z</time></trkpt><trkpt lat="42.84681860975487" lon="3.0387880714298023"><ele>5.333333333333333</ele><time>2026-04-09T14:39:17Z</time></trkpt><trkpt lat="42.84699867312537" lon="3.0386954569431923"><ele>6.0</ele><time>2026-04-09T14:39:18Z</time></trkpt><trkpt lat="42.847177975048105" lon="3.038597903897883"><ele>6.0</ele><time>2026-04-09T14:39:19Z</time></trkpt><trkpt lat="42.84735504946785" lon="3.0384962348261952"><ele>6.0</ele><time>2026-04-09T14:39:20Z</time></trkpt><trkpt lat="42.84753046761434" lon="3.038390827543305"><ele>6.0</ele><time>2026-04-09T14:39:21Z</time></trkpt><trkpt lat="42.84770484000967" lon="3.0382819341859615"><ele>4.666666666666667</ele><time>2026-04-09T14:39:22Z</time></trkpt><trkpt lat="42.84788009845038" lon="3.038170046321924"><ele>3.333333333333333</ele><time>2026-04-09T14:39:23Z</time></trkpt><trkpt lat="42.84805096278571" lon="3.0380561140925644"><ele>2.0</ele><time>2026-04-09T14:39:24Z</time></trkpt><trkpt lat="42.848222387505324" lon="3.037940300383082"><ele>2.0</ele><time>2026-04-09T14:39:25Z</time></trkpt><trkpt lat="42.84839614097934" lon="3.0378227846562176"><ele>2.0</ele><time>2026-04-09T14:39:26Z</time></trkpt><trkpt lat="42.84856798899094" lon="3.0377041193078678"><ele>2.0</ele><time>2026-04-09T14:39:27Z</time></trkpt><trkpt lat="42.84873850554941" lon="3.0375853681415292"><ele>2.0</ele><time>2026-04-09T14:39:28Z</time></trkpt><trkpt lat="42.848905576819384" lon="3.0374709373543354"><ele>2.0</ele><time>2026-04-09T14:39:29Z</time></trkpt><trkpt lat="42.84906731566357" lon="3.037364819115116"><ele>2.0</ele><time>2026-04-09T14:39:30Z</time></trkpt><trkpt lat="42.849221742827574" lon="3.0372678023619857"><ele>2.0</ele><time>2026-04-09T14:39:31Z</time></trkpt><trkpt lat="42.84936681575809" lon="3.0371741995838573"><ele>2.0</ele><time>2026-04-09T14:39:32Z</time></trkpt><trkpt lat="42.84950131209132" lon="3.0370842704763277"><ele>2.0</ele><time>2026-04-09T14:39:33Z</time></trkpt><trkpt lat="42.84962646992185" lon="3.0369974360402137"><ele>2.0</ele><time>2026-04-09T14:39:34Z</time></trkpt><trkpt lat="42.849742222634646" lon="3.036918925875348"><ele>2.0</ele><time>2026-04-09T14:39:35Z</time></trkpt><trkpt lat="42.84985713639694" lon="3.0368642264070127"><ele>2.0</ele><time>2026-04-09T14:39:36Z</time></trkpt><trkpt lat="42.84997226967162" lon="3.0368337184758194"><ele>2.0</ele><time>2026-04-09T14:39:37Z</time></trkpt><trkpt lat="42.850086332366416" lon="3.036817318785885"><ele>2.5</ele><time>2026-04-09T14:39:38Z</time></trkpt><trkpt lat="42.85019987308823" lon="3.0368126086943144"><ele>3.0</ele><time>2026-04-09T14:39:39Z</time></trkpt><trkpt lat="42.85031286494642" lon="3.0368077424305975"><ele>3.5</ele><time>2026-04-09T14:39:40Z</time></trkpt><trkpt lat="42.85042570350539" lon="3.036805469809736"><ele>4.0</ele><time>2026-04-09T14:39:41Z</time></trkpt><trkpt lat="42.85054251484495" lon="3.036800794116182"><ele>4.0</ele><time>2026-04-09T14:39:42Z</time></trkpt><trkpt lat="42.85066085841356" lon="3.036797472175198"><ele>4.0</ele><time>2026-04-09T14:39:43Z</time></trkpt><trkpt lat="42.85078025497707" lon="3.0367944032868914"><ele>4.0</ele><time>2026-04-09T14:39:44Z</time></trkpt><trkpt lat="42.850899594889064" lon="3.036790841567409"><ele>4.0</ele><time>2026-04-09T14:39:45Z</time></trkpt><trkpt lat="42.85102079790278" lon="3.0367897163927906"><ele>3.75</ele><time>2026-04-09T14:39:46Z</time></trkpt><trkpt lat="42.851140284727386" lon="3.0367872741003725"><ele>3.5</ele><time>2026-04-09T14:39:47Z</time></trkpt><trkpt lat="42.85126078949722" lon="3.0367842456830036"><ele>3.25</ele><time>2026-04-09T14:39:48Z</time></trkpt><trkpt lat="42.851380943227724" lon="3.0367808396509886"><ele>3.0</ele><time>2026-04-09T14:39:49Z</time></trkpt><trkpt lat="42.85150116088179" lon="3.0367797913919192"><ele>3.0</ele><time>2026-04-09T14:39:50Z</time></trkpt><trkpt lat="42.85162163337314" lon="3.036777599198381"><ele>3.0</ele><time>2026-04-09T14:39:51Z</time></trkpt><trkpt lat="42.851743427406916" lon="3.036776664624872"><ele>3.0</ele><time>2026-04-09T14:39:52Z</time></trkpt><trkpt lat="42.851864045253414" lon="3.0367754787665455"><ele>3.0</ele><time>2026-04-09T14:39:53Z</time></trkpt><trkpt lat="42.85198050552895" lon="3.036772056562866"><ele>3.0</ele><time>2026-04-09T14:39:54Z</time></trkpt><trkpt lat="42.85209424451429" lon="3.036769601708042"><ele>3.0</ele><time>2026-04-09T14:39:55Z</time></trkpt><trkpt lat="42.85220506204829" lon="3.0367650191592723"><ele>3.0</ele><time>2026-04-09T14:39:56Z</time></trkpt><trkpt lat="42.85231240300338" lon="3.0367614674845655"><ele>3.0</ele><time>2026-04-09T14:39:57Z</time></trkpt><trkpt lat="42.85241772800782" lon="3.036755283084274"><ele>3.0</ele><time>2026-04-09T14:39:58Z</time></trkpt><trkpt lat="42.8525237832507" lon="3.0367527926005664"><ele>3.0</ele><time>2026-04-09T14:39:59Z</time></trkpt><trkpt lat="42.85262550061629" lon="3.0367419762776526"><ele>3.0</ele><time>2026-04-09T14:40:00Z</time></trkpt><trkpt lat="42.852720426253214" lon="3.0367066935162"><ele>3.0</ele><time>2026-04-09T14:40:01Z</time></trkpt><trkpt lat="42.85280657219541" lon="3.036643896355617"><ele>3.0</ele><time>2026-04-09T14:40:02Z</time></trkpt><trkpt lat="42.85286389551873" lon="3.036547198657062"><ele>3.0</ele><time>2026-04-09T14:40:03Z</time></trkpt><trkpt lat="42.852940639071505" lon="3.0364786545877247"><ele>3.0</ele><time>2026-04-09T14:40:04Z</time></trkpt><trkpt lat="42.85299718820022" lon="3.0364039915830614"><ele>3.0</ele><time>2026-04-09T14:40:05Z</time></trkpt><trkpt lat="42.853076674568484" lon="3.036299695752905"><ele>3.0</ele><time>2026-04-09T14:40:07Z</time></trkpt><trkpt lat="42.85314811787099" lon="3.036207998188877"><ele>3.0</ele><time>2026-04-09T14:40:09Z</time></trkpt><trkpt lat="42.853214119811184" lon="3.036122206568587"><ele>3.0</ele><time>2026-04-09T14:40:11Z</time></trkpt><trkpt lat="42.853304644722066" lon="3.0360032571418136"><ele>3.0</ele><time>2026-04-09T14:40:13Z</time></trkpt><trkpt lat="42.85335440388875" lon="3.035935273794355"><ele>3.0</ele><time>2026-04-09T14:40:14Z</time></trkpt><trkpt lat="42.85340062057973" lon="3.0358735567999835"><ele>3.0</ele><time>2026-04-09T14:40:15Z</time></trkpt><trkpt lat="42.85348283685644" lon="3.035766925476763"><ele>3.0</ele><time>2026-04-09T14:40:17Z</time></trkpt><trkpt lat="42.85357800274927" lon="3.03571409766687"><ele>3.0</ele><time>2026-04-09T14:40:19Z</time></trkpt><trkpt lat="42.853694757187256" lon="3.035775765680413"><ele>3.0</ele><time>2026-04-09T14:40:21Z</time></trkpt><trkpt lat="42.85375250497534" lon="3.0358450460965862"><ele>3.0</ele><time>2026-04-09T14:40:22Z</time></trkpt><trkpt lat="42.85381196826735" lon="3.0359264388156357"><ele>3.0</ele><time>2026-04-09T14:40:23Z</time></trkpt><trkpt lat="42.853879855573666" lon="3.036015224415955"><ele>3.0</ele><time>2026-04-09T14:40:24Z</time></trkpt><trkpt lat="42.85394829455943" lon="3.036106007977604"><ele>3.0</ele><time>2026-04-09T14:40:25Z</time></trkpt><trkpt lat="42.85401540841905" lon="3.0362020977912136"><ele>3.0</ele><time>2026-04-09T14:40:26Z</time></trkpt><trkpt lat="42.85408833334241" lon="3.036300231330622"><ele>3.0</ele><time>2026-04-09T14:40:27Z</time></trkpt><trkpt lat="42.85416056359048" lon="3.03639934171826"><ele>3.0</ele><time>2026-04-09T14:40:28Z</time></trkpt><trkpt lat="42.85423397449927" lon="3.0364982701765117"><ele>3.0</ele><time>2026-04-09T14:40:29Z</time></trkpt><trkpt lat="42.85431010751579" lon="3.036601649236853"><ele>3.0</ele><time>2026-04-09T14:40:30Z</time></trkpt><trkpt lat="42.854382527469475" lon="3.0367018686058085"><ele>3.0</ele><time>2026-04-09T14:40:31Z</time></trkpt><trkpt lat="42.85445346656601" lon="3.0368037594484325"><ele>2.8</ele><time>2026-04-09T14:40:32Z</time></trkpt><trkpt lat="42.85452528292111" lon="3.0369003375643238"><ele>2.5999999999999996</ele><time>2026-04-09T14:40:33Z</time></trkpt><trkpt lat="42.85459500114941" lon="3.037000470092135"><ele>2.4000000000000004</ele><time>2026-04-09T14:40:34Z</time></trkpt><trkpt lat="42.854667998085375" lon="3.0371016037240737"><ele>2.2</ele><time>2026-04-09T14:40:35Z</time></trkpt><trkpt lat="42.85473850526618" lon="3.037199991312368"><ele>2.0</ele><time>2026-04-09T14:40:36Z</time></trkpt><trkpt lat="42.85480982172619" lon="3.0373033184858818"><ele>2.0</ele><time>2026-04-09T14:40:37Z</time></trkpt><trkpt lat="42.85488186013856" lon="3.0374050816386164"><ele>2.0</ele><time>2026-04-09T14:40:38Z</time></trkpt><trkpt lat="42.854953704480224" lon="3.0375025641091637"><ele>2.0</ele><time>2026-04-09T14:40:39Z</time></trkpt><trkpt lat="42.8550251083144" lon="3.0375997835723405"><ele>2.0</ele><time>2026-04-09T14:40:40Z</time></trkpt><trkpt lat="42.85509638253294" lon="3.0377009401379778"><ele>2.0</ele><time>2026-04-09T14:40:41Z</time></trkpt><trkpt lat="42.8551682952029" lon="3.0377991808720175"><ele>2.0</ele><time>2026-04-09T14:40:42Z</time></trkpt><trkpt lat="42.85523742535304" lon="3.037899263149714"><ele>2.0</ele><time>2026-04-09T14:40:43Z</time></trkpt><trkpt lat="42.855306767144214" lon="3.0379956938195467"><ele>2.0</ele><time>2026-04-09T14:40:44Z</time></trkpt><trkpt lat="42.855378753766914" lon="3.0380943343529885"><ele>2.0</ele><time>2026-04-09T14:40:45Z</time></trkpt><trkpt lat="42.85544837033677" lon="3.0381918145899025"><ele>2.0</ele><time>2026-04-09T14:40:46Z</time></trkpt><trkpt lat="42.85551631581382" lon="3.0382863959676487"><ele>1.9999999999999998</ele><time>2026-04-09T14:40:47Z</time></trkpt><trkpt lat="42.85558555978941" lon="3.0383778544678886"><ele>2.0</ele><time>2026-04-09T14:40:48Z</time></trkpt><trkpt lat="42.85564986016167" lon="3.038467711078221"><ele>2.0</ele><time>2026-04-09T14:40:49Z</time></trkpt><trkpt lat="42.85571284838102" lon="3.0385531295036077"><ele>2.0</ele><time>2026-04-09T14:40:50Z</time></trkpt><trkpt lat="42.855775424060084" lon="3.0386375285131737"><ele>1.9999999999999998</ele><time>2026-04-09T14:40:51Z</time></trkpt><trkpt lat="42.85583505607152" lon="3.038717528923029"><ele>2.0</ele><time>2026-04-09T14:40:52Z</time></trkpt><trkpt lat="42.855888735572705" lon="3.0387941338833793"><ele>2.0</ele><time>2026-04-09T14:40:53Z</time></trkpt><trkpt lat="42.855939820989406" lon="3.038866346801376"><ele>2.0</ele><time>2026-04-09T14:40:54Z</time></trkpt><trkpt lat="42.85598514424667" lon="3.0389277729484063"><ele>2.0</ele><time>2026-04-09T14:40:55Z</time></trkpt><trkpt lat="42.85605664851771" lon="3.039031195740672"><ele>2.0</ele><time>2026-04-09T14:40:57Z</time></trkpt><trkpt lat="42.856090267427916" lon="3.0391803061452918"><ele>2.0</ele><time>2026-04-09T14:40:59Z</time></trkpt><trkpt lat="42.856135096756724" lon="3.039303278983203"><ele>2.0</ele><time>2026-04-09T14:41:01Z</time></trkpt><trkpt lat="42.85622714909609" lon="3.0393362210487793"><ele>2.0</ele><time>2026-04-09T14:41:03Z</time></trkpt><trkpt lat="42.8563212350272" lon="3.039242179677804"><ele>2.0</ele><time>2026-04-09T14:41:05Z</time></trkpt><trkpt lat="42.856360814639785" lon="3.039081699686701"><ele>2.0</ele><time>2026-04-09T14:41:07Z</time></trkpt><trkpt lat="42.85641592738366" lon="3.0389398464200554"><ele>1.9999999999999998</ele><time>2026-04-09T14:41:09Z</time></trkpt><trkpt lat="42.85648761688019" lon="3.0388207258694977"><ele>2.0</ele><time>2026-04-09T14:41:11Z</time></trkpt><trkpt lat="42.85654137966364" lon="3.0387258703369526"><ele>2.0</ele><time>2026-04-09T14:41:13Z</time></trkpt><trkpt lat="42.85660567064914" lon="3.0387021066765345"><ele>2.0</ele><time>2026-04-09T14:41:16Z</time></trkpt><trkpt lat="42.85665741287237" lon="3.0388314202008044"><ele>1.9999999999999998</ele><time>2026-04-09T14:41:34Z</time></trkpt><trkpt lat="42.8567025393755" lon="3.038909324182457"><ele>2.0</ele><time>2026-04-09T14:41:36Z</time></trkpt><trkpt lat="42.85674977708498" lon="3.0389829790667524"><ele>2.0</ele><time>2026-04-09T14:41:39Z</time></trkpt><trkpt lat="42.856851994418456" lon="3.0389682609053312"><ele>2.0</ele><time>2026-04-09T14:41:43Z</time></trkpt><trkpt lat="42.856901263472224" lon="3.038910335292557"><ele>2.0</ele><time>2026-04-09T14:41:45Z</time></trkpt><trkpt lat="42.856950289251955" lon="3.0388509159880583"><ele>2.0</ele><time>2026-04-09T14:41:47Z</time></trkpt></trkseg></trk></gpx>